<?xml version="1.0" encoding="UTF-8" standalone="no" ?>
<gpx xmlns="http://www.topografix.com/GPX/1/1" xmlns:xsi="http://www.w3.org/2001/XMLSchema-instance" xsi:schemaLocation="http://www.topografix.com/GPX/1/1 http://www.topografix.com/GPX/1/1/gpx.xsd" version="1.1" creator="VisuGPX - https://www.visugpx.com">
  <metadata>
    <name>Barrages du SCP</name>
  </metadata>
  <trk>
    <name><![CDATA[Barrages du SCP_1]]></name>
    <trkseg>
      <trkpt lat="43.52199" lon="5.5106">
        <ele>194</ele>
        <time>2018-02-20T07:39:21.000Z</time>
      </trkpt>
      <trkpt lat="43.52199" lon="5.5106">
        <ele>194</ele>
        <time>2018-02-20T07:39:22.000Z</time>
      </trkpt>
      <trkpt lat="43.52199" lon="5.5106">
        <ele>194</ele>
        <time>2018-02-20T07:39:23.000Z</time>
      </trkpt>
      <trkpt lat="43.52199" lon="5.51059">
        <ele>193</ele>
        <time>2018-02-20T07:39:24.000Z</time>
      </trkpt>
      <trkpt lat="43.52199" lon="5.51059">
        <ele>193</ele>
        <time>2018-02-20T07:39:25.000Z</time>
      </trkpt>
      <trkpt lat="43.52199" lon="5.51059">
        <ele>193</ele>
        <time>2018-02-20T07:39:26.000Z</time>
      </trkpt>
      <trkpt lat="43.52199" lon="5.51059">
        <ele>193</ele>
        <time>2018-02-20T07:39:27.000Z</time>
      </trkpt>
      <trkpt lat="43.52199" lon="5.51059">
        <ele>192</ele>
        <time>2018-02-20T07:39:28.000Z</time>
      </trkpt>
      <trkpt lat="43.52199" lon="5.51059">
        <ele>192</ele>
        <time>2018-02-20T07:39:29.000Z</time>
      </trkpt>
      <trkpt lat="43.52199" lon="5.51059">
        <ele>192</ele>
        <time>2018-02-20T07:39:30.000Z</time>
      </trkpt>
      <trkpt lat="43.52199" lon="5.51059">
        <ele>192</ele>
        <time>2018-02-20T07:39:31.000Z</time>
      </trkpt>
      <trkpt lat="43.52199" lon="5.51058">
        <ele>192</ele>
        <time>2018-02-20T07:39:32.000Z</time>
      </trkpt>
      <trkpt lat="43.52199" lon="5.51058">
        <ele>192</ele>
        <time>2018-02-20T07:39:33.000Z</time>
      </trkpt>
      <trkpt lat="43.52199" lon="5.51058">
        <ele>192</ele>
        <time>2018-02-20T07:39:34.000Z</time>
      </trkpt>
      <trkpt lat="43.52199" lon="5.51058">
        <ele>192</ele>
        <time>2018-02-20T07:39:35.000Z</time>
      </trkpt>
      <trkpt lat="43.52198" lon="5.51058">
        <ele>192</ele>
        <time>2018-02-20T07:39:36.000Z</time>
      </trkpt>
      <trkpt lat="43.52198" lon="5.51058">
        <ele>192</ele>
        <time>2018-02-20T07:39:37.000Z</time>
      </trkpt>
      <trkpt lat="43.52198" lon="5.51058">
        <ele>192</ele>
        <time>2018-02-20T07:39:38.000Z</time>
      </trkpt>
      <trkpt lat="43.52198" lon="5.51058">
        <ele>191</ele>
        <time>2018-02-20T07:39:39.000Z</time>
      </trkpt>
      <trkpt lat="43.52198" lon="5.51058">
        <ele>191</ele>
        <time>2018-02-20T07:39:40.000Z</time>
      </trkpt>
      <trkpt lat="43.52198" lon="5.51058">
        <ele>191</ele>
        <time>2018-02-20T07:39:41.000Z</time>
      </trkpt>
      <trkpt lat="43.52198" lon="5.51058">
        <ele>191</ele>
        <time>2018-02-20T07:39:42.000Z</time>
      </trkpt>
      <trkpt lat="43.52198" lon="5.51058">
        <ele>191</ele>
        <time>2018-02-20T07:39:43.000Z</time>
      </trkpt>
      <trkpt lat="43.52198" lon="5.51058">
        <ele>191</ele>
        <time>2018-02-20T07:39:44.000Z</time>
      </trkpt>
      <trkpt lat="43.52197" lon="5.51058">
        <ele>191</ele>
        <time>2018-02-20T07:39:45.000Z</time>
      </trkpt>
      <trkpt lat="43.52197" lon="5.51059">
        <ele>191</ele>
        <time>2018-02-20T07:39:46.000Z</time>
      </trkpt>
      <trkpt lat="43.52197" lon="5.51059">
        <ele>192</ele>
        <time>2018-02-20T07:39:47.000Z</time>
      </trkpt>
      <trkpt lat="43.52197" lon="5.51059">
        <ele>192</ele>
        <time>2018-02-20T07:39:48.000Z</time>
      </trkpt>
      <trkpt lat="43.52197" lon="5.51058">
        <ele>192</ele>
        <time>2018-02-20T07:39:49.000Z</time>
      </trkpt>
      <trkpt lat="43.52197" lon="5.51059">
        <ele>192</ele>
        <time>2018-02-20T07:39:50.000Z</time>
      </trkpt>
      <trkpt lat="43.52197" lon="5.51059">
        <ele>192</ele>
        <time>2018-02-20T07:39:51.000Z</time>
      </trkpt>
      <trkpt lat="43.52197" lon="5.51059">
        <ele>192</ele>
        <time>2018-02-20T07:39:52.000Z</time>
      </trkpt>
      <trkpt lat="43.52197" lon="5.51059">
        <ele>192</ele>
        <time>2018-02-20T07:39:53.000Z</time>
      </trkpt>
      <trkpt lat="43.52197" lon="5.51059">
        <ele>192</ele>
        <time>2018-02-20T07:39:54.000Z</time>
      </trkpt>
      <trkpt lat="43.52196" lon="5.51059">
        <ele>192</ele>
        <time>2018-02-20T07:39:55.000Z</time>
      </trkpt>
      <trkpt lat="43.52196" lon="5.5106">
        <ele>193</ele>
        <time>2018-02-20T07:39:56.000Z</time>
      </trkpt>
      <trkpt lat="43.52196" lon="5.51059">
        <ele>193</ele>
        <time>2018-02-20T07:39:57.000Z</time>
      </trkpt>
      <trkpt lat="43.52196" lon="5.51059">
        <ele>193</ele>
        <time>2018-02-20T07:39:58.000Z</time>
      </trkpt>
      <trkpt lat="43.52196" lon="5.5106">
        <ele>193</ele>
        <time>2018-02-20T07:39:59.000Z</time>
      </trkpt>
      <trkpt lat="43.52196" lon="5.5106">
        <ele>193</ele>
        <time>2018-02-20T07:40:00.000Z</time>
      </trkpt>
      <trkpt lat="43.52196" lon="5.5106">
        <ele>193</ele>
        <time>2018-02-20T07:40:01.000Z</time>
      </trkpt>
      <trkpt lat="43.52196" lon="5.5106">
        <ele>193</ele>
        <time>2018-02-20T07:40:02.000Z</time>
      </trkpt>
      <trkpt lat="43.52196" lon="5.5106">
        <ele>193</ele>
        <time>2018-02-20T07:40:03.000Z</time>
      </trkpt>
      <trkpt lat="43.52196" lon="5.5106">
        <ele>193</ele>
        <time>2018-02-20T07:40:04.000Z</time>
      </trkpt>
      <trkpt lat="43.52197" lon="5.5106">
        <ele>193</ele>
        <time>2018-02-20T07:40:05.000Z</time>
      </trkpt>
      <trkpt lat="43.52197" lon="5.5106">
        <ele>193</ele>
        <time>2018-02-20T07:40:06.000Z</time>
      </trkpt>
      <trkpt lat="43.52197" lon="5.5106">
        <ele>193</ele>
        <time>2018-02-20T07:40:07.000Z</time>
      </trkpt>
      <trkpt lat="43.52197" lon="5.5106">
        <ele>193</ele>
        <time>2018-02-20T07:40:08.000Z</time>
      </trkpt>
      <trkpt lat="43.52197" lon="5.5106">
        <ele>193</ele>
        <time>2018-02-20T07:40:09.000Z</time>
      </trkpt>
      <trkpt lat="43.52197" lon="5.5106">
        <ele>193</ele>
        <time>2018-02-20T07:40:10.000Z</time>
      </trkpt>
      <trkpt lat="43.52197" lon="5.5106">
        <ele>193</ele>
        <time>2018-02-20T07:40:11.000Z</time>
      </trkpt>
      <trkpt lat="43.52197" lon="5.51061">
        <ele>193</ele>
        <time>2018-02-20T07:40:12.000Z</time>
      </trkpt>
      <trkpt lat="43.52197" lon="5.51061">
        <ele>193</ele>
        <time>2018-02-20T07:40:13.000Z</time>
      </trkpt>
      <trkpt lat="43.52197" lon="5.51061">
        <ele>193</ele>
        <time>2018-02-20T07:40:14.000Z</time>
      </trkpt>
      <trkpt lat="43.52197" lon="5.51061">
        <ele>192</ele>
        <time>2018-02-20T07:40:15.000Z</time>
      </trkpt>
      <trkpt lat="43.52197" lon="5.51061">
        <ele>192</ele>
        <time>2018-02-20T07:40:16.000Z</time>
      </trkpt>
      <trkpt lat="43.52197" lon="5.51061">
        <ele>192</ele>
        <time>2018-02-20T07:40:17.000Z</time>
      </trkpt>
      <trkpt lat="43.52197" lon="5.51061">
        <ele>192</ele>
        <time>2018-02-20T07:40:18.000Z</time>
      </trkpt>
      <trkpt lat="43.52197" lon="5.51061">
        <ele>192</ele>
        <time>2018-02-20T07:40:19.000Z</time>
      </trkpt>
      <trkpt lat="43.52197" lon="5.51062">
        <ele>192</ele>
        <time>2018-02-20T07:40:20.000Z</time>
      </trkpt>
      <trkpt lat="43.52197" lon="5.51062">
        <ele>192</ele>
        <time>2018-02-20T07:40:21.000Z</time>
      </trkpt>
      <trkpt lat="43.52197" lon="5.51062">
        <ele>192</ele>
        <time>2018-02-20T07:40:22.000Z</time>
      </trkpt>
      <trkpt lat="43.52197" lon="5.51062">
        <ele>192</ele>
        <time>2018-02-20T07:40:23.000Z</time>
      </trkpt>
      <trkpt lat="43.52197" lon="5.51062">
        <ele>192</ele>
        <time>2018-02-20T07:40:24.000Z</time>
      </trkpt>
      <trkpt lat="43.52197" lon="5.51062">
        <ele>192</ele>
        <time>2018-02-20T07:40:25.000Z</time>
      </trkpt>
      <trkpt lat="43.52197" lon="5.51061">
        <ele>192</ele>
        <time>2018-02-20T07:40:26.000Z</time>
      </trkpt>
      <trkpt lat="43.52197" lon="5.51061">
        <ele>192</ele>
        <time>2018-02-20T07:40:27.000Z</time>
      </trkpt>
      <trkpt lat="43.52197" lon="5.51061">
        <ele>192</ele>
        <time>2018-02-20T07:40:28.000Z</time>
      </trkpt>
      <trkpt lat="43.52197" lon="5.51061">
        <ele>192</ele>
        <time>2018-02-20T07:40:29.000Z</time>
      </trkpt>
      <trkpt lat="43.52197" lon="5.51061">
        <ele>192</ele>
        <time>2018-02-20T07:40:30.000Z</time>
      </trkpt>
      <trkpt lat="43.52197" lon="5.51061">
        <ele>192</ele>
        <time>2018-02-20T07:40:31.000Z</time>
      </trkpt>
      <trkpt lat="43.52197" lon="5.51061">
        <ele>192</ele>
        <time>2018-02-20T07:40:32.000Z</time>
      </trkpt>
      <trkpt lat="43.52197" lon="5.51061">
        <ele>192</ele>
        <time>2018-02-20T07:40:33.000Z</time>
      </trkpt>
      <trkpt lat="43.52197" lon="5.51061">
        <ele>192</ele>
        <time>2018-02-20T07:40:34.000Z</time>
      </trkpt>
      <trkpt lat="43.52197" lon="5.51061">
        <ele>192</ele>
        <time>2018-02-20T07:40:35.000Z</time>
      </trkpt>
      <trkpt lat="43.52198" lon="5.51061">
        <ele>191</ele>
        <time>2018-02-20T07:40:36.000Z</time>
      </trkpt>
      <trkpt lat="43.52198" lon="5.5106">
        <ele>191</ele>
        <time>2018-02-20T07:40:37.000Z</time>
      </trkpt>
      <trkpt lat="43.52198" lon="5.5106">
        <ele>191</ele>
        <time>2018-02-20T07:40:38.000Z</time>
      </trkpt>
      <trkpt lat="43.52198" lon="5.5106">
        <ele>191</ele>
        <time>2018-02-20T07:40:39.000Z</time>
      </trkpt>
      <trkpt lat="43.52198" lon="5.5106">
        <ele>191</ele>
        <time>2018-02-20T07:40:40.000Z</time>
      </trkpt>
      <trkpt lat="43.52198" lon="5.5106">
        <ele>191</ele>
        <time>2018-02-20T07:40:41.000Z</time>
      </trkpt>
      <trkpt lat="43.52199" lon="5.5106">
        <ele>191</ele>
        <time>2018-02-20T07:40:42.000Z</time>
      </trkpt>
      <trkpt lat="43.52199" lon="5.5106">
        <ele>191</ele>
        <time>2018-02-20T07:40:43.000Z</time>
      </trkpt>
      <trkpt lat="43.52199" lon="5.51059">
        <ele>191</ele>
        <time>2018-02-20T07:40:44.000Z</time>
      </trkpt>
      <trkpt lat="43.52199" lon="5.51059">
        <ele>191</ele>
        <time>2018-02-20T07:40:45.000Z</time>
      </trkpt>
      <trkpt lat="43.52199" lon="5.51059">
        <ele>191</ele>
        <time>2018-02-20T07:40:46.000Z</time>
      </trkpt>
      <trkpt lat="43.52199" lon="5.51059">
        <ele>190</ele>
        <time>2018-02-20T07:40:47.000Z</time>
      </trkpt>
      <trkpt lat="43.52199" lon="5.51058">
        <ele>190</ele>
        <time>2018-02-20T07:40:48.000Z</time>
      </trkpt>
      <trkpt lat="43.52199" lon="5.51058">
        <ele>190</ele>
        <time>2018-02-20T07:40:49.000Z</time>
      </trkpt>
      <trkpt lat="43.52199" lon="5.51058">
        <ele>190</ele>
        <time>2018-02-20T07:40:50.000Z</time>
      </trkpt>
      <trkpt lat="43.52199" lon="5.51058">
        <ele>189</ele>
        <time>2018-02-20T07:40:51.000Z</time>
      </trkpt>
      <trkpt lat="43.52199" lon="5.51058">
        <ele>189</ele>
        <time>2018-02-20T07:40:52.000Z</time>
      </trkpt>
      <trkpt lat="43.52199" lon="5.51058">
        <ele>189</ele>
        <time>2018-02-20T07:40:53.000Z</time>
      </trkpt>
      <trkpt lat="43.52199" lon="5.51058">
        <ele>189</ele>
        <time>2018-02-20T07:40:54.000Z</time>
      </trkpt>
      <trkpt lat="43.522" lon="5.51058">
        <ele>189</ele>
        <time>2018-02-20T07:40:55.000Z</time>
      </trkpt>
      <trkpt lat="43.522" lon="5.51057">
        <ele>189</ele>
        <time>2018-02-20T07:40:56.000Z</time>
      </trkpt>
      <trkpt lat="43.522" lon="5.51057">
        <ele>188</ele>
        <time>2018-02-20T07:40:57.000Z</time>
      </trkpt>
      <trkpt lat="43.522" lon="5.51057">
        <ele>188</ele>
        <time>2018-02-20T07:40:58.000Z</time>
      </trkpt>
      <trkpt lat="43.522" lon="5.51057">
        <ele>188</ele>
        <time>2018-02-20T07:40:59.000Z</time>
      </trkpt>
      <trkpt lat="43.522" lon="5.51057">
        <ele>188</ele>
        <time>2018-02-20T07:41:00.000Z</time>
      </trkpt>
      <trkpt lat="43.522" lon="5.51057">
        <ele>188</ele>
        <time>2018-02-20T07:41:01.000Z</time>
      </trkpt>
      <trkpt lat="43.522" lon="5.51057">
        <ele>188</ele>
        <time>2018-02-20T07:41:02.000Z</time>
      </trkpt>
      <trkpt lat="43.522" lon="5.51057">
        <ele>187</ele>
        <time>2018-02-20T07:41:03.000Z</time>
      </trkpt>
      <trkpt lat="43.522" lon="5.51057">
        <ele>187</ele>
        <time>2018-02-20T07:41:04.000Z</time>
      </trkpt>
      <trkpt lat="43.52201" lon="5.51057">
        <ele>187</ele>
        <time>2018-02-20T07:41:05.000Z</time>
      </trkpt>
      <trkpt lat="43.522" lon="5.51057">
        <ele>187</ele>
        <time>2018-02-20T07:41:06.000Z</time>
      </trkpt>
      <trkpt lat="43.52201" lon="5.51057">
        <ele>187</ele>
        <time>2018-02-20T07:41:07.000Z</time>
      </trkpt>
      <trkpt lat="43.522" lon="5.51057">
        <ele>187</ele>
        <time>2018-02-20T07:41:08.000Z</time>
      </trkpt>
      <trkpt lat="43.522" lon="5.51057">
        <ele>187</ele>
        <time>2018-02-20T07:41:09.000Z</time>
      </trkpt>
      <trkpt lat="43.522" lon="5.51057">
        <ele>187</ele>
        <time>2018-02-20T07:41:10.000Z</time>
      </trkpt>
      <trkpt lat="43.522" lon="5.51057">
        <ele>188</ele>
        <time>2018-02-20T07:41:11.000Z</time>
      </trkpt>
      <trkpt lat="43.522" lon="5.51057">
        <ele>188</ele>
        <time>2018-02-20T07:41:12.000Z</time>
      </trkpt>
      <trkpt lat="43.522" lon="5.51057">
        <ele>188</ele>
        <time>2018-02-20T07:41:13.000Z</time>
      </trkpt>
      <trkpt lat="43.522" lon="5.51056">
        <ele>188</ele>
        <time>2018-02-20T07:41:14.000Z</time>
      </trkpt>
      <trkpt lat="43.522" lon="5.51056">
        <ele>188</ele>
        <time>2018-02-20T07:41:15.000Z</time>
      </trkpt>
      <trkpt lat="43.522" lon="5.51056">
        <ele>188</ele>
        <time>2018-02-20T07:41:16.000Z</time>
      </trkpt>
      <trkpt lat="43.522" lon="5.51056">
        <ele>188</ele>
        <time>2018-02-20T07:41:17.000Z</time>
      </trkpt>
      <trkpt lat="43.52201" lon="5.51056">
        <ele>188</ele>
        <time>2018-02-20T07:41:18.000Z</time>
      </trkpt>
      <trkpt lat="43.52201" lon="5.51056">
        <ele>188</ele>
        <time>2018-02-20T07:41:19.000Z</time>
      </trkpt>
      <trkpt lat="43.52201" lon="5.51055">
        <ele>188</ele>
        <time>2018-02-20T07:41:20.000Z</time>
      </trkpt>
      <trkpt lat="43.52201" lon="5.51055">
        <ele>188</ele>
        <time>2018-02-20T07:41:21.000Z</time>
      </trkpt>
      <trkpt lat="43.52201" lon="5.51055">
        <ele>188</ele>
        <time>2018-02-20T07:41:22.000Z</time>
      </trkpt>
      <trkpt lat="43.52201" lon="5.51055">
        <ele>188</ele>
        <time>2018-02-20T07:41:23.000Z</time>
      </trkpt>
      <trkpt lat="43.52201" lon="5.51056">
        <ele>188</ele>
        <time>2018-02-20T07:41:24.000Z</time>
      </trkpt>
      <trkpt lat="43.52201" lon="5.51055">
        <ele>188</ele>
        <time>2018-02-20T07:41:25.000Z</time>
      </trkpt>
      <trkpt lat="43.52201" lon="5.51055">
        <ele>188</ele>
        <time>2018-02-20T07:41:26.000Z</time>
      </trkpt>
      <trkpt lat="43.52201" lon="5.51055">
        <ele>188</ele>
        <time>2018-02-20T07:41:27.000Z</time>
      </trkpt>
      <trkpt lat="43.52201" lon="5.51055">
        <ele>188</ele>
        <time>2018-02-20T07:41:28.000Z</time>
      </trkpt>
      <trkpt lat="43.52201" lon="5.51055">
        <ele>188</ele>
        <time>2018-02-20T07:41:29.000Z</time>
      </trkpt>
      <trkpt lat="43.52201" lon="5.51055">
        <ele>188</ele>
        <time>2018-02-20T07:41:30.000Z</time>
      </trkpt>
      <trkpt lat="43.52201" lon="5.51055">
        <ele>188</ele>
        <time>2018-02-20T07:41:31.000Z</time>
      </trkpt>
      <trkpt lat="43.52201" lon="5.51055">
        <ele>188</ele>
        <time>2018-02-20T07:41:32.000Z</time>
      </trkpt>
      <trkpt lat="43.52201" lon="5.51055">
        <ele>188</ele>
        <time>2018-02-20T07:41:33.000Z</time>
      </trkpt>
      <trkpt lat="43.52201" lon="5.51055">
        <ele>188</ele>
        <time>2018-02-20T07:41:34.000Z</time>
      </trkpt>
      <trkpt lat="43.522" lon="5.51055">
        <ele>188</ele>
        <time>2018-02-20T07:41:35.000Z</time>
      </trkpt>
      <trkpt lat="43.522" lon="5.51055">
        <ele>188</ele>
        <time>2018-02-20T07:41:36.000Z</time>
      </trkpt>
      <trkpt lat="43.522" lon="5.51055">
        <ele>188</ele>
        <time>2018-02-20T07:41:37.000Z</time>
      </trkpt>
      <trkpt lat="43.522" lon="5.51055">
        <ele>188</ele>
        <time>2018-02-20T07:41:38.000Z</time>
      </trkpt>
      <trkpt lat="43.522" lon="5.51055">
        <ele>188</ele>
        <time>2018-02-20T07:41:39.000Z</time>
      </trkpt>
      <trkpt lat="43.52196" lon="5.51044">
        <ele>188</ele>
        <time>2018-02-20T07:41:40.000Z</time>
      </trkpt>
      <trkpt lat="43.52196" lon="5.51044">
        <ele>188</ele>
        <time>2018-02-20T07:41:41.000Z</time>
      </trkpt>
      <trkpt lat="43.52196" lon="5.51044">
        <ele>188</ele>
        <time>2018-02-20T07:41:42.000Z</time>
      </trkpt>
      <trkpt lat="43.52196" lon="5.51044">
        <ele>188</ele>
        <time>2018-02-20T07:41:43.000Z</time>
      </trkpt>
      <trkpt lat="43.52196" lon="5.51044">
        <ele>188</ele>
        <time>2018-02-20T07:41:44.000Z</time>
      </trkpt>
      <trkpt lat="43.52196" lon="5.51044">
        <ele>188</ele>
        <time>2018-02-20T07:41:45.000Z</time>
      </trkpt>
      <trkpt lat="43.52196" lon="5.51044">
        <ele>188</ele>
        <time>2018-02-20T07:41:46.000Z</time>
      </trkpt>
      <trkpt lat="43.52196" lon="5.51044">
        <ele>188</ele>
        <time>2018-02-20T07:41:47.000Z</time>
      </trkpt>
      <trkpt lat="43.52196" lon="5.51044">
        <ele>188</ele>
        <time>2018-02-20T07:41:48.000Z</time>
      </trkpt>
      <trkpt lat="43.52196" lon="5.51044">
        <ele>188</ele>
        <time>2018-02-20T07:41:49.000Z</time>
      </trkpt>
      <trkpt lat="43.52196" lon="5.51045">
        <ele>188</ele>
        <time>2018-02-20T07:41:50.000Z</time>
      </trkpt>
      <trkpt lat="43.52196" lon="5.51045">
        <ele>188</ele>
        <time>2018-02-20T07:41:51.000Z</time>
      </trkpt>
      <trkpt lat="43.52196" lon="5.51045">
        <ele>188</ele>
        <time>2018-02-20T07:41:52.000Z</time>
      </trkpt>
      <trkpt lat="43.52196" lon="5.51045">
        <ele>188</ele>
        <time>2018-02-20T07:41:53.000Z</time>
      </trkpt>
      <trkpt lat="43.52196" lon="5.51045">
        <ele>188</ele>
        <time>2018-02-20T07:41:54.000Z</time>
      </trkpt>
      <trkpt lat="43.52196" lon="5.51045">
        <ele>188</ele>
        <time>2018-02-20T07:41:55.000Z</time>
      </trkpt>
      <trkpt lat="43.52196" lon="5.51045">
        <ele>188</ele>
        <time>2018-02-20T07:41:56.000Z</time>
      </trkpt>
      <trkpt lat="43.52196" lon="5.51045">
        <ele>189</ele>
        <time>2018-02-20T07:41:57.000Z</time>
      </trkpt>
      <trkpt lat="43.52196" lon="5.51045">
        <ele>189</ele>
        <time>2018-02-20T07:41:58.000Z</time>
      </trkpt>
      <trkpt lat="43.52196" lon="5.51045">
        <ele>189</ele>
        <time>2018-02-20T07:41:59.000Z</time>
      </trkpt>
      <trkpt lat="43.52196" lon="5.51045">
        <ele>189</ele>
        <time>2018-02-20T07:42:00.000Z</time>
      </trkpt>
      <trkpt lat="43.52196" lon="5.51045">
        <ele>189</ele>
        <time>2018-02-20T07:42:01.000Z</time>
      </trkpt>
      <trkpt lat="43.52197" lon="5.51045">
        <ele>189</ele>
        <time>2018-02-20T07:42:02.000Z</time>
      </trkpt>
      <trkpt lat="43.52197" lon="5.51046">
        <ele>189</ele>
        <time>2018-02-20T07:42:03.000Z</time>
      </trkpt>
      <trkpt lat="43.52197" lon="5.51046">
        <ele>189</ele>
        <time>2018-02-20T07:42:04.000Z</time>
      </trkpt>
      <trkpt lat="43.52197" lon="5.51046">
        <ele>189</ele>
        <time>2018-02-20T07:42:05.000Z</time>
      </trkpt>
      <trkpt lat="43.52197" lon="5.51046">
        <ele>190</ele>
        <time>2018-02-20T07:42:06.000Z</time>
      </trkpt>
      <trkpt lat="43.52197" lon="5.51046">
        <ele>190</ele>
        <time>2018-02-20T07:42:07.000Z</time>
      </trkpt>
      <trkpt lat="43.52197" lon="5.51046">
        <ele>190</ele>
        <time>2018-02-20T07:42:08.000Z</time>
      </trkpt>
      <trkpt lat="43.52197" lon="5.51046">
        <ele>190</ele>
        <time>2018-02-20T07:42:09.000Z</time>
      </trkpt>
      <trkpt lat="43.52198" lon="5.51046">
        <ele>190</ele>
        <time>2018-02-20T07:42:10.000Z</time>
      </trkpt>
      <trkpt lat="43.52198" lon="5.51047">
        <ele>191</ele>
        <time>2018-02-20T07:42:11.000Z</time>
      </trkpt>
      <trkpt lat="43.52198" lon="5.51047">
        <ele>191</ele>
        <time>2018-02-20T07:42:12.000Z</time>
      </trkpt>
      <trkpt lat="43.52198" lon="5.51047">
        <ele>191</ele>
        <time>2018-02-20T07:42:13.000Z</time>
      </trkpt>
      <trkpt lat="43.52198" lon="5.51047">
        <ele>191</ele>
        <time>2018-02-20T07:42:14.000Z</time>
      </trkpt>
      <trkpt lat="43.52198" lon="5.51047">
        <ele>191</ele>
        <time>2018-02-20T07:42:15.000Z</time>
      </trkpt>
      <trkpt lat="43.52198" lon="5.51047">
        <ele>191</ele>
        <time>2018-02-20T07:42:16.000Z</time>
      </trkpt>
      <trkpt lat="43.52199" lon="5.51047">
        <ele>191</ele>
        <time>2018-02-20T07:42:17.000Z</time>
      </trkpt>
      <trkpt lat="43.52199" lon="5.51047">
        <ele>191</ele>
        <time>2018-02-20T07:42:18.000Z</time>
      </trkpt>
      <trkpt lat="43.52199" lon="5.51047">
        <ele>191</ele>
        <time>2018-02-20T07:42:19.000Z</time>
      </trkpt>
      <trkpt lat="43.52199" lon="5.51047">
        <ele>191</ele>
        <time>2018-02-20T07:42:20.000Z</time>
      </trkpt>
      <trkpt lat="43.52199" lon="5.51047">
        <ele>191</ele>
        <time>2018-02-20T07:42:21.000Z</time>
      </trkpt>
      <trkpt lat="43.52199" lon="5.51047">
        <ele>191</ele>
        <time>2018-02-20T07:42:22.000Z</time>
      </trkpt>
      <trkpt lat="43.52199" lon="5.51047">
        <ele>191</ele>
        <time>2018-02-20T07:42:23.000Z</time>
      </trkpt>
      <trkpt lat="43.52199" lon="5.51047">
        <ele>192</ele>
        <time>2018-02-20T07:42:24.000Z</time>
      </trkpt>
      <trkpt lat="43.52199" lon="5.51047">
        <ele>192</ele>
        <time>2018-02-20T07:42:25.000Z</time>
      </trkpt>
      <trkpt lat="43.52199" lon="5.51046">
        <ele>192</ele>
        <time>2018-02-20T07:42:26.000Z</time>
      </trkpt>
      <trkpt lat="43.522" lon="5.51046">
        <ele>192</ele>
        <time>2018-02-20T07:42:27.000Z</time>
      </trkpt>
      <trkpt lat="43.522" lon="5.51046">
        <ele>192</ele>
        <time>2018-02-20T07:42:28.000Z</time>
      </trkpt>
      <trkpt lat="43.522" lon="5.51046">
        <ele>192</ele>
        <time>2018-02-20T07:42:29.000Z</time>
      </trkpt>
      <trkpt lat="43.522" lon="5.51046">
        <ele>192</ele>
        <time>2018-02-20T07:42:30.000Z</time>
      </trkpt>
      <trkpt lat="43.522" lon="5.51046">
        <ele>192</ele>
        <time>2018-02-20T07:42:31.000Z</time>
      </trkpt>
      <trkpt lat="43.522" lon="5.51046">
        <ele>192</ele>
        <time>2018-02-20T07:42:32.000Z</time>
      </trkpt>
      <trkpt lat="43.522" lon="5.51046">
        <ele>192</ele>
        <time>2018-02-20T07:42:33.000Z</time>
      </trkpt>
      <trkpt lat="43.522" lon="5.51046">
        <ele>192</ele>
        <time>2018-02-20T07:42:34.000Z</time>
      </trkpt>
      <trkpt lat="43.522" lon="5.51046">
        <ele>192</ele>
        <time>2018-02-20T07:42:35.000Z</time>
      </trkpt>
      <trkpt lat="43.522" lon="5.51046">
        <ele>192</ele>
        <time>2018-02-20T07:42:36.000Z</time>
      </trkpt>
      <trkpt lat="43.522" lon="5.51046">
        <ele>192</ele>
        <time>2018-02-20T07:42:37.000Z</time>
      </trkpt>
      <trkpt lat="43.522" lon="5.51046">
        <ele>192</ele>
        <time>2018-02-20T07:42:38.000Z</time>
      </trkpt>
      <trkpt lat="43.522" lon="5.51046">
        <ele>192</ele>
        <time>2018-02-20T07:42:39.000Z</time>
      </trkpt>
      <trkpt lat="43.522" lon="5.51046">
        <ele>192</ele>
        <time>2018-02-20T07:42:40.000Z</time>
      </trkpt>
      <trkpt lat="43.522" lon="5.51046">
        <ele>192</ele>
        <time>2018-02-20T07:42:41.000Z</time>
      </trkpt>
      <trkpt lat="43.522" lon="5.51046">
        <ele>192</ele>
        <time>2018-02-20T07:42:42.000Z</time>
      </trkpt>
      <trkpt lat="43.522" lon="5.51046">
        <ele>192</ele>
        <time>2018-02-20T07:42:43.000Z</time>
      </trkpt>
      <trkpt lat="43.522" lon="5.51046">
        <ele>192</ele>
        <time>2018-02-20T07:42:44.000Z</time>
      </trkpt>
      <trkpt lat="43.522" lon="5.51046">
        <ele>192</ele>
        <time>2018-02-20T07:42:45.000Z</time>
      </trkpt>
      <trkpt lat="43.522" lon="5.51046">
        <ele>192</ele>
        <time>2018-02-20T07:42:46.000Z</time>
      </trkpt>
      <trkpt lat="43.522" lon="5.51046">
        <ele>192</ele>
        <time>2018-02-20T07:42:47.000Z</time>
      </trkpt>
      <trkpt lat="43.522" lon="5.51046">
        <ele>192</ele>
        <time>2018-02-20T07:42:48.000Z</time>
      </trkpt>
      <trkpt lat="43.522" lon="5.51046">
        <ele>192</ele>
        <time>2018-02-20T07:42:49.000Z</time>
      </trkpt>
      <trkpt lat="43.522" lon="5.51046">
        <ele>192</ele>
        <time>2018-02-20T07:42:50.000Z</time>
      </trkpt>
      <trkpt lat="43.522" lon="5.51046">
        <ele>192</ele>
        <time>2018-02-20T07:42:51.000Z</time>
      </trkpt>
      <trkpt lat="43.522" lon="5.51046">
        <ele>192</ele>
        <time>2018-02-20T07:42:52.000Z</time>
      </trkpt>
      <trkpt lat="43.522" lon="5.51046">
        <ele>192</ele>
        <time>2018-02-20T07:42:53.000Z</time>
      </trkpt>
      <trkpt lat="43.522" lon="5.51046">
        <ele>192</ele>
        <time>2018-02-20T07:42:54.000Z</time>
      </trkpt>
      <trkpt lat="43.522" lon="5.51046">
        <ele>192</ele>
        <time>2018-02-20T07:42:55.000Z</time>
      </trkpt>
      <trkpt lat="43.522" lon="5.51046">
        <ele>192</ele>
        <time>2018-02-20T07:42:56.000Z</time>
      </trkpt>
      <trkpt lat="43.522" lon="5.51046">
        <ele>192</ele>
        <time>2018-02-20T07:42:57.000Z</time>
      </trkpt>
      <trkpt lat="43.522" lon="5.51046">
        <ele>192</ele>
        <time>2018-02-20T07:42:58.000Z</time>
      </trkpt>
      <trkpt lat="43.522" lon="5.51046">
        <ele>192</ele>
        <time>2018-02-20T07:42:59.000Z</time>
      </trkpt>
      <trkpt lat="43.522" lon="5.51046">
        <ele>192</ele>
        <time>2018-02-20T07:43:00.000Z</time>
      </trkpt>
      <trkpt lat="43.522" lon="5.51046">
        <ele>192</ele>
        <time>2018-02-20T07:43:01.000Z</time>
      </trkpt>
      <trkpt lat="43.522" lon="5.51046">
        <ele>192</ele>
        <time>2018-02-20T07:43:02.000Z</time>
      </trkpt>
      <trkpt lat="43.522" lon="5.51046">
        <ele>192</ele>
        <time>2018-02-20T07:43:03.000Z</time>
      </trkpt>
      <trkpt lat="43.522" lon="5.51046">
        <ele>192</ele>
        <time>2018-02-20T07:43:04.000Z</time>
      </trkpt>
      <trkpt lat="43.522" lon="5.51046">
        <ele>192</ele>
        <time>2018-02-20T07:43:05.000Z</time>
      </trkpt>
      <trkpt lat="43.522" lon="5.51046">
        <ele>192</ele>
        <time>2018-02-20T07:43:06.000Z</time>
      </trkpt>
      <trkpt lat="43.522" lon="5.51046">
        <ele>191</ele>
        <time>2018-02-20T07:43:07.000Z</time>
      </trkpt>
      <trkpt lat="43.522" lon="5.51046">
        <ele>192</ele>
        <time>2018-02-20T07:43:08.000Z</time>
      </trkpt>
      <trkpt lat="43.52201" lon="5.51046">
        <ele>192</ele>
        <time>2018-02-20T07:43:09.000Z</time>
      </trkpt>
      <trkpt lat="43.52201" lon="5.51046">
        <ele>192</ele>
        <time>2018-02-20T07:43:10.000Z</time>
      </trkpt>
      <trkpt lat="43.52201" lon="5.51046">
        <ele>192</ele>
        <time>2018-02-20T07:43:11.000Z</time>
      </trkpt>
      <trkpt lat="43.52201" lon="5.51046">
        <ele>192</ele>
        <time>2018-02-20T07:43:12.000Z</time>
      </trkpt>
      <trkpt lat="43.52201" lon="5.51045">
        <ele>192</ele>
        <time>2018-02-20T07:43:13.000Z</time>
      </trkpt>
      <trkpt lat="43.52201" lon="5.51045">
        <ele>192</ele>
        <time>2018-02-20T07:43:14.000Z</time>
      </trkpt>
      <trkpt lat="43.52202" lon="5.51044">
        <ele>192</ele>
        <time>2018-02-20T07:43:15.000Z</time>
      </trkpt>
      <trkpt lat="43.52202" lon="5.51043">
        <ele>192</ele>
        <time>2018-02-20T07:43:16.000Z</time>
      </trkpt>
      <trkpt lat="43.52202" lon="5.51042">
        <ele>192</ele>
        <time>2018-02-20T07:43:17.000Z</time>
      </trkpt>
      <trkpt lat="43.52202" lon="5.51041">
        <ele>192</ele>
        <time>2018-02-20T07:43:18.000Z</time>
      </trkpt>
      <trkpt lat="43.52202" lon="5.5104">
        <ele>192</ele>
        <time>2018-02-20T07:43:19.000Z</time>
      </trkpt>
      <trkpt lat="43.52202" lon="5.51039">
        <ele>192</ele>
        <time>2018-02-20T07:43:20.000Z</time>
      </trkpt>
      <trkpt lat="43.52203" lon="5.51039">
        <ele>192</ele>
        <time>2018-02-20T07:43:21.000Z</time>
      </trkpt>
      <trkpt lat="43.52203" lon="5.51038">
        <ele>191</ele>
        <time>2018-02-20T07:43:22.000Z</time>
      </trkpt>
      <trkpt lat="43.52203" lon="5.51039">
        <ele>191</ele>
        <time>2018-02-20T07:43:23.000Z</time>
      </trkpt>
      <trkpt lat="43.52204" lon="5.51039">
        <ele>191</ele>
        <time>2018-02-20T07:43:24.000Z</time>
      </trkpt>
      <trkpt lat="43.52204" lon="5.5104">
        <ele>191</ele>
        <time>2018-02-20T07:43:25.000Z</time>
      </trkpt>
      <trkpt lat="43.52204" lon="5.5104">
        <ele>191</ele>
        <time>2018-02-20T07:43:26.000Z</time>
      </trkpt>
      <trkpt lat="43.52205" lon="5.5104">
        <ele>191</ele>
        <time>2018-02-20T07:43:27.000Z</time>
      </trkpt>
      <trkpt lat="43.52205" lon="5.5104">
        <ele>191</ele>
        <time>2018-02-20T07:43:28.000Z</time>
      </trkpt>
      <trkpt lat="43.52205" lon="5.5104">
        <ele>191</ele>
        <time>2018-02-20T07:43:29.000Z</time>
      </trkpt>
      <trkpt lat="43.52205" lon="5.5104">
        <ele>191</ele>
        <time>2018-02-20T07:43:30.000Z</time>
      </trkpt>
      <trkpt lat="43.52204" lon="5.5104">
        <ele>191</ele>
        <time>2018-02-20T07:43:31.000Z</time>
      </trkpt>
      <trkpt lat="43.52204" lon="5.51041">
        <ele>190</ele>
        <time>2018-02-20T07:43:32.000Z</time>
      </trkpt>
      <trkpt lat="43.52204" lon="5.51041">
        <ele>190</ele>
        <time>2018-02-20T07:43:33.000Z</time>
      </trkpt>
      <trkpt lat="43.52204" lon="5.51042">
        <ele>190</ele>
        <time>2018-02-20T07:43:34.000Z</time>
      </trkpt>
      <trkpt lat="43.52204" lon="5.51042">
        <ele>190</ele>
        <time>2018-02-20T07:43:35.000Z</time>
      </trkpt>
      <trkpt lat="43.52204" lon="5.51043">
        <ele>190</ele>
        <time>2018-02-20T07:43:36.000Z</time>
      </trkpt>
      <trkpt lat="43.52204" lon="5.51043">
        <ele>189</ele>
        <time>2018-02-20T07:43:37.000Z</time>
      </trkpt>
      <trkpt lat="43.52203" lon="5.51044">
        <ele>189</ele>
        <time>2018-02-20T07:43:38.000Z</time>
      </trkpt>
      <trkpt lat="43.52203" lon="5.51044">
        <ele>189</ele>
        <time>2018-02-20T07:43:39.000Z</time>
      </trkpt>
      <trkpt lat="43.52203" lon="5.51044">
        <ele>189</ele>
        <time>2018-02-20T07:43:40.000Z</time>
      </trkpt>
      <trkpt lat="43.52203" lon="5.51045">
        <ele>189</ele>
        <time>2018-02-20T07:43:41.000Z</time>
      </trkpt>
      <trkpt lat="43.52203" lon="5.51045">
        <ele>189</ele>
        <time>2018-02-20T07:43:42.000Z</time>
      </trkpt>
      <trkpt lat="43.52203" lon="5.51045">
        <ele>188</ele>
        <time>2018-02-20T07:43:43.000Z</time>
      </trkpt>
      <trkpt lat="43.52203" lon="5.51045">
        <ele>188</ele>
        <time>2018-02-20T07:43:44.000Z</time>
      </trkpt>
      <trkpt lat="43.52203" lon="5.51045">
        <ele>188</ele>
        <time>2018-02-20T07:43:45.000Z</time>
      </trkpt>
      <trkpt lat="43.52203" lon="5.51044">
        <ele>188</ele>
        <time>2018-02-20T07:43:46.000Z</time>
      </trkpt>
      <trkpt lat="43.52203" lon="5.51043">
        <ele>188</ele>
        <time>2018-02-20T07:43:47.000Z</time>
      </trkpt>
      <trkpt lat="43.52203" lon="5.51043">
        <ele>188</ele>
        <time>2018-02-20T07:43:48.000Z</time>
      </trkpt>
      <trkpt lat="43.52203" lon="5.51042">
        <ele>188</ele>
        <time>2018-02-20T07:43:49.000Z</time>
      </trkpt>
      <trkpt lat="43.52203" lon="5.51041">
        <ele>188</ele>
        <time>2018-02-20T07:43:50.000Z</time>
      </trkpt>
      <trkpt lat="43.52203" lon="5.5104">
        <ele>188</ele>
        <time>2018-02-20T07:43:51.000Z</time>
      </trkpt>
      <trkpt lat="43.52204" lon="5.5104">
        <ele>188</ele>
        <time>2018-02-20T07:43:52.000Z</time>
      </trkpt>
      <trkpt lat="43.52205" lon="5.51039">
        <ele>188</ele>
        <time>2018-02-20T07:43:53.000Z</time>
      </trkpt>
      <trkpt lat="43.52205" lon="5.51039">
        <ele>188</ele>
        <time>2018-02-20T07:43:54.000Z</time>
      </trkpt>
      <trkpt lat="43.52206" lon="5.51038">
        <ele>188</ele>
        <time>2018-02-20T07:43:55.000Z</time>
      </trkpt>
      <trkpt lat="43.52206" lon="5.51039">
        <ele>188</ele>
        <time>2018-02-20T07:43:56.000Z</time>
      </trkpt>
      <trkpt lat="43.52207" lon="5.51039">
        <ele>188</ele>
        <time>2018-02-20T07:43:57.000Z</time>
      </trkpt>
      <trkpt lat="43.52207" lon="5.51039">
        <ele>188</ele>
        <time>2018-02-20T07:43:58.000Z</time>
      </trkpt>
      <trkpt lat="43.52208" lon="5.51039">
        <ele>188</ele>
        <time>2018-02-20T07:43:59.000Z</time>
      </trkpt>
      <trkpt lat="43.52209" lon="5.51039">
        <ele>188</ele>
        <time>2018-02-20T07:44:00.000Z</time>
      </trkpt>
      <trkpt lat="43.52209" lon="5.51039">
        <ele>187</ele>
        <time>2018-02-20T07:44:01.000Z</time>
      </trkpt>
      <trkpt lat="43.5221" lon="5.51039">
        <ele>187</ele>
        <time>2018-02-20T07:44:02.000Z</time>
      </trkpt>
      <trkpt lat="43.52211" lon="5.5104">
        <ele>187</ele>
        <time>2018-02-20T07:44:03.000Z</time>
      </trkpt>
      <trkpt lat="43.52212" lon="5.5104">
        <ele>187</ele>
        <time>2018-02-20T07:44:04.000Z</time>
      </trkpt>
      <trkpt lat="43.52212" lon="5.51041">
        <ele>187</ele>
        <time>2018-02-20T07:44:05.000Z</time>
      </trkpt>
      <trkpt lat="43.52213" lon="5.51041">
        <ele>187</ele>
        <time>2018-02-20T07:44:06.000Z</time>
      </trkpt>
      <trkpt lat="43.52213" lon="5.51041">
        <ele>186</ele>
        <time>2018-02-20T07:44:07.000Z</time>
      </trkpt>
      <trkpt lat="43.52214" lon="5.51042">
        <ele>186</ele>
        <time>2018-02-20T07:44:08.000Z</time>
      </trkpt>
      <trkpt lat="43.52215" lon="5.51042">
        <ele>186</ele>
        <time>2018-02-20T07:44:09.000Z</time>
      </trkpt>
      <trkpt lat="43.52215" lon="5.51041">
        <ele>186</ele>
        <time>2018-02-20T07:44:10.000Z</time>
      </trkpt>
      <trkpt lat="43.52216" lon="5.51042">
        <ele>186</ele>
        <time>2018-02-20T07:44:11.000Z</time>
      </trkpt>
      <trkpt lat="43.52217" lon="5.51042">
        <ele>185</ele>
        <time>2018-02-20T07:44:12.000Z</time>
      </trkpt>
      <trkpt lat="43.52217" lon="5.51042">
        <ele>185</ele>
        <time>2018-02-20T07:44:13.000Z</time>
      </trkpt>
      <trkpt lat="43.52218" lon="5.51042">
        <ele>185</ele>
        <time>2018-02-20T07:44:14.000Z</time>
      </trkpt>
      <trkpt lat="43.52219" lon="5.51042">
        <ele>185</ele>
        <time>2018-02-20T07:44:15.000Z</time>
      </trkpt>
      <trkpt lat="43.5222" lon="5.51042">
        <ele>184</ele>
        <time>2018-02-20T07:44:16.000Z</time>
      </trkpt>
      <trkpt lat="43.52221" lon="5.51042">
        <ele>184</ele>
        <time>2018-02-20T07:44:17.000Z</time>
      </trkpt>
      <trkpt lat="43.52221" lon="5.51042">
        <ele>183</ele>
        <time>2018-02-20T07:44:18.000Z</time>
      </trkpt>
      <trkpt lat="43.52222" lon="5.51042">
        <ele>183</ele>
        <time>2018-02-20T07:44:19.000Z</time>
      </trkpt>
      <trkpt lat="43.52222" lon="5.51042">
        <ele>183</ele>
        <time>2018-02-20T07:44:20.000Z</time>
      </trkpt>
      <trkpt lat="43.52223" lon="5.51043">
        <ele>182</ele>
        <time>2018-02-20T07:44:21.000Z</time>
      </trkpt>
      <trkpt lat="43.52224" lon="5.51043">
        <ele>182</ele>
        <time>2018-02-20T07:44:22.000Z</time>
      </trkpt>
      <trkpt lat="43.52225" lon="5.51043">
        <ele>182</ele>
        <time>2018-02-20T07:44:23.000Z</time>
      </trkpt>
      <trkpt lat="43.52225" lon="5.51044">
        <ele>182</ele>
        <time>2018-02-20T07:44:24.000Z</time>
      </trkpt>
      <trkpt lat="43.52226" lon="5.51044">
        <ele>182</ele>
        <time>2018-02-20T07:44:25.000Z</time>
      </trkpt>
      <trkpt lat="43.52227" lon="5.51044">
        <ele>182</ele>
        <time>2018-02-20T07:44:26.000Z</time>
      </trkpt>
      <trkpt lat="43.52228" lon="5.51044">
        <ele>181</ele>
        <time>2018-02-20T07:44:27.000Z</time>
      </trkpt>
      <trkpt lat="43.52228" lon="5.51044">
        <ele>181</ele>
        <time>2018-02-20T07:44:28.000Z</time>
      </trkpt>
      <trkpt lat="43.52229" lon="5.51043">
        <ele>182</ele>
        <time>2018-02-20T07:44:29.000Z</time>
      </trkpt>
      <trkpt lat="43.52229" lon="5.51043">
        <ele>182</ele>
        <time>2018-02-20T07:44:30.000Z</time>
      </trkpt>
      <trkpt lat="43.5223" lon="5.51042">
        <ele>182</ele>
        <time>2018-02-20T07:44:31.000Z</time>
      </trkpt>
      <trkpt lat="43.52231" lon="5.51041">
        <ele>182</ele>
        <time>2018-02-20T07:44:32.000Z</time>
      </trkpt>
      <trkpt lat="43.52231" lon="5.51041">
        <ele>181</ele>
        <time>2018-02-20T07:44:33.000Z</time>
      </trkpt>
      <trkpt lat="43.52232" lon="5.5104">
        <ele>181</ele>
        <time>2018-02-20T07:44:34.000Z</time>
      </trkpt>
      <trkpt lat="43.52233" lon="5.51038">
        <ele>181</ele>
        <time>2018-02-20T07:44:35.000Z</time>
      </trkpt>
      <trkpt lat="43.52233" lon="5.51037">
        <ele>181</ele>
        <time>2018-02-20T07:44:36.000Z</time>
      </trkpt>
      <trkpt lat="43.52234" lon="5.51036">
        <ele>181</ele>
        <time>2018-02-20T07:44:37.000Z</time>
      </trkpt>
      <trkpt lat="43.52235" lon="5.51035">
        <ele>181</ele>
        <time>2018-02-20T07:44:38.000Z</time>
      </trkpt>
      <trkpt lat="43.52235" lon="5.51034">
        <ele>182</ele>
        <time>2018-02-20T07:44:39.000Z</time>
      </trkpt>
      <trkpt lat="43.52235" lon="5.51033">
        <ele>182</ele>
        <time>2018-02-20T07:44:40.000Z</time>
      </trkpt>
      <trkpt lat="43.52236" lon="5.51031">
        <ele>182</ele>
        <time>2018-02-20T07:44:41.000Z</time>
      </trkpt>
      <trkpt lat="43.52236" lon="5.51031">
        <ele>182</ele>
        <time>2018-02-20T07:44:42.000Z</time>
      </trkpt>
      <trkpt lat="43.52237" lon="5.51029">
        <ele>182</ele>
        <time>2018-02-20T07:44:43.000Z</time>
      </trkpt>
      <trkpt lat="43.52237" lon="5.51028">
        <ele>182</ele>
        <time>2018-02-20T07:44:44.000Z</time>
      </trkpt>
      <trkpt lat="43.52237" lon="5.51027">
        <ele>182</ele>
        <time>2018-02-20T07:44:45.000Z</time>
      </trkpt>
      <trkpt lat="43.52237" lon="5.51025">
        <ele>182</ele>
        <time>2018-02-20T07:44:46.000Z</time>
      </trkpt>
      <trkpt lat="43.52238" lon="5.51024">
        <ele>182</ele>
        <time>2018-02-20T07:44:47.000Z</time>
      </trkpt>
      <trkpt lat="43.52238" lon="5.51023">
        <ele>182</ele>
        <time>2018-02-20T07:44:48.000Z</time>
      </trkpt>
      <trkpt lat="43.52239" lon="5.51022">
        <ele>183</ele>
        <time>2018-02-20T07:44:49.000Z</time>
      </trkpt>
      <trkpt lat="43.52239" lon="5.51021">
        <ele>183</ele>
        <time>2018-02-20T07:44:50.000Z</time>
      </trkpt>
      <trkpt lat="43.52239" lon="5.5102">
        <ele>183</ele>
        <time>2018-02-20T07:44:51.000Z</time>
      </trkpt>
      <trkpt lat="43.52239" lon="5.51018">
        <ele>183</ele>
        <time>2018-02-20T07:44:52.000Z</time>
      </trkpt>
      <trkpt lat="43.5224" lon="5.51017">
        <ele>183</ele>
        <time>2018-02-20T07:44:53.000Z</time>
      </trkpt>
      <trkpt lat="43.5224" lon="5.51016">
        <ele>183</ele>
        <time>2018-02-20T07:44:54.000Z</time>
      </trkpt>
      <trkpt lat="43.52241" lon="5.51014">
        <ele>183</ele>
        <time>2018-02-20T07:44:55.000Z</time>
      </trkpt>
      <trkpt lat="43.52241" lon="5.51013">
        <ele>183</ele>
        <time>2018-02-20T07:44:56.000Z</time>
      </trkpt>
      <trkpt lat="43.52241" lon="5.51011">
        <ele>183</ele>
        <time>2018-02-20T07:44:57.000Z</time>
      </trkpt>
      <trkpt lat="43.52241" lon="5.51009">
        <ele>183</ele>
        <time>2018-02-20T07:44:58.000Z</time>
      </trkpt>
      <trkpt lat="43.52242" lon="5.51008">
        <ele>183</ele>
        <time>2018-02-20T07:44:59.000Z</time>
      </trkpt>
      <trkpt lat="43.52242" lon="5.51006">
        <ele>183</ele>
        <time>2018-02-20T07:45:00.000Z</time>
      </trkpt>
      <trkpt lat="43.52242" lon="5.51004">
        <ele>183</ele>
        <time>2018-02-20T07:45:01.000Z</time>
      </trkpt>
      <trkpt lat="43.52243" lon="5.51002">
        <ele>183</ele>
        <time>2018-02-20T07:45:02.000Z</time>
      </trkpt>
      <trkpt lat="43.52243" lon="5.51001">
        <ele>183</ele>
        <time>2018-02-20T07:45:03.000Z</time>
      </trkpt>
      <trkpt lat="43.52244" lon="5.50999">
        <ele>183</ele>
        <time>2018-02-20T07:45:04.000Z</time>
      </trkpt>
      <trkpt lat="43.52244" lon="5.50997">
        <ele>183</ele>
        <time>2018-02-20T07:45:05.000Z</time>
      </trkpt>
      <trkpt lat="43.52244" lon="5.50996">
        <ele>182</ele>
        <time>2018-02-20T07:45:06.000Z</time>
      </trkpt>
      <trkpt lat="43.52245" lon="5.50994">
        <ele>182</ele>
        <time>2018-02-20T07:45:07.000Z</time>
      </trkpt>
      <trkpt lat="43.52245" lon="5.50992">
        <ele>182</ele>
        <time>2018-02-20T07:45:08.000Z</time>
      </trkpt>
      <trkpt lat="43.52246" lon="5.50991">
        <ele>182</ele>
        <time>2018-02-20T07:45:09.000Z</time>
      </trkpt>
      <trkpt lat="43.52246" lon="5.50989">
        <ele>182</ele>
        <time>2018-02-20T07:45:10.000Z</time>
      </trkpt>
      <trkpt lat="43.52247" lon="5.50987">
        <ele>182</ele>
        <time>2018-02-20T07:45:11.000Z</time>
      </trkpt>
      <trkpt lat="43.52247" lon="5.50985">
        <ele>182</ele>
        <time>2018-02-20T07:45:12.000Z</time>
      </trkpt>
      <trkpt lat="43.52247" lon="5.50983">
        <ele>183</ele>
        <time>2018-02-20T07:45:13.000Z</time>
      </trkpt>
      <trkpt lat="43.52247" lon="5.50982">
        <ele>183</ele>
        <time>2018-02-20T07:45:14.000Z</time>
      </trkpt>
      <trkpt lat="43.52247" lon="5.5098">
        <ele>183</ele>
        <time>2018-02-20T07:45:15.000Z</time>
      </trkpt>
      <trkpt lat="43.52248" lon="5.50978">
        <ele>182</ele>
        <time>2018-02-20T07:45:16.000Z</time>
      </trkpt>
      <trkpt lat="43.52248" lon="5.50976">
        <ele>182</ele>
        <time>2018-02-20T07:45:17.000Z</time>
      </trkpt>
      <trkpt lat="43.52249" lon="5.50975">
        <ele>182</ele>
        <time>2018-02-20T07:45:18.000Z</time>
      </trkpt>
      <trkpt lat="43.52249" lon="5.50974">
        <ele>182</ele>
        <time>2018-02-20T07:45:19.000Z</time>
      </trkpt>
      <trkpt lat="43.5225" lon="5.50973">
        <ele>182</ele>
        <time>2018-02-20T07:45:20.000Z</time>
      </trkpt>
      <trkpt lat="43.5225" lon="5.50971">
        <ele>182</ele>
        <time>2018-02-20T07:45:21.000Z</time>
      </trkpt>
      <trkpt lat="43.5225" lon="5.50969">
        <ele>182</ele>
        <time>2018-02-20T07:45:22.000Z</time>
      </trkpt>
      <trkpt lat="43.52251" lon="5.50967">
        <ele>182</ele>
        <time>2018-02-20T07:45:23.000Z</time>
      </trkpt>
      <trkpt lat="43.52251" lon="5.50966">
        <ele>182</ele>
        <time>2018-02-20T07:45:24.000Z</time>
      </trkpt>
      <trkpt lat="43.52251" lon="5.50964">
        <ele>182</ele>
        <time>2018-02-20T07:45:25.000Z</time>
      </trkpt>
      <trkpt lat="43.52252" lon="5.50963">
        <ele>182</ele>
        <time>2018-02-20T07:45:26.000Z</time>
      </trkpt>
      <trkpt lat="43.52252" lon="5.50962">
        <ele>182</ele>
        <time>2018-02-20T07:45:27.000Z</time>
      </trkpt>
      <trkpt lat="43.52253" lon="5.5096">
        <ele>182</ele>
        <time>2018-02-20T07:45:28.000Z</time>
      </trkpt>
      <trkpt lat="43.52253" lon="5.50959">
        <ele>182</ele>
        <time>2018-02-20T07:45:29.000Z</time>
      </trkpt>
      <trkpt lat="43.52253" lon="5.50957">
        <ele>182</ele>
        <time>2018-02-20T07:45:30.000Z</time>
      </trkpt>
      <trkpt lat="43.52253" lon="5.50955">
        <ele>182</ele>
        <time>2018-02-20T07:45:31.000Z</time>
      </trkpt>
      <trkpt lat="43.52253" lon="5.50954">
        <ele>182</ele>
        <time>2018-02-20T07:45:32.000Z</time>
      </trkpt>
      <trkpt lat="43.52254" lon="5.50952">
        <ele>182</ele>
        <time>2018-02-20T07:45:33.000Z</time>
      </trkpt>
      <trkpt lat="43.52254" lon="5.50951">
        <ele>182</ele>
        <time>2018-02-20T07:45:34.000Z</time>
      </trkpt>
      <trkpt lat="43.52254" lon="5.50949">
        <ele>182</ele>
        <time>2018-02-20T07:45:35.000Z</time>
      </trkpt>
      <trkpt lat="43.52254" lon="5.50948">
        <ele>182</ele>
        <time>2018-02-20T07:45:36.000Z</time>
      </trkpt>
      <trkpt lat="43.52254" lon="5.50946">
        <ele>182</ele>
        <time>2018-02-20T07:45:37.000Z</time>
      </trkpt>
      <trkpt lat="43.52255" lon="5.50945">
        <ele>182</ele>
        <time>2018-02-20T07:45:38.000Z</time>
      </trkpt>
      <trkpt lat="43.52255" lon="5.50943">
        <ele>182</ele>
        <time>2018-02-20T07:45:39.000Z</time>
      </trkpt>
      <trkpt lat="43.52255" lon="5.50942">
        <ele>182</ele>
        <time>2018-02-20T07:45:40.000Z</time>
      </trkpt>
      <trkpt lat="43.52255" lon="5.5094">
        <ele>182</ele>
        <time>2018-02-20T07:45:41.000Z</time>
      </trkpt>
      <trkpt lat="43.52255" lon="5.50938">
        <ele>182</ele>
        <time>2018-02-20T07:45:42.000Z</time>
      </trkpt>
      <trkpt lat="43.52255" lon="5.50937">
        <ele>182</ele>
        <time>2018-02-20T07:45:43.000Z</time>
      </trkpt>
      <trkpt lat="43.52255" lon="5.50935">
        <ele>182</ele>
        <time>2018-02-20T07:45:44.000Z</time>
      </trkpt>
      <trkpt lat="43.52255" lon="5.50933">
        <ele>182</ele>
        <time>2018-02-20T07:45:45.000Z</time>
      </trkpt>
      <trkpt lat="43.52255" lon="5.50932">
        <ele>182</ele>
        <time>2018-02-20T07:45:46.000Z</time>
      </trkpt>
      <trkpt lat="43.52255" lon="5.5093">
        <ele>182</ele>
        <time>2018-02-20T07:45:47.000Z</time>
      </trkpt>
      <trkpt lat="43.52255" lon="5.50929">
        <ele>182</ele>
        <time>2018-02-20T07:45:48.000Z</time>
      </trkpt>
      <trkpt lat="43.52255" lon="5.50928">
        <ele>182</ele>
        <time>2018-02-20T07:45:49.000Z</time>
      </trkpt>
      <trkpt lat="43.52255" lon="5.50926">
        <ele>182</ele>
        <time>2018-02-20T07:45:50.000Z</time>
      </trkpt>
      <trkpt lat="43.52255" lon="5.50925">
        <ele>182</ele>
        <time>2018-02-20T07:45:51.000Z</time>
      </trkpt>
      <trkpt lat="43.52255" lon="5.50925">
        <ele>182</ele>
        <time>2018-02-20T07:45:52.000Z</time>
      </trkpt>
      <trkpt lat="43.52255" lon="5.50923">
        <ele>182</ele>
        <time>2018-02-20T07:45:53.000Z</time>
      </trkpt>
      <trkpt lat="43.52255" lon="5.50922">
        <ele>182</ele>
        <time>2018-02-20T07:45:54.000Z</time>
      </trkpt>
      <trkpt lat="43.52256" lon="5.50921">
        <ele>182</ele>
        <time>2018-02-20T07:45:55.000Z</time>
      </trkpt>
      <trkpt lat="43.52256" lon="5.50919">
        <ele>182</ele>
        <time>2018-02-20T07:45:56.000Z</time>
      </trkpt>
      <trkpt lat="43.52256" lon="5.50918">
        <ele>181</ele>
        <time>2018-02-20T07:45:57.000Z</time>
      </trkpt>
      <trkpt lat="43.52256" lon="5.50916">
        <ele>181</ele>
        <time>2018-02-20T07:45:58.000Z</time>
      </trkpt>
      <trkpt lat="43.52257" lon="5.50915">
        <ele>181</ele>
        <time>2018-02-20T07:45:59.000Z</time>
      </trkpt>
      <trkpt lat="43.52257" lon="5.50914">
        <ele>181</ele>
        <time>2018-02-20T07:46:00.000Z</time>
      </trkpt>
      <trkpt lat="43.52257" lon="5.50912">
        <ele>181</ele>
        <time>2018-02-20T07:46:01.000Z</time>
      </trkpt>
      <trkpt lat="43.52258" lon="5.50911">
        <ele>181</ele>
        <time>2018-02-20T07:46:02.000Z</time>
      </trkpt>
      <trkpt lat="43.52258" lon="5.5091">
        <ele>181</ele>
        <time>2018-02-20T07:46:03.000Z</time>
      </trkpt>
      <trkpt lat="43.52258" lon="5.50908">
        <ele>181</ele>
        <time>2018-02-20T07:46:04.000Z</time>
      </trkpt>
      <trkpt lat="43.52259" lon="5.50907">
        <ele>181</ele>
        <time>2018-02-20T07:46:05.000Z</time>
      </trkpt>
      <trkpt lat="43.52259" lon="5.50906">
        <ele>181</ele>
        <time>2018-02-20T07:46:06.000Z</time>
      </trkpt>
      <trkpt lat="43.52259" lon="5.50905">
        <ele>181</ele>
        <time>2018-02-20T07:46:07.000Z</time>
      </trkpt>
      <trkpt lat="43.52259" lon="5.50904">
        <ele>182</ele>
        <time>2018-02-20T07:46:08.000Z</time>
      </trkpt>
      <trkpt lat="43.52259" lon="5.50904">
        <ele>182</ele>
        <time>2018-02-20T07:46:09.000Z</time>
      </trkpt>
      <trkpt lat="43.52259" lon="5.50903">
        <ele>182</ele>
        <time>2018-02-20T07:46:10.000Z</time>
      </trkpt>
      <trkpt lat="43.52259" lon="5.50903">
        <ele>182</ele>
        <time>2018-02-20T07:46:11.000Z</time>
      </trkpt>
      <trkpt lat="43.52259" lon="5.50903">
        <ele>182</ele>
        <time>2018-02-20T07:46:12.000Z</time>
      </trkpt>
      <trkpt lat="43.52259" lon="5.50903">
        <ele>182</ele>
        <time>2018-02-20T07:46:13.000Z</time>
      </trkpt>
      <trkpt lat="43.52259" lon="5.50903">
        <ele>182</ele>
        <time>2018-02-20T07:46:14.000Z</time>
      </trkpt>
      <trkpt lat="43.52259" lon="5.50903">
        <ele>182</ele>
        <time>2018-02-20T07:46:15.000Z</time>
      </trkpt>
      <trkpt lat="43.52259" lon="5.50903">
        <ele>182</ele>
        <time>2018-02-20T07:46:16.000Z</time>
      </trkpt>
      <trkpt lat="43.52259" lon="5.50903">
        <ele>182</ele>
        <time>2018-02-20T07:46:17.000Z</time>
      </trkpt>
      <trkpt lat="43.52259" lon="5.50903">
        <ele>182</ele>
        <time>2018-02-20T07:46:18.000Z</time>
      </trkpt>
      <trkpt lat="43.52259" lon="5.50903">
        <ele>182</ele>
        <time>2018-02-20T07:46:19.000Z</time>
      </trkpt>
      <trkpt lat="43.52259" lon="5.50903">
        <ele>182</ele>
        <time>2018-02-20T07:46:20.000Z</time>
      </trkpt>
      <trkpt lat="43.52259" lon="5.50903">
        <ele>182</ele>
        <time>2018-02-20T07:46:21.000Z</time>
      </trkpt>
      <trkpt lat="43.52259" lon="5.50903">
        <ele>182</ele>
        <time>2018-02-20T07:46:22.000Z</time>
      </trkpt>
      <trkpt lat="43.52259" lon="5.50903">
        <ele>182</ele>
        <time>2018-02-20T07:46:23.000Z</time>
      </trkpt>
      <trkpt lat="43.52259" lon="5.50902">
        <ele>182</ele>
        <time>2018-02-20T07:46:24.000Z</time>
      </trkpt>
      <trkpt lat="43.52259" lon="5.50902">
        <ele>182</ele>
        <time>2018-02-20T07:46:25.000Z</time>
      </trkpt>
      <trkpt lat="43.52259" lon="5.50901">
        <ele>182</ele>
        <time>2018-02-20T07:46:26.000Z</time>
      </trkpt>
      <trkpt lat="43.52259" lon="5.509">
        <ele>182</ele>
        <time>2018-02-20T07:46:27.000Z</time>
      </trkpt>
      <trkpt lat="43.52258" lon="5.50898">
        <ele>182</ele>
        <time>2018-02-20T07:46:28.000Z</time>
      </trkpt>
      <trkpt lat="43.52258" lon="5.50896">
        <ele>182</ele>
        <time>2018-02-20T07:46:29.000Z</time>
      </trkpt>
      <trkpt lat="43.52258" lon="5.50895">
        <ele>182</ele>
        <time>2018-02-20T07:46:30.000Z</time>
      </trkpt>
      <trkpt lat="43.52258" lon="5.50893">
        <ele>182</ele>
        <time>2018-02-20T07:46:31.000Z</time>
      </trkpt>
      <trkpt lat="43.52258" lon="5.50892">
        <ele>183</ele>
        <time>2018-02-20T07:46:32.000Z</time>
      </trkpt>
      <trkpt lat="43.52258" lon="5.5089">
        <ele>183</ele>
        <time>2018-02-20T07:46:33.000Z</time>
      </trkpt>
      <trkpt lat="43.52258" lon="5.50889">
        <ele>183</ele>
        <time>2018-02-20T07:46:34.000Z</time>
      </trkpt>
      <trkpt lat="43.52258" lon="5.50888">
        <ele>183</ele>
        <time>2018-02-20T07:46:35.000Z</time>
      </trkpt>
      <trkpt lat="43.52259" lon="5.50887">
        <ele>183</ele>
        <time>2018-02-20T07:46:36.000Z</time>
      </trkpt>
      <trkpt lat="43.52259" lon="5.50886">
        <ele>184</ele>
        <time>2018-02-20T07:46:37.000Z</time>
      </trkpt>
      <trkpt lat="43.5226" lon="5.50885">
        <ele>184</ele>
        <time>2018-02-20T07:46:38.000Z</time>
      </trkpt>
      <trkpt lat="43.52261" lon="5.50884">
        <ele>184</ele>
        <time>2018-02-20T07:46:39.000Z</time>
      </trkpt>
      <trkpt lat="43.52261" lon="5.50883">
        <ele>184</ele>
        <time>2018-02-20T07:46:40.000Z</time>
      </trkpt>
      <trkpt lat="43.52261" lon="5.50882">
        <ele>184</ele>
        <time>2018-02-20T07:46:41.000Z</time>
      </trkpt>
      <trkpt lat="43.52262" lon="5.5088">
        <ele>185</ele>
        <time>2018-02-20T07:46:42.000Z</time>
      </trkpt>
      <trkpt lat="43.52262" lon="5.50878">
        <ele>185</ele>
        <time>2018-02-20T07:46:43.000Z</time>
      </trkpt>
      <trkpt lat="43.52261" lon="5.50877">
        <ele>185</ele>
        <time>2018-02-20T07:46:44.000Z</time>
      </trkpt>
      <trkpt lat="43.52261" lon="5.50875">
        <ele>185</ele>
        <time>2018-02-20T07:46:45.000Z</time>
      </trkpt>
      <trkpt lat="43.52261" lon="5.50874">
        <ele>185</ele>
        <time>2018-02-20T07:46:46.000Z</time>
      </trkpt>
      <trkpt lat="43.5226" lon="5.50872">
        <ele>185</ele>
        <time>2018-02-20T07:46:47.000Z</time>
      </trkpt>
      <trkpt lat="43.5226" lon="5.5087">
        <ele>186</ele>
        <time>2018-02-20T07:46:48.000Z</time>
      </trkpt>
      <trkpt lat="43.5226" lon="5.50869">
        <ele>186</ele>
        <time>2018-02-20T07:46:49.000Z</time>
      </trkpt>
      <trkpt lat="43.52259" lon="5.50867">
        <ele>186</ele>
        <time>2018-02-20T07:46:50.000Z</time>
      </trkpt>
      <trkpt lat="43.52259" lon="5.50865">
        <ele>186</ele>
        <time>2018-02-20T07:46:51.000Z</time>
      </trkpt>
      <trkpt lat="43.52259" lon="5.50863">
        <ele>186</ele>
        <time>2018-02-20T07:46:52.000Z</time>
      </trkpt>
      <trkpt lat="43.52258" lon="5.50862">
        <ele>186</ele>
        <time>2018-02-20T07:46:53.000Z</time>
      </trkpt>
      <trkpt lat="43.52258" lon="5.5086">
        <ele>186</ele>
        <time>2018-02-20T07:46:54.000Z</time>
      </trkpt>
      <trkpt lat="43.52257" lon="5.50859">
        <ele>187</ele>
        <time>2018-02-20T07:46:55.000Z</time>
      </trkpt>
      <trkpt lat="43.52257" lon="5.50857">
        <ele>187</ele>
        <time>2018-02-20T07:46:56.000Z</time>
      </trkpt>
      <trkpt lat="43.52257" lon="5.50855">
        <ele>187</ele>
        <time>2018-02-20T07:46:57.000Z</time>
      </trkpt>
      <trkpt lat="43.52256" lon="5.50854">
        <ele>187</ele>
        <time>2018-02-20T07:46:58.000Z</time>
      </trkpt>
      <trkpt lat="43.52256" lon="5.50852">
        <ele>187</ele>
        <time>2018-02-20T07:46:59.000Z</time>
      </trkpt>
      <trkpt lat="43.52256" lon="5.50851">
        <ele>187</ele>
        <time>2018-02-20T07:47:00.000Z</time>
      </trkpt>
      <trkpt lat="43.52255" lon="5.50849">
        <ele>187</ele>
        <time>2018-02-20T07:47:01.000Z</time>
      </trkpt>
      <trkpt lat="43.52255" lon="5.50848">
        <ele>187</ele>
        <time>2018-02-20T07:47:02.000Z</time>
      </trkpt>
      <trkpt lat="43.52255" lon="5.50846">
        <ele>187</ele>
        <time>2018-02-20T07:47:03.000Z</time>
      </trkpt>
      <trkpt lat="43.52254" lon="5.50845">
        <ele>187</ele>
        <time>2018-02-20T07:47:04.000Z</time>
      </trkpt>
      <trkpt lat="43.52254" lon="5.50843">
        <ele>187</ele>
        <time>2018-02-20T07:47:05.000Z</time>
      </trkpt>
      <trkpt lat="43.52253" lon="5.50841">
        <ele>187</ele>
        <time>2018-02-20T07:47:06.000Z</time>
      </trkpt>
      <trkpt lat="43.52253" lon="5.5084">
        <ele>187</ele>
        <time>2018-02-20T07:47:07.000Z</time>
      </trkpt>
      <trkpt lat="43.52253" lon="5.50838">
        <ele>188</ele>
        <time>2018-02-20T07:47:08.000Z</time>
      </trkpt>
      <trkpt lat="43.52252" lon="5.50837">
        <ele>188</ele>
        <time>2018-02-20T07:47:09.000Z</time>
      </trkpt>
      <trkpt lat="43.52252" lon="5.50835">
        <ele>188</ele>
        <time>2018-02-20T07:47:10.000Z</time>
      </trkpt>
      <trkpt lat="43.52251" lon="5.50833">
        <ele>188</ele>
        <time>2018-02-20T07:47:11.000Z</time>
      </trkpt>
      <trkpt lat="43.52251" lon="5.50831">
        <ele>188</ele>
        <time>2018-02-20T07:47:12.000Z</time>
      </trkpt>
      <trkpt lat="43.5225" lon="5.5083">
        <ele>188</ele>
        <time>2018-02-20T07:47:13.000Z</time>
      </trkpt>
      <trkpt lat="43.5225" lon="5.50828">
        <ele>188</ele>
        <time>2018-02-20T07:47:14.000Z</time>
      </trkpt>
      <trkpt lat="43.5225" lon="5.50826">
        <ele>188</ele>
        <time>2018-02-20T07:47:15.000Z</time>
      </trkpt>
      <trkpt lat="43.52249" lon="5.50825">
        <ele>188</ele>
        <time>2018-02-20T07:47:16.000Z</time>
      </trkpt>
      <trkpt lat="43.52249" lon="5.50824">
        <ele>188</ele>
        <time>2018-02-20T07:47:17.000Z</time>
      </trkpt>
      <trkpt lat="43.52248" lon="5.50823">
        <ele>188</ele>
        <time>2018-02-20T07:47:18.000Z</time>
      </trkpt>
      <trkpt lat="43.52247" lon="5.50821">
        <ele>188</ele>
        <time>2018-02-20T07:47:19.000Z</time>
      </trkpt>
      <trkpt lat="43.52247" lon="5.5082">
        <ele>188</ele>
        <time>2018-02-20T07:47:20.000Z</time>
      </trkpt>
      <trkpt lat="43.52247" lon="5.50818">
        <ele>188</ele>
        <time>2018-02-20T07:47:21.000Z</time>
      </trkpt>
      <trkpt lat="43.52247" lon="5.50816">
        <ele>188</ele>
        <time>2018-02-20T07:47:22.000Z</time>
      </trkpt>
      <trkpt lat="43.52247" lon="5.50815">
        <ele>188</ele>
        <time>2018-02-20T07:47:23.000Z</time>
      </trkpt>
      <trkpt lat="43.52247" lon="5.50813">
        <ele>188</ele>
        <time>2018-02-20T07:47:24.000Z</time>
      </trkpt>
      <trkpt lat="43.52246" lon="5.50812">
        <ele>188</ele>
        <time>2018-02-20T07:47:25.000Z</time>
      </trkpt>
      <trkpt lat="43.52246" lon="5.50811">
        <ele>187</ele>
        <time>2018-02-20T07:47:26.000Z</time>
      </trkpt>
      <trkpt lat="43.52246" lon="5.50809">
        <ele>187</ele>
        <time>2018-02-20T07:47:27.000Z</time>
      </trkpt>
      <trkpt lat="43.52245" lon="5.50808">
        <ele>187</ele>
        <time>2018-02-20T07:47:28.000Z</time>
      </trkpt>
      <trkpt lat="43.52245" lon="5.50806">
        <ele>187</ele>
        <time>2018-02-20T07:47:29.000Z</time>
      </trkpt>
      <trkpt lat="43.52245" lon="5.50805">
        <ele>187</ele>
        <time>2018-02-20T07:47:30.000Z</time>
      </trkpt>
      <trkpt lat="43.52245" lon="5.50803">
        <ele>187</ele>
        <time>2018-02-20T07:47:31.000Z</time>
      </trkpt>
      <trkpt lat="43.52244" lon="5.50802">
        <ele>187</ele>
        <time>2018-02-20T07:47:32.000Z</time>
      </trkpt>
      <trkpt lat="43.52244" lon="5.50801">
        <ele>187</ele>
        <time>2018-02-20T07:47:33.000Z</time>
      </trkpt>
      <trkpt lat="43.52243" lon="5.50799">
        <ele>187</ele>
        <time>2018-02-20T07:47:34.000Z</time>
      </trkpt>
      <trkpt lat="43.52243" lon="5.50798">
        <ele>187</ele>
        <time>2018-02-20T07:47:35.000Z</time>
      </trkpt>
      <trkpt lat="43.52243" lon="5.50797">
        <ele>187</ele>
        <time>2018-02-20T07:47:36.000Z</time>
      </trkpt>
      <trkpt lat="43.52242" lon="5.50795">
        <ele>187</ele>
        <time>2018-02-20T07:47:37.000Z</time>
      </trkpt>
      <trkpt lat="43.52241" lon="5.50794">
        <ele>187</ele>
        <time>2018-02-20T07:47:38.000Z</time>
      </trkpt>
      <trkpt lat="43.52241" lon="5.50793">
        <ele>187</ele>
        <time>2018-02-20T07:47:39.000Z</time>
      </trkpt>
      <trkpt lat="43.5224" lon="5.50792">
        <ele>187</ele>
        <time>2018-02-20T07:47:40.000Z</time>
      </trkpt>
      <trkpt lat="43.5224" lon="5.50791">
        <ele>187</ele>
        <time>2018-02-20T07:47:41.000Z</time>
      </trkpt>
      <trkpt lat="43.52239" lon="5.50789">
        <ele>187</ele>
        <time>2018-02-20T07:47:42.000Z</time>
      </trkpt>
      <trkpt lat="43.52239" lon="5.50788">
        <ele>187</ele>
        <time>2018-02-20T07:47:43.000Z</time>
      </trkpt>
      <trkpt lat="43.5224" lon="5.50787">
        <ele>187</ele>
        <time>2018-02-20T07:47:44.000Z</time>
      </trkpt>
      <trkpt lat="43.5224" lon="5.50786">
        <ele>187</ele>
        <time>2018-02-20T07:47:45.000Z</time>
      </trkpt>
      <trkpt lat="43.5224" lon="5.50784">
        <ele>187</ele>
        <time>2018-02-20T07:47:46.000Z</time>
      </trkpt>
      <trkpt lat="43.52239" lon="5.50783">
        <ele>187</ele>
        <time>2018-02-20T07:47:47.000Z</time>
      </trkpt>
      <trkpt lat="43.52239" lon="5.50781">
        <ele>187</ele>
        <time>2018-02-20T07:47:48.000Z</time>
      </trkpt>
      <trkpt lat="43.52238" lon="5.50779">
        <ele>187</ele>
        <time>2018-02-20T07:47:49.000Z</time>
      </trkpt>
      <trkpt lat="43.52238" lon="5.50778">
        <ele>187</ele>
        <time>2018-02-20T07:47:50.000Z</time>
      </trkpt>
      <trkpt lat="43.52237" lon="5.50776">
        <ele>187</ele>
        <time>2018-02-20T07:47:51.000Z</time>
      </trkpt>
      <trkpt lat="43.52237" lon="5.50775">
        <ele>187</ele>
        <time>2018-02-20T07:47:52.000Z</time>
      </trkpt>
      <trkpt lat="43.52237" lon="5.50773">
        <ele>187</ele>
        <time>2018-02-20T07:47:53.000Z</time>
      </trkpt>
      <trkpt lat="43.52236" lon="5.50772">
        <ele>187</ele>
        <time>2018-02-20T07:47:54.000Z</time>
      </trkpt>
      <trkpt lat="43.52236" lon="5.50771">
        <ele>187</ele>
        <time>2018-02-20T07:47:55.000Z</time>
      </trkpt>
      <trkpt lat="43.52235" lon="5.50769">
        <ele>186</ele>
        <time>2018-02-20T07:47:56.000Z</time>
      </trkpt>
      <trkpt lat="43.52235" lon="5.50768">
        <ele>186</ele>
        <time>2018-02-20T07:47:57.000Z</time>
      </trkpt>
      <trkpt lat="43.52235" lon="5.50767">
        <ele>186</ele>
        <time>2018-02-20T07:47:58.000Z</time>
      </trkpt>
      <trkpt lat="43.52234" lon="5.50765">
        <ele>186</ele>
        <time>2018-02-20T07:47:59.000Z</time>
      </trkpt>
      <trkpt lat="43.52234" lon="5.50764">
        <ele>186</ele>
        <time>2018-02-20T07:48:00.000Z</time>
      </trkpt>
      <trkpt lat="43.52233" lon="5.50762">
        <ele>186</ele>
        <time>2018-02-20T07:48:01.000Z</time>
      </trkpt>
      <trkpt lat="43.52233" lon="5.50761">
        <ele>186</ele>
        <time>2018-02-20T07:48:02.000Z</time>
      </trkpt>
      <trkpt lat="43.52232" lon="5.50759">
        <ele>186</ele>
        <time>2018-02-20T07:48:03.000Z</time>
      </trkpt>
      <trkpt lat="43.52232" lon="5.50758">
        <ele>186</ele>
        <time>2018-02-20T07:48:04.000Z</time>
      </trkpt>
      <trkpt lat="43.52231" lon="5.50757">
        <ele>186</ele>
        <time>2018-02-20T07:48:05.000Z</time>
      </trkpt>
      <trkpt lat="43.52231" lon="5.50756">
        <ele>186</ele>
        <time>2018-02-20T07:48:06.000Z</time>
      </trkpt>
      <trkpt lat="43.52231" lon="5.50754">
        <ele>186</ele>
        <time>2018-02-20T07:48:07.000Z</time>
      </trkpt>
      <trkpt lat="43.5223" lon="5.50753">
        <ele>186</ele>
        <time>2018-02-20T07:48:08.000Z</time>
      </trkpt>
      <trkpt lat="43.5223" lon="5.50752">
        <ele>186</ele>
        <time>2018-02-20T07:48:09.000Z</time>
      </trkpt>
      <trkpt lat="43.52229" lon="5.5075">
        <ele>186</ele>
        <time>2018-02-20T07:48:10.000Z</time>
      </trkpt>
      <trkpt lat="43.52229" lon="5.50749">
        <ele>186</ele>
        <time>2018-02-20T07:48:11.000Z</time>
      </trkpt>
      <trkpt lat="43.52228" lon="5.50747">
        <ele>186</ele>
        <time>2018-02-20T07:48:12.000Z</time>
      </trkpt>
      <trkpt lat="43.52228" lon="5.50746">
        <ele>186</ele>
        <time>2018-02-20T07:48:13.000Z</time>
      </trkpt>
      <trkpt lat="43.52227" lon="5.50745">
        <ele>186</ele>
        <time>2018-02-20T07:48:14.000Z</time>
      </trkpt>
      <trkpt lat="43.52227" lon="5.50743">
        <ele>186</ele>
        <time>2018-02-20T07:48:15.000Z</time>
      </trkpt>
      <trkpt lat="43.52226" lon="5.50742">
        <ele>186</ele>
        <time>2018-02-20T07:48:16.000Z</time>
      </trkpt>
      <trkpt lat="43.52226" lon="5.5074">
        <ele>186</ele>
        <time>2018-02-20T07:48:17.000Z</time>
      </trkpt>
      <trkpt lat="43.52226" lon="5.50739">
        <ele>186</ele>
        <time>2018-02-20T07:48:18.000Z</time>
      </trkpt>
      <trkpt lat="43.52225" lon="5.50737">
        <ele>186</ele>
        <time>2018-02-20T07:48:19.000Z</time>
      </trkpt>
      <trkpt lat="43.52225" lon="5.50736">
        <ele>186</ele>
        <time>2018-02-20T07:48:20.000Z</time>
      </trkpt>
      <trkpt lat="43.52225" lon="5.50734">
        <ele>186</ele>
        <time>2018-02-20T07:48:21.000Z</time>
      </trkpt>
      <trkpt lat="43.52224" lon="5.50733">
        <ele>186</ele>
        <time>2018-02-20T07:48:22.000Z</time>
      </trkpt>
      <trkpt lat="43.52224" lon="5.50731">
        <ele>186</ele>
        <time>2018-02-20T07:48:23.000Z</time>
      </trkpt>
      <trkpt lat="43.52223" lon="5.5073">
        <ele>186</ele>
        <time>2018-02-20T07:48:24.000Z</time>
      </trkpt>
      <trkpt lat="43.52223" lon="5.50728">
        <ele>186</ele>
        <time>2018-02-20T07:48:25.000Z</time>
      </trkpt>
      <trkpt lat="43.52222" lon="5.50727">
        <ele>186</ele>
        <time>2018-02-20T07:48:26.000Z</time>
      </trkpt>
      <trkpt lat="43.52222" lon="5.50725">
        <ele>186</ele>
        <time>2018-02-20T07:48:27.000Z</time>
      </trkpt>
      <trkpt lat="43.52222" lon="5.50724">
        <ele>186</ele>
        <time>2018-02-20T07:48:28.000Z</time>
      </trkpt>
      <trkpt lat="43.52221" lon="5.50722">
        <ele>186</ele>
        <time>2018-02-20T07:48:29.000Z</time>
      </trkpt>
      <trkpt lat="43.52221" lon="5.5072">
        <ele>186</ele>
        <time>2018-02-20T07:48:30.000Z</time>
      </trkpt>
      <trkpt lat="43.5222" lon="5.50719">
        <ele>186</ele>
        <time>2018-02-20T07:48:31.000Z</time>
      </trkpt>
      <trkpt lat="43.5222" lon="5.50718">
        <ele>186</ele>
        <time>2018-02-20T07:48:32.000Z</time>
      </trkpt>
      <trkpt lat="43.5222" lon="5.50716">
        <ele>186</ele>
        <time>2018-02-20T07:48:33.000Z</time>
      </trkpt>
      <trkpt lat="43.52219" lon="5.50714">
        <ele>186</ele>
        <time>2018-02-20T07:48:34.000Z</time>
      </trkpt>
      <trkpt lat="43.52219" lon="5.50713">
        <ele>186</ele>
        <time>2018-02-20T07:48:35.000Z</time>
      </trkpt>
      <trkpt lat="43.52219" lon="5.50711">
        <ele>186</ele>
        <time>2018-02-20T07:48:36.000Z</time>
      </trkpt>
      <trkpt lat="43.52219" lon="5.5071">
        <ele>186</ele>
        <time>2018-02-20T07:48:37.000Z</time>
      </trkpt>
      <trkpt lat="43.52219" lon="5.50708">
        <ele>186</ele>
        <time>2018-02-20T07:48:38.000Z</time>
      </trkpt>
      <trkpt lat="43.52219" lon="5.50707">
        <ele>186</ele>
        <time>2018-02-20T07:48:39.000Z</time>
      </trkpt>
      <trkpt lat="43.52218" lon="5.50705">
        <ele>186</ele>
        <time>2018-02-20T07:48:40.000Z</time>
      </trkpt>
      <trkpt lat="43.52218" lon="5.50704">
        <ele>186</ele>
        <time>2018-02-20T07:48:41.000Z</time>
      </trkpt>
      <trkpt lat="43.52217" lon="5.50702">
        <ele>186</ele>
        <time>2018-02-20T07:48:42.000Z</time>
      </trkpt>
      <trkpt lat="43.52217" lon="5.50702">
        <ele>186</ele>
        <time>2018-02-20T07:48:43.000Z</time>
      </trkpt>
      <trkpt lat="43.52217" lon="5.507">
        <ele>186</ele>
        <time>2018-02-20T07:48:44.000Z</time>
      </trkpt>
      <trkpt lat="43.52217" lon="5.50699">
        <ele>186</ele>
        <time>2018-02-20T07:48:45.000Z</time>
      </trkpt>
      <trkpt lat="43.52217" lon="5.50697">
        <ele>186</ele>
        <time>2018-02-20T07:48:46.000Z</time>
      </trkpt>
      <trkpt lat="43.52216" lon="5.50696">
        <ele>186</ele>
        <time>2018-02-20T07:48:47.000Z</time>
      </trkpt>
      <trkpt lat="43.52216" lon="5.50695">
        <ele>186</ele>
        <time>2018-02-20T07:48:48.000Z</time>
      </trkpt>
      <trkpt lat="43.52216" lon="5.50693">
        <ele>186</ele>
        <time>2018-02-20T07:48:49.000Z</time>
      </trkpt>
      <trkpt lat="43.52215" lon="5.50692">
        <ele>186</ele>
        <time>2018-02-20T07:48:50.000Z</time>
      </trkpt>
      <trkpt lat="43.52215" lon="5.5069">
        <ele>186</ele>
        <time>2018-02-20T07:48:51.000Z</time>
      </trkpt>
      <trkpt lat="43.52215" lon="5.50689">
        <ele>186</ele>
        <time>2018-02-20T07:48:52.000Z</time>
      </trkpt>
      <trkpt lat="43.52215" lon="5.50687">
        <ele>186</ele>
        <time>2018-02-20T07:48:53.000Z</time>
      </trkpt>
      <trkpt lat="43.52215" lon="5.50685">
        <ele>185</ele>
        <time>2018-02-20T07:48:54.000Z</time>
      </trkpt>
      <trkpt lat="43.52215" lon="5.50684">
        <ele>186</ele>
        <time>2018-02-20T07:48:55.000Z</time>
      </trkpt>
      <trkpt lat="43.52215" lon="5.50682">
        <ele>186</ele>
        <time>2018-02-20T07:48:56.000Z</time>
      </trkpt>
      <trkpt lat="43.52215" lon="5.50681">
        <ele>186</ele>
        <time>2018-02-20T07:48:57.000Z</time>
      </trkpt>
      <trkpt lat="43.52215" lon="5.50679">
        <ele>186</ele>
        <time>2018-02-20T07:48:58.000Z</time>
      </trkpt>
      <trkpt lat="43.52215" lon="5.50678">
        <ele>186</ele>
        <time>2018-02-20T07:48:59.000Z</time>
      </trkpt>
      <trkpt lat="43.52215" lon="5.50676">
        <ele>186</ele>
        <time>2018-02-20T07:49:00.000Z</time>
      </trkpt>
      <trkpt lat="43.52215" lon="5.50675">
        <ele>186</ele>
        <time>2018-02-20T07:49:01.000Z</time>
      </trkpt>
      <trkpt lat="43.52215" lon="5.50673">
        <ele>186</ele>
        <time>2018-02-20T07:49:02.000Z</time>
      </trkpt>
      <trkpt lat="43.52215" lon="5.50672">
        <ele>186</ele>
        <time>2018-02-20T07:49:03.000Z</time>
      </trkpt>
      <trkpt lat="43.52215" lon="5.50671">
        <ele>185</ele>
        <time>2018-02-20T07:49:04.000Z</time>
      </trkpt>
      <trkpt lat="43.52215" lon="5.50669">
        <ele>185</ele>
        <time>2018-02-20T07:49:05.000Z</time>
      </trkpt>
      <trkpt lat="43.52216" lon="5.50668">
        <ele>185</ele>
        <time>2018-02-20T07:49:06.000Z</time>
      </trkpt>
      <trkpt lat="43.52215" lon="5.50667">
        <ele>185</ele>
        <time>2018-02-20T07:49:07.000Z</time>
      </trkpt>
      <trkpt lat="43.52215" lon="5.50666">
        <ele>185</ele>
        <time>2018-02-20T07:49:08.000Z</time>
      </trkpt>
      <trkpt lat="43.52215" lon="5.50664">
        <ele>185</ele>
        <time>2018-02-20T07:49:09.000Z</time>
      </trkpt>
      <trkpt lat="43.52215" lon="5.50662">
        <ele>185</ele>
        <time>2018-02-20T07:49:10.000Z</time>
      </trkpt>
      <trkpt lat="43.52216" lon="5.50661">
        <ele>185</ele>
        <time>2018-02-20T07:49:11.000Z</time>
      </trkpt>
      <trkpt lat="43.52216" lon="5.50659">
        <ele>185</ele>
        <time>2018-02-20T07:49:12.000Z</time>
      </trkpt>
      <trkpt lat="43.52216" lon="5.50658">
        <ele>185</ele>
        <time>2018-02-20T07:49:13.000Z</time>
      </trkpt>
      <trkpt lat="43.52216" lon="5.50656">
        <ele>185</ele>
        <time>2018-02-20T07:49:14.000Z</time>
      </trkpt>
      <trkpt lat="43.52216" lon="5.50654">
        <ele>185</ele>
        <time>2018-02-20T07:49:15.000Z</time>
      </trkpt>
      <trkpt lat="43.52216" lon="5.50653">
        <ele>185</ele>
        <time>2018-02-20T07:49:16.000Z</time>
      </trkpt>
      <trkpt lat="43.52216" lon="5.50651">
        <ele>185</ele>
        <time>2018-02-20T07:49:17.000Z</time>
      </trkpt>
      <trkpt lat="43.52216" lon="5.50649">
        <ele>185</ele>
        <time>2018-02-20T07:49:18.000Z</time>
      </trkpt>
      <trkpt lat="43.52216" lon="5.50648">
        <ele>185</ele>
        <time>2018-02-20T07:49:19.000Z</time>
      </trkpt>
      <trkpt lat="43.52216" lon="5.50646">
        <ele>185</ele>
        <time>2018-02-20T07:49:20.000Z</time>
      </trkpt>
      <trkpt lat="43.52216" lon="5.50645">
        <ele>185</ele>
        <time>2018-02-20T07:49:21.000Z</time>
      </trkpt>
      <trkpt lat="43.52216" lon="5.50643">
        <ele>185</ele>
        <time>2018-02-20T07:49:22.000Z</time>
      </trkpt>
      <trkpt lat="43.52216" lon="5.50642">
        <ele>185</ele>
        <time>2018-02-20T07:49:23.000Z</time>
      </trkpt>
      <trkpt lat="43.52216" lon="5.50641">
        <ele>185</ele>
        <time>2018-02-20T07:49:24.000Z</time>
      </trkpt>
      <trkpt lat="43.52216" lon="5.50639">
        <ele>185</ele>
        <time>2018-02-20T07:49:25.000Z</time>
      </trkpt>
      <trkpt lat="43.52216" lon="5.50638">
        <ele>185</ele>
        <time>2018-02-20T07:49:26.000Z</time>
      </trkpt>
      <trkpt lat="43.52216" lon="5.50636">
        <ele>185</ele>
        <time>2018-02-20T07:49:27.000Z</time>
      </trkpt>
      <trkpt lat="43.52217" lon="5.50635">
        <ele>185</ele>
        <time>2018-02-20T07:49:28.000Z</time>
      </trkpt>
      <trkpt lat="43.52217" lon="5.50633">
        <ele>185</ele>
        <time>2018-02-20T07:49:29.000Z</time>
      </trkpt>
      <trkpt lat="43.52217" lon="5.50632">
        <ele>185</ele>
        <time>2018-02-20T07:49:30.000Z</time>
      </trkpt>
      <trkpt lat="43.52218" lon="5.5063">
        <ele>185</ele>
        <time>2018-02-20T07:49:31.000Z</time>
      </trkpt>
      <trkpt lat="43.52218" lon="5.50629">
        <ele>185</ele>
        <time>2018-02-20T07:49:32.000Z</time>
      </trkpt>
      <trkpt lat="43.52218" lon="5.50627">
        <ele>185</ele>
        <time>2018-02-20T07:49:33.000Z</time>
      </trkpt>
      <trkpt lat="43.52218" lon="5.50626">
        <ele>185</ele>
        <time>2018-02-20T07:49:34.000Z</time>
      </trkpt>
      <trkpt lat="43.52218" lon="5.50624">
        <ele>185</ele>
        <time>2018-02-20T07:49:35.000Z</time>
      </trkpt>
      <trkpt lat="43.52218" lon="5.50623">
        <ele>185</ele>
        <time>2018-02-20T07:49:36.000Z</time>
      </trkpt>
      <trkpt lat="43.52218" lon="5.50621">
        <ele>185</ele>
        <time>2018-02-20T07:49:37.000Z</time>
      </trkpt>
      <trkpt lat="43.52218" lon="5.5062">
        <ele>185</ele>
        <time>2018-02-20T07:49:38.000Z</time>
      </trkpt>
      <trkpt lat="43.52218" lon="5.50619">
        <ele>185</ele>
        <time>2018-02-20T07:49:39.000Z</time>
      </trkpt>
      <trkpt lat="43.52219" lon="5.50618">
        <ele>185</ele>
        <time>2018-02-20T07:49:40.000Z</time>
      </trkpt>
      <trkpt lat="43.52219" lon="5.50617">
        <ele>185</ele>
        <time>2018-02-20T07:49:41.000Z</time>
      </trkpt>
      <trkpt lat="43.5222" lon="5.50616">
        <ele>185</ele>
        <time>2018-02-20T07:49:42.000Z</time>
      </trkpt>
      <trkpt lat="43.5222" lon="5.50615">
        <ele>185</ele>
        <time>2018-02-20T07:49:43.000Z</time>
      </trkpt>
      <trkpt lat="43.52221" lon="5.50614">
        <ele>185</ele>
        <time>2018-02-20T07:49:44.000Z</time>
      </trkpt>
      <trkpt lat="43.52222" lon="5.50613">
        <ele>185</ele>
        <time>2018-02-20T07:49:45.000Z</time>
      </trkpt>
      <trkpt lat="43.52222" lon="5.50613">
        <ele>185</ele>
        <time>2018-02-20T07:49:46.000Z</time>
      </trkpt>
      <trkpt lat="43.52223" lon="5.50612">
        <ele>185</ele>
        <time>2018-02-20T07:49:47.000Z</time>
      </trkpt>
      <trkpt lat="43.52223" lon="5.50611">
        <ele>185</ele>
        <time>2018-02-20T07:49:48.000Z</time>
      </trkpt>
      <trkpt lat="43.52223" lon="5.5061">
        <ele>185</ele>
        <time>2018-02-20T07:49:49.000Z</time>
      </trkpt>
      <trkpt lat="43.52223" lon="5.50609">
        <ele>185</ele>
        <time>2018-02-20T07:49:50.000Z</time>
      </trkpt>
      <trkpt lat="43.52223" lon="5.50609">
        <ele>185</ele>
        <time>2018-02-20T07:49:51.000Z</time>
      </trkpt>
      <trkpt lat="43.52223" lon="5.50609">
        <ele>185</ele>
        <time>2018-02-20T07:49:52.000Z</time>
      </trkpt>
      <trkpt lat="43.52223" lon="5.50609">
        <ele>185</ele>
        <time>2018-02-20T07:49:53.000Z</time>
      </trkpt>
      <trkpt lat="43.52223" lon="5.50609">
        <ele>185</ele>
        <time>2018-02-20T07:49:54.000Z</time>
      </trkpt>
      <trkpt lat="43.52223" lon="5.50609">
        <ele>185</ele>
        <time>2018-02-20T07:49:55.000Z</time>
      </trkpt>
      <trkpt lat="43.52223" lon="5.50609">
        <ele>185</ele>
        <time>2018-02-20T07:49:56.000Z</time>
      </trkpt>
      <trkpt lat="43.52223" lon="5.50609">
        <ele>185</ele>
        <time>2018-02-20T07:49:57.000Z</time>
      </trkpt>
      <trkpt lat="43.52224" lon="5.50609">
        <ele>185</ele>
        <time>2018-02-20T07:49:58.000Z</time>
      </trkpt>
      <trkpt lat="43.52224" lon="5.50608">
        <ele>185</ele>
        <time>2018-02-20T07:49:59.000Z</time>
      </trkpt>
      <trkpt lat="43.52224" lon="5.50608">
        <ele>185</ele>
        <time>2018-02-20T07:50:00.000Z</time>
      </trkpt>
      <trkpt lat="43.52225" lon="5.50608">
        <ele>185</ele>
        <time>2018-02-20T07:50:01.000Z</time>
      </trkpt>
      <trkpt lat="43.52226" lon="5.50608">
        <ele>185</ele>
        <time>2018-02-20T07:50:02.000Z</time>
      </trkpt>
      <trkpt lat="43.52227" lon="5.50608">
        <ele>185</ele>
        <time>2018-02-20T07:50:03.000Z</time>
      </trkpt>
      <trkpt lat="43.52227" lon="5.50608">
        <ele>185</ele>
        <time>2018-02-20T07:50:04.000Z</time>
      </trkpt>
      <trkpt lat="43.52228" lon="5.50608">
        <ele>185</ele>
        <time>2018-02-20T07:50:05.000Z</time>
      </trkpt>
      <trkpt lat="43.52229" lon="5.50608">
        <ele>185</ele>
        <time>2018-02-20T07:50:06.000Z</time>
      </trkpt>
      <trkpt lat="43.5223" lon="5.50608">
        <ele>185</ele>
        <time>2018-02-20T07:50:07.000Z</time>
      </trkpt>
      <trkpt lat="43.5223" lon="5.50607">
        <ele>185</ele>
        <time>2018-02-20T07:50:08.000Z</time>
      </trkpt>
      <trkpt lat="43.52231" lon="5.50607">
        <ele>185</ele>
        <time>2018-02-20T07:50:09.000Z</time>
      </trkpt>
      <trkpt lat="43.52232" lon="5.50607">
        <ele>185</ele>
        <time>2018-02-20T07:50:10.000Z</time>
      </trkpt>
      <trkpt lat="43.52233" lon="5.50607">
        <ele>185</ele>
        <time>2018-02-20T07:50:11.000Z</time>
      </trkpt>
      <trkpt lat="43.52234" lon="5.50608">
        <ele>185</ele>
        <time>2018-02-20T07:50:12.000Z</time>
      </trkpt>
      <trkpt lat="43.52235" lon="5.50608">
        <ele>185</ele>
        <time>2018-02-20T07:50:13.000Z</time>
      </trkpt>
      <trkpt lat="43.52236" lon="5.50608">
        <ele>185</ele>
        <time>2018-02-20T07:50:14.000Z</time>
      </trkpt>
      <trkpt lat="43.52237" lon="5.50608">
        <ele>185</ele>
        <time>2018-02-20T07:50:15.000Z</time>
      </trkpt>
      <trkpt lat="43.52238" lon="5.50608">
        <ele>185</ele>
        <time>2018-02-20T07:50:16.000Z</time>
      </trkpt>
      <trkpt lat="43.52239" lon="5.50608">
        <ele>185</ele>
        <time>2018-02-20T07:50:17.000Z</time>
      </trkpt>
      <trkpt lat="43.5224" lon="5.50608">
        <ele>185</ele>
        <time>2018-02-20T07:50:18.000Z</time>
      </trkpt>
      <trkpt lat="43.52241" lon="5.50608">
        <ele>185</ele>
        <time>2018-02-20T07:50:19.000Z</time>
      </trkpt>
      <trkpt lat="43.52242" lon="5.50608">
        <ele>185</ele>
        <time>2018-02-20T07:50:20.000Z</time>
      </trkpt>
      <trkpt lat="43.52243" lon="5.50608">
        <ele>185</ele>
        <time>2018-02-20T07:50:21.000Z</time>
      </trkpt>
      <trkpt lat="43.52244" lon="5.50608">
        <ele>185</ele>
        <time>2018-02-20T07:50:22.000Z</time>
      </trkpt>
      <trkpt lat="43.52244" lon="5.50608">
        <ele>185</ele>
        <time>2018-02-20T07:50:23.000Z</time>
      </trkpt>
      <trkpt lat="43.52245" lon="5.50608">
        <ele>185</ele>
        <time>2018-02-20T07:50:24.000Z</time>
      </trkpt>
      <trkpt lat="43.52247" lon="5.50608">
        <ele>186</ele>
        <time>2018-02-20T07:50:25.000Z</time>
      </trkpt>
      <trkpt lat="43.52248" lon="5.50608">
        <ele>186</ele>
        <time>2018-02-20T07:50:26.000Z</time>
      </trkpt>
      <trkpt lat="43.52249" lon="5.50608">
        <ele>186</ele>
        <time>2018-02-20T07:50:27.000Z</time>
      </trkpt>
      <trkpt lat="43.5225" lon="5.50608">
        <ele>186</ele>
        <time>2018-02-20T07:50:28.000Z</time>
      </trkpt>
      <trkpt lat="43.52251" lon="5.50608">
        <ele>186</ele>
        <time>2018-02-20T07:50:29.000Z</time>
      </trkpt>
      <trkpt lat="43.52253" lon="5.50608">
        <ele>186</ele>
        <time>2018-02-20T07:50:30.000Z</time>
      </trkpt>
      <trkpt lat="43.52254" lon="5.50608">
        <ele>186</ele>
        <time>2018-02-20T07:50:31.000Z</time>
      </trkpt>
      <trkpt lat="43.52255" lon="5.50608">
        <ele>186</ele>
        <time>2018-02-20T07:50:32.000Z</time>
      </trkpt>
      <trkpt lat="43.52256" lon="5.50608">
        <ele>187</ele>
        <time>2018-02-20T07:50:33.000Z</time>
      </trkpt>
      <trkpt lat="43.52257" lon="5.50609">
        <ele>187</ele>
        <time>2018-02-20T07:50:34.000Z</time>
      </trkpt>
      <trkpt lat="43.52259" lon="5.50609">
        <ele>187</ele>
        <time>2018-02-20T07:50:35.000Z</time>
      </trkpt>
      <trkpt lat="43.5226" lon="5.5061">
        <ele>187</ele>
        <time>2018-02-20T07:50:36.000Z</time>
      </trkpt>
      <trkpt lat="43.52261" lon="5.5061">
        <ele>187</ele>
        <time>2018-02-20T07:50:37.000Z</time>
      </trkpt>
      <trkpt lat="43.52262" lon="5.50611">
        <ele>187</ele>
        <time>2018-02-20T07:50:38.000Z</time>
      </trkpt>
      <trkpt lat="43.52263" lon="5.50611">
        <ele>188</ele>
        <time>2018-02-20T07:50:39.000Z</time>
      </trkpt>
      <trkpt lat="43.52264" lon="5.50612">
        <ele>188</ele>
        <time>2018-02-20T07:50:40.000Z</time>
      </trkpt>
      <trkpt lat="43.52265" lon="5.50612">
        <ele>188</ele>
        <time>2018-02-20T07:50:41.000Z</time>
      </trkpt>
      <trkpt lat="43.52266" lon="5.50613">
        <ele>188</ele>
        <time>2018-02-20T07:50:42.000Z</time>
      </trkpt>
      <trkpt lat="43.52267" lon="5.50614">
        <ele>189</ele>
        <time>2018-02-20T07:50:43.000Z</time>
      </trkpt>
      <trkpt lat="43.52268" lon="5.50614">
        <ele>189</ele>
        <time>2018-02-20T07:50:44.000Z</time>
      </trkpt>
      <trkpt lat="43.52268" lon="5.50615">
        <ele>189</ele>
        <time>2018-02-20T07:50:45.000Z</time>
      </trkpt>
      <trkpt lat="43.52269" lon="5.50615">
        <ele>189</ele>
        <time>2018-02-20T07:50:46.000Z</time>
      </trkpt>
      <trkpt lat="43.5227" lon="5.50616">
        <ele>190</ele>
        <time>2018-02-20T07:50:47.000Z</time>
      </trkpt>
      <trkpt lat="43.52271" lon="5.50616">
        <ele>190</ele>
        <time>2018-02-20T07:50:48.000Z</time>
      </trkpt>
      <trkpt lat="43.52272" lon="5.50617">
        <ele>190</ele>
        <time>2018-02-20T07:50:49.000Z</time>
      </trkpt>
      <trkpt lat="43.52273" lon="5.50618">
        <ele>190</ele>
        <time>2018-02-20T07:50:50.000Z</time>
      </trkpt>
      <trkpt lat="43.52274" lon="5.50619">
        <ele>190</ele>
        <time>2018-02-20T07:50:51.000Z</time>
      </trkpt>
      <trkpt lat="43.52275" lon="5.5062">
        <ele>190</ele>
        <time>2018-02-20T07:50:52.000Z</time>
      </trkpt>
      <trkpt lat="43.52276" lon="5.5062">
        <ele>190</ele>
        <time>2018-02-20T07:50:53.000Z</time>
      </trkpt>
      <trkpt lat="43.52277" lon="5.50621">
        <ele>190</ele>
        <time>2018-02-20T07:50:54.000Z</time>
      </trkpt>
      <trkpt lat="43.52278" lon="5.50622">
        <ele>190</ele>
        <time>2018-02-20T07:50:55.000Z</time>
      </trkpt>
      <trkpt lat="43.52279" lon="5.50623">
        <ele>190</ele>
        <time>2018-02-20T07:50:56.000Z</time>
      </trkpt>
      <trkpt lat="43.5228" lon="5.50623">
        <ele>190</ele>
        <time>2018-02-20T07:50:57.000Z</time>
      </trkpt>
      <trkpt lat="43.52282" lon="5.50624">
        <ele>190</ele>
        <time>2018-02-20T07:50:58.000Z</time>
      </trkpt>
      <trkpt lat="43.52283" lon="5.50625">
        <ele>190</ele>
        <time>2018-02-20T07:50:59.000Z</time>
      </trkpt>
      <trkpt lat="43.52284" lon="5.50626">
        <ele>190</ele>
        <time>2018-02-20T07:51:00.000Z</time>
      </trkpt>
      <trkpt lat="43.52285" lon="5.50626">
        <ele>190</ele>
        <time>2018-02-20T07:51:01.000Z</time>
      </trkpt>
      <trkpt lat="43.52286" lon="5.50627">
        <ele>190</ele>
        <time>2018-02-20T07:51:02.000Z</time>
      </trkpt>
      <trkpt lat="43.52288" lon="5.50628">
        <ele>190</ele>
        <time>2018-02-20T07:51:03.000Z</time>
      </trkpt>
      <trkpt lat="43.52289" lon="5.50629">
        <ele>190</ele>
        <time>2018-02-20T07:51:04.000Z</time>
      </trkpt>
      <trkpt lat="43.5229" lon="5.5063">
        <ele>190</ele>
        <time>2018-02-20T07:51:05.000Z</time>
      </trkpt>
      <trkpt lat="43.52291" lon="5.5063">
        <ele>190</ele>
        <time>2018-02-20T07:51:06.000Z</time>
      </trkpt>
      <trkpt lat="43.52292" lon="5.50631">
        <ele>190</ele>
        <time>2018-02-20T07:51:07.000Z</time>
      </trkpt>
      <trkpt lat="43.52294" lon="5.50632">
        <ele>190</ele>
        <time>2018-02-20T07:51:08.000Z</time>
      </trkpt>
      <trkpt lat="43.52295" lon="5.50632">
        <ele>190</ele>
        <time>2018-02-20T07:51:09.000Z</time>
      </trkpt>
      <trkpt lat="43.52296" lon="5.50633">
        <ele>190</ele>
        <time>2018-02-20T07:51:10.000Z</time>
      </trkpt>
      <trkpt lat="43.52297" lon="5.50633">
        <ele>190</ele>
        <time>2018-02-20T07:51:11.000Z</time>
      </trkpt>
      <trkpt lat="43.52298" lon="5.50634">
        <ele>190</ele>
        <time>2018-02-20T07:51:12.000Z</time>
      </trkpt>
      <trkpt lat="43.52299" lon="5.50635">
        <ele>190</ele>
        <time>2018-02-20T07:51:13.000Z</time>
      </trkpt>
      <trkpt lat="43.52301" lon="5.50636">
        <ele>190</ele>
        <time>2018-02-20T07:51:14.000Z</time>
      </trkpt>
      <trkpt lat="43.52302" lon="5.50637">
        <ele>190</ele>
        <time>2018-02-20T07:51:15.000Z</time>
      </trkpt>
      <trkpt lat="43.52303" lon="5.50637">
        <ele>190</ele>
        <time>2018-02-20T07:51:16.000Z</time>
      </trkpt>
      <trkpt lat="43.52304" lon="5.50638">
        <ele>190</ele>
        <time>2018-02-20T07:51:17.000Z</time>
      </trkpt>
      <trkpt lat="43.52305" lon="5.50639">
        <ele>189</ele>
        <time>2018-02-20T07:51:18.000Z</time>
      </trkpt>
      <trkpt lat="43.52306" lon="5.5064">
        <ele>189</ele>
        <time>2018-02-20T07:51:19.000Z</time>
      </trkpt>
      <trkpt lat="43.52307" lon="5.5064">
        <ele>189</ele>
        <time>2018-02-20T07:51:20.000Z</time>
      </trkpt>
      <trkpt lat="43.52308" lon="5.50641">
        <ele>189</ele>
        <time>2018-02-20T07:51:21.000Z</time>
      </trkpt>
      <trkpt lat="43.52309" lon="5.50641">
        <ele>189</ele>
        <time>2018-02-20T07:51:22.000Z</time>
      </trkpt>
      <trkpt lat="43.5231" lon="5.50642">
        <ele>189</ele>
        <time>2018-02-20T07:51:23.000Z</time>
      </trkpt>
      <trkpt lat="43.52312" lon="5.50643">
        <ele>189</ele>
        <time>2018-02-20T07:51:24.000Z</time>
      </trkpt>
      <trkpt lat="43.52313" lon="5.50644">
        <ele>189</ele>
        <time>2018-02-20T07:51:25.000Z</time>
      </trkpt>
      <trkpt lat="43.52314" lon="5.50645">
        <ele>189</ele>
        <time>2018-02-20T07:51:26.000Z</time>
      </trkpt>
      <trkpt lat="43.52315" lon="5.50645">
        <ele>189</ele>
        <time>2018-02-20T07:51:27.000Z</time>
      </trkpt>
      <trkpt lat="43.52316" lon="5.50646">
        <ele>189</ele>
        <time>2018-02-20T07:51:28.000Z</time>
      </trkpt>
      <trkpt lat="43.52317" lon="5.50647">
        <ele>189</ele>
        <time>2018-02-20T07:51:29.000Z</time>
      </trkpt>
      <trkpt lat="43.52318" lon="5.50647">
        <ele>189</ele>
        <time>2018-02-20T07:51:30.000Z</time>
      </trkpt>
      <trkpt lat="43.52319" lon="5.50648">
        <ele>189</ele>
        <time>2018-02-20T07:51:31.000Z</time>
      </trkpt>
      <trkpt lat="43.5232" lon="5.50649">
        <ele>189</ele>
        <time>2018-02-20T07:51:32.000Z</time>
      </trkpt>
      <trkpt lat="43.52321" lon="5.50649">
        <ele>189</ele>
        <time>2018-02-20T07:51:33.000Z</time>
      </trkpt>
      <trkpt lat="43.52322" lon="5.5065">
        <ele>189</ele>
        <time>2018-02-20T07:51:34.000Z</time>
      </trkpt>
      <trkpt lat="43.52322" lon="5.50651">
        <ele>189</ele>
        <time>2018-02-20T07:51:35.000Z</time>
      </trkpt>
      <trkpt lat="43.52323" lon="5.50651">
        <ele>189</ele>
        <time>2018-02-20T07:51:36.000Z</time>
      </trkpt>
      <trkpt lat="43.52324" lon="5.50652">
        <ele>189</ele>
        <time>2018-02-20T07:51:37.000Z</time>
      </trkpt>
      <trkpt lat="43.52325" lon="5.50653">
        <ele>189</ele>
        <time>2018-02-20T07:51:38.000Z</time>
      </trkpt>
      <trkpt lat="43.52326" lon="5.50654">
        <ele>189</ele>
        <time>2018-02-20T07:51:39.000Z</time>
      </trkpt>
      <trkpt lat="43.52327" lon="5.50655">
        <ele>189</ele>
        <time>2018-02-20T07:51:40.000Z</time>
      </trkpt>
      <trkpt lat="43.52328" lon="5.50656">
        <ele>189</ele>
        <time>2018-02-20T07:51:41.000Z</time>
      </trkpt>
      <trkpt lat="43.52329" lon="5.50656">
        <ele>189</ele>
        <time>2018-02-20T07:51:42.000Z</time>
      </trkpt>
      <trkpt lat="43.5233" lon="5.50657">
        <ele>189</ele>
        <time>2018-02-20T07:51:43.000Z</time>
      </trkpt>
      <trkpt lat="43.52331" lon="5.50657">
        <ele>190</ele>
        <time>2018-02-20T07:51:44.000Z</time>
      </trkpt>
      <trkpt lat="43.52332" lon="5.50658">
        <ele>190</ele>
        <time>2018-02-20T07:51:45.000Z</time>
      </trkpt>
      <trkpt lat="43.52333" lon="5.50658">
        <ele>190</ele>
        <time>2018-02-20T07:51:46.000Z</time>
      </trkpt>
      <trkpt lat="43.52334" lon="5.50659">
        <ele>190</ele>
        <time>2018-02-20T07:51:47.000Z</time>
      </trkpt>
      <trkpt lat="43.52335" lon="5.50659">
        <ele>190</ele>
        <time>2018-02-20T07:51:48.000Z</time>
      </trkpt>
      <trkpt lat="43.52336" lon="5.5066">
        <ele>190</ele>
        <time>2018-02-20T07:51:49.000Z</time>
      </trkpt>
      <trkpt lat="43.52337" lon="5.5066">
        <ele>190</ele>
        <time>2018-02-20T07:51:50.000Z</time>
      </trkpt>
      <trkpt lat="43.52338" lon="5.50661">
        <ele>190</ele>
        <time>2018-02-20T07:51:51.000Z</time>
      </trkpt>
      <trkpt lat="43.52339" lon="5.50662">
        <ele>190</ele>
        <time>2018-02-20T07:51:52.000Z</time>
      </trkpt>
      <trkpt lat="43.5234" lon="5.50662">
        <ele>190</ele>
        <time>2018-02-20T07:51:53.000Z</time>
      </trkpt>
      <trkpt lat="43.52341" lon="5.50663">
        <ele>190</ele>
        <time>2018-02-20T07:51:54.000Z</time>
      </trkpt>
      <trkpt lat="43.52342" lon="5.50663">
        <ele>190</ele>
        <time>2018-02-20T07:51:55.000Z</time>
      </trkpt>
      <trkpt lat="43.52344" lon="5.50664">
        <ele>190</ele>
        <time>2018-02-20T07:51:56.000Z</time>
      </trkpt>
      <trkpt lat="43.52345" lon="5.50665">
        <ele>190</ele>
        <time>2018-02-20T07:51:57.000Z</time>
      </trkpt>
      <trkpt lat="43.52346" lon="5.50666">
        <ele>190</ele>
        <time>2018-02-20T07:51:58.000Z</time>
      </trkpt>
      <trkpt lat="43.52347" lon="5.50667">
        <ele>191</ele>
        <time>2018-02-20T07:51:59.000Z</time>
      </trkpt>
      <trkpt lat="43.52349" lon="5.50668">
        <ele>191</ele>
        <time>2018-02-20T07:52:00.000Z</time>
      </trkpt>
      <trkpt lat="43.5235" lon="5.50668">
        <ele>191</ele>
        <time>2018-02-20T07:52:01.000Z</time>
      </trkpt>
      <trkpt lat="43.52351" lon="5.50669">
        <ele>191</ele>
        <time>2018-02-20T07:52:02.000Z</time>
      </trkpt>
      <trkpt lat="43.52352" lon="5.5067">
        <ele>191</ele>
        <time>2018-02-20T07:52:03.000Z</time>
      </trkpt>
      <trkpt lat="43.52353" lon="5.5067">
        <ele>192</ele>
        <time>2018-02-20T07:52:04.000Z</time>
      </trkpt>
      <trkpt lat="43.52354" lon="5.50671">
        <ele>192</ele>
        <time>2018-02-20T07:52:05.000Z</time>
      </trkpt>
      <trkpt lat="43.52356" lon="5.50672">
        <ele>192</ele>
        <time>2018-02-20T07:52:06.000Z</time>
      </trkpt>
      <trkpt lat="43.52357" lon="5.50673">
        <ele>192</ele>
        <time>2018-02-20T07:52:07.000Z</time>
      </trkpt>
      <trkpt lat="43.52358" lon="5.50674">
        <ele>192</ele>
        <time>2018-02-20T07:52:08.000Z</time>
      </trkpt>
      <trkpt lat="43.52359" lon="5.50675">
        <ele>192</ele>
        <time>2018-02-20T07:52:09.000Z</time>
      </trkpt>
      <trkpt lat="43.5236" lon="5.50676">
        <ele>192</ele>
        <time>2018-02-20T07:52:10.000Z</time>
      </trkpt>
      <trkpt lat="43.52361" lon="5.50676">
        <ele>192</ele>
        <time>2018-02-20T07:52:11.000Z</time>
      </trkpt>
      <trkpt lat="43.52362" lon="5.50677">
        <ele>193</ele>
        <time>2018-02-20T07:52:12.000Z</time>
      </trkpt>
      <trkpt lat="43.52364" lon="5.50677">
        <ele>193</ele>
        <time>2018-02-20T07:52:13.000Z</time>
      </trkpt>
      <trkpt lat="43.52364" lon="5.50678">
        <ele>193</ele>
        <time>2018-02-20T07:52:14.000Z</time>
      </trkpt>
      <trkpt lat="43.52365" lon="5.50679">
        <ele>193</ele>
        <time>2018-02-20T07:52:15.000Z</time>
      </trkpt>
      <trkpt lat="43.52366" lon="5.50679">
        <ele>193</ele>
        <time>2018-02-20T07:52:16.000Z</time>
      </trkpt>
      <trkpt lat="43.52367" lon="5.5068">
        <ele>193</ele>
        <time>2018-02-20T07:52:17.000Z</time>
      </trkpt>
      <trkpt lat="43.52368" lon="5.5068">
        <ele>194</ele>
        <time>2018-02-20T07:52:18.000Z</time>
      </trkpt>
      <trkpt lat="43.52369" lon="5.5068">
        <ele>194</ele>
        <time>2018-02-20T07:52:19.000Z</time>
      </trkpt>
      <trkpt lat="43.5237" lon="5.5068">
        <ele>194</ele>
        <time>2018-02-20T07:52:20.000Z</time>
      </trkpt>
      <trkpt lat="43.52371" lon="5.5068">
        <ele>194</ele>
        <time>2018-02-20T07:52:21.000Z</time>
      </trkpt>
      <trkpt lat="43.52372" lon="5.50679">
        <ele>194</ele>
        <time>2018-02-20T07:52:22.000Z</time>
      </trkpt>
      <trkpt lat="43.52373" lon="5.50679">
        <ele>194</ele>
        <time>2018-02-20T07:52:23.000Z</time>
      </trkpt>
      <trkpt lat="43.52374" lon="5.50678">
        <ele>194</ele>
        <time>2018-02-20T07:52:24.000Z</time>
      </trkpt>
      <trkpt lat="43.52374" lon="5.50677">
        <ele>195</ele>
        <time>2018-02-20T07:52:25.000Z</time>
      </trkpt>
      <trkpt lat="43.52375" lon="5.50677">
        <ele>195</ele>
        <time>2018-02-20T07:52:26.000Z</time>
      </trkpt>
      <trkpt lat="43.52376" lon="5.50676">
        <ele>195</ele>
        <time>2018-02-20T07:52:27.000Z</time>
      </trkpt>
      <trkpt lat="43.52376" lon="5.50675">
        <ele>195</ele>
        <time>2018-02-20T07:52:28.000Z</time>
      </trkpt>
      <trkpt lat="43.52377" lon="5.50675">
        <ele>195</ele>
        <time>2018-02-20T07:52:29.000Z</time>
      </trkpt>
      <trkpt lat="43.52377" lon="5.50674">
        <ele>195</ele>
        <time>2018-02-20T07:52:30.000Z</time>
      </trkpt>
      <trkpt lat="43.52378" lon="5.50673">
        <ele>195</ele>
        <time>2018-02-20T07:52:31.000Z</time>
      </trkpt>
      <trkpt lat="43.52378" lon="5.50672">
        <ele>195</ele>
        <time>2018-02-20T07:52:32.000Z</time>
      </trkpt>
      <trkpt lat="43.52379" lon="5.50671">
        <ele>195</ele>
        <time>2018-02-20T07:52:33.000Z</time>
      </trkpt>
      <trkpt lat="43.52379" lon="5.5067">
        <ele>195</ele>
        <time>2018-02-20T07:52:34.000Z</time>
      </trkpt>
      <trkpt lat="43.5238" lon="5.50669">
        <ele>195</ele>
        <time>2018-02-20T07:52:35.000Z</time>
      </trkpt>
      <trkpt lat="43.5238" lon="5.50668">
        <ele>195</ele>
        <time>2018-02-20T07:52:36.000Z</time>
      </trkpt>
      <trkpt lat="43.5238" lon="5.50668">
        <ele>195</ele>
        <time>2018-02-20T07:52:37.000Z</time>
      </trkpt>
      <trkpt lat="43.52381" lon="5.50666">
        <ele>195</ele>
        <time>2018-02-20T07:52:38.000Z</time>
      </trkpt>
      <trkpt lat="43.52381" lon="5.50665">
        <ele>195</ele>
        <time>2018-02-20T07:52:39.000Z</time>
      </trkpt>
      <trkpt lat="43.52381" lon="5.50664">
        <ele>195</ele>
        <time>2018-02-20T07:52:40.000Z</time>
      </trkpt>
      <trkpt lat="43.52382" lon="5.50663">
        <ele>195</ele>
        <time>2018-02-20T07:52:41.000Z</time>
      </trkpt>
      <trkpt lat="43.52382" lon="5.50663">
        <ele>195</ele>
        <time>2018-02-20T07:52:42.000Z</time>
      </trkpt>
      <trkpt lat="43.52382" lon="5.50662">
        <ele>195</ele>
        <time>2018-02-20T07:52:43.000Z</time>
      </trkpt>
      <trkpt lat="43.52382" lon="5.50661">
        <ele>195</ele>
        <time>2018-02-20T07:52:44.000Z</time>
      </trkpt>
      <trkpt lat="43.52383" lon="5.5066">
        <ele>195</ele>
        <time>2018-02-20T07:52:45.000Z</time>
      </trkpt>
      <trkpt lat="43.52383" lon="5.50659">
        <ele>195</ele>
        <time>2018-02-20T07:52:46.000Z</time>
      </trkpt>
      <trkpt lat="43.52384" lon="5.50658">
        <ele>195</ele>
        <time>2018-02-20T07:52:47.000Z</time>
      </trkpt>
      <trkpt lat="43.52384" lon="5.50656">
        <ele>195</ele>
        <time>2018-02-20T07:52:48.000Z</time>
      </trkpt>
      <trkpt lat="43.52384" lon="5.50655">
        <ele>195</ele>
        <time>2018-02-20T07:52:49.000Z</time>
      </trkpt>
      <trkpt lat="43.52385" lon="5.50654">
        <ele>195</ele>
        <time>2018-02-20T07:52:50.000Z</time>
      </trkpt>
      <trkpt lat="43.52385" lon="5.50653">
        <ele>195</ele>
        <time>2018-02-20T07:52:51.000Z</time>
      </trkpt>
      <trkpt lat="43.52385" lon="5.50653">
        <ele>195</ele>
        <time>2018-02-20T07:52:52.000Z</time>
      </trkpt>
      <trkpt lat="43.52385" lon="5.50652">
        <ele>195</ele>
        <time>2018-02-20T07:52:53.000Z</time>
      </trkpt>
      <trkpt lat="43.52386" lon="5.50651">
        <ele>195</ele>
        <time>2018-02-20T07:52:54.000Z</time>
      </trkpt>
      <trkpt lat="43.52386" lon="5.5065">
        <ele>195</ele>
        <time>2018-02-20T07:52:55.000Z</time>
      </trkpt>
      <trkpt lat="43.52386" lon="5.50649">
        <ele>195</ele>
        <time>2018-02-20T07:52:56.000Z</time>
      </trkpt>
      <trkpt lat="43.52387" lon="5.50648">
        <ele>196</ele>
        <time>2018-02-20T07:52:57.000Z</time>
      </trkpt>
      <trkpt lat="43.52387" lon="5.50647">
        <ele>196</ele>
        <time>2018-02-20T07:52:58.000Z</time>
      </trkpt>
      <trkpt lat="43.52387" lon="5.50647">
        <ele>196</ele>
        <time>2018-02-20T07:52:59.000Z</time>
      </trkpt>
      <trkpt lat="43.52387" lon="5.50647">
        <ele>196</ele>
        <time>2018-02-20T07:53:00.000Z</time>
      </trkpt>
      <trkpt lat="43.52387" lon="5.50646">
        <ele>196</ele>
        <time>2018-02-20T07:53:01.000Z</time>
      </trkpt>
      <trkpt lat="43.52387" lon="5.50645">
        <ele>196</ele>
        <time>2018-02-20T07:53:02.000Z</time>
      </trkpt>
      <trkpt lat="43.52387" lon="5.50643">
        <ele>196</ele>
        <time>2018-02-20T07:53:03.000Z</time>
      </trkpt>
      <trkpt lat="43.52387" lon="5.50642">
        <ele>196</ele>
        <time>2018-02-20T07:53:04.000Z</time>
      </trkpt>
      <trkpt lat="43.52387" lon="5.50641">
        <ele>196</ele>
        <time>2018-02-20T07:53:05.000Z</time>
      </trkpt>
      <trkpt lat="43.52387" lon="5.5064">
        <ele>197</ele>
        <time>2018-02-20T07:53:06.000Z</time>
      </trkpt>
      <trkpt lat="43.52388" lon="5.5064">
        <ele>197</ele>
        <time>2018-02-20T07:53:07.000Z</time>
      </trkpt>
      <trkpt lat="43.52388" lon="5.5064">
        <ele>197</ele>
        <time>2018-02-20T07:53:08.000Z</time>
      </trkpt>
      <trkpt lat="43.52388" lon="5.5064">
        <ele>197</ele>
        <time>2018-02-20T07:53:09.000Z</time>
      </trkpt>
      <trkpt lat="43.52388" lon="5.5064">
        <ele>197</ele>
        <time>2018-02-20T07:53:10.000Z</time>
      </trkpt>
      <trkpt lat="43.52388" lon="5.50639">
        <ele>197</ele>
        <time>2018-02-20T07:53:11.000Z</time>
      </trkpt>
      <trkpt lat="43.52388" lon="5.50639">
        <ele>197</ele>
        <time>2018-02-20T07:53:12.000Z</time>
      </trkpt>
      <trkpt lat="43.52388" lon="5.50639">
        <ele>197</ele>
        <time>2018-02-20T07:53:13.000Z</time>
      </trkpt>
      <trkpt lat="43.52388" lon="5.50639">
        <ele>197</ele>
        <time>2018-02-20T07:53:14.000Z</time>
      </trkpt>
      <trkpt lat="43.52388" lon="5.50639">
        <ele>197</ele>
        <time>2018-02-20T07:53:15.000Z</time>
      </trkpt>
      <trkpt lat="43.52388" lon="5.50639">
        <ele>198</ele>
        <time>2018-02-20T07:53:16.000Z</time>
      </trkpt>
      <trkpt lat="43.52388" lon="5.50639">
        <ele>198</ele>
        <time>2018-02-20T07:53:17.000Z</time>
      </trkpt>
      <trkpt lat="43.52388" lon="5.50639">
        <ele>198</ele>
        <time>2018-02-20T07:53:18.000Z</time>
      </trkpt>
      <trkpt lat="43.52388" lon="5.50639">
        <ele>198</ele>
        <time>2018-02-20T07:53:19.000Z</time>
      </trkpt>
      <trkpt lat="43.52388" lon="5.50639">
        <ele>198</ele>
        <time>2018-02-20T07:53:20.000Z</time>
      </trkpt>
      <trkpt lat="43.52388" lon="5.50639">
        <ele>198</ele>
        <time>2018-02-20T07:53:21.000Z</time>
      </trkpt>
      <trkpt lat="43.52388" lon="5.50639">
        <ele>198</ele>
        <time>2018-02-20T07:53:22.000Z</time>
      </trkpt>
      <trkpt lat="43.52388" lon="5.50639">
        <ele>198</ele>
        <time>2018-02-20T07:53:23.000Z</time>
      </trkpt>
      <trkpt lat="43.52388" lon="5.50639">
        <ele>198</ele>
        <time>2018-02-20T07:53:24.000Z</time>
      </trkpt>
      <trkpt lat="43.52388" lon="5.50639">
        <ele>198</ele>
        <time>2018-02-20T07:53:25.000Z</time>
      </trkpt>
      <trkpt lat="43.52388" lon="5.50639">
        <ele>198</ele>
        <time>2018-02-20T07:53:26.000Z</time>
      </trkpt>
      <trkpt lat="43.52388" lon="5.50639">
        <ele>198</ele>
        <time>2018-02-20T07:53:27.000Z</time>
      </trkpt>
      <trkpt lat="43.52388" lon="5.50639">
        <ele>198</ele>
        <time>2018-02-20T07:53:28.000Z</time>
      </trkpt>
      <trkpt lat="43.52388" lon="5.50639">
        <ele>198</ele>
        <time>2018-02-20T07:53:29.000Z</time>
      </trkpt>
      <trkpt lat="43.52388" lon="5.50639">
        <ele>198</ele>
        <time>2018-02-20T07:53:30.000Z</time>
      </trkpt>
      <trkpt lat="43.52388" lon="5.50639">
        <ele>198</ele>
        <time>2018-02-20T07:53:31.000Z</time>
      </trkpt>
      <trkpt lat="43.52388" lon="5.50639">
        <ele>198</ele>
        <time>2018-02-20T07:53:32.000Z</time>
      </trkpt>
      <trkpt lat="43.52388" lon="5.50639">
        <ele>198</ele>
        <time>2018-02-20T07:53:33.000Z</time>
      </trkpt>
      <trkpt lat="43.52388" lon="5.50639">
        <ele>198</ele>
        <time>2018-02-20T07:53:34.000Z</time>
      </trkpt>
      <trkpt lat="43.52388" lon="5.50639">
        <ele>198</ele>
        <time>2018-02-20T07:53:35.000Z</time>
      </trkpt>
      <trkpt lat="43.52388" lon="5.50639">
        <ele>198</ele>
        <time>2018-02-20T07:53:36.000Z</time>
      </trkpt>
      <trkpt lat="43.52388" lon="5.50639">
        <ele>198</ele>
        <time>2018-02-20T07:53:37.000Z</time>
      </trkpt>
      <trkpt lat="43.52388" lon="5.50639">
        <ele>198</ele>
        <time>2018-02-20T07:53:38.000Z</time>
      </trkpt>
      <trkpt lat="43.52388" lon="5.50639">
        <ele>198</ele>
        <time>2018-02-20T07:53:39.000Z</time>
      </trkpt>
      <trkpt lat="43.52388" lon="5.50638">
        <ele>198</ele>
        <time>2018-02-20T07:53:40.000Z</time>
      </trkpt>
      <trkpt lat="43.52389" lon="5.50638">
        <ele>198</ele>
        <time>2018-02-20T07:53:41.000Z</time>
      </trkpt>
      <trkpt lat="43.52389" lon="5.50638">
        <ele>199</ele>
        <time>2018-02-20T07:53:42.000Z</time>
      </trkpt>
      <trkpt lat="43.5239" lon="5.50638">
        <ele>199</ele>
        <time>2018-02-20T07:53:43.000Z</time>
      </trkpt>
      <trkpt lat="43.5239" lon="5.50638">
        <ele>199</ele>
        <time>2018-02-20T07:53:44.000Z</time>
      </trkpt>
      <trkpt lat="43.52391" lon="5.50639">
        <ele>199</ele>
        <time>2018-02-20T07:53:45.000Z</time>
      </trkpt>
      <trkpt lat="43.52391" lon="5.50639">
        <ele>199</ele>
        <time>2018-02-20T07:53:46.000Z</time>
      </trkpt>
      <trkpt lat="43.52392" lon="5.5064">
        <ele>200</ele>
        <time>2018-02-20T07:53:47.000Z</time>
      </trkpt>
      <trkpt lat="43.52392" lon="5.5064">
        <ele>200</ele>
        <time>2018-02-20T07:53:48.000Z</time>
      </trkpt>
      <trkpt lat="43.52392" lon="5.5064">
        <ele>200</ele>
        <time>2018-02-20T07:53:49.000Z</time>
      </trkpt>
      <trkpt lat="43.52393" lon="5.5064">
        <ele>200</ele>
        <time>2018-02-20T07:53:50.000Z</time>
      </trkpt>
      <trkpt lat="43.52394" lon="5.5064">
        <ele>200</ele>
        <time>2018-02-20T07:53:51.000Z</time>
      </trkpt>
      <trkpt lat="43.52395" lon="5.5064">
        <ele>201</ele>
        <time>2018-02-20T07:53:52.000Z</time>
      </trkpt>
      <trkpt lat="43.52395" lon="5.5064">
        <ele>201</ele>
        <time>2018-02-20T07:53:53.000Z</time>
      </trkpt>
      <trkpt lat="43.52396" lon="5.5064">
        <ele>201</ele>
        <time>2018-02-20T07:53:54.000Z</time>
      </trkpt>
      <trkpt lat="43.52397" lon="5.5064">
        <ele>201</ele>
        <time>2018-02-20T07:53:55.000Z</time>
      </trkpt>
      <trkpt lat="43.52398" lon="5.5064">
        <ele>202</ele>
        <time>2018-02-20T07:53:56.000Z</time>
      </trkpt>
      <trkpt lat="43.52399" lon="5.50641">
        <ele>202</ele>
        <time>2018-02-20T07:53:57.000Z</time>
      </trkpt>
      <trkpt lat="43.52399" lon="5.50641">
        <ele>202</ele>
        <time>2018-02-20T07:53:58.000Z</time>
      </trkpt>
      <trkpt lat="43.524" lon="5.50641">
        <ele>202</ele>
        <time>2018-02-20T07:53:59.000Z</time>
      </trkpt>
      <trkpt lat="43.524" lon="5.50642">
        <ele>202</ele>
        <time>2018-02-20T07:54:00.000Z</time>
      </trkpt>
      <trkpt lat="43.524" lon="5.50642">
        <ele>203</ele>
        <time>2018-02-20T07:54:01.000Z</time>
      </trkpt>
      <trkpt lat="43.524" lon="5.50642">
        <ele>203</ele>
        <time>2018-02-20T07:54:02.000Z</time>
      </trkpt>
      <trkpt lat="43.52401" lon="5.50642">
        <ele>203</ele>
        <time>2018-02-20T07:54:03.000Z</time>
      </trkpt>
      <trkpt lat="43.52401" lon="5.50642">
        <ele>203</ele>
        <time>2018-02-20T07:54:04.000Z</time>
      </trkpt>
      <trkpt lat="43.52401" lon="5.50642">
        <ele>203</ele>
        <time>2018-02-20T07:54:05.000Z</time>
      </trkpt>
      <trkpt lat="43.52401" lon="5.50642">
        <ele>203</ele>
        <time>2018-02-20T07:54:06.000Z</time>
      </trkpt>
      <trkpt lat="43.52401" lon="5.50642">
        <ele>203</ele>
        <time>2018-02-20T07:54:07.000Z</time>
      </trkpt>
      <trkpt lat="43.52401" lon="5.50642">
        <ele>203</ele>
        <time>2018-02-20T07:54:08.000Z</time>
      </trkpt>
      <trkpt lat="43.52402" lon="5.50642">
        <ele>203</ele>
        <time>2018-02-20T07:54:09.000Z</time>
      </trkpt>
      <trkpt lat="43.52402" lon="5.50642">
        <ele>204</ele>
        <time>2018-02-20T07:54:10.000Z</time>
      </trkpt>
      <trkpt lat="43.52402" lon="5.50642">
        <ele>204</ele>
        <time>2018-02-20T07:54:11.000Z</time>
      </trkpt>
      <trkpt lat="43.52402" lon="5.50642">
        <ele>204</ele>
        <time>2018-02-20T07:54:12.000Z</time>
      </trkpt>
      <trkpt lat="43.52402" lon="5.50643">
        <ele>204</ele>
        <time>2018-02-20T07:54:13.000Z</time>
      </trkpt>
      <trkpt lat="43.52403" lon="5.50644">
        <ele>204</ele>
        <time>2018-02-20T07:54:14.000Z</time>
      </trkpt>
      <trkpt lat="43.52403" lon="5.50644">
        <ele>204</ele>
        <time>2018-02-20T07:54:15.000Z</time>
      </trkpt>
      <trkpt lat="43.52403" lon="5.50644">
        <ele>204</ele>
        <time>2018-02-20T07:54:16.000Z</time>
      </trkpt>
      <trkpt lat="43.52404" lon="5.50644">
        <ele>204</ele>
        <time>2018-02-20T07:54:17.000Z</time>
      </trkpt>
      <trkpt lat="43.52405" lon="5.50644">
        <ele>204</ele>
        <time>2018-02-20T07:54:18.000Z</time>
      </trkpt>
      <trkpt lat="43.52405" lon="5.50645">
        <ele>204</ele>
        <time>2018-02-20T07:54:19.000Z</time>
      </trkpt>
      <trkpt lat="43.52406" lon="5.50645">
        <ele>204</ele>
        <time>2018-02-20T07:54:20.000Z</time>
      </trkpt>
      <trkpt lat="43.52406" lon="5.50645">
        <ele>205</ele>
        <time>2018-02-20T07:54:21.000Z</time>
      </trkpt>
      <trkpt lat="43.52407" lon="5.50645">
        <ele>205</ele>
        <time>2018-02-20T07:54:22.000Z</time>
      </trkpt>
      <trkpt lat="43.52407" lon="5.50645">
        <ele>205</ele>
        <time>2018-02-20T07:54:23.000Z</time>
      </trkpt>
      <trkpt lat="43.52407" lon="5.50645">
        <ele>205</ele>
        <time>2018-02-20T07:54:24.000Z</time>
      </trkpt>
      <trkpt lat="43.52407" lon="5.50646">
        <ele>205</ele>
        <time>2018-02-20T07:54:25.000Z</time>
      </trkpt>
      <trkpt lat="43.52407" lon="5.50646">
        <ele>205</ele>
        <time>2018-02-20T07:54:26.000Z</time>
      </trkpt>
      <trkpt lat="43.52407" lon="5.50646">
        <ele>205</ele>
        <time>2018-02-20T07:54:27.000Z</time>
      </trkpt>
      <trkpt lat="43.52407" lon="5.50646">
        <ele>205</ele>
        <time>2018-02-20T07:54:28.000Z</time>
      </trkpt>
      <trkpt lat="43.52407" lon="5.50646">
        <ele>205</ele>
        <time>2018-02-20T07:54:29.000Z</time>
      </trkpt>
      <trkpt lat="43.52407" lon="5.50646">
        <ele>206</ele>
        <time>2018-02-20T07:54:30.000Z</time>
      </trkpt>
      <trkpt lat="43.52408" lon="5.50646">
        <ele>206</ele>
        <time>2018-02-20T07:54:31.000Z</time>
      </trkpt>
      <trkpt lat="43.52408" lon="5.50646">
        <ele>206</ele>
        <time>2018-02-20T07:54:32.000Z</time>
      </trkpt>
      <trkpt lat="43.5241" lon="5.50647">
        <ele>206</ele>
        <time>2018-02-20T07:54:33.000Z</time>
      </trkpt>
      <trkpt lat="43.52411" lon="5.50648">
        <ele>206</ele>
        <time>2018-02-20T07:54:34.000Z</time>
      </trkpt>
      <trkpt lat="43.52411" lon="5.50648">
        <ele>206</ele>
        <time>2018-02-20T07:54:35.000Z</time>
      </trkpt>
      <trkpt lat="43.52412" lon="5.50649">
        <ele>206</ele>
        <time>2018-02-20T07:54:36.000Z</time>
      </trkpt>
      <trkpt lat="43.52412" lon="5.5065">
        <ele>207</ele>
        <time>2018-02-20T07:54:37.000Z</time>
      </trkpt>
      <trkpt lat="43.52413" lon="5.50651">
        <ele>207</ele>
        <time>2018-02-20T07:54:38.000Z</time>
      </trkpt>
      <trkpt lat="43.52413" lon="5.50651">
        <ele>207</ele>
        <time>2018-02-20T07:54:39.000Z</time>
      </trkpt>
      <trkpt lat="43.52414" lon="5.50652">
        <ele>207</ele>
        <time>2018-02-20T07:54:40.000Z</time>
      </trkpt>
      <trkpt lat="43.52414" lon="5.50653">
        <ele>207</ele>
        <time>2018-02-20T07:54:41.000Z</time>
      </trkpt>
      <trkpt lat="43.52414" lon="5.50654">
        <ele>207</ele>
        <time>2018-02-20T07:54:42.000Z</time>
      </trkpt>
      <trkpt lat="43.52415" lon="5.50655">
        <ele>207</ele>
        <time>2018-02-20T07:54:43.000Z</time>
      </trkpt>
      <trkpt lat="43.52415" lon="5.50655">
        <ele>208</ele>
        <time>2018-02-20T07:54:44.000Z</time>
      </trkpt>
      <trkpt lat="43.52416" lon="5.50656">
        <ele>208</ele>
        <time>2018-02-20T07:54:45.000Z</time>
      </trkpt>
      <trkpt lat="43.52416" lon="5.50656">
        <ele>208</ele>
        <time>2018-02-20T07:54:46.000Z</time>
      </trkpt>
      <trkpt lat="43.52416" lon="5.50657">
        <ele>208</ele>
        <time>2018-02-20T07:54:47.000Z</time>
      </trkpt>
      <trkpt lat="43.52417" lon="5.50658">
        <ele>208</ele>
        <time>2018-02-20T07:54:48.000Z</time>
      </trkpt>
      <trkpt lat="43.52418" lon="5.50659">
        <ele>208</ele>
        <time>2018-02-20T07:54:49.000Z</time>
      </trkpt>
      <trkpt lat="43.52418" lon="5.50659">
        <ele>209</ele>
        <time>2018-02-20T07:54:50.000Z</time>
      </trkpt>
      <trkpt lat="43.52418" lon="5.50659">
        <ele>209</ele>
        <time>2018-02-20T07:54:51.000Z</time>
      </trkpt>
      <trkpt lat="43.52418" lon="5.50659">
        <ele>209</ele>
        <time>2018-02-20T07:54:52.000Z</time>
      </trkpt>
      <trkpt lat="43.52418" lon="5.50659">
        <ele>209</ele>
        <time>2018-02-20T07:54:53.000Z</time>
      </trkpt>
      <trkpt lat="43.52418" lon="5.5066">
        <ele>209</ele>
        <time>2018-02-20T07:54:54.000Z</time>
      </trkpt>
      <trkpt lat="43.52418" lon="5.5066">
        <ele>209</ele>
        <time>2018-02-20T07:54:55.000Z</time>
      </trkpt>
      <trkpt lat="43.52418" lon="5.5066">
        <ele>209</ele>
        <time>2018-02-20T07:54:56.000Z</time>
      </trkpt>
      <trkpt lat="43.52418" lon="5.5066">
        <ele>209</ele>
        <time>2018-02-20T07:54:57.000Z</time>
      </trkpt>
      <trkpt lat="43.52418" lon="5.50659">
        <ele>209</ele>
        <time>2018-02-20T07:54:58.000Z</time>
      </trkpt>
      <trkpt lat="43.52418" lon="5.50659">
        <ele>209</ele>
        <time>2018-02-20T07:54:59.000Z</time>
      </trkpt>
      <trkpt lat="43.52417" lon="5.50659">
        <ele>209</ele>
        <time>2018-02-20T07:55:00.000Z</time>
      </trkpt>
      <trkpt lat="43.52417" lon="5.50659">
        <ele>209</ele>
        <time>2018-02-20T07:55:01.000Z</time>
      </trkpt>
      <trkpt lat="43.52417" lon="5.50659">
        <ele>209</ele>
        <time>2018-02-20T07:55:02.000Z</time>
      </trkpt>
      <trkpt lat="43.52417" lon="5.50659">
        <ele>209</ele>
        <time>2018-02-20T07:55:03.000Z</time>
      </trkpt>
      <trkpt lat="43.52417" lon="5.50659">
        <ele>209</ele>
        <time>2018-02-20T07:55:04.000Z</time>
      </trkpt>
      <trkpt lat="43.52417" lon="5.50659">
        <ele>209</ele>
        <time>2018-02-20T07:55:05.000Z</time>
      </trkpt>
      <trkpt lat="43.52417" lon="5.50659">
        <ele>209</ele>
        <time>2018-02-20T07:55:06.000Z</time>
      </trkpt>
      <trkpt lat="43.52417" lon="5.50659">
        <ele>209</ele>
        <time>2018-02-20T07:55:07.000Z</time>
      </trkpt>
      <trkpt lat="43.52417" lon="5.50659">
        <ele>210</ele>
        <time>2018-02-20T07:55:08.000Z</time>
      </trkpt>
      <trkpt lat="43.52417" lon="5.50659">
        <ele>210</ele>
        <time>2018-02-20T07:55:09.000Z</time>
      </trkpt>
      <trkpt lat="43.52417" lon="5.50659">
        <ele>210</ele>
        <time>2018-02-20T07:55:10.000Z</time>
      </trkpt>
      <trkpt lat="43.52417" lon="5.50659">
        <ele>210</ele>
        <time>2018-02-20T07:55:11.000Z</time>
      </trkpt>
      <trkpt lat="43.52417" lon="5.50659">
        <ele>210</ele>
        <time>2018-02-20T07:55:12.000Z</time>
      </trkpt>
      <trkpt lat="43.52417" lon="5.50659">
        <ele>210</ele>
        <time>2018-02-20T07:55:13.000Z</time>
      </trkpt>
      <trkpt lat="43.52417" lon="5.50659">
        <ele>210</ele>
        <time>2018-02-20T07:55:14.000Z</time>
      </trkpt>
      <trkpt lat="43.52417" lon="5.50659">
        <ele>210</ele>
        <time>2018-02-20T07:55:15.000Z</time>
      </trkpt>
      <trkpt lat="43.52417" lon="5.50659">
        <ele>210</ele>
        <time>2018-02-20T07:55:16.000Z</time>
      </trkpt>
      <trkpt lat="43.52417" lon="5.50659">
        <ele>210</ele>
        <time>2018-02-20T07:55:17.000Z</time>
      </trkpt>
      <trkpt lat="43.52417" lon="5.50659">
        <ele>210</ele>
        <time>2018-02-20T07:55:18.000Z</time>
      </trkpt>
      <trkpt lat="43.52417" lon="5.50659">
        <ele>210</ele>
        <time>2018-02-20T07:55:19.000Z</time>
      </trkpt>
      <trkpt lat="43.52417" lon="5.50659">
        <ele>210</ele>
        <time>2018-02-20T07:55:20.000Z</time>
      </trkpt>
      <trkpt lat="43.52417" lon="5.50659">
        <ele>210</ele>
        <time>2018-02-20T07:55:21.000Z</time>
      </trkpt>
      <trkpt lat="43.52417" lon="5.50659">
        <ele>210</ele>
        <time>2018-02-20T07:55:22.000Z</time>
      </trkpt>
      <trkpt lat="43.52417" lon="5.50659">
        <ele>210</ele>
        <time>2018-02-20T07:55:23.000Z</time>
      </trkpt>
      <trkpt lat="43.52417" lon="5.50659">
        <ele>210</ele>
        <time>2018-02-20T07:55:24.000Z</time>
      </trkpt>
      <trkpt lat="43.52417" lon="5.50659">
        <ele>210</ele>
        <time>2018-02-20T07:55:25.000Z</time>
      </trkpt>
      <trkpt lat="43.52417" lon="5.50659">
        <ele>210</ele>
        <time>2018-02-20T07:55:26.000Z</time>
      </trkpt>
      <trkpt lat="43.52417" lon="5.50659">
        <ele>210</ele>
        <time>2018-02-20T07:55:27.000Z</time>
      </trkpt>
      <trkpt lat="43.52417" lon="5.50659">
        <ele>210</ele>
        <time>2018-02-20T07:55:28.000Z</time>
      </trkpt>
      <trkpt lat="43.52417" lon="5.50659">
        <ele>210</ele>
        <time>2018-02-20T07:55:29.000Z</time>
      </trkpt>
      <trkpt lat="43.52417" lon="5.50659">
        <ele>210</ele>
        <time>2018-02-20T07:55:30.000Z</time>
      </trkpt>
      <trkpt lat="43.52417" lon="5.50659">
        <ele>210</ele>
        <time>2018-02-20T07:55:31.000Z</time>
      </trkpt>
      <trkpt lat="43.52417" lon="5.50659">
        <ele>210</ele>
        <time>2018-02-20T07:55:32.000Z</time>
      </trkpt>
      <trkpt lat="43.52417" lon="5.50659">
        <ele>210</ele>
        <time>2018-02-20T07:55:33.000Z</time>
      </trkpt>
      <trkpt lat="43.52417" lon="5.50658">
        <ele>210</ele>
        <time>2018-02-20T07:55:34.000Z</time>
      </trkpt>
      <trkpt lat="43.52417" lon="5.50658">
        <ele>210</ele>
        <time>2018-02-20T07:55:35.000Z</time>
      </trkpt>
      <trkpt lat="43.52417" lon="5.50658">
        <ele>210</ele>
        <time>2018-02-20T07:55:36.000Z</time>
      </trkpt>
      <trkpt lat="43.52417" lon="5.50658">
        <ele>211</ele>
        <time>2018-02-20T07:55:37.000Z</time>
      </trkpt>
      <trkpt lat="43.52417" lon="5.50658">
        <ele>211</ele>
        <time>2018-02-20T07:55:38.000Z</time>
      </trkpt>
      <trkpt lat="43.52417" lon="5.50658">
        <ele>211</ele>
        <time>2018-02-20T07:55:39.000Z</time>
      </trkpt>
      <trkpt lat="43.52417" lon="5.50658">
        <ele>211</ele>
        <time>2018-02-20T07:55:40.000Z</time>
      </trkpt>
      <trkpt lat="43.52417" lon="5.50658">
        <ele>211</ele>
        <time>2018-02-20T07:55:41.000Z</time>
      </trkpt>
      <trkpt lat="43.52417" lon="5.50658">
        <ele>211</ele>
        <time>2018-02-20T07:55:42.000Z</time>
      </trkpt>
      <trkpt lat="43.52417" lon="5.50657">
        <ele>211</ele>
        <time>2018-02-20T07:55:43.000Z</time>
      </trkpt>
      <trkpt lat="43.52417" lon="5.50657">
        <ele>211</ele>
        <time>2018-02-20T07:55:44.000Z</time>
      </trkpt>
      <trkpt lat="43.52417" lon="5.50657">
        <ele>211</ele>
        <time>2018-02-20T07:55:45.000Z</time>
      </trkpt>
      <trkpt lat="43.52417" lon="5.50657">
        <ele>211</ele>
        <time>2018-02-20T07:55:46.000Z</time>
      </trkpt>
      <trkpt lat="43.52417" lon="5.50657">
        <ele>211</ele>
        <time>2018-02-20T07:55:47.000Z</time>
      </trkpt>
      <trkpt lat="43.52417" lon="5.50657">
        <ele>211</ele>
        <time>2018-02-20T07:55:48.000Z</time>
      </trkpt>
      <trkpt lat="43.52417" lon="5.50656">
        <ele>211</ele>
        <time>2018-02-20T07:55:49.000Z</time>
      </trkpt>
      <trkpt lat="43.52417" lon="5.50656">
        <ele>211</ele>
        <time>2018-02-20T07:55:50.000Z</time>
      </trkpt>
      <trkpt lat="43.52417" lon="5.50656">
        <ele>211</ele>
        <time>2018-02-20T07:55:51.000Z</time>
      </trkpt>
      <trkpt lat="43.52417" lon="5.50656">
        <ele>211</ele>
        <time>2018-02-20T07:55:52.000Z</time>
      </trkpt>
      <trkpt lat="43.52417" lon="5.50656">
        <ele>211</ele>
        <time>2018-02-20T07:55:53.000Z</time>
      </trkpt>
      <trkpt lat="43.52417" lon="5.50656">
        <ele>211</ele>
        <time>2018-02-20T07:55:54.000Z</time>
      </trkpt>
      <trkpt lat="43.52416" lon="5.50656">
        <ele>211</ele>
        <time>2018-02-20T07:55:55.000Z</time>
      </trkpt>
      <trkpt lat="43.52416" lon="5.50656">
        <ele>211</ele>
        <time>2018-02-20T07:55:56.000Z</time>
      </trkpt>
      <trkpt lat="43.52416" lon="5.50656">
        <ele>211</ele>
        <time>2018-02-20T07:55:57.000Z</time>
      </trkpt>
      <trkpt lat="43.52416" lon="5.50656">
        <ele>211</ele>
        <time>2018-02-20T07:55:58.000Z</time>
      </trkpt>
      <trkpt lat="43.52416" lon="5.50656">
        <ele>211</ele>
        <time>2018-02-20T07:55:59.000Z</time>
      </trkpt>
      <trkpt lat="43.52416" lon="5.50656">
        <ele>211</ele>
        <time>2018-02-20T07:56:00.000Z</time>
      </trkpt>
      <trkpt lat="43.52416" lon="5.50656">
        <ele>211</ele>
        <time>2018-02-20T07:56:01.000Z</time>
      </trkpt>
      <trkpt lat="43.52416" lon="5.50656">
        <ele>211</ele>
        <time>2018-02-20T07:56:02.000Z</time>
      </trkpt>
      <trkpt lat="43.52416" lon="5.50656">
        <ele>211</ele>
        <time>2018-02-20T07:56:03.000Z</time>
      </trkpt>
      <trkpt lat="43.52416" lon="5.50656">
        <ele>211</ele>
        <time>2018-02-20T07:56:04.000Z</time>
      </trkpt>
      <trkpt lat="43.52417" lon="5.50656">
        <ele>211</ele>
        <time>2018-02-20T07:56:05.000Z</time>
      </trkpt>
      <trkpt lat="43.52417" lon="5.50657">
        <ele>211</ele>
        <time>2018-02-20T07:56:06.000Z</time>
      </trkpt>
      <trkpt lat="43.52417" lon="5.50658">
        <ele>211</ele>
        <time>2018-02-20T07:56:07.000Z</time>
      </trkpt>
      <trkpt lat="43.52418" lon="5.50659">
        <ele>211</ele>
        <time>2018-02-20T07:56:08.000Z</time>
      </trkpt>
      <trkpt lat="43.52419" lon="5.5066">
        <ele>211</ele>
        <time>2018-02-20T07:56:09.000Z</time>
      </trkpt>
      <trkpt lat="43.52419" lon="5.50661">
        <ele>211</ele>
        <time>2018-02-20T07:56:10.000Z</time>
      </trkpt>
      <trkpt lat="43.5242" lon="5.50662">
        <ele>211</ele>
        <time>2018-02-20T07:56:11.000Z</time>
      </trkpt>
      <trkpt lat="43.52421" lon="5.50662">
        <ele>211</ele>
        <time>2018-02-20T07:56:12.000Z</time>
      </trkpt>
      <trkpt lat="43.52423" lon="5.50664">
        <ele>210</ele>
        <time>2018-02-20T07:56:13.000Z</time>
      </trkpt>
      <trkpt lat="43.52423" lon="5.50664">
        <ele>210</ele>
        <time>2018-02-20T07:56:14.000Z</time>
      </trkpt>
      <trkpt lat="43.52424" lon="5.50665">
        <ele>210</ele>
        <time>2018-02-20T07:56:15.000Z</time>
      </trkpt>
      <trkpt lat="43.52426" lon="5.50666">
        <ele>210</ele>
        <time>2018-02-20T07:56:16.000Z</time>
      </trkpt>
      <trkpt lat="43.52427" lon="5.50666">
        <ele>210</ele>
        <time>2018-02-20T07:56:17.000Z</time>
      </trkpt>
      <trkpt lat="43.52428" lon="5.50666">
        <ele>210</ele>
        <time>2018-02-20T07:56:18.000Z</time>
      </trkpt>
      <trkpt lat="43.52429" lon="5.50667">
        <ele>210</ele>
        <time>2018-02-20T07:56:19.000Z</time>
      </trkpt>
      <trkpt lat="43.5243" lon="5.50667">
        <ele>210</ele>
        <time>2018-02-20T07:56:20.000Z</time>
      </trkpt>
      <trkpt lat="43.52431" lon="5.50669">
        <ele>210</ele>
        <time>2018-02-20T07:56:21.000Z</time>
      </trkpt>
      <trkpt lat="43.52431" lon="5.50669">
        <ele>209</ele>
        <time>2018-02-20T07:56:22.000Z</time>
      </trkpt>
      <trkpt lat="43.52432" lon="5.5067">
        <ele>209</ele>
        <time>2018-02-20T07:56:23.000Z</time>
      </trkpt>
      <trkpt lat="43.52433" lon="5.5067">
        <ele>209</ele>
        <time>2018-02-20T07:56:24.000Z</time>
      </trkpt>
      <trkpt lat="43.52434" lon="5.50671">
        <ele>209</ele>
        <time>2018-02-20T07:56:25.000Z</time>
      </trkpt>
      <trkpt lat="43.52435" lon="5.50672">
        <ele>209</ele>
        <time>2018-02-20T07:56:26.000Z</time>
      </trkpt>
      <trkpt lat="43.52437" lon="5.50672">
        <ele>209</ele>
        <time>2018-02-20T07:56:27.000Z</time>
      </trkpt>
      <trkpt lat="43.52438" lon="5.50672">
        <ele>209</ele>
        <time>2018-02-20T07:56:28.000Z</time>
      </trkpt>
      <trkpt lat="43.52439" lon="5.50672">
        <ele>209</ele>
        <time>2018-02-20T07:56:29.000Z</time>
      </trkpt>
      <trkpt lat="43.5244" lon="5.50673">
        <ele>209</ele>
        <time>2018-02-20T07:56:30.000Z</time>
      </trkpt>
      <trkpt lat="43.52441" lon="5.50674">
        <ele>209</ele>
        <time>2018-02-20T07:56:31.000Z</time>
      </trkpt>
      <trkpt lat="43.52442" lon="5.50674">
        <ele>209</ele>
        <time>2018-02-20T07:56:32.000Z</time>
      </trkpt>
      <trkpt lat="43.52443" lon="5.50675">
        <ele>209</ele>
        <time>2018-02-20T07:56:33.000Z</time>
      </trkpt>
      <trkpt lat="43.52444" lon="5.50675">
        <ele>209</ele>
        <time>2018-02-20T07:56:34.000Z</time>
      </trkpt>
      <trkpt lat="43.52445" lon="5.50676">
        <ele>209</ele>
        <time>2018-02-20T07:56:35.000Z</time>
      </trkpt>
      <trkpt lat="43.52446" lon="5.50676">
        <ele>209</ele>
        <time>2018-02-20T07:56:36.000Z</time>
      </trkpt>
      <trkpt lat="43.52447" lon="5.50677">
        <ele>209</ele>
        <time>2018-02-20T07:56:37.000Z</time>
      </trkpt>
      <trkpt lat="43.52447" lon="5.50678">
        <ele>209</ele>
        <time>2018-02-20T07:56:38.000Z</time>
      </trkpt>
      <trkpt lat="43.52448" lon="5.50678">
        <ele>209</ele>
        <time>2018-02-20T07:56:39.000Z</time>
      </trkpt>
      <trkpt lat="43.52449" lon="5.50679">
        <ele>209</ele>
        <time>2018-02-20T07:56:40.000Z</time>
      </trkpt>
      <trkpt lat="43.5245" lon="5.50679">
        <ele>209</ele>
        <time>2018-02-20T07:56:41.000Z</time>
      </trkpt>
      <trkpt lat="43.52451" lon="5.50679">
        <ele>209</ele>
        <time>2018-02-20T07:56:42.000Z</time>
      </trkpt>
      <trkpt lat="43.52452" lon="5.50679">
        <ele>209</ele>
        <time>2018-02-20T07:56:43.000Z</time>
      </trkpt>
      <trkpt lat="43.52453" lon="5.5068">
        <ele>209</ele>
        <time>2018-02-20T07:56:44.000Z</time>
      </trkpt>
      <trkpt lat="43.52454" lon="5.5068">
        <ele>209</ele>
        <time>2018-02-20T07:56:45.000Z</time>
      </trkpt>
      <trkpt lat="43.52454" lon="5.5068">
        <ele>209</ele>
        <time>2018-02-20T07:56:46.000Z</time>
      </trkpt>
      <trkpt lat="43.52455" lon="5.50681">
        <ele>209</ele>
        <time>2018-02-20T07:56:47.000Z</time>
      </trkpt>
      <trkpt lat="43.52456" lon="5.50681">
        <ele>209</ele>
        <time>2018-02-20T07:56:48.000Z</time>
      </trkpt>
      <trkpt lat="43.52457" lon="5.50681">
        <ele>209</ele>
        <time>2018-02-20T07:56:49.000Z</time>
      </trkpt>
      <trkpt lat="43.52458" lon="5.50681">
        <ele>209</ele>
        <time>2018-02-20T07:56:50.000Z</time>
      </trkpt>
      <trkpt lat="43.52459" lon="5.50681">
        <ele>209</ele>
        <time>2018-02-20T07:56:51.000Z</time>
      </trkpt>
      <trkpt lat="43.5246" lon="5.50682">
        <ele>209</ele>
        <time>2018-02-20T07:56:52.000Z</time>
      </trkpt>
      <trkpt lat="43.5246" lon="5.50683">
        <ele>209</ele>
        <time>2018-02-20T07:56:53.000Z</time>
      </trkpt>
      <trkpt lat="43.52461" lon="5.50683">
        <ele>209</ele>
        <time>2018-02-20T07:56:54.000Z</time>
      </trkpt>
      <trkpt lat="43.52462" lon="5.50683">
        <ele>209</ele>
        <time>2018-02-20T07:56:55.000Z</time>
      </trkpt>
      <trkpt lat="43.52463" lon="5.50684">
        <ele>209</ele>
        <time>2018-02-20T07:56:56.000Z</time>
      </trkpt>
      <trkpt lat="43.52464" lon="5.50684">
        <ele>209</ele>
        <time>2018-02-20T07:56:57.000Z</time>
      </trkpt>
      <trkpt lat="43.52464" lon="5.50684">
        <ele>209</ele>
        <time>2018-02-20T07:56:58.000Z</time>
      </trkpt>
      <trkpt lat="43.52465" lon="5.50685">
        <ele>209</ele>
        <time>2018-02-20T07:56:59.000Z</time>
      </trkpt>
      <trkpt lat="43.52466" lon="5.50685">
        <ele>209</ele>
        <time>2018-02-20T07:57:00.000Z</time>
      </trkpt>
      <trkpt lat="43.52467" lon="5.50685">
        <ele>209</ele>
        <time>2018-02-20T07:57:01.000Z</time>
      </trkpt>
      <trkpt lat="43.52468" lon="5.50685">
        <ele>209</ele>
        <time>2018-02-20T07:57:02.000Z</time>
      </trkpt>
      <trkpt lat="43.52469" lon="5.50686">
        <ele>209</ele>
        <time>2018-02-20T07:57:03.000Z</time>
      </trkpt>
      <trkpt lat="43.5247" lon="5.50686">
        <ele>209</ele>
        <time>2018-02-20T07:57:04.000Z</time>
      </trkpt>
      <trkpt lat="43.5247" lon="5.50687">
        <ele>209</ele>
        <time>2018-02-20T07:57:05.000Z</time>
      </trkpt>
      <trkpt lat="43.52471" lon="5.50687">
        <ele>209</ele>
        <time>2018-02-20T07:57:06.000Z</time>
      </trkpt>
      <trkpt lat="43.52472" lon="5.50688">
        <ele>210</ele>
        <time>2018-02-20T07:57:07.000Z</time>
      </trkpt>
      <trkpt lat="43.52472" lon="5.50689">
        <ele>210</ele>
        <time>2018-02-20T07:57:08.000Z</time>
      </trkpt>
      <trkpt lat="43.52473" lon="5.5069">
        <ele>210</ele>
        <time>2018-02-20T07:57:09.000Z</time>
      </trkpt>
      <trkpt lat="43.52473" lon="5.50691">
        <ele>210</ele>
        <time>2018-02-20T07:57:10.000Z</time>
      </trkpt>
      <trkpt lat="43.52474" lon="5.50692">
        <ele>211</ele>
        <time>2018-02-20T07:57:11.000Z</time>
      </trkpt>
      <trkpt lat="43.52474" lon="5.50693">
        <ele>211</ele>
        <time>2018-02-20T07:57:12.000Z</time>
      </trkpt>
      <trkpt lat="43.52475" lon="5.50694">
        <ele>211</ele>
        <time>2018-02-20T07:57:13.000Z</time>
      </trkpt>
      <trkpt lat="43.52475" lon="5.50695">
        <ele>211</ele>
        <time>2018-02-20T07:57:14.000Z</time>
      </trkpt>
      <trkpt lat="43.52475" lon="5.50695">
        <ele>211</ele>
        <time>2018-02-20T07:57:15.000Z</time>
      </trkpt>
      <trkpt lat="43.52475" lon="5.50695">
        <ele>212</ele>
        <time>2018-02-20T07:57:16.000Z</time>
      </trkpt>
      <trkpt lat="43.52475" lon="5.50695">
        <ele>212</ele>
        <time>2018-02-20T07:57:17.000Z</time>
      </trkpt>
      <trkpt lat="43.52475" lon="5.50695">
        <ele>212</ele>
        <time>2018-02-20T07:57:18.000Z</time>
      </trkpt>
      <trkpt lat="43.52475" lon="5.50695">
        <ele>212</ele>
        <time>2018-02-20T07:57:19.000Z</time>
      </trkpt>
      <trkpt lat="43.52475" lon="5.50695">
        <ele>212</ele>
        <time>2018-02-20T07:57:20.000Z</time>
      </trkpt>
      <trkpt lat="43.52475" lon="5.50695">
        <ele>212</ele>
        <time>2018-02-20T07:57:21.000Z</time>
      </trkpt>
      <trkpt lat="43.52475" lon="5.50695">
        <ele>212</ele>
        <time>2018-02-20T07:57:22.000Z</time>
      </trkpt>
      <trkpt lat="43.52476" lon="5.50696">
        <ele>212</ele>
        <time>2018-02-20T07:57:23.000Z</time>
      </trkpt>
      <trkpt lat="43.52476" lon="5.50697">
        <ele>212</ele>
        <time>2018-02-20T07:57:24.000Z</time>
      </trkpt>
      <trkpt lat="43.52477" lon="5.50698">
        <ele>213</ele>
        <time>2018-02-20T07:57:25.000Z</time>
      </trkpt>
      <trkpt lat="43.52477" lon="5.50699">
        <ele>213</ele>
        <time>2018-02-20T07:57:26.000Z</time>
      </trkpt>
      <trkpt lat="43.52478" lon="5.507">
        <ele>213</ele>
        <time>2018-02-20T07:57:27.000Z</time>
      </trkpt>
      <trkpt lat="43.52478" lon="5.50701">
        <ele>213</ele>
        <time>2018-02-20T07:57:28.000Z</time>
      </trkpt>
      <trkpt lat="43.52479" lon="5.50702">
        <ele>213</ele>
        <time>2018-02-20T07:57:29.000Z</time>
      </trkpt>
      <trkpt lat="43.52479" lon="5.50703">
        <ele>213</ele>
        <time>2018-02-20T07:57:30.000Z</time>
      </trkpt>
      <trkpt lat="43.52479" lon="5.50704">
        <ele>214</ele>
        <time>2018-02-20T07:57:31.000Z</time>
      </trkpt>
      <trkpt lat="43.52479" lon="5.50706">
        <ele>214</ele>
        <time>2018-02-20T07:57:32.000Z</time>
      </trkpt>
      <trkpt lat="43.52479" lon="5.50707">
        <ele>214</ele>
        <time>2018-02-20T07:57:33.000Z</time>
      </trkpt>
      <trkpt lat="43.52479" lon="5.50708">
        <ele>214</ele>
        <time>2018-02-20T07:57:34.000Z</time>
      </trkpt>
      <trkpt lat="43.52479" lon="5.50709">
        <ele>214</ele>
        <time>2018-02-20T07:57:35.000Z</time>
      </trkpt>
      <trkpt lat="43.52479" lon="5.5071">
        <ele>214</ele>
        <time>2018-02-20T07:57:36.000Z</time>
      </trkpt>
      <trkpt lat="43.52479" lon="5.50711">
        <ele>214</ele>
        <time>2018-02-20T07:57:37.000Z</time>
      </trkpt>
      <trkpt lat="43.52478" lon="5.50713">
        <ele>214</ele>
        <time>2018-02-20T07:57:38.000Z</time>
      </trkpt>
      <trkpt lat="43.52478" lon="5.50714">
        <ele>214</ele>
        <time>2018-02-20T07:57:39.000Z</time>
      </trkpt>
      <trkpt lat="43.52478" lon="5.50715">
        <ele>214</ele>
        <time>2018-02-20T07:57:40.000Z</time>
      </trkpt>
      <trkpt lat="43.52478" lon="5.50716">
        <ele>215</ele>
        <time>2018-02-20T07:57:41.000Z</time>
      </trkpt>
      <trkpt lat="43.52478" lon="5.50718">
        <ele>215</ele>
        <time>2018-02-20T07:57:42.000Z</time>
      </trkpt>
      <trkpt lat="43.52478" lon="5.50719">
        <ele>215</ele>
        <time>2018-02-20T07:57:43.000Z</time>
      </trkpt>
      <trkpt lat="43.52478" lon="5.5072">
        <ele>215</ele>
        <time>2018-02-20T07:57:44.000Z</time>
      </trkpt>
      <trkpt lat="43.52478" lon="5.50721">
        <ele>215</ele>
        <time>2018-02-20T07:57:45.000Z</time>
      </trkpt>
      <trkpt lat="43.52478" lon="5.50723">
        <ele>215</ele>
        <time>2018-02-20T07:57:46.000Z</time>
      </trkpt>
      <trkpt lat="43.52478" lon="5.50724">
        <ele>215</ele>
        <time>2018-02-20T07:57:47.000Z</time>
      </trkpt>
      <trkpt lat="43.52478" lon="5.50726">
        <ele>216</ele>
        <time>2018-02-20T07:57:48.000Z</time>
      </trkpt>
      <trkpt lat="43.52478" lon="5.50727">
        <ele>216</ele>
        <time>2018-02-20T07:57:49.000Z</time>
      </trkpt>
      <trkpt lat="43.52478" lon="5.50728">
        <ele>216</ele>
        <time>2018-02-20T07:57:50.000Z</time>
      </trkpt>
      <trkpt lat="43.52478" lon="5.5073">
        <ele>216</ele>
        <time>2018-02-20T07:57:51.000Z</time>
      </trkpt>
      <trkpt lat="43.52478" lon="5.50731">
        <ele>216</ele>
        <time>2018-02-20T07:57:52.000Z</time>
      </trkpt>
      <trkpt lat="43.52477" lon="5.50732">
        <ele>216</ele>
        <time>2018-02-20T07:57:53.000Z</time>
      </trkpt>
      <trkpt lat="43.52477" lon="5.50734">
        <ele>216</ele>
        <time>2018-02-20T07:57:54.000Z</time>
      </trkpt>
      <trkpt lat="43.52477" lon="5.50735">
        <ele>216</ele>
        <time>2018-02-20T07:57:55.000Z</time>
      </trkpt>
      <trkpt lat="43.52477" lon="5.50737">
        <ele>216</ele>
        <time>2018-02-20T07:57:56.000Z</time>
      </trkpt>
      <trkpt lat="43.52477" lon="5.50739">
        <ele>216</ele>
        <time>2018-02-20T07:57:57.000Z</time>
      </trkpt>
      <trkpt lat="43.52477" lon="5.5074">
        <ele>217</ele>
        <time>2018-02-20T07:57:58.000Z</time>
      </trkpt>
      <trkpt lat="43.52476" lon="5.50742">
        <ele>217</ele>
        <time>2018-02-20T07:57:59.000Z</time>
      </trkpt>
      <trkpt lat="43.52476" lon="5.50743">
        <ele>217</ele>
        <time>2018-02-20T07:58:00.000Z</time>
      </trkpt>
      <trkpt lat="43.52476" lon="5.50745">
        <ele>217</ele>
        <time>2018-02-20T07:58:01.000Z</time>
      </trkpt>
      <trkpt lat="43.52476" lon="5.50747">
        <ele>217</ele>
        <time>2018-02-20T07:58:02.000Z</time>
      </trkpt>
      <trkpt lat="43.52476" lon="5.50748">
        <ele>216</ele>
        <time>2018-02-20T07:58:03.000Z</time>
      </trkpt>
      <trkpt lat="43.52475" lon="5.5075">
        <ele>216</ele>
        <time>2018-02-20T07:58:04.000Z</time>
      </trkpt>
      <trkpt lat="43.52475" lon="5.50751">
        <ele>216</ele>
        <time>2018-02-20T07:58:05.000Z</time>
      </trkpt>
      <trkpt lat="43.52475" lon="5.50752">
        <ele>216</ele>
        <time>2018-02-20T07:58:06.000Z</time>
      </trkpt>
      <trkpt lat="43.52474" lon="5.50754">
        <ele>217</ele>
        <time>2018-02-20T07:58:07.000Z</time>
      </trkpt>
      <trkpt lat="43.52474" lon="5.50755">
        <ele>217</ele>
        <time>2018-02-20T07:58:08.000Z</time>
      </trkpt>
      <trkpt lat="43.52473" lon="5.50756">
        <ele>217</ele>
        <time>2018-02-20T07:58:09.000Z</time>
      </trkpt>
      <trkpt lat="43.52473" lon="5.50758">
        <ele>217</ele>
        <time>2018-02-20T07:58:10.000Z</time>
      </trkpt>
      <trkpt lat="43.52473" lon="5.50759">
        <ele>217</ele>
        <time>2018-02-20T07:58:11.000Z</time>
      </trkpt>
      <trkpt lat="43.52473" lon="5.50761">
        <ele>217</ele>
        <time>2018-02-20T07:58:12.000Z</time>
      </trkpt>
      <trkpt lat="43.52473" lon="5.50762">
        <ele>217</ele>
        <time>2018-02-20T07:58:13.000Z</time>
      </trkpt>
      <trkpt lat="43.52473" lon="5.50763">
        <ele>217</ele>
        <time>2018-02-20T07:58:14.000Z</time>
      </trkpt>
      <trkpt lat="43.52473" lon="5.50765">
        <ele>217</ele>
        <time>2018-02-20T07:58:15.000Z</time>
      </trkpt>
      <trkpt lat="43.52472" lon="5.50766">
        <ele>217</ele>
        <time>2018-02-20T07:58:16.000Z</time>
      </trkpt>
      <trkpt lat="43.52472" lon="5.50767">
        <ele>217</ele>
        <time>2018-02-20T07:58:17.000Z</time>
      </trkpt>
      <trkpt lat="43.52472" lon="5.50768">
        <ele>218</ele>
        <time>2018-02-20T07:58:18.000Z</time>
      </trkpt>
      <trkpt lat="43.52472" lon="5.5077">
        <ele>218</ele>
        <time>2018-02-20T07:58:19.000Z</time>
      </trkpt>
      <trkpt lat="43.52471" lon="5.50771">
        <ele>218</ele>
        <time>2018-02-20T07:58:20.000Z</time>
      </trkpt>
      <trkpt lat="43.52471" lon="5.50772">
        <ele>218</ele>
        <time>2018-02-20T07:58:21.000Z</time>
      </trkpt>
      <trkpt lat="43.52471" lon="5.50774">
        <ele>218</ele>
        <time>2018-02-20T07:58:22.000Z</time>
      </trkpt>
      <trkpt lat="43.52471" lon="5.50775">
        <ele>218</ele>
        <time>2018-02-20T07:58:23.000Z</time>
      </trkpt>
      <trkpt lat="43.5247" lon="5.50776">
        <ele>218</ele>
        <time>2018-02-20T07:58:24.000Z</time>
      </trkpt>
      <trkpt lat="43.5247" lon="5.50777">
        <ele>218</ele>
        <time>2018-02-20T07:58:25.000Z</time>
      </trkpt>
      <trkpt lat="43.5247" lon="5.50779">
        <ele>218</ele>
        <time>2018-02-20T07:58:26.000Z</time>
      </trkpt>
      <trkpt lat="43.5247" lon="5.5078">
        <ele>218</ele>
        <time>2018-02-20T07:58:27.000Z</time>
      </trkpt>
      <trkpt lat="43.5247" lon="5.50781">
        <ele>218</ele>
        <time>2018-02-20T07:58:28.000Z</time>
      </trkpt>
      <trkpt lat="43.52469" lon="5.50782">
        <ele>218</ele>
        <time>2018-02-20T07:58:29.000Z</time>
      </trkpt>
      <trkpt lat="43.52469" lon="5.50783">
        <ele>218</ele>
        <time>2018-02-20T07:58:30.000Z</time>
      </trkpt>
      <trkpt lat="43.52469" lon="5.50784">
        <ele>218</ele>
        <time>2018-02-20T07:58:31.000Z</time>
      </trkpt>
      <trkpt lat="43.52469" lon="5.50785">
        <ele>218</ele>
        <time>2018-02-20T07:58:32.000Z</time>
      </trkpt>
      <trkpt lat="43.52469" lon="5.50787">
        <ele>218</ele>
        <time>2018-02-20T07:58:33.000Z</time>
      </trkpt>
      <trkpt lat="43.52469" lon="5.50788">
        <ele>218</ele>
        <time>2018-02-20T07:58:34.000Z</time>
      </trkpt>
      <trkpt lat="43.52469" lon="5.50789">
        <ele>218</ele>
        <time>2018-02-20T07:58:35.000Z</time>
      </trkpt>
      <trkpt lat="43.52469" lon="5.5079">
        <ele>218</ele>
        <time>2018-02-20T07:58:36.000Z</time>
      </trkpt>
      <trkpt lat="43.5247" lon="5.50791">
        <ele>218</ele>
        <time>2018-02-20T07:58:37.000Z</time>
      </trkpt>
      <trkpt lat="43.5247" lon="5.50792">
        <ele>218</ele>
        <time>2018-02-20T07:58:38.000Z</time>
      </trkpt>
      <trkpt lat="43.5247" lon="5.50794">
        <ele>218</ele>
        <time>2018-02-20T07:58:39.000Z</time>
      </trkpt>
      <trkpt lat="43.52471" lon="5.50795">
        <ele>218</ele>
        <time>2018-02-20T07:58:40.000Z</time>
      </trkpt>
      <trkpt lat="43.52471" lon="5.50796">
        <ele>218</ele>
        <time>2018-02-20T07:58:41.000Z</time>
      </trkpt>
      <trkpt lat="43.52472" lon="5.50797">
        <ele>218</ele>
        <time>2018-02-20T07:58:42.000Z</time>
      </trkpt>
      <trkpt lat="43.52472" lon="5.50798">
        <ele>218</ele>
        <time>2018-02-20T07:58:43.000Z</time>
      </trkpt>
      <trkpt lat="43.52472" lon="5.50799">
        <ele>218</ele>
        <time>2018-02-20T07:58:44.000Z</time>
      </trkpt>
      <trkpt lat="43.52473" lon="5.508">
        <ele>218</ele>
        <time>2018-02-20T07:58:45.000Z</time>
      </trkpt>
      <trkpt lat="43.52473" lon="5.50801">
        <ele>218</ele>
        <time>2018-02-20T07:58:46.000Z</time>
      </trkpt>
      <trkpt lat="43.52474" lon="5.50802">
        <ele>218</ele>
        <time>2018-02-20T07:58:47.000Z</time>
      </trkpt>
      <trkpt lat="43.52474" lon="5.50803">
        <ele>218</ele>
        <time>2018-02-20T07:58:48.000Z</time>
      </trkpt>
      <trkpt lat="43.52474" lon="5.50804">
        <ele>218</ele>
        <time>2018-02-20T07:58:49.000Z</time>
      </trkpt>
      <trkpt lat="43.52474" lon="5.50804">
        <ele>218</ele>
        <time>2018-02-20T07:58:50.000Z</time>
      </trkpt>
      <trkpt lat="43.52474" lon="5.50805">
        <ele>218</ele>
        <time>2018-02-20T07:58:51.000Z</time>
      </trkpt>
      <trkpt lat="43.52474" lon="5.50805">
        <ele>219</ele>
        <time>2018-02-20T07:58:52.000Z</time>
      </trkpt>
      <trkpt lat="43.52474" lon="5.50805">
        <ele>219</ele>
        <time>2018-02-20T07:58:53.000Z</time>
      </trkpt>
      <trkpt lat="43.52474" lon="5.50805">
        <ele>219</ele>
        <time>2018-02-20T07:58:54.000Z</time>
      </trkpt>
      <trkpt lat="43.52473" lon="5.50805">
        <ele>219</ele>
        <time>2018-02-20T07:58:55.000Z</time>
      </trkpt>
      <trkpt lat="43.52473" lon="5.50806">
        <ele>219</ele>
        <time>2018-02-20T07:58:56.000Z</time>
      </trkpt>
      <trkpt lat="43.52473" lon="5.50806">
        <ele>219</ele>
        <time>2018-02-20T07:58:57.000Z</time>
      </trkpt>
      <trkpt lat="43.52473" lon="5.50807">
        <ele>219</ele>
        <time>2018-02-20T07:58:58.000Z</time>
      </trkpt>
      <trkpt lat="43.52473" lon="5.50807">
        <ele>220</ele>
        <time>2018-02-20T07:58:59.000Z</time>
      </trkpt>
      <trkpt lat="43.52473" lon="5.50807">
        <ele>220</ele>
        <time>2018-02-20T07:59:00.000Z</time>
      </trkpt>
      <trkpt lat="43.52473" lon="5.50807">
        <ele>220</ele>
        <time>2018-02-20T07:59:01.000Z</time>
      </trkpt>
      <trkpt lat="43.52473" lon="5.50807">
        <ele>220</ele>
        <time>2018-02-20T07:59:02.000Z</time>
      </trkpt>
      <trkpt lat="43.52473" lon="5.50807">
        <ele>220</ele>
        <time>2018-02-20T07:59:03.000Z</time>
      </trkpt>
      <trkpt lat="43.52473" lon="5.50807">
        <ele>220</ele>
        <time>2018-02-20T07:59:04.000Z</time>
      </trkpt>
      <trkpt lat="43.52473" lon="5.50807">
        <ele>220</ele>
        <time>2018-02-20T07:59:05.000Z</time>
      </trkpt>
      <trkpt lat="43.52473" lon="5.50807">
        <ele>221</ele>
        <time>2018-02-20T07:59:06.000Z</time>
      </trkpt>
      <trkpt lat="43.52473" lon="5.50807">
        <ele>221</ele>
        <time>2018-02-20T07:59:07.000Z</time>
      </trkpt>
      <trkpt lat="43.52473" lon="5.50807">
        <ele>221</ele>
        <time>2018-02-20T07:59:08.000Z</time>
      </trkpt>
      <trkpt lat="43.52474" lon="5.50807">
        <ele>221</ele>
        <time>2018-02-20T07:59:09.000Z</time>
      </trkpt>
      <trkpt lat="43.52474" lon="5.50807">
        <ele>221</ele>
        <time>2018-02-20T07:59:10.000Z</time>
      </trkpt>
      <trkpt lat="43.52475" lon="5.50808">
        <ele>221</ele>
        <time>2018-02-20T07:59:11.000Z</time>
      </trkpt>
      <trkpt lat="43.52475" lon="5.50808">
        <ele>222</ele>
        <time>2018-02-20T07:59:12.000Z</time>
      </trkpt>
      <trkpt lat="43.52476" lon="5.50809">
        <ele>222</ele>
        <time>2018-02-20T07:59:13.000Z</time>
      </trkpt>
      <trkpt lat="43.52477" lon="5.50809">
        <ele>222</ele>
        <time>2018-02-20T07:59:14.000Z</time>
      </trkpt>
      <trkpt lat="43.52477" lon="5.5081">
        <ele>222</ele>
        <time>2018-02-20T07:59:15.000Z</time>
      </trkpt>
      <trkpt lat="43.52478" lon="5.50811">
        <ele>223</ele>
        <time>2018-02-20T07:59:16.000Z</time>
      </trkpt>
      <trkpt lat="43.52479" lon="5.50812">
        <ele>223</ele>
        <time>2018-02-20T07:59:17.000Z</time>
      </trkpt>
      <trkpt lat="43.52479" lon="5.50814">
        <ele>223</ele>
        <time>2018-02-20T07:59:18.000Z</time>
      </trkpt>
      <trkpt lat="43.5248" lon="5.50815">
        <ele>223</ele>
        <time>2018-02-20T07:59:19.000Z</time>
      </trkpt>
      <trkpt lat="43.52481" lon="5.50816">
        <ele>223</ele>
        <time>2018-02-20T07:59:20.000Z</time>
      </trkpt>
      <trkpt lat="43.52481" lon="5.50817">
        <ele>223</ele>
        <time>2018-02-20T07:59:21.000Z</time>
      </trkpt>
      <trkpt lat="43.52482" lon="5.50818">
        <ele>223</ele>
        <time>2018-02-20T07:59:22.000Z</time>
      </trkpt>
      <trkpt lat="43.52482" lon="5.50819">
        <ele>223</ele>
        <time>2018-02-20T07:59:23.000Z</time>
      </trkpt>
      <trkpt lat="43.52483" lon="5.5082">
        <ele>223</ele>
        <time>2018-02-20T07:59:24.000Z</time>
      </trkpt>
      <trkpt lat="43.52483" lon="5.50821">
        <ele>224</ele>
        <time>2018-02-20T07:59:25.000Z</time>
      </trkpt>
      <trkpt lat="43.52483" lon="5.50822">
        <ele>224</ele>
        <time>2018-02-20T07:59:26.000Z</time>
      </trkpt>
      <trkpt lat="43.52484" lon="5.50823">
        <ele>224</ele>
        <time>2018-02-20T07:59:27.000Z</time>
      </trkpt>
      <trkpt lat="43.52485" lon="5.50824">
        <ele>224</ele>
        <time>2018-02-20T07:59:28.000Z</time>
      </trkpt>
      <trkpt lat="43.52485" lon="5.50825">
        <ele>224</ele>
        <time>2018-02-20T07:59:29.000Z</time>
      </trkpt>
      <trkpt lat="43.52486" lon="5.50826">
        <ele>224</ele>
        <time>2018-02-20T07:59:30.000Z</time>
      </trkpt>
      <trkpt lat="43.52486" lon="5.50827">
        <ele>224</ele>
        <time>2018-02-20T07:59:31.000Z</time>
      </trkpt>
      <trkpt lat="43.52487" lon="5.50828">
        <ele>224</ele>
        <time>2018-02-20T07:59:32.000Z</time>
      </trkpt>
      <trkpt lat="43.52488" lon="5.50829">
        <ele>224</ele>
        <time>2018-02-20T07:59:33.000Z</time>
      </trkpt>
      <trkpt lat="43.52489" lon="5.5083">
        <ele>224</ele>
        <time>2018-02-20T07:59:34.000Z</time>
      </trkpt>
      <trkpt lat="43.52489" lon="5.50831">
        <ele>223</ele>
        <time>2018-02-20T07:59:35.000Z</time>
      </trkpt>
      <trkpt lat="43.5249" lon="5.50832">
        <ele>223</ele>
        <time>2018-02-20T07:59:36.000Z</time>
      </trkpt>
      <trkpt lat="43.5249" lon="5.50833">
        <ele>223</ele>
        <time>2018-02-20T07:59:37.000Z</time>
      </trkpt>
      <trkpt lat="43.52491" lon="5.50834">
        <ele>223</ele>
        <time>2018-02-20T07:59:38.000Z</time>
      </trkpt>
      <trkpt lat="43.52491" lon="5.50835">
        <ele>223</ele>
        <time>2018-02-20T07:59:39.000Z</time>
      </trkpt>
      <trkpt lat="43.52492" lon="5.50836">
        <ele>223</ele>
        <time>2018-02-20T07:59:40.000Z</time>
      </trkpt>
      <trkpt lat="43.52492" lon="5.50837">
        <ele>223</ele>
        <time>2018-02-20T07:59:41.000Z</time>
      </trkpt>
      <trkpt lat="43.52493" lon="5.50838">
        <ele>223</ele>
        <time>2018-02-20T07:59:42.000Z</time>
      </trkpt>
      <trkpt lat="43.52493" lon="5.50839">
        <ele>223</ele>
        <time>2018-02-20T07:59:43.000Z</time>
      </trkpt>
      <trkpt lat="43.52494" lon="5.5084">
        <ele>223</ele>
        <time>2018-02-20T07:59:44.000Z</time>
      </trkpt>
      <trkpt lat="43.52494" lon="5.50842">
        <ele>223</ele>
        <time>2018-02-20T07:59:45.000Z</time>
      </trkpt>
      <trkpt lat="43.52495" lon="5.50843">
        <ele>223</ele>
        <time>2018-02-20T07:59:46.000Z</time>
      </trkpt>
      <trkpt lat="43.52495" lon="5.50844">
        <ele>223</ele>
        <time>2018-02-20T07:59:47.000Z</time>
      </trkpt>
      <trkpt lat="43.52496" lon="5.50845">
        <ele>223</ele>
        <time>2018-02-20T07:59:48.000Z</time>
      </trkpt>
      <trkpt lat="43.52496" lon="5.50846">
        <ele>223</ele>
        <time>2018-02-20T07:59:49.000Z</time>
      </trkpt>
      <trkpt lat="43.52496" lon="5.50848">
        <ele>222</ele>
        <time>2018-02-20T07:59:50.000Z</time>
      </trkpt>
      <trkpt lat="43.52496" lon="5.50849">
        <ele>222</ele>
        <time>2018-02-20T07:59:51.000Z</time>
      </trkpt>
      <trkpt lat="43.52497" lon="5.5085">
        <ele>222</ele>
        <time>2018-02-20T07:59:52.000Z</time>
      </trkpt>
      <trkpt lat="43.52497" lon="5.50852">
        <ele>222</ele>
        <time>2018-02-20T07:59:53.000Z</time>
      </trkpt>
      <trkpt lat="43.52497" lon="5.50853">
        <ele>222</ele>
        <time>2018-02-20T07:59:54.000Z</time>
      </trkpt>
      <trkpt lat="43.52497" lon="5.50854">
        <ele>222</ele>
        <time>2018-02-20T07:59:55.000Z</time>
      </trkpt>
      <trkpt lat="43.52498" lon="5.50856">
        <ele>222</ele>
        <time>2018-02-20T07:59:56.000Z</time>
      </trkpt>
      <trkpt lat="43.52498" lon="5.50857">
        <ele>222</ele>
        <time>2018-02-20T07:59:57.000Z</time>
      </trkpt>
      <trkpt lat="43.52498" lon="5.50859">
        <ele>222</ele>
        <time>2018-02-20T07:59:58.000Z</time>
      </trkpt>
      <trkpt lat="43.52498" lon="5.5086">
        <ele>222</ele>
        <time>2018-02-20T07:59:59.000Z</time>
      </trkpt>
      <trkpt lat="43.52499" lon="5.50862">
        <ele>222</ele>
        <time>2018-02-20T08:00:00.000Z</time>
      </trkpt>
      <trkpt lat="43.52499" lon="5.50863">
        <ele>222</ele>
        <time>2018-02-20T08:00:01.000Z</time>
      </trkpt>
      <trkpt lat="43.52499" lon="5.50864">
        <ele>222</ele>
        <time>2018-02-20T08:00:02.000Z</time>
      </trkpt>
      <trkpt lat="43.52499" lon="5.50866">
        <ele>222</ele>
        <time>2018-02-20T08:00:03.000Z</time>
      </trkpt>
      <trkpt lat="43.52499" lon="5.50867">
        <ele>222</ele>
        <time>2018-02-20T08:00:04.000Z</time>
      </trkpt>
      <trkpt lat="43.52499" lon="5.50869">
        <ele>222</ele>
        <time>2018-02-20T08:00:05.000Z</time>
      </trkpt>
      <trkpt lat="43.52499" lon="5.50871">
        <ele>222</ele>
        <time>2018-02-20T08:00:06.000Z</time>
      </trkpt>
      <trkpt lat="43.52499" lon="5.50872">
        <ele>222</ele>
        <time>2018-02-20T08:00:07.000Z</time>
      </trkpt>
      <trkpt lat="43.52499" lon="5.50874">
        <ele>222</ele>
        <time>2018-02-20T08:00:08.000Z</time>
      </trkpt>
      <trkpt lat="43.52499" lon="5.50875">
        <ele>222</ele>
        <time>2018-02-20T08:00:09.000Z</time>
      </trkpt>
      <trkpt lat="43.52499" lon="5.50876">
        <ele>222</ele>
        <time>2018-02-20T08:00:10.000Z</time>
      </trkpt>
      <trkpt lat="43.52498" lon="5.50876">
        <ele>222</ele>
        <time>2018-02-20T08:00:11.000Z</time>
      </trkpt>
      <trkpt lat="43.52498" lon="5.50876">
        <ele>222</ele>
        <time>2018-02-20T08:00:12.000Z</time>
      </trkpt>
      <trkpt lat="43.52498" lon="5.50876">
        <ele>222</ele>
        <time>2018-02-20T08:00:13.000Z</time>
      </trkpt>
      <trkpt lat="43.52498" lon="5.50876">
        <ele>222</ele>
        <time>2018-02-20T08:00:14.000Z</time>
      </trkpt>
      <trkpt lat="43.52498" lon="5.50876">
        <ele>222</ele>
        <time>2018-02-20T08:00:15.000Z</time>
      </trkpt>
      <trkpt lat="43.52498" lon="5.50876">
        <ele>222</ele>
        <time>2018-02-20T08:00:16.000Z</time>
      </trkpt>
      <trkpt lat="43.52498" lon="5.50876">
        <ele>222</ele>
        <time>2018-02-20T08:00:17.000Z</time>
      </trkpt>
      <trkpt lat="43.52497" lon="5.50876">
        <ele>222</ele>
        <time>2018-02-20T08:00:18.000Z</time>
      </trkpt>
      <trkpt lat="43.52497" lon="5.50876">
        <ele>222</ele>
        <time>2018-02-20T08:00:19.000Z</time>
      </trkpt>
      <trkpt lat="43.52497" lon="5.50876">
        <ele>222</ele>
        <time>2018-02-20T08:00:20.000Z</time>
      </trkpt>
      <trkpt lat="43.52497" lon="5.50876">
        <ele>222</ele>
        <time>2018-02-20T08:00:21.000Z</time>
      </trkpt>
      <trkpt lat="43.52497" lon="5.50876">
        <ele>222</ele>
        <time>2018-02-20T08:00:22.000Z</time>
      </trkpt>
      <trkpt lat="43.52497" lon="5.50876">
        <ele>222</ele>
        <time>2018-02-20T08:00:23.000Z</time>
      </trkpt>
      <trkpt lat="43.52497" lon="5.50876">
        <ele>222</ele>
        <time>2018-02-20T08:00:24.000Z</time>
      </trkpt>
      <trkpt lat="43.52497" lon="5.50877">
        <ele>222</ele>
        <time>2018-02-20T08:00:25.000Z</time>
      </trkpt>
      <trkpt lat="43.52497" lon="5.50877">
        <ele>223</ele>
        <time>2018-02-20T08:00:26.000Z</time>
      </trkpt>
      <trkpt lat="43.52496" lon="5.50877">
        <ele>223</ele>
        <time>2018-02-20T08:00:27.000Z</time>
      </trkpt>
      <trkpt lat="43.52496" lon="5.50877">
        <ele>223</ele>
        <time>2018-02-20T08:00:28.000Z</time>
      </trkpt>
      <trkpt lat="43.52496" lon="5.50877">
        <ele>223</ele>
        <time>2018-02-20T08:00:29.000Z</time>
      </trkpt>
      <trkpt lat="43.52497" lon="5.50877">
        <ele>223</ele>
        <time>2018-02-20T08:00:30.000Z</time>
      </trkpt>
      <trkpt lat="43.52496" lon="5.50877">
        <ele>223</ele>
        <time>2018-02-20T08:00:31.000Z</time>
      </trkpt>
      <trkpt lat="43.52496" lon="5.50877">
        <ele>223</ele>
        <time>2018-02-20T08:00:32.000Z</time>
      </trkpt>
      <trkpt lat="43.52496" lon="5.50877">
        <ele>223</ele>
        <time>2018-02-20T08:00:33.000Z</time>
      </trkpt>
      <trkpt lat="43.52496" lon="5.50877">
        <ele>223</ele>
        <time>2018-02-20T08:00:34.000Z</time>
      </trkpt>
      <trkpt lat="43.52496" lon="5.50877">
        <ele>223</ele>
        <time>2018-02-20T08:00:35.000Z</time>
      </trkpt>
      <trkpt lat="43.52496" lon="5.50878">
        <ele>223</ele>
        <time>2018-02-20T08:00:36.000Z</time>
      </trkpt>
      <trkpt lat="43.52496" lon="5.50878">
        <ele>223</ele>
        <time>2018-02-20T08:00:37.000Z</time>
      </trkpt>
      <trkpt lat="43.52496" lon="5.50878">
        <ele>223</ele>
        <time>2018-02-20T08:00:38.000Z</time>
      </trkpt>
      <trkpt lat="43.52496" lon="5.50879">
        <ele>223</ele>
        <time>2018-02-20T08:00:39.000Z</time>
      </trkpt>
      <trkpt lat="43.52496" lon="5.5088">
        <ele>224</ele>
        <time>2018-02-20T08:00:40.000Z</time>
      </trkpt>
      <trkpt lat="43.52496" lon="5.50881">
        <ele>224</ele>
        <time>2018-02-20T08:00:41.000Z</time>
      </trkpt>
      <trkpt lat="43.52496" lon="5.50883">
        <ele>224</ele>
        <time>2018-02-20T08:00:42.000Z</time>
      </trkpt>
      <trkpt lat="43.52497" lon="5.50884">
        <ele>224</ele>
        <time>2018-02-20T08:00:43.000Z</time>
      </trkpt>
      <trkpt lat="43.52497" lon="5.50886">
        <ele>224</ele>
        <time>2018-02-20T08:00:44.000Z</time>
      </trkpt>
      <trkpt lat="43.52497" lon="5.50887">
        <ele>224</ele>
        <time>2018-02-20T08:00:45.000Z</time>
      </trkpt>
      <trkpt lat="43.52497" lon="5.50889">
        <ele>224</ele>
        <time>2018-02-20T08:00:46.000Z</time>
      </trkpt>
      <trkpt lat="43.52497" lon="5.5089">
        <ele>224</ele>
        <time>2018-02-20T08:00:47.000Z</time>
      </trkpt>
      <trkpt lat="43.52496" lon="5.50891">
        <ele>224</ele>
        <time>2018-02-20T08:00:48.000Z</time>
      </trkpt>
      <trkpt lat="43.52496" lon="5.50892">
        <ele>224</ele>
        <time>2018-02-20T08:00:49.000Z</time>
      </trkpt>
      <trkpt lat="43.52496" lon="5.50893">
        <ele>224</ele>
        <time>2018-02-20T08:00:50.000Z</time>
      </trkpt>
      <trkpt lat="43.52496" lon="5.50895">
        <ele>224</ele>
        <time>2018-02-20T08:00:51.000Z</time>
      </trkpt>
      <trkpt lat="43.52496" lon="5.50896">
        <ele>224</ele>
        <time>2018-02-20T08:00:52.000Z</time>
      </trkpt>
      <trkpt lat="43.52496" lon="5.50897">
        <ele>224</ele>
        <time>2018-02-20T08:00:53.000Z</time>
      </trkpt>
      <trkpt lat="43.52496" lon="5.50898">
        <ele>225</ele>
        <time>2018-02-20T08:00:54.000Z</time>
      </trkpt>
      <trkpt lat="43.52496" lon="5.509">
        <ele>225</ele>
        <time>2018-02-20T08:00:55.000Z</time>
      </trkpt>
      <trkpt lat="43.52496" lon="5.50901">
        <ele>225</ele>
        <time>2018-02-20T08:00:56.000Z</time>
      </trkpt>
      <trkpt lat="43.52496" lon="5.50902">
        <ele>225</ele>
        <time>2018-02-20T08:00:57.000Z</time>
      </trkpt>
      <trkpt lat="43.52495" lon="5.50903">
        <ele>225</ele>
        <time>2018-02-20T08:00:58.000Z</time>
      </trkpt>
      <trkpt lat="43.52495" lon="5.50905">
        <ele>225</ele>
        <time>2018-02-20T08:00:59.000Z</time>
      </trkpt>
      <trkpt lat="43.52495" lon="5.50906">
        <ele>225</ele>
        <time>2018-02-20T08:01:00.000Z</time>
      </trkpt>
      <trkpt lat="43.52495" lon="5.50907">
        <ele>225</ele>
        <time>2018-02-20T08:01:01.000Z</time>
      </trkpt>
      <trkpt lat="43.52494" lon="5.50908">
        <ele>225</ele>
        <time>2018-02-20T08:01:02.000Z</time>
      </trkpt>
      <trkpt lat="43.52494" lon="5.5091">
        <ele>225</ele>
        <time>2018-02-20T08:01:03.000Z</time>
      </trkpt>
      <trkpt lat="43.52494" lon="5.50911">
        <ele>225</ele>
        <time>2018-02-20T08:01:04.000Z</time>
      </trkpt>
      <trkpt lat="43.52493" lon="5.50913">
        <ele>225</ele>
        <time>2018-02-20T08:01:05.000Z</time>
      </trkpt>
      <trkpt lat="43.52493" lon="5.50915">
        <ele>225</ele>
        <time>2018-02-20T08:01:06.000Z</time>
      </trkpt>
      <trkpt lat="43.52492" lon="5.50917">
        <ele>225</ele>
        <time>2018-02-20T08:01:07.000Z</time>
      </trkpt>
      <trkpt lat="43.52492" lon="5.50918">
        <ele>225</ele>
        <time>2018-02-20T08:01:08.000Z</time>
      </trkpt>
      <trkpt lat="43.52492" lon="5.5092">
        <ele>225</ele>
        <time>2018-02-20T08:01:09.000Z</time>
      </trkpt>
      <trkpt lat="43.52491" lon="5.50921">
        <ele>225</ele>
        <time>2018-02-20T08:01:10.000Z</time>
      </trkpt>
      <trkpt lat="43.5249" lon="5.50922">
        <ele>225</ele>
        <time>2018-02-20T08:01:11.000Z</time>
      </trkpt>
      <trkpt lat="43.5249" lon="5.50923">
        <ele>225</ele>
        <time>2018-02-20T08:01:12.000Z</time>
      </trkpt>
      <trkpt lat="43.52489" lon="5.50924">
        <ele>225</ele>
        <time>2018-02-20T08:01:13.000Z</time>
      </trkpt>
      <trkpt lat="43.52488" lon="5.50925">
        <ele>225</ele>
        <time>2018-02-20T08:01:14.000Z</time>
      </trkpt>
      <trkpt lat="43.52487" lon="5.50926">
        <ele>225</ele>
        <time>2018-02-20T08:01:15.000Z</time>
      </trkpt>
      <trkpt lat="43.52487" lon="5.50927">
        <ele>225</ele>
        <time>2018-02-20T08:01:16.000Z</time>
      </trkpt>
      <trkpt lat="43.52487" lon="5.50927">
        <ele>225</ele>
        <time>2018-02-20T08:01:17.000Z</time>
      </trkpt>
      <trkpt lat="43.52486" lon="5.50928">
        <ele>225</ele>
        <time>2018-02-20T08:01:18.000Z</time>
      </trkpt>
      <trkpt lat="43.52486" lon="5.50928">
        <ele>225</ele>
        <time>2018-02-20T08:01:19.000Z</time>
      </trkpt>
      <trkpt lat="43.52486" lon="5.50929">
        <ele>225</ele>
        <time>2018-02-20T08:01:20.000Z</time>
      </trkpt>
      <trkpt lat="43.52486" lon="5.50929">
        <ele>225</ele>
        <time>2018-02-20T08:01:21.000Z</time>
      </trkpt>
      <trkpt lat="43.52486" lon="5.50929">
        <ele>225</ele>
        <time>2018-02-20T08:01:22.000Z</time>
      </trkpt>
      <trkpt lat="43.52486" lon="5.50929">
        <ele>225</ele>
        <time>2018-02-20T08:01:23.000Z</time>
      </trkpt>
      <trkpt lat="43.52485" lon="5.50929">
        <ele>225</ele>
        <time>2018-02-20T08:01:24.000Z</time>
      </trkpt>
      <trkpt lat="43.52485" lon="5.50929">
        <ele>225</ele>
        <time>2018-02-20T08:01:25.000Z</time>
      </trkpt>
      <trkpt lat="43.52485" lon="5.50929">
        <ele>225</ele>
        <time>2018-02-20T08:01:26.000Z</time>
      </trkpt>
      <trkpt lat="43.52485" lon="5.50929">
        <ele>225</ele>
        <time>2018-02-20T08:01:27.000Z</time>
      </trkpt>
      <trkpt lat="43.52485" lon="5.50929">
        <ele>225</ele>
        <time>2018-02-20T08:01:28.000Z</time>
      </trkpt>
      <trkpt lat="43.52485" lon="5.50929">
        <ele>225</ele>
        <time>2018-02-20T08:01:29.000Z</time>
      </trkpt>
      <trkpt lat="43.52485" lon="5.50929">
        <ele>225</ele>
        <time>2018-02-20T08:01:30.000Z</time>
      </trkpt>
      <trkpt lat="43.52485" lon="5.50929">
        <ele>226</ele>
        <time>2018-02-20T08:01:31.000Z</time>
      </trkpt>
      <trkpt lat="43.52485" lon="5.50929">
        <ele>226</ele>
        <time>2018-02-20T08:01:32.000Z</time>
      </trkpt>
      <trkpt lat="43.52485" lon="5.50929">
        <ele>226</ele>
        <time>2018-02-20T08:01:33.000Z</time>
      </trkpt>
      <trkpt lat="43.52485" lon="5.50929">
        <ele>226</ele>
        <time>2018-02-20T08:01:34.000Z</time>
      </trkpt>
      <trkpt lat="43.52485" lon="5.50929">
        <ele>226</ele>
        <time>2018-02-20T08:01:35.000Z</time>
      </trkpt>
      <trkpt lat="43.52485" lon="5.50929">
        <ele>226</ele>
        <time>2018-02-20T08:01:36.000Z</time>
      </trkpt>
      <trkpt lat="43.52485" lon="5.50929">
        <ele>226</ele>
        <time>2018-02-20T08:01:37.000Z</time>
      </trkpt>
      <trkpt lat="43.52485" lon="5.50929">
        <ele>226</ele>
        <time>2018-02-20T08:01:38.000Z</time>
      </trkpt>
      <trkpt lat="43.52484" lon="5.50929">
        <ele>226</ele>
        <time>2018-02-20T08:01:39.000Z</time>
      </trkpt>
      <trkpt lat="43.52484" lon="5.50929">
        <ele>226</ele>
        <time>2018-02-20T08:01:40.000Z</time>
      </trkpt>
      <trkpt lat="43.52484" lon="5.50929">
        <ele>226</ele>
        <time>2018-02-20T08:01:41.000Z</time>
      </trkpt>
      <trkpt lat="43.52484" lon="5.50929">
        <ele>226</ele>
        <time>2018-02-20T08:01:42.000Z</time>
      </trkpt>
      <trkpt lat="43.52484" lon="5.50929">
        <ele>226</ele>
        <time>2018-02-20T08:01:43.000Z</time>
      </trkpt>
      <trkpt lat="43.52485" lon="5.5093">
        <ele>226</ele>
        <time>2018-02-20T08:01:44.000Z</time>
      </trkpt>
      <trkpt lat="43.52485" lon="5.5093">
        <ele>226</ele>
        <time>2018-02-20T08:01:45.000Z</time>
      </trkpt>
      <trkpt lat="43.52484" lon="5.50929">
        <ele>226</ele>
        <time>2018-02-20T08:01:46.000Z</time>
      </trkpt>
      <trkpt lat="43.52484" lon="5.50929">
        <ele>226</ele>
        <time>2018-02-20T08:01:47.000Z</time>
      </trkpt>
      <trkpt lat="43.52484" lon="5.50929">
        <ele>226</ele>
        <time>2018-02-20T08:01:48.000Z</time>
      </trkpt>
      <trkpt lat="43.52484" lon="5.50929">
        <ele>226</ele>
        <time>2018-02-20T08:01:49.000Z</time>
      </trkpt>
      <trkpt lat="43.52484" lon="5.50929">
        <ele>227</ele>
        <time>2018-02-20T08:01:50.000Z</time>
      </trkpt>
      <trkpt lat="43.52484" lon="5.5093">
        <ele>227</ele>
        <time>2018-02-20T08:01:51.000Z</time>
      </trkpt>
      <trkpt lat="43.52485" lon="5.5093">
        <ele>227</ele>
        <time>2018-02-20T08:01:52.000Z</time>
      </trkpt>
      <trkpt lat="43.52485" lon="5.5093">
        <ele>227</ele>
        <time>2018-02-20T08:01:53.000Z</time>
      </trkpt>
      <trkpt lat="43.52485" lon="5.5093">
        <ele>227</ele>
        <time>2018-02-20T08:01:54.000Z</time>
      </trkpt>
      <trkpt lat="43.52485" lon="5.5093">
        <ele>227</ele>
        <time>2018-02-20T08:01:55.000Z</time>
      </trkpt>
      <trkpt lat="43.52485" lon="5.5093">
        <ele>227</ele>
        <time>2018-02-20T08:01:56.000Z</time>
      </trkpt>
      <trkpt lat="43.52485" lon="5.50929">
        <ele>227</ele>
        <time>2018-02-20T08:01:57.000Z</time>
      </trkpt>
      <trkpt lat="43.52485" lon="5.50928">
        <ele>227</ele>
        <time>2018-02-20T08:01:58.000Z</time>
      </trkpt>
      <trkpt lat="43.52485" lon="5.50927">
        <ele>227</ele>
        <time>2018-02-20T08:01:59.000Z</time>
      </trkpt>
      <trkpt lat="43.52485" lon="5.50927">
        <ele>227</ele>
        <time>2018-02-20T08:02:00.000Z</time>
      </trkpt>
      <trkpt lat="43.52486" lon="5.50926">
        <ele>228</ele>
        <time>2018-02-20T08:02:01.000Z</time>
      </trkpt>
      <trkpt lat="43.52487" lon="5.50926">
        <ele>228</ele>
        <time>2018-02-20T08:02:02.000Z</time>
      </trkpt>
      <trkpt lat="43.52487" lon="5.50925">
        <ele>228</ele>
        <time>2018-02-20T08:02:03.000Z</time>
      </trkpt>
      <trkpt lat="43.52489" lon="5.50924">
        <ele>228</ele>
        <time>2018-02-20T08:02:04.000Z</time>
      </trkpt>
      <trkpt lat="43.5249" lon="5.50924">
        <ele>228</ele>
        <time>2018-02-20T08:02:05.000Z</time>
      </trkpt>
      <trkpt lat="43.52491" lon="5.50924">
        <ele>228</ele>
        <time>2018-02-20T08:02:06.000Z</time>
      </trkpt>
      <trkpt lat="43.52492" lon="5.50926">
        <ele>229</ele>
        <time>2018-02-20T08:02:07.000Z</time>
      </trkpt>
      <trkpt lat="43.52493" lon="5.50927">
        <ele>229</ele>
        <time>2018-02-20T08:02:08.000Z</time>
      </trkpt>
      <trkpt lat="43.52493" lon="5.50928">
        <ele>229</ele>
        <time>2018-02-20T08:02:09.000Z</time>
      </trkpt>
      <trkpt lat="43.52494" lon="5.5093">
        <ele>229</ele>
        <time>2018-02-20T08:02:10.000Z</time>
      </trkpt>
      <trkpt lat="43.52494" lon="5.50932">
        <ele>229</ele>
        <time>2018-02-20T08:02:11.000Z</time>
      </trkpt>
      <trkpt lat="43.52495" lon="5.50933">
        <ele>229</ele>
        <time>2018-02-20T08:02:12.000Z</time>
      </trkpt>
      <trkpt lat="43.52495" lon="5.50934">
        <ele>229</ele>
        <time>2018-02-20T08:02:13.000Z</time>
      </trkpt>
      <trkpt lat="43.52496" lon="5.50934">
        <ele>229</ele>
        <time>2018-02-20T08:02:14.000Z</time>
      </trkpt>
      <trkpt lat="43.52497" lon="5.50935">
        <ele>229</ele>
        <time>2018-02-20T08:02:15.000Z</time>
      </trkpt>
      <trkpt lat="43.52498" lon="5.50935">
        <ele>229</ele>
        <time>2018-02-20T08:02:16.000Z</time>
      </trkpt>
      <trkpt lat="43.52499" lon="5.50936">
        <ele>229</ele>
        <time>2018-02-20T08:02:17.000Z</time>
      </trkpt>
      <trkpt lat="43.525" lon="5.50937">
        <ele>229</ele>
        <time>2018-02-20T08:02:18.000Z</time>
      </trkpt>
      <trkpt lat="43.52501" lon="5.50938">
        <ele>228</ele>
        <time>2018-02-20T08:02:19.000Z</time>
      </trkpt>
      <trkpt lat="43.52501" lon="5.50939">
        <ele>228</ele>
        <time>2018-02-20T08:02:20.000Z</time>
      </trkpt>
      <trkpt lat="43.52501" lon="5.50939">
        <ele>228</ele>
        <time>2018-02-20T08:02:21.000Z</time>
      </trkpt>
      <trkpt lat="43.52501" lon="5.5094">
        <ele>227</ele>
        <time>2018-02-20T08:02:22.000Z</time>
      </trkpt>
      <trkpt lat="43.52502" lon="5.5094">
        <ele>227</ele>
        <time>2018-02-20T08:02:23.000Z</time>
      </trkpt>
      <trkpt lat="43.52502" lon="5.50941">
        <ele>227</ele>
        <time>2018-02-20T08:02:24.000Z</time>
      </trkpt>
      <trkpt lat="43.52502" lon="5.50943">
        <ele>227</ele>
        <time>2018-02-20T08:02:25.000Z</time>
      </trkpt>
      <trkpt lat="43.52503" lon="5.50944">
        <ele>227</ele>
        <time>2018-02-20T08:02:26.000Z</time>
      </trkpt>
      <trkpt lat="43.52503" lon="5.50945">
        <ele>226</ele>
        <time>2018-02-20T08:02:27.000Z</time>
      </trkpt>
      <trkpt lat="43.52504" lon="5.50945">
        <ele>226</ele>
        <time>2018-02-20T08:02:28.000Z</time>
      </trkpt>
      <trkpt lat="43.52505" lon="5.50946">
        <ele>226</ele>
        <time>2018-02-20T08:02:29.000Z</time>
      </trkpt>
      <trkpt lat="43.52506" lon="5.50946">
        <ele>225</ele>
        <time>2018-02-20T08:02:30.000Z</time>
      </trkpt>
      <trkpt lat="43.52506" lon="5.50947">
        <ele>225</ele>
        <time>2018-02-20T08:02:31.000Z</time>
      </trkpt>
      <trkpt lat="43.52507" lon="5.50949">
        <ele>225</ele>
        <time>2018-02-20T08:02:32.000Z</time>
      </trkpt>
      <trkpt lat="43.52507" lon="5.5095">
        <ele>225</ele>
        <time>2018-02-20T08:02:33.000Z</time>
      </trkpt>
      <trkpt lat="43.52508" lon="5.5095">
        <ele>224</ele>
        <time>2018-02-20T08:02:34.000Z</time>
      </trkpt>
      <trkpt lat="43.52509" lon="5.5095">
        <ele>224</ele>
        <time>2018-02-20T08:02:35.000Z</time>
      </trkpt>
      <trkpt lat="43.5251" lon="5.5095">
        <ele>224</ele>
        <time>2018-02-20T08:02:36.000Z</time>
      </trkpt>
      <trkpt lat="43.52511" lon="5.50951">
        <ele>224</ele>
        <time>2018-02-20T08:02:37.000Z</time>
      </trkpt>
      <trkpt lat="43.52512" lon="5.50951">
        <ele>224</ele>
        <time>2018-02-20T08:02:38.000Z</time>
      </trkpt>
      <trkpt lat="43.52512" lon="5.50951">
        <ele>223</ele>
        <time>2018-02-20T08:02:39.000Z</time>
      </trkpt>
      <trkpt lat="43.52513" lon="5.50952">
        <ele>223</ele>
        <time>2018-02-20T08:02:40.000Z</time>
      </trkpt>
      <trkpt lat="43.52514" lon="5.50952">
        <ele>223</ele>
        <time>2018-02-20T08:02:41.000Z</time>
      </trkpt>
      <trkpt lat="43.52514" lon="5.50952">
        <ele>223</ele>
        <time>2018-02-20T08:02:42.000Z</time>
      </trkpt>
      <trkpt lat="43.52515" lon="5.50953">
        <ele>223</ele>
        <time>2018-02-20T08:02:43.000Z</time>
      </trkpt>
      <trkpt lat="43.52515" lon="5.50953">
        <ele>223</ele>
        <time>2018-02-20T08:02:44.000Z</time>
      </trkpt>
      <trkpt lat="43.52516" lon="5.50953">
        <ele>223</ele>
        <time>2018-02-20T08:02:45.000Z</time>
      </trkpt>
      <trkpt lat="43.52516" lon="5.50953">
        <ele>223</ele>
        <time>2018-02-20T08:02:46.000Z</time>
      </trkpt>
      <trkpt lat="43.52517" lon="5.50954">
        <ele>222</ele>
        <time>2018-02-20T08:02:47.000Z</time>
      </trkpt>
      <trkpt lat="43.52517" lon="5.50955">
        <ele>222</ele>
        <time>2018-02-20T08:02:48.000Z</time>
      </trkpt>
      <trkpt lat="43.52518" lon="5.50956">
        <ele>222</ele>
        <time>2018-02-20T08:02:49.000Z</time>
      </trkpt>
      <trkpt lat="43.52518" lon="5.50958">
        <ele>222</ele>
        <time>2018-02-20T08:02:50.000Z</time>
      </trkpt>
      <trkpt lat="43.52518" lon="5.50959">
        <ele>222</ele>
        <time>2018-02-20T08:02:51.000Z</time>
      </trkpt>
      <trkpt lat="43.52518" lon="5.5096">
        <ele>222</ele>
        <time>2018-02-20T08:02:52.000Z</time>
      </trkpt>
      <trkpt lat="43.52518" lon="5.50961">
        <ele>221</ele>
        <time>2018-02-20T08:02:53.000Z</time>
      </trkpt>
      <trkpt lat="43.52518" lon="5.50962">
        <ele>221</ele>
        <time>2018-02-20T08:02:54.000Z</time>
      </trkpt>
      <trkpt lat="43.52518" lon="5.50963">
        <ele>221</ele>
        <time>2018-02-20T08:02:55.000Z</time>
      </trkpt>
      <trkpt lat="43.52517" lon="5.50965">
        <ele>221</ele>
        <time>2018-02-20T08:02:56.000Z</time>
      </trkpt>
      <trkpt lat="43.52517" lon="5.50966">
        <ele>220</ele>
        <time>2018-02-20T08:02:57.000Z</time>
      </trkpt>
      <trkpt lat="43.52516" lon="5.50967">
        <ele>220</ele>
        <time>2018-02-20T08:02:58.000Z</time>
      </trkpt>
      <trkpt lat="43.52516" lon="5.50968">
        <ele>220</ele>
        <time>2018-02-20T08:02:59.000Z</time>
      </trkpt>
      <trkpt lat="43.52515" lon="5.5097">
        <ele>220</ele>
        <time>2018-02-20T08:03:00.000Z</time>
      </trkpt>
      <trkpt lat="43.52515" lon="5.50971">
        <ele>220</ele>
        <time>2018-02-20T08:03:01.000Z</time>
      </trkpt>
      <trkpt lat="43.52514" lon="5.50972">
        <ele>220</ele>
        <time>2018-02-20T08:03:02.000Z</time>
      </trkpt>
      <trkpt lat="43.52514" lon="5.50974">
        <ele>220</ele>
        <time>2018-02-20T08:03:03.000Z</time>
      </trkpt>
      <trkpt lat="43.52514" lon="5.50975">
        <ele>220</ele>
        <time>2018-02-20T08:03:04.000Z</time>
      </trkpt>
      <trkpt lat="43.52514" lon="5.50975">
        <ele>220</ele>
        <time>2018-02-20T08:03:05.000Z</time>
      </trkpt>
      <trkpt lat="43.52515" lon="5.50975">
        <ele>219</ele>
        <time>2018-02-20T08:03:06.000Z</time>
      </trkpt>
      <trkpt lat="43.52515" lon="5.50976">
        <ele>219</ele>
        <time>2018-02-20T08:03:07.000Z</time>
      </trkpt>
      <trkpt lat="43.52516" lon="5.50975">
        <ele>219</ele>
        <time>2018-02-20T08:03:08.000Z</time>
      </trkpt>
      <trkpt lat="43.52517" lon="5.50975">
        <ele>219</ele>
        <time>2018-02-20T08:03:09.000Z</time>
      </trkpt>
      <trkpt lat="43.52518" lon="5.50975">
        <ele>219</ele>
        <time>2018-02-20T08:03:10.000Z</time>
      </trkpt>
      <trkpt lat="43.52518" lon="5.50975">
        <ele>219</ele>
        <time>2018-02-20T08:03:11.000Z</time>
      </trkpt>
      <trkpt lat="43.52519" lon="5.50976">
        <ele>218</ele>
        <time>2018-02-20T08:03:12.000Z</time>
      </trkpt>
      <trkpt lat="43.5252" lon="5.50976">
        <ele>218</ele>
        <time>2018-02-20T08:03:13.000Z</time>
      </trkpt>
      <trkpt lat="43.5252" lon="5.50975">
        <ele>218</ele>
        <time>2018-02-20T08:03:14.000Z</time>
      </trkpt>
      <trkpt lat="43.52521" lon="5.50976">
        <ele>217</ele>
        <time>2018-02-20T08:03:15.000Z</time>
      </trkpt>
      <trkpt lat="43.52522" lon="5.50976">
        <ele>217</ele>
        <time>2018-02-20T08:03:16.000Z</time>
      </trkpt>
      <trkpt lat="43.52522" lon="5.50977">
        <ele>216</ele>
        <time>2018-02-20T08:03:17.000Z</time>
      </trkpt>
      <trkpt lat="43.52523" lon="5.50978">
        <ele>216</ele>
        <time>2018-02-20T08:03:18.000Z</time>
      </trkpt>
      <trkpt lat="43.52523" lon="5.50979">
        <ele>215</ele>
        <time>2018-02-20T08:03:19.000Z</time>
      </trkpt>
      <trkpt lat="43.52523" lon="5.5098">
        <ele>215</ele>
        <time>2018-02-20T08:03:20.000Z</time>
      </trkpt>
      <trkpt lat="43.52522" lon="5.50982">
        <ele>215</ele>
        <time>2018-02-20T08:03:21.000Z</time>
      </trkpt>
      <trkpt lat="43.52522" lon="5.50983">
        <ele>214</ele>
        <time>2018-02-20T08:03:22.000Z</time>
      </trkpt>
      <trkpt lat="43.52522" lon="5.50984">
        <ele>214</ele>
        <time>2018-02-20T08:03:23.000Z</time>
      </trkpt>
      <trkpt lat="43.52521" lon="5.50985">
        <ele>214</ele>
        <time>2018-02-20T08:03:24.000Z</time>
      </trkpt>
      <trkpt lat="43.52521" lon="5.50987">
        <ele>213</ele>
        <time>2018-02-20T08:03:25.000Z</time>
      </trkpt>
      <trkpt lat="43.5252" lon="5.50988">
        <ele>213</ele>
        <time>2018-02-20T08:03:26.000Z</time>
      </trkpt>
      <trkpt lat="43.5252" lon="5.50988">
        <ele>213</ele>
        <time>2018-02-20T08:03:27.000Z</time>
      </trkpt>
      <trkpt lat="43.52519" lon="5.50989">
        <ele>213</ele>
        <time>2018-02-20T08:03:28.000Z</time>
      </trkpt>
      <trkpt lat="43.52519" lon="5.50989">
        <ele>213</ele>
        <time>2018-02-20T08:03:29.000Z</time>
      </trkpt>
      <trkpt lat="43.52519" lon="5.5099">
        <ele>213</ele>
        <time>2018-02-20T08:03:30.000Z</time>
      </trkpt>
      <trkpt lat="43.52519" lon="5.50991">
        <ele>212</ele>
        <time>2018-02-20T08:03:31.000Z</time>
      </trkpt>
      <trkpt lat="43.52519" lon="5.50991">
        <ele>212</ele>
        <time>2018-02-20T08:03:32.000Z</time>
      </trkpt>
      <trkpt lat="43.52519" lon="5.50992">
        <ele>212</ele>
        <time>2018-02-20T08:03:33.000Z</time>
      </trkpt>
      <trkpt lat="43.52519" lon="5.50993">
        <ele>212</ele>
        <time>2018-02-20T08:03:34.000Z</time>
      </trkpt>
      <trkpt lat="43.52519" lon="5.50993">
        <ele>212</ele>
        <time>2018-02-20T08:03:35.000Z</time>
      </trkpt>
      <trkpt lat="43.52519" lon="5.50994">
        <ele>212</ele>
        <time>2018-02-20T08:03:36.000Z</time>
      </trkpt>
      <trkpt lat="43.5252" lon="5.50994">
        <ele>212</ele>
        <time>2018-02-20T08:03:37.000Z</time>
      </trkpt>
      <trkpt lat="43.52521" lon="5.50994">
        <ele>212</ele>
        <time>2018-02-20T08:03:38.000Z</time>
      </trkpt>
      <trkpt lat="43.52522" lon="5.50994">
        <ele>212</ele>
        <time>2018-02-20T08:03:39.000Z</time>
      </trkpt>
      <trkpt lat="43.52523" lon="5.50993">
        <ele>212</ele>
        <time>2018-02-20T08:03:40.000Z</time>
      </trkpt>
      <trkpt lat="43.52524" lon="5.50993">
        <ele>212</ele>
        <time>2018-02-20T08:03:41.000Z</time>
      </trkpt>
      <trkpt lat="43.52525" lon="5.50993">
        <ele>212</ele>
        <time>2018-02-20T08:03:42.000Z</time>
      </trkpt>
      <trkpt lat="43.52525" lon="5.50994">
        <ele>211</ele>
        <time>2018-02-20T08:03:43.000Z</time>
      </trkpt>
      <trkpt lat="43.52526" lon="5.50995">
        <ele>211</ele>
        <time>2018-02-20T08:03:44.000Z</time>
      </trkpt>
      <trkpt lat="43.52526" lon="5.50996">
        <ele>211</ele>
        <time>2018-02-20T08:03:45.000Z</time>
      </trkpt>
      <trkpt lat="43.52525" lon="5.50997">
        <ele>211</ele>
        <time>2018-02-20T08:03:46.000Z</time>
      </trkpt>
      <trkpt lat="43.52525" lon="5.50998">
        <ele>211</ele>
        <time>2018-02-20T08:03:47.000Z</time>
      </trkpt>
      <trkpt lat="43.52524" lon="5.50999">
        <ele>210</ele>
        <time>2018-02-20T08:03:48.000Z</time>
      </trkpt>
      <trkpt lat="43.52524" lon="5.51">
        <ele>210</ele>
        <time>2018-02-20T08:03:49.000Z</time>
      </trkpt>
      <trkpt lat="43.52523" lon="5.51001">
        <ele>210</ele>
        <time>2018-02-20T08:03:50.000Z</time>
      </trkpt>
      <trkpt lat="43.52523" lon="5.51003">
        <ele>210</ele>
        <time>2018-02-20T08:03:51.000Z</time>
      </trkpt>
      <trkpt lat="43.52523" lon="5.51004">
        <ele>210</ele>
        <time>2018-02-20T08:03:52.000Z</time>
      </trkpt>
      <trkpt lat="43.52522" lon="5.51005">
        <ele>210</ele>
        <time>2018-02-20T08:03:53.000Z</time>
      </trkpt>
      <trkpt lat="43.52522" lon="5.51006">
        <ele>209</ele>
        <time>2018-02-20T08:03:54.000Z</time>
      </trkpt>
      <trkpt lat="43.52522" lon="5.51007">
        <ele>209</ele>
        <time>2018-02-20T08:03:55.000Z</time>
      </trkpt>
      <trkpt lat="43.52522" lon="5.51008">
        <ele>209</ele>
        <time>2018-02-20T08:03:56.000Z</time>
      </trkpt>
      <trkpt lat="43.52522" lon="5.51009">
        <ele>209</ele>
        <time>2018-02-20T08:03:57.000Z</time>
      </trkpt>
      <trkpt lat="43.52522" lon="5.5101">
        <ele>209</ele>
        <time>2018-02-20T08:03:58.000Z</time>
      </trkpt>
      <trkpt lat="43.52523" lon="5.5101">
        <ele>209</ele>
        <time>2018-02-20T08:03:59.000Z</time>
      </trkpt>
      <trkpt lat="43.52523" lon="5.51011">
        <ele>209</ele>
        <time>2018-02-20T08:04:00.000Z</time>
      </trkpt>
      <trkpt lat="43.52524" lon="5.51011">
        <ele>209</ele>
        <time>2018-02-20T08:04:01.000Z</time>
      </trkpt>
      <trkpt lat="43.52524" lon="5.51012">
        <ele>208</ele>
        <time>2018-02-20T08:04:02.000Z</time>
      </trkpt>
      <trkpt lat="43.52524" lon="5.51012">
        <ele>208</ele>
        <time>2018-02-20T08:04:03.000Z</time>
      </trkpt>
      <trkpt lat="43.52524" lon="5.51013">
        <ele>208</ele>
        <time>2018-02-20T08:04:04.000Z</time>
      </trkpt>
      <trkpt lat="43.52524" lon="5.51014">
        <ele>208</ele>
        <time>2018-02-20T08:04:05.000Z</time>
      </trkpt>
      <trkpt lat="43.52525" lon="5.51015">
        <ele>208</ele>
        <time>2018-02-20T08:04:06.000Z</time>
      </trkpt>
      <trkpt lat="43.52525" lon="5.51016">
        <ele>208</ele>
        <time>2018-02-20T08:04:07.000Z</time>
      </trkpt>
      <trkpt lat="43.52525" lon="5.51017">
        <ele>207</ele>
        <time>2018-02-20T08:04:08.000Z</time>
      </trkpt>
      <trkpt lat="43.52525" lon="5.51018">
        <ele>207</ele>
        <time>2018-02-20T08:04:09.000Z</time>
      </trkpt>
      <trkpt lat="43.52525" lon="5.51019">
        <ele>207</ele>
        <time>2018-02-20T08:04:10.000Z</time>
      </trkpt>
      <trkpt lat="43.52526" lon="5.5102">
        <ele>207</ele>
        <time>2018-02-20T08:04:11.000Z</time>
      </trkpt>
      <trkpt lat="43.52525" lon="5.51021">
        <ele>206</ele>
        <time>2018-02-20T08:04:12.000Z</time>
      </trkpt>
      <trkpt lat="43.52526" lon="5.51022">
        <ele>206</ele>
        <time>2018-02-20T08:04:13.000Z</time>
      </trkpt>
      <trkpt lat="43.52526" lon="5.51023">
        <ele>206</ele>
        <time>2018-02-20T08:04:14.000Z</time>
      </trkpt>
      <trkpt lat="43.52526" lon="5.51024">
        <ele>205</ele>
        <time>2018-02-20T08:04:15.000Z</time>
      </trkpt>
      <trkpt lat="43.52526" lon="5.51026">
        <ele>205</ele>
        <time>2018-02-20T08:04:16.000Z</time>
      </trkpt>
      <trkpt lat="43.52526" lon="5.51027">
        <ele>205</ele>
        <time>2018-02-20T08:04:17.000Z</time>
      </trkpt>
      <trkpt lat="43.52527" lon="5.51028">
        <ele>204</ele>
        <time>2018-02-20T08:04:18.000Z</time>
      </trkpt>
      <trkpt lat="43.52527" lon="5.51029">
        <ele>204</ele>
        <time>2018-02-20T08:04:19.000Z</time>
      </trkpt>
      <trkpt lat="43.52528" lon="5.5103">
        <ele>203</ele>
        <time>2018-02-20T08:04:20.000Z</time>
      </trkpt>
      <trkpt lat="43.52529" lon="5.5103">
        <ele>203</ele>
        <time>2018-02-20T08:04:21.000Z</time>
      </trkpt>
      <trkpt lat="43.5253" lon="5.51031">
        <ele>203</ele>
        <time>2018-02-20T08:04:22.000Z</time>
      </trkpt>
      <trkpt lat="43.52531" lon="5.51031">
        <ele>202</ele>
        <time>2018-02-20T08:04:23.000Z</time>
      </trkpt>
      <trkpt lat="43.52532" lon="5.51031">
        <ele>202</ele>
        <time>2018-02-20T08:04:24.000Z</time>
      </trkpt>
      <trkpt lat="43.52533" lon="5.51031">
        <ele>202</ele>
        <time>2018-02-20T08:04:25.000Z</time>
      </trkpt>
      <trkpt lat="43.52534" lon="5.5103">
        <ele>202</ele>
        <time>2018-02-20T08:04:26.000Z</time>
      </trkpt>
      <trkpt lat="43.52535" lon="5.5103">
        <ele>202</ele>
        <time>2018-02-20T08:04:27.000Z</time>
      </trkpt>
      <trkpt lat="43.52536" lon="5.5103">
        <ele>201</ele>
        <time>2018-02-20T08:04:28.000Z</time>
      </trkpt>
      <trkpt lat="43.52537" lon="5.5103">
        <ele>201</ele>
        <time>2018-02-20T08:04:29.000Z</time>
      </trkpt>
      <trkpt lat="43.52538" lon="5.51031">
        <ele>201</ele>
        <time>2018-02-20T08:04:30.000Z</time>
      </trkpt>
      <trkpt lat="43.52538" lon="5.51031">
        <ele>201</ele>
        <time>2018-02-20T08:04:31.000Z</time>
      </trkpt>
      <trkpt lat="43.52538" lon="5.51031">
        <ele>201</ele>
        <time>2018-02-20T08:04:32.000Z</time>
      </trkpt>
      <trkpt lat="43.52538" lon="5.51032">
        <ele>200</ele>
        <time>2018-02-20T08:04:33.000Z</time>
      </trkpt>
      <trkpt lat="43.52538" lon="5.51032">
        <ele>200</ele>
        <time>2018-02-20T08:04:34.000Z</time>
      </trkpt>
      <trkpt lat="43.52539" lon="5.51032">
        <ele>200</ele>
        <time>2018-02-20T08:04:35.000Z</time>
      </trkpt>
      <trkpt lat="43.52539" lon="5.51033">
        <ele>200</ele>
        <time>2018-02-20T08:04:36.000Z</time>
      </trkpt>
      <trkpt lat="43.52539" lon="5.51033">
        <ele>200</ele>
        <time>2018-02-20T08:04:37.000Z</time>
      </trkpt>
      <trkpt lat="43.52539" lon="5.51033">
        <ele>199</ele>
        <time>2018-02-20T08:04:38.000Z</time>
      </trkpt>
      <trkpt lat="43.52539" lon="5.51033">
        <ele>199</ele>
        <time>2018-02-20T08:04:39.000Z</time>
      </trkpt>
      <trkpt lat="43.52539" lon="5.51033">
        <ele>199</ele>
        <time>2018-02-20T08:04:40.000Z</time>
      </trkpt>
      <trkpt lat="43.52539" lon="5.51033">
        <ele>199</ele>
        <time>2018-02-20T08:04:41.000Z</time>
      </trkpt>
      <trkpt lat="43.52539" lon="5.51033">
        <ele>198</ele>
        <time>2018-02-20T08:04:42.000Z</time>
      </trkpt>
      <trkpt lat="43.52539" lon="5.51034">
        <ele>198</ele>
        <time>2018-02-20T08:04:43.000Z</time>
      </trkpt>
      <trkpt lat="43.52539" lon="5.51034">
        <ele>198</ele>
        <time>2018-02-20T08:04:44.000Z</time>
      </trkpt>
      <trkpt lat="43.52538" lon="5.51034">
        <ele>197</ele>
        <time>2018-02-20T08:04:45.000Z</time>
      </trkpt>
      <trkpt lat="43.52538" lon="5.51034">
        <ele>197</ele>
        <time>2018-02-20T08:04:46.000Z</time>
      </trkpt>
      <trkpt lat="43.52538" lon="5.51034">
        <ele>197</ele>
        <time>2018-02-20T08:04:47.000Z</time>
      </trkpt>
      <trkpt lat="43.52538" lon="5.51035">
        <ele>196</ele>
        <time>2018-02-20T08:04:48.000Z</time>
      </trkpt>
      <trkpt lat="43.52538" lon="5.51035">
        <ele>196</ele>
        <time>2018-02-20T08:04:49.000Z</time>
      </trkpt>
      <trkpt lat="43.52538" lon="5.51035">
        <ele>196</ele>
        <time>2018-02-20T08:04:50.000Z</time>
      </trkpt>
      <trkpt lat="43.52538" lon="5.51035">
        <ele>195</ele>
        <time>2018-02-20T08:04:51.000Z</time>
      </trkpt>
      <trkpt lat="43.52538" lon="5.51035">
        <ele>195</ele>
        <time>2018-02-20T08:04:52.000Z</time>
      </trkpt>
      <trkpt lat="43.52538" lon="5.51036">
        <ele>194</ele>
        <time>2018-02-20T08:04:53.000Z</time>
      </trkpt>
      <trkpt lat="43.52538" lon="5.51036">
        <ele>194</ele>
        <time>2018-02-20T08:04:54.000Z</time>
      </trkpt>
      <trkpt lat="43.52538" lon="5.51036">
        <ele>193</ele>
        <time>2018-02-20T08:04:55.000Z</time>
      </trkpt>
      <trkpt lat="43.52537" lon="5.51037">
        <ele>193</ele>
        <time>2018-02-20T08:04:56.000Z</time>
      </trkpt>
      <trkpt lat="43.52537" lon="5.51037">
        <ele>192</ele>
        <time>2018-02-20T08:04:57.000Z</time>
      </trkpt>
      <trkpt lat="43.52537" lon="5.51038">
        <ele>192</ele>
        <time>2018-02-20T08:04:58.000Z</time>
      </trkpt>
      <trkpt lat="43.52537" lon="5.51038">
        <ele>191</ele>
        <time>2018-02-20T08:04:59.000Z</time>
      </trkpt>
      <trkpt lat="43.52537" lon="5.51038">
        <ele>191</ele>
        <time>2018-02-20T08:05:00.000Z</time>
      </trkpt>
      <trkpt lat="43.52537" lon="5.51039">
        <ele>191</ele>
        <time>2018-02-20T08:05:01.000Z</time>
      </trkpt>
      <trkpt lat="43.52537" lon="5.51041">
        <ele>191</ele>
        <time>2018-02-20T08:05:02.000Z</time>
      </trkpt>
      <trkpt lat="43.52537" lon="5.51042">
        <ele>191</ele>
        <time>2018-02-20T08:05:03.000Z</time>
      </trkpt>
      <trkpt lat="43.52536" lon="5.51043">
        <ele>190</ele>
        <time>2018-02-20T08:05:04.000Z</time>
      </trkpt>
      <trkpt lat="43.52536" lon="5.51044">
        <ele>190</ele>
        <time>2018-02-20T08:05:05.000Z</time>
      </trkpt>
      <trkpt lat="43.52536" lon="5.51045">
        <ele>190</ele>
        <time>2018-02-20T08:05:06.000Z</time>
      </trkpt>
      <trkpt lat="43.52536" lon="5.51047">
        <ele>190</ele>
        <time>2018-02-20T08:05:07.000Z</time>
      </trkpt>
      <trkpt lat="43.52535" lon="5.51048">
        <ele>190</ele>
        <time>2018-02-20T08:05:08.000Z</time>
      </trkpt>
      <trkpt lat="43.52535" lon="5.51049">
        <ele>190</ele>
        <time>2018-02-20T08:05:09.000Z</time>
      </trkpt>
      <trkpt lat="43.52535" lon="5.51051">
        <ele>190</ele>
        <time>2018-02-20T08:05:10.000Z</time>
      </trkpt>
      <trkpt lat="43.52535" lon="5.51052">
        <ele>190</ele>
        <time>2018-02-20T08:05:11.000Z</time>
      </trkpt>
      <trkpt lat="43.52535" lon="5.51053">
        <ele>190</ele>
        <time>2018-02-20T08:05:12.000Z</time>
      </trkpt>
      <trkpt lat="43.52535" lon="5.51054">
        <ele>190</ele>
        <time>2018-02-20T08:05:13.000Z</time>
      </trkpt>
      <trkpt lat="43.52535" lon="5.51055">
        <ele>190</ele>
        <time>2018-02-20T08:05:14.000Z</time>
      </trkpt>
      <trkpt lat="43.52534" lon="5.51056">
        <ele>190</ele>
        <time>2018-02-20T08:05:15.000Z</time>
      </trkpt>
      <trkpt lat="43.52534" lon="5.51058">
        <ele>190</ele>
        <time>2018-02-20T08:05:16.000Z</time>
      </trkpt>
      <trkpt lat="43.52534" lon="5.51059">
        <ele>190</ele>
        <time>2018-02-20T08:05:17.000Z</time>
      </trkpt>
      <trkpt lat="43.52534" lon="5.5106">
        <ele>190</ele>
        <time>2018-02-20T08:05:18.000Z</time>
      </trkpt>
      <trkpt lat="43.52533" lon="5.51061">
        <ele>190</ele>
        <time>2018-02-20T08:05:19.000Z</time>
      </trkpt>
      <trkpt lat="43.52533" lon="5.51063">
        <ele>190</ele>
        <time>2018-02-20T08:05:20.000Z</time>
      </trkpt>
      <trkpt lat="43.52533" lon="5.51064">
        <ele>190</ele>
        <time>2018-02-20T08:05:21.000Z</time>
      </trkpt>
      <trkpt lat="43.52533" lon="5.51065">
        <ele>190</ele>
        <time>2018-02-20T08:05:22.000Z</time>
      </trkpt>
      <trkpt lat="43.52532" lon="5.51067">
        <ele>191</ele>
        <time>2018-02-20T08:05:23.000Z</time>
      </trkpt>
      <trkpt lat="43.52532" lon="5.51068">
        <ele>191</ele>
        <time>2018-02-20T08:05:24.000Z</time>
      </trkpt>
      <trkpt lat="43.52532" lon="5.51068">
        <ele>191</ele>
        <time>2018-02-20T08:05:25.000Z</time>
      </trkpt>
      <trkpt lat="43.52531" lon="5.51069">
        <ele>191</ele>
        <time>2018-02-20T08:05:26.000Z</time>
      </trkpt>
      <trkpt lat="43.52531" lon="5.51069">
        <ele>192</ele>
        <time>2018-02-20T08:05:27.000Z</time>
      </trkpt>
      <trkpt lat="43.52531" lon="5.5107">
        <ele>192</ele>
        <time>2018-02-20T08:05:28.000Z</time>
      </trkpt>
      <trkpt lat="43.5253" lon="5.5107">
        <ele>192</ele>
        <time>2018-02-20T08:05:29.000Z</time>
      </trkpt>
      <trkpt lat="43.5253" lon="5.5107">
        <ele>192</ele>
        <time>2018-02-20T08:05:30.000Z</time>
      </trkpt>
      <trkpt lat="43.5253" lon="5.5107">
        <ele>192</ele>
        <time>2018-02-20T08:05:31.000Z</time>
      </trkpt>
      <trkpt lat="43.5253" lon="5.5107">
        <ele>192</ele>
        <time>2018-02-20T08:05:32.000Z</time>
      </trkpt>
      <trkpt lat="43.5253" lon="5.51071">
        <ele>193</ele>
        <time>2018-02-20T08:05:33.000Z</time>
      </trkpt>
      <trkpt lat="43.5253" lon="5.51071">
        <ele>193</ele>
        <time>2018-02-20T08:05:34.000Z</time>
      </trkpt>
      <trkpt lat="43.5253" lon="5.51071">
        <ele>193</ele>
        <time>2018-02-20T08:05:35.000Z</time>
      </trkpt>
      <trkpt lat="43.5253" lon="5.51072">
        <ele>193</ele>
        <time>2018-02-20T08:05:36.000Z</time>
      </trkpt>
      <trkpt lat="43.5253" lon="5.51072">
        <ele>194</ele>
        <time>2018-02-20T08:05:37.000Z</time>
      </trkpt>
      <trkpt lat="43.5253" lon="5.51072">
        <ele>194</ele>
        <time>2018-02-20T08:05:38.000Z</time>
      </trkpt>
      <trkpt lat="43.52531" lon="5.51072">
        <ele>194</ele>
        <time>2018-02-20T08:05:39.000Z</time>
      </trkpt>
      <trkpt lat="43.52531" lon="5.51072">
        <ele>194</ele>
        <time>2018-02-20T08:05:40.000Z</time>
      </trkpt>
      <trkpt lat="43.52531" lon="5.51073">
        <ele>194</ele>
        <time>2018-02-20T08:05:41.000Z</time>
      </trkpt>
      <trkpt lat="43.52531" lon="5.51073">
        <ele>194</ele>
        <time>2018-02-20T08:05:42.000Z</time>
      </trkpt>
      <trkpt lat="43.52531" lon="5.51073">
        <ele>195</ele>
        <time>2018-02-20T08:05:43.000Z</time>
      </trkpt>
      <trkpt lat="43.52531" lon="5.51073">
        <ele>195</ele>
        <time>2018-02-20T08:05:44.000Z</time>
      </trkpt>
      <trkpt lat="43.52531" lon="5.51073">
        <ele>195</ele>
        <time>2018-02-20T08:05:45.000Z</time>
      </trkpt>
      <trkpt lat="43.52532" lon="5.51073">
        <ele>195</ele>
        <time>2018-02-20T08:05:46.000Z</time>
      </trkpt>
      <trkpt lat="43.52532" lon="5.51073">
        <ele>195</ele>
        <time>2018-02-20T08:05:47.000Z</time>
      </trkpt>
      <trkpt lat="43.52532" lon="5.51073">
        <ele>195</ele>
        <time>2018-02-20T08:05:48.000Z</time>
      </trkpt>
      <trkpt lat="43.52532" lon="5.51074">
        <ele>196</ele>
        <time>2018-02-20T08:05:49.000Z</time>
      </trkpt>
      <trkpt lat="43.52532" lon="5.51074">
        <ele>196</ele>
        <time>2018-02-20T08:05:50.000Z</time>
      </trkpt>
      <trkpt lat="43.52532" lon="5.51074">
        <ele>196</ele>
        <time>2018-02-20T08:05:51.000Z</time>
      </trkpt>
      <trkpt lat="43.52532" lon="5.51074">
        <ele>196</ele>
        <time>2018-02-20T08:05:52.000Z</time>
      </trkpt>
      <trkpt lat="43.52533" lon="5.51074">
        <ele>196</ele>
        <time>2018-02-20T08:05:53.000Z</time>
      </trkpt>
      <trkpt lat="43.52533" lon="5.51074">
        <ele>196</ele>
        <time>2018-02-20T08:05:54.000Z</time>
      </trkpt>
      <trkpt lat="43.52533" lon="5.51074">
        <ele>197</ele>
        <time>2018-02-20T08:05:55.000Z</time>
      </trkpt>
      <trkpt lat="43.52533" lon="5.51074">
        <ele>197</ele>
        <time>2018-02-20T08:05:56.000Z</time>
      </trkpt>
      <trkpt lat="43.52534" lon="5.51074">
        <ele>197</ele>
        <time>2018-02-20T08:05:57.000Z</time>
      </trkpt>
      <trkpt lat="43.52534" lon="5.51074">
        <ele>197</ele>
        <time>2018-02-20T08:05:58.000Z</time>
      </trkpt>
      <trkpt lat="43.52534" lon="5.51074">
        <ele>197</ele>
        <time>2018-02-20T08:05:59.000Z</time>
      </trkpt>
      <trkpt lat="43.52535" lon="5.51074">
        <ele>197</ele>
        <time>2018-02-20T08:06:00.000Z</time>
      </trkpt>
      <trkpt lat="43.52535" lon="5.51074">
        <ele>197</ele>
        <time>2018-02-20T08:06:01.000Z</time>
      </trkpt>
      <trkpt lat="43.52535" lon="5.51073">
        <ele>197</ele>
        <time>2018-02-20T08:06:02.000Z</time>
      </trkpt>
      <trkpt lat="43.52535" lon="5.51073">
        <ele>197</ele>
        <time>2018-02-20T08:06:03.000Z</time>
      </trkpt>
      <trkpt lat="43.52536" lon="5.51073">
        <ele>197</ele>
        <time>2018-02-20T08:06:04.000Z</time>
      </trkpt>
      <trkpt lat="43.52536" lon="5.51073">
        <ele>197</ele>
        <time>2018-02-20T08:06:05.000Z</time>
      </trkpt>
      <trkpt lat="43.52536" lon="5.51073">
        <ele>197</ele>
        <time>2018-02-20T08:06:06.000Z</time>
      </trkpt>
      <trkpt lat="43.52537" lon="5.51073">
        <ele>198</ele>
        <time>2018-02-20T08:06:07.000Z</time>
      </trkpt>
      <trkpt lat="43.52537" lon="5.51073">
        <ele>198</ele>
        <time>2018-02-20T08:06:08.000Z</time>
      </trkpt>
      <trkpt lat="43.52537" lon="5.51073">
        <ele>198</ele>
        <time>2018-02-20T08:06:09.000Z</time>
      </trkpt>
      <trkpt lat="43.52537" lon="5.51073">
        <ele>198</ele>
        <time>2018-02-20T08:06:10.000Z</time>
      </trkpt>
      <trkpt lat="43.52537" lon="5.51073">
        <ele>198</ele>
        <time>2018-02-20T08:06:11.000Z</time>
      </trkpt>
      <trkpt lat="43.52538" lon="5.51072">
        <ele>198</ele>
        <time>2018-02-20T08:06:12.000Z</time>
      </trkpt>
      <trkpt lat="43.52538" lon="5.51073">
        <ele>198</ele>
        <time>2018-02-20T08:06:13.000Z</time>
      </trkpt>
      <trkpt lat="43.52538" lon="5.51073">
        <ele>199</ele>
        <time>2018-02-20T08:06:14.000Z</time>
      </trkpt>
      <trkpt lat="43.52538" lon="5.51073">
        <ele>199</ele>
        <time>2018-02-20T08:06:15.000Z</time>
      </trkpt>
      <trkpt lat="43.52537" lon="5.51073">
        <ele>199</ele>
        <time>2018-02-20T08:06:16.000Z</time>
      </trkpt>
      <trkpt lat="43.52537" lon="5.51073">
        <ele>199</ele>
        <time>2018-02-20T08:06:17.000Z</time>
      </trkpt>
      <trkpt lat="43.52537" lon="5.51073">
        <ele>200</ele>
        <time>2018-02-20T08:06:18.000Z</time>
      </trkpt>
      <trkpt lat="43.52537" lon="5.51073">
        <ele>200</ele>
        <time>2018-02-20T08:06:19.000Z</time>
      </trkpt>
      <trkpt lat="43.52538" lon="5.51073">
        <ele>200</ele>
        <time>2018-02-20T08:06:20.000Z</time>
      </trkpt>
      <trkpt lat="43.52538" lon="5.51073">
        <ele>200</ele>
        <time>2018-02-20T08:06:21.000Z</time>
      </trkpt>
      <trkpt lat="43.52538" lon="5.51072">
        <ele>200</ele>
        <time>2018-02-20T08:06:22.000Z</time>
      </trkpt>
      <trkpt lat="43.52538" lon="5.51072">
        <ele>200</ele>
        <time>2018-02-20T08:06:23.000Z</time>
      </trkpt>
      <trkpt lat="43.52538" lon="5.51072">
        <ele>200</ele>
        <time>2018-02-20T08:06:24.000Z</time>
      </trkpt>
      <trkpt lat="43.52538" lon="5.51071">
        <ele>201</ele>
        <time>2018-02-20T08:06:25.000Z</time>
      </trkpt>
      <trkpt lat="43.52538" lon="5.51071">
        <ele>201</ele>
        <time>2018-02-20T08:06:26.000Z</time>
      </trkpt>
      <trkpt lat="43.52539" lon="5.5107">
        <ele>201</ele>
        <time>2018-02-20T08:06:27.000Z</time>
      </trkpt>
      <trkpt lat="43.52539" lon="5.51068">
        <ele>201</ele>
        <time>2018-02-20T08:06:28.000Z</time>
      </trkpt>
      <trkpt lat="43.52539" lon="5.51067">
        <ele>201</ele>
        <time>2018-02-20T08:06:29.000Z</time>
      </trkpt>
      <trkpt lat="43.5254" lon="5.51066">
        <ele>201</ele>
        <time>2018-02-20T08:06:30.000Z</time>
      </trkpt>
      <trkpt lat="43.5254" lon="5.51065">
        <ele>201</ele>
        <time>2018-02-20T08:06:31.000Z</time>
      </trkpt>
      <trkpt lat="43.52541" lon="5.51065">
        <ele>201</ele>
        <time>2018-02-20T08:06:32.000Z</time>
      </trkpt>
      <trkpt lat="43.52541" lon="5.51065">
        <ele>201</ele>
        <time>2018-02-20T08:06:33.000Z</time>
      </trkpt>
      <trkpt lat="43.52542" lon="5.51065">
        <ele>200</ele>
        <time>2018-02-20T08:06:34.000Z</time>
      </trkpt>
      <trkpt lat="43.52542" lon="5.51065">
        <ele>200</ele>
        <time>2018-02-20T08:06:35.000Z</time>
      </trkpt>
      <trkpt lat="43.52543" lon="5.51066">
        <ele>200</ele>
        <time>2018-02-20T08:06:36.000Z</time>
      </trkpt>
      <trkpt lat="43.52543" lon="5.51066">
        <ele>200</ele>
        <time>2018-02-20T08:06:37.000Z</time>
      </trkpt>
      <trkpt lat="43.52543" lon="5.51066">
        <ele>199</ele>
        <time>2018-02-20T08:06:38.000Z</time>
      </trkpt>
      <trkpt lat="43.52543" lon="5.51066">
        <ele>199</ele>
        <time>2018-02-20T08:06:39.000Z</time>
      </trkpt>
      <trkpt lat="43.52543" lon="5.51066">
        <ele>199</ele>
        <time>2018-02-20T08:06:40.000Z</time>
      </trkpt>
      <trkpt lat="43.52543" lon="5.51066">
        <ele>198</ele>
        <time>2018-02-20T08:06:41.000Z</time>
      </trkpt>
      <trkpt lat="43.52543" lon="5.51066">
        <ele>198</ele>
        <time>2018-02-20T08:06:42.000Z</time>
      </trkpt>
      <trkpt lat="43.52543" lon="5.51067">
        <ele>197</ele>
        <time>2018-02-20T08:06:43.000Z</time>
      </trkpt>
      <trkpt lat="43.52543" lon="5.51067">
        <ele>197</ele>
        <time>2018-02-20T08:06:44.000Z</time>
      </trkpt>
      <trkpt lat="43.52543" lon="5.51068">
        <ele>197</ele>
        <time>2018-02-20T08:06:45.000Z</time>
      </trkpt>
      <trkpt lat="43.52543" lon="5.51068">
        <ele>196</ele>
        <time>2018-02-20T08:06:46.000Z</time>
      </trkpt>
      <trkpt lat="43.52542" lon="5.51068">
        <ele>196</ele>
        <time>2018-02-20T08:06:47.000Z</time>
      </trkpt>
      <trkpt lat="43.52542" lon="5.51069">
        <ele>196</ele>
        <time>2018-02-20T08:06:48.000Z</time>
      </trkpt>
      <trkpt lat="43.52542" lon="5.51069">
        <ele>196</ele>
        <time>2018-02-20T08:06:49.000Z</time>
      </trkpt>
      <trkpt lat="43.52542" lon="5.51069">
        <ele>195</ele>
        <time>2018-02-20T08:06:50.000Z</time>
      </trkpt>
      <trkpt lat="43.52542" lon="5.51069">
        <ele>195</ele>
        <time>2018-02-20T08:06:51.000Z</time>
      </trkpt>
      <trkpt lat="43.52542" lon="5.5107">
        <ele>195</ele>
        <time>2018-02-20T08:06:52.000Z</time>
      </trkpt>
      <trkpt lat="43.52542" lon="5.5107">
        <ele>195</ele>
        <time>2018-02-20T08:06:53.000Z</time>
      </trkpt>
      <trkpt lat="43.52542" lon="5.5107">
        <ele>194</ele>
        <time>2018-02-20T08:06:54.000Z</time>
      </trkpt>
      <trkpt lat="43.52542" lon="5.5107">
        <ele>194</ele>
        <time>2018-02-20T08:06:55.000Z</time>
      </trkpt>
      <trkpt lat="43.52541" lon="5.5107">
        <ele>194</ele>
        <time>2018-02-20T08:06:56.000Z</time>
      </trkpt>
      <trkpt lat="43.52541" lon="5.51071">
        <ele>194</ele>
        <time>2018-02-20T08:06:57.000Z</time>
      </trkpt>
      <trkpt lat="43.52541" lon="5.51071">
        <ele>194</ele>
        <time>2018-02-20T08:06:58.000Z</time>
      </trkpt>
      <trkpt lat="43.52541" lon="5.51072">
        <ele>193</ele>
        <time>2018-02-20T08:06:59.000Z</time>
      </trkpt>
      <trkpt lat="43.52541" lon="5.51073">
        <ele>193</ele>
        <time>2018-02-20T08:07:00.000Z</time>
      </trkpt>
      <trkpt lat="43.52541" lon="5.51074">
        <ele>193</ele>
        <time>2018-02-20T08:07:01.000Z</time>
      </trkpt>
      <trkpt lat="43.52542" lon="5.51076">
        <ele>193</ele>
        <time>2018-02-20T08:07:02.000Z</time>
      </trkpt>
      <trkpt lat="43.52542" lon="5.51076">
        <ele>193</ele>
        <time>2018-02-20T08:07:03.000Z</time>
      </trkpt>
      <trkpt lat="43.52542" lon="5.51077">
        <ele>193</ele>
        <time>2018-02-20T08:07:04.000Z</time>
      </trkpt>
      <trkpt lat="43.52541" lon="5.51077">
        <ele>193</ele>
        <time>2018-02-20T08:07:05.000Z</time>
      </trkpt>
      <trkpt lat="43.52541" lon="5.51077">
        <ele>193</ele>
        <time>2018-02-20T08:07:06.000Z</time>
      </trkpt>
      <trkpt lat="43.5254" lon="5.51076">
        <ele>193</ele>
        <time>2018-02-20T08:07:07.000Z</time>
      </trkpt>
      <trkpt lat="43.52539" lon="5.51076">
        <ele>192</ele>
        <time>2018-02-20T08:07:08.000Z</time>
      </trkpt>
      <trkpt lat="43.52539" lon="5.51075">
        <ele>192</ele>
        <time>2018-02-20T08:07:09.000Z</time>
      </trkpt>
      <trkpt lat="43.52538" lon="5.51075">
        <ele>192</ele>
        <time>2018-02-20T08:07:10.000Z</time>
      </trkpt>
      <trkpt lat="43.52537" lon="5.51075">
        <ele>192</ele>
        <time>2018-02-20T08:07:11.000Z</time>
      </trkpt>
      <trkpt lat="43.52536" lon="5.51074">
        <ele>192</ele>
        <time>2018-02-20T08:07:12.000Z</time>
      </trkpt>
      <trkpt lat="43.52535" lon="5.51074">
        <ele>192</ele>
        <time>2018-02-20T08:07:13.000Z</time>
      </trkpt>
      <trkpt lat="43.52534" lon="5.51073">
        <ele>192</ele>
        <time>2018-02-20T08:07:14.000Z</time>
      </trkpt>
      <trkpt lat="43.52534" lon="5.51073">
        <ele>191</ele>
        <time>2018-02-20T08:07:15.000Z</time>
      </trkpt>
      <trkpt lat="43.52534" lon="5.51072">
        <ele>191</ele>
        <time>2018-02-20T08:07:16.000Z</time>
      </trkpt>
      <trkpt lat="43.52534" lon="5.51071">
        <ele>191</ele>
        <time>2018-02-20T08:07:17.000Z</time>
      </trkpt>
      <trkpt lat="43.52533" lon="5.51071">
        <ele>191</ele>
        <time>2018-02-20T08:07:18.000Z</time>
      </trkpt>
      <trkpt lat="43.52533" lon="5.51071">
        <ele>191</ele>
        <time>2018-02-20T08:07:19.000Z</time>
      </trkpt>
      <trkpt lat="43.52534" lon="5.5107">
        <ele>191</ele>
        <time>2018-02-20T08:07:20.000Z</time>
      </trkpt>
      <trkpt lat="43.52534" lon="5.5107">
        <ele>191</ele>
        <time>2018-02-20T08:07:21.000Z</time>
      </trkpt>
      <trkpt lat="43.52534" lon="5.51071">
        <ele>191</ele>
        <time>2018-02-20T08:07:22.000Z</time>
      </trkpt>
      <trkpt lat="43.52534" lon="5.51071">
        <ele>191</ele>
        <time>2018-02-20T08:07:23.000Z</time>
      </trkpt>
      <trkpt lat="43.52533" lon="5.51071">
        <ele>191</ele>
        <time>2018-02-20T08:07:24.000Z</time>
      </trkpt>
      <trkpt lat="43.52533" lon="5.51071">
        <ele>191</ele>
        <time>2018-02-20T08:07:25.000Z</time>
      </trkpt>
      <trkpt lat="43.52532" lon="5.51071">
        <ele>191</ele>
        <time>2018-02-20T08:07:26.000Z</time>
      </trkpt>
      <trkpt lat="43.52532" lon="5.51071">
        <ele>191</ele>
        <time>2018-02-20T08:07:27.000Z</time>
      </trkpt>
      <trkpt lat="43.52532" lon="5.51071">
        <ele>191</ele>
        <time>2018-02-20T08:07:28.000Z</time>
      </trkpt>
      <trkpt lat="43.52532" lon="5.51071">
        <ele>191</ele>
        <time>2018-02-20T08:07:29.000Z</time>
      </trkpt>
      <trkpt lat="43.52532" lon="5.51071">
        <ele>191</ele>
        <time>2018-02-20T08:07:30.000Z</time>
      </trkpt>
      <trkpt lat="43.52532" lon="5.51071">
        <ele>191</ele>
        <time>2018-02-20T08:07:31.000Z</time>
      </trkpt>
      <trkpt lat="43.52532" lon="5.51071">
        <ele>191</ele>
        <time>2018-02-20T08:07:32.000Z</time>
      </trkpt>
      <trkpt lat="43.52532" lon="5.51071">
        <ele>191</ele>
        <time>2018-02-20T08:07:33.000Z</time>
      </trkpt>
      <trkpt lat="43.52532" lon="5.51071">
        <ele>191</ele>
        <time>2018-02-20T08:07:34.000Z</time>
      </trkpt>
      <trkpt lat="43.52532" lon="5.51071">
        <ele>191</ele>
        <time>2018-02-20T08:07:35.000Z</time>
      </trkpt>
      <trkpt lat="43.52532" lon="5.51071">
        <ele>191</ele>
        <time>2018-02-20T08:07:36.000Z</time>
      </trkpt>
      <trkpt lat="43.52532" lon="5.51071">
        <ele>191</ele>
        <time>2018-02-20T08:07:37.000Z</time>
      </trkpt>
      <trkpt lat="43.52532" lon="5.51071">
        <ele>191</ele>
        <time>2018-02-20T08:07:38.000Z</time>
      </trkpt>
      <trkpt lat="43.52532" lon="5.51071">
        <ele>191</ele>
        <time>2018-02-20T08:07:39.000Z</time>
      </trkpt>
      <trkpt lat="43.52532" lon="5.51071">
        <ele>191</ele>
        <time>2018-02-20T08:07:40.000Z</time>
      </trkpt>
      <trkpt lat="43.52532" lon="5.51071">
        <ele>191</ele>
        <time>2018-02-20T08:07:41.000Z</time>
      </trkpt>
      <trkpt lat="43.52532" lon="5.51071">
        <ele>191</ele>
        <time>2018-02-20T08:07:42.000Z</time>
      </trkpt>
      <trkpt lat="43.52532" lon="5.51071">
        <ele>191</ele>
        <time>2018-02-20T08:07:43.000Z</time>
      </trkpt>
      <trkpt lat="43.52532" lon="5.51071">
        <ele>191</ele>
        <time>2018-02-20T08:07:44.000Z</time>
      </trkpt>
      <trkpt lat="43.52532" lon="5.51071">
        <ele>190</ele>
        <time>2018-02-20T08:07:45.000Z</time>
      </trkpt>
      <trkpt lat="43.52532" lon="5.51072">
        <ele>190</ele>
        <time>2018-02-20T08:07:46.000Z</time>
      </trkpt>
      <trkpt lat="43.52532" lon="5.51072">
        <ele>190</ele>
        <time>2018-02-20T08:07:47.000Z</time>
      </trkpt>
      <trkpt lat="43.52532" lon="5.51072">
        <ele>190</ele>
        <time>2018-02-20T08:07:48.000Z</time>
      </trkpt>
      <trkpt lat="43.52532" lon="5.51072">
        <ele>190</ele>
        <time>2018-02-20T08:07:49.000Z</time>
      </trkpt>
      <trkpt lat="43.52532" lon="5.51072">
        <ele>190</ele>
        <time>2018-02-20T08:07:50.000Z</time>
      </trkpt>
      <trkpt lat="43.52533" lon="5.51073">
        <ele>190</ele>
        <time>2018-02-20T08:07:51.000Z</time>
      </trkpt>
      <trkpt lat="43.52533" lon="5.51073">
        <ele>190</ele>
        <time>2018-02-20T08:07:52.000Z</time>
      </trkpt>
      <trkpt lat="43.52533" lon="5.51073">
        <ele>190</ele>
        <time>2018-02-20T08:07:53.000Z</time>
      </trkpt>
      <trkpt lat="43.52533" lon="5.51073">
        <ele>190</ele>
        <time>2018-02-20T08:07:54.000Z</time>
      </trkpt>
      <trkpt lat="43.52533" lon="5.51073">
        <ele>190</ele>
        <time>2018-02-20T08:07:55.000Z</time>
      </trkpt>
      <trkpt lat="43.52533" lon="5.51074">
        <ele>190</ele>
        <time>2018-02-20T08:07:56.000Z</time>
      </trkpt>
      <trkpt lat="43.52534" lon="5.51074">
        <ele>190</ele>
        <time>2018-02-20T08:07:57.000Z</time>
      </trkpt>
      <trkpt lat="43.52534" lon="5.51074">
        <ele>190</ele>
        <time>2018-02-20T08:07:58.000Z</time>
      </trkpt>
      <trkpt lat="43.52534" lon="5.51074">
        <ele>190</ele>
        <time>2018-02-20T08:07:59.000Z</time>
      </trkpt>
      <trkpt lat="43.52534" lon="5.51074">
        <ele>190</ele>
        <time>2018-02-20T08:08:00.000Z</time>
      </trkpt>
      <trkpt lat="43.52534" lon="5.51074">
        <ele>190</ele>
        <time>2018-02-20T08:08:01.000Z</time>
      </trkpt>
      <trkpt lat="43.52534" lon="5.51074">
        <ele>190</ele>
        <time>2018-02-20T08:08:02.000Z</time>
      </trkpt>
      <trkpt lat="43.52534" lon="5.51074">
        <ele>190</ele>
        <time>2018-02-20T08:08:03.000Z</time>
      </trkpt>
      <trkpt lat="43.52534" lon="5.51074">
        <ele>191</ele>
        <time>2018-02-20T08:08:04.000Z</time>
      </trkpt>
      <trkpt lat="43.52534" lon="5.51074">
        <ele>191</ele>
        <time>2018-02-20T08:08:05.000Z</time>
      </trkpt>
      <trkpt lat="43.52534" lon="5.51074">
        <ele>191</ele>
        <time>2018-02-20T08:08:06.000Z</time>
      </trkpt>
      <trkpt lat="43.52534" lon="5.51074">
        <ele>191</ele>
        <time>2018-02-20T08:08:07.000Z</time>
      </trkpt>
      <trkpt lat="43.52534" lon="5.51074">
        <ele>191</ele>
        <time>2018-02-20T08:08:08.000Z</time>
      </trkpt>
      <trkpt lat="43.52534" lon="5.51074">
        <ele>191</ele>
        <time>2018-02-20T08:08:09.000Z</time>
      </trkpt>
      <trkpt lat="43.52534" lon="5.51074">
        <ele>191</ele>
        <time>2018-02-20T08:08:10.000Z</time>
      </trkpt>
      <trkpt lat="43.52534" lon="5.51074">
        <ele>191</ele>
        <time>2018-02-20T08:08:11.000Z</time>
      </trkpt>
      <trkpt lat="43.52534" lon="5.51074">
        <ele>191</ele>
        <time>2018-02-20T08:08:12.000Z</time>
      </trkpt>
      <trkpt lat="43.52534" lon="5.51074">
        <ele>191</ele>
        <time>2018-02-20T08:08:13.000Z</time>
      </trkpt>
      <trkpt lat="43.52534" lon="5.51075">
        <ele>190</ele>
        <time>2018-02-20T08:08:14.000Z</time>
      </trkpt>
      <trkpt lat="43.52535" lon="5.51075">
        <ele>190</ele>
        <time>2018-02-20T08:08:15.000Z</time>
      </trkpt>
      <trkpt lat="43.52535" lon="5.51076">
        <ele>190</ele>
        <time>2018-02-20T08:08:16.000Z</time>
      </trkpt>
      <trkpt lat="43.52536" lon="5.51076">
        <ele>190</ele>
        <time>2018-02-20T08:08:17.000Z</time>
      </trkpt>
      <trkpt lat="43.52537" lon="5.51077">
        <ele>190</ele>
        <time>2018-02-20T08:08:18.000Z</time>
      </trkpt>
      <trkpt lat="43.52537" lon="5.51077">
        <ele>190</ele>
        <time>2018-02-20T08:08:19.000Z</time>
      </trkpt>
      <trkpt lat="43.52538" lon="5.51078">
        <ele>189</ele>
        <time>2018-02-20T08:08:20.000Z</time>
      </trkpt>
      <trkpt lat="43.52538" lon="5.51079">
        <ele>189</ele>
        <time>2018-02-20T08:08:21.000Z</time>
      </trkpt>
      <trkpt lat="43.52538" lon="5.5108">
        <ele>189</ele>
        <time>2018-02-20T08:08:22.000Z</time>
      </trkpt>
      <trkpt lat="43.52538" lon="5.51081">
        <ele>189</ele>
        <time>2018-02-20T08:08:23.000Z</time>
      </trkpt>
      <trkpt lat="43.52537" lon="5.51081">
        <ele>188</ele>
        <time>2018-02-20T08:08:24.000Z</time>
      </trkpt>
      <trkpt lat="43.52537" lon="5.51082">
        <ele>188</ele>
        <time>2018-02-20T08:08:25.000Z</time>
      </trkpt>
      <trkpt lat="43.52537" lon="5.51083">
        <ele>188</ele>
        <time>2018-02-20T08:08:26.000Z</time>
      </trkpt>
      <trkpt lat="43.52537" lon="5.51084">
        <ele>188</ele>
        <time>2018-02-20T08:08:27.000Z</time>
      </trkpt>
      <trkpt lat="43.52536" lon="5.51084">
        <ele>188</ele>
        <time>2018-02-20T08:08:28.000Z</time>
      </trkpt>
      <trkpt lat="43.52536" lon="5.51084">
        <ele>188</ele>
        <time>2018-02-20T08:08:29.000Z</time>
      </trkpt>
      <trkpt lat="43.52536" lon="5.51084">
        <ele>188</ele>
        <time>2018-02-20T08:08:30.000Z</time>
      </trkpt>
      <trkpt lat="43.52536" lon="5.51084">
        <ele>188</ele>
        <time>2018-02-20T08:08:31.000Z</time>
      </trkpt>
      <trkpt lat="43.52536" lon="5.51084">
        <ele>188</ele>
        <time>2018-02-20T08:08:32.000Z</time>
      </trkpt>
      <trkpt lat="43.52536" lon="5.51085">
        <ele>188</ele>
        <time>2018-02-20T08:08:33.000Z</time>
      </trkpt>
      <trkpt lat="43.52536" lon="5.51085">
        <ele>188</ele>
        <time>2018-02-20T08:08:34.000Z</time>
      </trkpt>
      <trkpt lat="43.52536" lon="5.51085">
        <ele>188</ele>
        <time>2018-02-20T08:08:35.000Z</time>
      </trkpt>
      <trkpt lat="43.52536" lon="5.51085">
        <ele>188</ele>
        <time>2018-02-20T08:08:36.000Z</time>
      </trkpt>
      <trkpt lat="43.52536" lon="5.51085">
        <ele>188</ele>
        <time>2018-02-20T08:08:37.000Z</time>
      </trkpt>
      <trkpt lat="43.52536" lon="5.51085">
        <ele>188</ele>
        <time>2018-02-20T08:08:38.000Z</time>
      </trkpt>
      <trkpt lat="43.52536" lon="5.51085">
        <ele>188</ele>
        <time>2018-02-20T08:08:39.000Z</time>
      </trkpt>
      <trkpt lat="43.52536" lon="5.51086">
        <ele>188</ele>
        <time>2018-02-20T08:08:40.000Z</time>
      </trkpt>
      <trkpt lat="43.52536" lon="5.51086">
        <ele>188</ele>
        <time>2018-02-20T08:08:41.000Z</time>
      </trkpt>
      <trkpt lat="43.52536" lon="5.51086">
        <ele>188</ele>
        <time>2018-02-20T08:08:42.000Z</time>
      </trkpt>
      <trkpt lat="43.52536" lon="5.51086">
        <ele>188</ele>
        <time>2018-02-20T08:08:43.000Z</time>
      </trkpt>
      <trkpt lat="43.52536" lon="5.51086">
        <ele>188</ele>
        <time>2018-02-20T08:08:44.000Z</time>
      </trkpt>
      <trkpt lat="43.52536" lon="5.51086">
        <ele>188</ele>
        <time>2018-02-20T08:08:45.000Z</time>
      </trkpt>
      <trkpt lat="43.52536" lon="5.51086">
        <ele>188</ele>
        <time>2018-02-20T08:08:46.000Z</time>
      </trkpt>
      <trkpt lat="43.52536" lon="5.51086">
        <ele>188</ele>
        <time>2018-02-20T08:08:47.000Z</time>
      </trkpt>
      <trkpt lat="43.52536" lon="5.51086">
        <ele>188</ele>
        <time>2018-02-20T08:08:48.000Z</time>
      </trkpt>
      <trkpt lat="43.52536" lon="5.51086">
        <ele>188</ele>
        <time>2018-02-20T08:08:49.000Z</time>
      </trkpt>
      <trkpt lat="43.52536" lon="5.51086">
        <ele>188</ele>
        <time>2018-02-20T08:08:50.000Z</time>
      </trkpt>
      <trkpt lat="43.52536" lon="5.51086">
        <ele>188</ele>
        <time>2018-02-20T08:08:51.000Z</time>
      </trkpt>
      <trkpt lat="43.52536" lon="5.51086">
        <ele>188</ele>
        <time>2018-02-20T08:08:52.000Z</time>
      </trkpt>
      <trkpt lat="43.52536" lon="5.51086">
        <ele>188</ele>
        <time>2018-02-20T08:08:53.000Z</time>
      </trkpt>
      <trkpt lat="43.52536" lon="5.51086">
        <ele>188</ele>
        <time>2018-02-20T08:08:54.000Z</time>
      </trkpt>
      <trkpt lat="43.52536" lon="5.51086">
        <ele>188</ele>
        <time>2018-02-20T08:08:55.000Z</time>
      </trkpt>
      <trkpt lat="43.52536" lon="5.51087">
        <ele>188</ele>
        <time>2018-02-20T08:08:56.000Z</time>
      </trkpt>
      <trkpt lat="43.52536" lon="5.51087">
        <ele>188</ele>
        <time>2018-02-20T08:08:57.000Z</time>
      </trkpt>
      <trkpt lat="43.52536" lon="5.51087">
        <ele>188</ele>
        <time>2018-02-20T08:08:58.000Z</time>
      </trkpt>
      <trkpt lat="43.52536" lon="5.51086">
        <ele>188</ele>
        <time>2018-02-20T08:08:59.000Z</time>
      </trkpt>
      <trkpt lat="43.52536" lon="5.51086">
        <ele>188</ele>
        <time>2018-02-20T08:09:00.000Z</time>
      </trkpt>
      <trkpt lat="43.52536" lon="5.51086">
        <ele>188</ele>
        <time>2018-02-20T08:09:01.000Z</time>
      </trkpt>
      <trkpt lat="43.52536" lon="5.51086">
        <ele>188</ele>
        <time>2018-02-20T08:09:02.000Z</time>
      </trkpt>
      <trkpt lat="43.52536" lon="5.51086">
        <ele>188</ele>
        <time>2018-02-20T08:09:03.000Z</time>
      </trkpt>
      <trkpt lat="43.52536" lon="5.51086">
        <ele>188</ele>
        <time>2018-02-20T08:09:04.000Z</time>
      </trkpt>
      <trkpt lat="43.52536" lon="5.51086">
        <ele>188</ele>
        <time>2018-02-20T08:09:05.000Z</time>
      </trkpt>
      <trkpt lat="43.52536" lon="5.51086">
        <ele>188</ele>
        <time>2018-02-20T08:09:06.000Z</time>
      </trkpt>
      <trkpt lat="43.52536" lon="5.51085">
        <ele>188</ele>
        <time>2018-02-20T08:09:07.000Z</time>
      </trkpt>
      <trkpt lat="43.52536" lon="5.51084">
        <ele>188</ele>
        <time>2018-02-20T08:09:08.000Z</time>
      </trkpt>
      <trkpt lat="43.52537" lon="5.51082">
        <ele>188</ele>
        <time>2018-02-20T08:09:09.000Z</time>
      </trkpt>
      <trkpt lat="43.52537" lon="5.51081">
        <ele>188</ele>
        <time>2018-02-20T08:09:10.000Z</time>
      </trkpt>
      <trkpt lat="43.52538" lon="5.5108">
        <ele>188</ele>
        <time>2018-02-20T08:09:11.000Z</time>
      </trkpt>
      <trkpt lat="43.52539" lon="5.51079">
        <ele>188</ele>
        <time>2018-02-20T08:09:12.000Z</time>
      </trkpt>
      <trkpt lat="43.5254" lon="5.51079">
        <ele>188</ele>
        <time>2018-02-20T08:09:13.000Z</time>
      </trkpt>
      <trkpt lat="43.52541" lon="5.51079">
        <ele>188</ele>
        <time>2018-02-20T08:09:14.000Z</time>
      </trkpt>
      <trkpt lat="43.52542" lon="5.51079">
        <ele>188</ele>
        <time>2018-02-20T08:09:15.000Z</time>
      </trkpt>
      <trkpt lat="43.52542" lon="5.51079">
        <ele>188</ele>
        <time>2018-02-20T08:09:16.000Z</time>
      </trkpt>
      <trkpt lat="43.52543" lon="5.5108">
        <ele>188</ele>
        <time>2018-02-20T08:09:17.000Z</time>
      </trkpt>
      <trkpt lat="43.52543" lon="5.5108">
        <ele>188</ele>
        <time>2018-02-20T08:09:18.000Z</time>
      </trkpt>
      <trkpt lat="43.52543" lon="5.5108">
        <ele>188</ele>
        <time>2018-02-20T08:09:19.000Z</time>
      </trkpt>
      <trkpt lat="43.52544" lon="5.5108">
        <ele>188</ele>
        <time>2018-02-20T08:09:20.000Z</time>
      </trkpt>
      <trkpt lat="43.52544" lon="5.5108">
        <ele>188</ele>
        <time>2018-02-20T08:09:21.000Z</time>
      </trkpt>
      <trkpt lat="43.52544" lon="5.5108">
        <ele>188</ele>
        <time>2018-02-20T08:09:22.000Z</time>
      </trkpt>
      <trkpt lat="43.52544" lon="5.5108">
        <ele>189</ele>
        <time>2018-02-20T08:09:23.000Z</time>
      </trkpt>
      <trkpt lat="43.52544" lon="5.5108">
        <ele>189</ele>
        <time>2018-02-20T08:09:24.000Z</time>
      </trkpt>
      <trkpt lat="43.52544" lon="5.5108">
        <ele>189</ele>
        <time>2018-02-20T08:09:25.000Z</time>
      </trkpt>
      <trkpt lat="43.52544" lon="5.5108">
        <ele>189</ele>
        <time>2018-02-20T08:09:26.000Z</time>
      </trkpt>
      <trkpt lat="43.52544" lon="5.5108">
        <ele>189</ele>
        <time>2018-02-20T08:09:27.000Z</time>
      </trkpt>
      <trkpt lat="43.52544" lon="5.5108">
        <ele>189</ele>
        <time>2018-02-20T08:09:28.000Z</time>
      </trkpt>
      <trkpt lat="43.52544" lon="5.5108">
        <ele>189</ele>
        <time>2018-02-20T08:09:29.000Z</time>
      </trkpt>
      <trkpt lat="43.52544" lon="5.5108">
        <ele>189</ele>
        <time>2018-02-20T08:09:30.000Z</time>
      </trkpt>
      <trkpt lat="43.52544" lon="5.5108">
        <ele>189</ele>
        <time>2018-02-20T08:09:31.000Z</time>
      </trkpt>
      <trkpt lat="43.52545" lon="5.5108">
        <ele>189</ele>
        <time>2018-02-20T08:09:32.000Z</time>
      </trkpt>
      <trkpt lat="43.52545" lon="5.5108">
        <ele>189</ele>
        <time>2018-02-20T08:09:33.000Z</time>
      </trkpt>
      <trkpt lat="43.52545" lon="5.5108">
        <ele>189</ele>
        <time>2018-02-20T08:09:34.000Z</time>
      </trkpt>
      <trkpt lat="43.52545" lon="5.5108">
        <ele>189</ele>
        <time>2018-02-20T08:09:35.000Z</time>
      </trkpt>
      <trkpt lat="43.52545" lon="5.5108">
        <ele>190</ele>
        <time>2018-02-20T08:09:36.000Z</time>
      </trkpt>
      <trkpt lat="43.52545" lon="5.5108">
        <ele>190</ele>
        <time>2018-02-20T08:09:37.000Z</time>
      </trkpt>
      <trkpt lat="43.52545" lon="5.51081">
        <ele>190</ele>
        <time>2018-02-20T08:09:38.000Z</time>
      </trkpt>
      <trkpt lat="43.52545" lon="5.51081">
        <ele>190</ele>
        <time>2018-02-20T08:09:39.000Z</time>
      </trkpt>
      <trkpt lat="43.52545" lon="5.51081">
        <ele>190</ele>
        <time>2018-02-20T08:09:40.000Z</time>
      </trkpt>
      <trkpt lat="43.52545" lon="5.51081">
        <ele>190</ele>
        <time>2018-02-20T08:09:41.000Z</time>
      </trkpt>
      <trkpt lat="43.52546" lon="5.51081">
        <ele>190</ele>
        <time>2018-02-20T08:09:42.000Z</time>
      </trkpt>
      <trkpt lat="43.52546" lon="5.51081">
        <ele>190</ele>
        <time>2018-02-20T08:09:43.000Z</time>
      </trkpt>
      <trkpt lat="43.52546" lon="5.51081">
        <ele>190</ele>
        <time>2018-02-20T08:09:44.000Z</time>
      </trkpt>
      <trkpt lat="43.52547" lon="5.51082">
        <ele>190</ele>
        <time>2018-02-20T08:09:45.000Z</time>
      </trkpt>
      <trkpt lat="43.52547" lon="5.51082">
        <ele>190</ele>
        <time>2018-02-20T08:09:46.000Z</time>
      </trkpt>
      <trkpt lat="43.52547" lon="5.51082">
        <ele>190</ele>
        <time>2018-02-20T08:09:47.000Z</time>
      </trkpt>
      <trkpt lat="43.52547" lon="5.51082">
        <ele>190</ele>
        <time>2018-02-20T08:09:48.000Z</time>
      </trkpt>
      <trkpt lat="43.52547" lon="5.51082">
        <ele>190</ele>
        <time>2018-02-20T08:09:49.000Z</time>
      </trkpt>
      <trkpt lat="43.52548" lon="5.51082">
        <ele>190</ele>
        <time>2018-02-20T08:09:50.000Z</time>
      </trkpt>
      <trkpt lat="43.52548" lon="5.51082">
        <ele>190</ele>
        <time>2018-02-20T08:09:51.000Z</time>
      </trkpt>
      <trkpt lat="43.52548" lon="5.51083">
        <ele>190</ele>
        <time>2018-02-20T08:09:52.000Z</time>
      </trkpt>
      <trkpt lat="43.52548" lon="5.51083">
        <ele>190</ele>
        <time>2018-02-20T08:09:53.000Z</time>
      </trkpt>
      <trkpt lat="43.52548" lon="5.51083">
        <ele>190</ele>
        <time>2018-02-20T08:09:54.000Z</time>
      </trkpt>
      <trkpt lat="43.52548" lon="5.51083">
        <ele>190</ele>
        <time>2018-02-20T08:09:55.000Z</time>
      </trkpt>
      <trkpt lat="43.52548" lon="5.51083">
        <ele>190</ele>
        <time>2018-02-20T08:09:56.000Z</time>
      </trkpt>
      <trkpt lat="43.52549" lon="5.51084">
        <ele>190</ele>
        <time>2018-02-20T08:09:57.000Z</time>
      </trkpt>
      <trkpt lat="43.5255" lon="5.51084">
        <ele>190</ele>
        <time>2018-02-20T08:09:58.000Z</time>
      </trkpt>
      <trkpt lat="43.5255" lon="5.51085">
        <ele>190</ele>
        <time>2018-02-20T08:09:59.000Z</time>
      </trkpt>
      <trkpt lat="43.52551" lon="5.51086">
        <ele>190</ele>
        <time>2018-02-20T08:10:00.000Z</time>
      </trkpt>
      <trkpt lat="43.52551" lon="5.51087">
        <ele>190</ele>
        <time>2018-02-20T08:10:01.000Z</time>
      </trkpt>
      <trkpt lat="43.52551" lon="5.51088">
        <ele>190</ele>
        <time>2018-02-20T08:10:02.000Z</time>
      </trkpt>
      <trkpt lat="43.52551" lon="5.51089">
        <ele>190</ele>
        <time>2018-02-20T08:10:03.000Z</time>
      </trkpt>
      <trkpt lat="43.52552" lon="5.51089">
        <ele>190</ele>
        <time>2018-02-20T08:10:04.000Z</time>
      </trkpt>
      <trkpt lat="43.52552" lon="5.5109">
        <ele>190</ele>
        <time>2018-02-20T08:10:05.000Z</time>
      </trkpt>
      <trkpt lat="43.52552" lon="5.51091">
        <ele>190</ele>
        <time>2018-02-20T08:10:06.000Z</time>
      </trkpt>
      <trkpt lat="43.52552" lon="5.51092">
        <ele>190</ele>
        <time>2018-02-20T08:10:07.000Z</time>
      </trkpt>
      <trkpt lat="43.52551" lon="5.51092">
        <ele>190</ele>
        <time>2018-02-20T08:10:08.000Z</time>
      </trkpt>
      <trkpt lat="43.52551" lon="5.51093">
        <ele>190</ele>
        <time>2018-02-20T08:10:09.000Z</time>
      </trkpt>
      <trkpt lat="43.5255" lon="5.51093">
        <ele>190</ele>
        <time>2018-02-20T08:10:10.000Z</time>
      </trkpt>
      <trkpt lat="43.5255" lon="5.51095">
        <ele>190</ele>
        <time>2018-02-20T08:10:11.000Z</time>
      </trkpt>
      <trkpt lat="43.5255" lon="5.51096">
        <ele>190</ele>
        <time>2018-02-20T08:10:12.000Z</time>
      </trkpt>
      <trkpt lat="43.5255" lon="5.51097">
        <ele>190</ele>
        <time>2018-02-20T08:10:13.000Z</time>
      </trkpt>
      <trkpt lat="43.52551" lon="5.51099">
        <ele>190</ele>
        <time>2018-02-20T08:10:14.000Z</time>
      </trkpt>
      <trkpt lat="43.52551" lon="5.511">
        <ele>190</ele>
        <time>2018-02-20T08:10:15.000Z</time>
      </trkpt>
      <trkpt lat="43.52552" lon="5.51101">
        <ele>190</ele>
        <time>2018-02-20T08:10:16.000Z</time>
      </trkpt>
      <trkpt lat="43.52552" lon="5.51102">
        <ele>190</ele>
        <time>2018-02-20T08:10:17.000Z</time>
      </trkpt>
      <trkpt lat="43.52552" lon="5.51104">
        <ele>190</ele>
        <time>2018-02-20T08:10:18.000Z</time>
      </trkpt>
      <trkpt lat="43.52552" lon="5.51105">
        <ele>190</ele>
        <time>2018-02-20T08:10:19.000Z</time>
      </trkpt>
      <trkpt lat="43.52553" lon="5.51107">
        <ele>190</ele>
        <time>2018-02-20T08:10:20.000Z</time>
      </trkpt>
      <trkpt lat="43.52553" lon="5.51108">
        <ele>190</ele>
        <time>2018-02-20T08:10:21.000Z</time>
      </trkpt>
      <trkpt lat="43.52554" lon="5.5111">
        <ele>190</ele>
        <time>2018-02-20T08:10:22.000Z</time>
      </trkpt>
      <trkpt lat="43.52554" lon="5.51111">
        <ele>190</ele>
        <time>2018-02-20T08:10:23.000Z</time>
      </trkpt>
      <trkpt lat="43.52554" lon="5.51113">
        <ele>190</ele>
        <time>2018-02-20T08:10:24.000Z</time>
      </trkpt>
      <trkpt lat="43.52554" lon="5.51114">
        <ele>190</ele>
        <time>2018-02-20T08:10:25.000Z</time>
      </trkpt>
      <trkpt lat="43.52555" lon="5.51116">
        <ele>190</ele>
        <time>2018-02-20T08:10:26.000Z</time>
      </trkpt>
      <trkpt lat="43.52555" lon="5.51117">
        <ele>190</ele>
        <time>2018-02-20T08:10:27.000Z</time>
      </trkpt>
      <trkpt lat="43.52556" lon="5.51119">
        <ele>190</ele>
        <time>2018-02-20T08:10:28.000Z</time>
      </trkpt>
      <trkpt lat="43.52556" lon="5.5112">
        <ele>190</ele>
        <time>2018-02-20T08:10:29.000Z</time>
      </trkpt>
      <trkpt lat="43.52556" lon="5.51122">
        <ele>190</ele>
        <time>2018-02-20T08:10:30.000Z</time>
      </trkpt>
      <trkpt lat="43.52556" lon="5.51123">
        <ele>190</ele>
        <time>2018-02-20T08:10:31.000Z</time>
      </trkpt>
      <trkpt lat="43.52557" lon="5.51125">
        <ele>191</ele>
        <time>2018-02-20T08:10:32.000Z</time>
      </trkpt>
      <trkpt lat="43.52557" lon="5.51126">
        <ele>191</ele>
        <time>2018-02-20T08:10:33.000Z</time>
      </trkpt>
      <trkpt lat="43.52558" lon="5.51128">
        <ele>191</ele>
        <time>2018-02-20T08:10:34.000Z</time>
      </trkpt>
      <trkpt lat="43.52558" lon="5.51129">
        <ele>191</ele>
        <time>2018-02-20T08:10:35.000Z</time>
      </trkpt>
      <trkpt lat="43.52559" lon="5.51131">
        <ele>191</ele>
        <time>2018-02-20T08:10:36.000Z</time>
      </trkpt>
      <trkpt lat="43.52559" lon="5.51132">
        <ele>191</ele>
        <time>2018-02-20T08:10:37.000Z</time>
      </trkpt>
      <trkpt lat="43.5256" lon="5.51134">
        <ele>191</ele>
        <time>2018-02-20T08:10:38.000Z</time>
      </trkpt>
      <trkpt lat="43.5256" lon="5.51136">
        <ele>191</ele>
        <time>2018-02-20T08:10:39.000Z</time>
      </trkpt>
      <trkpt lat="43.5256" lon="5.51137">
        <ele>191</ele>
        <time>2018-02-20T08:10:40.000Z</time>
      </trkpt>
      <trkpt lat="43.52561" lon="5.51139">
        <ele>191</ele>
        <time>2018-02-20T08:10:41.000Z</time>
      </trkpt>
      <trkpt lat="43.52561" lon="5.5114">
        <ele>191</ele>
        <time>2018-02-20T08:10:42.000Z</time>
      </trkpt>
      <trkpt lat="43.52561" lon="5.51142">
        <ele>191</ele>
        <time>2018-02-20T08:10:43.000Z</time>
      </trkpt>
      <trkpt lat="43.52562" lon="5.51143">
        <ele>191</ele>
        <time>2018-02-20T08:10:44.000Z</time>
      </trkpt>
      <trkpt lat="43.52562" lon="5.51145">
        <ele>191</ele>
        <time>2018-02-20T08:10:45.000Z</time>
      </trkpt>
      <trkpt lat="43.52562" lon="5.51146">
        <ele>191</ele>
        <time>2018-02-20T08:10:46.000Z</time>
      </trkpt>
      <trkpt lat="43.52562" lon="5.51148">
        <ele>191</ele>
        <time>2018-02-20T08:10:47.000Z</time>
      </trkpt>
      <trkpt lat="43.52563" lon="5.51149">
        <ele>191</ele>
        <time>2018-02-20T08:10:48.000Z</time>
      </trkpt>
      <trkpt lat="43.52563" lon="5.51151">
        <ele>191</ele>
        <time>2018-02-20T08:10:49.000Z</time>
      </trkpt>
      <trkpt lat="43.52563" lon="5.51152">
        <ele>191</ele>
        <time>2018-02-20T08:10:50.000Z</time>
      </trkpt>
      <trkpt lat="43.52563" lon="5.51154">
        <ele>191</ele>
        <time>2018-02-20T08:10:51.000Z</time>
      </trkpt>
      <trkpt lat="43.52564" lon="5.51155">
        <ele>191</ele>
        <time>2018-02-20T08:10:52.000Z</time>
      </trkpt>
      <trkpt lat="43.52564" lon="5.51157">
        <ele>191</ele>
        <time>2018-02-20T08:10:53.000Z</time>
      </trkpt>
      <trkpt lat="43.52564" lon="5.51158">
        <ele>192</ele>
        <time>2018-02-20T08:10:54.000Z</time>
      </trkpt>
      <trkpt lat="43.52565" lon="5.5116">
        <ele>192</ele>
        <time>2018-02-20T08:10:55.000Z</time>
      </trkpt>
      <trkpt lat="43.52565" lon="5.51161">
        <ele>192</ele>
        <time>2018-02-20T08:10:56.000Z</time>
      </trkpt>
      <trkpt lat="43.52565" lon="5.51163">
        <ele>192</ele>
        <time>2018-02-20T08:10:57.000Z</time>
      </trkpt>
      <trkpt lat="43.52566" lon="5.51164">
        <ele>192</ele>
        <time>2018-02-20T08:10:58.000Z</time>
      </trkpt>
      <trkpt lat="43.52566" lon="5.51166">
        <ele>192</ele>
        <time>2018-02-20T08:10:59.000Z</time>
      </trkpt>
      <trkpt lat="43.52566" lon="5.51167">
        <ele>192</ele>
        <time>2018-02-20T08:11:00.000Z</time>
      </trkpt>
      <trkpt lat="43.52567" lon="5.51168">
        <ele>192</ele>
        <time>2018-02-20T08:11:01.000Z</time>
      </trkpt>
      <trkpt lat="43.52567" lon="5.5117">
        <ele>192</ele>
        <time>2018-02-20T08:11:02.000Z</time>
      </trkpt>
      <trkpt lat="43.52567" lon="5.51171">
        <ele>192</ele>
        <time>2018-02-20T08:11:03.000Z</time>
      </trkpt>
      <trkpt lat="43.52568" lon="5.51172">
        <ele>192</ele>
        <time>2018-02-20T08:11:04.000Z</time>
      </trkpt>
      <trkpt lat="43.52568" lon="5.51174">
        <ele>192</ele>
        <time>2018-02-20T08:11:05.000Z</time>
      </trkpt>
      <trkpt lat="43.52569" lon="5.51175">
        <ele>192</ele>
        <time>2018-02-20T08:11:06.000Z</time>
      </trkpt>
      <trkpt lat="43.52569" lon="5.51176">
        <ele>192</ele>
        <time>2018-02-20T08:11:07.000Z</time>
      </trkpt>
      <trkpt lat="43.52569" lon="5.51178">
        <ele>192</ele>
        <time>2018-02-20T08:11:08.000Z</time>
      </trkpt>
      <trkpt lat="43.5257" lon="5.51179">
        <ele>193</ele>
        <time>2018-02-20T08:11:09.000Z</time>
      </trkpt>
      <trkpt lat="43.5257" lon="5.5118">
        <ele>193</ele>
        <time>2018-02-20T08:11:10.000Z</time>
      </trkpt>
      <trkpt lat="43.5257" lon="5.51182">
        <ele>193</ele>
        <time>2018-02-20T08:11:11.000Z</time>
      </trkpt>
      <trkpt lat="43.5257" lon="5.51183">
        <ele>193</ele>
        <time>2018-02-20T08:11:12.000Z</time>
      </trkpt>
      <trkpt lat="43.52571" lon="5.51184">
        <ele>193</ele>
        <time>2018-02-20T08:11:13.000Z</time>
      </trkpt>
      <trkpt lat="43.52571" lon="5.51186">
        <ele>193</ele>
        <time>2018-02-20T08:11:14.000Z</time>
      </trkpt>
      <trkpt lat="43.52571" lon="5.51187">
        <ele>193</ele>
        <time>2018-02-20T08:11:15.000Z</time>
      </trkpt>
      <trkpt lat="43.52571" lon="5.51188">
        <ele>193</ele>
        <time>2018-02-20T08:11:16.000Z</time>
      </trkpt>
      <trkpt lat="43.52571" lon="5.51189">
        <ele>193</ele>
        <time>2018-02-20T08:11:17.000Z</time>
      </trkpt>
      <trkpt lat="43.52571" lon="5.5119">
        <ele>193</ele>
        <time>2018-02-20T08:11:18.000Z</time>
      </trkpt>
      <trkpt lat="43.52572" lon="5.51191">
        <ele>194</ele>
        <time>2018-02-20T08:11:19.000Z</time>
      </trkpt>
      <trkpt lat="43.52572" lon="5.51193">
        <ele>194</ele>
        <time>2018-02-20T08:11:20.000Z</time>
      </trkpt>
      <trkpt lat="43.52572" lon="5.51194">
        <ele>194</ele>
        <time>2018-02-20T08:11:21.000Z</time>
      </trkpt>
      <trkpt lat="43.52572" lon="5.51195">
        <ele>194</ele>
        <time>2018-02-20T08:11:22.000Z</time>
      </trkpt>
      <trkpt lat="43.52572" lon="5.51196">
        <ele>194</ele>
        <time>2018-02-20T08:11:23.000Z</time>
      </trkpt>
      <trkpt lat="43.52572" lon="5.51197">
        <ele>194</ele>
        <time>2018-02-20T08:11:24.000Z</time>
      </trkpt>
      <trkpt lat="43.52573" lon="5.51199">
        <ele>194</ele>
        <time>2018-02-20T08:11:25.000Z</time>
      </trkpt>
      <trkpt lat="43.52573" lon="5.512">
        <ele>194</ele>
        <time>2018-02-20T08:11:26.000Z</time>
      </trkpt>
      <trkpt lat="43.52573" lon="5.51201">
        <ele>195</ele>
        <time>2018-02-20T08:11:27.000Z</time>
      </trkpt>
      <trkpt lat="43.52573" lon="5.51202">
        <ele>195</ele>
        <time>2018-02-20T08:11:28.000Z</time>
      </trkpt>
      <trkpt lat="43.52573" lon="5.51204">
        <ele>195</ele>
        <time>2018-02-20T08:11:29.000Z</time>
      </trkpt>
      <trkpt lat="43.52574" lon="5.51205">
        <ele>195</ele>
        <time>2018-02-20T08:11:30.000Z</time>
      </trkpt>
      <trkpt lat="43.52574" lon="5.51207">
        <ele>195</ele>
        <time>2018-02-20T08:11:31.000Z</time>
      </trkpt>
      <trkpt lat="43.52574" lon="5.51208">
        <ele>195</ele>
        <time>2018-02-20T08:11:32.000Z</time>
      </trkpt>
      <trkpt lat="43.52574" lon="5.51209">
        <ele>196</ele>
        <time>2018-02-20T08:11:33.000Z</time>
      </trkpt>
      <trkpt lat="43.52574" lon="5.51211">
        <ele>196</ele>
        <time>2018-02-20T08:11:34.000Z</time>
      </trkpt>
      <trkpt lat="43.52574" lon="5.51212">
        <ele>196</ele>
        <time>2018-02-20T08:11:35.000Z</time>
      </trkpt>
      <trkpt lat="43.52574" lon="5.51213">
        <ele>196</ele>
        <time>2018-02-20T08:11:36.000Z</time>
      </trkpt>
      <trkpt lat="43.52574" lon="5.51215">
        <ele>196</ele>
        <time>2018-02-20T08:11:37.000Z</time>
      </trkpt>
      <trkpt lat="43.52574" lon="5.51216">
        <ele>196</ele>
        <time>2018-02-20T08:11:38.000Z</time>
      </trkpt>
      <trkpt lat="43.52574" lon="5.51217">
        <ele>197</ele>
        <time>2018-02-20T08:11:39.000Z</time>
      </trkpt>
      <trkpt lat="43.52574" lon="5.51219">
        <ele>197</ele>
        <time>2018-02-20T08:11:40.000Z</time>
      </trkpt>
      <trkpt lat="43.52574" lon="5.5122">
        <ele>197</ele>
        <time>2018-02-20T08:11:41.000Z</time>
      </trkpt>
      <trkpt lat="43.52574" lon="5.51221">
        <ele>197</ele>
        <time>2018-02-20T08:11:42.000Z</time>
      </trkpt>
      <trkpt lat="43.52574" lon="5.51223">
        <ele>197</ele>
        <time>2018-02-20T08:11:43.000Z</time>
      </trkpt>
      <trkpt lat="43.52574" lon="5.51224">
        <ele>198</ele>
        <time>2018-02-20T08:11:44.000Z</time>
      </trkpt>
      <trkpt lat="43.52574" lon="5.51226">
        <ele>198</ele>
        <time>2018-02-20T08:11:45.000Z</time>
      </trkpt>
      <trkpt lat="43.52574" lon="5.51227">
        <ele>198</ele>
        <time>2018-02-20T08:11:46.000Z</time>
      </trkpt>
      <trkpt lat="43.52574" lon="5.51228">
        <ele>198</ele>
        <time>2018-02-20T08:11:47.000Z</time>
      </trkpt>
      <trkpt lat="43.52574" lon="5.5123">
        <ele>198</ele>
        <time>2018-02-20T08:11:48.000Z</time>
      </trkpt>
      <trkpt lat="43.52574" lon="5.51231">
        <ele>199</ele>
        <time>2018-02-20T08:11:49.000Z</time>
      </trkpt>
      <trkpt lat="43.52574" lon="5.51233">
        <ele>199</ele>
        <time>2018-02-20T08:11:50.000Z</time>
      </trkpt>
      <trkpt lat="43.52574" lon="5.51234">
        <ele>199</ele>
        <time>2018-02-20T08:11:51.000Z</time>
      </trkpt>
      <trkpt lat="43.52574" lon="5.51236">
        <ele>199</ele>
        <time>2018-02-20T08:11:52.000Z</time>
      </trkpt>
      <trkpt lat="43.52573" lon="5.51237">
        <ele>199</ele>
        <time>2018-02-20T08:11:53.000Z</time>
      </trkpt>
      <trkpt lat="43.52573" lon="5.51239">
        <ele>199</ele>
        <time>2018-02-20T08:11:54.000Z</time>
      </trkpt>
      <trkpt lat="43.52573" lon="5.51239">
        <ele>199</ele>
        <time>2018-02-20T08:11:55.000Z</time>
      </trkpt>
      <trkpt lat="43.52573" lon="5.51241">
        <ele>200</ele>
        <time>2018-02-20T08:11:56.000Z</time>
      </trkpt>
      <trkpt lat="43.52573" lon="5.51242">
        <ele>200</ele>
        <time>2018-02-20T08:11:57.000Z</time>
      </trkpt>
      <trkpt lat="43.52573" lon="5.51243">
        <ele>200</ele>
        <time>2018-02-20T08:11:58.000Z</time>
      </trkpt>
      <trkpt lat="43.52573" lon="5.51245">
        <ele>200</ele>
        <time>2018-02-20T08:11:59.000Z</time>
      </trkpt>
      <trkpt lat="43.52573" lon="5.51246">
        <ele>200</ele>
        <time>2018-02-20T08:12:00.000Z</time>
      </trkpt>
      <trkpt lat="43.52573" lon="5.51247">
        <ele>200</ele>
        <time>2018-02-20T08:12:01.000Z</time>
      </trkpt>
      <trkpt lat="43.52573" lon="5.51249">
        <ele>200</ele>
        <time>2018-02-20T08:12:02.000Z</time>
      </trkpt>
      <trkpt lat="43.52572" lon="5.5125">
        <ele>200</ele>
        <time>2018-02-20T08:12:03.000Z</time>
      </trkpt>
      <trkpt lat="43.52572" lon="5.51252">
        <ele>201</ele>
        <time>2018-02-20T08:12:04.000Z</time>
      </trkpt>
      <trkpt lat="43.52572" lon="5.51253">
        <ele>201</ele>
        <time>2018-02-20T08:12:05.000Z</time>
      </trkpt>
      <trkpt lat="43.52572" lon="5.51255">
        <ele>201</ele>
        <time>2018-02-20T08:12:06.000Z</time>
      </trkpt>
      <trkpt lat="43.52572" lon="5.51257">
        <ele>201</ele>
        <time>2018-02-20T08:12:07.000Z</time>
      </trkpt>
      <trkpt lat="43.52572" lon="5.51258">
        <ele>201</ele>
        <time>2018-02-20T08:12:08.000Z</time>
      </trkpt>
      <trkpt lat="43.52572" lon="5.51259">
        <ele>201</ele>
        <time>2018-02-20T08:12:09.000Z</time>
      </trkpt>
      <trkpt lat="43.52572" lon="5.5126">
        <ele>201</ele>
        <time>2018-02-20T08:12:10.000Z</time>
      </trkpt>
      <trkpt lat="43.52572" lon="5.51261">
        <ele>201</ele>
        <time>2018-02-20T08:12:11.000Z</time>
      </trkpt>
      <trkpt lat="43.52572" lon="5.51263">
        <ele>202</ele>
        <time>2018-02-20T08:12:12.000Z</time>
      </trkpt>
      <trkpt lat="43.52572" lon="5.51264">
        <ele>202</ele>
        <time>2018-02-20T08:12:13.000Z</time>
      </trkpt>
      <trkpt lat="43.52572" lon="5.51265">
        <ele>202</ele>
        <time>2018-02-20T08:12:14.000Z</time>
      </trkpt>
      <trkpt lat="43.52572" lon="5.51267">
        <ele>202</ele>
        <time>2018-02-20T08:12:15.000Z</time>
      </trkpt>
      <trkpt lat="43.52572" lon="5.51268">
        <ele>203</ele>
        <time>2018-02-20T08:12:16.000Z</time>
      </trkpt>
      <trkpt lat="43.52572" lon="5.5127">
        <ele>203</ele>
        <time>2018-02-20T08:12:17.000Z</time>
      </trkpt>
      <trkpt lat="43.52572" lon="5.51271">
        <ele>203</ele>
        <time>2018-02-20T08:12:18.000Z</time>
      </trkpt>
      <trkpt lat="43.52572" lon="5.51272">
        <ele>203</ele>
        <time>2018-02-20T08:12:19.000Z</time>
      </trkpt>
      <trkpt lat="43.52572" lon="5.51274">
        <ele>203</ele>
        <time>2018-02-20T08:12:20.000Z</time>
      </trkpt>
      <trkpt lat="43.52572" lon="5.51275">
        <ele>203</ele>
        <time>2018-02-20T08:12:21.000Z</time>
      </trkpt>
      <trkpt lat="43.52572" lon="5.51276">
        <ele>203</ele>
        <time>2018-02-20T08:12:22.000Z</time>
      </trkpt>
      <trkpt lat="43.52572" lon="5.51277">
        <ele>203</ele>
        <time>2018-02-20T08:12:23.000Z</time>
      </trkpt>
      <trkpt lat="43.52572" lon="5.51278">
        <ele>203</ele>
        <time>2018-02-20T08:12:24.000Z</time>
      </trkpt>
      <trkpt lat="43.52572" lon="5.5128">
        <ele>203</ele>
        <time>2018-02-20T08:12:25.000Z</time>
      </trkpt>
      <trkpt lat="43.52573" lon="5.51281">
        <ele>203</ele>
        <time>2018-02-20T08:12:26.000Z</time>
      </trkpt>
      <trkpt lat="43.52573" lon="5.51282">
        <ele>203</ele>
        <time>2018-02-20T08:12:27.000Z</time>
      </trkpt>
      <trkpt lat="43.52573" lon="5.51283">
        <ele>203</ele>
        <time>2018-02-20T08:12:28.000Z</time>
      </trkpt>
      <trkpt lat="43.52573" lon="5.51284">
        <ele>204</ele>
        <time>2018-02-20T08:12:29.000Z</time>
      </trkpt>
      <trkpt lat="43.52573" lon="5.51286">
        <ele>204</ele>
        <time>2018-02-20T08:12:30.000Z</time>
      </trkpt>
      <trkpt lat="43.52574" lon="5.51287">
        <ele>204</ele>
        <time>2018-02-20T08:12:31.000Z</time>
      </trkpt>
      <trkpt lat="43.52574" lon="5.51288">
        <ele>204</ele>
        <time>2018-02-20T08:12:32.000Z</time>
      </trkpt>
      <trkpt lat="43.52574" lon="5.51289">
        <ele>204</ele>
        <time>2018-02-20T08:12:33.000Z</time>
      </trkpt>
      <trkpt lat="43.52574" lon="5.51291">
        <ele>204</ele>
        <time>2018-02-20T08:12:34.000Z</time>
      </trkpt>
      <trkpt lat="43.52574" lon="5.51292">
        <ele>205</ele>
        <time>2018-02-20T08:12:35.000Z</time>
      </trkpt>
      <trkpt lat="43.52575" lon="5.51294">
        <ele>205</ele>
        <time>2018-02-20T08:12:36.000Z</time>
      </trkpt>
      <trkpt lat="43.52575" lon="5.51295">
        <ele>205</ele>
        <time>2018-02-20T08:12:37.000Z</time>
      </trkpt>
      <trkpt lat="43.52575" lon="5.51296">
        <ele>205</ele>
        <time>2018-02-20T08:12:38.000Z</time>
      </trkpt>
      <trkpt lat="43.52575" lon="5.51296">
        <ele>205</ele>
        <time>2018-02-20T08:12:39.000Z</time>
      </trkpt>
      <trkpt lat="43.52576" lon="5.51297">
        <ele>206</ele>
        <time>2018-02-20T08:12:40.000Z</time>
      </trkpt>
      <trkpt lat="43.52576" lon="5.51298">
        <ele>206</ele>
        <time>2018-02-20T08:12:41.000Z</time>
      </trkpt>
      <trkpt lat="43.52576" lon="5.513">
        <ele>206</ele>
        <time>2018-02-20T08:12:42.000Z</time>
      </trkpt>
      <trkpt lat="43.52576" lon="5.51301">
        <ele>206</ele>
        <time>2018-02-20T08:12:43.000Z</time>
      </trkpt>
      <trkpt lat="43.52576" lon="5.51302">
        <ele>206</ele>
        <time>2018-02-20T08:12:44.000Z</time>
      </trkpt>
      <trkpt lat="43.52577" lon="5.51304">
        <ele>206</ele>
        <time>2018-02-20T08:12:45.000Z</time>
      </trkpt>
      <trkpt lat="43.52577" lon="5.51305">
        <ele>206</ele>
        <time>2018-02-20T08:12:46.000Z</time>
      </trkpt>
      <trkpt lat="43.52577" lon="5.51307">
        <ele>206</ele>
        <time>2018-02-20T08:12:47.000Z</time>
      </trkpt>
      <trkpt lat="43.52577" lon="5.51308">
        <ele>207</ele>
        <time>2018-02-20T08:12:48.000Z</time>
      </trkpt>
      <trkpt lat="43.52577" lon="5.5131">
        <ele>207</ele>
        <time>2018-02-20T08:12:49.000Z</time>
      </trkpt>
      <trkpt lat="43.52577" lon="5.51311">
        <ele>207</ele>
        <time>2018-02-20T08:12:50.000Z</time>
      </trkpt>
      <trkpt lat="43.52577" lon="5.51313">
        <ele>207</ele>
        <time>2018-02-20T08:12:51.000Z</time>
      </trkpt>
      <trkpt lat="43.52577" lon="5.51315">
        <ele>207</ele>
        <time>2018-02-20T08:12:52.000Z</time>
      </trkpt>
      <trkpt lat="43.52578" lon="5.51316">
        <ele>208</ele>
        <time>2018-02-20T08:12:53.000Z</time>
      </trkpt>
      <trkpt lat="43.52578" lon="5.51317">
        <ele>208</ele>
        <time>2018-02-20T08:12:54.000Z</time>
      </trkpt>
      <trkpt lat="43.52579" lon="5.51319">
        <ele>208</ele>
        <time>2018-02-20T08:12:55.000Z</time>
      </trkpt>
      <trkpt lat="43.52579" lon="5.5132">
        <ele>208</ele>
        <time>2018-02-20T08:12:56.000Z</time>
      </trkpt>
      <trkpt lat="43.5258" lon="5.51321">
        <ele>208</ele>
        <time>2018-02-20T08:12:57.000Z</time>
      </trkpt>
      <trkpt lat="43.5258" lon="5.51322">
        <ele>208</ele>
        <time>2018-02-20T08:12:58.000Z</time>
      </trkpt>
      <trkpt lat="43.5258" lon="5.51323">
        <ele>208</ele>
        <time>2018-02-20T08:12:59.000Z</time>
      </trkpt>
      <trkpt lat="43.52581" lon="5.51324">
        <ele>208</ele>
        <time>2018-02-20T08:13:00.000Z</time>
      </trkpt>
      <trkpt lat="43.52581" lon="5.51325">
        <ele>208</ele>
        <time>2018-02-20T08:13:01.000Z</time>
      </trkpt>
      <trkpt lat="43.52581" lon="5.51327">
        <ele>208</ele>
        <time>2018-02-20T08:13:02.000Z</time>
      </trkpt>
      <trkpt lat="43.52582" lon="5.51328">
        <ele>208</ele>
        <time>2018-02-20T08:13:03.000Z</time>
      </trkpt>
      <trkpt lat="43.52582" lon="5.51329">
        <ele>208</ele>
        <time>2018-02-20T08:13:04.000Z</time>
      </trkpt>
      <trkpt lat="43.52583" lon="5.5133">
        <ele>208</ele>
        <time>2018-02-20T08:13:05.000Z</time>
      </trkpt>
      <trkpt lat="43.52583" lon="5.51331">
        <ele>208</ele>
        <time>2018-02-20T08:13:06.000Z</time>
      </trkpt>
      <trkpt lat="43.52584" lon="5.51332">
        <ele>208</ele>
        <time>2018-02-20T08:13:07.000Z</time>
      </trkpt>
      <trkpt lat="43.52584" lon="5.51333">
        <ele>208</ele>
        <time>2018-02-20T08:13:08.000Z</time>
      </trkpt>
      <trkpt lat="43.52585" lon="5.51334">
        <ele>209</ele>
        <time>2018-02-20T08:13:09.000Z</time>
      </trkpt>
      <trkpt lat="43.52585" lon="5.51336">
        <ele>209</ele>
        <time>2018-02-20T08:13:10.000Z</time>
      </trkpt>
      <trkpt lat="43.52586" lon="5.51337">
        <ele>209</ele>
        <time>2018-02-20T08:13:11.000Z</time>
      </trkpt>
      <trkpt lat="43.52586" lon="5.51338">
        <ele>209</ele>
        <time>2018-02-20T08:13:12.000Z</time>
      </trkpt>
      <trkpt lat="43.52587" lon="5.51338">
        <ele>209</ele>
        <time>2018-02-20T08:13:13.000Z</time>
      </trkpt>
      <trkpt lat="43.52587" lon="5.5134">
        <ele>209</ele>
        <time>2018-02-20T08:13:14.000Z</time>
      </trkpt>
      <trkpt lat="43.52587" lon="5.51341">
        <ele>209</ele>
        <time>2018-02-20T08:13:15.000Z</time>
      </trkpt>
      <trkpt lat="43.52588" lon="5.51342">
        <ele>209</ele>
        <time>2018-02-20T08:13:16.000Z</time>
      </trkpt>
      <trkpt lat="43.52588" lon="5.51343">
        <ele>209</ele>
        <time>2018-02-20T08:13:17.000Z</time>
      </trkpt>
      <trkpt lat="43.52588" lon="5.51344">
        <ele>209</ele>
        <time>2018-02-20T08:13:18.000Z</time>
      </trkpt>
      <trkpt lat="43.52588" lon="5.51345">
        <ele>209</ele>
        <time>2018-02-20T08:13:19.000Z</time>
      </trkpt>
      <trkpt lat="43.52589" lon="5.51346">
        <ele>209</ele>
        <time>2018-02-20T08:13:20.000Z</time>
      </trkpt>
      <trkpt lat="43.52589" lon="5.51347">
        <ele>209</ele>
        <time>2018-02-20T08:13:21.000Z</time>
      </trkpt>
      <trkpt lat="43.52589" lon="5.51348">
        <ele>209</ele>
        <time>2018-02-20T08:13:22.000Z</time>
      </trkpt>
      <trkpt lat="43.52589" lon="5.51349">
        <ele>209</ele>
        <time>2018-02-20T08:13:23.000Z</time>
      </trkpt>
      <trkpt lat="43.52589" lon="5.5135">
        <ele>210</ele>
        <time>2018-02-20T08:13:24.000Z</time>
      </trkpt>
      <trkpt lat="43.52589" lon="5.51351">
        <ele>210</ele>
        <time>2018-02-20T08:13:25.000Z</time>
      </trkpt>
      <trkpt lat="43.52589" lon="5.51352">
        <ele>210</ele>
        <time>2018-02-20T08:13:26.000Z</time>
      </trkpt>
      <trkpt lat="43.52589" lon="5.51353">
        <ele>210</ele>
        <time>2018-02-20T08:13:27.000Z</time>
      </trkpt>
      <trkpt lat="43.5259" lon="5.51354">
        <ele>210</ele>
        <time>2018-02-20T08:13:28.000Z</time>
      </trkpt>
      <trkpt lat="43.5259" lon="5.51355">
        <ele>210</ele>
        <time>2018-02-20T08:13:29.000Z</time>
      </trkpt>
      <trkpt lat="43.5259" lon="5.51355">
        <ele>210</ele>
        <time>2018-02-20T08:13:30.000Z</time>
      </trkpt>
      <trkpt lat="43.5259" lon="5.51356">
        <ele>211</ele>
        <time>2018-02-20T08:13:31.000Z</time>
      </trkpt>
      <trkpt lat="43.52591" lon="5.51357">
        <ele>211</ele>
        <time>2018-02-20T08:13:32.000Z</time>
      </trkpt>
      <trkpt lat="43.52591" lon="5.51358">
        <ele>211</ele>
        <time>2018-02-20T08:13:33.000Z</time>
      </trkpt>
      <trkpt lat="43.52591" lon="5.51359">
        <ele>211</ele>
        <time>2018-02-20T08:13:34.000Z</time>
      </trkpt>
      <trkpt lat="43.52592" lon="5.5136">
        <ele>211</ele>
        <time>2018-02-20T08:13:35.000Z</time>
      </trkpt>
      <trkpt lat="43.52592" lon="5.5136">
        <ele>211</ele>
        <time>2018-02-20T08:13:36.000Z</time>
      </trkpt>
      <trkpt lat="43.52592" lon="5.51361">
        <ele>212</ele>
        <time>2018-02-20T08:13:37.000Z</time>
      </trkpt>
      <trkpt lat="43.52593" lon="5.51362">
        <ele>212</ele>
        <time>2018-02-20T08:13:38.000Z</time>
      </trkpt>
      <trkpt lat="43.52593" lon="5.51364">
        <ele>212</ele>
        <time>2018-02-20T08:13:39.000Z</time>
      </trkpt>
      <trkpt lat="43.52593" lon="5.51364">
        <ele>212</ele>
        <time>2018-02-20T08:13:40.000Z</time>
      </trkpt>
      <trkpt lat="43.52594" lon="5.51365">
        <ele>212</ele>
        <time>2018-02-20T08:13:41.000Z</time>
      </trkpt>
      <trkpt lat="43.52594" lon="5.51366">
        <ele>212</ele>
        <time>2018-02-20T08:13:42.000Z</time>
      </trkpt>
      <trkpt lat="43.52594" lon="5.51367">
        <ele>213</ele>
        <time>2018-02-20T08:13:43.000Z</time>
      </trkpt>
      <trkpt lat="43.52594" lon="5.51368">
        <ele>213</ele>
        <time>2018-02-20T08:13:44.000Z</time>
      </trkpt>
      <trkpt lat="43.52595" lon="5.51369">
        <ele>213</ele>
        <time>2018-02-20T08:13:45.000Z</time>
      </trkpt>
      <trkpt lat="43.52595" lon="5.51369">
        <ele>213</ele>
        <time>2018-02-20T08:13:46.000Z</time>
      </trkpt>
      <trkpt lat="43.52595" lon="5.5137">
        <ele>213</ele>
        <time>2018-02-20T08:13:47.000Z</time>
      </trkpt>
      <trkpt lat="43.52596" lon="5.51371">
        <ele>214</ele>
        <time>2018-02-20T08:13:48.000Z</time>
      </trkpt>
      <trkpt lat="43.52596" lon="5.51372">
        <ele>214</ele>
        <time>2018-02-20T08:13:49.000Z</time>
      </trkpt>
      <trkpt lat="43.52596" lon="5.51373">
        <ele>214</ele>
        <time>2018-02-20T08:13:50.000Z</time>
      </trkpt>
      <trkpt lat="43.52597" lon="5.51374">
        <ele>214</ele>
        <time>2018-02-20T08:13:51.000Z</time>
      </trkpt>
      <trkpt lat="43.52597" lon="5.51375">
        <ele>215</ele>
        <time>2018-02-20T08:13:52.000Z</time>
      </trkpt>
      <trkpt lat="43.52598" lon="5.51376">
        <ele>215</ele>
        <time>2018-02-20T08:13:53.000Z</time>
      </trkpt>
      <trkpt lat="43.52598" lon="5.51376">
        <ele>215</ele>
        <time>2018-02-20T08:13:54.000Z</time>
      </trkpt>
      <trkpt lat="43.52599" lon="5.51377">
        <ele>216</ele>
        <time>2018-02-20T08:13:55.000Z</time>
      </trkpt>
      <trkpt lat="43.52599" lon="5.51378">
        <ele>216</ele>
        <time>2018-02-20T08:13:56.000Z</time>
      </trkpt>
      <trkpt lat="43.52599" lon="5.51379">
        <ele>216</ele>
        <time>2018-02-20T08:13:57.000Z</time>
      </trkpt>
      <trkpt lat="43.52599" lon="5.5138">
        <ele>216</ele>
        <time>2018-02-20T08:13:58.000Z</time>
      </trkpt>
      <trkpt lat="43.526" lon="5.51381">
        <ele>216</ele>
        <time>2018-02-20T08:13:59.000Z</time>
      </trkpt>
      <trkpt lat="43.526" lon="5.51382">
        <ele>217</ele>
        <time>2018-02-20T08:14:00.000Z</time>
      </trkpt>
      <trkpt lat="43.52601" lon="5.51383">
        <ele>217</ele>
        <time>2018-02-20T08:14:01.000Z</time>
      </trkpt>
      <trkpt lat="43.52601" lon="5.51383">
        <ele>217</ele>
        <time>2018-02-20T08:14:02.000Z</time>
      </trkpt>
      <trkpt lat="43.52601" lon="5.51384">
        <ele>217</ele>
        <time>2018-02-20T08:14:03.000Z</time>
      </trkpt>
      <trkpt lat="43.52602" lon="5.51385">
        <ele>217</ele>
        <time>2018-02-20T08:14:04.000Z</time>
      </trkpt>
      <trkpt lat="43.52602" lon="5.51386">
        <ele>217</ele>
        <time>2018-02-20T08:14:05.000Z</time>
      </trkpt>
      <trkpt lat="43.52602" lon="5.51387">
        <ele>217</ele>
        <time>2018-02-20T08:14:06.000Z</time>
      </trkpt>
      <trkpt lat="43.52603" lon="5.51387">
        <ele>217</ele>
        <time>2018-02-20T08:14:07.000Z</time>
      </trkpt>
      <trkpt lat="43.52603" lon="5.51388">
        <ele>217</ele>
        <time>2018-02-20T08:14:08.000Z</time>
      </trkpt>
      <trkpt lat="43.52604" lon="5.51388">
        <ele>218</ele>
        <time>2018-02-20T08:14:09.000Z</time>
      </trkpt>
      <trkpt lat="43.52604" lon="5.51389">
        <ele>218</ele>
        <time>2018-02-20T08:14:10.000Z</time>
      </trkpt>
      <trkpt lat="43.52604" lon="5.5139">
        <ele>218</ele>
        <time>2018-02-20T08:14:11.000Z</time>
      </trkpt>
      <trkpt lat="43.52605" lon="5.51391">
        <ele>217</ele>
        <time>2018-02-20T08:14:12.000Z</time>
      </trkpt>
      <trkpt lat="43.52605" lon="5.51392">
        <ele>217</ele>
        <time>2018-02-20T08:14:13.000Z</time>
      </trkpt>
      <trkpt lat="43.52605" lon="5.51392">
        <ele>218</ele>
        <time>2018-02-20T08:14:14.000Z</time>
      </trkpt>
      <trkpt lat="43.52606" lon="5.51393">
        <ele>218</ele>
        <time>2018-02-20T08:14:15.000Z</time>
      </trkpt>
      <trkpt lat="43.52606" lon="5.51393">
        <ele>218</ele>
        <time>2018-02-20T08:14:16.000Z</time>
      </trkpt>
      <trkpt lat="43.52606" lon="5.51394">
        <ele>217</ele>
        <time>2018-02-20T08:14:17.000Z</time>
      </trkpt>
      <trkpt lat="43.52607" lon="5.51395">
        <ele>217</ele>
        <time>2018-02-20T08:14:18.000Z</time>
      </trkpt>
      <trkpt lat="43.52607" lon="5.51396">
        <ele>217</ele>
        <time>2018-02-20T08:14:19.000Z</time>
      </trkpt>
      <trkpt lat="43.52608" lon="5.51397">
        <ele>217</ele>
        <time>2018-02-20T08:14:20.000Z</time>
      </trkpt>
      <trkpt lat="43.52608" lon="5.51397">
        <ele>217</ele>
        <time>2018-02-20T08:14:21.000Z</time>
      </trkpt>
      <trkpt lat="43.52608" lon="5.51398">
        <ele>216</ele>
        <time>2018-02-20T08:14:22.000Z</time>
      </trkpt>
      <trkpt lat="43.52609" lon="5.51399">
        <ele>216</ele>
        <time>2018-02-20T08:14:23.000Z</time>
      </trkpt>
      <trkpt lat="43.52609" lon="5.514">
        <ele>216</ele>
        <time>2018-02-20T08:14:24.000Z</time>
      </trkpt>
      <trkpt lat="43.5261" lon="5.51401">
        <ele>216</ele>
        <time>2018-02-20T08:14:25.000Z</time>
      </trkpt>
      <trkpt lat="43.5261" lon="5.51402">
        <ele>216</ele>
        <time>2018-02-20T08:14:26.000Z</time>
      </trkpt>
      <trkpt lat="43.5261" lon="5.51403">
        <ele>216</ele>
        <time>2018-02-20T08:14:27.000Z</time>
      </trkpt>
      <trkpt lat="43.52611" lon="5.51404">
        <ele>215</ele>
        <time>2018-02-20T08:14:28.000Z</time>
      </trkpt>
      <trkpt lat="43.52611" lon="5.51404">
        <ele>215</ele>
        <time>2018-02-20T08:14:29.000Z</time>
      </trkpt>
      <trkpt lat="43.52611" lon="5.51405">
        <ele>215</ele>
        <time>2018-02-20T08:14:30.000Z</time>
      </trkpt>
      <trkpt lat="43.52611" lon="5.51406">
        <ele>215</ele>
        <time>2018-02-20T08:14:31.000Z</time>
      </trkpt>
      <trkpt lat="43.52611" lon="5.51407">
        <ele>215</ele>
        <time>2018-02-20T08:14:32.000Z</time>
      </trkpt>
      <trkpt lat="43.52612" lon="5.51408">
        <ele>215</ele>
        <time>2018-02-20T08:14:33.000Z</time>
      </trkpt>
      <trkpt lat="43.52612" lon="5.5141">
        <ele>215</ele>
        <time>2018-02-20T08:14:34.000Z</time>
      </trkpt>
      <trkpt lat="43.52612" lon="5.51411">
        <ele>215</ele>
        <time>2018-02-20T08:14:35.000Z</time>
      </trkpt>
      <trkpt lat="43.52612" lon="5.51412">
        <ele>215</ele>
        <time>2018-02-20T08:14:36.000Z</time>
      </trkpt>
      <trkpt lat="43.52613" lon="5.51413">
        <ele>215</ele>
        <time>2018-02-20T08:14:37.000Z</time>
      </trkpt>
      <trkpt lat="43.52613" lon="5.51414">
        <ele>215</ele>
        <time>2018-02-20T08:14:38.000Z</time>
      </trkpt>
      <trkpt lat="43.52613" lon="5.51415">
        <ele>215</ele>
        <time>2018-02-20T08:14:39.000Z</time>
      </trkpt>
      <trkpt lat="43.52612" lon="5.51416">
        <ele>215</ele>
        <time>2018-02-20T08:14:40.000Z</time>
      </trkpt>
      <trkpt lat="43.52613" lon="5.51417">
        <ele>216</ele>
        <time>2018-02-20T08:14:41.000Z</time>
      </trkpt>
      <trkpt lat="43.52613" lon="5.51418">
        <ele>216</ele>
        <time>2018-02-20T08:14:42.000Z</time>
      </trkpt>
      <trkpt lat="43.52613" lon="5.51419">
        <ele>216</ele>
        <time>2018-02-20T08:14:43.000Z</time>
      </trkpt>
      <trkpt lat="43.52614" lon="5.5142">
        <ele>216</ele>
        <time>2018-02-20T08:14:44.000Z</time>
      </trkpt>
      <trkpt lat="43.52614" lon="5.51421">
        <ele>216</ele>
        <time>2018-02-20T08:14:45.000Z</time>
      </trkpt>
      <trkpt lat="43.52614" lon="5.51422">
        <ele>217</ele>
        <time>2018-02-20T08:14:46.000Z</time>
      </trkpt>
      <trkpt lat="43.52614" lon="5.51423">
        <ele>217</ele>
        <time>2018-02-20T08:14:47.000Z</time>
      </trkpt>
      <trkpt lat="43.52614" lon="5.51424">
        <ele>217</ele>
        <time>2018-02-20T08:14:48.000Z</time>
      </trkpt>
      <trkpt lat="43.52615" lon="5.51425">
        <ele>217</ele>
        <time>2018-02-20T08:14:49.000Z</time>
      </trkpt>
      <trkpt lat="43.52615" lon="5.51426">
        <ele>218</ele>
        <time>2018-02-20T08:14:50.000Z</time>
      </trkpt>
      <trkpt lat="43.52615" lon="5.51427">
        <ele>218</ele>
        <time>2018-02-20T08:14:51.000Z</time>
      </trkpt>
      <trkpt lat="43.52615" lon="5.51428">
        <ele>218</ele>
        <time>2018-02-20T08:14:52.000Z</time>
      </trkpt>
      <trkpt lat="43.52615" lon="5.51429">
        <ele>218</ele>
        <time>2018-02-20T08:14:53.000Z</time>
      </trkpt>
      <trkpt lat="43.52616" lon="5.51429">
        <ele>218</ele>
        <time>2018-02-20T08:14:54.000Z</time>
      </trkpt>
      <trkpt lat="43.52616" lon="5.5143">
        <ele>218</ele>
        <time>2018-02-20T08:14:55.000Z</time>
      </trkpt>
      <trkpt lat="43.52616" lon="5.51431">
        <ele>218</ele>
        <time>2018-02-20T08:14:56.000Z</time>
      </trkpt>
      <trkpt lat="43.52616" lon="5.51432">
        <ele>219</ele>
        <time>2018-02-20T08:14:57.000Z</time>
      </trkpt>
      <trkpt lat="43.52616" lon="5.51434">
        <ele>219</ele>
        <time>2018-02-20T08:14:58.000Z</time>
      </trkpt>
      <trkpt lat="43.52616" lon="5.51435">
        <ele>219</ele>
        <time>2018-02-20T08:14:59.000Z</time>
      </trkpt>
      <trkpt lat="43.52616" lon="5.51436">
        <ele>219</ele>
        <time>2018-02-20T08:15:00.000Z</time>
      </trkpt>
      <trkpt lat="43.52616" lon="5.51437">
        <ele>219</ele>
        <time>2018-02-20T08:15:01.000Z</time>
      </trkpt>
      <trkpt lat="43.52617" lon="5.51438">
        <ele>220</ele>
        <time>2018-02-20T08:15:02.000Z</time>
      </trkpt>
      <trkpt lat="43.52617" lon="5.51439">
        <ele>220</ele>
        <time>2018-02-20T08:15:03.000Z</time>
      </trkpt>
      <trkpt lat="43.52617" lon="5.5144">
        <ele>220</ele>
        <time>2018-02-20T08:15:04.000Z</time>
      </trkpt>
      <trkpt lat="43.52617" lon="5.51441">
        <ele>220</ele>
        <time>2018-02-20T08:15:05.000Z</time>
      </trkpt>
      <trkpt lat="43.52617" lon="5.51441">
        <ele>220</ele>
        <time>2018-02-20T08:15:06.000Z</time>
      </trkpt>
      <trkpt lat="43.52617" lon="5.51442">
        <ele>220</ele>
        <time>2018-02-20T08:15:07.000Z</time>
      </trkpt>
      <trkpt lat="43.52617" lon="5.51444">
        <ele>221</ele>
        <time>2018-02-20T08:15:08.000Z</time>
      </trkpt>
      <trkpt lat="43.52616" lon="5.51445">
        <ele>221</ele>
        <time>2018-02-20T08:15:09.000Z</time>
      </trkpt>
      <trkpt lat="43.52616" lon="5.51446">
        <ele>221</ele>
        <time>2018-02-20T08:15:10.000Z</time>
      </trkpt>
      <trkpt lat="43.52616" lon="5.51447">
        <ele>221</ele>
        <time>2018-02-20T08:15:11.000Z</time>
      </trkpt>
      <trkpt lat="43.52616" lon="5.51448">
        <ele>222</ele>
        <time>2018-02-20T08:15:12.000Z</time>
      </trkpt>
      <trkpt lat="43.52617" lon="5.51449">
        <ele>222</ele>
        <time>2018-02-20T08:15:13.000Z</time>
      </trkpt>
      <trkpt lat="43.52616" lon="5.5145">
        <ele>222</ele>
        <time>2018-02-20T08:15:14.000Z</time>
      </trkpt>
      <trkpt lat="43.52616" lon="5.51451">
        <ele>222</ele>
        <time>2018-02-20T08:15:15.000Z</time>
      </trkpt>
      <trkpt lat="43.52616" lon="5.51452">
        <ele>222</ele>
        <time>2018-02-20T08:15:16.000Z</time>
      </trkpt>
      <trkpt lat="43.52616" lon="5.51453">
        <ele>223</ele>
        <time>2018-02-20T08:15:17.000Z</time>
      </trkpt>
      <trkpt lat="43.52616" lon="5.51454">
        <ele>223</ele>
        <time>2018-02-20T08:15:18.000Z</time>
      </trkpt>
      <trkpt lat="43.52616" lon="5.51455">
        <ele>223</ele>
        <time>2018-02-20T08:15:19.000Z</time>
      </trkpt>
      <trkpt lat="43.52616" lon="5.51456">
        <ele>223</ele>
        <time>2018-02-20T08:15:20.000Z</time>
      </trkpt>
      <trkpt lat="43.52616" lon="5.51457">
        <ele>224</ele>
        <time>2018-02-20T08:15:21.000Z</time>
      </trkpt>
      <trkpt lat="43.52616" lon="5.51458">
        <ele>224</ele>
        <time>2018-02-20T08:15:22.000Z</time>
      </trkpt>
      <trkpt lat="43.52616" lon="5.51459">
        <ele>224</ele>
        <time>2018-02-20T08:15:23.000Z</time>
      </trkpt>
      <trkpt lat="43.52616" lon="5.5146">
        <ele>224</ele>
        <time>2018-02-20T08:15:24.000Z</time>
      </trkpt>
      <trkpt lat="43.52615" lon="5.51461">
        <ele>224</ele>
        <time>2018-02-20T08:15:25.000Z</time>
      </trkpt>
      <trkpt lat="43.52615" lon="5.51462">
        <ele>225</ele>
        <time>2018-02-20T08:15:26.000Z</time>
      </trkpt>
      <trkpt lat="43.52615" lon="5.51463">
        <ele>225</ele>
        <time>2018-02-20T08:15:27.000Z</time>
      </trkpt>
      <trkpt lat="43.52615" lon="5.51463">
        <ele>225</ele>
        <time>2018-02-20T08:15:28.000Z</time>
      </trkpt>
      <trkpt lat="43.52615" lon="5.51464">
        <ele>225</ele>
        <time>2018-02-20T08:15:29.000Z</time>
      </trkpt>
      <trkpt lat="43.52615" lon="5.51465">
        <ele>225</ele>
        <time>2018-02-20T08:15:30.000Z</time>
      </trkpt>
      <trkpt lat="43.52615" lon="5.51466">
        <ele>226</ele>
        <time>2018-02-20T08:15:31.000Z</time>
      </trkpt>
      <trkpt lat="43.52615" lon="5.51467">
        <ele>226</ele>
        <time>2018-02-20T08:15:32.000Z</time>
      </trkpt>
      <trkpt lat="43.52615" lon="5.51468">
        <ele>226</ele>
        <time>2018-02-20T08:15:33.000Z</time>
      </trkpt>
      <trkpt lat="43.52615" lon="5.51469">
        <ele>226</ele>
        <time>2018-02-20T08:15:34.000Z</time>
      </trkpt>
      <trkpt lat="43.52614" lon="5.5147">
        <ele>226</ele>
        <time>2018-02-20T08:15:35.000Z</time>
      </trkpt>
      <trkpt lat="43.52614" lon="5.51471">
        <ele>226</ele>
        <time>2018-02-20T08:15:36.000Z</time>
      </trkpt>
      <trkpt lat="43.52614" lon="5.51473">
        <ele>226</ele>
        <time>2018-02-20T08:15:37.000Z</time>
      </trkpt>
      <trkpt lat="43.52614" lon="5.51474">
        <ele>227</ele>
        <time>2018-02-20T08:15:38.000Z</time>
      </trkpt>
      <trkpt lat="43.52614" lon="5.51475">
        <ele>227</ele>
        <time>2018-02-20T08:15:39.000Z</time>
      </trkpt>
      <trkpt lat="43.52614" lon="5.51476">
        <ele>227</ele>
        <time>2018-02-20T08:15:40.000Z</time>
      </trkpt>
      <trkpt lat="43.52614" lon="5.51477">
        <ele>227</ele>
        <time>2018-02-20T08:15:41.000Z</time>
      </trkpt>
      <trkpt lat="43.52614" lon="5.51478">
        <ele>227</ele>
        <time>2018-02-20T08:15:42.000Z</time>
      </trkpt>
      <trkpt lat="43.52614" lon="5.51479">
        <ele>228</ele>
        <time>2018-02-20T08:15:43.000Z</time>
      </trkpt>
      <trkpt lat="43.52614" lon="5.5148">
        <ele>228</ele>
        <time>2018-02-20T08:15:44.000Z</time>
      </trkpt>
      <trkpt lat="43.52613" lon="5.51481">
        <ele>228</ele>
        <time>2018-02-20T08:15:45.000Z</time>
      </trkpt>
      <trkpt lat="43.52613" lon="5.51482">
        <ele>228</ele>
        <time>2018-02-20T08:15:46.000Z</time>
      </trkpt>
      <trkpt lat="43.52614" lon="5.51484">
        <ele>228</ele>
        <time>2018-02-20T08:15:47.000Z</time>
      </trkpt>
      <trkpt lat="43.52614" lon="5.51485">
        <ele>228</ele>
        <time>2018-02-20T08:15:48.000Z</time>
      </trkpt>
      <trkpt lat="43.52614" lon="5.51486">
        <ele>229</ele>
        <time>2018-02-20T08:15:49.000Z</time>
      </trkpt>
      <trkpt lat="43.52613" lon="5.51487">
        <ele>229</ele>
        <time>2018-02-20T08:15:50.000Z</time>
      </trkpt>
      <trkpt lat="43.52614" lon="5.51488">
        <ele>229</ele>
        <time>2018-02-20T08:15:51.000Z</time>
      </trkpt>
      <trkpt lat="43.52614" lon="5.51489">
        <ele>229</ele>
        <time>2018-02-20T08:15:52.000Z</time>
      </trkpt>
      <trkpt lat="43.52614" lon="5.5149">
        <ele>229</ele>
        <time>2018-02-20T08:15:53.000Z</time>
      </trkpt>
      <trkpt lat="43.52614" lon="5.51491">
        <ele>229</ele>
        <time>2018-02-20T08:15:54.000Z</time>
      </trkpt>
      <trkpt lat="43.52614" lon="5.51492">
        <ele>229</ele>
        <time>2018-02-20T08:15:55.000Z</time>
      </trkpt>
      <trkpt lat="43.52614" lon="5.51494">
        <ele>230</ele>
        <time>2018-02-20T08:15:56.000Z</time>
      </trkpt>
      <trkpt lat="43.52615" lon="5.51495">
        <ele>230</ele>
        <time>2018-02-20T08:15:57.000Z</time>
      </trkpt>
      <trkpt lat="43.52615" lon="5.51496">
        <ele>230</ele>
        <time>2018-02-20T08:15:58.000Z</time>
      </trkpt>
      <trkpt lat="43.52615" lon="5.51497">
        <ele>230</ele>
        <time>2018-02-20T08:15:59.000Z</time>
      </trkpt>
      <trkpt lat="43.52615" lon="5.51497">
        <ele>230</ele>
        <time>2018-02-20T08:16:00.000Z</time>
      </trkpt>
      <trkpt lat="43.52615" lon="5.51498">
        <ele>230</ele>
        <time>2018-02-20T08:16:01.000Z</time>
      </trkpt>
      <trkpt lat="43.52616" lon="5.51499">
        <ele>230</ele>
        <time>2018-02-20T08:16:02.000Z</time>
      </trkpt>
      <trkpt lat="43.52616" lon="5.515">
        <ele>230</ele>
        <time>2018-02-20T08:16:03.000Z</time>
      </trkpt>
      <trkpt lat="43.52616" lon="5.51501">
        <ele>230</ele>
        <time>2018-02-20T08:16:04.000Z</time>
      </trkpt>
      <trkpt lat="43.52616" lon="5.51502">
        <ele>230</ele>
        <time>2018-02-20T08:16:05.000Z</time>
      </trkpt>
      <trkpt lat="43.52617" lon="5.51503">
        <ele>230</ele>
        <time>2018-02-20T08:16:06.000Z</time>
      </trkpt>
      <trkpt lat="43.52617" lon="5.51504">
        <ele>230</ele>
        <time>2018-02-20T08:16:07.000Z</time>
      </trkpt>
      <trkpt lat="43.52617" lon="5.51505">
        <ele>230</ele>
        <time>2018-02-20T08:16:08.000Z</time>
      </trkpt>
      <trkpt lat="43.52617" lon="5.51506">
        <ele>230</ele>
        <time>2018-02-20T08:16:09.000Z</time>
      </trkpt>
      <trkpt lat="43.52617" lon="5.51507">
        <ele>230</ele>
        <time>2018-02-20T08:16:10.000Z</time>
      </trkpt>
      <trkpt lat="43.52617" lon="5.51508">
        <ele>230</ele>
        <time>2018-02-20T08:16:11.000Z</time>
      </trkpt>
      <trkpt lat="43.52617" lon="5.51509">
        <ele>231</ele>
        <time>2018-02-20T08:16:12.000Z</time>
      </trkpt>
      <trkpt lat="43.52617" lon="5.5151">
        <ele>231</ele>
        <time>2018-02-20T08:16:13.000Z</time>
      </trkpt>
      <trkpt lat="43.52617" lon="5.51511">
        <ele>231</ele>
        <time>2018-02-20T08:16:14.000Z</time>
      </trkpt>
      <trkpt lat="43.52617" lon="5.51512">
        <ele>231</ele>
        <time>2018-02-20T08:16:15.000Z</time>
      </trkpt>
      <trkpt lat="43.52618" lon="5.51513">
        <ele>231</ele>
        <time>2018-02-20T08:16:16.000Z</time>
      </trkpt>
      <trkpt lat="43.52618" lon="5.51514">
        <ele>231</ele>
        <time>2018-02-20T08:16:17.000Z</time>
      </trkpt>
      <trkpt lat="43.52617" lon="5.51515">
        <ele>231</ele>
        <time>2018-02-20T08:16:18.000Z</time>
      </trkpt>
      <trkpt lat="43.52618" lon="5.51516">
        <ele>231</ele>
        <time>2018-02-20T08:16:19.000Z</time>
      </trkpt>
      <trkpt lat="43.52618" lon="5.51517">
        <ele>231</ele>
        <time>2018-02-20T08:16:20.000Z</time>
      </trkpt>
      <trkpt lat="43.52618" lon="5.51518">
        <ele>231</ele>
        <time>2018-02-20T08:16:21.000Z</time>
      </trkpt>
      <trkpt lat="43.52618" lon="5.51519">
        <ele>231</ele>
        <time>2018-02-20T08:16:22.000Z</time>
      </trkpt>
      <trkpt lat="43.52618" lon="5.5152">
        <ele>231</ele>
        <time>2018-02-20T08:16:23.000Z</time>
      </trkpt>
      <trkpt lat="43.52618" lon="5.51521">
        <ele>231</ele>
        <time>2018-02-20T08:16:24.000Z</time>
      </trkpt>
      <trkpt lat="43.52618" lon="5.51522">
        <ele>231</ele>
        <time>2018-02-20T08:16:25.000Z</time>
      </trkpt>
      <trkpt lat="43.52619" lon="5.51523">
        <ele>231</ele>
        <time>2018-02-20T08:16:26.000Z</time>
      </trkpt>
      <trkpt lat="43.52618" lon="5.51525">
        <ele>231</ele>
        <time>2018-02-20T08:16:27.000Z</time>
      </trkpt>
      <trkpt lat="43.52618" lon="5.51526">
        <ele>231</ele>
        <time>2018-02-20T08:16:28.000Z</time>
      </trkpt>
      <trkpt lat="43.52619" lon="5.51527">
        <ele>231</ele>
        <time>2018-02-20T08:16:29.000Z</time>
      </trkpt>
      <trkpt lat="43.52619" lon="5.51528">
        <ele>231</ele>
        <time>2018-02-20T08:16:30.000Z</time>
      </trkpt>
      <trkpt lat="43.52619" lon="5.51529">
        <ele>232</ele>
        <time>2018-02-20T08:16:31.000Z</time>
      </trkpt>
      <trkpt lat="43.52619" lon="5.5153">
        <ele>232</ele>
        <time>2018-02-20T08:16:32.000Z</time>
      </trkpt>
      <trkpt lat="43.52619" lon="5.51531">
        <ele>232</ele>
        <time>2018-02-20T08:16:33.000Z</time>
      </trkpt>
      <trkpt lat="43.52618" lon="5.51533">
        <ele>232</ele>
        <time>2018-02-20T08:16:34.000Z</time>
      </trkpt>
      <trkpt lat="43.52618" lon="5.51534">
        <ele>232</ele>
        <time>2018-02-20T08:16:35.000Z</time>
      </trkpt>
      <trkpt lat="43.52618" lon="5.51535">
        <ele>232</ele>
        <time>2018-02-20T08:16:36.000Z</time>
      </trkpt>
      <trkpt lat="43.52618" lon="5.51536">
        <ele>232</ele>
        <time>2018-02-20T08:16:37.000Z</time>
      </trkpt>
      <trkpt lat="43.52618" lon="5.51537">
        <ele>232</ele>
        <time>2018-02-20T08:16:38.000Z</time>
      </trkpt>
      <trkpt lat="43.52618" lon="5.51538">
        <ele>232</ele>
        <time>2018-02-20T08:16:39.000Z</time>
      </trkpt>
      <trkpt lat="43.52618" lon="5.51539">
        <ele>233</ele>
        <time>2018-02-20T08:16:40.000Z</time>
      </trkpt>
      <trkpt lat="43.52618" lon="5.5154">
        <ele>233</ele>
        <time>2018-02-20T08:16:41.000Z</time>
      </trkpt>
      <trkpt lat="43.52618" lon="5.5154">
        <ele>233</ele>
        <time>2018-02-20T08:16:42.000Z</time>
      </trkpt>
      <trkpt lat="43.52618" lon="5.51541">
        <ele>233</ele>
        <time>2018-02-20T08:16:43.000Z</time>
      </trkpt>
      <trkpt lat="43.52618" lon="5.51542">
        <ele>233</ele>
        <time>2018-02-20T08:16:44.000Z</time>
      </trkpt>
      <trkpt lat="43.52618" lon="5.51543">
        <ele>233</ele>
        <time>2018-02-20T08:16:45.000Z</time>
      </trkpt>
      <trkpt lat="43.52617" lon="5.51544">
        <ele>233</ele>
        <time>2018-02-20T08:16:46.000Z</time>
      </trkpt>
      <trkpt lat="43.52617" lon="5.51545">
        <ele>233</ele>
        <time>2018-02-20T08:16:47.000Z</time>
      </trkpt>
      <trkpt lat="43.52617" lon="5.51546">
        <ele>234</ele>
        <time>2018-02-20T08:16:48.000Z</time>
      </trkpt>
      <trkpt lat="43.52617" lon="5.51547">
        <ele>234</ele>
        <time>2018-02-20T08:16:49.000Z</time>
      </trkpt>
      <trkpt lat="43.52617" lon="5.51548">
        <ele>234</ele>
        <time>2018-02-20T08:16:50.000Z</time>
      </trkpt>
      <trkpt lat="43.52616" lon="5.5155">
        <ele>234</ele>
        <time>2018-02-20T08:16:51.000Z</time>
      </trkpt>
      <trkpt lat="43.52616" lon="5.51551">
        <ele>235</ele>
        <time>2018-02-20T08:16:52.000Z</time>
      </trkpt>
      <trkpt lat="43.52616" lon="5.51552">
        <ele>235</ele>
        <time>2018-02-20T08:16:53.000Z</time>
      </trkpt>
      <trkpt lat="43.52615" lon="5.51553">
        <ele>235</ele>
        <time>2018-02-20T08:16:54.000Z</time>
      </trkpt>
      <trkpt lat="43.52615" lon="5.51554">
        <ele>235</ele>
        <time>2018-02-20T08:16:55.000Z</time>
      </trkpt>
      <trkpt lat="43.52614" lon="5.51555">
        <ele>235</ele>
        <time>2018-02-20T08:16:56.000Z</time>
      </trkpt>
      <trkpt lat="43.52614" lon="5.51556">
        <ele>235</ele>
        <time>2018-02-20T08:16:57.000Z</time>
      </trkpt>
      <trkpt lat="43.52614" lon="5.51557">
        <ele>235</ele>
        <time>2018-02-20T08:16:58.000Z</time>
      </trkpt>
      <trkpt lat="43.52614" lon="5.51558">
        <ele>235</ele>
        <time>2018-02-20T08:16:59.000Z</time>
      </trkpt>
      <trkpt lat="43.52614" lon="5.51559">
        <ele>236</ele>
        <time>2018-02-20T08:17:00.000Z</time>
      </trkpt>
      <trkpt lat="43.52614" lon="5.51561">
        <ele>236</ele>
        <time>2018-02-20T08:17:01.000Z</time>
      </trkpt>
      <trkpt lat="43.52613" lon="5.51561">
        <ele>236</ele>
        <time>2018-02-20T08:17:02.000Z</time>
      </trkpt>
      <trkpt lat="43.52613" lon="5.51562">
        <ele>236</ele>
        <time>2018-02-20T08:17:03.000Z</time>
      </trkpt>
      <trkpt lat="43.52613" lon="5.51563">
        <ele>236</ele>
        <time>2018-02-20T08:17:04.000Z</time>
      </trkpt>
      <trkpt lat="43.52613" lon="5.51564">
        <ele>237</ele>
        <time>2018-02-20T08:17:05.000Z</time>
      </trkpt>
      <trkpt lat="43.52613" lon="5.51565">
        <ele>237</ele>
        <time>2018-02-20T08:17:06.000Z</time>
      </trkpt>
      <trkpt lat="43.52613" lon="5.51565">
        <ele>237</ele>
        <time>2018-02-20T08:17:07.000Z</time>
      </trkpt>
      <trkpt lat="43.52613" lon="5.51565">
        <ele>237</ele>
        <time>2018-02-20T08:17:08.000Z</time>
      </trkpt>
      <trkpt lat="43.52613" lon="5.51565">
        <ele>237</ele>
        <time>2018-02-20T08:17:09.000Z</time>
      </trkpt>
      <trkpt lat="43.52613" lon="5.51565">
        <ele>238</ele>
        <time>2018-02-20T08:17:10.000Z</time>
      </trkpt>
      <trkpt lat="43.52613" lon="5.51565">
        <ele>238</ele>
        <time>2018-02-20T08:17:11.000Z</time>
      </trkpt>
      <trkpt lat="43.52613" lon="5.51565">
        <ele>238</ele>
        <time>2018-02-20T08:17:12.000Z</time>
      </trkpt>
      <trkpt lat="43.52613" lon="5.51565">
        <ele>238</ele>
        <time>2018-02-20T08:17:13.000Z</time>
      </trkpt>
      <trkpt lat="43.52613" lon="5.51565">
        <ele>238</ele>
        <time>2018-02-20T08:17:14.000Z</time>
      </trkpt>
      <trkpt lat="43.52613" lon="5.51565">
        <ele>238</ele>
        <time>2018-02-20T08:17:15.000Z</time>
      </trkpt>
      <trkpt lat="43.52613" lon="5.51565">
        <ele>238</ele>
        <time>2018-02-20T08:17:16.000Z</time>
      </trkpt>
      <trkpt lat="43.52613" lon="5.51566">
        <ele>238</ele>
        <time>2018-02-20T08:17:17.000Z</time>
      </trkpt>
      <trkpt lat="43.52613" lon="5.51566">
        <ele>238</ele>
        <time>2018-02-20T08:17:18.000Z</time>
      </trkpt>
      <trkpt lat="43.52613" lon="5.51566">
        <ele>239</ele>
        <time>2018-02-20T08:17:19.000Z</time>
      </trkpt>
      <trkpt lat="43.52613" lon="5.51566">
        <ele>239</ele>
        <time>2018-02-20T08:17:20.000Z</time>
      </trkpt>
      <trkpt lat="43.52613" lon="5.51566">
        <ele>239</ele>
        <time>2018-02-20T08:17:21.000Z</time>
      </trkpt>
      <trkpt lat="43.52613" lon="5.51566">
        <ele>239</ele>
        <time>2018-02-20T08:17:22.000Z</time>
      </trkpt>
      <trkpt lat="43.52613" lon="5.51566">
        <ele>239</ele>
        <time>2018-02-20T08:17:23.000Z</time>
      </trkpt>
      <trkpt lat="43.52612" lon="5.51566">
        <ele>239</ele>
        <time>2018-02-20T08:17:24.000Z</time>
      </trkpt>
      <trkpt lat="43.52613" lon="5.51567">
        <ele>239</ele>
        <time>2018-02-20T08:17:25.000Z</time>
      </trkpt>
      <trkpt lat="43.52613" lon="5.51568">
        <ele>239</ele>
        <time>2018-02-20T08:17:26.000Z</time>
      </trkpt>
      <trkpt lat="43.52613" lon="5.51569">
        <ele>239</ele>
        <time>2018-02-20T08:17:27.000Z</time>
      </trkpt>
      <trkpt lat="43.52613" lon="5.51569">
        <ele>240</ele>
        <time>2018-02-20T08:17:28.000Z</time>
      </trkpt>
      <trkpt lat="43.52613" lon="5.5157">
        <ele>240</ele>
        <time>2018-02-20T08:17:29.000Z</time>
      </trkpt>
      <trkpt lat="43.52613" lon="5.51571">
        <ele>240</ele>
        <time>2018-02-20T08:17:30.000Z</time>
      </trkpt>
      <trkpt lat="43.52613" lon="5.51572">
        <ele>240</ele>
        <time>2018-02-20T08:17:31.000Z</time>
      </trkpt>
      <trkpt lat="43.52613" lon="5.51573">
        <ele>240</ele>
        <time>2018-02-20T08:17:32.000Z</time>
      </trkpt>
      <trkpt lat="43.52613" lon="5.51574">
        <ele>240</ele>
        <time>2018-02-20T08:17:33.000Z</time>
      </trkpt>
      <trkpt lat="43.52613" lon="5.51575">
        <ele>241</ele>
        <time>2018-02-20T08:17:34.000Z</time>
      </trkpt>
      <trkpt lat="43.52613" lon="5.51576">
        <ele>241</ele>
        <time>2018-02-20T08:17:35.000Z</time>
      </trkpt>
      <trkpt lat="43.52613" lon="5.51577">
        <ele>241</ele>
        <time>2018-02-20T08:17:36.000Z</time>
      </trkpt>
      <trkpt lat="43.52612" lon="5.51578">
        <ele>241</ele>
        <time>2018-02-20T08:17:37.000Z</time>
      </trkpt>
      <trkpt lat="43.52612" lon="5.51578">
        <ele>241</ele>
        <time>2018-02-20T08:17:38.000Z</time>
      </trkpt>
      <trkpt lat="43.52612" lon="5.51579">
        <ele>242</ele>
        <time>2018-02-20T08:17:39.000Z</time>
      </trkpt>
      <trkpt lat="43.52612" lon="5.5158">
        <ele>242</ele>
        <time>2018-02-20T08:17:40.000Z</time>
      </trkpt>
      <trkpt lat="43.52612" lon="5.51581">
        <ele>242</ele>
        <time>2018-02-20T08:17:41.000Z</time>
      </trkpt>
      <trkpt lat="43.52612" lon="5.51582">
        <ele>242</ele>
        <time>2018-02-20T08:17:42.000Z</time>
      </trkpt>
      <trkpt lat="43.52612" lon="5.51583">
        <ele>242</ele>
        <time>2018-02-20T08:17:43.000Z</time>
      </trkpt>
      <trkpt lat="43.52612" lon="5.51583">
        <ele>242</ele>
        <time>2018-02-20T08:17:44.000Z</time>
      </trkpt>
      <trkpt lat="43.52612" lon="5.51584">
        <ele>242</ele>
        <time>2018-02-20T08:17:45.000Z</time>
      </trkpt>
      <trkpt lat="43.52612" lon="5.51585">
        <ele>242</ele>
        <time>2018-02-20T08:17:46.000Z</time>
      </trkpt>
      <trkpt lat="43.52612" lon="5.51587">
        <ele>242</ele>
        <time>2018-02-20T08:17:47.000Z</time>
      </trkpt>
      <trkpt lat="43.52612" lon="5.51588">
        <ele>242</ele>
        <time>2018-02-20T08:17:48.000Z</time>
      </trkpt>
      <trkpt lat="43.52612" lon="5.51588">
        <ele>242</ele>
        <time>2018-02-20T08:17:49.000Z</time>
      </trkpt>
      <trkpt lat="43.52611" lon="5.51589">
        <ele>242</ele>
        <time>2018-02-20T08:17:50.000Z</time>
      </trkpt>
      <trkpt lat="43.52611" lon="5.5159">
        <ele>242</ele>
        <time>2018-02-20T08:17:51.000Z</time>
      </trkpt>
      <trkpt lat="43.52611" lon="5.51591">
        <ele>242</ele>
        <time>2018-02-20T08:17:52.000Z</time>
      </trkpt>
      <trkpt lat="43.52611" lon="5.51592">
        <ele>243</ele>
        <time>2018-02-20T08:17:53.000Z</time>
      </trkpt>
      <trkpt lat="43.52611" lon="5.51593">
        <ele>243</ele>
        <time>2018-02-20T08:17:54.000Z</time>
      </trkpt>
      <trkpt lat="43.52611" lon="5.51594">
        <ele>243</ele>
        <time>2018-02-20T08:17:55.000Z</time>
      </trkpt>
      <trkpt lat="43.52611" lon="5.51595">
        <ele>243</ele>
        <time>2018-02-20T08:17:56.000Z</time>
      </trkpt>
      <trkpt lat="43.5261" lon="5.51596">
        <ele>243</ele>
        <time>2018-02-20T08:17:57.000Z</time>
      </trkpt>
      <trkpt lat="43.5261" lon="5.51597">
        <ele>243</ele>
        <time>2018-02-20T08:17:58.000Z</time>
      </trkpt>
      <trkpt lat="43.5261" lon="5.51598">
        <ele>243</ele>
        <time>2018-02-20T08:17:59.000Z</time>
      </trkpt>
      <trkpt lat="43.5261" lon="5.51599">
        <ele>243</ele>
        <time>2018-02-20T08:18:00.000Z</time>
      </trkpt>
      <trkpt lat="43.5261" lon="5.516">
        <ele>243</ele>
        <time>2018-02-20T08:18:01.000Z</time>
      </trkpt>
      <trkpt lat="43.52609" lon="5.51601">
        <ele>243</ele>
        <time>2018-02-20T08:18:02.000Z</time>
      </trkpt>
      <trkpt lat="43.52609" lon="5.51601">
        <ele>243</ele>
        <time>2018-02-20T08:18:03.000Z</time>
      </trkpt>
      <trkpt lat="43.52609" lon="5.51602">
        <ele>244</ele>
        <time>2018-02-20T08:18:04.000Z</time>
      </trkpt>
      <trkpt lat="43.52609" lon="5.51603">
        <ele>244</ele>
        <time>2018-02-20T08:18:05.000Z</time>
      </trkpt>
      <trkpt lat="43.52609" lon="5.51604">
        <ele>244</ele>
        <time>2018-02-20T08:18:06.000Z</time>
      </trkpt>
      <trkpt lat="43.52608" lon="5.51605">
        <ele>244</ele>
        <time>2018-02-20T08:18:07.000Z</time>
      </trkpt>
      <trkpt lat="43.52608" lon="5.51606">
        <ele>244</ele>
        <time>2018-02-20T08:18:08.000Z</time>
      </trkpt>
      <trkpt lat="43.52608" lon="5.51607">
        <ele>244</ele>
        <time>2018-02-20T08:18:09.000Z</time>
      </trkpt>
      <trkpt lat="43.52608" lon="5.51607">
        <ele>244</ele>
        <time>2018-02-20T08:18:10.000Z</time>
      </trkpt>
      <trkpt lat="43.52608" lon="5.51609">
        <ele>244</ele>
        <time>2018-02-20T08:18:11.000Z</time>
      </trkpt>
      <trkpt lat="43.52608" lon="5.5161">
        <ele>244</ele>
        <time>2018-02-20T08:18:12.000Z</time>
      </trkpt>
      <trkpt lat="43.52608" lon="5.5161">
        <ele>245</ele>
        <time>2018-02-20T08:18:13.000Z</time>
      </trkpt>
      <trkpt lat="43.52608" lon="5.51611">
        <ele>245</ele>
        <time>2018-02-20T08:18:14.000Z</time>
      </trkpt>
      <trkpt lat="43.52608" lon="5.51612">
        <ele>245</ele>
        <time>2018-02-20T08:18:15.000Z</time>
      </trkpt>
      <trkpt lat="43.52608" lon="5.51613">
        <ele>245</ele>
        <time>2018-02-20T08:18:16.000Z</time>
      </trkpt>
      <trkpt lat="43.52608" lon="5.51614">
        <ele>245</ele>
        <time>2018-02-20T08:18:17.000Z</time>
      </trkpt>
      <trkpt lat="43.52607" lon="5.51616">
        <ele>245</ele>
        <time>2018-02-20T08:18:18.000Z</time>
      </trkpt>
      <trkpt lat="43.52607" lon="5.51617">
        <ele>245</ele>
        <time>2018-02-20T08:18:19.000Z</time>
      </trkpt>
      <trkpt lat="43.52607" lon="5.51618">
        <ele>245</ele>
        <time>2018-02-20T08:18:20.000Z</time>
      </trkpt>
      <trkpt lat="43.52607" lon="5.51619">
        <ele>245</ele>
        <time>2018-02-20T08:18:21.000Z</time>
      </trkpt>
      <trkpt lat="43.52607" lon="5.5162">
        <ele>245</ele>
        <time>2018-02-20T08:18:22.000Z</time>
      </trkpt>
      <trkpt lat="43.52607" lon="5.51621">
        <ele>245</ele>
        <time>2018-02-20T08:18:23.000Z</time>
      </trkpt>
      <trkpt lat="43.52607" lon="5.51622">
        <ele>245</ele>
        <time>2018-02-20T08:18:24.000Z</time>
      </trkpt>
      <trkpt lat="43.52606" lon="5.51623">
        <ele>245</ele>
        <time>2018-02-20T08:18:25.000Z</time>
      </trkpt>
      <trkpt lat="43.52606" lon="5.51624">
        <ele>245</ele>
        <time>2018-02-20T08:18:26.000Z</time>
      </trkpt>
      <trkpt lat="43.52607" lon="5.51625">
        <ele>245</ele>
        <time>2018-02-20T08:18:27.000Z</time>
      </trkpt>
      <trkpt lat="43.52607" lon="5.51626">
        <ele>246</ele>
        <time>2018-02-20T08:18:28.000Z</time>
      </trkpt>
      <trkpt lat="43.52607" lon="5.51627">
        <ele>246</ele>
        <time>2018-02-20T08:18:29.000Z</time>
      </trkpt>
      <trkpt lat="43.52606" lon="5.51628">
        <ele>246</ele>
        <time>2018-02-20T08:18:30.000Z</time>
      </trkpt>
      <trkpt lat="43.52606" lon="5.51629">
        <ele>246</ele>
        <time>2018-02-20T08:18:31.000Z</time>
      </trkpt>
      <trkpt lat="43.52606" lon="5.5163">
        <ele>246</ele>
        <time>2018-02-20T08:18:32.000Z</time>
      </trkpt>
      <trkpt lat="43.52606" lon="5.51631">
        <ele>246</ele>
        <time>2018-02-20T08:18:33.000Z</time>
      </trkpt>
      <trkpt lat="43.52606" lon="5.51633">
        <ele>247</ele>
        <time>2018-02-20T08:18:34.000Z</time>
      </trkpt>
      <trkpt lat="43.52606" lon="5.51634">
        <ele>247</ele>
        <time>2018-02-20T08:18:35.000Z</time>
      </trkpt>
      <trkpt lat="43.52606" lon="5.51635">
        <ele>247</ele>
        <time>2018-02-20T08:18:36.000Z</time>
      </trkpt>
      <trkpt lat="43.52606" lon="5.51636">
        <ele>247</ele>
        <time>2018-02-20T08:18:37.000Z</time>
      </trkpt>
      <trkpt lat="43.52606" lon="5.51637">
        <ele>248</ele>
        <time>2018-02-20T08:18:38.000Z</time>
      </trkpt>
      <trkpt lat="43.52605" lon="5.51638">
        <ele>248</ele>
        <time>2018-02-20T08:18:39.000Z</time>
      </trkpt>
      <trkpt lat="43.52605" lon="5.51639">
        <ele>248</ele>
        <time>2018-02-20T08:18:40.000Z</time>
      </trkpt>
      <trkpt lat="43.52605" lon="5.5164">
        <ele>248</ele>
        <time>2018-02-20T08:18:41.000Z</time>
      </trkpt>
      <trkpt lat="43.52605" lon="5.51642">
        <ele>249</ele>
        <time>2018-02-20T08:18:42.000Z</time>
      </trkpt>
      <trkpt lat="43.52604" lon="5.51643">
        <ele>249</ele>
        <time>2018-02-20T08:18:43.000Z</time>
      </trkpt>
      <trkpt lat="43.52604" lon="5.51644">
        <ele>249</ele>
        <time>2018-02-20T08:18:44.000Z</time>
      </trkpt>
      <trkpt lat="43.52603" lon="5.51645">
        <ele>249</ele>
        <time>2018-02-20T08:18:45.000Z</time>
      </trkpt>
      <trkpt lat="43.52603" lon="5.51646">
        <ele>249</ele>
        <time>2018-02-20T08:18:46.000Z</time>
      </trkpt>
      <trkpt lat="43.52602" lon="5.51647">
        <ele>249</ele>
        <time>2018-02-20T08:18:47.000Z</time>
      </trkpt>
      <trkpt lat="43.52602" lon="5.51648">
        <ele>249</ele>
        <time>2018-02-20T08:18:48.000Z</time>
      </trkpt>
      <trkpt lat="43.52602" lon="5.51649">
        <ele>249</ele>
        <time>2018-02-20T08:18:49.000Z</time>
      </trkpt>
      <trkpt lat="43.52601" lon="5.5165">
        <ele>249</ele>
        <time>2018-02-20T08:18:50.000Z</time>
      </trkpt>
      <trkpt lat="43.52601" lon="5.51651">
        <ele>249</ele>
        <time>2018-02-20T08:18:51.000Z</time>
      </trkpt>
      <trkpt lat="43.526" lon="5.51652">
        <ele>250</ele>
        <time>2018-02-20T08:18:52.000Z</time>
      </trkpt>
      <trkpt lat="43.526" lon="5.51654">
        <ele>250</ele>
        <time>2018-02-20T08:18:53.000Z</time>
      </trkpt>
      <trkpt lat="43.52599" lon="5.51655">
        <ele>250</ele>
        <time>2018-02-20T08:18:54.000Z</time>
      </trkpt>
      <trkpt lat="43.52599" lon="5.51656">
        <ele>250</ele>
        <time>2018-02-20T08:18:55.000Z</time>
      </trkpt>
      <trkpt lat="43.52599" lon="5.51657">
        <ele>250</ele>
        <time>2018-02-20T08:18:56.000Z</time>
      </trkpt>
      <trkpt lat="43.52599" lon="5.51658">
        <ele>250</ele>
        <time>2018-02-20T08:18:57.000Z</time>
      </trkpt>
      <trkpt lat="43.52598" lon="5.51659">
        <ele>250</ele>
        <time>2018-02-20T08:18:58.000Z</time>
      </trkpt>
      <trkpt lat="43.52598" lon="5.5166">
        <ele>250</ele>
        <time>2018-02-20T08:18:59.000Z</time>
      </trkpt>
      <trkpt lat="43.52598" lon="5.51661">
        <ele>251</ele>
        <time>2018-02-20T08:19:00.000Z</time>
      </trkpt>
      <trkpt lat="43.52598" lon="5.51661">
        <ele>251</ele>
        <time>2018-02-20T08:19:01.000Z</time>
      </trkpt>
      <trkpt lat="43.52598" lon="5.51662">
        <ele>251</ele>
        <time>2018-02-20T08:19:02.000Z</time>
      </trkpt>
      <trkpt lat="43.52597" lon="5.51663">
        <ele>251</ele>
        <time>2018-02-20T08:19:03.000Z</time>
      </trkpt>
      <trkpt lat="43.52597" lon="5.51664">
        <ele>251</ele>
        <time>2018-02-20T08:19:04.000Z</time>
      </trkpt>
      <trkpt lat="43.52597" lon="5.51665">
        <ele>251</ele>
        <time>2018-02-20T08:19:05.000Z</time>
      </trkpt>
      <trkpt lat="43.52597" lon="5.51666">
        <ele>251</ele>
        <time>2018-02-20T08:19:06.000Z</time>
      </trkpt>
      <trkpt lat="43.52596" lon="5.51667">
        <ele>251</ele>
        <time>2018-02-20T08:19:07.000Z</time>
      </trkpt>
      <trkpt lat="43.52596" lon="5.51668">
        <ele>251</ele>
        <time>2018-02-20T08:19:08.000Z</time>
      </trkpt>
      <trkpt lat="43.52596" lon="5.51669">
        <ele>251</ele>
        <time>2018-02-20T08:19:09.000Z</time>
      </trkpt>
      <trkpt lat="43.52595" lon="5.5167">
        <ele>252</ele>
        <time>2018-02-20T08:19:10.000Z</time>
      </trkpt>
      <trkpt lat="43.52595" lon="5.51671">
        <ele>252</ele>
        <time>2018-02-20T08:19:11.000Z</time>
      </trkpt>
      <trkpt lat="43.52595" lon="5.51672">
        <ele>252</ele>
        <time>2018-02-20T08:19:12.000Z</time>
      </trkpt>
      <trkpt lat="43.52594" lon="5.51673">
        <ele>252</ele>
        <time>2018-02-20T08:19:13.000Z</time>
      </trkpt>
      <trkpt lat="43.52594" lon="5.51674">
        <ele>252</ele>
        <time>2018-02-20T08:19:14.000Z</time>
      </trkpt>
      <trkpt lat="43.52594" lon="5.51675">
        <ele>252</ele>
        <time>2018-02-20T08:19:15.000Z</time>
      </trkpt>
      <trkpt lat="43.52594" lon="5.51676">
        <ele>253</ele>
        <time>2018-02-20T08:19:16.000Z</time>
      </trkpt>
      <trkpt lat="43.52593" lon="5.51677">
        <ele>253</ele>
        <time>2018-02-20T08:19:17.000Z</time>
      </trkpt>
      <trkpt lat="43.52593" lon="5.51678">
        <ele>253</ele>
        <time>2018-02-20T08:19:18.000Z</time>
      </trkpt>
      <trkpt lat="43.52593" lon="5.51679">
        <ele>253</ele>
        <time>2018-02-20T08:19:19.000Z</time>
      </trkpt>
      <trkpt lat="43.52593" lon="5.5168">
        <ele>253</ele>
        <time>2018-02-20T08:19:20.000Z</time>
      </trkpt>
      <trkpt lat="43.52593" lon="5.51681">
        <ele>254</ele>
        <time>2018-02-20T08:19:21.000Z</time>
      </trkpt>
      <trkpt lat="43.52593" lon="5.51682">
        <ele>254</ele>
        <time>2018-02-20T08:19:22.000Z</time>
      </trkpt>
      <trkpt lat="43.52593" lon="5.51682">
        <ele>254</ele>
        <time>2018-02-20T08:19:23.000Z</time>
      </trkpt>
      <trkpt lat="43.52593" lon="5.51682">
        <ele>254</ele>
        <time>2018-02-20T08:19:24.000Z</time>
      </trkpt>
      <trkpt lat="43.52593" lon="5.51683">
        <ele>254</ele>
        <time>2018-02-20T08:19:25.000Z</time>
      </trkpt>
      <trkpt lat="43.52593" lon="5.51684">
        <ele>254</ele>
        <time>2018-02-20T08:19:26.000Z</time>
      </trkpt>
      <trkpt lat="43.52593" lon="5.51685">
        <ele>254</ele>
        <time>2018-02-20T08:19:27.000Z</time>
      </trkpt>
      <trkpt lat="43.52593" lon="5.51686">
        <ele>255</ele>
        <time>2018-02-20T08:19:28.000Z</time>
      </trkpt>
      <trkpt lat="43.52593" lon="5.51687">
        <ele>255</ele>
        <time>2018-02-20T08:19:29.000Z</time>
      </trkpt>
      <trkpt lat="43.52592" lon="5.51688">
        <ele>255</ele>
        <time>2018-02-20T08:19:30.000Z</time>
      </trkpt>
      <trkpt lat="43.52592" lon="5.51689">
        <ele>255</ele>
        <time>2018-02-20T08:19:31.000Z</time>
      </trkpt>
      <trkpt lat="43.52592" lon="5.5169">
        <ele>255</ele>
        <time>2018-02-20T08:19:32.000Z</time>
      </trkpt>
      <trkpt lat="43.52592" lon="5.5169">
        <ele>256</ele>
        <time>2018-02-20T08:19:33.000Z</time>
      </trkpt>
      <trkpt lat="43.52592" lon="5.51692">
        <ele>256</ele>
        <time>2018-02-20T08:19:34.000Z</time>
      </trkpt>
      <trkpt lat="43.52591" lon="5.51692">
        <ele>256</ele>
        <time>2018-02-20T08:19:35.000Z</time>
      </trkpt>
      <trkpt lat="43.52591" lon="5.51694">
        <ele>256</ele>
        <time>2018-02-20T08:19:36.000Z</time>
      </trkpt>
      <trkpt lat="43.52591" lon="5.51695">
        <ele>256</ele>
        <time>2018-02-20T08:19:37.000Z</time>
      </trkpt>
      <trkpt lat="43.52591" lon="5.51696">
        <ele>256</ele>
        <time>2018-02-20T08:19:38.000Z</time>
      </trkpt>
      <trkpt lat="43.52591" lon="5.51697">
        <ele>257</ele>
        <time>2018-02-20T08:19:39.000Z</time>
      </trkpt>
      <trkpt lat="43.52591" lon="5.51698">
        <ele>257</ele>
        <time>2018-02-20T08:19:40.000Z</time>
      </trkpt>
      <trkpt lat="43.52591" lon="5.51699">
        <ele>257</ele>
        <time>2018-02-20T08:19:41.000Z</time>
      </trkpt>
      <trkpt lat="43.52591" lon="5.517">
        <ele>257</ele>
        <time>2018-02-20T08:19:42.000Z</time>
      </trkpt>
      <trkpt lat="43.52591" lon="5.517">
        <ele>257</ele>
        <time>2018-02-20T08:19:43.000Z</time>
      </trkpt>
      <trkpt lat="43.52591" lon="5.51702">
        <ele>257</ele>
        <time>2018-02-20T08:19:44.000Z</time>
      </trkpt>
      <trkpt lat="43.52591" lon="5.51702">
        <ele>257</ele>
        <time>2018-02-20T08:19:45.000Z</time>
      </trkpt>
      <trkpt lat="43.52591" lon="5.51704">
        <ele>257</ele>
        <time>2018-02-20T08:19:46.000Z</time>
      </trkpt>
      <trkpt lat="43.52591" lon="5.51704">
        <ele>258</ele>
        <time>2018-02-20T08:19:47.000Z</time>
      </trkpt>
      <trkpt lat="43.52591" lon="5.51706">
        <ele>258</ele>
        <time>2018-02-20T08:19:48.000Z</time>
      </trkpt>
      <trkpt lat="43.5259" lon="5.51707">
        <ele>258</ele>
        <time>2018-02-20T08:19:49.000Z</time>
      </trkpt>
      <trkpt lat="43.5259" lon="5.51707">
        <ele>258</ele>
        <time>2018-02-20T08:19:50.000Z</time>
      </trkpt>
      <trkpt lat="43.5259" lon="5.51708">
        <ele>258</ele>
        <time>2018-02-20T08:19:51.000Z</time>
      </trkpt>
      <trkpt lat="43.5259" lon="5.51709">
        <ele>258</ele>
        <time>2018-02-20T08:19:52.000Z</time>
      </trkpt>
      <trkpt lat="43.5259" lon="5.5171">
        <ele>258</ele>
        <time>2018-02-20T08:19:53.000Z</time>
      </trkpt>
      <trkpt lat="43.5259" lon="5.51711">
        <ele>259</ele>
        <time>2018-02-20T08:19:54.000Z</time>
      </trkpt>
      <trkpt lat="43.52589" lon="5.51712">
        <ele>259</ele>
        <time>2018-02-20T08:19:55.000Z</time>
      </trkpt>
      <trkpt lat="43.52589" lon="5.51712">
        <ele>259</ele>
        <time>2018-02-20T08:19:56.000Z</time>
      </trkpt>
      <trkpt lat="43.52589" lon="5.51713">
        <ele>259</ele>
        <time>2018-02-20T08:19:57.000Z</time>
      </trkpt>
      <trkpt lat="43.52588" lon="5.51714">
        <ele>259</ele>
        <time>2018-02-20T08:19:58.000Z</time>
      </trkpt>
      <trkpt lat="43.52588" lon="5.51715">
        <ele>259</ele>
        <time>2018-02-20T08:19:59.000Z</time>
      </trkpt>
      <trkpt lat="43.52588" lon="5.51716">
        <ele>259</ele>
        <time>2018-02-20T08:20:00.000Z</time>
      </trkpt>
      <trkpt lat="43.52588" lon="5.51717">
        <ele>259</ele>
        <time>2018-02-20T08:20:01.000Z</time>
      </trkpt>
      <trkpt lat="43.52588" lon="5.51717">
        <ele>259</ele>
        <time>2018-02-20T08:20:02.000Z</time>
      </trkpt>
      <trkpt lat="43.52588" lon="5.51718">
        <ele>259</ele>
        <time>2018-02-20T08:20:03.000Z</time>
      </trkpt>
      <trkpt lat="43.52587" lon="5.51719">
        <ele>259</ele>
        <time>2018-02-20T08:20:04.000Z</time>
      </trkpt>
      <trkpt lat="43.52587" lon="5.5172">
        <ele>260</ele>
        <time>2018-02-20T08:20:05.000Z</time>
      </trkpt>
      <trkpt lat="43.52587" lon="5.51721">
        <ele>260</ele>
        <time>2018-02-20T08:20:06.000Z</time>
      </trkpt>
      <trkpt lat="43.52587" lon="5.51722">
        <ele>260</ele>
        <time>2018-02-20T08:20:07.000Z</time>
      </trkpt>
      <trkpt lat="43.52587" lon="5.51723">
        <ele>260</ele>
        <time>2018-02-20T08:20:08.000Z</time>
      </trkpt>
      <trkpt lat="43.52587" lon="5.51723">
        <ele>260</ele>
        <time>2018-02-20T08:20:09.000Z</time>
      </trkpt>
      <trkpt lat="43.52586" lon="5.51724">
        <ele>260</ele>
        <time>2018-02-20T08:20:10.000Z</time>
      </trkpt>
      <trkpt lat="43.52586" lon="5.51725">
        <ele>260</ele>
        <time>2018-02-20T08:20:11.000Z</time>
      </trkpt>
      <trkpt lat="43.52586" lon="5.51726">
        <ele>260</ele>
        <time>2018-02-20T08:20:12.000Z</time>
      </trkpt>
      <trkpt lat="43.52586" lon="5.51726">
        <ele>260</ele>
        <time>2018-02-20T08:20:13.000Z</time>
      </trkpt>
      <trkpt lat="43.52586" lon="5.51727">
        <ele>261</ele>
        <time>2018-02-20T08:20:14.000Z</time>
      </trkpt>
      <trkpt lat="43.52586" lon="5.51728">
        <ele>261</ele>
        <time>2018-02-20T08:20:15.000Z</time>
      </trkpt>
      <trkpt lat="43.52586" lon="5.51729">
        <ele>261</ele>
        <time>2018-02-20T08:20:16.000Z</time>
      </trkpt>
      <trkpt lat="43.52585" lon="5.5173">
        <ele>261</ele>
        <time>2018-02-20T08:20:17.000Z</time>
      </trkpt>
      <trkpt lat="43.52585" lon="5.5173">
        <ele>261</ele>
        <time>2018-02-20T08:20:18.000Z</time>
      </trkpt>
      <trkpt lat="43.52586" lon="5.51731">
        <ele>261</ele>
        <time>2018-02-20T08:20:19.000Z</time>
      </trkpt>
      <trkpt lat="43.52586" lon="5.51731">
        <ele>261</ele>
        <time>2018-02-20T08:20:20.000Z</time>
      </trkpt>
      <trkpt lat="43.52585" lon="5.51732">
        <ele>262</ele>
        <time>2018-02-20T08:20:21.000Z</time>
      </trkpt>
      <trkpt lat="43.52585" lon="5.51733">
        <ele>262</ele>
        <time>2018-02-20T08:20:22.000Z</time>
      </trkpt>
      <trkpt lat="43.52585" lon="5.51733">
        <ele>262</ele>
        <time>2018-02-20T08:20:23.000Z</time>
      </trkpt>
      <trkpt lat="43.52585" lon="5.51733">
        <ele>262</ele>
        <time>2018-02-20T08:20:24.000Z</time>
      </trkpt>
      <trkpt lat="43.52584" lon="5.51733">
        <ele>262</ele>
        <time>2018-02-20T08:20:25.000Z</time>
      </trkpt>
      <trkpt lat="43.52584" lon="5.51733">
        <ele>262</ele>
        <time>2018-02-20T08:20:26.000Z</time>
      </trkpt>
      <trkpt lat="43.52584" lon="5.51734">
        <ele>262</ele>
        <time>2018-02-20T08:20:27.000Z</time>
      </trkpt>
      <trkpt lat="43.52584" lon="5.51734">
        <ele>262</ele>
        <time>2018-02-20T08:20:28.000Z</time>
      </trkpt>
      <trkpt lat="43.52584" lon="5.51734">
        <ele>262</ele>
        <time>2018-02-20T08:20:29.000Z</time>
      </trkpt>
      <trkpt lat="43.52583" lon="5.51734">
        <ele>262</ele>
        <time>2018-02-20T08:20:30.000Z</time>
      </trkpt>
      <trkpt lat="43.52583" lon="5.51735">
        <ele>262</ele>
        <time>2018-02-20T08:20:31.000Z</time>
      </trkpt>
      <trkpt lat="43.52583" lon="5.51735">
        <ele>262</ele>
        <time>2018-02-20T08:20:32.000Z</time>
      </trkpt>
      <trkpt lat="43.52583" lon="5.51735">
        <ele>262</ele>
        <time>2018-02-20T08:20:33.000Z</time>
      </trkpt>
      <trkpt lat="43.52582" lon="5.51735">
        <ele>262</ele>
        <time>2018-02-20T08:20:34.000Z</time>
      </trkpt>
      <trkpt lat="43.52582" lon="5.51736">
        <ele>262</ele>
        <time>2018-02-20T08:20:35.000Z</time>
      </trkpt>
      <trkpt lat="43.52582" lon="5.51736">
        <ele>262</ele>
        <time>2018-02-20T08:20:36.000Z</time>
      </trkpt>
      <trkpt lat="43.52582" lon="5.51736">
        <ele>262</ele>
        <time>2018-02-20T08:20:37.000Z</time>
      </trkpt>
      <trkpt lat="43.52582" lon="5.51736">
        <ele>262</ele>
        <time>2018-02-20T08:20:38.000Z</time>
      </trkpt>
      <trkpt lat="43.52582" lon="5.51736">
        <ele>262</ele>
        <time>2018-02-20T08:20:39.000Z</time>
      </trkpt>
      <trkpt lat="43.52582" lon="5.51736">
        <ele>262</ele>
        <time>2018-02-20T08:20:40.000Z</time>
      </trkpt>
      <trkpt lat="43.52581" lon="5.51737">
        <ele>262</ele>
        <time>2018-02-20T08:20:41.000Z</time>
      </trkpt>
      <trkpt lat="43.52581" lon="5.51738">
        <ele>263</ele>
        <time>2018-02-20T08:20:42.000Z</time>
      </trkpt>
      <trkpt lat="43.52581" lon="5.51739">
        <ele>263</ele>
        <time>2018-02-20T08:20:43.000Z</time>
      </trkpt>
      <trkpt lat="43.5258" lon="5.5174">
        <ele>263</ele>
        <time>2018-02-20T08:20:44.000Z</time>
      </trkpt>
      <trkpt lat="43.5258" lon="5.51741">
        <ele>263</ele>
        <time>2018-02-20T08:20:45.000Z</time>
      </trkpt>
      <trkpt lat="43.5258" lon="5.51742">
        <ele>263</ele>
        <time>2018-02-20T08:20:46.000Z</time>
      </trkpt>
      <trkpt lat="43.5258" lon="5.51743">
        <ele>263</ele>
        <time>2018-02-20T08:20:47.000Z</time>
      </trkpt>
      <trkpt lat="43.52579" lon="5.51744">
        <ele>263</ele>
        <time>2018-02-20T08:20:48.000Z</time>
      </trkpt>
      <trkpt lat="43.52579" lon="5.51745">
        <ele>263</ele>
        <time>2018-02-20T08:20:49.000Z</time>
      </trkpt>
      <trkpt lat="43.52579" lon="5.51746">
        <ele>264</ele>
        <time>2018-02-20T08:20:50.000Z</time>
      </trkpt>
      <trkpt lat="43.52579" lon="5.51747">
        <ele>264</ele>
        <time>2018-02-20T08:20:51.000Z</time>
      </trkpt>
      <trkpt lat="43.52579" lon="5.51748">
        <ele>264</ele>
        <time>2018-02-20T08:20:52.000Z</time>
      </trkpt>
      <trkpt lat="43.52579" lon="5.51749">
        <ele>264</ele>
        <time>2018-02-20T08:20:53.000Z</time>
      </trkpt>
      <trkpt lat="43.52579" lon="5.51749">
        <ele>264</ele>
        <time>2018-02-20T08:20:54.000Z</time>
      </trkpt>
      <trkpt lat="43.52579" lon="5.5175">
        <ele>264</ele>
        <time>2018-02-20T08:20:55.000Z</time>
      </trkpt>
      <trkpt lat="43.52579" lon="5.51751">
        <ele>264</ele>
        <time>2018-02-20T08:20:56.000Z</time>
      </trkpt>
      <trkpt lat="43.52579" lon="5.51752">
        <ele>264</ele>
        <time>2018-02-20T08:20:57.000Z</time>
      </trkpt>
      <trkpt lat="43.52579" lon="5.51753">
        <ele>264</ele>
        <time>2018-02-20T08:20:58.000Z</time>
      </trkpt>
      <trkpt lat="43.52578" lon="5.51754">
        <ele>264</ele>
        <time>2018-02-20T08:20:59.000Z</time>
      </trkpt>
      <trkpt lat="43.52578" lon="5.51755">
        <ele>265</ele>
        <time>2018-02-20T08:21:00.000Z</time>
      </trkpt>
      <trkpt lat="43.52578" lon="5.51755">
        <ele>265</ele>
        <time>2018-02-20T08:21:01.000Z</time>
      </trkpt>
      <trkpt lat="43.52578" lon="5.51756">
        <ele>265</ele>
        <time>2018-02-20T08:21:02.000Z</time>
      </trkpt>
      <trkpt lat="43.52579" lon="5.51757">
        <ele>265</ele>
        <time>2018-02-20T08:21:03.000Z</time>
      </trkpt>
      <trkpt lat="43.52579" lon="5.51758">
        <ele>265</ele>
        <time>2018-02-20T08:21:04.000Z</time>
      </trkpt>
      <trkpt lat="43.52578" lon="5.51759">
        <ele>266</ele>
        <time>2018-02-20T08:21:05.000Z</time>
      </trkpt>
      <trkpt lat="43.52578" lon="5.5176">
        <ele>266</ele>
        <time>2018-02-20T08:21:06.000Z</time>
      </trkpt>
      <trkpt lat="43.52578" lon="5.51761">
        <ele>266</ele>
        <time>2018-02-20T08:21:07.000Z</time>
      </trkpt>
      <trkpt lat="43.52578" lon="5.51761">
        <ele>266</ele>
        <time>2018-02-20T08:21:08.000Z</time>
      </trkpt>
      <trkpt lat="43.52578" lon="5.51762">
        <ele>266</ele>
        <time>2018-02-20T08:21:09.000Z</time>
      </trkpt>
      <trkpt lat="43.52578" lon="5.51763">
        <ele>266</ele>
        <time>2018-02-20T08:21:10.000Z</time>
      </trkpt>
      <trkpt lat="43.52578" lon="5.51764">
        <ele>266</ele>
        <time>2018-02-20T08:21:11.000Z</time>
      </trkpt>
      <trkpt lat="43.52578" lon="5.51765">
        <ele>267</ele>
        <time>2018-02-20T08:21:12.000Z</time>
      </trkpt>
      <trkpt lat="43.52578" lon="5.51766">
        <ele>267</ele>
        <time>2018-02-20T08:21:13.000Z</time>
      </trkpt>
      <trkpt lat="43.52578" lon="5.51767">
        <ele>267</ele>
        <time>2018-02-20T08:21:14.000Z</time>
      </trkpt>
      <trkpt lat="43.52578" lon="5.51768">
        <ele>267</ele>
        <time>2018-02-20T08:21:15.000Z</time>
      </trkpt>
      <trkpt lat="43.52578" lon="5.51768">
        <ele>268</ele>
        <time>2018-02-20T08:21:16.000Z</time>
      </trkpt>
      <trkpt lat="43.52578" lon="5.51769">
        <ele>268</ele>
        <time>2018-02-20T08:21:17.000Z</time>
      </trkpt>
      <trkpt lat="43.52578" lon="5.5177">
        <ele>268</ele>
        <time>2018-02-20T08:21:18.000Z</time>
      </trkpt>
      <trkpt lat="43.52578" lon="5.5177">
        <ele>268</ele>
        <time>2018-02-20T08:21:19.000Z</time>
      </trkpt>
      <trkpt lat="43.52578" lon="5.51771">
        <ele>269</ele>
        <time>2018-02-20T08:21:20.000Z</time>
      </trkpt>
      <trkpt lat="43.52578" lon="5.51772">
        <ele>269</ele>
        <time>2018-02-20T08:21:21.000Z</time>
      </trkpt>
      <trkpt lat="43.52578" lon="5.51773">
        <ele>269</ele>
        <time>2018-02-20T08:21:22.000Z</time>
      </trkpt>
      <trkpt lat="43.52578" lon="5.51774">
        <ele>270</ele>
        <time>2018-02-20T08:21:23.000Z</time>
      </trkpt>
      <trkpt lat="43.52578" lon="5.51775">
        <ele>270</ele>
        <time>2018-02-20T08:21:24.000Z</time>
      </trkpt>
      <trkpt lat="43.52577" lon="5.51776">
        <ele>270</ele>
        <time>2018-02-20T08:21:25.000Z</time>
      </trkpt>
      <trkpt lat="43.52577" lon="5.51777">
        <ele>271</ele>
        <time>2018-02-20T08:21:26.000Z</time>
      </trkpt>
      <trkpt lat="43.52577" lon="5.51777">
        <ele>271</ele>
        <time>2018-02-20T08:21:27.000Z</time>
      </trkpt>
      <trkpt lat="43.52577" lon="5.51778">
        <ele>271</ele>
        <time>2018-02-20T08:21:28.000Z</time>
      </trkpt>
      <trkpt lat="43.52577" lon="5.51779">
        <ele>271</ele>
        <time>2018-02-20T08:21:29.000Z</time>
      </trkpt>
      <trkpt lat="43.52577" lon="5.5178">
        <ele>272</ele>
        <time>2018-02-20T08:21:30.000Z</time>
      </trkpt>
      <trkpt lat="43.52576" lon="5.51781">
        <ele>272</ele>
        <time>2018-02-20T08:21:31.000Z</time>
      </trkpt>
      <trkpt lat="43.52576" lon="5.51781">
        <ele>272</ele>
        <time>2018-02-20T08:21:32.000Z</time>
      </trkpt>
      <trkpt lat="43.52576" lon="5.51782">
        <ele>272</ele>
        <time>2018-02-20T08:21:33.000Z</time>
      </trkpt>
      <trkpt lat="43.52576" lon="5.51783">
        <ele>273</ele>
        <time>2018-02-20T08:21:34.000Z</time>
      </trkpt>
      <trkpt lat="43.52576" lon="5.51784">
        <ele>273</ele>
        <time>2018-02-20T08:21:35.000Z</time>
      </trkpt>
      <trkpt lat="43.52576" lon="5.51785">
        <ele>273</ele>
        <time>2018-02-20T08:21:36.000Z</time>
      </trkpt>
      <trkpt lat="43.52575" lon="5.51786">
        <ele>273</ele>
        <time>2018-02-20T08:21:37.000Z</time>
      </trkpt>
      <trkpt lat="43.52575" lon="5.51787">
        <ele>274</ele>
        <time>2018-02-20T08:21:38.000Z</time>
      </trkpt>
      <trkpt lat="43.52575" lon="5.51788">
        <ele>274</ele>
        <time>2018-02-20T08:21:39.000Z</time>
      </trkpt>
      <trkpt lat="43.52575" lon="5.51789">
        <ele>274</ele>
        <time>2018-02-20T08:21:40.000Z</time>
      </trkpt>
      <trkpt lat="43.52574" lon="5.51791">
        <ele>274</ele>
        <time>2018-02-20T08:21:41.000Z</time>
      </trkpt>
      <trkpt lat="43.52574" lon="5.51792">
        <ele>275</ele>
        <time>2018-02-20T08:21:42.000Z</time>
      </trkpt>
      <trkpt lat="43.52574" lon="5.51793">
        <ele>275</ele>
        <time>2018-02-20T08:21:43.000Z</time>
      </trkpt>
      <trkpt lat="43.52574" lon="5.51794">
        <ele>275</ele>
        <time>2018-02-20T08:21:44.000Z</time>
      </trkpt>
      <trkpt lat="43.52573" lon="5.51795">
        <ele>276</ele>
        <time>2018-02-20T08:21:45.000Z</time>
      </trkpt>
      <trkpt lat="43.52573" lon="5.51796">
        <ele>276</ele>
        <time>2018-02-20T08:21:46.000Z</time>
      </trkpt>
      <trkpt lat="43.52573" lon="5.51798">
        <ele>276</ele>
        <time>2018-02-20T08:21:47.000Z</time>
      </trkpt>
      <trkpt lat="43.52572" lon="5.51799">
        <ele>276</ele>
        <time>2018-02-20T08:21:48.000Z</time>
      </trkpt>
      <trkpt lat="43.52572" lon="5.518">
        <ele>276</ele>
        <time>2018-02-20T08:21:49.000Z</time>
      </trkpt>
      <trkpt lat="43.52572" lon="5.51801">
        <ele>277</ele>
        <time>2018-02-20T08:21:50.000Z</time>
      </trkpt>
      <trkpt lat="43.52572" lon="5.51802">
        <ele>277</ele>
        <time>2018-02-20T08:21:51.000Z</time>
      </trkpt>
      <trkpt lat="43.52572" lon="5.51803">
        <ele>277</ele>
        <time>2018-02-20T08:21:52.000Z</time>
      </trkpt>
      <trkpt lat="43.52571" lon="5.51804">
        <ele>277</ele>
        <time>2018-02-20T08:21:53.000Z</time>
      </trkpt>
      <trkpt lat="43.52572" lon="5.51805">
        <ele>277</ele>
        <time>2018-02-20T08:21:54.000Z</time>
      </trkpt>
      <trkpt lat="43.52572" lon="5.51806">
        <ele>277</ele>
        <time>2018-02-20T08:21:55.000Z</time>
      </trkpt>
      <trkpt lat="43.52572" lon="5.51807">
        <ele>278</ele>
        <time>2018-02-20T08:21:56.000Z</time>
      </trkpt>
      <trkpt lat="43.52572" lon="5.51808">
        <ele>278</ele>
        <time>2018-02-20T08:21:57.000Z</time>
      </trkpt>
      <trkpt lat="43.52572" lon="5.51809">
        <ele>278</ele>
        <time>2018-02-20T08:21:58.000Z</time>
      </trkpt>
      <trkpt lat="43.52572" lon="5.5181">
        <ele>278</ele>
        <time>2018-02-20T08:21:59.000Z</time>
      </trkpt>
      <trkpt lat="43.52572" lon="5.5181">
        <ele>278</ele>
        <time>2018-02-20T08:22:00.000Z</time>
      </trkpt>
      <trkpt lat="43.52572" lon="5.51811">
        <ele>278</ele>
        <time>2018-02-20T08:22:01.000Z</time>
      </trkpt>
      <trkpt lat="43.52572" lon="5.51812">
        <ele>278</ele>
        <time>2018-02-20T08:22:02.000Z</time>
      </trkpt>
      <trkpt lat="43.52572" lon="5.51812">
        <ele>278</ele>
        <time>2018-02-20T08:22:03.000Z</time>
      </trkpt>
      <trkpt lat="43.52572" lon="5.51813">
        <ele>279</ele>
        <time>2018-02-20T08:22:04.000Z</time>
      </trkpt>
      <trkpt lat="43.52572" lon="5.51813">
        <ele>279</ele>
        <time>2018-02-20T08:22:05.000Z</time>
      </trkpt>
      <trkpt lat="43.52572" lon="5.51814">
        <ele>279</ele>
        <time>2018-02-20T08:22:06.000Z</time>
      </trkpt>
      <trkpt lat="43.52572" lon="5.51815">
        <ele>279</ele>
        <time>2018-02-20T08:22:07.000Z</time>
      </trkpt>
      <trkpt lat="43.52572" lon="5.51816">
        <ele>279</ele>
        <time>2018-02-20T08:22:08.000Z</time>
      </trkpt>
      <trkpt lat="43.52571" lon="5.51816">
        <ele>279</ele>
        <time>2018-02-20T08:22:09.000Z</time>
      </trkpt>
      <trkpt lat="43.52571" lon="5.51817">
        <ele>279</ele>
        <time>2018-02-20T08:22:10.000Z</time>
      </trkpt>
      <trkpt lat="43.52571" lon="5.51818">
        <ele>279</ele>
        <time>2018-02-20T08:22:11.000Z</time>
      </trkpt>
      <trkpt lat="43.52571" lon="5.51819">
        <ele>280</ele>
        <time>2018-02-20T08:22:12.000Z</time>
      </trkpt>
      <trkpt lat="43.52571" lon="5.5182">
        <ele>280</ele>
        <time>2018-02-20T08:22:13.000Z</time>
      </trkpt>
      <trkpt lat="43.5257" lon="5.51821">
        <ele>280</ele>
        <time>2018-02-20T08:22:14.000Z</time>
      </trkpt>
      <trkpt lat="43.5257" lon="5.51822">
        <ele>280</ele>
        <time>2018-02-20T08:22:15.000Z</time>
      </trkpt>
      <trkpt lat="43.5257" lon="5.51823">
        <ele>280</ele>
        <time>2018-02-20T08:22:16.000Z</time>
      </trkpt>
      <trkpt lat="43.5257" lon="5.51824">
        <ele>280</ele>
        <time>2018-02-20T08:22:17.000Z</time>
      </trkpt>
      <trkpt lat="43.52569" lon="5.51826">
        <ele>280</ele>
        <time>2018-02-20T08:22:18.000Z</time>
      </trkpt>
      <trkpt lat="43.52569" lon="5.51826">
        <ele>280</ele>
        <time>2018-02-20T08:22:19.000Z</time>
      </trkpt>
      <trkpt lat="43.52569" lon="5.51828">
        <ele>281</ele>
        <time>2018-02-20T08:22:20.000Z</time>
      </trkpt>
      <trkpt lat="43.52569" lon="5.51829">
        <ele>281</ele>
        <time>2018-02-20T08:22:21.000Z</time>
      </trkpt>
      <trkpt lat="43.52569" lon="5.5183">
        <ele>281</ele>
        <time>2018-02-20T08:22:22.000Z</time>
      </trkpt>
      <trkpt lat="43.52569" lon="5.51831">
        <ele>281</ele>
        <time>2018-02-20T08:22:23.000Z</time>
      </trkpt>
      <trkpt lat="43.52569" lon="5.51832">
        <ele>281</ele>
        <time>2018-02-20T08:22:24.000Z</time>
      </trkpt>
      <trkpt lat="43.52569" lon="5.51834">
        <ele>281</ele>
        <time>2018-02-20T08:22:25.000Z</time>
      </trkpt>
      <trkpt lat="43.52568" lon="5.51835">
        <ele>282</ele>
        <time>2018-02-20T08:22:26.000Z</time>
      </trkpt>
      <trkpt lat="43.52568" lon="5.51836">
        <ele>282</ele>
        <time>2018-02-20T08:22:27.000Z</time>
      </trkpt>
      <trkpt lat="43.52568" lon="5.51837">
        <ele>282</ele>
        <time>2018-02-20T08:22:28.000Z</time>
      </trkpt>
      <trkpt lat="43.52568" lon="5.51838">
        <ele>282</ele>
        <time>2018-02-20T08:22:29.000Z</time>
      </trkpt>
      <trkpt lat="43.52568" lon="5.51839">
        <ele>282</ele>
        <time>2018-02-20T08:22:30.000Z</time>
      </trkpt>
      <trkpt lat="43.52568" lon="5.5184">
        <ele>282</ele>
        <time>2018-02-20T08:22:31.000Z</time>
      </trkpt>
      <trkpt lat="43.52569" lon="5.51841">
        <ele>283</ele>
        <time>2018-02-20T08:22:32.000Z</time>
      </trkpt>
      <trkpt lat="43.52569" lon="5.51842">
        <ele>283</ele>
        <time>2018-02-20T08:22:33.000Z</time>
      </trkpt>
      <trkpt lat="43.52569" lon="5.51843">
        <ele>283</ele>
        <time>2018-02-20T08:22:34.000Z</time>
      </trkpt>
      <trkpt lat="43.52569" lon="5.51844">
        <ele>283</ele>
        <time>2018-02-20T08:22:35.000Z</time>
      </trkpt>
      <trkpt lat="43.52568" lon="5.51845">
        <ele>283</ele>
        <time>2018-02-20T08:22:36.000Z</time>
      </trkpt>
      <trkpt lat="43.52568" lon="5.51846">
        <ele>283</ele>
        <time>2018-02-20T08:22:37.000Z</time>
      </trkpt>
      <trkpt lat="43.52568" lon="5.51847">
        <ele>283</ele>
        <time>2018-02-20T08:22:38.000Z</time>
      </trkpt>
      <trkpt lat="43.52568" lon="5.51848">
        <ele>283</ele>
        <time>2018-02-20T08:22:39.000Z</time>
      </trkpt>
      <trkpt lat="43.52568" lon="5.51849">
        <ele>283</ele>
        <time>2018-02-20T08:22:40.000Z</time>
      </trkpt>
      <trkpt lat="43.52568" lon="5.5185">
        <ele>283</ele>
        <time>2018-02-20T08:22:41.000Z</time>
      </trkpt>
      <trkpt lat="43.52568" lon="5.51851">
        <ele>284</ele>
        <time>2018-02-20T08:22:42.000Z</time>
      </trkpt>
      <trkpt lat="43.52568" lon="5.51852">
        <ele>284</ele>
        <time>2018-02-20T08:22:43.000Z</time>
      </trkpt>
      <trkpt lat="43.52568" lon="5.51853">
        <ele>284</ele>
        <time>2018-02-20T08:22:44.000Z</time>
      </trkpt>
      <trkpt lat="43.52568" lon="5.51854">
        <ele>284</ele>
        <time>2018-02-20T08:22:45.000Z</time>
      </trkpt>
      <trkpt lat="43.52568" lon="5.51855">
        <ele>284</ele>
        <time>2018-02-20T08:22:46.000Z</time>
      </trkpt>
      <trkpt lat="43.52569" lon="5.51856">
        <ele>284</ele>
        <time>2018-02-20T08:22:47.000Z</time>
      </trkpt>
      <trkpt lat="43.52569" lon="5.51857">
        <ele>284</ele>
        <time>2018-02-20T08:22:48.000Z</time>
      </trkpt>
      <trkpt lat="43.52569" lon="5.51858">
        <ele>284</ele>
        <time>2018-02-20T08:22:49.000Z</time>
      </trkpt>
      <trkpt lat="43.5257" lon="5.51859">
        <ele>285</ele>
        <time>2018-02-20T08:22:50.000Z</time>
      </trkpt>
      <trkpt lat="43.5257" lon="5.5186">
        <ele>285</ele>
        <time>2018-02-20T08:22:51.000Z</time>
      </trkpt>
      <trkpt lat="43.5257" lon="5.51861">
        <ele>285</ele>
        <time>2018-02-20T08:22:52.000Z</time>
      </trkpt>
      <trkpt lat="43.5257" lon="5.51862">
        <ele>285</ele>
        <time>2018-02-20T08:22:53.000Z</time>
      </trkpt>
      <trkpt lat="43.5257" lon="5.51862">
        <ele>285</ele>
        <time>2018-02-20T08:22:54.000Z</time>
      </trkpt>
      <trkpt lat="43.5257" lon="5.51863">
        <ele>285</ele>
        <time>2018-02-20T08:22:55.000Z</time>
      </trkpt>
      <trkpt lat="43.5257" lon="5.51865">
        <ele>285</ele>
        <time>2018-02-20T08:22:56.000Z</time>
      </trkpt>
      <trkpt lat="43.52571" lon="5.51866">
        <ele>285</ele>
        <time>2018-02-20T08:22:57.000Z</time>
      </trkpt>
      <trkpt lat="43.52571" lon="5.51867">
        <ele>285</ele>
        <time>2018-02-20T08:22:58.000Z</time>
      </trkpt>
      <trkpt lat="43.52571" lon="5.51868">
        <ele>285</ele>
        <time>2018-02-20T08:22:59.000Z</time>
      </trkpt>
      <trkpt lat="43.52572" lon="5.51869">
        <ele>286</ele>
        <time>2018-02-20T08:23:00.000Z</time>
      </trkpt>
      <trkpt lat="43.52572" lon="5.5187">
        <ele>286</ele>
        <time>2018-02-20T08:23:01.000Z</time>
      </trkpt>
      <trkpt lat="43.52572" lon="5.51871">
        <ele>286</ele>
        <time>2018-02-20T08:23:02.000Z</time>
      </trkpt>
      <trkpt lat="43.52572" lon="5.51872">
        <ele>286</ele>
        <time>2018-02-20T08:23:03.000Z</time>
      </trkpt>
      <trkpt lat="43.52573" lon="5.51873">
        <ele>286</ele>
        <time>2018-02-20T08:23:04.000Z</time>
      </trkpt>
      <trkpt lat="43.52573" lon="5.51874">
        <ele>287</ele>
        <time>2018-02-20T08:23:05.000Z</time>
      </trkpt>
      <trkpt lat="43.52573" lon="5.51875">
        <ele>287</ele>
        <time>2018-02-20T08:23:06.000Z</time>
      </trkpt>
      <trkpt lat="43.52574" lon="5.51876">
        <ele>287</ele>
        <time>2018-02-20T08:23:07.000Z</time>
      </trkpt>
      <trkpt lat="43.52574" lon="5.51876">
        <ele>287</ele>
        <time>2018-02-20T08:23:08.000Z</time>
      </trkpt>
      <trkpt lat="43.52574" lon="5.51877">
        <ele>288</ele>
        <time>2018-02-20T08:23:09.000Z</time>
      </trkpt>
      <trkpt lat="43.52574" lon="5.51878">
        <ele>288</ele>
        <time>2018-02-20T08:23:10.000Z</time>
      </trkpt>
      <trkpt lat="43.52574" lon="5.51879">
        <ele>288</ele>
        <time>2018-02-20T08:23:11.000Z</time>
      </trkpt>
      <trkpt lat="43.52574" lon="5.5188">
        <ele>288</ele>
        <time>2018-02-20T08:23:12.000Z</time>
      </trkpt>
      <trkpt lat="43.52574" lon="5.51881">
        <ele>288</ele>
        <time>2018-02-20T08:23:13.000Z</time>
      </trkpt>
      <trkpt lat="43.52574" lon="5.51882">
        <ele>288</ele>
        <time>2018-02-20T08:23:14.000Z</time>
      </trkpt>
      <trkpt lat="43.52574" lon="5.51883">
        <ele>288</ele>
        <time>2018-02-20T08:23:15.000Z</time>
      </trkpt>
      <trkpt lat="43.52574" lon="5.51884">
        <ele>289</ele>
        <time>2018-02-20T08:23:16.000Z</time>
      </trkpt>
      <trkpt lat="43.52574" lon="5.51884">
        <ele>289</ele>
        <time>2018-02-20T08:23:17.000Z</time>
      </trkpt>
      <trkpt lat="43.52574" lon="5.51886">
        <ele>289</ele>
        <time>2018-02-20T08:23:18.000Z</time>
      </trkpt>
      <trkpt lat="43.52575" lon="5.51887">
        <ele>289</ele>
        <time>2018-02-20T08:23:19.000Z</time>
      </trkpt>
      <trkpt lat="43.52575" lon="5.51888">
        <ele>289</ele>
        <time>2018-02-20T08:23:20.000Z</time>
      </trkpt>
      <trkpt lat="43.52575" lon="5.51889">
        <ele>289</ele>
        <time>2018-02-20T08:23:21.000Z</time>
      </trkpt>
      <trkpt lat="43.52576" lon="5.51889">
        <ele>289</ele>
        <time>2018-02-20T08:23:22.000Z</time>
      </trkpt>
      <trkpt lat="43.52576" lon="5.51891">
        <ele>290</ele>
        <time>2018-02-20T08:23:23.000Z</time>
      </trkpt>
      <trkpt lat="43.52576" lon="5.51891">
        <ele>290</ele>
        <time>2018-02-20T08:23:24.000Z</time>
      </trkpt>
      <trkpt lat="43.52576" lon="5.51892">
        <ele>290</ele>
        <time>2018-02-20T08:23:25.000Z</time>
      </trkpt>
      <trkpt lat="43.52576" lon="5.51893">
        <ele>290</ele>
        <time>2018-02-20T08:23:26.000Z</time>
      </trkpt>
      <trkpt lat="43.52576" lon="5.51894">
        <ele>290</ele>
        <time>2018-02-20T08:23:27.000Z</time>
      </trkpt>
      <trkpt lat="43.52576" lon="5.51895">
        <ele>290</ele>
        <time>2018-02-20T08:23:28.000Z</time>
      </trkpt>
      <trkpt lat="43.52576" lon="5.51896">
        <ele>290</ele>
        <time>2018-02-20T08:23:29.000Z</time>
      </trkpt>
      <trkpt lat="43.52577" lon="5.51898">
        <ele>290</ele>
        <time>2018-02-20T08:23:30.000Z</time>
      </trkpt>
      <trkpt lat="43.52577" lon="5.51898">
        <ele>290</ele>
        <time>2018-02-20T08:23:31.000Z</time>
      </trkpt>
      <trkpt lat="43.52577" lon="5.519">
        <ele>290</ele>
        <time>2018-02-20T08:23:32.000Z</time>
      </trkpt>
      <trkpt lat="43.52577" lon="5.51901">
        <ele>290</ele>
        <time>2018-02-20T08:23:33.000Z</time>
      </trkpt>
      <trkpt lat="43.52577" lon="5.51902">
        <ele>290</ele>
        <time>2018-02-20T08:23:34.000Z</time>
      </trkpt>
      <trkpt lat="43.52577" lon="5.51903">
        <ele>290</ele>
        <time>2018-02-20T08:23:35.000Z</time>
      </trkpt>
      <trkpt lat="43.52578" lon="5.51904">
        <ele>290</ele>
        <time>2018-02-20T08:23:36.000Z</time>
      </trkpt>
      <trkpt lat="43.52578" lon="5.51905">
        <ele>290</ele>
        <time>2018-02-20T08:23:37.000Z</time>
      </trkpt>
      <trkpt lat="43.52578" lon="5.51906">
        <ele>290</ele>
        <time>2018-02-20T08:23:38.000Z</time>
      </trkpt>
      <trkpt lat="43.52578" lon="5.51907">
        <ele>290</ele>
        <time>2018-02-20T08:23:39.000Z</time>
      </trkpt>
      <trkpt lat="43.52579" lon="5.51908">
        <ele>290</ele>
        <time>2018-02-20T08:23:40.000Z</time>
      </trkpt>
      <trkpt lat="43.52579" lon="5.51909">
        <ele>290</ele>
        <time>2018-02-20T08:23:41.000Z</time>
      </trkpt>
      <trkpt lat="43.52579" lon="5.5191">
        <ele>290</ele>
        <time>2018-02-20T08:23:42.000Z</time>
      </trkpt>
      <trkpt lat="43.52579" lon="5.51911">
        <ele>290</ele>
        <time>2018-02-20T08:23:43.000Z</time>
      </trkpt>
      <trkpt lat="43.52579" lon="5.51912">
        <ele>290</ele>
        <time>2018-02-20T08:23:44.000Z</time>
      </trkpt>
      <trkpt lat="43.5258" lon="5.51913">
        <ele>290</ele>
        <time>2018-02-20T08:23:45.000Z</time>
      </trkpt>
      <trkpt lat="43.5258" lon="5.51914">
        <ele>290</ele>
        <time>2018-02-20T08:23:46.000Z</time>
      </trkpt>
      <trkpt lat="43.52581" lon="5.51915">
        <ele>290</ele>
        <time>2018-02-20T08:23:47.000Z</time>
      </trkpt>
      <trkpt lat="43.52581" lon="5.51916">
        <ele>290</ele>
        <time>2018-02-20T08:23:48.000Z</time>
      </trkpt>
      <trkpt lat="43.52581" lon="5.51917">
        <ele>290</ele>
        <time>2018-02-20T08:23:49.000Z</time>
      </trkpt>
      <trkpt lat="43.52581" lon="5.51917">
        <ele>291</ele>
        <time>2018-02-20T08:23:50.000Z</time>
      </trkpt>
      <trkpt lat="43.52582" lon="5.51919">
        <ele>291</ele>
        <time>2018-02-20T08:23:51.000Z</time>
      </trkpt>
      <trkpt lat="43.52582" lon="5.5192">
        <ele>291</ele>
        <time>2018-02-20T08:23:52.000Z</time>
      </trkpt>
      <trkpt lat="43.52582" lon="5.51921">
        <ele>291</ele>
        <time>2018-02-20T08:23:53.000Z</time>
      </trkpt>
      <trkpt lat="43.52582" lon="5.51921">
        <ele>291</ele>
        <time>2018-02-20T08:23:54.000Z</time>
      </trkpt>
      <trkpt lat="43.52582" lon="5.51922">
        <ele>291</ele>
        <time>2018-02-20T08:23:55.000Z</time>
      </trkpt>
      <trkpt lat="43.52582" lon="5.51923">
        <ele>291</ele>
        <time>2018-02-20T08:23:56.000Z</time>
      </trkpt>
      <trkpt lat="43.52582" lon="5.51924">
        <ele>291</ele>
        <time>2018-02-20T08:23:57.000Z</time>
      </trkpt>
      <trkpt lat="43.52582" lon="5.51924">
        <ele>291</ele>
        <time>2018-02-20T08:23:58.000Z</time>
      </trkpt>
      <trkpt lat="43.52582" lon="5.51925">
        <ele>291</ele>
        <time>2018-02-20T08:23:59.000Z</time>
      </trkpt>
      <trkpt lat="43.52582" lon="5.51925">
        <ele>292</ele>
        <time>2018-02-20T08:24:00.000Z</time>
      </trkpt>
      <trkpt lat="43.52583" lon="5.51926">
        <ele>292</ele>
        <time>2018-02-20T08:24:01.000Z</time>
      </trkpt>
      <trkpt lat="43.52583" lon="5.51927">
        <ele>292</ele>
        <time>2018-02-20T08:24:02.000Z</time>
      </trkpt>
      <trkpt lat="43.52584" lon="5.51928">
        <ele>292</ele>
        <time>2018-02-20T08:24:03.000Z</time>
      </trkpt>
      <trkpt lat="43.52584" lon="5.51929">
        <ele>292</ele>
        <time>2018-02-20T08:24:04.000Z</time>
      </trkpt>
      <trkpt lat="43.52584" lon="5.51931">
        <ele>292</ele>
        <time>2018-02-20T08:24:05.000Z</time>
      </trkpt>
      <trkpt lat="43.52585" lon="5.51932">
        <ele>293</ele>
        <time>2018-02-20T08:24:06.000Z</time>
      </trkpt>
      <trkpt lat="43.52585" lon="5.51933">
        <ele>293</ele>
        <time>2018-02-20T08:24:07.000Z</time>
      </trkpt>
      <trkpt lat="43.52585" lon="5.51934">
        <ele>293</ele>
        <time>2018-02-20T08:24:08.000Z</time>
      </trkpt>
      <trkpt lat="43.52586" lon="5.51936">
        <ele>293</ele>
        <time>2018-02-20T08:24:09.000Z</time>
      </trkpt>
      <trkpt lat="43.52586" lon="5.51937">
        <ele>294</ele>
        <time>2018-02-20T08:24:10.000Z</time>
      </trkpt>
      <trkpt lat="43.52586" lon="5.51938">
        <ele>294</ele>
        <time>2018-02-20T08:24:11.000Z</time>
      </trkpt>
      <trkpt lat="43.52587" lon="5.51939">
        <ele>294</ele>
        <time>2018-02-20T08:24:12.000Z</time>
      </trkpt>
      <trkpt lat="43.52587" lon="5.51941">
        <ele>294</ele>
        <time>2018-02-20T08:24:13.000Z</time>
      </trkpt>
      <trkpt lat="43.52587" lon="5.51942">
        <ele>294</ele>
        <time>2018-02-20T08:24:14.000Z</time>
      </trkpt>
      <trkpt lat="43.52587" lon="5.51943">
        <ele>295</ele>
        <time>2018-02-20T08:24:15.000Z</time>
      </trkpt>
      <trkpt lat="43.52587" lon="5.51944">
        <ele>295</ele>
        <time>2018-02-20T08:24:16.000Z</time>
      </trkpt>
      <trkpt lat="43.52587" lon="5.51945">
        <ele>295</ele>
        <time>2018-02-20T08:24:17.000Z</time>
      </trkpt>
      <trkpt lat="43.52588" lon="5.51946">
        <ele>295</ele>
        <time>2018-02-20T08:24:18.000Z</time>
      </trkpt>
      <trkpt lat="43.52588" lon="5.51947">
        <ele>295</ele>
        <time>2018-02-20T08:24:19.000Z</time>
      </trkpt>
      <trkpt lat="43.52588" lon="5.51947">
        <ele>295</ele>
        <time>2018-02-20T08:24:20.000Z</time>
      </trkpt>
      <trkpt lat="43.52588" lon="5.51948">
        <ele>295</ele>
        <time>2018-02-20T08:24:21.000Z</time>
      </trkpt>
      <trkpt lat="43.52588" lon="5.51949">
        <ele>295</ele>
        <time>2018-02-20T08:24:22.000Z</time>
      </trkpt>
      <trkpt lat="43.52588" lon="5.5195">
        <ele>295</ele>
        <time>2018-02-20T08:24:23.000Z</time>
      </trkpt>
      <trkpt lat="43.52588" lon="5.51951">
        <ele>296</ele>
        <time>2018-02-20T08:24:24.000Z</time>
      </trkpt>
      <trkpt lat="43.52588" lon="5.51952">
        <ele>296</ele>
        <time>2018-02-20T08:24:25.000Z</time>
      </trkpt>
      <trkpt lat="43.52588" lon="5.51953">
        <ele>296</ele>
        <time>2018-02-20T08:24:26.000Z</time>
      </trkpt>
      <trkpt lat="43.52587" lon="5.51955">
        <ele>295</ele>
        <time>2018-02-20T08:24:27.000Z</time>
      </trkpt>
      <trkpt lat="43.52587" lon="5.51956">
        <ele>295</ele>
        <time>2018-02-20T08:24:28.000Z</time>
      </trkpt>
      <trkpt lat="43.52587" lon="5.51957">
        <ele>295</ele>
        <time>2018-02-20T08:24:29.000Z</time>
      </trkpt>
      <trkpt lat="43.52587" lon="5.51958">
        <ele>295</ele>
        <time>2018-02-20T08:24:30.000Z</time>
      </trkpt>
      <trkpt lat="43.52587" lon="5.51959">
        <ele>295</ele>
        <time>2018-02-20T08:24:31.000Z</time>
      </trkpt>
      <trkpt lat="43.52587" lon="5.51961">
        <ele>295</ele>
        <time>2018-02-20T08:24:32.000Z</time>
      </trkpt>
      <trkpt lat="43.52587" lon="5.51962">
        <ele>296</ele>
        <time>2018-02-20T08:24:33.000Z</time>
      </trkpt>
      <trkpt lat="43.52587" lon="5.51963">
        <ele>296</ele>
        <time>2018-02-20T08:24:34.000Z</time>
      </trkpt>
      <trkpt lat="43.52587" lon="5.51965">
        <ele>296</ele>
        <time>2018-02-20T08:24:35.000Z</time>
      </trkpt>
      <trkpt lat="43.52587" lon="5.51966">
        <ele>296</ele>
        <time>2018-02-20T08:24:36.000Z</time>
      </trkpt>
      <trkpt lat="43.52587" lon="5.51968">
        <ele>296</ele>
        <time>2018-02-20T08:24:37.000Z</time>
      </trkpt>
      <trkpt lat="43.52587" lon="5.51969">
        <ele>296</ele>
        <time>2018-02-20T08:24:38.000Z</time>
      </trkpt>
      <trkpt lat="43.52587" lon="5.51971">
        <ele>297</ele>
        <time>2018-02-20T08:24:39.000Z</time>
      </trkpt>
      <trkpt lat="43.52587" lon="5.51972">
        <ele>297</ele>
        <time>2018-02-20T08:24:40.000Z</time>
      </trkpt>
      <trkpt lat="43.52587" lon="5.51974">
        <ele>297</ele>
        <time>2018-02-20T08:24:41.000Z</time>
      </trkpt>
      <trkpt lat="43.52586" lon="5.51975">
        <ele>297</ele>
        <time>2018-02-20T08:24:42.000Z</time>
      </trkpt>
      <trkpt lat="43.52586" lon="5.51976">
        <ele>297</ele>
        <time>2018-02-20T08:24:43.000Z</time>
      </trkpt>
      <trkpt lat="43.52587" lon="5.51977">
        <ele>296</ele>
        <time>2018-02-20T08:24:44.000Z</time>
      </trkpt>
      <trkpt lat="43.52587" lon="5.51978">
        <ele>296</ele>
        <time>2018-02-20T08:24:45.000Z</time>
      </trkpt>
      <trkpt lat="43.52587" lon="5.5198">
        <ele>296</ele>
        <time>2018-02-20T08:24:46.000Z</time>
      </trkpt>
      <trkpt lat="43.52588" lon="5.51981">
        <ele>296</ele>
        <time>2018-02-20T08:24:47.000Z</time>
      </trkpt>
      <trkpt lat="43.52589" lon="5.51982">
        <ele>296</ele>
        <time>2018-02-20T08:24:48.000Z</time>
      </trkpt>
      <trkpt lat="43.52589" lon="5.51983">
        <ele>296</ele>
        <time>2018-02-20T08:24:49.000Z</time>
      </trkpt>
      <trkpt lat="43.5259" lon="5.51985">
        <ele>296</ele>
        <time>2018-02-20T08:24:50.000Z</time>
      </trkpt>
      <trkpt lat="43.5259" lon="5.51986">
        <ele>296</ele>
        <time>2018-02-20T08:24:51.000Z</time>
      </trkpt>
      <trkpt lat="43.5259" lon="5.51986">
        <ele>296</ele>
        <time>2018-02-20T08:24:52.000Z</time>
      </trkpt>
      <trkpt lat="43.5259" lon="5.51987">
        <ele>296</ele>
        <time>2018-02-20T08:24:53.000Z</time>
      </trkpt>
      <trkpt lat="43.5259" lon="5.51988">
        <ele>296</ele>
        <time>2018-02-20T08:24:54.000Z</time>
      </trkpt>
      <trkpt lat="43.5259" lon="5.51988">
        <ele>296</ele>
        <time>2018-02-20T08:24:55.000Z</time>
      </trkpt>
      <trkpt lat="43.5259" lon="5.51988">
        <ele>295</ele>
        <time>2018-02-20T08:24:56.000Z</time>
      </trkpt>
      <trkpt lat="43.5259" lon="5.51988">
        <ele>295</ele>
        <time>2018-02-20T08:24:57.000Z</time>
      </trkpt>
      <trkpt lat="43.5259" lon="5.51988">
        <ele>295</ele>
        <time>2018-02-20T08:24:58.000Z</time>
      </trkpt>
      <trkpt lat="43.5259" lon="5.51988">
        <ele>295</ele>
        <time>2018-02-20T08:24:59.000Z</time>
      </trkpt>
      <trkpt lat="43.5259" lon="5.51988">
        <ele>295</ele>
        <time>2018-02-20T08:25:00.000Z</time>
      </trkpt>
      <trkpt lat="43.5259" lon="5.51988">
        <ele>295</ele>
        <time>2018-02-20T08:25:01.000Z</time>
      </trkpt>
      <trkpt lat="43.5259" lon="5.51988">
        <ele>295</ele>
        <time>2018-02-20T08:25:02.000Z</time>
      </trkpt>
      <trkpt lat="43.5259" lon="5.51989">
        <ele>295</ele>
        <time>2018-02-20T08:25:03.000Z</time>
      </trkpt>
      <trkpt lat="43.5259" lon="5.51989">
        <ele>295</ele>
        <time>2018-02-20T08:25:04.000Z</time>
      </trkpt>
      <trkpt lat="43.5259" lon="5.51989">
        <ele>295</ele>
        <time>2018-02-20T08:25:05.000Z</time>
      </trkpt>
      <trkpt lat="43.5259" lon="5.51989">
        <ele>295</ele>
        <time>2018-02-20T08:25:06.000Z</time>
      </trkpt>
      <trkpt lat="43.5259" lon="5.51989">
        <ele>295</ele>
        <time>2018-02-20T08:25:07.000Z</time>
      </trkpt>
      <trkpt lat="43.5259" lon="5.51989">
        <ele>295</ele>
        <time>2018-02-20T08:25:08.000Z</time>
      </trkpt>
      <trkpt lat="43.5259" lon="5.51989">
        <ele>295</ele>
        <time>2018-02-20T08:25:09.000Z</time>
      </trkpt>
      <trkpt lat="43.5259" lon="5.51989">
        <ele>295</ele>
        <time>2018-02-20T08:25:10.000Z</time>
      </trkpt>
      <trkpt lat="43.5259" lon="5.5199">
        <ele>295</ele>
        <time>2018-02-20T08:25:11.000Z</time>
      </trkpt>
      <trkpt lat="43.5259" lon="5.5199">
        <ele>295</ele>
        <time>2018-02-20T08:25:12.000Z</time>
      </trkpt>
      <trkpt lat="43.5259" lon="5.5199">
        <ele>295</ele>
        <time>2018-02-20T08:25:13.000Z</time>
      </trkpt>
      <trkpt lat="43.5259" lon="5.5199">
        <ele>295</ele>
        <time>2018-02-20T08:25:14.000Z</time>
      </trkpt>
      <trkpt lat="43.5259" lon="5.5199">
        <ele>295</ele>
        <time>2018-02-20T08:25:15.000Z</time>
      </trkpt>
      <trkpt lat="43.5259" lon="5.5199">
        <ele>295</ele>
        <time>2018-02-20T08:25:16.000Z</time>
      </trkpt>
      <trkpt lat="43.5259" lon="5.5199">
        <ele>295</ele>
        <time>2018-02-20T08:25:17.000Z</time>
      </trkpt>
      <trkpt lat="43.5259" lon="5.5199">
        <ele>295</ele>
        <time>2018-02-20T08:25:18.000Z</time>
      </trkpt>
      <trkpt lat="43.5259" lon="5.5199">
        <ele>295</ele>
        <time>2018-02-20T08:25:19.000Z</time>
      </trkpt>
      <trkpt lat="43.5259" lon="5.5199">
        <ele>295</ele>
        <time>2018-02-20T08:25:20.000Z</time>
      </trkpt>
      <trkpt lat="43.5259" lon="5.5199">
        <ele>295</ele>
        <time>2018-02-20T08:25:21.000Z</time>
      </trkpt>
      <trkpt lat="43.52589" lon="5.5199">
        <ele>295</ele>
        <time>2018-02-20T08:25:22.000Z</time>
      </trkpt>
      <trkpt lat="43.52589" lon="5.5199">
        <ele>295</ele>
        <time>2018-02-20T08:25:23.000Z</time>
      </trkpt>
      <trkpt lat="43.52589" lon="5.5199">
        <ele>295</ele>
        <time>2018-02-20T08:25:24.000Z</time>
      </trkpt>
      <trkpt lat="43.52589" lon="5.5199">
        <ele>295</ele>
        <time>2018-02-20T08:25:25.000Z</time>
      </trkpt>
      <trkpt lat="43.52589" lon="5.5199">
        <ele>295</ele>
        <time>2018-02-20T08:25:26.000Z</time>
      </trkpt>
      <trkpt lat="43.52589" lon="5.5199">
        <ele>295</ele>
        <time>2018-02-20T08:25:27.000Z</time>
      </trkpt>
      <trkpt lat="43.52589" lon="5.5199">
        <ele>295</ele>
        <time>2018-02-20T08:25:28.000Z</time>
      </trkpt>
      <trkpt lat="43.52589" lon="5.5199">
        <ele>295</ele>
        <time>2018-02-20T08:25:29.000Z</time>
      </trkpt>
      <trkpt lat="43.52589" lon="5.5199">
        <ele>295</ele>
        <time>2018-02-20T08:25:30.000Z</time>
      </trkpt>
      <trkpt lat="43.52589" lon="5.5199">
        <ele>295</ele>
        <time>2018-02-20T08:25:31.000Z</time>
      </trkpt>
      <trkpt lat="43.52589" lon="5.5199">
        <ele>295</ele>
        <time>2018-02-20T08:25:32.000Z</time>
      </trkpt>
      <trkpt lat="43.52589" lon="5.5199">
        <ele>295</ele>
        <time>2018-02-20T08:25:33.000Z</time>
      </trkpt>
      <trkpt lat="43.52589" lon="5.5199">
        <ele>295</ele>
        <time>2018-02-20T08:25:34.000Z</time>
      </trkpt>
      <trkpt lat="43.52589" lon="5.5199">
        <ele>295</ele>
        <time>2018-02-20T08:25:35.000Z</time>
      </trkpt>
      <trkpt lat="43.52589" lon="5.5199">
        <ele>295</ele>
        <time>2018-02-20T08:25:36.000Z</time>
      </trkpt>
      <trkpt lat="43.52589" lon="5.5199">
        <ele>295</ele>
        <time>2018-02-20T08:25:37.000Z</time>
      </trkpt>
      <trkpt lat="43.52589" lon="5.5199">
        <ele>295</ele>
        <time>2018-02-20T08:25:38.000Z</time>
      </trkpt>
      <trkpt lat="43.52589" lon="5.5199">
        <ele>295</ele>
        <time>2018-02-20T08:25:39.000Z</time>
      </trkpt>
      <trkpt lat="43.52589" lon="5.5199">
        <ele>295</ele>
        <time>2018-02-20T08:25:40.000Z</time>
      </trkpt>
      <trkpt lat="43.52589" lon="5.5199">
        <ele>295</ele>
        <time>2018-02-20T08:25:41.000Z</time>
      </trkpt>
      <trkpt lat="43.52589" lon="5.5199">
        <ele>295</ele>
        <time>2018-02-20T08:25:42.000Z</time>
      </trkpt>
      <trkpt lat="43.52589" lon="5.5199">
        <ele>295</ele>
        <time>2018-02-20T08:25:43.000Z</time>
      </trkpt>
      <trkpt lat="43.52589" lon="5.5199">
        <ele>295</ele>
        <time>2018-02-20T08:25:44.000Z</time>
      </trkpt>
      <trkpt lat="43.52588" lon="5.5199">
        <ele>295</ele>
        <time>2018-02-20T08:25:45.000Z</time>
      </trkpt>
      <trkpt lat="43.52588" lon="5.5199">
        <ele>295</ele>
        <time>2018-02-20T08:25:46.000Z</time>
      </trkpt>
      <trkpt lat="43.52588" lon="5.5199">
        <ele>295</ele>
        <time>2018-02-20T08:25:47.000Z</time>
      </trkpt>
      <trkpt lat="43.52588" lon="5.5199">
        <ele>295</ele>
        <time>2018-02-20T08:25:48.000Z</time>
      </trkpt>
      <trkpt lat="43.52588" lon="5.5199">
        <ele>295</ele>
        <time>2018-02-20T08:25:49.000Z</time>
      </trkpt>
      <trkpt lat="43.52588" lon="5.5199">
        <ele>295</ele>
        <time>2018-02-20T08:25:50.000Z</time>
      </trkpt>
      <trkpt lat="43.52588" lon="5.51991">
        <ele>295</ele>
        <time>2018-02-20T08:25:51.000Z</time>
      </trkpt>
      <trkpt lat="43.52588" lon="5.51991">
        <ele>295</ele>
        <time>2018-02-20T08:25:52.000Z</time>
      </trkpt>
      <trkpt lat="43.52588" lon="5.51991">
        <ele>295</ele>
        <time>2018-02-20T08:25:53.000Z</time>
      </trkpt>
      <trkpt lat="43.52588" lon="5.51991">
        <ele>295</ele>
        <time>2018-02-20T08:25:54.000Z</time>
      </trkpt>
      <trkpt lat="43.52588" lon="5.51991">
        <ele>295</ele>
        <time>2018-02-20T08:25:55.000Z</time>
      </trkpt>
      <trkpt lat="43.52588" lon="5.51991">
        <ele>295</ele>
        <time>2018-02-20T08:25:56.000Z</time>
      </trkpt>
      <trkpt lat="43.52588" lon="5.5199">
        <ele>295</ele>
        <time>2018-02-20T08:25:57.000Z</time>
      </trkpt>
      <trkpt lat="43.52589" lon="5.5199">
        <ele>295</ele>
        <time>2018-02-20T08:25:58.000Z</time>
      </trkpt>
      <trkpt lat="43.52589" lon="5.5199">
        <ele>295</ele>
        <time>2018-02-20T08:25:59.000Z</time>
      </trkpt>
      <trkpt lat="43.5259" lon="5.51989">
        <ele>295</ele>
        <time>2018-02-20T08:26:00.000Z</time>
      </trkpt>
      <trkpt lat="43.52591" lon="5.51989">
        <ele>294</ele>
        <time>2018-02-20T08:26:01.000Z</time>
      </trkpt>
      <trkpt lat="43.52592" lon="5.51988">
        <ele>294</ele>
        <time>2018-02-20T08:26:02.000Z</time>
      </trkpt>
      <trkpt lat="43.52593" lon="5.51988">
        <ele>294</ele>
        <time>2018-02-20T08:26:03.000Z</time>
      </trkpt>
      <trkpt lat="43.52595" lon="5.51988">
        <ele>294</ele>
        <time>2018-02-20T08:26:04.000Z</time>
      </trkpt>
      <trkpt lat="43.52596" lon="5.51987">
        <ele>294</ele>
        <time>2018-02-20T08:26:05.000Z</time>
      </trkpt>
      <trkpt lat="43.52597" lon="5.51987">
        <ele>294</ele>
        <time>2018-02-20T08:26:06.000Z</time>
      </trkpt>
      <trkpt lat="43.52598" lon="5.51986">
        <ele>294</ele>
        <time>2018-02-20T08:26:07.000Z</time>
      </trkpt>
      <trkpt lat="43.526" lon="5.51985">
        <ele>294</ele>
        <time>2018-02-20T08:26:08.000Z</time>
      </trkpt>
      <trkpt lat="43.52601" lon="5.51985">
        <ele>294</ele>
        <time>2018-02-20T08:26:09.000Z</time>
      </trkpt>
      <trkpt lat="43.52602" lon="5.51984">
        <ele>294</ele>
        <time>2018-02-20T08:26:10.000Z</time>
      </trkpt>
      <trkpt lat="43.52603" lon="5.51984">
        <ele>294</ele>
        <time>2018-02-20T08:26:11.000Z</time>
      </trkpt>
      <trkpt lat="43.52604" lon="5.51984">
        <ele>294</ele>
        <time>2018-02-20T08:26:12.000Z</time>
      </trkpt>
      <trkpt lat="43.52606" lon="5.51984">
        <ele>294</ele>
        <time>2018-02-20T08:26:13.000Z</time>
      </trkpt>
      <trkpt lat="43.52607" lon="5.51984">
        <ele>294</ele>
        <time>2018-02-20T08:26:14.000Z</time>
      </trkpt>
      <trkpt lat="43.52607" lon="5.51984">
        <ele>294</ele>
        <time>2018-02-20T08:26:15.000Z</time>
      </trkpt>
      <trkpt lat="43.52608" lon="5.51984">
        <ele>294</ele>
        <time>2018-02-20T08:26:16.000Z</time>
      </trkpt>
      <trkpt lat="43.52609" lon="5.51985">
        <ele>294</ele>
        <time>2018-02-20T08:26:17.000Z</time>
      </trkpt>
      <trkpt lat="43.5261" lon="5.51985">
        <ele>294</ele>
        <time>2018-02-20T08:26:18.000Z</time>
      </trkpt>
      <trkpt lat="43.52611" lon="5.51985">
        <ele>294</ele>
        <time>2018-02-20T08:26:19.000Z</time>
      </trkpt>
      <trkpt lat="43.52612" lon="5.51986">
        <ele>294</ele>
        <time>2018-02-20T08:26:20.000Z</time>
      </trkpt>
      <trkpt lat="43.52613" lon="5.51986">
        <ele>294</ele>
        <time>2018-02-20T08:26:21.000Z</time>
      </trkpt>
      <trkpt lat="43.52614" lon="5.51986">
        <ele>295</ele>
        <time>2018-02-20T08:26:22.000Z</time>
      </trkpt>
      <trkpt lat="43.52614" lon="5.51986">
        <ele>295</ele>
        <time>2018-02-20T08:26:23.000Z</time>
      </trkpt>
      <trkpt lat="43.52615" lon="5.51986">
        <ele>295</ele>
        <time>2018-02-20T08:26:24.000Z</time>
      </trkpt>
      <trkpt lat="43.52616" lon="5.51986">
        <ele>295</ele>
        <time>2018-02-20T08:26:25.000Z</time>
      </trkpt>
      <trkpt lat="43.52616" lon="5.51986">
        <ele>295</ele>
        <time>2018-02-20T08:26:26.000Z</time>
      </trkpt>
      <trkpt lat="43.52617" lon="5.51986">
        <ele>295</ele>
        <time>2018-02-20T08:26:27.000Z</time>
      </trkpt>
      <trkpt lat="43.52618" lon="5.51986">
        <ele>295</ele>
        <time>2018-02-20T08:26:28.000Z</time>
      </trkpt>
      <trkpt lat="43.52618" lon="5.51986">
        <ele>295</ele>
        <time>2018-02-20T08:26:29.000Z</time>
      </trkpt>
      <trkpt lat="43.52619" lon="5.51987">
        <ele>295</ele>
        <time>2018-02-20T08:26:30.000Z</time>
      </trkpt>
      <trkpt lat="43.5262" lon="5.51987">
        <ele>295</ele>
        <time>2018-02-20T08:26:31.000Z</time>
      </trkpt>
      <trkpt lat="43.52621" lon="5.51987">
        <ele>295</ele>
        <time>2018-02-20T08:26:32.000Z</time>
      </trkpt>
      <trkpt lat="43.52622" lon="5.51987">
        <ele>295</ele>
        <time>2018-02-20T08:26:33.000Z</time>
      </trkpt>
      <trkpt lat="43.52622" lon="5.51987">
        <ele>296</ele>
        <time>2018-02-20T08:26:34.000Z</time>
      </trkpt>
      <trkpt lat="43.52623" lon="5.51987">
        <ele>296</ele>
        <time>2018-02-20T08:26:35.000Z</time>
      </trkpt>
      <trkpt lat="43.52624" lon="5.51986">
        <ele>296</ele>
        <time>2018-02-20T08:26:36.000Z</time>
      </trkpt>
      <trkpt lat="43.52624" lon="5.51986">
        <ele>296</ele>
        <time>2018-02-20T08:26:37.000Z</time>
      </trkpt>
      <trkpt lat="43.52625" lon="5.51986">
        <ele>296</ele>
        <time>2018-02-20T08:26:38.000Z</time>
      </trkpt>
      <trkpt lat="43.52626" lon="5.51985">
        <ele>296</ele>
        <time>2018-02-20T08:26:39.000Z</time>
      </trkpt>
      <trkpt lat="43.52626" lon="5.51985">
        <ele>296</ele>
        <time>2018-02-20T08:26:40.000Z</time>
      </trkpt>
      <trkpt lat="43.52627" lon="5.51984">
        <ele>296</ele>
        <time>2018-02-20T08:26:41.000Z</time>
      </trkpt>
      <trkpt lat="43.52627" lon="5.51983">
        <ele>296</ele>
        <time>2018-02-20T08:26:42.000Z</time>
      </trkpt>
      <trkpt lat="43.52627" lon="5.51983">
        <ele>297</ele>
        <time>2018-02-20T08:26:43.000Z</time>
      </trkpt>
      <trkpt lat="43.52628" lon="5.51982">
        <ele>297</ele>
        <time>2018-02-20T08:26:44.000Z</time>
      </trkpt>
      <trkpt lat="43.52629" lon="5.51981">
        <ele>297</ele>
        <time>2018-02-20T08:26:45.000Z</time>
      </trkpt>
      <trkpt lat="43.52629" lon="5.51979">
        <ele>297</ele>
        <time>2018-02-20T08:26:46.000Z</time>
      </trkpt>
      <trkpt lat="43.5263" lon="5.51978">
        <ele>297</ele>
        <time>2018-02-20T08:26:47.000Z</time>
      </trkpt>
      <trkpt lat="43.5263" lon="5.51977">
        <ele>297</ele>
        <time>2018-02-20T08:26:48.000Z</time>
      </trkpt>
      <trkpt lat="43.5263" lon="5.51976">
        <ele>297</ele>
        <time>2018-02-20T08:26:49.000Z</time>
      </trkpt>
      <trkpt lat="43.52631" lon="5.51974">
        <ele>297</ele>
        <time>2018-02-20T08:26:50.000Z</time>
      </trkpt>
      <trkpt lat="43.52631" lon="5.51974">
        <ele>297</ele>
        <time>2018-02-20T08:26:51.000Z</time>
      </trkpt>
      <trkpt lat="43.52632" lon="5.51973">
        <ele>297</ele>
        <time>2018-02-20T08:26:52.000Z</time>
      </trkpt>
      <trkpt lat="43.52632" lon="5.51972">
        <ele>297</ele>
        <time>2018-02-20T08:26:53.000Z</time>
      </trkpt>
      <trkpt lat="43.52632" lon="5.51971">
        <ele>297</ele>
        <time>2018-02-20T08:26:54.000Z</time>
      </trkpt>
      <trkpt lat="43.52632" lon="5.51969">
        <ele>298</ele>
        <time>2018-02-20T08:26:55.000Z</time>
      </trkpt>
      <trkpt lat="43.52632" lon="5.51968">
        <ele>298</ele>
        <time>2018-02-20T08:26:56.000Z</time>
      </trkpt>
      <trkpt lat="43.52632" lon="5.51966">
        <ele>298</ele>
        <time>2018-02-20T08:26:57.000Z</time>
      </trkpt>
      <trkpt lat="43.52633" lon="5.51965">
        <ele>298</ele>
        <time>2018-02-20T08:26:58.000Z</time>
      </trkpt>
      <trkpt lat="43.52633" lon="5.51963">
        <ele>298</ele>
        <time>2018-02-20T08:26:59.000Z</time>
      </trkpt>
      <trkpt lat="43.52633" lon="5.51962">
        <ele>298</ele>
        <time>2018-02-20T08:27:00.000Z</time>
      </trkpt>
      <trkpt lat="43.52634" lon="5.51961">
        <ele>298</ele>
        <time>2018-02-20T08:27:01.000Z</time>
      </trkpt>
      <trkpt lat="43.52635" lon="5.51959">
        <ele>298</ele>
        <time>2018-02-20T08:27:02.000Z</time>
      </trkpt>
      <trkpt lat="43.52636" lon="5.51958">
        <ele>298</ele>
        <time>2018-02-20T08:27:03.000Z</time>
      </trkpt>
      <trkpt lat="43.52636" lon="5.51957">
        <ele>298</ele>
        <time>2018-02-20T08:27:04.000Z</time>
      </trkpt>
      <trkpt lat="43.52636" lon="5.51956">
        <ele>298</ele>
        <time>2018-02-20T08:27:05.000Z</time>
      </trkpt>
      <trkpt lat="43.52637" lon="5.51955">
        <ele>298</ele>
        <time>2018-02-20T08:27:06.000Z</time>
      </trkpt>
      <trkpt lat="43.52637" lon="5.51954">
        <ele>298</ele>
        <time>2018-02-20T08:27:07.000Z</time>
      </trkpt>
      <trkpt lat="43.52637" lon="5.51952">
        <ele>298</ele>
        <time>2018-02-20T08:27:08.000Z</time>
      </trkpt>
      <trkpt lat="43.52638" lon="5.51951">
        <ele>298</ele>
        <time>2018-02-20T08:27:09.000Z</time>
      </trkpt>
      <trkpt lat="43.52638" lon="5.5195">
        <ele>299</ele>
        <time>2018-02-20T08:27:10.000Z</time>
      </trkpt>
      <trkpt lat="43.52638" lon="5.51949">
        <ele>299</ele>
        <time>2018-02-20T08:27:11.000Z</time>
      </trkpt>
      <trkpt lat="43.52639" lon="5.51947">
        <ele>299</ele>
        <time>2018-02-20T08:27:12.000Z</time>
      </trkpt>
      <trkpt lat="43.52639" lon="5.51946">
        <ele>299</ele>
        <time>2018-02-20T08:27:13.000Z</time>
      </trkpt>
      <trkpt lat="43.52639" lon="5.51944">
        <ele>299</ele>
        <time>2018-02-20T08:27:14.000Z</time>
      </trkpt>
      <trkpt lat="43.5264" lon="5.51943">
        <ele>299</ele>
        <time>2018-02-20T08:27:15.000Z</time>
      </trkpt>
      <trkpt lat="43.5264" lon="5.51942">
        <ele>299</ele>
        <time>2018-02-20T08:27:16.000Z</time>
      </trkpt>
      <trkpt lat="43.5264" lon="5.5194">
        <ele>299</ele>
        <time>2018-02-20T08:27:17.000Z</time>
      </trkpt>
      <trkpt lat="43.5264" lon="5.51939">
        <ele>299</ele>
        <time>2018-02-20T08:27:18.000Z</time>
      </trkpt>
      <trkpt lat="43.5264" lon="5.51938">
        <ele>299</ele>
        <time>2018-02-20T08:27:19.000Z</time>
      </trkpt>
      <trkpt lat="43.52641" lon="5.51937">
        <ele>299</ele>
        <time>2018-02-20T08:27:20.000Z</time>
      </trkpt>
      <trkpt lat="43.52641" lon="5.51935">
        <ele>299</ele>
        <time>2018-02-20T08:27:21.000Z</time>
      </trkpt>
      <trkpt lat="43.52641" lon="5.51934">
        <ele>299</ele>
        <time>2018-02-20T08:27:22.000Z</time>
      </trkpt>
      <trkpt lat="43.52641" lon="5.51933">
        <ele>299</ele>
        <time>2018-02-20T08:27:23.000Z</time>
      </trkpt>
      <trkpt lat="43.52641" lon="5.51932">
        <ele>299</ele>
        <time>2018-02-20T08:27:24.000Z</time>
      </trkpt>
      <trkpt lat="43.52642" lon="5.5193">
        <ele>299</ele>
        <time>2018-02-20T08:27:25.000Z</time>
      </trkpt>
      <trkpt lat="43.52642" lon="5.51929">
        <ele>299</ele>
        <time>2018-02-20T08:27:26.000Z</time>
      </trkpt>
      <trkpt lat="43.52643" lon="5.51928">
        <ele>299</ele>
        <time>2018-02-20T08:27:27.000Z</time>
      </trkpt>
      <trkpt lat="43.52643" lon="5.51927">
        <ele>299</ele>
        <time>2018-02-20T08:27:28.000Z</time>
      </trkpt>
      <trkpt lat="43.52643" lon="5.51926">
        <ele>299</ele>
        <time>2018-02-20T08:27:29.000Z</time>
      </trkpt>
      <trkpt lat="43.52643" lon="5.51926">
        <ele>299</ele>
        <time>2018-02-20T08:27:30.000Z</time>
      </trkpt>
      <trkpt lat="43.52643" lon="5.51926">
        <ele>299</ele>
        <time>2018-02-20T08:27:31.000Z</time>
      </trkpt>
      <trkpt lat="43.52643" lon="5.51925">
        <ele>300</ele>
        <time>2018-02-20T08:27:32.000Z</time>
      </trkpt>
      <trkpt lat="43.52644" lon="5.51924">
        <ele>300</ele>
        <time>2018-02-20T08:27:33.000Z</time>
      </trkpt>
      <trkpt lat="43.52644" lon="5.51923">
        <ele>300</ele>
        <time>2018-02-20T08:27:34.000Z</time>
      </trkpt>
      <trkpt lat="43.52644" lon="5.51922">
        <ele>300</ele>
        <time>2018-02-20T08:27:35.000Z</time>
      </trkpt>
      <trkpt lat="43.52644" lon="5.51921">
        <ele>300</ele>
        <time>2018-02-20T08:27:36.000Z</time>
      </trkpt>
      <trkpt lat="43.52645" lon="5.5192">
        <ele>300</ele>
        <time>2018-02-20T08:27:37.000Z</time>
      </trkpt>
      <trkpt lat="43.52645" lon="5.51919">
        <ele>300</ele>
        <time>2018-02-20T08:27:38.000Z</time>
      </trkpt>
      <trkpt lat="43.52645" lon="5.51918">
        <ele>300</ele>
        <time>2018-02-20T08:27:39.000Z</time>
      </trkpt>
      <trkpt lat="43.52645" lon="5.51917">
        <ele>300</ele>
        <time>2018-02-20T08:27:40.000Z</time>
      </trkpt>
      <trkpt lat="43.52645" lon="5.51915">
        <ele>300</ele>
        <time>2018-02-20T08:27:41.000Z</time>
      </trkpt>
      <trkpt lat="43.52646" lon="5.51915">
        <ele>300</ele>
        <time>2018-02-20T08:27:42.000Z</time>
      </trkpt>
      <trkpt lat="43.52646" lon="5.51914">
        <ele>300</ele>
        <time>2018-02-20T08:27:43.000Z</time>
      </trkpt>
      <trkpt lat="43.52647" lon="5.51912">
        <ele>300</ele>
        <time>2018-02-20T08:27:44.000Z</time>
      </trkpt>
      <trkpt lat="43.52647" lon="5.51911">
        <ele>300</ele>
        <time>2018-02-20T08:27:45.000Z</time>
      </trkpt>
      <trkpt lat="43.52647" lon="5.5191">
        <ele>300</ele>
        <time>2018-02-20T08:27:46.000Z</time>
      </trkpt>
      <trkpt lat="43.52648" lon="5.51909">
        <ele>300</ele>
        <time>2018-02-20T08:27:47.000Z</time>
      </trkpt>
      <trkpt lat="43.52648" lon="5.51908">
        <ele>300</ele>
        <time>2018-02-20T08:27:48.000Z</time>
      </trkpt>
      <trkpt lat="43.52648" lon="5.51907">
        <ele>300</ele>
        <time>2018-02-20T08:27:49.000Z</time>
      </trkpt>
      <trkpt lat="43.52649" lon="5.51905">
        <ele>300</ele>
        <time>2018-02-20T08:27:50.000Z</time>
      </trkpt>
      <trkpt lat="43.52649" lon="5.51904">
        <ele>300</ele>
        <time>2018-02-20T08:27:51.000Z</time>
      </trkpt>
      <trkpt lat="43.5265" lon="5.51903">
        <ele>300</ele>
        <time>2018-02-20T08:27:52.000Z</time>
      </trkpt>
      <trkpt lat="43.5265" lon="5.51902">
        <ele>300</ele>
        <time>2018-02-20T08:27:53.000Z</time>
      </trkpt>
      <trkpt lat="43.52651" lon="5.519">
        <ele>301</ele>
        <time>2018-02-20T08:27:54.000Z</time>
      </trkpt>
      <trkpt lat="43.52651" lon="5.51899">
        <ele>301</ele>
        <time>2018-02-20T08:27:55.000Z</time>
      </trkpt>
      <trkpt lat="43.52652" lon="5.51897">
        <ele>301</ele>
        <time>2018-02-20T08:27:56.000Z</time>
      </trkpt>
      <trkpt lat="43.52652" lon="5.51896">
        <ele>301</ele>
        <time>2018-02-20T08:27:57.000Z</time>
      </trkpt>
      <trkpt lat="43.52653" lon="5.51894">
        <ele>301</ele>
        <time>2018-02-20T08:27:58.000Z</time>
      </trkpt>
      <trkpt lat="43.52653" lon="5.51893">
        <ele>302</ele>
        <time>2018-02-20T08:27:59.000Z</time>
      </trkpt>
      <trkpt lat="43.52654" lon="5.51892">
        <ele>302</ele>
        <time>2018-02-20T08:28:00.000Z</time>
      </trkpt>
      <trkpt lat="43.52654" lon="5.5189">
        <ele>302</ele>
        <time>2018-02-20T08:28:01.000Z</time>
      </trkpt>
      <trkpt lat="43.52655" lon="5.51889">
        <ele>302</ele>
        <time>2018-02-20T08:28:02.000Z</time>
      </trkpt>
      <trkpt lat="43.52655" lon="5.51887">
        <ele>302</ele>
        <time>2018-02-20T08:28:03.000Z</time>
      </trkpt>
      <trkpt lat="43.52655" lon="5.51886">
        <ele>302</ele>
        <time>2018-02-20T08:28:04.000Z</time>
      </trkpt>
      <trkpt lat="43.52656" lon="5.51884">
        <ele>303</ele>
        <time>2018-02-20T08:28:05.000Z</time>
      </trkpt>
      <trkpt lat="43.52656" lon="5.51883">
        <ele>303</ele>
        <time>2018-02-20T08:28:06.000Z</time>
      </trkpt>
      <trkpt lat="43.52657" lon="5.51881">
        <ele>303</ele>
        <time>2018-02-20T08:28:07.000Z</time>
      </trkpt>
      <trkpt lat="43.52657" lon="5.5188">
        <ele>303</ele>
        <time>2018-02-20T08:28:08.000Z</time>
      </trkpt>
      <trkpt lat="43.52657" lon="5.51878">
        <ele>304</ele>
        <time>2018-02-20T08:28:09.000Z</time>
      </trkpt>
      <trkpt lat="43.52658" lon="5.51876">
        <ele>304</ele>
        <time>2018-02-20T08:28:10.000Z</time>
      </trkpt>
      <trkpt lat="43.52659" lon="5.51875">
        <ele>304</ele>
        <time>2018-02-20T08:28:11.000Z</time>
      </trkpt>
      <trkpt lat="43.52659" lon="5.51873">
        <ele>304</ele>
        <time>2018-02-20T08:28:12.000Z</time>
      </trkpt>
      <trkpt lat="43.52659" lon="5.51872">
        <ele>305</ele>
        <time>2018-02-20T08:28:13.000Z</time>
      </trkpt>
      <trkpt lat="43.5266" lon="5.5187">
        <ele>305</ele>
        <time>2018-02-20T08:28:14.000Z</time>
      </trkpt>
      <trkpt lat="43.5266" lon="5.51869">
        <ele>305</ele>
        <time>2018-02-20T08:28:15.000Z</time>
      </trkpt>
      <trkpt lat="43.52661" lon="5.51868">
        <ele>305</ele>
        <time>2018-02-20T08:28:16.000Z</time>
      </trkpt>
      <trkpt lat="43.52661" lon="5.51866">
        <ele>305</ele>
        <time>2018-02-20T08:28:17.000Z</time>
      </trkpt>
      <trkpt lat="43.52662" lon="5.51865">
        <ele>305</ele>
        <time>2018-02-20T08:28:18.000Z</time>
      </trkpt>
      <trkpt lat="43.52663" lon="5.51863">
        <ele>306</ele>
        <time>2018-02-20T08:28:19.000Z</time>
      </trkpt>
      <trkpt lat="43.52663" lon="5.51862">
        <ele>306</ele>
        <time>2018-02-20T08:28:20.000Z</time>
      </trkpt>
      <trkpt lat="43.52664" lon="5.51861">
        <ele>306</ele>
        <time>2018-02-20T08:28:21.000Z</time>
      </trkpt>
      <trkpt lat="43.52664" lon="5.5186">
        <ele>306</ele>
        <time>2018-02-20T08:28:22.000Z</time>
      </trkpt>
      <trkpt lat="43.52665" lon="5.51858">
        <ele>306</ele>
        <time>2018-02-20T08:28:23.000Z</time>
      </trkpt>
      <trkpt lat="43.52665" lon="5.51857">
        <ele>307</ele>
        <time>2018-02-20T08:28:24.000Z</time>
      </trkpt>
      <trkpt lat="43.52665" lon="5.51856">
        <ele>307</ele>
        <time>2018-02-20T08:28:25.000Z</time>
      </trkpt>
      <trkpt lat="43.52666" lon="5.51855">
        <ele>307</ele>
        <time>2018-02-20T08:28:26.000Z</time>
      </trkpt>
      <trkpt lat="43.52666" lon="5.51854">
        <ele>307</ele>
        <time>2018-02-20T08:28:27.000Z</time>
      </trkpt>
      <trkpt lat="43.52667" lon="5.51852">
        <ele>307</ele>
        <time>2018-02-20T08:28:28.000Z</time>
      </trkpt>
      <trkpt lat="43.52667" lon="5.51851">
        <ele>307</ele>
        <time>2018-02-20T08:28:29.000Z</time>
      </trkpt>
      <trkpt lat="43.52667" lon="5.51849">
        <ele>307</ele>
        <time>2018-02-20T08:28:30.000Z</time>
      </trkpt>
      <trkpt lat="43.52668" lon="5.51848">
        <ele>307</ele>
        <time>2018-02-20T08:28:31.000Z</time>
      </trkpt>
      <trkpt lat="43.52668" lon="5.51847">
        <ele>307</ele>
        <time>2018-02-20T08:28:32.000Z</time>
      </trkpt>
      <trkpt lat="43.52668" lon="5.51845">
        <ele>307</ele>
        <time>2018-02-20T08:28:33.000Z</time>
      </trkpt>
      <trkpt lat="43.52669" lon="5.51844">
        <ele>307</ele>
        <time>2018-02-20T08:28:34.000Z</time>
      </trkpt>
      <trkpt lat="43.5267" lon="5.51843">
        <ele>307</ele>
        <time>2018-02-20T08:28:35.000Z</time>
      </trkpt>
      <trkpt lat="43.5267" lon="5.51841">
        <ele>307</ele>
        <time>2018-02-20T08:28:36.000Z</time>
      </trkpt>
      <trkpt lat="43.52671" lon="5.51839">
        <ele>307</ele>
        <time>2018-02-20T08:28:37.000Z</time>
      </trkpt>
      <trkpt lat="43.52671" lon="5.51838">
        <ele>307</ele>
        <time>2018-02-20T08:28:38.000Z</time>
      </trkpt>
      <trkpt lat="43.52672" lon="5.51836">
        <ele>307</ele>
        <time>2018-02-20T08:28:39.000Z</time>
      </trkpt>
      <trkpt lat="43.52672" lon="5.51835">
        <ele>307</ele>
        <time>2018-02-20T08:28:40.000Z</time>
      </trkpt>
      <trkpt lat="43.52673" lon="5.51834">
        <ele>307</ele>
        <time>2018-02-20T08:28:41.000Z</time>
      </trkpt>
      <trkpt lat="43.52674" lon="5.51832">
        <ele>307</ele>
        <time>2018-02-20T08:28:42.000Z</time>
      </trkpt>
      <trkpt lat="43.52674" lon="5.51831">
        <ele>307</ele>
        <time>2018-02-20T08:28:43.000Z</time>
      </trkpt>
      <trkpt lat="43.52675" lon="5.5183">
        <ele>307</ele>
        <time>2018-02-20T08:28:44.000Z</time>
      </trkpt>
      <trkpt lat="43.52676" lon="5.51829">
        <ele>307</ele>
        <time>2018-02-20T08:28:45.000Z</time>
      </trkpt>
      <trkpt lat="43.52676" lon="5.51828">
        <ele>307</ele>
        <time>2018-02-20T08:28:46.000Z</time>
      </trkpt>
      <trkpt lat="43.52677" lon="5.51826">
        <ele>307</ele>
        <time>2018-02-20T08:28:47.000Z</time>
      </trkpt>
      <trkpt lat="43.52678" lon="5.51825">
        <ele>307</ele>
        <time>2018-02-20T08:28:48.000Z</time>
      </trkpt>
      <trkpt lat="43.52678" lon="5.51824">
        <ele>307</ele>
        <time>2018-02-20T08:28:49.000Z</time>
      </trkpt>
      <trkpt lat="43.52679" lon="5.51823">
        <ele>307</ele>
        <time>2018-02-20T08:28:50.000Z</time>
      </trkpt>
      <trkpt lat="43.5268" lon="5.51822">
        <ele>307</ele>
        <time>2018-02-20T08:28:51.000Z</time>
      </trkpt>
      <trkpt lat="43.5268" lon="5.51821">
        <ele>307</ele>
        <time>2018-02-20T08:28:52.000Z</time>
      </trkpt>
      <trkpt lat="43.52681" lon="5.51819">
        <ele>307</ele>
        <time>2018-02-20T08:28:53.000Z</time>
      </trkpt>
      <trkpt lat="43.52682" lon="5.51818">
        <ele>307</ele>
        <time>2018-02-20T08:28:54.000Z</time>
      </trkpt>
      <trkpt lat="43.52682" lon="5.51817">
        <ele>307</ele>
        <time>2018-02-20T08:28:55.000Z</time>
      </trkpt>
      <trkpt lat="43.52683" lon="5.51816">
        <ele>307</ele>
        <time>2018-02-20T08:28:56.000Z</time>
      </trkpt>
      <trkpt lat="43.52684" lon="5.51814">
        <ele>307</ele>
        <time>2018-02-20T08:28:57.000Z</time>
      </trkpt>
      <trkpt lat="43.52684" lon="5.51813">
        <ele>307</ele>
        <time>2018-02-20T08:28:58.000Z</time>
      </trkpt>
      <trkpt lat="43.52685" lon="5.51812">
        <ele>307</ele>
        <time>2018-02-20T08:28:59.000Z</time>
      </trkpt>
      <trkpt lat="43.52686" lon="5.51811">
        <ele>307</ele>
        <time>2018-02-20T08:29:00.000Z</time>
      </trkpt>
      <trkpt lat="43.52686" lon="5.5181">
        <ele>307</ele>
        <time>2018-02-20T08:29:01.000Z</time>
      </trkpt>
      <trkpt lat="43.52687" lon="5.51809">
        <ele>307</ele>
        <time>2018-02-20T08:29:02.000Z</time>
      </trkpt>
      <trkpt lat="43.52687" lon="5.51808">
        <ele>307</ele>
        <time>2018-02-20T08:29:03.000Z</time>
      </trkpt>
      <trkpt lat="43.52688" lon="5.51806">
        <ele>307</ele>
        <time>2018-02-20T08:29:04.000Z</time>
      </trkpt>
      <trkpt lat="43.52688" lon="5.51805">
        <ele>307</ele>
        <time>2018-02-20T08:29:05.000Z</time>
      </trkpt>
      <trkpt lat="43.52688" lon="5.51804">
        <ele>306</ele>
        <time>2018-02-20T08:29:06.000Z</time>
      </trkpt>
      <trkpt lat="43.52689" lon="5.51803">
        <ele>307</ele>
        <time>2018-02-20T08:29:07.000Z</time>
      </trkpt>
      <trkpt lat="43.52689" lon="5.51801">
        <ele>306</ele>
        <time>2018-02-20T08:29:08.000Z</time>
      </trkpt>
      <trkpt lat="43.52689" lon="5.518">
        <ele>306</ele>
        <time>2018-02-20T08:29:09.000Z</time>
      </trkpt>
      <trkpt lat="43.5269" lon="5.51798">
        <ele>306</ele>
        <time>2018-02-20T08:29:10.000Z</time>
      </trkpt>
      <trkpt lat="43.5269" lon="5.51797">
        <ele>306</ele>
        <time>2018-02-20T08:29:11.000Z</time>
      </trkpt>
      <trkpt lat="43.5269" lon="5.51796">
        <ele>306</ele>
        <time>2018-02-20T08:29:12.000Z</time>
      </trkpt>
      <trkpt lat="43.52691" lon="5.51794">
        <ele>306</ele>
        <time>2018-02-20T08:29:13.000Z</time>
      </trkpt>
      <trkpt lat="43.52691" lon="5.51793">
        <ele>306</ele>
        <time>2018-02-20T08:29:14.000Z</time>
      </trkpt>
      <trkpt lat="43.52691" lon="5.51791">
        <ele>306</ele>
        <time>2018-02-20T08:29:15.000Z</time>
      </trkpt>
      <trkpt lat="43.52691" lon="5.5179">
        <ele>306</ele>
        <time>2018-02-20T08:29:16.000Z</time>
      </trkpt>
      <trkpt lat="43.52691" lon="5.51788">
        <ele>306</ele>
        <time>2018-02-20T08:29:17.000Z</time>
      </trkpt>
      <trkpt lat="43.52691" lon="5.51786">
        <ele>306</ele>
        <time>2018-02-20T08:29:18.000Z</time>
      </trkpt>
      <trkpt lat="43.52691" lon="5.51784">
        <ele>306</ele>
        <time>2018-02-20T08:29:19.000Z</time>
      </trkpt>
      <trkpt lat="43.52691" lon="5.51783">
        <ele>306</ele>
        <time>2018-02-20T08:29:20.000Z</time>
      </trkpt>
      <trkpt lat="43.52691" lon="5.51781">
        <ele>306</ele>
        <time>2018-02-20T08:29:21.000Z</time>
      </trkpt>
      <trkpt lat="43.52691" lon="5.5178">
        <ele>306</ele>
        <time>2018-02-20T08:29:22.000Z</time>
      </trkpt>
      <trkpt lat="43.52691" lon="5.51778">
        <ele>306</ele>
        <time>2018-02-20T08:29:23.000Z</time>
      </trkpt>
      <trkpt lat="43.52691" lon="5.51776">
        <ele>306</ele>
        <time>2018-02-20T08:29:24.000Z</time>
      </trkpt>
      <trkpt lat="43.52691" lon="5.51775">
        <ele>306</ele>
        <time>2018-02-20T08:29:25.000Z</time>
      </trkpt>
      <trkpt lat="43.52691" lon="5.51773">
        <ele>306</ele>
        <time>2018-02-20T08:29:26.000Z</time>
      </trkpt>
      <trkpt lat="43.52691" lon="5.51772">
        <ele>306</ele>
        <time>2018-02-20T08:29:27.000Z</time>
      </trkpt>
      <trkpt lat="43.52691" lon="5.51771">
        <ele>306</ele>
        <time>2018-02-20T08:29:28.000Z</time>
      </trkpt>
      <trkpt lat="43.52691" lon="5.5177">
        <ele>306</ele>
        <time>2018-02-20T08:29:29.000Z</time>
      </trkpt>
      <trkpt lat="43.52692" lon="5.51769">
        <ele>306</ele>
        <time>2018-02-20T08:29:30.000Z</time>
      </trkpt>
      <trkpt lat="43.52692" lon="5.51769">
        <ele>306</ele>
        <time>2018-02-20T08:29:31.000Z</time>
      </trkpt>
      <trkpt lat="43.52692" lon="5.51769">
        <ele>306</ele>
        <time>2018-02-20T08:29:32.000Z</time>
      </trkpt>
      <trkpt lat="43.52691" lon="5.51769">
        <ele>306</ele>
        <time>2018-02-20T08:29:33.000Z</time>
      </trkpt>
      <trkpt lat="43.52691" lon="5.51768">
        <ele>306</ele>
        <time>2018-02-20T08:29:34.000Z</time>
      </trkpt>
      <trkpt lat="43.52691" lon="5.51768">
        <ele>306</ele>
        <time>2018-02-20T08:29:35.000Z</time>
      </trkpt>
      <trkpt lat="43.5269" lon="5.51767">
        <ele>306</ele>
        <time>2018-02-20T08:29:36.000Z</time>
      </trkpt>
      <trkpt lat="43.5269" lon="5.51765">
        <ele>306</ele>
        <time>2018-02-20T08:29:37.000Z</time>
      </trkpt>
      <trkpt lat="43.5269" lon="5.51764">
        <ele>306</ele>
        <time>2018-02-20T08:29:38.000Z</time>
      </trkpt>
      <trkpt lat="43.5269" lon="5.51763">
        <ele>306</ele>
        <time>2018-02-20T08:29:39.000Z</time>
      </trkpt>
      <trkpt lat="43.52691" lon="5.51762">
        <ele>306</ele>
        <time>2018-02-20T08:29:40.000Z</time>
      </trkpt>
      <trkpt lat="43.5269" lon="5.5176">
        <ele>306</ele>
        <time>2018-02-20T08:29:41.000Z</time>
      </trkpt>
      <trkpt lat="43.52691" lon="5.51759">
        <ele>306</ele>
        <time>2018-02-20T08:29:42.000Z</time>
      </trkpt>
      <trkpt lat="43.52691" lon="5.51758">
        <ele>306</ele>
        <time>2018-02-20T08:29:43.000Z</time>
      </trkpt>
      <trkpt lat="43.52691" lon="5.51757">
        <ele>306</ele>
        <time>2018-02-20T08:29:44.000Z</time>
      </trkpt>
      <trkpt lat="43.52692" lon="5.51756">
        <ele>306</ele>
        <time>2018-02-20T08:29:45.000Z</time>
      </trkpt>
      <trkpt lat="43.52692" lon="5.51755">
        <ele>306</ele>
        <time>2018-02-20T08:29:46.000Z</time>
      </trkpt>
      <trkpt lat="43.52692" lon="5.51754">
        <ele>306</ele>
        <time>2018-02-20T08:29:47.000Z</time>
      </trkpt>
      <trkpt lat="43.52692" lon="5.51753">
        <ele>306</ele>
        <time>2018-02-20T08:29:48.000Z</time>
      </trkpt>
      <trkpt lat="43.52692" lon="5.51752">
        <ele>306</ele>
        <time>2018-02-20T08:29:49.000Z</time>
      </trkpt>
      <trkpt lat="43.52692" lon="5.51752">
        <ele>306</ele>
        <time>2018-02-20T08:29:50.000Z</time>
      </trkpt>
      <trkpt lat="43.52692" lon="5.51752">
        <ele>306</ele>
        <time>2018-02-20T08:29:51.000Z</time>
      </trkpt>
      <trkpt lat="43.52692" lon="5.51752">
        <ele>306</ele>
        <time>2018-02-20T08:29:52.000Z</time>
      </trkpt>
      <trkpt lat="43.52692" lon="5.51752">
        <ele>306</ele>
        <time>2018-02-20T08:29:53.000Z</time>
      </trkpt>
      <trkpt lat="43.52692" lon="5.51751">
        <ele>306</ele>
        <time>2018-02-20T08:29:54.000Z</time>
      </trkpt>
      <trkpt lat="43.52693" lon="5.51749">
        <ele>306</ele>
        <time>2018-02-20T08:29:55.000Z</time>
      </trkpt>
      <trkpt lat="43.52693" lon="5.51747">
        <ele>306</ele>
        <time>2018-02-20T08:29:56.000Z</time>
      </trkpt>
      <trkpt lat="43.52693" lon="5.51746">
        <ele>306</ele>
        <time>2018-02-20T08:29:57.000Z</time>
      </trkpt>
      <trkpt lat="43.52693" lon="5.51744">
        <ele>306</ele>
        <time>2018-02-20T08:29:58.000Z</time>
      </trkpt>
      <trkpt lat="43.52694" lon="5.51743">
        <ele>306</ele>
        <time>2018-02-20T08:29:59.000Z</time>
      </trkpt>
      <trkpt lat="43.52694" lon="5.51741">
        <ele>306</ele>
        <time>2018-02-20T08:30:00.000Z</time>
      </trkpt>
      <trkpt lat="43.52694" lon="5.5174">
        <ele>306</ele>
        <time>2018-02-20T08:30:01.000Z</time>
      </trkpt>
      <trkpt lat="43.52695" lon="5.51738">
        <ele>306</ele>
        <time>2018-02-20T08:30:02.000Z</time>
      </trkpt>
      <trkpt lat="43.52696" lon="5.51737">
        <ele>306</ele>
        <time>2018-02-20T08:30:03.000Z</time>
      </trkpt>
      <trkpt lat="43.52696" lon="5.51735">
        <ele>306</ele>
        <time>2018-02-20T08:30:04.000Z</time>
      </trkpt>
      <trkpt lat="43.52697" lon="5.51734">
        <ele>306</ele>
        <time>2018-02-20T08:30:05.000Z</time>
      </trkpt>
      <trkpt lat="43.52697" lon="5.51732">
        <ele>306</ele>
        <time>2018-02-20T08:30:06.000Z</time>
      </trkpt>
      <trkpt lat="43.52697" lon="5.51731">
        <ele>306</ele>
        <time>2018-02-20T08:30:07.000Z</time>
      </trkpt>
      <trkpt lat="43.52697" lon="5.5173">
        <ele>306</ele>
        <time>2018-02-20T08:30:08.000Z</time>
      </trkpt>
      <trkpt lat="43.52698" lon="5.51729">
        <ele>306</ele>
        <time>2018-02-20T08:30:09.000Z</time>
      </trkpt>
      <trkpt lat="43.52698" lon="5.51727">
        <ele>306</ele>
        <time>2018-02-20T08:30:10.000Z</time>
      </trkpt>
      <trkpt lat="43.52698" lon="5.51726">
        <ele>306</ele>
        <time>2018-02-20T08:30:11.000Z</time>
      </trkpt>
      <trkpt lat="43.52698" lon="5.51724">
        <ele>306</ele>
        <time>2018-02-20T08:30:12.000Z</time>
      </trkpt>
      <trkpt lat="43.52699" lon="5.51723">
        <ele>305</ele>
        <time>2018-02-20T08:30:13.000Z</time>
      </trkpt>
      <trkpt lat="43.52699" lon="5.51722">
        <ele>305</ele>
        <time>2018-02-20T08:30:14.000Z</time>
      </trkpt>
      <trkpt lat="43.52699" lon="5.51721">
        <ele>305</ele>
        <time>2018-02-20T08:30:15.000Z</time>
      </trkpt>
      <trkpt lat="43.527" lon="5.5172">
        <ele>305</ele>
        <time>2018-02-20T08:30:16.000Z</time>
      </trkpt>
      <trkpt lat="43.527" lon="5.51719">
        <ele>305</ele>
        <time>2018-02-20T08:30:17.000Z</time>
      </trkpt>
      <trkpt lat="43.52701" lon="5.51718">
        <ele>306</ele>
        <time>2018-02-20T08:30:18.000Z</time>
      </trkpt>
      <trkpt lat="43.52701" lon="5.51717">
        <ele>306</ele>
        <time>2018-02-20T08:30:19.000Z</time>
      </trkpt>
      <trkpt lat="43.52702" lon="5.51715">
        <ele>306</ele>
        <time>2018-02-20T08:30:20.000Z</time>
      </trkpt>
      <trkpt lat="43.52702" lon="5.51714">
        <ele>306</ele>
        <time>2018-02-20T08:30:21.000Z</time>
      </trkpt>
      <trkpt lat="43.52702" lon="5.51712">
        <ele>306</ele>
        <time>2018-02-20T08:30:22.000Z</time>
      </trkpt>
      <trkpt lat="43.52703" lon="5.5171">
        <ele>306</ele>
        <time>2018-02-20T08:30:23.000Z</time>
      </trkpt>
      <trkpt lat="43.52703" lon="5.51709">
        <ele>306</ele>
        <time>2018-02-20T08:30:24.000Z</time>
      </trkpt>
      <trkpt lat="43.52703" lon="5.51708">
        <ele>306</ele>
        <time>2018-02-20T08:30:25.000Z</time>
      </trkpt>
      <trkpt lat="43.52703" lon="5.51706">
        <ele>306</ele>
        <time>2018-02-20T08:30:26.000Z</time>
      </trkpt>
      <trkpt lat="43.52703" lon="5.51705">
        <ele>305</ele>
        <time>2018-02-20T08:30:27.000Z</time>
      </trkpt>
      <trkpt lat="43.52703" lon="5.51703">
        <ele>305</ele>
        <time>2018-02-20T08:30:28.000Z</time>
      </trkpt>
      <trkpt lat="43.52703" lon="5.51701">
        <ele>305</ele>
        <time>2018-02-20T08:30:29.000Z</time>
      </trkpt>
      <trkpt lat="43.52703" lon="5.517">
        <ele>305</ele>
        <time>2018-02-20T08:30:30.000Z</time>
      </trkpt>
      <trkpt lat="43.52703" lon="5.51698">
        <ele>305</ele>
        <time>2018-02-20T08:30:31.000Z</time>
      </trkpt>
      <trkpt lat="43.52703" lon="5.51696">
        <ele>305</ele>
        <time>2018-02-20T08:30:32.000Z</time>
      </trkpt>
      <trkpt lat="43.52703" lon="5.51695">
        <ele>305</ele>
        <time>2018-02-20T08:30:33.000Z</time>
      </trkpt>
      <trkpt lat="43.52703" lon="5.51693">
        <ele>305</ele>
        <time>2018-02-20T08:30:34.000Z</time>
      </trkpt>
      <trkpt lat="43.52704" lon="5.51691">
        <ele>305</ele>
        <time>2018-02-20T08:30:35.000Z</time>
      </trkpt>
      <trkpt lat="43.52704" lon="5.5169">
        <ele>305</ele>
        <time>2018-02-20T08:30:36.000Z</time>
      </trkpt>
      <trkpt lat="43.52704" lon="5.51688">
        <ele>305</ele>
        <time>2018-02-20T08:30:37.000Z</time>
      </trkpt>
      <trkpt lat="43.52704" lon="5.51687">
        <ele>305</ele>
        <time>2018-02-20T08:30:38.000Z</time>
      </trkpt>
      <trkpt lat="43.52704" lon="5.51685">
        <ele>305</ele>
        <time>2018-02-20T08:30:39.000Z</time>
      </trkpt>
      <trkpt lat="43.52704" lon="5.51683">
        <ele>305</ele>
        <time>2018-02-20T08:30:40.000Z</time>
      </trkpt>
      <trkpt lat="43.52704" lon="5.51682">
        <ele>305</ele>
        <time>2018-02-20T08:30:41.000Z</time>
      </trkpt>
      <trkpt lat="43.52705" lon="5.51681">
        <ele>305</ele>
        <time>2018-02-20T08:30:42.000Z</time>
      </trkpt>
      <trkpt lat="43.52705" lon="5.51679">
        <ele>304</ele>
        <time>2018-02-20T08:30:43.000Z</time>
      </trkpt>
      <trkpt lat="43.52705" lon="5.51678">
        <ele>304</ele>
        <time>2018-02-20T08:30:44.000Z</time>
      </trkpt>
      <trkpt lat="43.52705" lon="5.51676">
        <ele>304</ele>
        <time>2018-02-20T08:30:45.000Z</time>
      </trkpt>
      <trkpt lat="43.52705" lon="5.51674">
        <ele>304</ele>
        <time>2018-02-20T08:30:46.000Z</time>
      </trkpt>
      <trkpt lat="43.52705" lon="5.51673">
        <ele>304</ele>
        <time>2018-02-20T08:30:47.000Z</time>
      </trkpt>
      <trkpt lat="43.52705" lon="5.51671">
        <ele>304</ele>
        <time>2018-02-20T08:30:48.000Z</time>
      </trkpt>
      <trkpt lat="43.52705" lon="5.5167">
        <ele>304</ele>
        <time>2018-02-20T08:30:49.000Z</time>
      </trkpt>
      <trkpt lat="43.52705" lon="5.51669">
        <ele>304</ele>
        <time>2018-02-20T08:30:50.000Z</time>
      </trkpt>
      <trkpt lat="43.52706" lon="5.51667">
        <ele>304</ele>
        <time>2018-02-20T08:30:51.000Z</time>
      </trkpt>
      <trkpt lat="43.52706" lon="5.51665">
        <ele>303</ele>
        <time>2018-02-20T08:30:52.000Z</time>
      </trkpt>
      <trkpt lat="43.52706" lon="5.51664">
        <ele>303</ele>
        <time>2018-02-20T08:30:53.000Z</time>
      </trkpt>
      <trkpt lat="43.52707" lon="5.51662">
        <ele>303</ele>
        <time>2018-02-20T08:30:54.000Z</time>
      </trkpt>
      <trkpt lat="43.52707" lon="5.51661">
        <ele>303</ele>
        <time>2018-02-20T08:30:55.000Z</time>
      </trkpt>
      <trkpt lat="43.52708" lon="5.5166">
        <ele>304</ele>
        <time>2018-02-20T08:30:56.000Z</time>
      </trkpt>
      <trkpt lat="43.52708" lon="5.51658">
        <ele>304</ele>
        <time>2018-02-20T08:30:57.000Z</time>
      </trkpt>
      <trkpt lat="43.52709" lon="5.51656">
        <ele>304</ele>
        <time>2018-02-20T08:30:58.000Z</time>
      </trkpt>
      <trkpt lat="43.52709" lon="5.51655">
        <ele>304</ele>
        <time>2018-02-20T08:30:59.000Z</time>
      </trkpt>
      <trkpt lat="43.5271" lon="5.51653">
        <ele>304</ele>
        <time>2018-02-20T08:31:00.000Z</time>
      </trkpt>
      <trkpt lat="43.5271" lon="5.51651">
        <ele>304</ele>
        <time>2018-02-20T08:31:01.000Z</time>
      </trkpt>
      <trkpt lat="43.5271" lon="5.5165">
        <ele>304</ele>
        <time>2018-02-20T08:31:02.000Z</time>
      </trkpt>
      <trkpt lat="43.5271" lon="5.51649">
        <ele>304</ele>
        <time>2018-02-20T08:31:03.000Z</time>
      </trkpt>
      <trkpt lat="43.52711" lon="5.51647">
        <ele>304</ele>
        <time>2018-02-20T08:31:04.000Z</time>
      </trkpt>
      <trkpt lat="43.52711" lon="5.51646">
        <ele>304</ele>
        <time>2018-02-20T08:31:05.000Z</time>
      </trkpt>
      <trkpt lat="43.52711" lon="5.51644">
        <ele>304</ele>
        <time>2018-02-20T08:31:06.000Z</time>
      </trkpt>
      <trkpt lat="43.5271" lon="5.51643">
        <ele>303</ele>
        <time>2018-02-20T08:31:07.000Z</time>
      </trkpt>
      <trkpt lat="43.5271" lon="5.51641">
        <ele>303</ele>
        <time>2018-02-20T08:31:08.000Z</time>
      </trkpt>
      <trkpt lat="43.5271" lon="5.5164">
        <ele>303</ele>
        <time>2018-02-20T08:31:09.000Z</time>
      </trkpt>
      <trkpt lat="43.5271" lon="5.51638">
        <ele>303</ele>
        <time>2018-02-20T08:31:10.000Z</time>
      </trkpt>
      <trkpt lat="43.5271" lon="5.51637">
        <ele>303</ele>
        <time>2018-02-20T08:31:11.000Z</time>
      </trkpt>
      <trkpt lat="43.52711" lon="5.51635">
        <ele>303</ele>
        <time>2018-02-20T08:31:12.000Z</time>
      </trkpt>
      <trkpt lat="43.52711" lon="5.51634">
        <ele>303</ele>
        <time>2018-02-20T08:31:13.000Z</time>
      </trkpt>
      <trkpt lat="43.52711" lon="5.51632">
        <ele>303</ele>
        <time>2018-02-20T08:31:14.000Z</time>
      </trkpt>
      <trkpt lat="43.52711" lon="5.51631">
        <ele>303</ele>
        <time>2018-02-20T08:31:15.000Z</time>
      </trkpt>
      <trkpt lat="43.52711" lon="5.5163">
        <ele>303</ele>
        <time>2018-02-20T08:31:16.000Z</time>
      </trkpt>
      <trkpt lat="43.5271" lon="5.51628">
        <ele>303</ele>
        <time>2018-02-20T08:31:17.000Z</time>
      </trkpt>
      <trkpt lat="43.5271" lon="5.51627">
        <ele>303</ele>
        <time>2018-02-20T08:31:18.000Z</time>
      </trkpt>
      <trkpt lat="43.5271" lon="5.51625">
        <ele>303</ele>
        <time>2018-02-20T08:31:19.000Z</time>
      </trkpt>
      <trkpt lat="43.52711" lon="5.51624">
        <ele>303</ele>
        <time>2018-02-20T08:31:20.000Z</time>
      </trkpt>
      <trkpt lat="43.52711" lon="5.51622">
        <ele>303</ele>
        <time>2018-02-20T08:31:21.000Z</time>
      </trkpt>
      <trkpt lat="43.52711" lon="5.51621">
        <ele>303</ele>
        <time>2018-02-20T08:31:22.000Z</time>
      </trkpt>
      <trkpt lat="43.52711" lon="5.51619">
        <ele>303</ele>
        <time>2018-02-20T08:31:23.000Z</time>
      </trkpt>
      <trkpt lat="43.52711" lon="5.51618">
        <ele>303</ele>
        <time>2018-02-20T08:31:24.000Z</time>
      </trkpt>
      <trkpt lat="43.52712" lon="5.51616">
        <ele>303</ele>
        <time>2018-02-20T08:31:25.000Z</time>
      </trkpt>
      <trkpt lat="43.52712" lon="5.51615">
        <ele>303</ele>
        <time>2018-02-20T08:31:26.000Z</time>
      </trkpt>
      <trkpt lat="43.52712" lon="5.51614">
        <ele>303</ele>
        <time>2018-02-20T08:31:27.000Z</time>
      </trkpt>
      <trkpt lat="43.52712" lon="5.51612">
        <ele>303</ele>
        <time>2018-02-20T08:31:28.000Z</time>
      </trkpt>
      <trkpt lat="43.52712" lon="5.5161">
        <ele>303</ele>
        <time>2018-02-20T08:31:29.000Z</time>
      </trkpt>
      <trkpt lat="43.52712" lon="5.51609">
        <ele>302</ele>
        <time>2018-02-20T08:31:30.000Z</time>
      </trkpt>
      <trkpt lat="43.52712" lon="5.51607">
        <ele>302</ele>
        <time>2018-02-20T08:31:31.000Z</time>
      </trkpt>
      <trkpt lat="43.52712" lon="5.51605">
        <ele>302</ele>
        <time>2018-02-20T08:31:32.000Z</time>
      </trkpt>
      <trkpt lat="43.52712" lon="5.51604">
        <ele>302</ele>
        <time>2018-02-20T08:31:33.000Z</time>
      </trkpt>
      <trkpt lat="43.52712" lon="5.51602">
        <ele>302</ele>
        <time>2018-02-20T08:31:34.000Z</time>
      </trkpt>
      <trkpt lat="43.52712" lon="5.51601">
        <ele>302</ele>
        <time>2018-02-20T08:31:35.000Z</time>
      </trkpt>
      <trkpt lat="43.52711" lon="5.51599">
        <ele>302</ele>
        <time>2018-02-20T08:31:36.000Z</time>
      </trkpt>
      <trkpt lat="43.52711" lon="5.51598">
        <ele>302</ele>
        <time>2018-02-20T08:31:37.000Z</time>
      </trkpt>
      <trkpt lat="43.52711" lon="5.51596">
        <ele>302</ele>
        <time>2018-02-20T08:31:38.000Z</time>
      </trkpt>
      <trkpt lat="43.52711" lon="5.51595">
        <ele>302</ele>
        <time>2018-02-20T08:31:39.000Z</time>
      </trkpt>
      <trkpt lat="43.5271" lon="5.51594">
        <ele>302</ele>
        <time>2018-02-20T08:31:40.000Z</time>
      </trkpt>
      <trkpt lat="43.5271" lon="5.51592">
        <ele>302</ele>
        <time>2018-02-20T08:31:41.000Z</time>
      </trkpt>
      <trkpt lat="43.5271" lon="5.51591">
        <ele>302</ele>
        <time>2018-02-20T08:31:42.000Z</time>
      </trkpt>
      <trkpt lat="43.52711" lon="5.5159">
        <ele>302</ele>
        <time>2018-02-20T08:31:43.000Z</time>
      </trkpt>
      <trkpt lat="43.52711" lon="5.51588">
        <ele>302</ele>
        <time>2018-02-20T08:31:44.000Z</time>
      </trkpt>
      <trkpt lat="43.52711" lon="5.51587">
        <ele>302</ele>
        <time>2018-02-20T08:31:45.000Z</time>
      </trkpt>
      <trkpt lat="43.5271" lon="5.51586">
        <ele>302</ele>
        <time>2018-02-20T08:31:46.000Z</time>
      </trkpt>
      <trkpt lat="43.5271" lon="5.51584">
        <ele>302</ele>
        <time>2018-02-20T08:31:47.000Z</time>
      </trkpt>
      <trkpt lat="43.5271" lon="5.51583">
        <ele>302</ele>
        <time>2018-02-20T08:31:48.000Z</time>
      </trkpt>
      <trkpt lat="43.52709" lon="5.51581">
        <ele>302</ele>
        <time>2018-02-20T08:31:49.000Z</time>
      </trkpt>
      <trkpt lat="43.52709" lon="5.5158">
        <ele>301</ele>
        <time>2018-02-20T08:31:50.000Z</time>
      </trkpt>
      <trkpt lat="43.52709" lon="5.51578">
        <ele>301</ele>
        <time>2018-02-20T08:31:51.000Z</time>
      </trkpt>
      <trkpt lat="43.52709" lon="5.51577">
        <ele>301</ele>
        <time>2018-02-20T08:31:52.000Z</time>
      </trkpt>
      <trkpt lat="43.52709" lon="5.51576">
        <ele>301</ele>
        <time>2018-02-20T08:31:53.000Z</time>
      </trkpt>
      <trkpt lat="43.52709" lon="5.51575">
        <ele>301</ele>
        <time>2018-02-20T08:31:54.000Z</time>
      </trkpt>
      <trkpt lat="43.52709" lon="5.51574">
        <ele>301</ele>
        <time>2018-02-20T08:31:55.000Z</time>
      </trkpt>
      <trkpt lat="43.52709" lon="5.51573">
        <ele>301</ele>
        <time>2018-02-20T08:31:56.000Z</time>
      </trkpt>
      <trkpt lat="43.52709" lon="5.51571">
        <ele>301</ele>
        <time>2018-02-20T08:31:57.000Z</time>
      </trkpt>
      <trkpt lat="43.52708" lon="5.5157">
        <ele>301</ele>
        <time>2018-02-20T08:31:58.000Z</time>
      </trkpt>
      <trkpt lat="43.52708" lon="5.51568">
        <ele>301</ele>
        <time>2018-02-20T08:31:59.000Z</time>
      </trkpt>
      <trkpt lat="43.52708" lon="5.51566">
        <ele>301</ele>
        <time>2018-02-20T08:32:00.000Z</time>
      </trkpt>
      <trkpt lat="43.52709" lon="5.51565">
        <ele>301</ele>
        <time>2018-02-20T08:32:01.000Z</time>
      </trkpt>
      <trkpt lat="43.52709" lon="5.51563">
        <ele>301</ele>
        <time>2018-02-20T08:32:02.000Z</time>
      </trkpt>
      <trkpt lat="43.52709" lon="5.51562">
        <ele>301</ele>
        <time>2018-02-20T08:32:03.000Z</time>
      </trkpt>
      <trkpt lat="43.52708" lon="5.5156">
        <ele>301</ele>
        <time>2018-02-20T08:32:04.000Z</time>
      </trkpt>
      <trkpt lat="43.52708" lon="5.51559">
        <ele>301</ele>
        <time>2018-02-20T08:32:05.000Z</time>
      </trkpt>
      <trkpt lat="43.52708" lon="5.51557">
        <ele>301</ele>
        <time>2018-02-20T08:32:06.000Z</time>
      </trkpt>
      <trkpt lat="43.52708" lon="5.51556">
        <ele>301</ele>
        <time>2018-02-20T08:32:07.000Z</time>
      </trkpt>
      <trkpt lat="43.52708" lon="5.51554">
        <ele>301</ele>
        <time>2018-02-20T08:32:08.000Z</time>
      </trkpt>
      <trkpt lat="43.52708" lon="5.51552">
        <ele>301</ele>
        <time>2018-02-20T08:32:09.000Z</time>
      </trkpt>
      <trkpt lat="43.52708" lon="5.51551">
        <ele>301</ele>
        <time>2018-02-20T08:32:10.000Z</time>
      </trkpt>
      <trkpt lat="43.52708" lon="5.51549">
        <ele>301</ele>
        <time>2018-02-20T08:32:11.000Z</time>
      </trkpt>
      <trkpt lat="43.52708" lon="5.51548">
        <ele>301</ele>
        <time>2018-02-20T08:32:12.000Z</time>
      </trkpt>
      <trkpt lat="43.52708" lon="5.51547">
        <ele>301</ele>
        <time>2018-02-20T08:32:13.000Z</time>
      </trkpt>
      <trkpt lat="43.52708" lon="5.51545">
        <ele>301</ele>
        <time>2018-02-20T08:32:14.000Z</time>
      </trkpt>
      <trkpt lat="43.52708" lon="5.51544">
        <ele>301</ele>
        <time>2018-02-20T08:32:15.000Z</time>
      </trkpt>
      <trkpt lat="43.52708" lon="5.51543">
        <ele>301</ele>
        <time>2018-02-20T08:32:16.000Z</time>
      </trkpt>
      <trkpt lat="43.52708" lon="5.51541">
        <ele>301</ele>
        <time>2018-02-20T08:32:17.000Z</time>
      </trkpt>
      <trkpt lat="43.52708" lon="5.5154">
        <ele>301</ele>
        <time>2018-02-20T08:32:18.000Z</time>
      </trkpt>
      <trkpt lat="43.52708" lon="5.51539">
        <ele>301</ele>
        <time>2018-02-20T08:32:19.000Z</time>
      </trkpt>
      <trkpt lat="43.52707" lon="5.51538">
        <ele>301</ele>
        <time>2018-02-20T08:32:20.000Z</time>
      </trkpt>
      <trkpt lat="43.52707" lon="5.51537">
        <ele>301</ele>
        <time>2018-02-20T08:32:21.000Z</time>
      </trkpt>
      <trkpt lat="43.52707" lon="5.51536">
        <ele>301</ele>
        <time>2018-02-20T08:32:22.000Z</time>
      </trkpt>
      <trkpt lat="43.52707" lon="5.51535">
        <ele>301</ele>
        <time>2018-02-20T08:32:23.000Z</time>
      </trkpt>
      <trkpt lat="43.52708" lon="5.51534">
        <ele>301</ele>
        <time>2018-02-20T08:32:24.000Z</time>
      </trkpt>
      <trkpt lat="43.52708" lon="5.51533">
        <ele>301</ele>
        <time>2018-02-20T08:32:25.000Z</time>
      </trkpt>
      <trkpt lat="43.52708" lon="5.51532">
        <ele>301</ele>
        <time>2018-02-20T08:32:26.000Z</time>
      </trkpt>
      <trkpt lat="43.52709" lon="5.51531">
        <ele>301</ele>
        <time>2018-02-20T08:32:27.000Z</time>
      </trkpt>
      <trkpt lat="43.52709" lon="5.5153">
        <ele>301</ele>
        <time>2018-02-20T08:32:28.000Z</time>
      </trkpt>
      <trkpt lat="43.52709" lon="5.51529">
        <ele>301</ele>
        <time>2018-02-20T08:32:29.000Z</time>
      </trkpt>
      <trkpt lat="43.52709" lon="5.51528">
        <ele>301</ele>
        <time>2018-02-20T08:32:30.000Z</time>
      </trkpt>
      <trkpt lat="43.52709" lon="5.51527">
        <ele>301</ele>
        <time>2018-02-20T08:32:31.000Z</time>
      </trkpt>
      <trkpt lat="43.52709" lon="5.51526">
        <ele>301</ele>
        <time>2018-02-20T08:32:32.000Z</time>
      </trkpt>
      <trkpt lat="43.52709" lon="5.51525">
        <ele>301</ele>
        <time>2018-02-20T08:32:33.000Z</time>
      </trkpt>
      <trkpt lat="43.5271" lon="5.51523">
        <ele>300</ele>
        <time>2018-02-20T08:32:34.000Z</time>
      </trkpt>
      <trkpt lat="43.5271" lon="5.51522">
        <ele>300</ele>
        <time>2018-02-20T08:32:35.000Z</time>
      </trkpt>
      <trkpt lat="43.5271" lon="5.51522">
        <ele>300</ele>
        <time>2018-02-20T08:32:36.000Z</time>
      </trkpt>
      <trkpt lat="43.52711" lon="5.51521">
        <ele>300</ele>
        <time>2018-02-20T08:32:37.000Z</time>
      </trkpt>
      <trkpt lat="43.52711" lon="5.5152">
        <ele>300</ele>
        <time>2018-02-20T08:32:38.000Z</time>
      </trkpt>
      <trkpt lat="43.52711" lon="5.51519">
        <ele>300</ele>
        <time>2018-02-20T08:32:39.000Z</time>
      </trkpt>
      <trkpt lat="43.52712" lon="5.51519">
        <ele>300</ele>
        <time>2018-02-20T08:32:40.000Z</time>
      </trkpt>
      <trkpt lat="43.52712" lon="5.51518">
        <ele>300</ele>
        <time>2018-02-20T08:32:41.000Z</time>
      </trkpt>
      <trkpt lat="43.52712" lon="5.51517">
        <ele>300</ele>
        <time>2018-02-20T08:32:42.000Z</time>
      </trkpt>
      <trkpt lat="43.52712" lon="5.51516">
        <ele>300</ele>
        <time>2018-02-20T08:32:43.000Z</time>
      </trkpt>
      <trkpt lat="43.52712" lon="5.51516">
        <ele>300</ele>
        <time>2018-02-20T08:32:44.000Z</time>
      </trkpt>
      <trkpt lat="43.52712" lon="5.51515">
        <ele>300</ele>
        <time>2018-02-20T08:32:45.000Z</time>
      </trkpt>
      <trkpt lat="43.52711" lon="5.51515">
        <ele>300</ele>
        <time>2018-02-20T08:32:46.000Z</time>
      </trkpt>
      <trkpt lat="43.52711" lon="5.51514">
        <ele>300</ele>
        <time>2018-02-20T08:32:47.000Z</time>
      </trkpt>
      <trkpt lat="43.52711" lon="5.51512">
        <ele>300</ele>
        <time>2018-02-20T08:32:48.000Z</time>
      </trkpt>
      <trkpt lat="43.52712" lon="5.51511">
        <ele>300</ele>
        <time>2018-02-20T08:32:49.000Z</time>
      </trkpt>
      <trkpt lat="43.52713" lon="5.5151">
        <ele>300</ele>
        <time>2018-02-20T08:32:50.000Z</time>
      </trkpt>
      <trkpt lat="43.52713" lon="5.5151">
        <ele>300</ele>
        <time>2018-02-20T08:32:51.000Z</time>
      </trkpt>
      <trkpt lat="43.52714" lon="5.51509">
        <ele>299</ele>
        <time>2018-02-20T08:32:52.000Z</time>
      </trkpt>
      <trkpt lat="43.52714" lon="5.51508">
        <ele>299</ele>
        <time>2018-02-20T08:32:53.000Z</time>
      </trkpt>
      <trkpt lat="43.52714" lon="5.51507">
        <ele>299</ele>
        <time>2018-02-20T08:32:54.000Z</time>
      </trkpt>
      <trkpt lat="43.52714" lon="5.51506">
        <ele>299</ele>
        <time>2018-02-20T08:32:55.000Z</time>
      </trkpt>
      <trkpt lat="43.52715" lon="5.51505">
        <ele>299</ele>
        <time>2018-02-20T08:32:56.000Z</time>
      </trkpt>
      <trkpt lat="43.52715" lon="5.51504">
        <ele>299</ele>
        <time>2018-02-20T08:32:57.000Z</time>
      </trkpt>
      <trkpt lat="43.52715" lon="5.51503">
        <ele>299</ele>
        <time>2018-02-20T08:32:58.000Z</time>
      </trkpt>
      <trkpt lat="43.52716" lon="5.51503">
        <ele>299</ele>
        <time>2018-02-20T08:32:59.000Z</time>
      </trkpt>
      <trkpt lat="43.52716" lon="5.51502">
        <ele>299</ele>
        <time>2018-02-20T08:33:00.000Z</time>
      </trkpt>
      <trkpt lat="43.52716" lon="5.51501">
        <ele>299</ele>
        <time>2018-02-20T08:33:01.000Z</time>
      </trkpt>
      <trkpt lat="43.52716" lon="5.515">
        <ele>299</ele>
        <time>2018-02-20T08:33:02.000Z</time>
      </trkpt>
      <trkpt lat="43.52717" lon="5.515">
        <ele>299</ele>
        <time>2018-02-20T08:33:03.000Z</time>
      </trkpt>
      <trkpt lat="43.52718" lon="5.51499">
        <ele>299</ele>
        <time>2018-02-20T08:33:04.000Z</time>
      </trkpt>
      <trkpt lat="43.52718" lon="5.51498">
        <ele>299</ele>
        <time>2018-02-20T08:33:05.000Z</time>
      </trkpt>
      <trkpt lat="43.52719" lon="5.51497">
        <ele>299</ele>
        <time>2018-02-20T08:33:06.000Z</time>
      </trkpt>
      <trkpt lat="43.5272" lon="5.51497">
        <ele>299</ele>
        <time>2018-02-20T08:33:07.000Z</time>
      </trkpt>
      <trkpt lat="43.5272" lon="5.51496">
        <ele>299</ele>
        <time>2018-02-20T08:33:08.000Z</time>
      </trkpt>
      <trkpt lat="43.52721" lon="5.51495">
        <ele>300</ele>
        <time>2018-02-20T08:33:09.000Z</time>
      </trkpt>
      <trkpt lat="43.52722" lon="5.51495">
        <ele>300</ele>
        <time>2018-02-20T08:33:10.000Z</time>
      </trkpt>
      <trkpt lat="43.52722" lon="5.51494">
        <ele>300</ele>
        <time>2018-02-20T08:33:11.000Z</time>
      </trkpt>
      <trkpt lat="43.52723" lon="5.51493">
        <ele>300</ele>
        <time>2018-02-20T08:33:12.000Z</time>
      </trkpt>
      <trkpt lat="43.52724" lon="5.51493">
        <ele>300</ele>
        <time>2018-02-20T08:33:13.000Z</time>
      </trkpt>
      <trkpt lat="43.52724" lon="5.51492">
        <ele>300</ele>
        <time>2018-02-20T08:33:14.000Z</time>
      </trkpt>
      <trkpt lat="43.52725" lon="5.51492">
        <ele>300</ele>
        <time>2018-02-20T08:33:15.000Z</time>
      </trkpt>
      <trkpt lat="43.52726" lon="5.51491">
        <ele>300</ele>
        <time>2018-02-20T08:33:16.000Z</time>
      </trkpt>
      <trkpt lat="43.52727" lon="5.5149">
        <ele>300</ele>
        <time>2018-02-20T08:33:17.000Z</time>
      </trkpt>
      <trkpt lat="43.52727" lon="5.5149">
        <ele>300</ele>
        <time>2018-02-20T08:33:18.000Z</time>
      </trkpt>
      <trkpt lat="43.52728" lon="5.51488">
        <ele>300</ele>
        <time>2018-02-20T08:33:19.000Z</time>
      </trkpt>
      <trkpt lat="43.52728" lon="5.51487">
        <ele>300</ele>
        <time>2018-02-20T08:33:20.000Z</time>
      </trkpt>
      <trkpt lat="43.52729" lon="5.51486">
        <ele>300</ele>
        <time>2018-02-20T08:33:21.000Z</time>
      </trkpt>
      <trkpt lat="43.5273" lon="5.51485">
        <ele>300</ele>
        <time>2018-02-20T08:33:22.000Z</time>
      </trkpt>
      <trkpt lat="43.52731" lon="5.51483">
        <ele>300</ele>
        <time>2018-02-20T08:33:23.000Z</time>
      </trkpt>
      <trkpt lat="43.52731" lon="5.51482">
        <ele>300</ele>
        <time>2018-02-20T08:33:24.000Z</time>
      </trkpt>
      <trkpt lat="43.52732" lon="5.51481">
        <ele>300</ele>
        <time>2018-02-20T08:33:25.000Z</time>
      </trkpt>
      <trkpt lat="43.52733" lon="5.5148">
        <ele>300</ele>
        <time>2018-02-20T08:33:26.000Z</time>
      </trkpt>
      <trkpt lat="43.52734" lon="5.51479">
        <ele>300</ele>
        <time>2018-02-20T08:33:27.000Z</time>
      </trkpt>
      <trkpt lat="43.52735" lon="5.51478">
        <ele>300</ele>
        <time>2018-02-20T08:33:28.000Z</time>
      </trkpt>
      <trkpt lat="43.52736" lon="5.51478">
        <ele>299</ele>
        <time>2018-02-20T08:33:29.000Z</time>
      </trkpt>
      <trkpt lat="43.52737" lon="5.51477">
        <ele>299</ele>
        <time>2018-02-20T08:33:30.000Z</time>
      </trkpt>
      <trkpt lat="43.52737" lon="5.51476">
        <ele>299</ele>
        <time>2018-02-20T08:33:31.000Z</time>
      </trkpt>
      <trkpt lat="43.52738" lon="5.51475">
        <ele>299</ele>
        <time>2018-02-20T08:33:32.000Z</time>
      </trkpt>
      <trkpt lat="43.52739" lon="5.51474">
        <ele>299</ele>
        <time>2018-02-20T08:33:33.000Z</time>
      </trkpt>
      <trkpt lat="43.5274" lon="5.51473">
        <ele>298</ele>
        <time>2018-02-20T08:33:34.000Z</time>
      </trkpt>
      <trkpt lat="43.5274" lon="5.51473">
        <ele>298</ele>
        <time>2018-02-20T08:33:35.000Z</time>
      </trkpt>
      <trkpt lat="43.52741" lon="5.51472">
        <ele>298</ele>
        <time>2018-02-20T08:33:36.000Z</time>
      </trkpt>
      <trkpt lat="43.52742" lon="5.51471">
        <ele>298</ele>
        <time>2018-02-20T08:33:37.000Z</time>
      </trkpt>
      <trkpt lat="43.52743" lon="5.5147">
        <ele>298</ele>
        <time>2018-02-20T08:33:38.000Z</time>
      </trkpt>
      <trkpt lat="43.52744" lon="5.51469">
        <ele>298</ele>
        <time>2018-02-20T08:33:39.000Z</time>
      </trkpt>
      <trkpt lat="43.52744" lon="5.51469">
        <ele>298</ele>
        <time>2018-02-20T08:33:40.000Z</time>
      </trkpt>
      <trkpt lat="43.52745" lon="5.51468">
        <ele>298</ele>
        <time>2018-02-20T08:33:41.000Z</time>
      </trkpt>
      <trkpt lat="43.52746" lon="5.51467">
        <ele>298</ele>
        <time>2018-02-20T08:33:42.000Z</time>
      </trkpt>
      <trkpt lat="43.52747" lon="5.51466">
        <ele>298</ele>
        <time>2018-02-20T08:33:43.000Z</time>
      </trkpt>
      <trkpt lat="43.52747" lon="5.51466">
        <ele>298</ele>
        <time>2018-02-20T08:33:44.000Z</time>
      </trkpt>
      <trkpt lat="43.52748" lon="5.51465">
        <ele>298</ele>
        <time>2018-02-20T08:33:45.000Z</time>
      </trkpt>
      <trkpt lat="43.52748" lon="5.51464">
        <ele>298</ele>
        <time>2018-02-20T08:33:46.000Z</time>
      </trkpt>
      <trkpt lat="43.52749" lon="5.51464">
        <ele>298</ele>
        <time>2018-02-20T08:33:47.000Z</time>
      </trkpt>
      <trkpt lat="43.5275" lon="5.51463">
        <ele>298</ele>
        <time>2018-02-20T08:33:48.000Z</time>
      </trkpt>
      <trkpt lat="43.52751" lon="5.51462">
        <ele>298</ele>
        <time>2018-02-20T08:33:49.000Z</time>
      </trkpt>
      <trkpt lat="43.52752" lon="5.51461">
        <ele>298</ele>
        <time>2018-02-20T08:33:50.000Z</time>
      </trkpt>
      <trkpt lat="43.52753" lon="5.5146">
        <ele>298</ele>
        <time>2018-02-20T08:33:51.000Z</time>
      </trkpt>
      <trkpt lat="43.52755" lon="5.51459">
        <ele>298</ele>
        <time>2018-02-20T08:33:52.000Z</time>
      </trkpt>
      <trkpt lat="43.52756" lon="5.51458">
        <ele>298</ele>
        <time>2018-02-20T08:33:53.000Z</time>
      </trkpt>
      <trkpt lat="43.52757" lon="5.51457">
        <ele>298</ele>
        <time>2018-02-20T08:33:54.000Z</time>
      </trkpt>
      <trkpt lat="43.52758" lon="5.51455">
        <ele>298</ele>
        <time>2018-02-20T08:33:55.000Z</time>
      </trkpt>
      <trkpt lat="43.52758" lon="5.51454">
        <ele>297</ele>
        <time>2018-02-20T08:33:56.000Z</time>
      </trkpt>
      <trkpt lat="43.52758" lon="5.51452">
        <ele>297</ele>
        <time>2018-02-20T08:33:57.000Z</time>
      </trkpt>
      <trkpt lat="43.52759" lon="5.51451">
        <ele>297</ele>
        <time>2018-02-20T08:33:58.000Z</time>
      </trkpt>
      <trkpt lat="43.52759" lon="5.5145">
        <ele>298</ele>
        <time>2018-02-20T08:33:59.000Z</time>
      </trkpt>
      <trkpt lat="43.5276" lon="5.51449">
        <ele>298</ele>
        <time>2018-02-20T08:34:00.000Z</time>
      </trkpt>
      <trkpt lat="43.5276" lon="5.51448">
        <ele>298</ele>
        <time>2018-02-20T08:34:01.000Z</time>
      </trkpt>
      <trkpt lat="43.52761" lon="5.51446">
        <ele>298</ele>
        <time>2018-02-20T08:34:02.000Z</time>
      </trkpt>
      <trkpt lat="43.52761" lon="5.51446">
        <ele>298</ele>
        <time>2018-02-20T08:34:03.000Z</time>
      </trkpt>
      <trkpt lat="43.52761" lon="5.51445">
        <ele>298</ele>
        <time>2018-02-20T08:34:04.000Z</time>
      </trkpt>
      <trkpt lat="43.52761" lon="5.51445">
        <ele>298</ele>
        <time>2018-02-20T08:34:05.000Z</time>
      </trkpt>
      <trkpt lat="43.52761" lon="5.51445">
        <ele>298</ele>
        <time>2018-02-20T08:34:06.000Z</time>
      </trkpt>
      <trkpt lat="43.52761" lon="5.51445">
        <ele>297</ele>
        <time>2018-02-20T08:34:07.000Z</time>
      </trkpt>
      <trkpt lat="43.52761" lon="5.51445">
        <ele>297</ele>
        <time>2018-02-20T08:34:08.000Z</time>
      </trkpt>
      <trkpt lat="43.52762" lon="5.51445">
        <ele>297</ele>
        <time>2018-02-20T08:34:09.000Z</time>
      </trkpt>
      <trkpt lat="43.52762" lon="5.51445">
        <ele>297</ele>
        <time>2018-02-20T08:34:10.000Z</time>
      </trkpt>
      <trkpt lat="43.52762" lon="5.51445">
        <ele>297</ele>
        <time>2018-02-20T08:34:11.000Z</time>
      </trkpt>
      <trkpt lat="43.52762" lon="5.51444">
        <ele>297</ele>
        <time>2018-02-20T08:34:12.000Z</time>
      </trkpt>
      <trkpt lat="43.52762" lon="5.51443">
        <ele>297</ele>
        <time>2018-02-20T08:34:13.000Z</time>
      </trkpt>
      <trkpt lat="43.52762" lon="5.51442">
        <ele>297</ele>
        <time>2018-02-20T08:34:14.000Z</time>
      </trkpt>
      <trkpt lat="43.52763" lon="5.51441">
        <ele>297</ele>
        <time>2018-02-20T08:34:15.000Z</time>
      </trkpt>
      <trkpt lat="43.52763" lon="5.51441">
        <ele>297</ele>
        <time>2018-02-20T08:34:16.000Z</time>
      </trkpt>
      <trkpt lat="43.52763" lon="5.51441">
        <ele>297</ele>
        <time>2018-02-20T08:34:17.000Z</time>
      </trkpt>
      <trkpt lat="43.52763" lon="5.51441">
        <ele>297</ele>
        <time>2018-02-20T08:34:18.000Z</time>
      </trkpt>
      <trkpt lat="43.52763" lon="5.5144">
        <ele>297</ele>
        <time>2018-02-20T08:34:19.000Z</time>
      </trkpt>
      <trkpt lat="43.52763" lon="5.5144">
        <ele>297</ele>
        <time>2018-02-20T08:34:20.000Z</time>
      </trkpt>
      <trkpt lat="43.52763" lon="5.5144">
        <ele>297</ele>
        <time>2018-02-20T08:34:21.000Z</time>
      </trkpt>
      <trkpt lat="43.52763" lon="5.5144">
        <ele>297</ele>
        <time>2018-02-20T08:34:22.000Z</time>
      </trkpt>
      <trkpt lat="43.52763" lon="5.5144">
        <ele>297</ele>
        <time>2018-02-20T08:34:23.000Z</time>
      </trkpt>
      <trkpt lat="43.52763" lon="5.5144">
        <ele>297</ele>
        <time>2018-02-20T08:34:24.000Z</time>
      </trkpt>
      <trkpt lat="43.52763" lon="5.5144">
        <ele>297</ele>
        <time>2018-02-20T08:34:25.000Z</time>
      </trkpt>
      <trkpt lat="43.52764" lon="5.5144">
        <ele>297</ele>
        <time>2018-02-20T08:34:26.000Z</time>
      </trkpt>
      <trkpt lat="43.52764" lon="5.5144">
        <ele>297</ele>
        <time>2018-02-20T08:34:27.000Z</time>
      </trkpt>
      <trkpt lat="43.52764" lon="5.5144">
        <ele>297</ele>
        <time>2018-02-20T08:34:28.000Z</time>
      </trkpt>
      <trkpt lat="43.52764" lon="5.5144">
        <ele>297</ele>
        <time>2018-02-20T08:34:29.000Z</time>
      </trkpt>
      <trkpt lat="43.52764" lon="5.5144">
        <ele>297</ele>
        <time>2018-02-20T08:34:30.000Z</time>
      </trkpt>
      <trkpt lat="43.52764" lon="5.5144">
        <ele>297</ele>
        <time>2018-02-20T08:34:31.000Z</time>
      </trkpt>
      <trkpt lat="43.52764" lon="5.5144">
        <ele>297</ele>
        <time>2018-02-20T08:34:32.000Z</time>
      </trkpt>
      <trkpt lat="43.52764" lon="5.5144">
        <ele>297</ele>
        <time>2018-02-20T08:34:33.000Z</time>
      </trkpt>
      <trkpt lat="43.52764" lon="5.5144">
        <ele>297</ele>
        <time>2018-02-20T08:34:34.000Z</time>
      </trkpt>
      <trkpt lat="43.52764" lon="5.5144">
        <ele>297</ele>
        <time>2018-02-20T08:34:35.000Z</time>
      </trkpt>
      <trkpt lat="43.52764" lon="5.5144">
        <ele>297</ele>
        <time>2018-02-20T08:34:36.000Z</time>
      </trkpt>
      <trkpt lat="43.52764" lon="5.5144">
        <ele>297</ele>
        <time>2018-02-20T08:34:37.000Z</time>
      </trkpt>
      <trkpt lat="43.52764" lon="5.5144">
        <ele>297</ele>
        <time>2018-02-20T08:34:38.000Z</time>
      </trkpt>
      <trkpt lat="43.52764" lon="5.5144">
        <ele>297</ele>
        <time>2018-02-20T08:34:39.000Z</time>
      </trkpt>
      <trkpt lat="43.52764" lon="5.5144">
        <ele>297</ele>
        <time>2018-02-20T08:34:40.000Z</time>
      </trkpt>
      <trkpt lat="43.52764" lon="5.5144">
        <ele>297</ele>
        <time>2018-02-20T08:34:41.000Z</time>
      </trkpt>
      <trkpt lat="43.52764" lon="5.5144">
        <ele>297</ele>
        <time>2018-02-20T08:34:42.000Z</time>
      </trkpt>
      <trkpt lat="43.52764" lon="5.5144">
        <ele>297</ele>
        <time>2018-02-20T08:34:43.000Z</time>
      </trkpt>
      <trkpt lat="43.52764" lon="5.5144">
        <ele>297</ele>
        <time>2018-02-20T08:34:44.000Z</time>
      </trkpt>
      <trkpt lat="43.52764" lon="5.5144">
        <ele>297</ele>
        <time>2018-02-20T08:34:45.000Z</time>
      </trkpt>
      <trkpt lat="43.52764" lon="5.5144">
        <ele>297</ele>
        <time>2018-02-20T08:34:46.000Z</time>
      </trkpt>
      <trkpt lat="43.52764" lon="5.5144">
        <ele>297</ele>
        <time>2018-02-20T08:34:47.000Z</time>
      </trkpt>
      <trkpt lat="43.52764" lon="5.5144">
        <ele>297</ele>
        <time>2018-02-20T08:34:48.000Z</time>
      </trkpt>
      <trkpt lat="43.52764" lon="5.51439">
        <ele>297</ele>
        <time>2018-02-20T08:34:49.000Z</time>
      </trkpt>
      <trkpt lat="43.52764" lon="5.51438">
        <ele>297</ele>
        <time>2018-02-20T08:34:50.000Z</time>
      </trkpt>
      <trkpt lat="43.52764" lon="5.51436">
        <ele>297</ele>
        <time>2018-02-20T08:34:51.000Z</time>
      </trkpt>
      <trkpt lat="43.52764" lon="5.51435">
        <ele>297</ele>
        <time>2018-02-20T08:34:52.000Z</time>
      </trkpt>
      <trkpt lat="43.52765" lon="5.51433">
        <ele>297</ele>
        <time>2018-02-20T08:34:53.000Z</time>
      </trkpt>
      <trkpt lat="43.52765" lon="5.51432">
        <ele>297</ele>
        <time>2018-02-20T08:34:54.000Z</time>
      </trkpt>
      <trkpt lat="43.52765" lon="5.51431">
        <ele>297</ele>
        <time>2018-02-20T08:34:55.000Z</time>
      </trkpt>
      <trkpt lat="43.52765" lon="5.51429">
        <ele>297</ele>
        <time>2018-02-20T08:34:56.000Z</time>
      </trkpt>
      <trkpt lat="43.52765" lon="5.51428">
        <ele>298</ele>
        <time>2018-02-20T08:34:57.000Z</time>
      </trkpt>
      <trkpt lat="43.52766" lon="5.51426">
        <ele>298</ele>
        <time>2018-02-20T08:34:58.000Z</time>
      </trkpt>
      <trkpt lat="43.52766" lon="5.51425">
        <ele>298</ele>
        <time>2018-02-20T08:34:59.000Z</time>
      </trkpt>
      <trkpt lat="43.52765" lon="5.51423">
        <ele>298</ele>
        <time>2018-02-20T08:35:00.000Z</time>
      </trkpt>
      <trkpt lat="43.52765" lon="5.51422">
        <ele>299</ele>
        <time>2018-02-20T08:35:01.000Z</time>
      </trkpt>
      <trkpt lat="43.52765" lon="5.5142">
        <ele>299</ele>
        <time>2018-02-20T08:35:02.000Z</time>
      </trkpt>
      <trkpt lat="43.52766" lon="5.51419">
        <ele>299</ele>
        <time>2018-02-20T08:35:03.000Z</time>
      </trkpt>
      <trkpt lat="43.52766" lon="5.51417">
        <ele>299</ele>
        <time>2018-02-20T08:35:04.000Z</time>
      </trkpt>
      <trkpt lat="43.52766" lon="5.51416">
        <ele>300</ele>
        <time>2018-02-20T08:35:05.000Z</time>
      </trkpt>
      <trkpt lat="43.52765" lon="5.51414">
        <ele>300</ele>
        <time>2018-02-20T08:35:06.000Z</time>
      </trkpt>
      <trkpt lat="43.52765" lon="5.51413">
        <ele>300</ele>
        <time>2018-02-20T08:35:07.000Z</time>
      </trkpt>
      <trkpt lat="43.52764" lon="5.51412">
        <ele>300</ele>
        <time>2018-02-20T08:35:08.000Z</time>
      </trkpt>
      <trkpt lat="43.52764" lon="5.51411">
        <ele>300</ele>
        <time>2018-02-20T08:35:09.000Z</time>
      </trkpt>
      <trkpt lat="43.52763" lon="5.51409">
        <ele>300</ele>
        <time>2018-02-20T08:35:10.000Z</time>
      </trkpt>
      <trkpt lat="43.52763" lon="5.51408">
        <ele>301</ele>
        <time>2018-02-20T08:35:11.000Z</time>
      </trkpt>
      <trkpt lat="43.52762" lon="5.51407">
        <ele>301</ele>
        <time>2018-02-20T08:35:12.000Z</time>
      </trkpt>
      <trkpt lat="43.52762" lon="5.51405">
        <ele>301</ele>
        <time>2018-02-20T08:35:13.000Z</time>
      </trkpt>
      <trkpt lat="43.52761" lon="5.51404">
        <ele>301</ele>
        <time>2018-02-20T08:35:14.000Z</time>
      </trkpt>
      <trkpt lat="43.52761" lon="5.51402">
        <ele>301</ele>
        <time>2018-02-20T08:35:15.000Z</time>
      </trkpt>
      <trkpt lat="43.5276" lon="5.51401">
        <ele>302</ele>
        <time>2018-02-20T08:35:16.000Z</time>
      </trkpt>
      <trkpt lat="43.5276" lon="5.514">
        <ele>302</ele>
        <time>2018-02-20T08:35:17.000Z</time>
      </trkpt>
      <trkpt lat="43.52759" lon="5.51398">
        <ele>302</ele>
        <time>2018-02-20T08:35:18.000Z</time>
      </trkpt>
      <trkpt lat="43.52759" lon="5.51397">
        <ele>302</ele>
        <time>2018-02-20T08:35:19.000Z</time>
      </trkpt>
      <trkpt lat="43.52759" lon="5.51396">
        <ele>302</ele>
        <time>2018-02-20T08:35:20.000Z</time>
      </trkpt>
      <trkpt lat="43.52758" lon="5.51395">
        <ele>302</ele>
        <time>2018-02-20T08:35:21.000Z</time>
      </trkpt>
      <trkpt lat="43.52758" lon="5.51394">
        <ele>302</ele>
        <time>2018-02-20T08:35:22.000Z</time>
      </trkpt>
      <trkpt lat="43.52757" lon="5.51393">
        <ele>302</ele>
        <time>2018-02-20T08:35:23.000Z</time>
      </trkpt>
      <trkpt lat="43.52756" lon="5.51392">
        <ele>302</ele>
        <time>2018-02-20T08:35:24.000Z</time>
      </trkpt>
      <trkpt lat="43.52756" lon="5.5139">
        <ele>302</ele>
        <time>2018-02-20T08:35:25.000Z</time>
      </trkpt>
      <trkpt lat="43.52755" lon="5.51389">
        <ele>302</ele>
        <time>2018-02-20T08:35:26.000Z</time>
      </trkpt>
      <trkpt lat="43.52754" lon="5.51388">
        <ele>302</ele>
        <time>2018-02-20T08:35:27.000Z</time>
      </trkpt>
      <trkpt lat="43.52754" lon="5.51387">
        <ele>302</ele>
        <time>2018-02-20T08:35:28.000Z</time>
      </trkpt>
      <trkpt lat="43.52753" lon="5.51385">
        <ele>302</ele>
        <time>2018-02-20T08:35:29.000Z</time>
      </trkpt>
      <trkpt lat="43.52752" lon="5.51384">
        <ele>302</ele>
        <time>2018-02-20T08:35:30.000Z</time>
      </trkpt>
      <trkpt lat="43.52752" lon="5.51384">
        <ele>302</ele>
        <time>2018-02-20T08:35:31.000Z</time>
      </trkpt>
      <trkpt lat="43.52751" lon="5.51383">
        <ele>302</ele>
        <time>2018-02-20T08:35:32.000Z</time>
      </trkpt>
      <trkpt lat="43.5275" lon="5.51382">
        <ele>302</ele>
        <time>2018-02-20T08:35:33.000Z</time>
      </trkpt>
      <trkpt lat="43.52749" lon="5.51381">
        <ele>302</ele>
        <time>2018-02-20T08:35:34.000Z</time>
      </trkpt>
      <trkpt lat="43.52749" lon="5.5138">
        <ele>302</ele>
        <time>2018-02-20T08:35:35.000Z</time>
      </trkpt>
      <trkpt lat="43.52748" lon="5.51379">
        <ele>302</ele>
        <time>2018-02-20T08:35:36.000Z</time>
      </trkpt>
      <trkpt lat="43.52747" lon="5.51378">
        <ele>302</ele>
        <time>2018-02-20T08:35:37.000Z</time>
      </trkpt>
      <trkpt lat="43.52747" lon="5.51377">
        <ele>302</ele>
        <time>2018-02-20T08:35:38.000Z</time>
      </trkpt>
      <trkpt lat="43.52747" lon="5.51376">
        <ele>302</ele>
        <time>2018-02-20T08:35:39.000Z</time>
      </trkpt>
      <trkpt lat="43.52746" lon="5.51374">
        <ele>302</ele>
        <time>2018-02-20T08:35:40.000Z</time>
      </trkpt>
      <trkpt lat="43.52746" lon="5.51373">
        <ele>302</ele>
        <time>2018-02-20T08:35:41.000Z</time>
      </trkpt>
      <trkpt lat="43.52746" lon="5.51372">
        <ele>302</ele>
        <time>2018-02-20T08:35:42.000Z</time>
      </trkpt>
      <trkpt lat="43.52747" lon="5.51371">
        <ele>302</ele>
        <time>2018-02-20T08:35:43.000Z</time>
      </trkpt>
      <trkpt lat="43.52747" lon="5.5137">
        <ele>302</ele>
        <time>2018-02-20T08:35:44.000Z</time>
      </trkpt>
      <trkpt lat="43.52747" lon="5.51369">
        <ele>302</ele>
        <time>2018-02-20T08:35:45.000Z</time>
      </trkpt>
      <trkpt lat="43.52747" lon="5.51367">
        <ele>302</ele>
        <time>2018-02-20T08:35:46.000Z</time>
      </trkpt>
      <trkpt lat="43.52748" lon="5.51366">
        <ele>302</ele>
        <time>2018-02-20T08:35:47.000Z</time>
      </trkpt>
      <trkpt lat="43.52748" lon="5.51364">
        <ele>302</ele>
        <time>2018-02-20T08:35:48.000Z</time>
      </trkpt>
      <trkpt lat="43.52748" lon="5.51363">
        <ele>302</ele>
        <time>2018-02-20T08:35:49.000Z</time>
      </trkpt>
      <trkpt lat="43.52748" lon="5.51361">
        <ele>302</ele>
        <time>2018-02-20T08:35:50.000Z</time>
      </trkpt>
      <trkpt lat="43.52749" lon="5.5136">
        <ele>302</ele>
        <time>2018-02-20T08:35:51.000Z</time>
      </trkpt>
      <trkpt lat="43.52749" lon="5.51358">
        <ele>302</ele>
        <time>2018-02-20T08:35:52.000Z</time>
      </trkpt>
      <trkpt lat="43.52749" lon="5.51357">
        <ele>301</ele>
        <time>2018-02-20T08:35:53.000Z</time>
      </trkpt>
      <trkpt lat="43.5275" lon="5.51355">
        <ele>301</ele>
        <time>2018-02-20T08:35:54.000Z</time>
      </trkpt>
      <trkpt lat="43.5275" lon="5.51353">
        <ele>301</ele>
        <time>2018-02-20T08:35:55.000Z</time>
      </trkpt>
      <trkpt lat="43.52751" lon="5.51352">
        <ele>301</ele>
        <time>2018-02-20T08:35:56.000Z</time>
      </trkpt>
      <trkpt lat="43.52751" lon="5.5135">
        <ele>301</ele>
        <time>2018-02-20T08:35:57.000Z</time>
      </trkpt>
      <trkpt lat="43.52751" lon="5.51348">
        <ele>301</ele>
        <time>2018-02-20T08:35:58.000Z</time>
      </trkpt>
      <trkpt lat="43.52751" lon="5.51345">
        <ele>301</ele>
        <time>2018-02-20T08:35:59.000Z</time>
      </trkpt>
      <trkpt lat="43.52752" lon="5.51344">
        <ele>301</ele>
        <time>2018-02-20T08:36:00.000Z</time>
      </trkpt>
      <trkpt lat="43.52752" lon="5.51342">
        <ele>301</ele>
        <time>2018-02-20T08:36:01.000Z</time>
      </trkpt>
      <trkpt lat="43.52752" lon="5.5134">
        <ele>301</ele>
        <time>2018-02-20T08:36:02.000Z</time>
      </trkpt>
      <trkpt lat="43.52752" lon="5.51338">
        <ele>301</ele>
        <time>2018-02-20T08:36:03.000Z</time>
      </trkpt>
      <trkpt lat="43.52752" lon="5.51336">
        <ele>301</ele>
        <time>2018-02-20T08:36:04.000Z</time>
      </trkpt>
      <trkpt lat="43.52753" lon="5.51334">
        <ele>301</ele>
        <time>2018-02-20T08:36:05.000Z</time>
      </trkpt>
      <trkpt lat="43.52753" lon="5.51332">
        <ele>301</ele>
        <time>2018-02-20T08:36:06.000Z</time>
      </trkpt>
      <trkpt lat="43.52753" lon="5.5133">
        <ele>301</ele>
        <time>2018-02-20T08:36:07.000Z</time>
      </trkpt>
      <trkpt lat="43.52754" lon="5.51328">
        <ele>301</ele>
        <time>2018-02-20T08:36:08.000Z</time>
      </trkpt>
      <trkpt lat="43.52754" lon="5.51326">
        <ele>301</ele>
        <time>2018-02-20T08:36:09.000Z</time>
      </trkpt>
      <trkpt lat="43.52754" lon="5.51324">
        <ele>301</ele>
        <time>2018-02-20T08:36:10.000Z</time>
      </trkpt>
      <trkpt lat="43.52754" lon="5.51322">
        <ele>301</ele>
        <time>2018-02-20T08:36:11.000Z</time>
      </trkpt>
      <trkpt lat="43.52755" lon="5.51321">
        <ele>302</ele>
        <time>2018-02-20T08:36:12.000Z</time>
      </trkpt>
      <trkpt lat="43.52755" lon="5.51319">
        <ele>302</ele>
        <time>2018-02-20T08:36:13.000Z</time>
      </trkpt>
      <trkpt lat="43.52755" lon="5.51317">
        <ele>302</ele>
        <time>2018-02-20T08:36:14.000Z</time>
      </trkpt>
      <trkpt lat="43.52755" lon="5.51315">
        <ele>302</ele>
        <time>2018-02-20T08:36:15.000Z</time>
      </trkpt>
      <trkpt lat="43.52755" lon="5.51313">
        <ele>302</ele>
        <time>2018-02-20T08:36:16.000Z</time>
      </trkpt>
      <trkpt lat="43.52754" lon="5.51311">
        <ele>302</ele>
        <time>2018-02-20T08:36:17.000Z</time>
      </trkpt>
      <trkpt lat="43.52755" lon="5.51309">
        <ele>302</ele>
        <time>2018-02-20T08:36:18.000Z</time>
      </trkpt>
      <trkpt lat="43.52754" lon="5.51307">
        <ele>301</ele>
        <time>2018-02-20T08:36:19.000Z</time>
      </trkpt>
      <trkpt lat="43.52754" lon="5.51305">
        <ele>301</ele>
        <time>2018-02-20T08:36:20.000Z</time>
      </trkpt>
      <trkpt lat="43.52753" lon="5.51304">
        <ele>301</ele>
        <time>2018-02-20T08:36:21.000Z</time>
      </trkpt>
      <trkpt lat="43.52753" lon="5.51302">
        <ele>301</ele>
        <time>2018-02-20T08:36:22.000Z</time>
      </trkpt>
      <trkpt lat="43.52753" lon="5.51301">
        <ele>301</ele>
        <time>2018-02-20T08:36:23.000Z</time>
      </trkpt>
      <trkpt lat="43.52752" lon="5.51299">
        <ele>301</ele>
        <time>2018-02-20T08:36:24.000Z</time>
      </trkpt>
      <trkpt lat="43.52752" lon="5.51298">
        <ele>301</ele>
        <time>2018-02-20T08:36:25.000Z</time>
      </trkpt>
      <trkpt lat="43.52751" lon="5.51297">
        <ele>301</ele>
        <time>2018-02-20T08:36:26.000Z</time>
      </trkpt>
      <trkpt lat="43.52751" lon="5.51295">
        <ele>301</ele>
        <time>2018-02-20T08:36:27.000Z</time>
      </trkpt>
      <trkpt lat="43.5275" lon="5.51293">
        <ele>301</ele>
        <time>2018-02-20T08:36:28.000Z</time>
      </trkpt>
      <trkpt lat="43.52749" lon="5.51292">
        <ele>301</ele>
        <time>2018-02-20T08:36:29.000Z</time>
      </trkpt>
      <trkpt lat="43.52749" lon="5.5129">
        <ele>300</ele>
        <time>2018-02-20T08:36:30.000Z</time>
      </trkpt>
      <trkpt lat="43.52748" lon="5.51288">
        <ele>300</ele>
        <time>2018-02-20T08:36:31.000Z</time>
      </trkpt>
      <trkpt lat="43.52748" lon="5.51287">
        <ele>300</ele>
        <time>2018-02-20T08:36:32.000Z</time>
      </trkpt>
      <trkpt lat="43.52747" lon="5.51286">
        <ele>300</ele>
        <time>2018-02-20T08:36:33.000Z</time>
      </trkpt>
      <trkpt lat="43.52747" lon="5.51284">
        <ele>300</ele>
        <time>2018-02-20T08:36:34.000Z</time>
      </trkpt>
      <trkpt lat="43.52747" lon="5.51282">
        <ele>299</ele>
        <time>2018-02-20T08:36:35.000Z</time>
      </trkpt>
      <trkpt lat="43.52746" lon="5.51281">
        <ele>299</ele>
        <time>2018-02-20T08:36:36.000Z</time>
      </trkpt>
      <trkpt lat="43.52746" lon="5.5128">
        <ele>299</ele>
        <time>2018-02-20T08:36:37.000Z</time>
      </trkpt>
      <trkpt lat="43.52746" lon="5.51278">
        <ele>299</ele>
        <time>2018-02-20T08:36:38.000Z</time>
      </trkpt>
      <trkpt lat="43.52746" lon="5.51276">
        <ele>299</ele>
        <time>2018-02-20T08:36:39.000Z</time>
      </trkpt>
      <trkpt lat="43.52745" lon="5.51275">
        <ele>299</ele>
        <time>2018-02-20T08:36:40.000Z</time>
      </trkpt>
      <trkpt lat="43.52746" lon="5.51273">
        <ele>299</ele>
        <time>2018-02-20T08:36:41.000Z</time>
      </trkpt>
      <trkpt lat="43.52746" lon="5.51272">
        <ele>298</ele>
        <time>2018-02-20T08:36:42.000Z</time>
      </trkpt>
      <trkpt lat="43.52746" lon="5.5127">
        <ele>298</ele>
        <time>2018-02-20T08:36:43.000Z</time>
      </trkpt>
      <trkpt lat="43.52746" lon="5.51268">
        <ele>298</ele>
        <time>2018-02-20T08:36:44.000Z</time>
      </trkpt>
      <trkpt lat="43.52747" lon="5.51267">
        <ele>298</ele>
        <time>2018-02-20T08:36:45.000Z</time>
      </trkpt>
      <trkpt lat="43.52747" lon="5.51265">
        <ele>298</ele>
        <time>2018-02-20T08:36:46.000Z</time>
      </trkpt>
      <trkpt lat="43.52747" lon="5.51264">
        <ele>297</ele>
        <time>2018-02-20T08:36:47.000Z</time>
      </trkpt>
      <trkpt lat="43.52748" lon="5.51262">
        <ele>297</ele>
        <time>2018-02-20T08:36:48.000Z</time>
      </trkpt>
      <trkpt lat="43.52748" lon="5.51261">
        <ele>297</ele>
        <time>2018-02-20T08:36:49.000Z</time>
      </trkpt>
      <trkpt lat="43.52748" lon="5.51259">
        <ele>297</ele>
        <time>2018-02-20T08:36:50.000Z</time>
      </trkpt>
      <trkpt lat="43.52749" lon="5.51258">
        <ele>297</ele>
        <time>2018-02-20T08:36:51.000Z</time>
      </trkpt>
      <trkpt lat="43.52749" lon="5.51257">
        <ele>296</ele>
        <time>2018-02-20T08:36:52.000Z</time>
      </trkpt>
      <trkpt lat="43.5275" lon="5.51255">
        <ele>296</ele>
        <time>2018-02-20T08:36:53.000Z</time>
      </trkpt>
      <trkpt lat="43.5275" lon="5.51254">
        <ele>296</ele>
        <time>2018-02-20T08:36:54.000Z</time>
      </trkpt>
      <trkpt lat="43.52751" lon="5.51252">
        <ele>296</ele>
        <time>2018-02-20T08:36:55.000Z</time>
      </trkpt>
      <trkpt lat="43.52751" lon="5.51251">
        <ele>296</ele>
        <time>2018-02-20T08:36:56.000Z</time>
      </trkpt>
      <trkpt lat="43.52751" lon="5.51249">
        <ele>296</ele>
        <time>2018-02-20T08:36:57.000Z</time>
      </trkpt>
      <trkpt lat="43.52752" lon="5.51248">
        <ele>296</ele>
        <time>2018-02-20T08:36:58.000Z</time>
      </trkpt>
      <trkpt lat="43.52752" lon="5.51247">
        <ele>296</ele>
        <time>2018-02-20T08:36:59.000Z</time>
      </trkpt>
      <trkpt lat="43.52752" lon="5.51246">
        <ele>295</ele>
        <time>2018-02-20T08:37:00.000Z</time>
      </trkpt>
      <trkpt lat="43.52752" lon="5.51245">
        <ele>295</ele>
        <time>2018-02-20T08:37:01.000Z</time>
      </trkpt>
      <trkpt lat="43.52752" lon="5.51244">
        <ele>295</ele>
        <time>2018-02-20T08:37:02.000Z</time>
      </trkpt>
      <trkpt lat="43.52752" lon="5.51242">
        <ele>295</ele>
        <time>2018-02-20T08:37:03.000Z</time>
      </trkpt>
      <trkpt lat="43.52753" lon="5.51241">
        <ele>295</ele>
        <time>2018-02-20T08:37:04.000Z</time>
      </trkpt>
      <trkpt lat="43.52753" lon="5.51239">
        <ele>294</ele>
        <time>2018-02-20T08:37:05.000Z</time>
      </trkpt>
      <trkpt lat="43.52753" lon="5.51238">
        <ele>294</ele>
        <time>2018-02-20T08:37:06.000Z</time>
      </trkpt>
      <trkpt lat="43.52753" lon="5.51236">
        <ele>294</ele>
        <time>2018-02-20T08:37:07.000Z</time>
      </trkpt>
      <trkpt lat="43.52753" lon="5.51235">
        <ele>294</ele>
        <time>2018-02-20T08:37:08.000Z</time>
      </trkpt>
      <trkpt lat="43.52753" lon="5.51233">
        <ele>293</ele>
        <time>2018-02-20T08:37:09.000Z</time>
      </trkpt>
      <trkpt lat="43.52753" lon="5.51232">
        <ele>293</ele>
        <time>2018-02-20T08:37:10.000Z</time>
      </trkpt>
      <trkpt lat="43.52754" lon="5.51231">
        <ele>293</ele>
        <time>2018-02-20T08:37:11.000Z</time>
      </trkpt>
      <trkpt lat="43.52754" lon="5.51229">
        <ele>293</ele>
        <time>2018-02-20T08:37:12.000Z</time>
      </trkpt>
      <trkpt lat="43.52753" lon="5.51227">
        <ele>293</ele>
        <time>2018-02-20T08:37:13.000Z</time>
      </trkpt>
      <trkpt lat="43.52753" lon="5.51225">
        <ele>292</ele>
        <time>2018-02-20T08:37:14.000Z</time>
      </trkpt>
      <trkpt lat="43.52753" lon="5.51224">
        <ele>292</ele>
        <time>2018-02-20T08:37:15.000Z</time>
      </trkpt>
      <trkpt lat="43.52752" lon="5.51222">
        <ele>292</ele>
        <time>2018-02-20T08:37:16.000Z</time>
      </trkpt>
      <trkpt lat="43.52752" lon="5.5122">
        <ele>292</ele>
        <time>2018-02-20T08:37:17.000Z</time>
      </trkpt>
      <trkpt lat="43.52752" lon="5.51219">
        <ele>292</ele>
        <time>2018-02-20T08:37:18.000Z</time>
      </trkpt>
      <trkpt lat="43.52751" lon="5.51218">
        <ele>292</ele>
        <time>2018-02-20T08:37:19.000Z</time>
      </trkpt>
      <trkpt lat="43.52751" lon="5.51217">
        <ele>291</ele>
        <time>2018-02-20T08:37:20.000Z</time>
      </trkpt>
      <trkpt lat="43.5275" lon="5.51216">
        <ele>291</ele>
        <time>2018-02-20T08:37:21.000Z</time>
      </trkpt>
      <trkpt lat="43.5275" lon="5.51215">
        <ele>291</ele>
        <time>2018-02-20T08:37:22.000Z</time>
      </trkpt>
      <trkpt lat="43.5275" lon="5.51213">
        <ele>291</ele>
        <time>2018-02-20T08:37:23.000Z</time>
      </trkpt>
      <trkpt lat="43.5275" lon="5.51212">
        <ele>291</ele>
        <time>2018-02-20T08:37:24.000Z</time>
      </trkpt>
      <trkpt lat="43.5275" lon="5.5121">
        <ele>290</ele>
        <time>2018-02-20T08:37:25.000Z</time>
      </trkpt>
      <trkpt lat="43.52749" lon="5.51209">
        <ele>290</ele>
        <time>2018-02-20T08:37:26.000Z</time>
      </trkpt>
      <trkpt lat="43.52749" lon="5.51207">
        <ele>290</ele>
        <time>2018-02-20T08:37:27.000Z</time>
      </trkpt>
      <trkpt lat="43.52749" lon="5.51206">
        <ele>290</ele>
        <time>2018-02-20T08:37:28.000Z</time>
      </trkpt>
      <trkpt lat="43.52749" lon="5.51204">
        <ele>290</ele>
        <time>2018-02-20T08:37:29.000Z</time>
      </trkpt>
      <trkpt lat="43.52749" lon="5.51203">
        <ele>290</ele>
        <time>2018-02-20T08:37:30.000Z</time>
      </trkpt>
      <trkpt lat="43.52749" lon="5.51201">
        <ele>290</ele>
        <time>2018-02-20T08:37:31.000Z</time>
      </trkpt>
      <trkpt lat="43.52748" lon="5.512">
        <ele>289</ele>
        <time>2018-02-20T08:37:32.000Z</time>
      </trkpt>
      <trkpt lat="43.52748" lon="5.51198">
        <ele>289</ele>
        <time>2018-02-20T08:37:33.000Z</time>
      </trkpt>
      <trkpt lat="43.52748" lon="5.51196">
        <ele>289</ele>
        <time>2018-02-20T08:37:34.000Z</time>
      </trkpt>
      <trkpt lat="43.52747" lon="5.51195">
        <ele>289</ele>
        <time>2018-02-20T08:37:35.000Z</time>
      </trkpt>
      <trkpt lat="43.52747" lon="5.51193">
        <ele>289</ele>
        <time>2018-02-20T08:37:36.000Z</time>
      </trkpt>
      <trkpt lat="43.52746" lon="5.51191">
        <ele>289</ele>
        <time>2018-02-20T08:37:37.000Z</time>
      </trkpt>
      <trkpt lat="43.52746" lon="5.5119">
        <ele>289</ele>
        <time>2018-02-20T08:37:38.000Z</time>
      </trkpt>
      <trkpt lat="43.52746" lon="5.51189">
        <ele>289</ele>
        <time>2018-02-20T08:37:39.000Z</time>
      </trkpt>
      <trkpt lat="43.52747" lon="5.51188">
        <ele>289</ele>
        <time>2018-02-20T08:37:40.000Z</time>
      </trkpt>
      <trkpt lat="43.52747" lon="5.51187">
        <ele>289</ele>
        <time>2018-02-20T08:37:41.000Z</time>
      </trkpt>
      <trkpt lat="43.52747" lon="5.51187">
        <ele>289</ele>
        <time>2018-02-20T08:37:42.000Z</time>
      </trkpt>
      <trkpt lat="43.52747" lon="5.51187">
        <ele>289</ele>
        <time>2018-02-20T08:37:43.000Z</time>
      </trkpt>
      <trkpt lat="43.52747" lon="5.51187">
        <ele>289</ele>
        <time>2018-02-20T08:37:44.000Z</time>
      </trkpt>
      <trkpt lat="43.52747" lon="5.51186">
        <ele>289</ele>
        <time>2018-02-20T08:37:45.000Z</time>
      </trkpt>
      <trkpt lat="43.52747" lon="5.51186">
        <ele>289</ele>
        <time>2018-02-20T08:37:46.000Z</time>
      </trkpt>
      <trkpt lat="43.52747" lon="5.51186">
        <ele>289</ele>
        <time>2018-02-20T08:37:47.000Z</time>
      </trkpt>
      <trkpt lat="43.52747" lon="5.51186">
        <ele>289</ele>
        <time>2018-02-20T08:37:48.000Z</time>
      </trkpt>
      <trkpt lat="43.52748" lon="5.51186">
        <ele>289</ele>
        <time>2018-02-20T08:37:49.000Z</time>
      </trkpt>
      <trkpt lat="43.52748" lon="5.51185">
        <ele>289</ele>
        <time>2018-02-20T08:37:50.000Z</time>
      </trkpt>
      <trkpt lat="43.52748" lon="5.51185">
        <ele>289</ele>
        <time>2018-02-20T08:37:51.000Z</time>
      </trkpt>
      <trkpt lat="43.52749" lon="5.51185">
        <ele>289</ele>
        <time>2018-02-20T08:37:52.000Z</time>
      </trkpt>
      <trkpt lat="43.52749" lon="5.51185">
        <ele>289</ele>
        <time>2018-02-20T08:37:53.000Z</time>
      </trkpt>
      <trkpt lat="43.52749" lon="5.51185">
        <ele>288</ele>
        <time>2018-02-20T08:37:54.000Z</time>
      </trkpt>
      <trkpt lat="43.52748" lon="5.51184">
        <ele>288</ele>
        <time>2018-02-20T08:37:55.000Z</time>
      </trkpt>
      <trkpt lat="43.52748" lon="5.51184">
        <ele>288</ele>
        <time>2018-02-20T08:37:56.000Z</time>
      </trkpt>
      <trkpt lat="43.52747" lon="5.51184">
        <ele>288</ele>
        <time>2018-02-20T08:37:57.000Z</time>
      </trkpt>
      <trkpt lat="43.52747" lon="5.51184">
        <ele>288</ele>
        <time>2018-02-20T08:37:58.000Z</time>
      </trkpt>
      <trkpt lat="43.52746" lon="5.51183">
        <ele>288</ele>
        <time>2018-02-20T08:37:59.000Z</time>
      </trkpt>
      <trkpt lat="43.52745" lon="5.51182">
        <ele>288</ele>
        <time>2018-02-20T08:38:00.000Z</time>
      </trkpt>
      <trkpt lat="43.52745" lon="5.51182">
        <ele>288</ele>
        <time>2018-02-20T08:38:01.000Z</time>
      </trkpt>
      <trkpt lat="43.52744" lon="5.51181">
        <ele>287</ele>
        <time>2018-02-20T08:38:02.000Z</time>
      </trkpt>
      <trkpt lat="43.52744" lon="5.51181">
        <ele>287</ele>
        <time>2018-02-20T08:38:03.000Z</time>
      </trkpt>
      <trkpt lat="43.52744" lon="5.51181">
        <ele>287</ele>
        <time>2018-02-20T08:38:04.000Z</time>
      </trkpt>
      <trkpt lat="43.52744" lon="5.51181">
        <ele>287</ele>
        <time>2018-02-20T08:38:05.000Z</time>
      </trkpt>
      <trkpt lat="43.52745" lon="5.51181">
        <ele>287</ele>
        <time>2018-02-20T08:38:06.000Z</time>
      </trkpt>
      <trkpt lat="43.52745" lon="5.51182">
        <ele>287</ele>
        <time>2018-02-20T08:38:07.000Z</time>
      </trkpt>
      <trkpt lat="43.52746" lon="5.51183">
        <ele>287</ele>
        <time>2018-02-20T08:38:08.000Z</time>
      </trkpt>
      <trkpt lat="43.52746" lon="5.51184">
        <ele>286</ele>
        <time>2018-02-20T08:38:09.000Z</time>
      </trkpt>
      <trkpt lat="43.52746" lon="5.51184">
        <ele>286</ele>
        <time>2018-02-20T08:38:10.000Z</time>
      </trkpt>
      <trkpt lat="43.52747" lon="5.51184">
        <ele>286</ele>
        <time>2018-02-20T08:38:11.000Z</time>
      </trkpt>
      <trkpt lat="43.52747" lon="5.51184">
        <ele>286</ele>
        <time>2018-02-20T08:38:12.000Z</time>
      </trkpt>
      <trkpt lat="43.52747" lon="5.51184">
        <ele>286</ele>
        <time>2018-02-20T08:38:13.000Z</time>
      </trkpt>
      <trkpt lat="43.52747" lon="5.51184">
        <ele>286</ele>
        <time>2018-02-20T08:38:14.000Z</time>
      </trkpt>
      <trkpt lat="43.52747" lon="5.51184">
        <ele>286</ele>
        <time>2018-02-20T08:38:15.000Z</time>
      </trkpt>
      <trkpt lat="43.52747" lon="5.51184">
        <ele>286</ele>
        <time>2018-02-20T08:38:16.000Z</time>
      </trkpt>
      <trkpt lat="43.52747" lon="5.51184">
        <ele>286</ele>
        <time>2018-02-20T08:38:17.000Z</time>
      </trkpt>
      <trkpt lat="43.52747" lon="5.51184">
        <ele>286</ele>
        <time>2018-02-20T08:38:18.000Z</time>
      </trkpt>
      <trkpt lat="43.52747" lon="5.51184">
        <ele>286</ele>
        <time>2018-02-20T08:38:19.000Z</time>
      </trkpt>
      <trkpt lat="43.52747" lon="5.51184">
        <ele>285</ele>
        <time>2018-02-20T08:38:20.000Z</time>
      </trkpt>
      <trkpt lat="43.52747" lon="5.51184">
        <ele>285</ele>
        <time>2018-02-20T08:38:21.000Z</time>
      </trkpt>
      <trkpt lat="43.52747" lon="5.51184">
        <ele>285</ele>
        <time>2018-02-20T08:38:22.000Z</time>
      </trkpt>
      <trkpt lat="43.52747" lon="5.51184">
        <ele>285</ele>
        <time>2018-02-20T08:38:23.000Z</time>
      </trkpt>
      <trkpt lat="43.52747" lon="5.51184">
        <ele>285</ele>
        <time>2018-02-20T08:38:24.000Z</time>
      </trkpt>
      <trkpt lat="43.52747" lon="5.51184">
        <ele>285</ele>
        <time>2018-02-20T08:38:25.000Z</time>
      </trkpt>
      <trkpt lat="43.52747" lon="5.51184">
        <ele>285</ele>
        <time>2018-02-20T08:38:26.000Z</time>
      </trkpt>
      <trkpt lat="43.52747" lon="5.51184">
        <ele>285</ele>
        <time>2018-02-20T08:38:27.000Z</time>
      </trkpt>
      <trkpt lat="43.52747" lon="5.51184">
        <ele>285</ele>
        <time>2018-02-20T08:38:28.000Z</time>
      </trkpt>
      <trkpt lat="43.52747" lon="5.51184">
        <ele>285</ele>
        <time>2018-02-20T08:38:29.000Z</time>
      </trkpt>
      <trkpt lat="43.52746" lon="5.51184">
        <ele>285</ele>
        <time>2018-02-20T08:38:30.000Z</time>
      </trkpt>
      <trkpt lat="43.52746" lon="5.51185">
        <ele>285</ele>
        <time>2018-02-20T08:38:31.000Z</time>
      </trkpt>
      <trkpt lat="43.52746" lon="5.51185">
        <ele>285</ele>
        <time>2018-02-20T08:38:32.000Z</time>
      </trkpt>
      <trkpt lat="43.52746" lon="5.51185">
        <ele>285</ele>
        <time>2018-02-20T08:38:33.000Z</time>
      </trkpt>
      <trkpt lat="43.52745" lon="5.51184">
        <ele>285</ele>
        <time>2018-02-20T08:38:34.000Z</time>
      </trkpt>
      <trkpt lat="43.52745" lon="5.51183">
        <ele>285</ele>
        <time>2018-02-20T08:38:35.000Z</time>
      </trkpt>
      <trkpt lat="43.52745" lon="5.51183">
        <ele>285</ele>
        <time>2018-02-20T08:38:36.000Z</time>
      </trkpt>
      <trkpt lat="43.52746" lon="5.51183">
        <ele>285</ele>
        <time>2018-02-20T08:38:37.000Z</time>
      </trkpt>
      <trkpt lat="43.52746" lon="5.51183">
        <ele>285</ele>
        <time>2018-02-20T08:38:38.000Z</time>
      </trkpt>
      <trkpt lat="43.52746" lon="5.51183">
        <ele>285</ele>
        <time>2018-02-20T08:38:39.000Z</time>
      </trkpt>
      <trkpt lat="43.52746" lon="5.51183">
        <ele>285</ele>
        <time>2018-02-20T08:38:40.000Z</time>
      </trkpt>
      <trkpt lat="43.52746" lon="5.51183">
        <ele>285</ele>
        <time>2018-02-20T08:38:41.000Z</time>
      </trkpt>
      <trkpt lat="43.52746" lon="5.51183">
        <ele>285</ele>
        <time>2018-02-20T08:38:42.000Z</time>
      </trkpt>
      <trkpt lat="43.52746" lon="5.51183">
        <ele>285</ele>
        <time>2018-02-20T08:38:43.000Z</time>
      </trkpt>
      <trkpt lat="43.52745" lon="5.51183">
        <ele>285</ele>
        <time>2018-02-20T08:38:44.000Z</time>
      </trkpt>
      <trkpt lat="43.52745" lon="5.51183">
        <ele>285</ele>
        <time>2018-02-20T08:38:45.000Z</time>
      </trkpt>
      <trkpt lat="43.52745" lon="5.51182">
        <ele>285</ele>
        <time>2018-02-20T08:38:46.000Z</time>
      </trkpt>
      <trkpt lat="43.52745" lon="5.51181">
        <ele>285</ele>
        <time>2018-02-20T08:38:47.000Z</time>
      </trkpt>
      <trkpt lat="43.52745" lon="5.5118">
        <ele>285</ele>
        <time>2018-02-20T08:38:48.000Z</time>
      </trkpt>
      <trkpt lat="43.52745" lon="5.51178">
        <ele>285</ele>
        <time>2018-02-20T08:38:49.000Z</time>
      </trkpt>
      <trkpt lat="43.52745" lon="5.51177">
        <ele>285</ele>
        <time>2018-02-20T08:38:50.000Z</time>
      </trkpt>
      <trkpt lat="43.52745" lon="5.51176">
        <ele>285</ele>
        <time>2018-02-20T08:38:51.000Z</time>
      </trkpt>
      <trkpt lat="43.52745" lon="5.51175">
        <ele>285</ele>
        <time>2018-02-20T08:38:52.000Z</time>
      </trkpt>
      <trkpt lat="43.52745" lon="5.51174">
        <ele>285</ele>
        <time>2018-02-20T08:38:53.000Z</time>
      </trkpt>
      <trkpt lat="43.52745" lon="5.51173">
        <ele>285</ele>
        <time>2018-02-20T08:38:54.000Z</time>
      </trkpt>
      <trkpt lat="43.52744" lon="5.51172">
        <ele>286</ele>
        <time>2018-02-20T08:38:55.000Z</time>
      </trkpt>
      <trkpt lat="43.52743" lon="5.51171">
        <ele>286</ele>
        <time>2018-02-20T08:38:56.000Z</time>
      </trkpt>
      <trkpt lat="43.52743" lon="5.5117">
        <ele>286</ele>
        <time>2018-02-20T08:38:57.000Z</time>
      </trkpt>
      <trkpt lat="43.52743" lon="5.51169">
        <ele>287</ele>
        <time>2018-02-20T08:38:58.000Z</time>
      </trkpt>
      <trkpt lat="43.52743" lon="5.51168">
        <ele>287</ele>
        <time>2018-02-20T08:38:59.000Z</time>
      </trkpt>
      <trkpt lat="43.52743" lon="5.51166">
        <ele>287</ele>
        <time>2018-02-20T08:39:00.000Z</time>
      </trkpt>
      <trkpt lat="43.52742" lon="5.51165">
        <ele>288</ele>
        <time>2018-02-20T08:39:01.000Z</time>
      </trkpt>
      <trkpt lat="43.52742" lon="5.51163">
        <ele>288</ele>
        <time>2018-02-20T08:39:02.000Z</time>
      </trkpt>
      <trkpt lat="43.52743" lon="5.51162">
        <ele>288</ele>
        <time>2018-02-20T08:39:03.000Z</time>
      </trkpt>
      <trkpt lat="43.52743" lon="5.51161">
        <ele>288</ele>
        <time>2018-02-20T08:39:04.000Z</time>
      </trkpt>
      <trkpt lat="43.52743" lon="5.51161">
        <ele>288</ele>
        <time>2018-02-20T08:39:05.000Z</time>
      </trkpt>
      <trkpt lat="43.52743" lon="5.5116">
        <ele>289</ele>
        <time>2018-02-20T08:39:06.000Z</time>
      </trkpt>
      <trkpt lat="43.52743" lon="5.51159">
        <ele>289</ele>
        <time>2018-02-20T08:39:07.000Z</time>
      </trkpt>
      <trkpt lat="43.52743" lon="5.51158">
        <ele>289</ele>
        <time>2018-02-20T08:39:08.000Z</time>
      </trkpt>
      <trkpt lat="43.52743" lon="5.51157">
        <ele>289</ele>
        <time>2018-02-20T08:39:09.000Z</time>
      </trkpt>
      <trkpt lat="43.52744" lon="5.51156">
        <ele>289</ele>
        <time>2018-02-20T08:39:10.000Z</time>
      </trkpt>
      <trkpt lat="43.52744" lon="5.51156">
        <ele>289</ele>
        <time>2018-02-20T08:39:11.000Z</time>
      </trkpt>
      <trkpt lat="43.52745" lon="5.51155">
        <ele>289</ele>
        <time>2018-02-20T08:39:12.000Z</time>
      </trkpt>
      <trkpt lat="43.52745" lon="5.51154">
        <ele>289</ele>
        <time>2018-02-20T08:39:13.000Z</time>
      </trkpt>
      <trkpt lat="43.52745" lon="5.51154">
        <ele>289</ele>
        <time>2018-02-20T08:39:14.000Z</time>
      </trkpt>
      <trkpt lat="43.52745" lon="5.51152">
        <ele>289</ele>
        <time>2018-02-20T08:39:15.000Z</time>
      </trkpt>
      <trkpt lat="43.52745" lon="5.5115">
        <ele>289</ele>
        <time>2018-02-20T08:39:16.000Z</time>
      </trkpt>
      <trkpt lat="43.52745" lon="5.51149">
        <ele>290</ele>
        <time>2018-02-20T08:39:17.000Z</time>
      </trkpt>
      <trkpt lat="43.52744" lon="5.51148">
        <ele>290</ele>
        <time>2018-02-20T08:39:18.000Z</time>
      </trkpt>
      <trkpt lat="43.52744" lon="5.51146">
        <ele>290</ele>
        <time>2018-02-20T08:39:19.000Z</time>
      </trkpt>
      <trkpt lat="43.52744" lon="5.51145">
        <ele>290</ele>
        <time>2018-02-20T08:39:20.000Z</time>
      </trkpt>
      <trkpt lat="43.52745" lon="5.51143">
        <ele>290</ele>
        <time>2018-02-20T08:39:21.000Z</time>
      </trkpt>
      <trkpt lat="43.52744" lon="5.51142">
        <ele>290</ele>
        <time>2018-02-20T08:39:22.000Z</time>
      </trkpt>
      <trkpt lat="43.52744" lon="5.51141">
        <ele>290</ele>
        <time>2018-02-20T08:39:23.000Z</time>
      </trkpt>
      <trkpt lat="43.52744" lon="5.51139">
        <ele>290</ele>
        <time>2018-02-20T08:39:24.000Z</time>
      </trkpt>
      <trkpt lat="43.52744" lon="5.51137">
        <ele>290</ele>
        <time>2018-02-20T08:39:25.000Z</time>
      </trkpt>
      <trkpt lat="43.52743" lon="5.51136">
        <ele>290</ele>
        <time>2018-02-20T08:39:26.000Z</time>
      </trkpt>
      <trkpt lat="43.52743" lon="5.51134">
        <ele>290</ele>
        <time>2018-02-20T08:39:27.000Z</time>
      </trkpt>
      <trkpt lat="43.52743" lon="5.51133">
        <ele>290</ele>
        <time>2018-02-20T08:39:28.000Z</time>
      </trkpt>
      <trkpt lat="43.52743" lon="5.51131">
        <ele>290</ele>
        <time>2018-02-20T08:39:29.000Z</time>
      </trkpt>
      <trkpt lat="43.52743" lon="5.5113">
        <ele>290</ele>
        <time>2018-02-20T08:39:30.000Z</time>
      </trkpt>
      <trkpt lat="43.52743" lon="5.51129">
        <ele>290</ele>
        <time>2018-02-20T08:39:31.000Z</time>
      </trkpt>
      <trkpt lat="43.52743" lon="5.51127">
        <ele>290</ele>
        <time>2018-02-20T08:39:32.000Z</time>
      </trkpt>
      <trkpt lat="43.52743" lon="5.51126">
        <ele>290</ele>
        <time>2018-02-20T08:39:33.000Z</time>
      </trkpt>
      <trkpt lat="43.52743" lon="5.51125">
        <ele>290</ele>
        <time>2018-02-20T08:39:34.000Z</time>
      </trkpt>
      <trkpt lat="43.52743" lon="5.51123">
        <ele>290</ele>
        <time>2018-02-20T08:39:35.000Z</time>
      </trkpt>
      <trkpt lat="43.52742" lon="5.51121">
        <ele>290</ele>
        <time>2018-02-20T08:39:36.000Z</time>
      </trkpt>
      <trkpt lat="43.52742" lon="5.51119">
        <ele>290</ele>
        <time>2018-02-20T08:39:37.000Z</time>
      </trkpt>
      <trkpt lat="43.52742" lon="5.51118">
        <ele>289</ele>
        <time>2018-02-20T08:39:38.000Z</time>
      </trkpt>
      <trkpt lat="43.52742" lon="5.51116">
        <ele>289</ele>
        <time>2018-02-20T08:39:39.000Z</time>
      </trkpt>
      <trkpt lat="43.52742" lon="5.51114">
        <ele>289</ele>
        <time>2018-02-20T08:39:40.000Z</time>
      </trkpt>
      <trkpt lat="43.52742" lon="5.51112">
        <ele>289</ele>
        <time>2018-02-20T08:39:41.000Z</time>
      </trkpt>
      <trkpt lat="43.52741" lon="5.51111">
        <ele>289</ele>
        <time>2018-02-20T08:39:42.000Z</time>
      </trkpt>
      <trkpt lat="43.52741" lon="5.5111">
        <ele>289</ele>
        <time>2018-02-20T08:39:43.000Z</time>
      </trkpt>
      <trkpt lat="43.52741" lon="5.51109">
        <ele>289</ele>
        <time>2018-02-20T08:39:44.000Z</time>
      </trkpt>
      <trkpt lat="43.5274" lon="5.51108">
        <ele>289</ele>
        <time>2018-02-20T08:39:45.000Z</time>
      </trkpt>
      <trkpt lat="43.5274" lon="5.51107">
        <ele>289</ele>
        <time>2018-02-20T08:39:46.000Z</time>
      </trkpt>
      <trkpt lat="43.52739" lon="5.51105">
        <ele>288</ele>
        <time>2018-02-20T08:39:47.000Z</time>
      </trkpt>
      <trkpt lat="43.52739" lon="5.51104">
        <ele>288</ele>
        <time>2018-02-20T08:39:48.000Z</time>
      </trkpt>
      <trkpt lat="43.52739" lon="5.51104">
        <ele>288</ele>
        <time>2018-02-20T08:39:49.000Z</time>
      </trkpt>
      <trkpt lat="43.52738" lon="5.51103">
        <ele>288</ele>
        <time>2018-02-20T08:39:50.000Z</time>
      </trkpt>
      <trkpt lat="43.52738" lon="5.51102">
        <ele>287</ele>
        <time>2018-02-20T08:39:51.000Z</time>
      </trkpt>
      <trkpt lat="43.52738" lon="5.51102">
        <ele>287</ele>
        <time>2018-02-20T08:39:52.000Z</time>
      </trkpt>
      <trkpt lat="43.52738" lon="5.51101">
        <ele>287</ele>
        <time>2018-02-20T08:39:53.000Z</time>
      </trkpt>
      <trkpt lat="43.52738" lon="5.51101">
        <ele>287</ele>
        <time>2018-02-20T08:39:54.000Z</time>
      </trkpt>
      <trkpt lat="43.52738" lon="5.511">
        <ele>287</ele>
        <time>2018-02-20T08:39:55.000Z</time>
      </trkpt>
      <trkpt lat="43.52738" lon="5.51099">
        <ele>287</ele>
        <time>2018-02-20T08:39:56.000Z</time>
      </trkpt>
      <trkpt lat="43.52738" lon="5.51099">
        <ele>287</ele>
        <time>2018-02-20T08:39:57.000Z</time>
      </trkpt>
      <trkpt lat="43.52738" lon="5.51098">
        <ele>286</ele>
        <time>2018-02-20T08:39:58.000Z</time>
      </trkpt>
      <trkpt lat="43.52738" lon="5.51098">
        <ele>286</ele>
        <time>2018-02-20T08:39:59.000Z</time>
      </trkpt>
      <trkpt lat="43.52737" lon="5.51098">
        <ele>286</ele>
        <time>2018-02-20T08:40:00.000Z</time>
      </trkpt>
      <trkpt lat="43.52737" lon="5.51097">
        <ele>286</ele>
        <time>2018-02-20T08:40:01.000Z</time>
      </trkpt>
      <trkpt lat="43.52737" lon="5.51096">
        <ele>286</ele>
        <time>2018-02-20T08:40:02.000Z</time>
      </trkpt>
      <trkpt lat="43.52736" lon="5.51096">
        <ele>285</ele>
        <time>2018-02-20T08:40:03.000Z</time>
      </trkpt>
      <trkpt lat="43.52736" lon="5.51096">
        <ele>285</ele>
        <time>2018-02-20T08:40:04.000Z</time>
      </trkpt>
      <trkpt lat="43.52735" lon="5.51096">
        <ele>285</ele>
        <time>2018-02-20T08:40:05.000Z</time>
      </trkpt>
      <trkpt lat="43.52734" lon="5.51096">
        <ele>285</ele>
        <time>2018-02-20T08:40:06.000Z</time>
      </trkpt>
      <trkpt lat="43.52734" lon="5.51096">
        <ele>285</ele>
        <time>2018-02-20T08:40:07.000Z</time>
      </trkpt>
      <trkpt lat="43.52734" lon="5.51096">
        <ele>284</ele>
        <time>2018-02-20T08:40:08.000Z</time>
      </trkpt>
      <trkpt lat="43.52734" lon="5.51095">
        <ele>284</ele>
        <time>2018-02-20T08:40:09.000Z</time>
      </trkpt>
      <trkpt lat="43.52734" lon="5.51095">
        <ele>284</ele>
        <time>2018-02-20T08:40:10.000Z</time>
      </trkpt>
      <trkpt lat="43.52734" lon="5.51095">
        <ele>284</ele>
        <time>2018-02-20T08:40:11.000Z</time>
      </trkpt>
      <trkpt lat="43.52734" lon="5.51095">
        <ele>284</ele>
        <time>2018-02-20T08:40:12.000Z</time>
      </trkpt>
      <trkpt lat="43.52734" lon="5.51095">
        <ele>284</ele>
        <time>2018-02-20T08:40:13.000Z</time>
      </trkpt>
      <trkpt lat="43.52734" lon="5.51095">
        <ele>284</ele>
        <time>2018-02-20T08:40:14.000Z</time>
      </trkpt>
      <trkpt lat="43.52734" lon="5.51095">
        <ele>284</ele>
        <time>2018-02-20T08:40:15.000Z</time>
      </trkpt>
      <trkpt lat="43.52734" lon="5.51096">
        <ele>284</ele>
        <time>2018-02-20T08:40:16.000Z</time>
      </trkpt>
      <trkpt lat="43.52734" lon="5.51096">
        <ele>284</ele>
        <time>2018-02-20T08:40:17.000Z</time>
      </trkpt>
      <trkpt lat="43.52734" lon="5.51096">
        <ele>285</ele>
        <time>2018-02-20T08:40:18.000Z</time>
      </trkpt>
      <trkpt lat="43.52734" lon="5.51096">
        <ele>285</ele>
        <time>2018-02-20T08:40:19.000Z</time>
      </trkpt>
      <trkpt lat="43.52734" lon="5.51096">
        <ele>285</ele>
        <time>2018-02-20T08:40:20.000Z</time>
      </trkpt>
      <trkpt lat="43.52734" lon="5.51096">
        <ele>285</ele>
        <time>2018-02-20T08:40:21.000Z</time>
      </trkpt>
      <trkpt lat="43.52734" lon="5.51095">
        <ele>285</ele>
        <time>2018-02-20T08:40:22.000Z</time>
      </trkpt>
      <trkpt lat="43.52734" lon="5.51095">
        <ele>285</ele>
        <time>2018-02-20T08:40:23.000Z</time>
      </trkpt>
      <trkpt lat="43.52734" lon="5.51095">
        <ele>285</ele>
        <time>2018-02-20T08:40:24.000Z</time>
      </trkpt>
      <trkpt lat="43.52734" lon="5.51095">
        <ele>285</ele>
        <time>2018-02-20T08:40:25.000Z</time>
      </trkpt>
      <trkpt lat="43.52734" lon="5.51095">
        <ele>285</ele>
        <time>2018-02-20T08:40:26.000Z</time>
      </trkpt>
      <trkpt lat="43.52734" lon="5.51095">
        <ele>285</ele>
        <time>2018-02-20T08:40:27.000Z</time>
      </trkpt>
      <trkpt lat="43.52734" lon="5.51096">
        <ele>285</ele>
        <time>2018-02-20T08:40:28.000Z</time>
      </trkpt>
      <trkpt lat="43.52734" lon="5.51095">
        <ele>286</ele>
        <time>2018-02-20T08:40:29.000Z</time>
      </trkpt>
      <trkpt lat="43.52733" lon="5.51095">
        <ele>286</ele>
        <time>2018-02-20T08:40:30.000Z</time>
      </trkpt>
      <trkpt lat="43.52732" lon="5.51094">
        <ele>285</ele>
        <time>2018-02-20T08:40:31.000Z</time>
      </trkpt>
      <trkpt lat="43.52731" lon="5.51094">
        <ele>285</ele>
        <time>2018-02-20T08:40:32.000Z</time>
      </trkpt>
      <trkpt lat="43.5273" lon="5.51094">
        <ele>285</ele>
        <time>2018-02-20T08:40:33.000Z</time>
      </trkpt>
      <trkpt lat="43.52728" lon="5.51093">
        <ele>285</ele>
        <time>2018-02-20T08:40:34.000Z</time>
      </trkpt>
      <trkpt lat="43.52727" lon="5.51093">
        <ele>285</ele>
        <time>2018-02-20T08:40:35.000Z</time>
      </trkpt>
      <trkpt lat="43.52726" lon="5.51092">
        <ele>285</ele>
        <time>2018-02-20T08:40:36.000Z</time>
      </trkpt>
      <trkpt lat="43.52725" lon="5.51091">
        <ele>285</ele>
        <time>2018-02-20T08:40:37.000Z</time>
      </trkpt>
      <trkpt lat="43.52724" lon="5.5109">
        <ele>285</ele>
        <time>2018-02-20T08:40:38.000Z</time>
      </trkpt>
      <trkpt lat="43.52723" lon="5.51089">
        <ele>285</ele>
        <time>2018-02-20T08:40:39.000Z</time>
      </trkpt>
      <trkpt lat="43.52722" lon="5.51088">
        <ele>284</ele>
        <time>2018-02-20T08:40:40.000Z</time>
      </trkpt>
      <trkpt lat="43.52721" lon="5.51087">
        <ele>284</ele>
        <time>2018-02-20T08:40:41.000Z</time>
      </trkpt>
      <trkpt lat="43.5272" lon="5.51086">
        <ele>284</ele>
        <time>2018-02-20T08:40:42.000Z</time>
      </trkpt>
      <trkpt lat="43.52719" lon="5.51085">
        <ele>284</ele>
        <time>2018-02-20T08:40:43.000Z</time>
      </trkpt>
      <trkpt lat="43.52718" lon="5.51084">
        <ele>284</ele>
        <time>2018-02-20T08:40:44.000Z</time>
      </trkpt>
      <trkpt lat="43.52717" lon="5.51083">
        <ele>283</ele>
        <time>2018-02-20T08:40:45.000Z</time>
      </trkpt>
      <trkpt lat="43.52716" lon="5.51082">
        <ele>283</ele>
        <time>2018-02-20T08:40:46.000Z</time>
      </trkpt>
      <trkpt lat="43.52716" lon="5.51081">
        <ele>283</ele>
        <time>2018-02-20T08:40:47.000Z</time>
      </trkpt>
      <trkpt lat="43.52715" lon="5.51081">
        <ele>283</ele>
        <time>2018-02-20T08:40:48.000Z</time>
      </trkpt>
      <trkpt lat="43.52715" lon="5.51081">
        <ele>283</ele>
        <time>2018-02-20T08:40:49.000Z</time>
      </trkpt>
      <trkpt lat="43.52715" lon="5.5108">
        <ele>283</ele>
        <time>2018-02-20T08:40:50.000Z</time>
      </trkpt>
      <trkpt lat="43.52715" lon="5.51079">
        <ele>283</ele>
        <time>2018-02-20T08:40:51.000Z</time>
      </trkpt>
      <trkpt lat="43.52716" lon="5.51079">
        <ele>283</ele>
        <time>2018-02-20T08:40:52.000Z</time>
      </trkpt>
      <trkpt lat="43.52716" lon="5.51079">
        <ele>283</ele>
        <time>2018-02-20T08:40:53.000Z</time>
      </trkpt>
      <trkpt lat="43.52716" lon="5.51079">
        <ele>283</ele>
        <time>2018-02-20T08:40:54.000Z</time>
      </trkpt>
      <trkpt lat="43.52716" lon="5.51079">
        <ele>283</ele>
        <time>2018-02-20T08:40:55.000Z</time>
      </trkpt>
      <trkpt lat="43.52716" lon="5.51078">
        <ele>283</ele>
        <time>2018-02-20T08:40:56.000Z</time>
      </trkpt>
      <trkpt lat="43.52716" lon="5.51078">
        <ele>282</ele>
        <time>2018-02-20T08:40:57.000Z</time>
      </trkpt>
      <trkpt lat="43.52716" lon="5.51077">
        <ele>282</ele>
        <time>2018-02-20T08:40:58.000Z</time>
      </trkpt>
      <trkpt lat="43.52716" lon="5.51076">
        <ele>282</ele>
        <time>2018-02-20T08:40:59.000Z</time>
      </trkpt>
      <trkpt lat="43.52715" lon="5.51075">
        <ele>282</ele>
        <time>2018-02-20T08:41:00.000Z</time>
      </trkpt>
      <trkpt lat="43.52715" lon="5.51074">
        <ele>282</ele>
        <time>2018-02-20T08:41:01.000Z</time>
      </trkpt>
      <trkpt lat="43.52715" lon="5.51073">
        <ele>282</ele>
        <time>2018-02-20T08:41:02.000Z</time>
      </trkpt>
      <trkpt lat="43.52716" lon="5.51073">
        <ele>282</ele>
        <time>2018-02-20T08:41:03.000Z</time>
      </trkpt>
      <trkpt lat="43.52716" lon="5.51072">
        <ele>281</ele>
        <time>2018-02-20T08:41:04.000Z</time>
      </trkpt>
      <trkpt lat="43.52716" lon="5.51071">
        <ele>281</ele>
        <time>2018-02-20T08:41:05.000Z</time>
      </trkpt>
      <trkpt lat="43.52716" lon="5.51071">
        <ele>281</ele>
        <time>2018-02-20T08:41:06.000Z</time>
      </trkpt>
      <trkpt lat="43.52716" lon="5.51071">
        <ele>281</ele>
        <time>2018-02-20T08:41:07.000Z</time>
      </trkpt>
      <trkpt lat="43.52716" lon="5.5107">
        <ele>281</ele>
        <time>2018-02-20T08:41:08.000Z</time>
      </trkpt>
      <trkpt lat="43.52715" lon="5.5107">
        <ele>281</ele>
        <time>2018-02-20T08:41:09.000Z</time>
      </trkpt>
      <trkpt lat="43.52714" lon="5.51069">
        <ele>281</ele>
        <time>2018-02-20T08:41:10.000Z</time>
      </trkpt>
      <trkpt lat="43.52714" lon="5.51068">
        <ele>280</ele>
        <time>2018-02-20T08:41:11.000Z</time>
      </trkpt>
      <trkpt lat="43.52713" lon="5.51067">
        <ele>280</ele>
        <time>2018-02-20T08:41:12.000Z</time>
      </trkpt>
      <trkpt lat="43.52713" lon="5.51066">
        <ele>280</ele>
        <time>2018-02-20T08:41:13.000Z</time>
      </trkpt>
      <trkpt lat="43.52713" lon="5.51065">
        <ele>280</ele>
        <time>2018-02-20T08:41:14.000Z</time>
      </trkpt>
      <trkpt lat="43.52712" lon="5.51063">
        <ele>280</ele>
        <time>2018-02-20T08:41:15.000Z</time>
      </trkpt>
      <trkpt lat="43.52712" lon="5.51062">
        <ele>279</ele>
        <time>2018-02-20T08:41:16.000Z</time>
      </trkpt>
      <trkpt lat="43.52712" lon="5.5106">
        <ele>279</ele>
        <time>2018-02-20T08:41:17.000Z</time>
      </trkpt>
      <trkpt lat="43.52711" lon="5.51059">
        <ele>279</ele>
        <time>2018-02-20T08:41:18.000Z</time>
      </trkpt>
      <trkpt lat="43.52711" lon="5.51058">
        <ele>279</ele>
        <time>2018-02-20T08:41:19.000Z</time>
      </trkpt>
      <trkpt lat="43.5271" lon="5.51057">
        <ele>279</ele>
        <time>2018-02-20T08:41:20.000Z</time>
      </trkpt>
      <trkpt lat="43.5271" lon="5.51057">
        <ele>278</ele>
        <time>2018-02-20T08:41:21.000Z</time>
      </trkpt>
      <trkpt lat="43.52709" lon="5.51056">
        <ele>278</ele>
        <time>2018-02-20T08:41:22.000Z</time>
      </trkpt>
      <trkpt lat="43.52708" lon="5.51056">
        <ele>278</ele>
        <time>2018-02-20T08:41:23.000Z</time>
      </trkpt>
      <trkpt lat="43.52707" lon="5.51055">
        <ele>278</ele>
        <time>2018-02-20T08:41:24.000Z</time>
      </trkpt>
      <trkpt lat="43.52706" lon="5.51055">
        <ele>277</ele>
        <time>2018-02-20T08:41:25.000Z</time>
      </trkpt>
      <trkpt lat="43.52706" lon="5.51055">
        <ele>277</ele>
        <time>2018-02-20T08:41:26.000Z</time>
      </trkpt>
      <trkpt lat="43.52705" lon="5.51055">
        <ele>277</ele>
        <time>2018-02-20T08:41:27.000Z</time>
      </trkpt>
      <trkpt lat="43.52705" lon="5.51055">
        <ele>277</ele>
        <time>2018-02-20T08:41:28.000Z</time>
      </trkpt>
      <trkpt lat="43.52705" lon="5.51055">
        <ele>277</ele>
        <time>2018-02-20T08:41:29.000Z</time>
      </trkpt>
      <trkpt lat="43.52704" lon="5.51055">
        <ele>277</ele>
        <time>2018-02-20T08:41:30.000Z</time>
      </trkpt>
      <trkpt lat="43.52704" lon="5.51055">
        <ele>277</ele>
        <time>2018-02-20T08:41:31.000Z</time>
      </trkpt>
      <trkpt lat="43.52704" lon="5.51055">
        <ele>277</ele>
        <time>2018-02-20T08:41:32.000Z</time>
      </trkpt>
      <trkpt lat="43.52704" lon="5.51055">
        <ele>277</ele>
        <time>2018-02-20T08:41:33.000Z</time>
      </trkpt>
      <trkpt lat="43.52704" lon="5.51055">
        <ele>277</ele>
        <time>2018-02-20T08:41:34.000Z</time>
      </trkpt>
      <trkpt lat="43.52704" lon="5.51055">
        <ele>276</ele>
        <time>2018-02-20T08:41:35.000Z</time>
      </trkpt>
      <trkpt lat="43.52704" lon="5.51055">
        <ele>276</ele>
        <time>2018-02-20T08:41:36.000Z</time>
      </trkpt>
      <trkpt lat="43.52704" lon="5.51056">
        <ele>276</ele>
        <time>2018-02-20T08:41:37.000Z</time>
      </trkpt>
      <trkpt lat="43.52704" lon="5.51056">
        <ele>276</ele>
        <time>2018-02-20T08:41:38.000Z</time>
      </trkpt>
      <trkpt lat="43.52704" lon="5.51056">
        <ele>276</ele>
        <time>2018-02-20T08:41:39.000Z</time>
      </trkpt>
      <trkpt lat="43.52704" lon="5.51056">
        <ele>276</ele>
        <time>2018-02-20T08:41:40.000Z</time>
      </trkpt>
      <trkpt lat="43.52704" lon="5.51056">
        <ele>276</ele>
        <time>2018-02-20T08:41:41.000Z</time>
      </trkpt>
      <trkpt lat="43.52704" lon="5.51056">
        <ele>276</ele>
        <time>2018-02-20T08:41:42.000Z</time>
      </trkpt>
      <trkpt lat="43.52704" lon="5.51055">
        <ele>276</ele>
        <time>2018-02-20T08:41:43.000Z</time>
      </trkpt>
      <trkpt lat="43.52704" lon="5.51055">
        <ele>276</ele>
        <time>2018-02-20T08:41:44.000Z</time>
      </trkpt>
      <trkpt lat="43.52705" lon="5.51055">
        <ele>276</ele>
        <time>2018-02-20T08:41:45.000Z</time>
      </trkpt>
      <trkpt lat="43.52705" lon="5.51054">
        <ele>276</ele>
        <time>2018-02-20T08:41:46.000Z</time>
      </trkpt>
      <trkpt lat="43.52706" lon="5.51054">
        <ele>276</ele>
        <time>2018-02-20T08:41:47.000Z</time>
      </trkpt>
      <trkpt lat="43.52707" lon="5.51054">
        <ele>276</ele>
        <time>2018-02-20T08:41:48.000Z</time>
      </trkpt>
      <trkpt lat="43.52707" lon="5.51053">
        <ele>276</ele>
        <time>2018-02-20T08:41:49.000Z</time>
      </trkpt>
      <trkpt lat="43.52708" lon="5.51053">
        <ele>275</ele>
        <time>2018-02-20T08:41:50.000Z</time>
      </trkpt>
      <trkpt lat="43.52708" lon="5.51052">
        <ele>275</ele>
        <time>2018-02-20T08:41:51.000Z</time>
      </trkpt>
      <trkpt lat="43.52708" lon="5.51051">
        <ele>275</ele>
        <time>2018-02-20T08:41:52.000Z</time>
      </trkpt>
      <trkpt lat="43.52708" lon="5.5105">
        <ele>275</ele>
        <time>2018-02-20T08:41:53.000Z</time>
      </trkpt>
      <trkpt lat="43.52708" lon="5.51049">
        <ele>275</ele>
        <time>2018-02-20T08:41:54.000Z</time>
      </trkpt>
      <trkpt lat="43.52708" lon="5.51048">
        <ele>275</ele>
        <time>2018-02-20T08:41:55.000Z</time>
      </trkpt>
      <trkpt lat="43.52709" lon="5.51047">
        <ele>275</ele>
        <time>2018-02-20T08:41:56.000Z</time>
      </trkpt>
      <trkpt lat="43.52709" lon="5.51046">
        <ele>275</ele>
        <time>2018-02-20T08:41:57.000Z</time>
      </trkpt>
      <trkpt lat="43.52709" lon="5.51045">
        <ele>275</ele>
        <time>2018-02-20T08:41:58.000Z</time>
      </trkpt>
      <trkpt lat="43.52709" lon="5.51044">
        <ele>274</ele>
        <time>2018-02-20T08:41:59.000Z</time>
      </trkpt>
      <trkpt lat="43.52709" lon="5.51043">
        <ele>274</ele>
        <time>2018-02-20T08:42:00.000Z</time>
      </trkpt>
      <trkpt lat="43.52709" lon="5.51042">
        <ele>274</ele>
        <time>2018-02-20T08:42:01.000Z</time>
      </trkpt>
      <trkpt lat="43.52709" lon="5.51041">
        <ele>274</ele>
        <time>2018-02-20T08:42:02.000Z</time>
      </trkpt>
      <trkpt lat="43.52709" lon="5.51041">
        <ele>274</ele>
        <time>2018-02-20T08:42:03.000Z</time>
      </trkpt>
      <trkpt lat="43.52709" lon="5.51041">
        <ele>274</ele>
        <time>2018-02-20T08:42:04.000Z</time>
      </trkpt>
      <trkpt lat="43.52709" lon="5.51041">
        <ele>274</ele>
        <time>2018-02-20T08:42:05.000Z</time>
      </trkpt>
      <trkpt lat="43.52709" lon="5.51041">
        <ele>274</ele>
        <time>2018-02-20T08:42:06.000Z</time>
      </trkpt>
      <trkpt lat="43.52709" lon="5.51041">
        <ele>274</ele>
        <time>2018-02-20T08:42:07.000Z</time>
      </trkpt>
      <trkpt lat="43.52709" lon="5.51041">
        <ele>274</ele>
        <time>2018-02-20T08:42:08.000Z</time>
      </trkpt>
      <trkpt lat="43.52709" lon="5.5104">
        <ele>274</ele>
        <time>2018-02-20T08:42:09.000Z</time>
      </trkpt>
      <trkpt lat="43.52709" lon="5.5104">
        <ele>274</ele>
        <time>2018-02-20T08:42:10.000Z</time>
      </trkpt>
      <trkpt lat="43.52709" lon="5.5104">
        <ele>274</ele>
        <time>2018-02-20T08:42:11.000Z</time>
      </trkpt>
      <trkpt lat="43.52709" lon="5.5104">
        <ele>274</ele>
        <time>2018-02-20T08:42:12.000Z</time>
      </trkpt>
      <trkpt lat="43.52709" lon="5.5104">
        <ele>274</ele>
        <time>2018-02-20T08:42:13.000Z</time>
      </trkpt>
      <trkpt lat="43.52709" lon="5.51039">
        <ele>274</ele>
        <time>2018-02-20T08:42:14.000Z</time>
      </trkpt>
      <trkpt lat="43.52709" lon="5.51038">
        <ele>274</ele>
        <time>2018-02-20T08:42:15.000Z</time>
      </trkpt>
      <trkpt lat="43.52709" lon="5.51037">
        <ele>274</ele>
        <time>2018-02-20T08:42:16.000Z</time>
      </trkpt>
      <trkpt lat="43.52709" lon="5.51036">
        <ele>274</ele>
        <time>2018-02-20T08:42:17.000Z</time>
      </trkpt>
      <trkpt lat="43.52708" lon="5.51035">
        <ele>274</ele>
        <time>2018-02-20T08:42:18.000Z</time>
      </trkpt>
      <trkpt lat="43.52708" lon="5.51035">
        <ele>273</ele>
        <time>2018-02-20T08:42:19.000Z</time>
      </trkpt>
      <trkpt lat="43.52708" lon="5.51034">
        <ele>273</ele>
        <time>2018-02-20T08:42:20.000Z</time>
      </trkpt>
      <trkpt lat="43.52708" lon="5.51034">
        <ele>273</ele>
        <time>2018-02-20T08:42:21.000Z</time>
      </trkpt>
      <trkpt lat="43.52709" lon="5.51034">
        <ele>273</ele>
        <time>2018-02-20T08:42:22.000Z</time>
      </trkpt>
      <trkpt lat="43.52709" lon="5.51033">
        <ele>273</ele>
        <time>2018-02-20T08:42:23.000Z</time>
      </trkpt>
      <trkpt lat="43.52709" lon="5.51032">
        <ele>273</ele>
        <time>2018-02-20T08:42:24.000Z</time>
      </trkpt>
      <trkpt lat="43.52709" lon="5.51031">
        <ele>273</ele>
        <time>2018-02-20T08:42:25.000Z</time>
      </trkpt>
      <trkpt lat="43.52709" lon="5.51031">
        <ele>273</ele>
        <time>2018-02-20T08:42:26.000Z</time>
      </trkpt>
      <trkpt lat="43.52709" lon="5.5103">
        <ele>273</ele>
        <time>2018-02-20T08:42:27.000Z</time>
      </trkpt>
      <trkpt lat="43.52709" lon="5.51029">
        <ele>273</ele>
        <time>2018-02-20T08:42:28.000Z</time>
      </trkpt>
      <trkpt lat="43.52708" lon="5.51028">
        <ele>272</ele>
        <time>2018-02-20T08:42:29.000Z</time>
      </trkpt>
      <trkpt lat="43.52708" lon="5.51028">
        <ele>272</ele>
        <time>2018-02-20T08:42:30.000Z</time>
      </trkpt>
      <trkpt lat="43.52707" lon="5.51027">
        <ele>272</ele>
        <time>2018-02-20T08:42:31.000Z</time>
      </trkpt>
      <trkpt lat="43.52707" lon="5.51027">
        <ele>272</ele>
        <time>2018-02-20T08:42:32.000Z</time>
      </trkpt>
      <trkpt lat="43.52706" lon="5.51026">
        <ele>272</ele>
        <time>2018-02-20T08:42:33.000Z</time>
      </trkpt>
      <trkpt lat="43.52705" lon="5.51025">
        <ele>272</ele>
        <time>2018-02-20T08:42:34.000Z</time>
      </trkpt>
      <trkpt lat="43.52705" lon="5.51025">
        <ele>272</ele>
        <time>2018-02-20T08:42:35.000Z</time>
      </trkpt>
      <trkpt lat="43.52704" lon="5.51024">
        <ele>272</ele>
        <time>2018-02-20T08:42:36.000Z</time>
      </trkpt>
      <trkpt lat="43.52704" lon="5.51023">
        <ele>272</ele>
        <time>2018-02-20T08:42:37.000Z</time>
      </trkpt>
      <trkpt lat="43.52703" lon="5.51023">
        <ele>271</ele>
        <time>2018-02-20T08:42:38.000Z</time>
      </trkpt>
      <trkpt lat="43.52703" lon="5.51021">
        <ele>271</ele>
        <time>2018-02-20T08:42:39.000Z</time>
      </trkpt>
      <trkpt lat="43.52703" lon="5.5102">
        <ele>271</ele>
        <time>2018-02-20T08:42:40.000Z</time>
      </trkpt>
      <trkpt lat="43.52703" lon="5.51019">
        <ele>271</ele>
        <time>2018-02-20T08:42:41.000Z</time>
      </trkpt>
      <trkpt lat="43.52702" lon="5.51018">
        <ele>271</ele>
        <time>2018-02-20T08:42:42.000Z</time>
      </trkpt>
      <trkpt lat="43.52701" lon="5.51017">
        <ele>271</ele>
        <time>2018-02-20T08:42:43.000Z</time>
      </trkpt>
      <trkpt lat="43.527" lon="5.51016">
        <ele>271</ele>
        <time>2018-02-20T08:42:44.000Z</time>
      </trkpt>
      <trkpt lat="43.52699" lon="5.51014">
        <ele>270</ele>
        <time>2018-02-20T08:42:45.000Z</time>
      </trkpt>
      <trkpt lat="43.52699" lon="5.51013">
        <ele>270</ele>
        <time>2018-02-20T08:42:46.000Z</time>
      </trkpt>
      <trkpt lat="43.52698" lon="5.51012">
        <ele>270</ele>
        <time>2018-02-20T08:42:47.000Z</time>
      </trkpt>
      <trkpt lat="43.52698" lon="5.51011">
        <ele>270</ele>
        <time>2018-02-20T08:42:48.000Z</time>
      </trkpt>
      <trkpt lat="43.52698" lon="5.51011">
        <ele>270</ele>
        <time>2018-02-20T08:42:49.000Z</time>
      </trkpt>
      <trkpt lat="43.52698" lon="5.51011">
        <ele>270</ele>
        <time>2018-02-20T08:42:50.000Z</time>
      </trkpt>
      <trkpt lat="43.52698" lon="5.51011">
        <ele>270</ele>
        <time>2018-02-20T08:42:51.000Z</time>
      </trkpt>
      <trkpt lat="43.52698" lon="5.51011">
        <ele>270</ele>
        <time>2018-02-20T08:42:52.000Z</time>
      </trkpt>
      <trkpt lat="43.52698" lon="5.51011">
        <ele>270</ele>
        <time>2018-02-20T08:42:53.000Z</time>
      </trkpt>
      <trkpt lat="43.52698" lon="5.51011">
        <ele>270</ele>
        <time>2018-02-20T08:42:54.000Z</time>
      </trkpt>
      <trkpt lat="43.52698" lon="5.5101">
        <ele>270</ele>
        <time>2018-02-20T08:42:55.000Z</time>
      </trkpt>
      <trkpt lat="43.52698" lon="5.5101">
        <ele>269</ele>
        <time>2018-02-20T08:42:56.000Z</time>
      </trkpt>
      <trkpt lat="43.52698" lon="5.5101">
        <ele>269</ele>
        <time>2018-02-20T08:42:57.000Z</time>
      </trkpt>
      <trkpt lat="43.52698" lon="5.51009">
        <ele>269</ele>
        <time>2018-02-20T08:42:58.000Z</time>
      </trkpt>
      <trkpt lat="43.52698" lon="5.51008">
        <ele>269</ele>
        <time>2018-02-20T08:42:59.000Z</time>
      </trkpt>
      <trkpt lat="43.52698" lon="5.51007">
        <ele>269</ele>
        <time>2018-02-20T08:43:00.000Z</time>
      </trkpt>
      <trkpt lat="43.52698" lon="5.51006">
        <ele>268</ele>
        <time>2018-02-20T08:43:01.000Z</time>
      </trkpt>
      <trkpt lat="43.52698" lon="5.51006">
        <ele>268</ele>
        <time>2018-02-20T08:43:02.000Z</time>
      </trkpt>
      <trkpt lat="43.52697" lon="5.51005">
        <ele>268</ele>
        <time>2018-02-20T08:43:03.000Z</time>
      </trkpt>
      <trkpt lat="43.52697" lon="5.51004">
        <ele>268</ele>
        <time>2018-02-20T08:43:04.000Z</time>
      </trkpt>
      <trkpt lat="43.52697" lon="5.51003">
        <ele>268</ele>
        <time>2018-02-20T08:43:05.000Z</time>
      </trkpt>
      <trkpt lat="43.52696" lon="5.51002">
        <ele>268</ele>
        <time>2018-02-20T08:43:06.000Z</time>
      </trkpt>
      <trkpt lat="43.52696" lon="5.51001">
        <ele>268</ele>
        <time>2018-02-20T08:43:07.000Z</time>
      </trkpt>
      <trkpt lat="43.52696" lon="5.51001">
        <ele>268</ele>
        <time>2018-02-20T08:43:08.000Z</time>
      </trkpt>
      <trkpt lat="43.52696" lon="5.51001">
        <ele>267</ele>
        <time>2018-02-20T08:43:09.000Z</time>
      </trkpt>
      <trkpt lat="43.52696" lon="5.51001">
        <ele>267</ele>
        <time>2018-02-20T08:43:10.000Z</time>
      </trkpt>
      <trkpt lat="43.52696" lon="5.51001">
        <ele>267</ele>
        <time>2018-02-20T08:43:11.000Z</time>
      </trkpt>
      <trkpt lat="43.52696" lon="5.51001">
        <ele>267</ele>
        <time>2018-02-20T08:43:12.000Z</time>
      </trkpt>
      <trkpt lat="43.52696" lon="5.51001">
        <ele>267</ele>
        <time>2018-02-20T08:43:13.000Z</time>
      </trkpt>
      <trkpt lat="43.52696" lon="5.51001">
        <ele>267</ele>
        <time>2018-02-20T08:43:14.000Z</time>
      </trkpt>
      <trkpt lat="43.52696" lon="5.51001">
        <ele>267</ele>
        <time>2018-02-20T08:43:15.000Z</time>
      </trkpt>
      <trkpt lat="43.52696" lon="5.51001">
        <ele>267</ele>
        <time>2018-02-20T08:43:16.000Z</time>
      </trkpt>
      <trkpt lat="43.52696" lon="5.51001">
        <ele>267</ele>
        <time>2018-02-20T08:43:17.000Z</time>
      </trkpt>
      <trkpt lat="43.52696" lon="5.51001">
        <ele>266</ele>
        <time>2018-02-20T08:43:18.000Z</time>
      </trkpt>
      <trkpt lat="43.52697" lon="5.51002">
        <ele>266</ele>
        <time>2018-02-20T08:43:19.000Z</time>
      </trkpt>
      <trkpt lat="43.52697" lon="5.51002">
        <ele>266</ele>
        <time>2018-02-20T08:43:20.000Z</time>
      </trkpt>
      <trkpt lat="43.52697" lon="5.51002">
        <ele>266</ele>
        <time>2018-02-20T08:43:21.000Z</time>
      </trkpt>
      <trkpt lat="43.52697" lon="5.51002">
        <ele>266</ele>
        <time>2018-02-20T08:43:22.000Z</time>
      </trkpt>
      <trkpt lat="43.52697" lon="5.51001">
        <ele>266</ele>
        <time>2018-02-20T08:43:23.000Z</time>
      </trkpt>
      <trkpt lat="43.52697" lon="5.51">
        <ele>266</ele>
        <time>2018-02-20T08:43:24.000Z</time>
      </trkpt>
      <trkpt lat="43.52697" lon="5.50999">
        <ele>266</ele>
        <time>2018-02-20T08:43:25.000Z</time>
      </trkpt>
      <trkpt lat="43.52697" lon="5.50999">
        <ele>265</ele>
        <time>2018-02-20T08:43:26.000Z</time>
      </trkpt>
      <trkpt lat="43.52697" lon="5.50999">
        <ele>265</ele>
        <time>2018-02-20T08:43:27.000Z</time>
      </trkpt>
      <trkpt lat="43.52697" lon="5.50998">
        <ele>265</ele>
        <time>2018-02-20T08:43:28.000Z</time>
      </trkpt>
      <trkpt lat="43.52697" lon="5.50998">
        <ele>265</ele>
        <time>2018-02-20T08:43:29.000Z</time>
      </trkpt>
      <trkpt lat="43.52697" lon="5.50998">
        <ele>265</ele>
        <time>2018-02-20T08:43:30.000Z</time>
      </trkpt>
      <trkpt lat="43.52697" lon="5.50998">
        <ele>265</ele>
        <time>2018-02-20T08:43:31.000Z</time>
      </trkpt>
      <trkpt lat="43.52697" lon="5.50998">
        <ele>265</ele>
        <time>2018-02-20T08:43:32.000Z</time>
      </trkpt>
      <trkpt lat="43.52698" lon="5.50997">
        <ele>265</ele>
        <time>2018-02-20T08:43:33.000Z</time>
      </trkpt>
      <trkpt lat="43.52698" lon="5.50997">
        <ele>265</ele>
        <time>2018-02-20T08:43:34.000Z</time>
      </trkpt>
      <trkpt lat="43.52698" lon="5.50996">
        <ele>265</ele>
        <time>2018-02-20T08:43:35.000Z</time>
      </trkpt>
      <trkpt lat="43.52699" lon="5.50995">
        <ele>265</ele>
        <time>2018-02-20T08:43:36.000Z</time>
      </trkpt>
      <trkpt lat="43.52699" lon="5.50994">
        <ele>265</ele>
        <time>2018-02-20T08:43:37.000Z</time>
      </trkpt>
      <trkpt lat="43.52699" lon="5.50992">
        <ele>265</ele>
        <time>2018-02-20T08:43:38.000Z</time>
      </trkpt>
      <trkpt lat="43.52699" lon="5.50992">
        <ele>264</ele>
        <time>2018-02-20T08:43:39.000Z</time>
      </trkpt>
      <trkpt lat="43.52699" lon="5.50991">
        <ele>264</ele>
        <time>2018-02-20T08:43:40.000Z</time>
      </trkpt>
      <trkpt lat="43.52699" lon="5.5099">
        <ele>264</ele>
        <time>2018-02-20T08:43:41.000Z</time>
      </trkpt>
      <trkpt lat="43.52698" lon="5.50989">
        <ele>264</ele>
        <time>2018-02-20T08:43:42.000Z</time>
      </trkpt>
      <trkpt lat="43.52698" lon="5.50989">
        <ele>264</ele>
        <time>2018-02-20T08:43:43.000Z</time>
      </trkpt>
      <trkpt lat="43.52698" lon="5.50988">
        <ele>264</ele>
        <time>2018-02-20T08:43:44.000Z</time>
      </trkpt>
      <trkpt lat="43.52699" lon="5.50987">
        <ele>263</ele>
        <time>2018-02-20T08:43:45.000Z</time>
      </trkpt>
      <trkpt lat="43.52699" lon="5.50986">
        <ele>263</ele>
        <time>2018-02-20T08:43:46.000Z</time>
      </trkpt>
      <trkpt lat="43.52699" lon="5.50984">
        <ele>263</ele>
        <time>2018-02-20T08:43:47.000Z</time>
      </trkpt>
      <trkpt lat="43.52699" lon="5.50983">
        <ele>263</ele>
        <time>2018-02-20T08:43:48.000Z</time>
      </trkpt>
      <trkpt lat="43.52699" lon="5.50981">
        <ele>263</ele>
        <time>2018-02-20T08:43:49.000Z</time>
      </trkpt>
      <trkpt lat="43.52699" lon="5.5098">
        <ele>263</ele>
        <time>2018-02-20T08:43:50.000Z</time>
      </trkpt>
      <trkpt lat="43.52699" lon="5.50978">
        <ele>263</ele>
        <time>2018-02-20T08:43:51.000Z</time>
      </trkpt>
      <trkpt lat="43.52699" lon="5.50977">
        <ele>263</ele>
        <time>2018-02-20T08:43:52.000Z</time>
      </trkpt>
      <trkpt lat="43.52699" lon="5.50975">
        <ele>263</ele>
        <time>2018-02-20T08:43:53.000Z</time>
      </trkpt>
      <trkpt lat="43.52699" lon="5.50974">
        <ele>262</ele>
        <time>2018-02-20T08:43:54.000Z</time>
      </trkpt>
      <trkpt lat="43.52699" lon="5.50973">
        <ele>262</ele>
        <time>2018-02-20T08:43:55.000Z</time>
      </trkpt>
      <trkpt lat="43.52699" lon="5.50971">
        <ele>262</ele>
        <time>2018-02-20T08:43:56.000Z</time>
      </trkpt>
      <trkpt lat="43.52699" lon="5.5097">
        <ele>262</ele>
        <time>2018-02-20T08:43:57.000Z</time>
      </trkpt>
      <trkpt lat="43.52698" lon="5.50969">
        <ele>262</ele>
        <time>2018-02-20T08:43:58.000Z</time>
      </trkpt>
      <trkpt lat="43.52698" lon="5.50968">
        <ele>261</ele>
        <time>2018-02-20T08:43:59.000Z</time>
      </trkpt>
      <trkpt lat="43.52697" lon="5.50967">
        <ele>261</ele>
        <time>2018-02-20T08:44:00.000Z</time>
      </trkpt>
      <trkpt lat="43.52697" lon="5.50966">
        <ele>261</ele>
        <time>2018-02-20T08:44:01.000Z</time>
      </trkpt>
      <trkpt lat="43.52698" lon="5.50965">
        <ele>261</ele>
        <time>2018-02-20T08:44:02.000Z</time>
      </trkpt>
      <trkpt lat="43.52698" lon="5.50965">
        <ele>261</ele>
        <time>2018-02-20T08:44:03.000Z</time>
      </trkpt>
      <trkpt lat="43.52698" lon="5.50965">
        <ele>261</ele>
        <time>2018-02-20T08:44:04.000Z</time>
      </trkpt>
      <trkpt lat="43.52698" lon="5.50965">
        <ele>261</ele>
        <time>2018-02-20T08:44:05.000Z</time>
      </trkpt>
      <trkpt lat="43.52698" lon="5.50965">
        <ele>261</ele>
        <time>2018-02-20T08:44:06.000Z</time>
      </trkpt>
      <trkpt lat="43.52698" lon="5.50964">
        <ele>261</ele>
        <time>2018-02-20T08:44:07.000Z</time>
      </trkpt>
      <trkpt lat="43.52698" lon="5.50964">
        <ele>261</ele>
        <time>2018-02-20T08:44:08.000Z</time>
      </trkpt>
      <trkpt lat="43.52698" lon="5.50964">
        <ele>260</ele>
        <time>2018-02-20T08:44:09.000Z</time>
      </trkpt>
      <trkpt lat="43.52697" lon="5.50963">
        <ele>260</ele>
        <time>2018-02-20T08:44:10.000Z</time>
      </trkpt>
      <trkpt lat="43.52697" lon="5.50963">
        <ele>260</ele>
        <time>2018-02-20T08:44:11.000Z</time>
      </trkpt>
      <trkpt lat="43.52696" lon="5.50962">
        <ele>260</ele>
        <time>2018-02-20T08:44:12.000Z</time>
      </trkpt>
      <trkpt lat="43.52696" lon="5.50961">
        <ele>260</ele>
        <time>2018-02-20T08:44:13.000Z</time>
      </trkpt>
      <trkpt lat="43.52695" lon="5.50961">
        <ele>259</ele>
        <time>2018-02-20T08:44:14.000Z</time>
      </trkpt>
      <trkpt lat="43.52695" lon="5.5096">
        <ele>259</ele>
        <time>2018-02-20T08:44:15.000Z</time>
      </trkpt>
      <trkpt lat="43.52695" lon="5.50959">
        <ele>259</ele>
        <time>2018-02-20T08:44:16.000Z</time>
      </trkpt>
      <trkpt lat="43.52695" lon="5.50959">
        <ele>259</ele>
        <time>2018-02-20T08:44:17.000Z</time>
      </trkpt>
      <trkpt lat="43.52695" lon="5.50959">
        <ele>259</ele>
        <time>2018-02-20T08:44:18.000Z</time>
      </trkpt>
      <trkpt lat="43.52695" lon="5.50959">
        <ele>259</ele>
        <time>2018-02-20T08:44:19.000Z</time>
      </trkpt>
      <trkpt lat="43.52695" lon="5.50958">
        <ele>258</ele>
        <time>2018-02-20T08:44:20.000Z</time>
      </trkpt>
      <trkpt lat="43.52695" lon="5.50958">
        <ele>258</ele>
        <time>2018-02-20T08:44:21.000Z</time>
      </trkpt>
      <trkpt lat="43.52695" lon="5.50957">
        <ele>258</ele>
        <time>2018-02-20T08:44:22.000Z</time>
      </trkpt>
      <trkpt lat="43.52695" lon="5.50957">
        <ele>258</ele>
        <time>2018-02-20T08:44:23.000Z</time>
      </trkpt>
      <trkpt lat="43.52695" lon="5.50957">
        <ele>258</ele>
        <time>2018-02-20T08:44:24.000Z</time>
      </trkpt>
      <trkpt lat="43.52695" lon="5.50957">
        <ele>258</ele>
        <time>2018-02-20T08:44:25.000Z</time>
      </trkpt>
      <trkpt lat="43.52695" lon="5.50957">
        <ele>258</ele>
        <time>2018-02-20T08:44:26.000Z</time>
      </trkpt>
      <trkpt lat="43.52695" lon="5.50957">
        <ele>258</ele>
        <time>2018-02-20T08:44:27.000Z</time>
      </trkpt>
      <trkpt lat="43.52695" lon="5.50957">
        <ele>258</ele>
        <time>2018-02-20T08:44:28.000Z</time>
      </trkpt>
      <trkpt lat="43.52695" lon="5.50956">
        <ele>258</ele>
        <time>2018-02-20T08:44:29.000Z</time>
      </trkpt>
      <trkpt lat="43.52695" lon="5.50957">
        <ele>258</ele>
        <time>2018-02-20T08:44:30.000Z</time>
      </trkpt>
      <trkpt lat="43.52695" lon="5.50957">
        <ele>258</ele>
        <time>2018-02-20T08:44:31.000Z</time>
      </trkpt>
      <trkpt lat="43.52695" lon="5.50956">
        <ele>258</ele>
        <time>2018-02-20T08:44:32.000Z</time>
      </trkpt>
      <trkpt lat="43.52695" lon="5.50956">
        <ele>258</ele>
        <time>2018-02-20T08:44:33.000Z</time>
      </trkpt>
      <trkpt lat="43.52695" lon="5.50956">
        <ele>258</ele>
        <time>2018-02-20T08:44:34.000Z</time>
      </trkpt>
      <trkpt lat="43.52695" lon="5.50955">
        <ele>258</ele>
        <time>2018-02-20T08:44:35.000Z</time>
      </trkpt>
      <trkpt lat="43.52695" lon="5.50955">
        <ele>258</ele>
        <time>2018-02-20T08:44:36.000Z</time>
      </trkpt>
      <trkpt lat="43.52696" lon="5.50955">
        <ele>258</ele>
        <time>2018-02-20T08:44:37.000Z</time>
      </trkpt>
      <trkpt lat="43.52696" lon="5.50955">
        <ele>258</ele>
        <time>2018-02-20T08:44:38.000Z</time>
      </trkpt>
      <trkpt lat="43.52696" lon="5.50955">
        <ele>258</ele>
        <time>2018-02-20T08:44:39.000Z</time>
      </trkpt>
      <trkpt lat="43.52696" lon="5.50955">
        <ele>258</ele>
        <time>2018-02-20T08:44:40.000Z</time>
      </trkpt>
      <trkpt lat="43.52696" lon="5.50955">
        <ele>258</ele>
        <time>2018-02-20T08:44:41.000Z</time>
      </trkpt>
      <trkpt lat="43.52696" lon="5.50955">
        <ele>258</ele>
        <time>2018-02-20T08:44:42.000Z</time>
      </trkpt>
      <trkpt lat="43.52696" lon="5.50955">
        <ele>258</ele>
        <time>2018-02-20T08:44:43.000Z</time>
      </trkpt>
      <trkpt lat="43.52696" lon="5.50955">
        <ele>258</ele>
        <time>2018-02-20T08:44:44.000Z</time>
      </trkpt>
      <trkpt lat="43.52696" lon="5.50956">
        <ele>258</ele>
        <time>2018-02-20T08:44:45.000Z</time>
      </trkpt>
      <trkpt lat="43.52697" lon="5.50957">
        <ele>258</ele>
        <time>2018-02-20T08:44:46.000Z</time>
      </trkpt>
      <trkpt lat="43.52697" lon="5.50958">
        <ele>258</ele>
        <time>2018-02-20T08:44:47.000Z</time>
      </trkpt>
      <trkpt lat="43.52697" lon="5.50959">
        <ele>258</ele>
        <time>2018-02-20T08:44:48.000Z</time>
      </trkpt>
      <trkpt lat="43.52697" lon="5.5096">
        <ele>258</ele>
        <time>2018-02-20T08:44:49.000Z</time>
      </trkpt>
      <trkpt lat="43.52697" lon="5.50961">
        <ele>258</ele>
        <time>2018-02-20T08:44:50.000Z</time>
      </trkpt>
      <trkpt lat="43.52697" lon="5.50961">
        <ele>258</ele>
        <time>2018-02-20T08:44:51.000Z</time>
      </trkpt>
      <trkpt lat="43.52697" lon="5.50962">
        <ele>258</ele>
        <time>2018-02-20T08:44:52.000Z</time>
      </trkpt>
      <trkpt lat="43.52698" lon="5.50963">
        <ele>259</ele>
        <time>2018-02-20T08:44:53.000Z</time>
      </trkpt>
      <trkpt lat="43.52698" lon="5.50962">
        <ele>259</ele>
        <time>2018-02-20T08:44:54.000Z</time>
      </trkpt>
      <trkpt lat="43.52698" lon="5.50963">
        <ele>259</ele>
        <time>2018-02-20T08:44:55.000Z</time>
      </trkpt>
      <trkpt lat="43.52698" lon="5.50963">
        <ele>259</ele>
        <time>2018-02-20T08:44:56.000Z</time>
      </trkpt>
      <trkpt lat="43.52698" lon="5.50963">
        <ele>259</ele>
        <time>2018-02-20T08:44:57.000Z</time>
      </trkpt>
      <trkpt lat="43.52698" lon="5.50962">
        <ele>259</ele>
        <time>2018-02-20T08:44:58.000Z</time>
      </trkpt>
      <trkpt lat="43.52698" lon="5.50962">
        <ele>259</ele>
        <time>2018-02-20T08:44:59.000Z</time>
      </trkpt>
      <trkpt lat="43.52698" lon="5.50962">
        <ele>259</ele>
        <time>2018-02-20T08:45:00.000Z</time>
      </trkpt>
      <trkpt lat="43.52698" lon="5.50962">
        <ele>259</ele>
        <time>2018-02-20T08:45:01.000Z</time>
      </trkpt>
      <trkpt lat="43.52698" lon="5.50962">
        <ele>259</ele>
        <time>2018-02-20T08:45:02.000Z</time>
      </trkpt>
      <trkpt lat="43.52698" lon="5.50962">
        <ele>259</ele>
        <time>2018-02-20T08:45:03.000Z</time>
      </trkpt>
      <trkpt lat="43.52698" lon="5.50962">
        <ele>259</ele>
        <time>2018-02-20T08:45:04.000Z</time>
      </trkpt>
      <trkpt lat="43.52698" lon="5.50963">
        <ele>259</ele>
        <time>2018-02-20T08:45:05.000Z</time>
      </trkpt>
      <trkpt lat="43.52699" lon="5.50964">
        <ele>259</ele>
        <time>2018-02-20T08:45:06.000Z</time>
      </trkpt>
      <trkpt lat="43.52698" lon="5.50965">
        <ele>259</ele>
        <time>2018-02-20T08:45:07.000Z</time>
      </trkpt>
      <trkpt lat="43.52698" lon="5.50966">
        <ele>259</ele>
        <time>2018-02-20T08:45:08.000Z</time>
      </trkpt>
      <trkpt lat="43.52698" lon="5.50966">
        <ele>259</ele>
        <time>2018-02-20T08:45:09.000Z</time>
      </trkpt>
      <trkpt lat="43.52698" lon="5.50966">
        <ele>259</ele>
        <time>2018-02-20T08:45:10.000Z</time>
      </trkpt>
      <trkpt lat="43.52698" lon="5.50967">
        <ele>259</ele>
        <time>2018-02-20T08:45:11.000Z</time>
      </trkpt>
      <trkpt lat="43.52698" lon="5.50967">
        <ele>259</ele>
        <time>2018-02-20T08:45:12.000Z</time>
      </trkpt>
      <trkpt lat="43.52698" lon="5.50966">
        <ele>259</ele>
        <time>2018-02-20T08:45:13.000Z</time>
      </trkpt>
      <trkpt lat="43.52698" lon="5.50966">
        <ele>259</ele>
        <time>2018-02-20T08:45:14.000Z</time>
      </trkpt>
      <trkpt lat="43.52698" lon="5.50966">
        <ele>259</ele>
        <time>2018-02-20T08:45:15.000Z</time>
      </trkpt>
      <trkpt lat="43.52698" lon="5.50966">
        <ele>260</ele>
        <time>2018-02-20T08:45:16.000Z</time>
      </trkpt>
      <trkpt lat="43.52699" lon="5.50967">
        <ele>260</ele>
        <time>2018-02-20T08:45:17.000Z</time>
      </trkpt>
      <trkpt lat="43.52699" lon="5.50967">
        <ele>260</ele>
        <time>2018-02-20T08:45:18.000Z</time>
      </trkpt>
      <trkpt lat="43.52699" lon="5.50968">
        <ele>260</ele>
        <time>2018-02-20T08:45:19.000Z</time>
      </trkpt>
      <trkpt lat="43.527" lon="5.5097">
        <ele>260</ele>
        <time>2018-02-20T08:45:20.000Z</time>
      </trkpt>
      <trkpt lat="43.527" lon="5.50972">
        <ele>260</ele>
        <time>2018-02-20T08:45:21.000Z</time>
      </trkpt>
      <trkpt lat="43.527" lon="5.50973">
        <ele>260</ele>
        <time>2018-02-20T08:45:22.000Z</time>
      </trkpt>
      <trkpt lat="43.527" lon="5.50974">
        <ele>260</ele>
        <time>2018-02-20T08:45:23.000Z</time>
      </trkpt>
      <trkpt lat="43.527" lon="5.50976">
        <ele>261</ele>
        <time>2018-02-20T08:45:24.000Z</time>
      </trkpt>
      <trkpt lat="43.527" lon="5.50977">
        <ele>261</ele>
        <time>2018-02-20T08:45:25.000Z</time>
      </trkpt>
      <trkpt lat="43.527" lon="5.50978">
        <ele>261</ele>
        <time>2018-02-20T08:45:26.000Z</time>
      </trkpt>
      <trkpt lat="43.527" lon="5.5098">
        <ele>261</ele>
        <time>2018-02-20T08:45:27.000Z</time>
      </trkpt>
      <trkpt lat="43.527" lon="5.50981">
        <ele>261</ele>
        <time>2018-02-20T08:45:28.000Z</time>
      </trkpt>
      <trkpt lat="43.527" lon="5.50982">
        <ele>261</ele>
        <time>2018-02-20T08:45:29.000Z</time>
      </trkpt>
      <trkpt lat="43.527" lon="5.50983">
        <ele>261</ele>
        <time>2018-02-20T08:45:30.000Z</time>
      </trkpt>
      <trkpt lat="43.527" lon="5.50984">
        <ele>261</ele>
        <time>2018-02-20T08:45:31.000Z</time>
      </trkpt>
      <trkpt lat="43.527" lon="5.50985">
        <ele>262</ele>
        <time>2018-02-20T08:45:32.000Z</time>
      </trkpt>
      <trkpt lat="43.527" lon="5.50986">
        <ele>262</ele>
        <time>2018-02-20T08:45:33.000Z</time>
      </trkpt>
      <trkpt lat="43.527" lon="5.50987">
        <ele>262</ele>
        <time>2018-02-20T08:45:34.000Z</time>
      </trkpt>
      <trkpt lat="43.527" lon="5.50987">
        <ele>262</ele>
        <time>2018-02-20T08:45:35.000Z</time>
      </trkpt>
      <trkpt lat="43.527" lon="5.50988">
        <ele>262</ele>
        <time>2018-02-20T08:45:36.000Z</time>
      </trkpt>
      <trkpt lat="43.527" lon="5.50989">
        <ele>262</ele>
        <time>2018-02-20T08:45:37.000Z</time>
      </trkpt>
      <trkpt lat="43.527" lon="5.50989">
        <ele>262</ele>
        <time>2018-02-20T08:45:38.000Z</time>
      </trkpt>
      <trkpt lat="43.527" lon="5.5099">
        <ele>263</ele>
        <time>2018-02-20T08:45:39.000Z</time>
      </trkpt>
      <trkpt lat="43.52701" lon="5.50991">
        <ele>263</ele>
        <time>2018-02-20T08:45:40.000Z</time>
      </trkpt>
      <trkpt lat="43.52701" lon="5.50992">
        <ele>263</ele>
        <time>2018-02-20T08:45:41.000Z</time>
      </trkpt>
      <trkpt lat="43.52701" lon="5.50993">
        <ele>263</ele>
        <time>2018-02-20T08:45:42.000Z</time>
      </trkpt>
      <trkpt lat="43.52701" lon="5.50993">
        <ele>263</ele>
        <time>2018-02-20T08:45:43.000Z</time>
      </trkpt>
      <trkpt lat="43.52701" lon="5.50994">
        <ele>263</ele>
        <time>2018-02-20T08:45:44.000Z</time>
      </trkpt>
      <trkpt lat="43.52701" lon="5.50995">
        <ele>264</ele>
        <time>2018-02-20T08:45:45.000Z</time>
      </trkpt>
      <trkpt lat="43.52701" lon="5.50996">
        <ele>264</ele>
        <time>2018-02-20T08:45:46.000Z</time>
      </trkpt>
      <trkpt lat="43.52701" lon="5.50996">
        <ele>264</ele>
        <time>2018-02-20T08:45:47.000Z</time>
      </trkpt>
      <trkpt lat="43.52702" lon="5.50997">
        <ele>264</ele>
        <time>2018-02-20T08:45:48.000Z</time>
      </trkpt>
      <trkpt lat="43.52702" lon="5.50998">
        <ele>265</ele>
        <time>2018-02-20T08:45:49.000Z</time>
      </trkpt>
      <trkpt lat="43.52702" lon="5.50999">
        <ele>265</ele>
        <time>2018-02-20T08:45:50.000Z</time>
      </trkpt>
      <trkpt lat="43.52702" lon="5.51">
        <ele>265</ele>
        <time>2018-02-20T08:45:51.000Z</time>
      </trkpt>
      <trkpt lat="43.52702" lon="5.51001">
        <ele>265</ele>
        <time>2018-02-20T08:45:52.000Z</time>
      </trkpt>
      <trkpt lat="43.52702" lon="5.51001">
        <ele>265</ele>
        <time>2018-02-20T08:45:53.000Z</time>
      </trkpt>
      <trkpt lat="43.52702" lon="5.51002">
        <ele>265</ele>
        <time>2018-02-20T08:45:54.000Z</time>
      </trkpt>
      <trkpt lat="43.52702" lon="5.51002">
        <ele>265</ele>
        <time>2018-02-20T08:45:55.000Z</time>
      </trkpt>
      <trkpt lat="43.52702" lon="5.51003">
        <ele>265</ele>
        <time>2018-02-20T08:45:56.000Z</time>
      </trkpt>
      <trkpt lat="43.52702" lon="5.51004">
        <ele>265</ele>
        <time>2018-02-20T08:45:57.000Z</time>
      </trkpt>
      <trkpt lat="43.52702" lon="5.51004">
        <ele>265</ele>
        <time>2018-02-20T08:45:58.000Z</time>
      </trkpt>
      <trkpt lat="43.52702" lon="5.51005">
        <ele>265</ele>
        <time>2018-02-20T08:45:59.000Z</time>
      </trkpt>
      <trkpt lat="43.52702" lon="5.51006">
        <ele>266</ele>
        <time>2018-02-20T08:46:00.000Z</time>
      </trkpt>
      <trkpt lat="43.52702" lon="5.51006">
        <ele>266</ele>
        <time>2018-02-20T08:46:01.000Z</time>
      </trkpt>
      <trkpt lat="43.52702" lon="5.51007">
        <ele>266</ele>
        <time>2018-02-20T08:46:02.000Z</time>
      </trkpt>
      <trkpt lat="43.52702" lon="5.51008">
        <ele>266</ele>
        <time>2018-02-20T08:46:03.000Z</time>
      </trkpt>
      <trkpt lat="43.52702" lon="5.5101">
        <ele>266</ele>
        <time>2018-02-20T08:46:04.000Z</time>
      </trkpt>
      <trkpt lat="43.52703" lon="5.51011">
        <ele>266</ele>
        <time>2018-02-20T08:46:05.000Z</time>
      </trkpt>
      <trkpt lat="43.52703" lon="5.51012">
        <ele>266</ele>
        <time>2018-02-20T08:46:06.000Z</time>
      </trkpt>
      <trkpt lat="43.52702" lon="5.51013">
        <ele>267</ele>
        <time>2018-02-20T08:46:07.000Z</time>
      </trkpt>
      <trkpt lat="43.52702" lon="5.51014">
        <ele>267</ele>
        <time>2018-02-20T08:46:08.000Z</time>
      </trkpt>
      <trkpt lat="43.52702" lon="5.51014">
        <ele>267</ele>
        <time>2018-02-20T08:46:09.000Z</time>
      </trkpt>
      <trkpt lat="43.52702" lon="5.51015">
        <ele>267</ele>
        <time>2018-02-20T08:46:10.000Z</time>
      </trkpt>
      <trkpt lat="43.52702" lon="5.51016">
        <ele>267</ele>
        <time>2018-02-20T08:46:11.000Z</time>
      </trkpt>
      <trkpt lat="43.52702" lon="5.51016">
        <ele>267</ele>
        <time>2018-02-20T08:46:12.000Z</time>
      </trkpt>
      <trkpt lat="43.52702" lon="5.51017">
        <ele>267</ele>
        <time>2018-02-20T08:46:13.000Z</time>
      </trkpt>
      <trkpt lat="43.52703" lon="5.51018">
        <ele>267</ele>
        <time>2018-02-20T08:46:14.000Z</time>
      </trkpt>
      <trkpt lat="43.52703" lon="5.51018">
        <ele>267</ele>
        <time>2018-02-20T08:46:15.000Z</time>
      </trkpt>
      <trkpt lat="43.52704" lon="5.51019">
        <ele>267</ele>
        <time>2018-02-20T08:46:16.000Z</time>
      </trkpt>
      <trkpt lat="43.52704" lon="5.51019">
        <ele>268</ele>
        <time>2018-02-20T08:46:17.000Z</time>
      </trkpt>
      <trkpt lat="43.52704" lon="5.51019">
        <ele>268</ele>
        <time>2018-02-20T08:46:18.000Z</time>
      </trkpt>
      <trkpt lat="43.52704" lon="5.5102">
        <ele>268</ele>
        <time>2018-02-20T08:46:19.000Z</time>
      </trkpt>
      <trkpt lat="43.52704" lon="5.5102">
        <ele>268</ele>
        <time>2018-02-20T08:46:20.000Z</time>
      </trkpt>
      <trkpt lat="43.52704" lon="5.5102">
        <ele>268</ele>
        <time>2018-02-20T08:46:21.000Z</time>
      </trkpt>
      <trkpt lat="43.52705" lon="5.5102">
        <ele>268</ele>
        <time>2018-02-20T08:46:22.000Z</time>
      </trkpt>
      <trkpt lat="43.52705" lon="5.5102">
        <ele>268</ele>
        <time>2018-02-20T08:46:23.000Z</time>
      </trkpt>
      <trkpt lat="43.52705" lon="5.51021">
        <ele>268</ele>
        <time>2018-02-20T08:46:24.000Z</time>
      </trkpt>
      <trkpt lat="43.52705" lon="5.51022">
        <ele>268</ele>
        <time>2018-02-20T08:46:25.000Z</time>
      </trkpt>
      <trkpt lat="43.52704" lon="5.51023">
        <ele>268</ele>
        <time>2018-02-20T08:46:26.000Z</time>
      </trkpt>
      <trkpt lat="43.52704" lon="5.51023">
        <ele>268</ele>
        <time>2018-02-20T08:46:27.000Z</time>
      </trkpt>
      <trkpt lat="43.52704" lon="5.51024">
        <ele>268</ele>
        <time>2018-02-20T08:46:28.000Z</time>
      </trkpt>
      <trkpt lat="43.52704" lon="5.51024">
        <ele>268</ele>
        <time>2018-02-20T08:46:29.000Z</time>
      </trkpt>
      <trkpt lat="43.52705" lon="5.51024">
        <ele>269</ele>
        <time>2018-02-20T08:46:30.000Z</time>
      </trkpt>
      <trkpt lat="43.52705" lon="5.51024">
        <ele>269</ele>
        <time>2018-02-20T08:46:31.000Z</time>
      </trkpt>
      <trkpt lat="43.52705" lon="5.51025">
        <ele>269</ele>
        <time>2018-02-20T08:46:32.000Z</time>
      </trkpt>
      <trkpt lat="43.52706" lon="5.51025">
        <ele>269</ele>
        <time>2018-02-20T08:46:33.000Z</time>
      </trkpt>
      <trkpt lat="43.52706" lon="5.51026">
        <ele>269</ele>
        <time>2018-02-20T08:46:34.000Z</time>
      </trkpt>
      <trkpt lat="43.52706" lon="5.51026">
        <ele>269</ele>
        <time>2018-02-20T08:46:35.000Z</time>
      </trkpt>
      <trkpt lat="43.52706" lon="5.51027">
        <ele>269</ele>
        <time>2018-02-20T08:46:36.000Z</time>
      </trkpt>
      <trkpt lat="43.52707" lon="5.51027">
        <ele>269</ele>
        <time>2018-02-20T08:46:37.000Z</time>
      </trkpt>
      <trkpt lat="43.52707" lon="5.51028">
        <ele>269</ele>
        <time>2018-02-20T08:46:38.000Z</time>
      </trkpt>
      <trkpt lat="43.52707" lon="5.51028">
        <ele>269</ele>
        <time>2018-02-20T08:46:39.000Z</time>
      </trkpt>
      <trkpt lat="43.52707" lon="5.51029">
        <ele>270</ele>
        <time>2018-02-20T08:46:40.000Z</time>
      </trkpt>
      <trkpt lat="43.52707" lon="5.5103">
        <ele>270</ele>
        <time>2018-02-20T08:46:41.000Z</time>
      </trkpt>
      <trkpt lat="43.52708" lon="5.5103">
        <ele>270</ele>
        <time>2018-02-20T08:46:42.000Z</time>
      </trkpt>
      <trkpt lat="43.52708" lon="5.51031">
        <ele>270</ele>
        <time>2018-02-20T08:46:43.000Z</time>
      </trkpt>
      <trkpt lat="43.52709" lon="5.51032">
        <ele>270</ele>
        <time>2018-02-20T08:46:44.000Z</time>
      </trkpt>
      <trkpt lat="43.52709" lon="5.51032">
        <ele>271</ele>
        <time>2018-02-20T08:46:45.000Z</time>
      </trkpt>
      <trkpt lat="43.5271" lon="5.51033">
        <ele>271</ele>
        <time>2018-02-20T08:46:46.000Z</time>
      </trkpt>
      <trkpt lat="43.5271" lon="5.51033">
        <ele>271</ele>
        <time>2018-02-20T08:46:47.000Z</time>
      </trkpt>
      <trkpt lat="43.5271" lon="5.51033">
        <ele>271</ele>
        <time>2018-02-20T08:46:48.000Z</time>
      </trkpt>
      <trkpt lat="43.5271" lon="5.51033">
        <ele>271</ele>
        <time>2018-02-20T08:46:49.000Z</time>
      </trkpt>
      <trkpt lat="43.5271" lon="5.51034">
        <ele>271</ele>
        <time>2018-02-20T08:46:50.000Z</time>
      </trkpt>
      <trkpt lat="43.52709" lon="5.51035">
        <ele>271</ele>
        <time>2018-02-20T08:46:51.000Z</time>
      </trkpt>
      <trkpt lat="43.52709" lon="5.51035">
        <ele>272</ele>
        <time>2018-02-20T08:46:52.000Z</time>
      </trkpt>
      <trkpt lat="43.52709" lon="5.51035">
        <ele>272</ele>
        <time>2018-02-20T08:46:53.000Z</time>
      </trkpt>
      <trkpt lat="43.52709" lon="5.51036">
        <ele>272</ele>
        <time>2018-02-20T08:46:54.000Z</time>
      </trkpt>
      <trkpt lat="43.5271" lon="5.51037">
        <ele>272</ele>
        <time>2018-02-20T08:46:55.000Z</time>
      </trkpt>
      <trkpt lat="43.5271" lon="5.51038">
        <ele>272</ele>
        <time>2018-02-20T08:46:56.000Z</time>
      </trkpt>
      <trkpt lat="43.5271" lon="5.51039">
        <ele>272</ele>
        <time>2018-02-20T08:46:57.000Z</time>
      </trkpt>
      <trkpt lat="43.5271" lon="5.5104">
        <ele>273</ele>
        <time>2018-02-20T08:46:58.000Z</time>
      </trkpt>
      <trkpt lat="43.5271" lon="5.51041">
        <ele>273</ele>
        <time>2018-02-20T08:46:59.000Z</time>
      </trkpt>
      <trkpt lat="43.5271" lon="5.51041">
        <ele>273</ele>
        <time>2018-02-20T08:47:00.000Z</time>
      </trkpt>
      <trkpt lat="43.5271" lon="5.51041">
        <ele>273</ele>
        <time>2018-02-20T08:47:01.000Z</time>
      </trkpt>
      <trkpt lat="43.5271" lon="5.51042">
        <ele>273</ele>
        <time>2018-02-20T08:47:02.000Z</time>
      </trkpt>
      <trkpt lat="43.5271" lon="5.51042">
        <ele>273</ele>
        <time>2018-02-20T08:47:03.000Z</time>
      </trkpt>
      <trkpt lat="43.5271" lon="5.51043">
        <ele>273</ele>
        <time>2018-02-20T08:47:04.000Z</time>
      </trkpt>
      <trkpt lat="43.5271" lon="5.51043">
        <ele>274</ele>
        <time>2018-02-20T08:47:05.000Z</time>
      </trkpt>
      <trkpt lat="43.5271" lon="5.51043">
        <ele>274</ele>
        <time>2018-02-20T08:47:06.000Z</time>
      </trkpt>
      <trkpt lat="43.5271" lon="5.51043">
        <ele>274</ele>
        <time>2018-02-20T08:47:07.000Z</time>
      </trkpt>
      <trkpt lat="43.5271" lon="5.51043">
        <ele>274</ele>
        <time>2018-02-20T08:47:08.000Z</time>
      </trkpt>
      <trkpt lat="43.5271" lon="5.51043">
        <ele>274</ele>
        <time>2018-02-20T08:47:09.000Z</time>
      </trkpt>
      <trkpt lat="43.5271" lon="5.51043">
        <ele>274</ele>
        <time>2018-02-20T08:47:10.000Z</time>
      </trkpt>
      <trkpt lat="43.5271" lon="5.51043">
        <ele>274</ele>
        <time>2018-02-20T08:47:11.000Z</time>
      </trkpt>
      <trkpt lat="43.5271" lon="5.51043">
        <ele>274</ele>
        <time>2018-02-20T08:47:12.000Z</time>
      </trkpt>
      <trkpt lat="43.5271" lon="5.51043">
        <ele>274</ele>
        <time>2018-02-20T08:47:13.000Z</time>
      </trkpt>
      <trkpt lat="43.5271" lon="5.51043">
        <ele>274</ele>
        <time>2018-02-20T08:47:14.000Z</time>
      </trkpt>
      <trkpt lat="43.5271" lon="5.51043">
        <ele>274</ele>
        <time>2018-02-20T08:47:15.000Z</time>
      </trkpt>
      <trkpt lat="43.52711" lon="5.51043">
        <ele>274</ele>
        <time>2018-02-20T08:47:16.000Z</time>
      </trkpt>
      <trkpt lat="43.52711" lon="5.51042">
        <ele>274</ele>
        <time>2018-02-20T08:47:17.000Z</time>
      </trkpt>
      <trkpt lat="43.52711" lon="5.51043">
        <ele>274</ele>
        <time>2018-02-20T08:47:18.000Z</time>
      </trkpt>
      <trkpt lat="43.52711" lon="5.51044">
        <ele>274</ele>
        <time>2018-02-20T08:47:19.000Z</time>
      </trkpt>
      <trkpt lat="43.52712" lon="5.51045">
        <ele>274</ele>
        <time>2018-02-20T08:47:20.000Z</time>
      </trkpt>
      <trkpt lat="43.52712" lon="5.51046">
        <ele>274</ele>
        <time>2018-02-20T08:47:21.000Z</time>
      </trkpt>
      <trkpt lat="43.52712" lon="5.51047">
        <ele>274</ele>
        <time>2018-02-20T08:47:22.000Z</time>
      </trkpt>
      <trkpt lat="43.52712" lon="5.51048">
        <ele>274</ele>
        <time>2018-02-20T08:47:23.000Z</time>
      </trkpt>
      <trkpt lat="43.52713" lon="5.51049">
        <ele>275</ele>
        <time>2018-02-20T08:47:24.000Z</time>
      </trkpt>
      <trkpt lat="43.52714" lon="5.51049">
        <ele>275</ele>
        <time>2018-02-20T08:47:25.000Z</time>
      </trkpt>
      <trkpt lat="43.52714" lon="5.5105">
        <ele>275</ele>
        <time>2018-02-20T08:47:26.000Z</time>
      </trkpt>
      <trkpt lat="43.52714" lon="5.51051">
        <ele>275</ele>
        <time>2018-02-20T08:47:27.000Z</time>
      </trkpt>
      <trkpt lat="43.52715" lon="5.51051">
        <ele>275</ele>
        <time>2018-02-20T08:47:28.000Z</time>
      </trkpt>
      <trkpt lat="43.52715" lon="5.51051">
        <ele>275</ele>
        <time>2018-02-20T08:47:29.000Z</time>
      </trkpt>
      <trkpt lat="43.52716" lon="5.51052">
        <ele>275</ele>
        <time>2018-02-20T08:47:30.000Z</time>
      </trkpt>
      <trkpt lat="43.52716" lon="5.51052">
        <ele>275</ele>
        <time>2018-02-20T08:47:31.000Z</time>
      </trkpt>
      <trkpt lat="43.52717" lon="5.51053">
        <ele>275</ele>
        <time>2018-02-20T08:47:32.000Z</time>
      </trkpt>
      <trkpt lat="43.52717" lon="5.51054">
        <ele>275</ele>
        <time>2018-02-20T08:47:33.000Z</time>
      </trkpt>
      <trkpt lat="43.52717" lon="5.51054">
        <ele>275</ele>
        <time>2018-02-20T08:47:34.000Z</time>
      </trkpt>
      <trkpt lat="43.52717" lon="5.51055">
        <ele>275</ele>
        <time>2018-02-20T08:47:35.000Z</time>
      </trkpt>
      <trkpt lat="43.52718" lon="5.51057">
        <ele>275</ele>
        <time>2018-02-20T08:47:36.000Z</time>
      </trkpt>
      <trkpt lat="43.52718" lon="5.51058">
        <ele>275</ele>
        <time>2018-02-20T08:47:37.000Z</time>
      </trkpt>
      <trkpt lat="43.52719" lon="5.51059">
        <ele>275</ele>
        <time>2018-02-20T08:47:38.000Z</time>
      </trkpt>
      <trkpt lat="43.52719" lon="5.51059">
        <ele>275</ele>
        <time>2018-02-20T08:47:39.000Z</time>
      </trkpt>
      <trkpt lat="43.52719" lon="5.5106">
        <ele>275</ele>
        <time>2018-02-20T08:47:40.000Z</time>
      </trkpt>
      <trkpt lat="43.52719" lon="5.51061">
        <ele>275</ele>
        <time>2018-02-20T08:47:41.000Z</time>
      </trkpt>
      <trkpt lat="43.52719" lon="5.51062">
        <ele>275</ele>
        <time>2018-02-20T08:47:42.000Z</time>
      </trkpt>
      <trkpt lat="43.52719" lon="5.51063">
        <ele>275</ele>
        <time>2018-02-20T08:47:43.000Z</time>
      </trkpt>
      <trkpt lat="43.52719" lon="5.51063">
        <ele>275</ele>
        <time>2018-02-20T08:47:44.000Z</time>
      </trkpt>
      <trkpt lat="43.5272" lon="5.51064">
        <ele>275</ele>
        <time>2018-02-20T08:47:45.000Z</time>
      </trkpt>
      <trkpt lat="43.5272" lon="5.51064">
        <ele>275</ele>
        <time>2018-02-20T08:47:46.000Z</time>
      </trkpt>
      <trkpt lat="43.5272" lon="5.51065">
        <ele>275</ele>
        <time>2018-02-20T08:47:47.000Z</time>
      </trkpt>
      <trkpt lat="43.5272" lon="5.51065">
        <ele>275</ele>
        <time>2018-02-20T08:47:48.000Z</time>
      </trkpt>
      <trkpt lat="43.5272" lon="5.51066">
        <ele>275</ele>
        <time>2018-02-20T08:47:49.000Z</time>
      </trkpt>
      <trkpt lat="43.5272" lon="5.51067">
        <ele>276</ele>
        <time>2018-02-20T08:47:50.000Z</time>
      </trkpt>
      <trkpt lat="43.5272" lon="5.51067">
        <ele>276</ele>
        <time>2018-02-20T08:47:51.000Z</time>
      </trkpt>
      <trkpt lat="43.5272" lon="5.51068">
        <ele>276</ele>
        <time>2018-02-20T08:47:52.000Z</time>
      </trkpt>
      <trkpt lat="43.5272" lon="5.51069">
        <ele>276</ele>
        <time>2018-02-20T08:47:53.000Z</time>
      </trkpt>
      <trkpt lat="43.5272" lon="5.51069">
        <ele>276</ele>
        <time>2018-02-20T08:47:54.000Z</time>
      </trkpt>
      <trkpt lat="43.5272" lon="5.5107">
        <ele>276</ele>
        <time>2018-02-20T08:47:55.000Z</time>
      </trkpt>
      <trkpt lat="43.5272" lon="5.51071">
        <ele>276</ele>
        <time>2018-02-20T08:47:56.000Z</time>
      </trkpt>
      <trkpt lat="43.5272" lon="5.51072">
        <ele>276</ele>
        <time>2018-02-20T08:47:57.000Z</time>
      </trkpt>
      <trkpt lat="43.52719" lon="5.51072">
        <ele>277</ele>
        <time>2018-02-20T08:47:58.000Z</time>
      </trkpt>
      <trkpt lat="43.52719" lon="5.51073">
        <ele>277</ele>
        <time>2018-02-20T08:47:59.000Z</time>
      </trkpt>
      <trkpt lat="43.52719" lon="5.51074">
        <ele>277</ele>
        <time>2018-02-20T08:48:00.000Z</time>
      </trkpt>
      <trkpt lat="43.52719" lon="5.51075">
        <ele>277</ele>
        <time>2018-02-20T08:48:01.000Z</time>
      </trkpt>
      <trkpt lat="43.52719" lon="5.51076">
        <ele>278</ele>
        <time>2018-02-20T08:48:02.000Z</time>
      </trkpt>
      <trkpt lat="43.5272" lon="5.51076">
        <ele>278</ele>
        <time>2018-02-20T08:48:03.000Z</time>
      </trkpt>
      <trkpt lat="43.5272" lon="5.51077">
        <ele>278</ele>
        <time>2018-02-20T08:48:04.000Z</time>
      </trkpt>
      <trkpt lat="43.5272" lon="5.51078">
        <ele>278</ele>
        <time>2018-02-20T08:48:05.000Z</time>
      </trkpt>
      <trkpt lat="43.5272" lon="5.51079">
        <ele>278</ele>
        <time>2018-02-20T08:48:06.000Z</time>
      </trkpt>
      <trkpt lat="43.5272" lon="5.5108">
        <ele>278</ele>
        <time>2018-02-20T08:48:07.000Z</time>
      </trkpt>
      <trkpt lat="43.52721" lon="5.51081">
        <ele>279</ele>
        <time>2018-02-20T08:48:08.000Z</time>
      </trkpt>
      <trkpt lat="43.52721" lon="5.51082">
        <ele>279</ele>
        <time>2018-02-20T08:48:09.000Z</time>
      </trkpt>
      <trkpt lat="43.52721" lon="5.51083">
        <ele>279</ele>
        <time>2018-02-20T08:48:10.000Z</time>
      </trkpt>
      <trkpt lat="43.52722" lon="5.51084">
        <ele>279</ele>
        <time>2018-02-20T08:48:11.000Z</time>
      </trkpt>
      <trkpt lat="43.52722" lon="5.51085">
        <ele>279</ele>
        <time>2018-02-20T08:48:12.000Z</time>
      </trkpt>
      <trkpt lat="43.52723" lon="5.51086">
        <ele>279</ele>
        <time>2018-02-20T08:48:13.000Z</time>
      </trkpt>
      <trkpt lat="43.52723" lon="5.51087">
        <ele>280</ele>
        <time>2018-02-20T08:48:14.000Z</time>
      </trkpt>
      <trkpt lat="43.52724" lon="5.51088">
        <ele>280</ele>
        <time>2018-02-20T08:48:15.000Z</time>
      </trkpt>
      <trkpt lat="43.52724" lon="5.51089">
        <ele>280</ele>
        <time>2018-02-20T08:48:16.000Z</time>
      </trkpt>
      <trkpt lat="43.52725" lon="5.5109">
        <ele>280</ele>
        <time>2018-02-20T08:48:17.000Z</time>
      </trkpt>
      <trkpt lat="43.52725" lon="5.51091">
        <ele>280</ele>
        <time>2018-02-20T08:48:18.000Z</time>
      </trkpt>
      <trkpt lat="43.52725" lon="5.51092">
        <ele>280</ele>
        <time>2018-02-20T08:48:19.000Z</time>
      </trkpt>
      <trkpt lat="43.52726" lon="5.51092">
        <ele>281</ele>
        <time>2018-02-20T08:48:20.000Z</time>
      </trkpt>
      <trkpt lat="43.52726" lon="5.51093">
        <ele>281</ele>
        <time>2018-02-20T08:48:21.000Z</time>
      </trkpt>
      <trkpt lat="43.52726" lon="5.51093">
        <ele>281</ele>
        <time>2018-02-20T08:48:22.000Z</time>
      </trkpt>
      <trkpt lat="43.52726" lon="5.51092">
        <ele>281</ele>
        <time>2018-02-20T08:48:23.000Z</time>
      </trkpt>
      <trkpt lat="43.52726" lon="5.51092">
        <ele>281</ele>
        <time>2018-02-20T08:48:24.000Z</time>
      </trkpt>
      <trkpt lat="43.52726" lon="5.51092">
        <ele>281</ele>
        <time>2018-02-20T08:48:25.000Z</time>
      </trkpt>
      <trkpt lat="43.52726" lon="5.51092">
        <ele>281</ele>
        <time>2018-02-20T08:48:26.000Z</time>
      </trkpt>
      <trkpt lat="43.52726" lon="5.51093">
        <ele>281</ele>
        <time>2018-02-20T08:48:27.000Z</time>
      </trkpt>
      <trkpt lat="43.52726" lon="5.51092">
        <ele>281</ele>
        <time>2018-02-20T08:48:28.000Z</time>
      </trkpt>
      <trkpt lat="43.52726" lon="5.51092">
        <ele>281</ele>
        <time>2018-02-20T08:48:29.000Z</time>
      </trkpt>
      <trkpt lat="43.52727" lon="5.51093">
        <ele>281</ele>
        <time>2018-02-20T08:48:30.000Z</time>
      </trkpt>
      <trkpt lat="43.52727" lon="5.51093">
        <ele>281</ele>
        <time>2018-02-20T08:48:31.000Z</time>
      </trkpt>
      <trkpt lat="43.52727" lon="5.51094">
        <ele>282</ele>
        <time>2018-02-20T08:48:32.000Z</time>
      </trkpt>
      <trkpt lat="43.52727" lon="5.51095">
        <ele>282</ele>
        <time>2018-02-20T08:48:33.000Z</time>
      </trkpt>
      <trkpt lat="43.52728" lon="5.51097">
        <ele>282</ele>
        <time>2018-02-20T08:48:34.000Z</time>
      </trkpt>
      <trkpt lat="43.52728" lon="5.51098">
        <ele>282</ele>
        <time>2018-02-20T08:48:35.000Z</time>
      </trkpt>
      <trkpt lat="43.52728" lon="5.511">
        <ele>282</ele>
        <time>2018-02-20T08:48:36.000Z</time>
      </trkpt>
      <trkpt lat="43.52728" lon="5.51101">
        <ele>282</ele>
        <time>2018-02-20T08:48:37.000Z</time>
      </trkpt>
      <trkpt lat="43.52729" lon="5.51102">
        <ele>282</ele>
        <time>2018-02-20T08:48:38.000Z</time>
      </trkpt>
      <trkpt lat="43.52729" lon="5.51103">
        <ele>282</ele>
        <time>2018-02-20T08:48:39.000Z</time>
      </trkpt>
      <trkpt lat="43.52729" lon="5.51104">
        <ele>282</ele>
        <time>2018-02-20T08:48:40.000Z</time>
      </trkpt>
      <trkpt lat="43.52729" lon="5.51105">
        <ele>283</ele>
        <time>2018-02-20T08:48:41.000Z</time>
      </trkpt>
      <trkpt lat="43.5273" lon="5.51106">
        <ele>283</ele>
        <time>2018-02-20T08:48:42.000Z</time>
      </trkpt>
      <trkpt lat="43.5273" lon="5.51106">
        <ele>283</ele>
        <time>2018-02-20T08:48:43.000Z</time>
      </trkpt>
      <trkpt lat="43.52731" lon="5.51107">
        <ele>283</ele>
        <time>2018-02-20T08:48:44.000Z</time>
      </trkpt>
      <trkpt lat="43.52731" lon="5.51107">
        <ele>283</ele>
        <time>2018-02-20T08:48:45.000Z</time>
      </trkpt>
      <trkpt lat="43.52732" lon="5.51108">
        <ele>283</ele>
        <time>2018-02-20T08:48:46.000Z</time>
      </trkpt>
      <trkpt lat="43.52732" lon="5.51108">
        <ele>283</ele>
        <time>2018-02-20T08:48:47.000Z</time>
      </trkpt>
      <trkpt lat="43.52733" lon="5.51108">
        <ele>283</ele>
        <time>2018-02-20T08:48:48.000Z</time>
      </trkpt>
      <trkpt lat="43.52734" lon="5.51107">
        <ele>283</ele>
        <time>2018-02-20T08:48:49.000Z</time>
      </trkpt>
      <trkpt lat="43.52734" lon="5.51107">
        <ele>283</ele>
        <time>2018-02-20T08:48:50.000Z</time>
      </trkpt>
      <trkpt lat="43.52735" lon="5.51108">
        <ele>283</ele>
        <time>2018-02-20T08:48:51.000Z</time>
      </trkpt>
      <trkpt lat="43.52736" lon="5.51109">
        <ele>283</ele>
        <time>2018-02-20T08:48:52.000Z</time>
      </trkpt>
      <trkpt lat="43.52736" lon="5.51109">
        <ele>283</ele>
        <time>2018-02-20T08:48:53.000Z</time>
      </trkpt>
      <trkpt lat="43.52736" lon="5.5111">
        <ele>283</ele>
        <time>2018-02-20T08:48:54.000Z</time>
      </trkpt>
      <trkpt lat="43.52737" lon="5.5111">
        <ele>283</ele>
        <time>2018-02-20T08:48:55.000Z</time>
      </trkpt>
      <trkpt lat="43.52737" lon="5.51111">
        <ele>283</ele>
        <time>2018-02-20T08:48:56.000Z</time>
      </trkpt>
      <trkpt lat="43.52737" lon="5.51112">
        <ele>284</ele>
        <time>2018-02-20T08:48:57.000Z</time>
      </trkpt>
      <trkpt lat="43.52738" lon="5.51113">
        <ele>284</ele>
        <time>2018-02-20T08:48:58.000Z</time>
      </trkpt>
      <trkpt lat="43.52738" lon="5.51113">
        <ele>284</ele>
        <time>2018-02-20T08:48:59.000Z</time>
      </trkpt>
      <trkpt lat="43.52738" lon="5.51114">
        <ele>284</ele>
        <time>2018-02-20T08:49:00.000Z</time>
      </trkpt>
      <trkpt lat="43.52739" lon="5.51114">
        <ele>284</ele>
        <time>2018-02-20T08:49:01.000Z</time>
      </trkpt>
      <trkpt lat="43.52739" lon="5.51113">
        <ele>284</ele>
        <time>2018-02-20T08:49:02.000Z</time>
      </trkpt>
      <trkpt lat="43.52739" lon="5.51113">
        <ele>284</ele>
        <time>2018-02-20T08:49:03.000Z</time>
      </trkpt>
      <trkpt lat="43.5274" lon="5.51113">
        <ele>284</ele>
        <time>2018-02-20T08:49:04.000Z</time>
      </trkpt>
      <trkpt lat="43.52741" lon="5.51114">
        <ele>284</ele>
        <time>2018-02-20T08:49:05.000Z</time>
      </trkpt>
      <trkpt lat="43.52741" lon="5.51114">
        <ele>285</ele>
        <time>2018-02-20T08:49:06.000Z</time>
      </trkpt>
      <trkpt lat="43.52742" lon="5.51114">
        <ele>285</ele>
        <time>2018-02-20T08:49:07.000Z</time>
      </trkpt>
      <trkpt lat="43.52743" lon="5.51114">
        <ele>285</ele>
        <time>2018-02-20T08:49:08.000Z</time>
      </trkpt>
      <trkpt lat="43.52743" lon="5.51115">
        <ele>285</ele>
        <time>2018-02-20T08:49:09.000Z</time>
      </trkpt>
      <trkpt lat="43.52743" lon="5.51115">
        <ele>285</ele>
        <time>2018-02-20T08:49:10.000Z</time>
      </trkpt>
      <trkpt lat="43.52743" lon="5.51115">
        <ele>285</ele>
        <time>2018-02-20T08:49:11.000Z</time>
      </trkpt>
      <trkpt lat="43.52743" lon="5.51115">
        <ele>285</ele>
        <time>2018-02-20T08:49:12.000Z</time>
      </trkpt>
      <trkpt lat="43.52744" lon="5.51115">
        <ele>286</ele>
        <time>2018-02-20T08:49:13.000Z</time>
      </trkpt>
      <trkpt lat="43.52744" lon="5.51116">
        <ele>286</ele>
        <time>2018-02-20T08:49:14.000Z</time>
      </trkpt>
      <trkpt lat="43.52744" lon="5.51117">
        <ele>286</ele>
        <time>2018-02-20T08:49:15.000Z</time>
      </trkpt>
      <trkpt lat="43.52744" lon="5.51118">
        <ele>286</ele>
        <time>2018-02-20T08:49:16.000Z</time>
      </trkpt>
      <trkpt lat="43.52744" lon="5.51119">
        <ele>286</ele>
        <time>2018-02-20T08:49:17.000Z</time>
      </trkpt>
      <trkpt lat="43.52744" lon="5.5112">
        <ele>286</ele>
        <time>2018-02-20T08:49:18.000Z</time>
      </trkpt>
      <trkpt lat="43.52744" lon="5.51122">
        <ele>286</ele>
        <time>2018-02-20T08:49:19.000Z</time>
      </trkpt>
      <trkpt lat="43.52744" lon="5.51123">
        <ele>286</ele>
        <time>2018-02-20T08:49:20.000Z</time>
      </trkpt>
      <trkpt lat="43.52745" lon="5.51125">
        <ele>286</ele>
        <time>2018-02-20T08:49:21.000Z</time>
      </trkpt>
      <trkpt lat="43.52744" lon="5.51125">
        <ele>286</ele>
        <time>2018-02-20T08:49:22.000Z</time>
      </trkpt>
      <trkpt lat="43.52744" lon="5.51126">
        <ele>287</ele>
        <time>2018-02-20T08:49:23.000Z</time>
      </trkpt>
      <trkpt lat="43.52745" lon="5.51127">
        <ele>287</ele>
        <time>2018-02-20T08:49:24.000Z</time>
      </trkpt>
      <trkpt lat="43.52745" lon="5.51128">
        <ele>287</ele>
        <time>2018-02-20T08:49:25.000Z</time>
      </trkpt>
      <trkpt lat="43.52745" lon="5.51129">
        <ele>287</ele>
        <time>2018-02-20T08:49:26.000Z</time>
      </trkpt>
      <trkpt lat="43.52745" lon="5.5113">
        <ele>287</ele>
        <time>2018-02-20T08:49:27.000Z</time>
      </trkpt>
      <trkpt lat="43.52745" lon="5.51131">
        <ele>288</ele>
        <time>2018-02-20T08:49:28.000Z</time>
      </trkpt>
      <trkpt lat="43.52745" lon="5.51132">
        <ele>288</ele>
        <time>2018-02-20T08:49:29.000Z</time>
      </trkpt>
      <trkpt lat="43.52745" lon="5.51133">
        <ele>288</ele>
        <time>2018-02-20T08:49:30.000Z</time>
      </trkpt>
      <trkpt lat="43.52745" lon="5.51134">
        <ele>288</ele>
        <time>2018-02-20T08:49:31.000Z</time>
      </trkpt>
      <trkpt lat="43.52745" lon="5.51135">
        <ele>288</ele>
        <time>2018-02-20T08:49:32.000Z</time>
      </trkpt>
      <trkpt lat="43.52746" lon="5.51136">
        <ele>288</ele>
        <time>2018-02-20T08:49:33.000Z</time>
      </trkpt>
      <trkpt lat="43.52746" lon="5.51138">
        <ele>288</ele>
        <time>2018-02-20T08:49:34.000Z</time>
      </trkpt>
      <trkpt lat="43.52746" lon="5.51138">
        <ele>289</ele>
        <time>2018-02-20T08:49:35.000Z</time>
      </trkpt>
      <trkpt lat="43.52746" lon="5.51139">
        <ele>289</ele>
        <time>2018-02-20T08:49:36.000Z</time>
      </trkpt>
      <trkpt lat="43.52746" lon="5.5114">
        <ele>289</ele>
        <time>2018-02-20T08:49:37.000Z</time>
      </trkpt>
      <trkpt lat="43.52747" lon="5.5114">
        <ele>289</ele>
        <time>2018-02-20T08:49:38.000Z</time>
      </trkpt>
      <trkpt lat="43.52747" lon="5.51141">
        <ele>289</ele>
        <time>2018-02-20T08:49:39.000Z</time>
      </trkpt>
      <trkpt lat="43.52747" lon="5.51142">
        <ele>289</ele>
        <time>2018-02-20T08:49:40.000Z</time>
      </trkpt>
      <trkpt lat="43.52748" lon="5.51144">
        <ele>289</ele>
        <time>2018-02-20T08:49:41.000Z</time>
      </trkpt>
      <trkpt lat="43.52747" lon="5.51145">
        <ele>289</ele>
        <time>2018-02-20T08:49:42.000Z</time>
      </trkpt>
      <trkpt lat="43.52747" lon="5.51146">
        <ele>289</ele>
        <time>2018-02-20T08:49:43.000Z</time>
      </trkpt>
      <trkpt lat="43.52748" lon="5.51147">
        <ele>289</ele>
        <time>2018-02-20T08:49:44.000Z</time>
      </trkpt>
      <trkpt lat="43.52747" lon="5.51148">
        <ele>289</ele>
        <time>2018-02-20T08:49:45.000Z</time>
      </trkpt>
      <trkpt lat="43.52747" lon="5.51149">
        <ele>289</ele>
        <time>2018-02-20T08:49:46.000Z</time>
      </trkpt>
      <trkpt lat="43.52747" lon="5.5115">
        <ele>289</ele>
        <time>2018-02-20T08:49:47.000Z</time>
      </trkpt>
      <trkpt lat="43.52748" lon="5.51151">
        <ele>289</ele>
        <time>2018-02-20T08:49:48.000Z</time>
      </trkpt>
      <trkpt lat="43.52748" lon="5.51152">
        <ele>290</ele>
        <time>2018-02-20T08:49:49.000Z</time>
      </trkpt>
      <trkpt lat="43.52747" lon="5.51153">
        <ele>290</ele>
        <time>2018-02-20T08:49:50.000Z</time>
      </trkpt>
      <trkpt lat="43.52747" lon="5.51154">
        <ele>290</ele>
        <time>2018-02-20T08:49:51.000Z</time>
      </trkpt>
      <trkpt lat="43.52747" lon="5.51155">
        <ele>290</ele>
        <time>2018-02-20T08:49:52.000Z</time>
      </trkpt>
      <trkpt lat="43.52747" lon="5.51155">
        <ele>290</ele>
        <time>2018-02-20T08:49:53.000Z</time>
      </trkpt>
      <trkpt lat="43.52747" lon="5.51156">
        <ele>290</ele>
        <time>2018-02-20T08:49:54.000Z</time>
      </trkpt>
      <trkpt lat="43.52747" lon="5.51157">
        <ele>290</ele>
        <time>2018-02-20T08:49:55.000Z</time>
      </trkpt>
      <trkpt lat="43.52747" lon="5.51157">
        <ele>289</ele>
        <time>2018-02-20T08:49:56.000Z</time>
      </trkpt>
      <trkpt lat="43.52748" lon="5.51158">
        <ele>289</ele>
        <time>2018-02-20T08:49:57.000Z</time>
      </trkpt>
      <trkpt lat="43.52749" lon="5.51158">
        <ele>289</ele>
        <time>2018-02-20T08:49:58.000Z</time>
      </trkpt>
      <trkpt lat="43.52749" lon="5.51159">
        <ele>289</ele>
        <time>2018-02-20T08:49:59.000Z</time>
      </trkpt>
      <trkpt lat="43.5275" lon="5.51161">
        <ele>289</ele>
        <time>2018-02-20T08:50:00.000Z</time>
      </trkpt>
      <trkpt lat="43.52749" lon="5.51163">
        <ele>289</ele>
        <time>2018-02-20T08:50:01.000Z</time>
      </trkpt>
      <trkpt lat="43.5275" lon="5.51164">
        <ele>289</ele>
        <time>2018-02-20T08:50:02.000Z</time>
      </trkpt>
      <trkpt lat="43.5275" lon="5.51165">
        <ele>289</ele>
        <time>2018-02-20T08:50:03.000Z</time>
      </trkpt>
      <trkpt lat="43.5275" lon="5.51166">
        <ele>288</ele>
        <time>2018-02-20T08:50:04.000Z</time>
      </trkpt>
      <trkpt lat="43.5275" lon="5.51167">
        <ele>288</ele>
        <time>2018-02-20T08:50:05.000Z</time>
      </trkpt>
      <trkpt lat="43.5275" lon="5.51168">
        <ele>288</ele>
        <time>2018-02-20T08:50:06.000Z</time>
      </trkpt>
      <trkpt lat="43.5275" lon="5.51169">
        <ele>288</ele>
        <time>2018-02-20T08:50:07.000Z</time>
      </trkpt>
      <trkpt lat="43.52751" lon="5.5117">
        <ele>288</ele>
        <time>2018-02-20T08:50:08.000Z</time>
      </trkpt>
      <trkpt lat="43.52751" lon="5.51171">
        <ele>288</ele>
        <time>2018-02-20T08:50:09.000Z</time>
      </trkpt>
      <trkpt lat="43.52751" lon="5.51172">
        <ele>288</ele>
        <time>2018-02-20T08:50:10.000Z</time>
      </trkpt>
      <trkpt lat="43.52751" lon="5.51173">
        <ele>288</ele>
        <time>2018-02-20T08:50:11.000Z</time>
      </trkpt>
      <trkpt lat="43.52752" lon="5.51174">
        <ele>287</ele>
        <time>2018-02-20T08:50:12.000Z</time>
      </trkpt>
      <trkpt lat="43.52752" lon="5.51175">
        <ele>287</ele>
        <time>2018-02-20T08:50:13.000Z</time>
      </trkpt>
      <trkpt lat="43.52752" lon="5.51176">
        <ele>287</ele>
        <time>2018-02-20T08:50:14.000Z</time>
      </trkpt>
      <trkpt lat="43.52752" lon="5.51177">
        <ele>287</ele>
        <time>2018-02-20T08:50:15.000Z</time>
      </trkpt>
      <trkpt lat="43.52751" lon="5.51178">
        <ele>287</ele>
        <time>2018-02-20T08:50:16.000Z</time>
      </trkpt>
      <trkpt lat="43.5275" lon="5.51179">
        <ele>287</ele>
        <time>2018-02-20T08:50:17.000Z</time>
      </trkpt>
      <trkpt lat="43.52749" lon="5.51179">
        <ele>287</ele>
        <time>2018-02-20T08:50:18.000Z</time>
      </trkpt>
      <trkpt lat="43.52748" lon="5.5118">
        <ele>287</ele>
        <time>2018-02-20T08:50:19.000Z</time>
      </trkpt>
      <trkpt lat="43.52747" lon="5.5118">
        <ele>287</ele>
        <time>2018-02-20T08:50:20.000Z</time>
      </trkpt>
      <trkpt lat="43.52747" lon="5.51181">
        <ele>287</ele>
        <time>2018-02-20T08:50:21.000Z</time>
      </trkpt>
      <trkpt lat="43.52746" lon="5.5118">
        <ele>287</ele>
        <time>2018-02-20T08:50:22.000Z</time>
      </trkpt>
      <trkpt lat="43.52746" lon="5.5118">
        <ele>287</ele>
        <time>2018-02-20T08:50:23.000Z</time>
      </trkpt>
      <trkpt lat="43.52746" lon="5.51179">
        <ele>287</ele>
        <time>2018-02-20T08:50:24.000Z</time>
      </trkpt>
      <trkpt lat="43.52747" lon="5.51179">
        <ele>287</ele>
        <time>2018-02-20T08:50:25.000Z</time>
      </trkpt>
      <trkpt lat="43.52747" lon="5.51179">
        <ele>287</ele>
        <time>2018-02-20T08:50:26.000Z</time>
      </trkpt>
      <trkpt lat="43.52747" lon="5.51179">
        <ele>287</ele>
        <time>2018-02-20T08:50:27.000Z</time>
      </trkpt>
      <trkpt lat="43.52747" lon="5.51178">
        <ele>287</ele>
        <time>2018-02-20T08:50:28.000Z</time>
      </trkpt>
      <trkpt lat="43.52747" lon="5.51178">
        <ele>287</ele>
        <time>2018-02-20T08:50:29.000Z</time>
      </trkpt>
      <trkpt lat="43.52748" lon="5.51179">
        <ele>287</ele>
        <time>2018-02-20T08:50:30.000Z</time>
      </trkpt>
      <trkpt lat="43.52748" lon="5.51179">
        <ele>287</ele>
        <time>2018-02-20T08:50:31.000Z</time>
      </trkpt>
      <trkpt lat="43.52748" lon="5.51179">
        <ele>287</ele>
        <time>2018-02-20T08:50:32.000Z</time>
      </trkpt>
      <trkpt lat="43.52748" lon="5.51179">
        <ele>287</ele>
        <time>2018-02-20T08:50:33.000Z</time>
      </trkpt>
      <trkpt lat="43.52748" lon="5.51179">
        <ele>288</ele>
        <time>2018-02-20T08:50:34.000Z</time>
      </trkpt>
      <trkpt lat="43.52748" lon="5.51179">
        <ele>288</ele>
        <time>2018-02-20T08:50:35.000Z</time>
      </trkpt>
      <trkpt lat="43.52748" lon="5.51179">
        <ele>288</ele>
        <time>2018-02-20T08:50:36.000Z</time>
      </trkpt>
      <trkpt lat="43.52748" lon="5.51179">
        <ele>288</ele>
        <time>2018-02-20T08:50:37.000Z</time>
      </trkpt>
      <trkpt lat="43.52748" lon="5.51179">
        <ele>288</ele>
        <time>2018-02-20T08:50:38.000Z</time>
      </trkpt>
      <trkpt lat="43.52748" lon="5.51179">
        <ele>288</ele>
        <time>2018-02-20T08:50:39.000Z</time>
      </trkpt>
      <trkpt lat="43.52748" lon="5.51179">
        <ele>288</ele>
        <time>2018-02-20T08:50:40.000Z</time>
      </trkpt>
      <trkpt lat="43.52748" lon="5.51179">
        <ele>288</ele>
        <time>2018-02-20T08:50:41.000Z</time>
      </trkpt>
      <trkpt lat="43.52748" lon="5.51179">
        <ele>288</ele>
        <time>2018-02-20T08:50:42.000Z</time>
      </trkpt>
      <trkpt lat="43.52748" lon="5.51179">
        <ele>288</ele>
        <time>2018-02-20T08:50:43.000Z</time>
      </trkpt>
      <trkpt lat="43.52748" lon="5.51179">
        <ele>288</ele>
        <time>2018-02-20T08:50:44.000Z</time>
      </trkpt>
      <trkpt lat="43.52748" lon="5.51179">
        <ele>288</ele>
        <time>2018-02-20T08:50:45.000Z</time>
      </trkpt>
      <trkpt lat="43.52748" lon="5.51179">
        <ele>288</ele>
        <time>2018-02-20T08:50:46.000Z</time>
      </trkpt>
      <trkpt lat="43.52748" lon="5.51179">
        <ele>288</ele>
        <time>2018-02-20T08:50:47.000Z</time>
      </trkpt>
      <trkpt lat="43.52748" lon="5.51179">
        <ele>288</ele>
        <time>2018-02-20T08:50:48.000Z</time>
      </trkpt>
      <trkpt lat="43.52748" lon="5.51179">
        <ele>288</ele>
        <time>2018-02-20T08:50:49.000Z</time>
      </trkpt>
      <trkpt lat="43.52748" lon="5.51179">
        <ele>288</ele>
        <time>2018-02-20T08:50:50.000Z</time>
      </trkpt>
      <trkpt lat="43.52748" lon="5.51179">
        <ele>288</ele>
        <time>2018-02-20T08:50:51.000Z</time>
      </trkpt>
      <trkpt lat="43.52748" lon="5.51179">
        <ele>288</ele>
        <time>2018-02-20T08:50:52.000Z</time>
      </trkpt>
      <trkpt lat="43.52748" lon="5.51179">
        <ele>288</ele>
        <time>2018-02-20T08:50:53.000Z</time>
      </trkpt>
      <trkpt lat="43.52748" lon="5.51178">
        <ele>288</ele>
        <time>2018-02-20T08:50:54.000Z</time>
      </trkpt>
      <trkpt lat="43.52748" lon="5.51178">
        <ele>288</ele>
        <time>2018-02-20T08:50:55.000Z</time>
      </trkpt>
      <trkpt lat="43.52748" lon="5.51178">
        <ele>288</ele>
        <time>2018-02-20T08:50:56.000Z</time>
      </trkpt>
      <trkpt lat="43.52748" lon="5.51178">
        <ele>288</ele>
        <time>2018-02-20T08:50:57.000Z</time>
      </trkpt>
      <trkpt lat="43.52748" lon="5.51178">
        <ele>288</ele>
        <time>2018-02-20T08:50:58.000Z</time>
      </trkpt>
      <trkpt lat="43.52748" lon="5.51178">
        <ele>288</ele>
        <time>2018-02-20T08:50:59.000Z</time>
      </trkpt>
      <trkpt lat="43.52748" lon="5.51178">
        <ele>288</ele>
        <time>2018-02-20T08:51:00.000Z</time>
      </trkpt>
      <trkpt lat="43.52748" lon="5.51178">
        <ele>288</ele>
        <time>2018-02-20T08:51:01.000Z</time>
      </trkpt>
      <trkpt lat="43.52748" lon="5.51178">
        <ele>288</ele>
        <time>2018-02-20T08:51:02.000Z</time>
      </trkpt>
      <trkpt lat="43.52748" lon="5.51178">
        <ele>288</ele>
        <time>2018-02-20T08:51:03.000Z</time>
      </trkpt>
      <trkpt lat="43.52748" lon="5.51178">
        <ele>288</ele>
        <time>2018-02-20T08:51:04.000Z</time>
      </trkpt>
      <trkpt lat="43.52748" lon="5.51178">
        <ele>289</ele>
        <time>2018-02-20T08:51:05.000Z</time>
      </trkpt>
      <trkpt lat="43.52748" lon="5.51178">
        <ele>289</ele>
        <time>2018-02-20T08:51:06.000Z</time>
      </trkpt>
      <trkpt lat="43.52748" lon="5.51178">
        <ele>289</ele>
        <time>2018-02-20T08:51:07.000Z</time>
      </trkpt>
      <trkpt lat="43.52748" lon="5.51178">
        <ele>289</ele>
        <time>2018-02-20T08:51:08.000Z</time>
      </trkpt>
      <trkpt lat="43.52748" lon="5.51178">
        <ele>289</ele>
        <time>2018-02-20T08:51:09.000Z</time>
      </trkpt>
      <trkpt lat="43.52748" lon="5.51178">
        <ele>289</ele>
        <time>2018-02-20T08:51:10.000Z</time>
      </trkpt>
      <trkpt lat="43.52748" lon="5.51178">
        <ele>289</ele>
        <time>2018-02-20T08:51:11.000Z</time>
      </trkpt>
      <trkpt lat="43.52748" lon="5.51178">
        <ele>289</ele>
        <time>2018-02-20T08:51:12.000Z</time>
      </trkpt>
      <trkpt lat="43.52748" lon="5.51178">
        <ele>289</ele>
        <time>2018-02-20T08:51:13.000Z</time>
      </trkpt>
      <trkpt lat="43.52748" lon="5.51178">
        <ele>289</ele>
        <time>2018-02-20T08:51:14.000Z</time>
      </trkpt>
      <trkpt lat="43.52748" lon="5.51178">
        <ele>289</ele>
        <time>2018-02-20T08:51:15.000Z</time>
      </trkpt>
      <trkpt lat="43.52748" lon="5.51178">
        <ele>289</ele>
        <time>2018-02-20T08:51:16.000Z</time>
      </trkpt>
      <trkpt lat="43.52748" lon="5.51178">
        <ele>289</ele>
        <time>2018-02-20T08:51:17.000Z</time>
      </trkpt>
      <trkpt lat="43.52748" lon="5.51178">
        <ele>289</ele>
        <time>2018-02-20T08:51:18.000Z</time>
      </trkpt>
      <trkpt lat="43.52748" lon="5.51177">
        <ele>289</ele>
        <time>2018-02-20T08:51:19.000Z</time>
      </trkpt>
      <trkpt lat="43.52748" lon="5.51178">
        <ele>289</ele>
        <time>2018-02-20T08:51:20.000Z</time>
      </trkpt>
      <trkpt lat="43.52747" lon="5.51178">
        <ele>289</ele>
        <time>2018-02-20T08:51:21.000Z</time>
      </trkpt>
      <trkpt lat="43.52747" lon="5.51178">
        <ele>289</ele>
        <time>2018-02-20T08:51:22.000Z</time>
      </trkpt>
      <trkpt lat="43.52747" lon="5.51178">
        <ele>289</ele>
        <time>2018-02-20T08:51:23.000Z</time>
      </trkpt>
      <trkpt lat="43.52748" lon="5.51178">
        <ele>289</ele>
        <time>2018-02-20T08:51:24.000Z</time>
      </trkpt>
      <trkpt lat="43.52748" lon="5.51177">
        <ele>289</ele>
        <time>2018-02-20T08:51:25.000Z</time>
      </trkpt>
      <trkpt lat="43.52748" lon="5.51178">
        <ele>289</ele>
        <time>2018-02-20T08:51:26.000Z</time>
      </trkpt>
      <trkpt lat="43.52748" lon="5.51178">
        <ele>289</ele>
        <time>2018-02-20T08:51:27.000Z</time>
      </trkpt>
      <trkpt lat="43.52748" lon="5.51177">
        <ele>289</ele>
        <time>2018-02-20T08:51:28.000Z</time>
      </trkpt>
      <trkpt lat="43.52748" lon="5.51178">
        <ele>289</ele>
        <time>2018-02-20T08:51:29.000Z</time>
      </trkpt>
      <trkpt lat="43.52748" lon="5.51178">
        <ele>288</ele>
        <time>2018-02-20T08:51:30.000Z</time>
      </trkpt>
      <trkpt lat="43.52748" lon="5.51178">
        <ele>288</ele>
        <time>2018-02-20T08:51:31.000Z</time>
      </trkpt>
      <trkpt lat="43.52748" lon="5.51178">
        <ele>288</ele>
        <time>2018-02-20T08:51:32.000Z</time>
      </trkpt>
      <trkpt lat="43.52748" lon="5.51178">
        <ele>288</ele>
        <time>2018-02-20T08:51:33.000Z</time>
      </trkpt>
      <trkpt lat="43.52748" lon="5.51178">
        <ele>288</ele>
        <time>2018-02-20T08:51:34.000Z</time>
      </trkpt>
      <trkpt lat="43.52748" lon="5.51178">
        <ele>288</ele>
        <time>2018-02-20T08:51:35.000Z</time>
      </trkpt>
      <trkpt lat="43.52748" lon="5.51178">
        <ele>288</ele>
        <time>2018-02-20T08:51:36.000Z</time>
      </trkpt>
      <trkpt lat="43.52748" lon="5.51178">
        <ele>288</ele>
        <time>2018-02-20T08:51:37.000Z</time>
      </trkpt>
      <trkpt lat="43.52747" lon="5.51178">
        <ele>288</ele>
        <time>2018-02-20T08:51:38.000Z</time>
      </trkpt>
      <trkpt lat="43.52747" lon="5.51178">
        <ele>288</ele>
        <time>2018-02-20T08:51:39.000Z</time>
      </trkpt>
      <trkpt lat="43.52747" lon="5.51178">
        <ele>288</ele>
        <time>2018-02-20T08:51:40.000Z</time>
      </trkpt>
      <trkpt lat="43.52747" lon="5.51178">
        <ele>288</ele>
        <time>2018-02-20T08:51:41.000Z</time>
      </trkpt>
      <trkpt lat="43.52747" lon="5.51178">
        <ele>288</ele>
        <time>2018-02-20T08:51:42.000Z</time>
      </trkpt>
      <trkpt lat="43.52747" lon="5.51178">
        <ele>288</ele>
        <time>2018-02-20T08:51:43.000Z</time>
      </trkpt>
      <trkpt lat="43.52747" lon="5.51178">
        <ele>288</ele>
        <time>2018-02-20T08:51:44.000Z</time>
      </trkpt>
      <trkpt lat="43.52748" lon="5.51178">
        <ele>288</ele>
        <time>2018-02-20T08:51:45.000Z</time>
      </trkpt>
      <trkpt lat="43.52748" lon="5.51178">
        <ele>288</ele>
        <time>2018-02-20T08:51:46.000Z</time>
      </trkpt>
      <trkpt lat="43.52748" lon="5.51178">
        <ele>288</ele>
        <time>2018-02-20T08:51:47.000Z</time>
      </trkpt>
      <trkpt lat="43.52747" lon="5.51177">
        <ele>288</ele>
        <time>2018-02-20T08:51:48.000Z</time>
      </trkpt>
      <trkpt lat="43.52747" lon="5.51177">
        <ele>288</ele>
        <time>2018-02-20T08:51:49.000Z</time>
      </trkpt>
      <trkpt lat="43.52747" lon="5.51177">
        <ele>288</ele>
        <time>2018-02-20T08:51:50.000Z</time>
      </trkpt>
      <trkpt lat="43.52748" lon="5.51177">
        <ele>288</ele>
        <time>2018-02-20T08:51:51.000Z</time>
      </trkpt>
      <trkpt lat="43.52747" lon="5.51178">
        <ele>288</ele>
        <time>2018-02-20T08:51:52.000Z</time>
      </trkpt>
      <trkpt lat="43.52747" lon="5.51178">
        <ele>288</ele>
        <time>2018-02-20T08:51:53.000Z</time>
      </trkpt>
      <trkpt lat="43.52748" lon="5.51177">
        <ele>289</ele>
        <time>2018-02-20T08:51:54.000Z</time>
      </trkpt>
      <trkpt lat="43.52748" lon="5.51177">
        <ele>289</ele>
        <time>2018-02-20T08:51:55.000Z</time>
      </trkpt>
      <trkpt lat="43.52748" lon="5.51177">
        <ele>289</ele>
        <time>2018-02-20T08:51:56.000Z</time>
      </trkpt>
      <trkpt lat="43.52748" lon="5.51177">
        <ele>289</ele>
        <time>2018-02-20T08:51:57.000Z</time>
      </trkpt>
      <trkpt lat="43.52748" lon="5.51177">
        <ele>288</ele>
        <time>2018-02-20T08:51:58.000Z</time>
      </trkpt>
      <trkpt lat="43.52748" lon="5.51177">
        <ele>288</ele>
        <time>2018-02-20T08:51:59.000Z</time>
      </trkpt>
      <trkpt lat="43.52748" lon="5.51177">
        <ele>288</ele>
        <time>2018-02-20T08:52:00.000Z</time>
      </trkpt>
      <trkpt lat="43.52748" lon="5.51177">
        <ele>288</ele>
        <time>2018-02-20T08:52:01.000Z</time>
      </trkpt>
      <trkpt lat="43.52749" lon="5.51177">
        <ele>289</ele>
        <time>2018-02-20T08:52:02.000Z</time>
      </trkpt>
      <trkpt lat="43.52749" lon="5.51177">
        <ele>289</ele>
        <time>2018-02-20T08:52:03.000Z</time>
      </trkpt>
      <trkpt lat="43.52749" lon="5.51177">
        <ele>289</ele>
        <time>2018-02-20T08:52:04.000Z</time>
      </trkpt>
      <trkpt lat="43.52749" lon="5.51177">
        <ele>289</ele>
        <time>2018-02-20T08:52:05.000Z</time>
      </trkpt>
      <trkpt lat="43.52749" lon="5.51177">
        <ele>288</ele>
        <time>2018-02-20T08:52:06.000Z</time>
      </trkpt>
      <trkpt lat="43.52749" lon="5.51177">
        <ele>288</ele>
        <time>2018-02-20T08:52:07.000Z</time>
      </trkpt>
      <trkpt lat="43.52749" lon="5.51177">
        <ele>288</ele>
        <time>2018-02-20T08:52:08.000Z</time>
      </trkpt>
      <trkpt lat="43.52749" lon="5.51177">
        <ele>288</ele>
        <time>2018-02-20T08:52:09.000Z</time>
      </trkpt>
      <trkpt lat="43.52749" lon="5.51177">
        <ele>288</ele>
        <time>2018-02-20T08:52:10.000Z</time>
      </trkpt>
      <trkpt lat="43.52749" lon="5.51177">
        <ele>288</ele>
        <time>2018-02-20T08:52:11.000Z</time>
      </trkpt>
      <trkpt lat="43.52749" lon="5.51177">
        <ele>288</ele>
        <time>2018-02-20T08:52:12.000Z</time>
      </trkpt>
      <trkpt lat="43.52749" lon="5.51177">
        <ele>288</ele>
        <time>2018-02-20T08:52:13.000Z</time>
      </trkpt>
      <trkpt lat="43.52749" lon="5.51177">
        <ele>288</ele>
        <time>2018-02-20T08:52:14.000Z</time>
      </trkpt>
      <trkpt lat="43.52749" lon="5.51177">
        <ele>288</ele>
        <time>2018-02-20T08:52:15.000Z</time>
      </trkpt>
      <trkpt lat="43.52749" lon="5.51177">
        <ele>288</ele>
        <time>2018-02-20T08:52:16.000Z</time>
      </trkpt>
      <trkpt lat="43.52749" lon="5.51177">
        <ele>288</ele>
        <time>2018-02-20T08:52:17.000Z</time>
      </trkpt>
      <trkpt lat="43.52749" lon="5.51177">
        <ele>288</ele>
        <time>2018-02-20T08:52:18.000Z</time>
      </trkpt>
      <trkpt lat="43.52749" lon="5.51177">
        <ele>288</ele>
        <time>2018-02-20T08:52:19.000Z</time>
      </trkpt>
      <trkpt lat="43.52749" lon="5.51176">
        <ele>288</ele>
        <time>2018-02-20T08:52:20.000Z</time>
      </trkpt>
      <trkpt lat="43.52749" lon="5.51176">
        <ele>288</ele>
        <time>2018-02-20T08:52:21.000Z</time>
      </trkpt>
      <trkpt lat="43.52749" lon="5.51176">
        <ele>288</ele>
        <time>2018-02-20T08:52:22.000Z</time>
      </trkpt>
      <trkpt lat="43.52749" lon="5.51176">
        <ele>288</ele>
        <time>2018-02-20T08:52:23.000Z</time>
      </trkpt>
      <trkpt lat="43.52749" lon="5.51176">
        <ele>288</ele>
        <time>2018-02-20T08:52:24.000Z</time>
      </trkpt>
      <trkpt lat="43.52749" lon="5.51176">
        <ele>288</ele>
        <time>2018-02-20T08:52:25.000Z</time>
      </trkpt>
      <trkpt lat="43.52749" lon="5.51177">
        <ele>288</ele>
        <time>2018-02-20T08:52:26.000Z</time>
      </trkpt>
      <trkpt lat="43.52749" lon="5.51177">
        <ele>288</ele>
        <time>2018-02-20T08:52:27.000Z</time>
      </trkpt>
      <trkpt lat="43.52749" lon="5.51176">
        <ele>288</ele>
        <time>2018-02-20T08:52:28.000Z</time>
      </trkpt>
      <trkpt lat="43.52749" lon="5.51176">
        <ele>288</ele>
        <time>2018-02-20T08:52:29.000Z</time>
      </trkpt>
      <trkpt lat="43.52749" lon="5.51176">
        <ele>288</ele>
        <time>2018-02-20T08:52:30.000Z</time>
      </trkpt>
      <trkpt lat="43.52749" lon="5.51177">
        <ele>288</ele>
        <time>2018-02-20T08:52:31.000Z</time>
      </trkpt>
      <trkpt lat="43.52749" lon="5.51177">
        <ele>288</ele>
        <time>2018-02-20T08:52:32.000Z</time>
      </trkpt>
      <trkpt lat="43.52749" lon="5.51177">
        <ele>288</ele>
        <time>2018-02-20T08:52:33.000Z</time>
      </trkpt>
      <trkpt lat="43.52749" lon="5.51177">
        <ele>288</ele>
        <time>2018-02-20T08:52:34.000Z</time>
      </trkpt>
      <trkpt lat="43.52749" lon="5.51177">
        <ele>288</ele>
        <time>2018-02-20T08:52:35.000Z</time>
      </trkpt>
      <trkpt lat="43.52749" lon="5.51177">
        <ele>288</ele>
        <time>2018-02-20T08:52:36.000Z</time>
      </trkpt>
      <trkpt lat="43.52749" lon="5.51177">
        <ele>288</ele>
        <time>2018-02-20T08:52:37.000Z</time>
      </trkpt>
      <trkpt lat="43.52749" lon="5.51177">
        <ele>288</ele>
        <time>2018-02-20T08:52:38.000Z</time>
      </trkpt>
      <trkpt lat="43.52749" lon="5.51177">
        <ele>288</ele>
        <time>2018-02-20T08:52:39.000Z</time>
      </trkpt>
      <trkpt lat="43.52749" lon="5.51177">
        <ele>288</ele>
        <time>2018-02-20T08:52:40.000Z</time>
      </trkpt>
      <trkpt lat="43.52749" lon="5.51177">
        <ele>288</ele>
        <time>2018-02-20T08:52:41.000Z</time>
      </trkpt>
      <trkpt lat="43.52749" lon="5.51177">
        <ele>288</ele>
        <time>2018-02-20T08:52:42.000Z</time>
      </trkpt>
      <trkpt lat="43.52749" lon="5.51177">
        <ele>288</ele>
        <time>2018-02-20T08:52:43.000Z</time>
      </trkpt>
      <trkpt lat="43.52749" lon="5.51177">
        <ele>288</ele>
        <time>2018-02-20T08:52:44.000Z</time>
      </trkpt>
      <trkpt lat="43.52749" lon="5.51177">
        <ele>288</ele>
        <time>2018-02-20T08:52:45.000Z</time>
      </trkpt>
      <trkpt lat="43.52749" lon="5.51177">
        <ele>288</ele>
        <time>2018-02-20T08:52:46.000Z</time>
      </trkpt>
      <trkpt lat="43.52748" lon="5.51178">
        <ele>286</ele>
        <time>2018-02-20T08:52:47.000Z</time>
      </trkpt>
      <trkpt lat="43.52748" lon="5.51178">
        <ele>286</ele>
        <time>2018-02-20T08:52:48.000Z</time>
      </trkpt>
      <trkpt lat="43.52748" lon="5.51179">
        <ele>286</ele>
        <time>2018-02-20T08:52:49.000Z</time>
      </trkpt>
      <trkpt lat="43.52748" lon="5.51179">
        <ele>286</ele>
        <time>2018-02-20T08:52:50.000Z</time>
      </trkpt>
      <trkpt lat="43.52748" lon="5.5118">
        <ele>286</ele>
        <time>2018-02-20T08:52:51.000Z</time>
      </trkpt>
      <trkpt lat="43.52748" lon="5.51182">
        <ele>286</ele>
        <time>2018-02-20T08:52:52.000Z</time>
      </trkpt>
      <trkpt lat="43.52748" lon="5.51183">
        <ele>286</ele>
        <time>2018-02-20T08:52:53.000Z</time>
      </trkpt>
      <trkpt lat="43.52749" lon="5.51184">
        <ele>286</ele>
        <time>2018-02-20T08:52:54.000Z</time>
      </trkpt>
      <trkpt lat="43.52749" lon="5.51184">
        <ele>286</ele>
        <time>2018-02-20T08:52:55.000Z</time>
      </trkpt>
      <trkpt lat="43.5275" lon="5.51184">
        <ele>286</ele>
        <time>2018-02-20T08:52:56.000Z</time>
      </trkpt>
      <trkpt lat="43.5275" lon="5.51184">
        <ele>286</ele>
        <time>2018-02-20T08:52:57.000Z</time>
      </trkpt>
      <trkpt lat="43.5275" lon="5.51184">
        <ele>286</ele>
        <time>2018-02-20T08:52:58.000Z</time>
      </trkpt>
      <trkpt lat="43.5275" lon="5.51185">
        <ele>286</ele>
        <time>2018-02-20T08:52:59.000Z</time>
      </trkpt>
      <trkpt lat="43.5275" lon="5.51185">
        <ele>286</ele>
        <time>2018-02-20T08:53:00.000Z</time>
      </trkpt>
      <trkpt lat="43.52751" lon="5.51185">
        <ele>286</ele>
        <time>2018-02-20T08:53:01.000Z</time>
      </trkpt>
      <trkpt lat="43.52751" lon="5.51185">
        <ele>286</ele>
        <time>2018-02-20T08:53:02.000Z</time>
      </trkpt>
      <trkpt lat="43.52752" lon="5.51185">
        <ele>286</ele>
        <time>2018-02-20T08:53:03.000Z</time>
      </trkpt>
      <trkpt lat="43.52752" lon="5.51185">
        <ele>286</ele>
        <time>2018-02-20T08:53:04.000Z</time>
      </trkpt>
      <trkpt lat="43.52753" lon="5.51185">
        <ele>286</ele>
        <time>2018-02-20T08:53:05.000Z</time>
      </trkpt>
      <trkpt lat="43.52754" lon="5.51185">
        <ele>286</ele>
        <time>2018-02-20T08:53:06.000Z</time>
      </trkpt>
      <trkpt lat="43.52754" lon="5.51185">
        <ele>286</ele>
        <time>2018-02-20T08:53:07.000Z</time>
      </trkpt>
      <trkpt lat="43.52754" lon="5.51185">
        <ele>286</ele>
        <time>2018-02-20T08:53:08.000Z</time>
      </trkpt>
      <trkpt lat="43.52755" lon="5.51186">
        <ele>286</ele>
        <time>2018-02-20T08:53:09.000Z</time>
      </trkpt>
      <trkpt lat="43.52755" lon="5.51187">
        <ele>286</ele>
        <time>2018-02-20T08:53:10.000Z</time>
      </trkpt>
      <trkpt lat="43.52756" lon="5.51188">
        <ele>286</ele>
        <time>2018-02-20T08:53:11.000Z</time>
      </trkpt>
      <trkpt lat="43.52757" lon="5.51189">
        <ele>286</ele>
        <time>2018-02-20T08:53:12.000Z</time>
      </trkpt>
      <trkpt lat="43.52757" lon="5.51191">
        <ele>285</ele>
        <time>2018-02-20T08:53:13.000Z</time>
      </trkpt>
      <trkpt lat="43.52758" lon="5.51192">
        <ele>285</ele>
        <time>2018-02-20T08:53:14.000Z</time>
      </trkpt>
      <trkpt lat="43.52759" lon="5.51193">
        <ele>285</ele>
        <time>2018-02-20T08:53:15.000Z</time>
      </trkpt>
      <trkpt lat="43.5276" lon="5.51194">
        <ele>285</ele>
        <time>2018-02-20T08:53:16.000Z</time>
      </trkpt>
      <trkpt lat="43.5276" lon="5.51194">
        <ele>284</ele>
        <time>2018-02-20T08:53:17.000Z</time>
      </trkpt>
      <trkpt lat="43.52761" lon="5.51195">
        <ele>284</ele>
        <time>2018-02-20T08:53:18.000Z</time>
      </trkpt>
      <trkpt lat="43.52762" lon="5.51197">
        <ele>284</ele>
        <time>2018-02-20T08:53:19.000Z</time>
      </trkpt>
      <trkpt lat="43.52763" lon="5.51197">
        <ele>284</ele>
        <time>2018-02-20T08:53:20.000Z</time>
      </trkpt>
      <trkpt lat="43.52764" lon="5.51198">
        <ele>284</ele>
        <time>2018-02-20T08:53:21.000Z</time>
      </trkpt>
      <trkpt lat="43.52764" lon="5.51198">
        <ele>284</ele>
        <time>2018-02-20T08:53:22.000Z</time>
      </trkpt>
      <trkpt lat="43.52765" lon="5.512">
        <ele>283</ele>
        <time>2018-02-20T08:53:23.000Z</time>
      </trkpt>
      <trkpt lat="43.52766" lon="5.51201">
        <ele>283</ele>
        <time>2018-02-20T08:53:24.000Z</time>
      </trkpt>
      <trkpt lat="43.52766" lon="5.51202">
        <ele>283</ele>
        <time>2018-02-20T08:53:25.000Z</time>
      </trkpt>
      <trkpt lat="43.52767" lon="5.51203">
        <ele>282</ele>
        <time>2018-02-20T08:53:26.000Z</time>
      </trkpt>
      <trkpt lat="43.52768" lon="5.51204">
        <ele>282</ele>
        <time>2018-02-20T08:53:27.000Z</time>
      </trkpt>
      <trkpt lat="43.52768" lon="5.51205">
        <ele>282</ele>
        <time>2018-02-20T08:53:28.000Z</time>
      </trkpt>
      <trkpt lat="43.52769" lon="5.51205">
        <ele>282</ele>
        <time>2018-02-20T08:53:29.000Z</time>
      </trkpt>
      <trkpt lat="43.5277" lon="5.51206">
        <ele>282</ele>
        <time>2018-02-20T08:53:30.000Z</time>
      </trkpt>
      <trkpt lat="43.52771" lon="5.51207">
        <ele>282</ele>
        <time>2018-02-20T08:53:31.000Z</time>
      </trkpt>
      <trkpt lat="43.52772" lon="5.51207">
        <ele>281</ele>
        <time>2018-02-20T08:53:32.000Z</time>
      </trkpt>
      <trkpt lat="43.52773" lon="5.51208">
        <ele>281</ele>
        <time>2018-02-20T08:53:33.000Z</time>
      </trkpt>
      <trkpt lat="43.52773" lon="5.51208">
        <ele>281</ele>
        <time>2018-02-20T08:53:34.000Z</time>
      </trkpt>
      <trkpt lat="43.52775" lon="5.5121">
        <ele>281</ele>
        <time>2018-02-20T08:53:35.000Z</time>
      </trkpt>
      <trkpt lat="43.52776" lon="5.51211">
        <ele>281</ele>
        <time>2018-02-20T08:53:36.000Z</time>
      </trkpt>
      <trkpt lat="43.52776" lon="5.51212">
        <ele>280</ele>
        <time>2018-02-20T08:53:37.000Z</time>
      </trkpt>
      <trkpt lat="43.52777" lon="5.51213">
        <ele>280</ele>
        <time>2018-02-20T08:53:38.000Z</time>
      </trkpt>
      <trkpt lat="43.52777" lon="5.51214">
        <ele>280</ele>
        <time>2018-02-20T08:53:39.000Z</time>
      </trkpt>
      <trkpt lat="43.52778" lon="5.51215">
        <ele>280</ele>
        <time>2018-02-20T08:53:40.000Z</time>
      </trkpt>
      <trkpt lat="43.52778" lon="5.51216">
        <ele>279</ele>
        <time>2018-02-20T08:53:41.000Z</time>
      </trkpt>
      <trkpt lat="43.52779" lon="5.51217">
        <ele>279</ele>
        <time>2018-02-20T08:53:42.000Z</time>
      </trkpt>
      <trkpt lat="43.5278" lon="5.51218">
        <ele>279</ele>
        <time>2018-02-20T08:53:43.000Z</time>
      </trkpt>
      <trkpt lat="43.52781" lon="5.51219">
        <ele>279</ele>
        <time>2018-02-20T08:53:44.000Z</time>
      </trkpt>
      <trkpt lat="43.52782" lon="5.5122">
        <ele>279</ele>
        <time>2018-02-20T08:53:45.000Z</time>
      </trkpt>
      <trkpt lat="43.52783" lon="5.51221">
        <ele>279</ele>
        <time>2018-02-20T08:53:46.000Z</time>
      </trkpt>
      <trkpt lat="43.52784" lon="5.51222">
        <ele>278</ele>
        <time>2018-02-20T08:53:47.000Z</time>
      </trkpt>
      <trkpt lat="43.52784" lon="5.51223">
        <ele>278</ele>
        <time>2018-02-20T08:53:48.000Z</time>
      </trkpt>
      <trkpt lat="43.52785" lon="5.51224">
        <ele>278</ele>
        <time>2018-02-20T08:53:49.000Z</time>
      </trkpt>
      <trkpt lat="43.52785" lon="5.51225">
        <ele>278</ele>
        <time>2018-02-20T08:53:50.000Z</time>
      </trkpt>
      <trkpt lat="43.52786" lon="5.51226">
        <ele>278</ele>
        <time>2018-02-20T08:53:51.000Z</time>
      </trkpt>
      <trkpt lat="43.52787" lon="5.51227">
        <ele>277</ele>
        <time>2018-02-20T08:53:52.000Z</time>
      </trkpt>
      <trkpt lat="43.52787" lon="5.51228">
        <ele>277</ele>
        <time>2018-02-20T08:53:53.000Z</time>
      </trkpt>
      <trkpt lat="43.52787" lon="5.51229">
        <ele>277</ele>
        <time>2018-02-20T08:53:54.000Z</time>
      </trkpt>
      <trkpt lat="43.52788" lon="5.5123">
        <ele>277</ele>
        <time>2018-02-20T08:53:55.000Z</time>
      </trkpt>
      <trkpt lat="43.52789" lon="5.51231">
        <ele>277</ele>
        <time>2018-02-20T08:53:56.000Z</time>
      </trkpt>
      <trkpt lat="43.5279" lon="5.51232">
        <ele>277</ele>
        <time>2018-02-20T08:53:57.000Z</time>
      </trkpt>
      <trkpt lat="43.5279" lon="5.51233">
        <ele>276</ele>
        <time>2018-02-20T08:53:58.000Z</time>
      </trkpt>
      <trkpt lat="43.52791" lon="5.51234">
        <ele>276</ele>
        <time>2018-02-20T08:53:59.000Z</time>
      </trkpt>
      <trkpt lat="43.52792" lon="5.51235">
        <ele>276</ele>
        <time>2018-02-20T08:54:00.000Z</time>
      </trkpt>
      <trkpt lat="43.52792" lon="5.51237">
        <ele>276</ele>
        <time>2018-02-20T08:54:01.000Z</time>
      </trkpt>
      <trkpt lat="43.52792" lon="5.51238">
        <ele>275</ele>
        <time>2018-02-20T08:54:02.000Z</time>
      </trkpt>
      <trkpt lat="43.52793" lon="5.51239">
        <ele>275</ele>
        <time>2018-02-20T08:54:03.000Z</time>
      </trkpt>
      <trkpt lat="43.52793" lon="5.5124">
        <ele>275</ele>
        <time>2018-02-20T08:54:04.000Z</time>
      </trkpt>
      <trkpt lat="43.52794" lon="5.51242">
        <ele>274</ele>
        <time>2018-02-20T08:54:05.000Z</time>
      </trkpt>
      <trkpt lat="43.52795" lon="5.51243">
        <ele>274</ele>
        <time>2018-02-20T08:54:06.000Z</time>
      </trkpt>
      <trkpt lat="43.52795" lon="5.51243">
        <ele>274</ele>
        <time>2018-02-20T08:54:07.000Z</time>
      </trkpt>
      <trkpt lat="43.52796" lon="5.51245">
        <ele>273</ele>
        <time>2018-02-20T08:54:08.000Z</time>
      </trkpt>
      <trkpt lat="43.52797" lon="5.51246">
        <ele>273</ele>
        <time>2018-02-20T08:54:09.000Z</time>
      </trkpt>
      <trkpt lat="43.52798" lon="5.51247">
        <ele>273</ele>
        <time>2018-02-20T08:54:10.000Z</time>
      </trkpt>
      <trkpt lat="43.52799" lon="5.51248">
        <ele>273</ele>
        <time>2018-02-20T08:54:11.000Z</time>
      </trkpt>
      <trkpt lat="43.52799" lon="5.5125">
        <ele>272</ele>
        <time>2018-02-20T08:54:12.000Z</time>
      </trkpt>
      <trkpt lat="43.528" lon="5.51251">
        <ele>272</ele>
        <time>2018-02-20T08:54:13.000Z</time>
      </trkpt>
      <trkpt lat="43.52801" lon="5.51252">
        <ele>272</ele>
        <time>2018-02-20T08:54:14.000Z</time>
      </trkpt>
      <trkpt lat="43.52802" lon="5.51253">
        <ele>272</ele>
        <time>2018-02-20T08:54:15.000Z</time>
      </trkpt>
      <trkpt lat="43.52802" lon="5.51254">
        <ele>272</ele>
        <time>2018-02-20T08:54:16.000Z</time>
      </trkpt>
      <trkpt lat="43.52803" lon="5.51254">
        <ele>272</ele>
        <time>2018-02-20T08:54:17.000Z</time>
      </trkpt>
      <trkpt lat="43.52803" lon="5.51255">
        <ele>271</ele>
        <time>2018-02-20T08:54:18.000Z</time>
      </trkpt>
      <trkpt lat="43.52804" lon="5.51256">
        <ele>271</ele>
        <time>2018-02-20T08:54:19.000Z</time>
      </trkpt>
      <trkpt lat="43.52805" lon="5.51258">
        <ele>271</ele>
        <time>2018-02-20T08:54:20.000Z</time>
      </trkpt>
      <trkpt lat="43.52806" lon="5.51259">
        <ele>271</ele>
        <time>2018-02-20T08:54:21.000Z</time>
      </trkpt>
      <trkpt lat="43.52807" lon="5.5126">
        <ele>271</ele>
        <time>2018-02-20T08:54:22.000Z</time>
      </trkpt>
      <trkpt lat="43.52808" lon="5.51261">
        <ele>271</ele>
        <time>2018-02-20T08:54:23.000Z</time>
      </trkpt>
      <trkpt lat="43.52809" lon="5.51262">
        <ele>270</ele>
        <time>2018-02-20T08:54:24.000Z</time>
      </trkpt>
      <trkpt lat="43.5281" lon="5.51263">
        <ele>270</ele>
        <time>2018-02-20T08:54:25.000Z</time>
      </trkpt>
      <trkpt lat="43.5281" lon="5.51263">
        <ele>270</ele>
        <time>2018-02-20T08:54:26.000Z</time>
      </trkpt>
      <trkpt lat="43.5281" lon="5.51264">
        <ele>270</ele>
        <time>2018-02-20T08:54:27.000Z</time>
      </trkpt>
      <trkpt lat="43.52811" lon="5.51264">
        <ele>270</ele>
        <time>2018-02-20T08:54:28.000Z</time>
      </trkpt>
      <trkpt lat="43.52811" lon="5.51265">
        <ele>270</ele>
        <time>2018-02-20T08:54:29.000Z</time>
      </trkpt>
      <trkpt lat="43.52812" lon="5.51266">
        <ele>270</ele>
        <time>2018-02-20T08:54:30.000Z</time>
      </trkpt>
      <trkpt lat="43.52813" lon="5.51267">
        <ele>269</ele>
        <time>2018-02-20T08:54:31.000Z</time>
      </trkpt>
      <trkpt lat="43.52814" lon="5.51267">
        <ele>269</ele>
        <time>2018-02-20T08:54:32.000Z</time>
      </trkpt>
      <trkpt lat="43.52814" lon="5.51269">
        <ele>269</ele>
        <time>2018-02-20T08:54:33.000Z</time>
      </trkpt>
      <trkpt lat="43.52815" lon="5.5127">
        <ele>268</ele>
        <time>2018-02-20T08:54:34.000Z</time>
      </trkpt>
      <trkpt lat="43.52816" lon="5.51271">
        <ele>268</ele>
        <time>2018-02-20T08:54:35.000Z</time>
      </trkpt>
      <trkpt lat="43.52817" lon="5.51272">
        <ele>268</ele>
        <time>2018-02-20T08:54:36.000Z</time>
      </trkpt>
      <trkpt lat="43.52817" lon="5.51273">
        <ele>268</ele>
        <time>2018-02-20T08:54:37.000Z</time>
      </trkpt>
      <trkpt lat="43.52818" lon="5.51274">
        <ele>267</ele>
        <time>2018-02-20T08:54:38.000Z</time>
      </trkpt>
      <trkpt lat="43.52819" lon="5.51275">
        <ele>267</ele>
        <time>2018-02-20T08:54:39.000Z</time>
      </trkpt>
      <trkpt lat="43.5282" lon="5.51276">
        <ele>267</ele>
        <time>2018-02-20T08:54:40.000Z</time>
      </trkpt>
      <trkpt lat="43.52821" lon="5.51277">
        <ele>267</ele>
        <time>2018-02-20T08:54:41.000Z</time>
      </trkpt>
      <trkpt lat="43.52821" lon="5.51278">
        <ele>267</ele>
        <time>2018-02-20T08:54:42.000Z</time>
      </trkpt>
      <trkpt lat="43.52822" lon="5.51279">
        <ele>267</ele>
        <time>2018-02-20T08:54:43.000Z</time>
      </trkpt>
      <trkpt lat="43.52823" lon="5.5128">
        <ele>267</ele>
        <time>2018-02-20T08:54:44.000Z</time>
      </trkpt>
      <trkpt lat="43.52824" lon="5.51281">
        <ele>267</ele>
        <time>2018-02-20T08:54:45.000Z</time>
      </trkpt>
      <trkpt lat="43.52825" lon="5.51283">
        <ele>266</ele>
        <time>2018-02-20T08:54:46.000Z</time>
      </trkpt>
      <trkpt lat="43.52826" lon="5.51284">
        <ele>266</ele>
        <time>2018-02-20T08:54:47.000Z</time>
      </trkpt>
      <trkpt lat="43.52826" lon="5.51285">
        <ele>266</ele>
        <time>2018-02-20T08:54:48.000Z</time>
      </trkpt>
      <trkpt lat="43.52827" lon="5.51285">
        <ele>266</ele>
        <time>2018-02-20T08:54:49.000Z</time>
      </trkpt>
      <trkpt lat="43.52828" lon="5.51286">
        <ele>266</ele>
        <time>2018-02-20T08:54:50.000Z</time>
      </trkpt>
      <trkpt lat="43.52829" lon="5.51286">
        <ele>266</ele>
        <time>2018-02-20T08:54:51.000Z</time>
      </trkpt>
      <trkpt lat="43.52829" lon="5.51287">
        <ele>266</ele>
        <time>2018-02-20T08:54:52.000Z</time>
      </trkpt>
      <trkpt lat="43.5283" lon="5.51288">
        <ele>265</ele>
        <time>2018-02-20T08:54:53.000Z</time>
      </trkpt>
      <trkpt lat="43.52831" lon="5.51289">
        <ele>265</ele>
        <time>2018-02-20T08:54:54.000Z</time>
      </trkpt>
      <trkpt lat="43.52831" lon="5.5129">
        <ele>265</ele>
        <time>2018-02-20T08:54:55.000Z</time>
      </trkpt>
      <trkpt lat="43.52832" lon="5.51291">
        <ele>265</ele>
        <time>2018-02-20T08:54:56.000Z</time>
      </trkpt>
      <trkpt lat="43.52833" lon="5.51292">
        <ele>265</ele>
        <time>2018-02-20T08:54:57.000Z</time>
      </trkpt>
      <trkpt lat="43.52833" lon="5.51292">
        <ele>265</ele>
        <time>2018-02-20T08:54:58.000Z</time>
      </trkpt>
      <trkpt lat="43.52835" lon="5.51293">
        <ele>265</ele>
        <time>2018-02-20T08:54:59.000Z</time>
      </trkpt>
      <trkpt lat="43.52835" lon="5.51294">
        <ele>264</ele>
        <time>2018-02-20T08:55:00.000Z</time>
      </trkpt>
      <trkpt lat="43.52836" lon="5.51295">
        <ele>264</ele>
        <time>2018-02-20T08:55:01.000Z</time>
      </trkpt>
      <trkpt lat="43.52837" lon="5.51296">
        <ele>264</ele>
        <time>2018-02-20T08:55:02.000Z</time>
      </trkpt>
      <trkpt lat="43.52837" lon="5.51296">
        <ele>264</ele>
        <time>2018-02-20T08:55:03.000Z</time>
      </trkpt>
      <trkpt lat="43.52838" lon="5.51297">
        <ele>264</ele>
        <time>2018-02-20T08:55:04.000Z</time>
      </trkpt>
      <trkpt lat="43.52839" lon="5.51298">
        <ele>264</ele>
        <time>2018-02-20T08:55:05.000Z</time>
      </trkpt>
      <trkpt lat="43.5284" lon="5.51299">
        <ele>264</ele>
        <time>2018-02-20T08:55:06.000Z</time>
      </trkpt>
      <trkpt lat="43.52841" lon="5.513">
        <ele>263</ele>
        <time>2018-02-20T08:55:07.000Z</time>
      </trkpt>
      <trkpt lat="43.52841" lon="5.51301">
        <ele>263</ele>
        <time>2018-02-20T08:55:08.000Z</time>
      </trkpt>
      <trkpt lat="43.52841" lon="5.51301">
        <ele>263</ele>
        <time>2018-02-20T08:55:09.000Z</time>
      </trkpt>
      <trkpt lat="43.52843" lon="5.51303">
        <ele>263</ele>
        <time>2018-02-20T08:55:10.000Z</time>
      </trkpt>
      <trkpt lat="43.52844" lon="5.51303">
        <ele>263</ele>
        <time>2018-02-20T08:55:11.000Z</time>
      </trkpt>
      <trkpt lat="43.52844" lon="5.51304">
        <ele>262</ele>
        <time>2018-02-20T08:55:12.000Z</time>
      </trkpt>
      <trkpt lat="43.52845" lon="5.51304">
        <ele>262</ele>
        <time>2018-02-20T08:55:13.000Z</time>
      </trkpt>
      <trkpt lat="43.52846" lon="5.51305">
        <ele>262</ele>
        <time>2018-02-20T08:55:14.000Z</time>
      </trkpt>
      <trkpt lat="43.52847" lon="5.51306">
        <ele>262</ele>
        <time>2018-02-20T08:55:15.000Z</time>
      </trkpt>
      <trkpt lat="43.52847" lon="5.51306">
        <ele>262</ele>
        <time>2018-02-20T08:55:16.000Z</time>
      </trkpt>
      <trkpt lat="43.52848" lon="5.51307">
        <ele>261</ele>
        <time>2018-02-20T08:55:17.000Z</time>
      </trkpt>
      <trkpt lat="43.52849" lon="5.51308">
        <ele>261</ele>
        <time>2018-02-20T08:55:18.000Z</time>
      </trkpt>
      <trkpt lat="43.5285" lon="5.51309">
        <ele>261</ele>
        <time>2018-02-20T08:55:19.000Z</time>
      </trkpt>
      <trkpt lat="43.52851" lon="5.51309">
        <ele>261</ele>
        <time>2018-02-20T08:55:20.000Z</time>
      </trkpt>
      <trkpt lat="43.52852" lon="5.5131">
        <ele>261</ele>
        <time>2018-02-20T08:55:21.000Z</time>
      </trkpt>
      <trkpt lat="43.52853" lon="5.5131">
        <ele>261</ele>
        <time>2018-02-20T08:55:22.000Z</time>
      </trkpt>
      <trkpt lat="43.52855" lon="5.5131">
        <ele>260</ele>
        <time>2018-02-20T08:55:23.000Z</time>
      </trkpt>
      <trkpt lat="43.52856" lon="5.5131">
        <ele>260</ele>
        <time>2018-02-20T08:55:24.000Z</time>
      </trkpt>
      <trkpt lat="43.52857" lon="5.51311">
        <ele>260</ele>
        <time>2018-02-20T08:55:25.000Z</time>
      </trkpt>
      <trkpt lat="43.52858" lon="5.51311">
        <ele>260</ele>
        <time>2018-02-20T08:55:26.000Z</time>
      </trkpt>
      <trkpt lat="43.52859" lon="5.51311">
        <ele>260</ele>
        <time>2018-02-20T08:55:27.000Z</time>
      </trkpt>
      <trkpt lat="43.5286" lon="5.51311">
        <ele>259</ele>
        <time>2018-02-20T08:55:28.000Z</time>
      </trkpt>
      <trkpt lat="43.52861" lon="5.51312">
        <ele>259</ele>
        <time>2018-02-20T08:55:29.000Z</time>
      </trkpt>
      <trkpt lat="43.52862" lon="5.51312">
        <ele>259</ele>
        <time>2018-02-20T08:55:30.000Z</time>
      </trkpt>
      <trkpt lat="43.52863" lon="5.51313">
        <ele>259</ele>
        <time>2018-02-20T08:55:31.000Z</time>
      </trkpt>
      <trkpt lat="43.52864" lon="5.51314">
        <ele>259</ele>
        <time>2018-02-20T08:55:32.000Z</time>
      </trkpt>
      <trkpt lat="43.52865" lon="5.51315">
        <ele>258</ele>
        <time>2018-02-20T08:55:33.000Z</time>
      </trkpt>
      <trkpt lat="43.52866" lon="5.51315">
        <ele>258</ele>
        <time>2018-02-20T08:55:34.000Z</time>
      </trkpt>
      <trkpt lat="43.52868" lon="5.51316">
        <ele>258</ele>
        <time>2018-02-20T08:55:35.000Z</time>
      </trkpt>
      <trkpt lat="43.52869" lon="5.51316">
        <ele>258</ele>
        <time>2018-02-20T08:55:36.000Z</time>
      </trkpt>
      <trkpt lat="43.5287" lon="5.51317">
        <ele>257</ele>
        <time>2018-02-20T08:55:37.000Z</time>
      </trkpt>
      <trkpt lat="43.52871" lon="5.51318">
        <ele>257</ele>
        <time>2018-02-20T08:55:38.000Z</time>
      </trkpt>
      <trkpt lat="43.52872" lon="5.51319">
        <ele>257</ele>
        <time>2018-02-20T08:55:39.000Z</time>
      </trkpt>
      <trkpt lat="43.52874" lon="5.5132">
        <ele>256</ele>
        <time>2018-02-20T08:55:40.000Z</time>
      </trkpt>
      <trkpt lat="43.52875" lon="5.51321">
        <ele>256</ele>
        <time>2018-02-20T08:55:41.000Z</time>
      </trkpt>
      <trkpt lat="43.52876" lon="5.51321">
        <ele>255</ele>
        <time>2018-02-20T08:55:42.000Z</time>
      </trkpt>
      <trkpt lat="43.52877" lon="5.51322">
        <ele>255</ele>
        <time>2018-02-20T08:55:43.000Z</time>
      </trkpt>
      <trkpt lat="43.52878" lon="5.51323">
        <ele>255</ele>
        <time>2018-02-20T08:55:44.000Z</time>
      </trkpt>
      <trkpt lat="43.52879" lon="5.51323">
        <ele>254</ele>
        <time>2018-02-20T08:55:45.000Z</time>
      </trkpt>
      <trkpt lat="43.5288" lon="5.51323">
        <ele>254</ele>
        <time>2018-02-20T08:55:46.000Z</time>
      </trkpt>
      <trkpt lat="43.52881" lon="5.51323">
        <ele>254</ele>
        <time>2018-02-20T08:55:47.000Z</time>
      </trkpt>
      <trkpt lat="43.52882" lon="5.51322">
        <ele>253</ele>
        <time>2018-02-20T08:55:48.000Z</time>
      </trkpt>
      <trkpt lat="43.52884" lon="5.51322">
        <ele>253</ele>
        <time>2018-02-20T08:55:49.000Z</time>
      </trkpt>
      <trkpt lat="43.52885" lon="5.51321">
        <ele>253</ele>
        <time>2018-02-20T08:55:50.000Z</time>
      </trkpt>
      <trkpt lat="43.52886" lon="5.5132">
        <ele>253</ele>
        <time>2018-02-20T08:55:51.000Z</time>
      </trkpt>
      <trkpt lat="43.52887" lon="5.51319">
        <ele>252</ele>
        <time>2018-02-20T08:55:52.000Z</time>
      </trkpt>
      <trkpt lat="43.52889" lon="5.51318">
        <ele>252</ele>
        <time>2018-02-20T08:55:53.000Z</time>
      </trkpt>
      <trkpt lat="43.5289" lon="5.51318">
        <ele>252</ele>
        <time>2018-02-20T08:55:54.000Z</time>
      </trkpt>
      <trkpt lat="43.52891" lon="5.51317">
        <ele>252</ele>
        <time>2018-02-20T08:55:55.000Z</time>
      </trkpt>
      <trkpt lat="43.52892" lon="5.51316">
        <ele>252</ele>
        <time>2018-02-20T08:55:56.000Z</time>
      </trkpt>
      <trkpt lat="43.52893" lon="5.51315">
        <ele>252</ele>
        <time>2018-02-20T08:55:57.000Z</time>
      </trkpt>
      <trkpt lat="43.52894" lon="5.51315">
        <ele>252</ele>
        <time>2018-02-20T08:55:58.000Z</time>
      </trkpt>
      <trkpt lat="43.52895" lon="5.51313">
        <ele>251</ele>
        <time>2018-02-20T08:55:59.000Z</time>
      </trkpt>
      <trkpt lat="43.52896" lon="5.51312">
        <ele>251</ele>
        <time>2018-02-20T08:56:00.000Z</time>
      </trkpt>
      <trkpt lat="43.52896" lon="5.5131">
        <ele>251</ele>
        <time>2018-02-20T08:56:01.000Z</time>
      </trkpt>
      <trkpt lat="43.52897" lon="5.51309">
        <ele>251</ele>
        <time>2018-02-20T08:56:02.000Z</time>
      </trkpt>
      <trkpt lat="43.52898" lon="5.51308">
        <ele>251</ele>
        <time>2018-02-20T08:56:03.000Z</time>
      </trkpt>
      <trkpt lat="43.52898" lon="5.51307">
        <ele>251</ele>
        <time>2018-02-20T08:56:04.000Z</time>
      </trkpt>
      <trkpt lat="43.52899" lon="5.51306">
        <ele>251</ele>
        <time>2018-02-20T08:56:05.000Z</time>
      </trkpt>
      <trkpt lat="43.529" lon="5.51305">
        <ele>250</ele>
        <time>2018-02-20T08:56:06.000Z</time>
      </trkpt>
      <trkpt lat="43.529" lon="5.51304">
        <ele>250</ele>
        <time>2018-02-20T08:56:07.000Z</time>
      </trkpt>
      <trkpt lat="43.52901" lon="5.51302">
        <ele>250</ele>
        <time>2018-02-20T08:56:08.000Z</time>
      </trkpt>
      <trkpt lat="43.52902" lon="5.51301">
        <ele>250</ele>
        <time>2018-02-20T08:56:09.000Z</time>
      </trkpt>
      <trkpt lat="43.52903" lon="5.513">
        <ele>249</ele>
        <time>2018-02-20T08:56:10.000Z</time>
      </trkpt>
      <trkpt lat="43.52903" lon="5.51299">
        <ele>249</ele>
        <time>2018-02-20T08:56:11.000Z</time>
      </trkpt>
      <trkpt lat="43.52903" lon="5.51298">
        <ele>248</ele>
        <time>2018-02-20T08:56:12.000Z</time>
      </trkpt>
      <trkpt lat="43.52904" lon="5.51298">
        <ele>248</ele>
        <time>2018-02-20T08:56:13.000Z</time>
      </trkpt>
      <trkpt lat="43.52904" lon="5.51297">
        <ele>248</ele>
        <time>2018-02-20T08:56:14.000Z</time>
      </trkpt>
      <trkpt lat="43.52905" lon="5.51297">
        <ele>247</ele>
        <time>2018-02-20T08:56:15.000Z</time>
      </trkpt>
      <trkpt lat="43.52905" lon="5.51297">
        <ele>247</ele>
        <time>2018-02-20T08:56:16.000Z</time>
      </trkpt>
      <trkpt lat="43.52905" lon="5.51296">
        <ele>246</ele>
        <time>2018-02-20T08:56:17.000Z</time>
      </trkpt>
      <trkpt lat="43.52906" lon="5.51295">
        <ele>246</ele>
        <time>2018-02-20T08:56:18.000Z</time>
      </trkpt>
      <trkpt lat="43.52906" lon="5.51294">
        <ele>245</ele>
        <time>2018-02-20T08:56:19.000Z</time>
      </trkpt>
      <trkpt lat="43.52906" lon="5.51292">
        <ele>245</ele>
        <time>2018-02-20T08:56:20.000Z</time>
      </trkpt>
      <trkpt lat="43.52907" lon="5.51291">
        <ele>244</ele>
        <time>2018-02-20T08:56:21.000Z</time>
      </trkpt>
      <trkpt lat="43.52907" lon="5.5129">
        <ele>244</ele>
        <time>2018-02-20T08:56:22.000Z</time>
      </trkpt>
      <trkpt lat="43.52908" lon="5.51289">
        <ele>243</ele>
        <time>2018-02-20T08:56:23.000Z</time>
      </trkpt>
      <trkpt lat="43.52908" lon="5.51288">
        <ele>243</ele>
        <time>2018-02-20T08:56:24.000Z</time>
      </trkpt>
      <trkpt lat="43.52908" lon="5.51287">
        <ele>243</ele>
        <time>2018-02-20T08:56:25.000Z</time>
      </trkpt>
      <trkpt lat="43.52909" lon="5.51286">
        <ele>243</ele>
        <time>2018-02-20T08:56:26.000Z</time>
      </trkpt>
      <trkpt lat="43.52909" lon="5.51285">
        <ele>242</ele>
        <time>2018-02-20T08:56:27.000Z</time>
      </trkpt>
      <trkpt lat="43.52909" lon="5.51284">
        <ele>242</ele>
        <time>2018-02-20T08:56:28.000Z</time>
      </trkpt>
      <trkpt lat="43.52909" lon="5.51283">
        <ele>242</ele>
        <time>2018-02-20T08:56:29.000Z</time>
      </trkpt>
      <trkpt lat="43.5291" lon="5.51282">
        <ele>242</ele>
        <time>2018-02-20T08:56:30.000Z</time>
      </trkpt>
      <trkpt lat="43.5291" lon="5.51281">
        <ele>242</ele>
        <time>2018-02-20T08:56:31.000Z</time>
      </trkpt>
      <trkpt lat="43.52911" lon="5.5128">
        <ele>241</ele>
        <time>2018-02-20T08:56:32.000Z</time>
      </trkpt>
      <trkpt lat="43.52911" lon="5.51279">
        <ele>241</ele>
        <time>2018-02-20T08:56:33.000Z</time>
      </trkpt>
      <trkpt lat="43.52911" lon="5.51278">
        <ele>241</ele>
        <time>2018-02-20T08:56:34.000Z</time>
      </trkpt>
      <trkpt lat="43.52912" lon="5.51276">
        <ele>240</ele>
        <time>2018-02-20T08:56:35.000Z</time>
      </trkpt>
      <trkpt lat="43.52912" lon="5.51275">
        <ele>240</ele>
        <time>2018-02-20T08:56:36.000Z</time>
      </trkpt>
      <trkpt lat="43.52912" lon="5.51274">
        <ele>240</ele>
        <time>2018-02-20T08:56:37.000Z</time>
      </trkpt>
      <trkpt lat="43.52912" lon="5.51272">
        <ele>239</ele>
        <time>2018-02-20T08:56:38.000Z</time>
      </trkpt>
      <trkpt lat="43.52912" lon="5.51271">
        <ele>239</ele>
        <time>2018-02-20T08:56:39.000Z</time>
      </trkpt>
      <trkpt lat="43.52912" lon="5.5127">
        <ele>239</ele>
        <time>2018-02-20T08:56:40.000Z</time>
      </trkpt>
      <trkpt lat="43.52912" lon="5.51269">
        <ele>238</ele>
        <time>2018-02-20T08:56:41.000Z</time>
      </trkpt>
      <trkpt lat="43.52912" lon="5.51268">
        <ele>238</ele>
        <time>2018-02-20T08:56:42.000Z</time>
      </trkpt>
      <trkpt lat="43.52912" lon="5.51266">
        <ele>237</ele>
        <time>2018-02-20T08:56:43.000Z</time>
      </trkpt>
      <trkpt lat="43.52912" lon="5.51265">
        <ele>237</ele>
        <time>2018-02-20T08:56:44.000Z</time>
      </trkpt>
      <trkpt lat="43.52913" lon="5.51264">
        <ele>237</ele>
        <time>2018-02-20T08:56:45.000Z</time>
      </trkpt>
      <trkpt lat="43.52913" lon="5.51263">
        <ele>237</ele>
        <time>2018-02-20T08:56:46.000Z</time>
      </trkpt>
      <trkpt lat="43.52913" lon="5.51261">
        <ele>236</ele>
        <time>2018-02-20T08:56:47.000Z</time>
      </trkpt>
      <trkpt lat="43.52913" lon="5.5126">
        <ele>236</ele>
        <time>2018-02-20T08:56:48.000Z</time>
      </trkpt>
      <trkpt lat="43.52914" lon="5.51259">
        <ele>236</ele>
        <time>2018-02-20T08:56:49.000Z</time>
      </trkpt>
      <trkpt lat="43.52914" lon="5.51258">
        <ele>236</ele>
        <time>2018-02-20T08:56:50.000Z</time>
      </trkpt>
      <trkpt lat="43.52914" lon="5.51256">
        <ele>236</ele>
        <time>2018-02-20T08:56:51.000Z</time>
      </trkpt>
      <trkpt lat="43.52914" lon="5.51255">
        <ele>235</ele>
        <time>2018-02-20T08:56:52.000Z</time>
      </trkpt>
      <trkpt lat="43.52914" lon="5.51254">
        <ele>235</ele>
        <time>2018-02-20T08:56:53.000Z</time>
      </trkpt>
      <trkpt lat="43.52915" lon="5.51252">
        <ele>235</ele>
        <time>2018-02-20T08:56:54.000Z</time>
      </trkpt>
      <trkpt lat="43.52915" lon="5.51251">
        <ele>235</ele>
        <time>2018-02-20T08:56:55.000Z</time>
      </trkpt>
      <trkpt lat="43.52915" lon="5.51249">
        <ele>235</ele>
        <time>2018-02-20T08:56:56.000Z</time>
      </trkpt>
      <trkpt lat="43.52915" lon="5.51248">
        <ele>234</ele>
        <time>2018-02-20T08:56:57.000Z</time>
      </trkpt>
      <trkpt lat="43.52915" lon="5.51246">
        <ele>234</ele>
        <time>2018-02-20T08:56:58.000Z</time>
      </trkpt>
      <trkpt lat="43.52915" lon="5.51245">
        <ele>234</ele>
        <time>2018-02-20T08:56:59.000Z</time>
      </trkpt>
      <trkpt lat="43.52915" lon="5.51244">
        <ele>234</ele>
        <time>2018-02-20T08:57:00.000Z</time>
      </trkpt>
      <trkpt lat="43.52916" lon="5.51242">
        <ele>234</ele>
        <time>2018-02-20T08:57:01.000Z</time>
      </trkpt>
      <trkpt lat="43.52916" lon="5.51241">
        <ele>234</ele>
        <time>2018-02-20T08:57:02.000Z</time>
      </trkpt>
      <trkpt lat="43.52916" lon="5.51239">
        <ele>234</ele>
        <time>2018-02-20T08:57:03.000Z</time>
      </trkpt>
      <trkpt lat="43.52916" lon="5.51238">
        <ele>234</ele>
        <time>2018-02-20T08:57:04.000Z</time>
      </trkpt>
      <trkpt lat="43.52916" lon="5.51237">
        <ele>234</ele>
        <time>2018-02-20T08:57:05.000Z</time>
      </trkpt>
      <trkpt lat="43.52916" lon="5.51236">
        <ele>234</ele>
        <time>2018-02-20T08:57:06.000Z</time>
      </trkpt>
      <trkpt lat="43.52917" lon="5.51235">
        <ele>234</ele>
        <time>2018-02-20T08:57:07.000Z</time>
      </trkpt>
      <trkpt lat="43.52917" lon="5.51234">
        <ele>234</ele>
        <time>2018-02-20T08:57:08.000Z</time>
      </trkpt>
      <trkpt lat="43.52917" lon="5.51233">
        <ele>234</ele>
        <time>2018-02-20T08:57:09.000Z</time>
      </trkpt>
      <trkpt lat="43.52917" lon="5.51232">
        <ele>234</ele>
        <time>2018-02-20T08:57:10.000Z</time>
      </trkpt>
      <trkpt lat="43.52917" lon="5.5123">
        <ele>234</ele>
        <time>2018-02-20T08:57:11.000Z</time>
      </trkpt>
      <trkpt lat="43.52917" lon="5.51229">
        <ele>234</ele>
        <time>2018-02-20T08:57:12.000Z</time>
      </trkpt>
      <trkpt lat="43.52917" lon="5.51228">
        <ele>233</ele>
        <time>2018-02-20T08:57:13.000Z</time>
      </trkpt>
      <trkpt lat="43.52918" lon="5.51226">
        <ele>233</ele>
        <time>2018-02-20T08:57:14.000Z</time>
      </trkpt>
      <trkpt lat="43.52918" lon="5.51225">
        <ele>233</ele>
        <time>2018-02-20T08:57:15.000Z</time>
      </trkpt>
      <trkpt lat="43.52918" lon="5.51224">
        <ele>233</ele>
        <time>2018-02-20T08:57:16.000Z</time>
      </trkpt>
      <trkpt lat="43.52918" lon="5.51223">
        <ele>233</ele>
        <time>2018-02-20T08:57:17.000Z</time>
      </trkpt>
      <trkpt lat="43.52918" lon="5.51222">
        <ele>233</ele>
        <time>2018-02-20T08:57:18.000Z</time>
      </trkpt>
      <trkpt lat="43.52918" lon="5.5122">
        <ele>232</ele>
        <time>2018-02-20T08:57:19.000Z</time>
      </trkpt>
      <trkpt lat="43.52918" lon="5.51219">
        <ele>232</ele>
        <time>2018-02-20T08:57:20.000Z</time>
      </trkpt>
      <trkpt lat="43.52918" lon="5.51217">
        <ele>232</ele>
        <time>2018-02-20T08:57:21.000Z</time>
      </trkpt>
      <trkpt lat="43.52919" lon="5.51216">
        <ele>232</ele>
        <time>2018-02-20T08:57:22.000Z</time>
      </trkpt>
      <trkpt lat="43.52919" lon="5.51215">
        <ele>231</ele>
        <time>2018-02-20T08:57:23.000Z</time>
      </trkpt>
      <trkpt lat="43.52919" lon="5.51214">
        <ele>231</ele>
        <time>2018-02-20T08:57:24.000Z</time>
      </trkpt>
      <trkpt lat="43.52919" lon="5.51213">
        <ele>231</ele>
        <time>2018-02-20T08:57:25.000Z</time>
      </trkpt>
      <trkpt lat="43.52919" lon="5.51212">
        <ele>230</ele>
        <time>2018-02-20T08:57:26.000Z</time>
      </trkpt>
      <trkpt lat="43.52919" lon="5.5121">
        <ele>230</ele>
        <time>2018-02-20T08:57:27.000Z</time>
      </trkpt>
      <trkpt lat="43.52919" lon="5.51209">
        <ele>230</ele>
        <time>2018-02-20T08:57:28.000Z</time>
      </trkpt>
      <trkpt lat="43.52919" lon="5.51208">
        <ele>229</ele>
        <time>2018-02-20T08:57:29.000Z</time>
      </trkpt>
      <trkpt lat="43.52919" lon="5.51206">
        <ele>229</ele>
        <time>2018-02-20T08:57:30.000Z</time>
      </trkpt>
      <trkpt lat="43.52919" lon="5.51205">
        <ele>228</ele>
        <time>2018-02-20T08:57:31.000Z</time>
      </trkpt>
      <trkpt lat="43.52919" lon="5.51204">
        <ele>228</ele>
        <time>2018-02-20T08:57:32.000Z</time>
      </trkpt>
      <trkpt lat="43.52918" lon="5.51203">
        <ele>227</ele>
        <time>2018-02-20T08:57:33.000Z</time>
      </trkpt>
      <trkpt lat="43.52918" lon="5.51202">
        <ele>227</ele>
        <time>2018-02-20T08:57:34.000Z</time>
      </trkpt>
      <trkpt lat="43.52918" lon="5.512">
        <ele>226</ele>
        <time>2018-02-20T08:57:35.000Z</time>
      </trkpt>
      <trkpt lat="43.52918" lon="5.51199">
        <ele>226</ele>
        <time>2018-02-20T08:57:36.000Z</time>
      </trkpt>
      <trkpt lat="43.52918" lon="5.51198">
        <ele>226</ele>
        <time>2018-02-20T08:57:37.000Z</time>
      </trkpt>
      <trkpt lat="43.52918" lon="5.51196">
        <ele>225</ele>
        <time>2018-02-20T08:57:38.000Z</time>
      </trkpt>
      <trkpt lat="43.52918" lon="5.51195">
        <ele>225</ele>
        <time>2018-02-20T08:57:39.000Z</time>
      </trkpt>
      <trkpt lat="43.52918" lon="5.51193">
        <ele>225</ele>
        <time>2018-02-20T08:57:40.000Z</time>
      </trkpt>
      <trkpt lat="43.52918" lon="5.51192">
        <ele>225</ele>
        <time>2018-02-20T08:57:41.000Z</time>
      </trkpt>
      <trkpt lat="43.52917" lon="5.5119">
        <ele>224</ele>
        <time>2018-02-20T08:57:42.000Z</time>
      </trkpt>
      <trkpt lat="43.52917" lon="5.51189">
        <ele>224</ele>
        <time>2018-02-20T08:57:43.000Z</time>
      </trkpt>
      <trkpt lat="43.52916" lon="5.51187">
        <ele>224</ele>
        <time>2018-02-20T08:57:44.000Z</time>
      </trkpt>
      <trkpt lat="43.52916" lon="5.51186">
        <ele>223</ele>
        <time>2018-02-20T08:57:45.000Z</time>
      </trkpt>
      <trkpt lat="43.52916" lon="5.51185">
        <ele>223</ele>
        <time>2018-02-20T08:57:46.000Z</time>
      </trkpt>
      <trkpt lat="43.52916" lon="5.51184">
        <ele>222</ele>
        <time>2018-02-20T08:57:47.000Z</time>
      </trkpt>
      <trkpt lat="43.52916" lon="5.51183">
        <ele>222</ele>
        <time>2018-02-20T08:57:48.000Z</time>
      </trkpt>
      <trkpt lat="43.52917" lon="5.51181">
        <ele>222</ele>
        <time>2018-02-20T08:57:49.000Z</time>
      </trkpt>
      <trkpt lat="43.52917" lon="5.5118">
        <ele>221</ele>
        <time>2018-02-20T08:57:50.000Z</time>
      </trkpt>
      <trkpt lat="43.52917" lon="5.51179">
        <ele>221</ele>
        <time>2018-02-20T08:57:51.000Z</time>
      </trkpt>
      <trkpt lat="43.52918" lon="5.51177">
        <ele>221</ele>
        <time>2018-02-20T08:57:52.000Z</time>
      </trkpt>
      <trkpt lat="43.52918" lon="5.51176">
        <ele>220</ele>
        <time>2018-02-20T08:57:53.000Z</time>
      </trkpt>
      <trkpt lat="43.52919" lon="5.51174">
        <ele>220</ele>
        <time>2018-02-20T08:57:54.000Z</time>
      </trkpt>
      <trkpt lat="43.5292" lon="5.51173">
        <ele>220</ele>
        <time>2018-02-20T08:57:55.000Z</time>
      </trkpt>
      <trkpt lat="43.52921" lon="5.51172">
        <ele>220</ele>
        <time>2018-02-20T08:57:56.000Z</time>
      </trkpt>
      <trkpt lat="43.52923" lon="5.51171">
        <ele>219</ele>
        <time>2018-02-20T08:57:57.000Z</time>
      </trkpt>
      <trkpt lat="43.52924" lon="5.5117">
        <ele>219</ele>
        <time>2018-02-20T08:57:58.000Z</time>
      </trkpt>
      <trkpt lat="43.52926" lon="5.51169">
        <ele>219</ele>
        <time>2018-02-20T08:57:59.000Z</time>
      </trkpt>
      <trkpt lat="43.52927" lon="5.51168">
        <ele>219</ele>
        <time>2018-02-20T08:58:00.000Z</time>
      </trkpt>
      <trkpt lat="43.52929" lon="5.51168">
        <ele>219</ele>
        <time>2018-02-20T08:58:01.000Z</time>
      </trkpt>
      <trkpt lat="43.5293" lon="5.51167">
        <ele>219</ele>
        <time>2018-02-20T08:58:02.000Z</time>
      </trkpt>
      <trkpt lat="43.52932" lon="5.51167">
        <ele>219</ele>
        <time>2018-02-20T08:58:03.000Z</time>
      </trkpt>
      <trkpt lat="43.52933" lon="5.51167">
        <ele>218</ele>
        <time>2018-02-20T08:58:04.000Z</time>
      </trkpt>
      <trkpt lat="43.52934" lon="5.51167">
        <ele>218</ele>
        <time>2018-02-20T08:58:05.000Z</time>
      </trkpt>
      <trkpt lat="43.52936" lon="5.51166">
        <ele>218</ele>
        <time>2018-02-20T08:58:06.000Z</time>
      </trkpt>
      <trkpt lat="43.52937" lon="5.51167">
        <ele>218</ele>
        <time>2018-02-20T08:58:07.000Z</time>
      </trkpt>
      <trkpt lat="43.52937" lon="5.51166">
        <ele>218</ele>
        <time>2018-02-20T08:58:08.000Z</time>
      </trkpt>
      <trkpt lat="43.52938" lon="5.51166">
        <ele>218</ele>
        <time>2018-02-20T08:58:09.000Z</time>
      </trkpt>
      <trkpt lat="43.52939" lon="5.51166">
        <ele>218</ele>
        <time>2018-02-20T08:58:10.000Z</time>
      </trkpt>
      <trkpt lat="43.5294" lon="5.51166">
        <ele>218</ele>
        <time>2018-02-20T08:58:11.000Z</time>
      </trkpt>
      <trkpt lat="43.52941" lon="5.51167">
        <ele>218</ele>
        <time>2018-02-20T08:58:12.000Z</time>
      </trkpt>
      <trkpt lat="43.52942" lon="5.51167">
        <ele>218</ele>
        <time>2018-02-20T08:58:13.000Z</time>
      </trkpt>
      <trkpt lat="43.52943" lon="5.51167">
        <ele>217</ele>
        <time>2018-02-20T08:58:14.000Z</time>
      </trkpt>
      <trkpt lat="43.52943" lon="5.51167">
        <ele>217</ele>
        <time>2018-02-20T08:58:15.000Z</time>
      </trkpt>
      <trkpt lat="43.52944" lon="5.51167">
        <ele>217</ele>
        <time>2018-02-20T08:58:16.000Z</time>
      </trkpt>
      <trkpt lat="43.52945" lon="5.51167">
        <ele>217</ele>
        <time>2018-02-20T08:58:17.000Z</time>
      </trkpt>
      <trkpt lat="43.52946" lon="5.51166">
        <ele>217</ele>
        <time>2018-02-20T08:58:18.000Z</time>
      </trkpt>
      <trkpt lat="43.52947" lon="5.51167">
        <ele>217</ele>
        <time>2018-02-20T08:58:19.000Z</time>
      </trkpt>
      <trkpt lat="43.52947" lon="5.51166">
        <ele>217</ele>
        <time>2018-02-20T08:58:20.000Z</time>
      </trkpt>
      <trkpt lat="43.52948" lon="5.51165">
        <ele>217</ele>
        <time>2018-02-20T08:58:21.000Z</time>
      </trkpt>
      <trkpt lat="43.52949" lon="5.51165">
        <ele>217</ele>
        <time>2018-02-20T08:58:22.000Z</time>
      </trkpt>
      <trkpt lat="43.52949" lon="5.51165">
        <ele>217</ele>
        <time>2018-02-20T08:58:23.000Z</time>
      </trkpt>
      <trkpt lat="43.5295" lon="5.51165">
        <ele>217</ele>
        <time>2018-02-20T08:58:24.000Z</time>
      </trkpt>
      <trkpt lat="43.5295" lon="5.51164">
        <ele>217</ele>
        <time>2018-02-20T08:58:25.000Z</time>
      </trkpt>
      <trkpt lat="43.52951" lon="5.51164">
        <ele>217</ele>
        <time>2018-02-20T08:58:26.000Z</time>
      </trkpt>
      <trkpt lat="43.52952" lon="5.51164">
        <ele>217</ele>
        <time>2018-02-20T08:58:27.000Z</time>
      </trkpt>
      <trkpt lat="43.52952" lon="5.51163">
        <ele>217</ele>
        <time>2018-02-20T08:58:28.000Z</time>
      </trkpt>
      <trkpt lat="43.52953" lon="5.51163">
        <ele>217</ele>
        <time>2018-02-20T08:58:29.000Z</time>
      </trkpt>
      <trkpt lat="43.52954" lon="5.51164">
        <ele>216</ele>
        <time>2018-02-20T08:58:30.000Z</time>
      </trkpt>
      <trkpt lat="43.52954" lon="5.51164">
        <ele>216</ele>
        <time>2018-02-20T08:58:31.000Z</time>
      </trkpt>
      <trkpt lat="43.52955" lon="5.51164">
        <ele>216</ele>
        <time>2018-02-20T08:58:32.000Z</time>
      </trkpt>
      <trkpt lat="43.52955" lon="5.51164">
        <ele>216</ele>
        <time>2018-02-20T08:58:33.000Z</time>
      </trkpt>
      <trkpt lat="43.52956" lon="5.51164">
        <ele>216</ele>
        <time>2018-02-20T08:58:34.000Z</time>
      </trkpt>
      <trkpt lat="43.52957" lon="5.51164">
        <ele>216</ele>
        <time>2018-02-20T08:58:35.000Z</time>
      </trkpt>
      <trkpt lat="43.52958" lon="5.51163">
        <ele>215</ele>
        <time>2018-02-20T08:58:36.000Z</time>
      </trkpt>
      <trkpt lat="43.52959" lon="5.51163">
        <ele>215</ele>
        <time>2018-02-20T08:58:37.000Z</time>
      </trkpt>
      <trkpt lat="43.5296" lon="5.51163">
        <ele>215</ele>
        <time>2018-02-20T08:58:38.000Z</time>
      </trkpt>
      <trkpt lat="43.5296" lon="5.51163">
        <ele>215</ele>
        <time>2018-02-20T08:58:39.000Z</time>
      </trkpt>
      <trkpt lat="43.52961" lon="5.51162">
        <ele>215</ele>
        <time>2018-02-20T08:58:40.000Z</time>
      </trkpt>
      <trkpt lat="43.52963" lon="5.51162">
        <ele>214</ele>
        <time>2018-02-20T08:58:41.000Z</time>
      </trkpt>
      <trkpt lat="43.52964" lon="5.51162">
        <ele>214</ele>
        <time>2018-02-20T08:58:42.000Z</time>
      </trkpt>
      <trkpt lat="43.52965" lon="5.51162">
        <ele>214</ele>
        <time>2018-02-20T08:58:43.000Z</time>
      </trkpt>
      <trkpt lat="43.52966" lon="5.51161">
        <ele>214</ele>
        <time>2018-02-20T08:58:44.000Z</time>
      </trkpt>
      <trkpt lat="43.52967" lon="5.5116">
        <ele>214</ele>
        <time>2018-02-20T08:58:45.000Z</time>
      </trkpt>
      <trkpt lat="43.52969" lon="5.51159">
        <ele>213</ele>
        <time>2018-02-20T08:58:46.000Z</time>
      </trkpt>
      <trkpt lat="43.5297" lon="5.51158">
        <ele>213</ele>
        <time>2018-02-20T08:58:47.000Z</time>
      </trkpt>
      <trkpt lat="43.52971" lon="5.51157">
        <ele>213</ele>
        <time>2018-02-20T08:58:48.000Z</time>
      </trkpt>
      <trkpt lat="43.52972" lon="5.51156">
        <ele>213</ele>
        <time>2018-02-20T08:58:49.000Z</time>
      </trkpt>
      <trkpt lat="43.52973" lon="5.51155">
        <ele>213</ele>
        <time>2018-02-20T08:58:50.000Z</time>
      </trkpt>
      <trkpt lat="43.52974" lon="5.51154">
        <ele>213</ele>
        <time>2018-02-20T08:58:51.000Z</time>
      </trkpt>
      <trkpt lat="43.52976" lon="5.51153">
        <ele>213</ele>
        <time>2018-02-20T08:58:52.000Z</time>
      </trkpt>
      <trkpt lat="43.52977" lon="5.51152">
        <ele>213</ele>
        <time>2018-02-20T08:58:53.000Z</time>
      </trkpt>
      <trkpt lat="43.52978" lon="5.51151">
        <ele>212</ele>
        <time>2018-02-20T08:58:54.000Z</time>
      </trkpt>
      <trkpt lat="43.5298" lon="5.5115">
        <ele>212</ele>
        <time>2018-02-20T08:58:55.000Z</time>
      </trkpt>
      <trkpt lat="43.52981" lon="5.51149">
        <ele>212</ele>
        <time>2018-02-20T08:58:56.000Z</time>
      </trkpt>
      <trkpt lat="43.52982" lon="5.51148">
        <ele>212</ele>
        <time>2018-02-20T08:58:57.000Z</time>
      </trkpt>
      <trkpt lat="43.52982" lon="5.51147">
        <ele>212</ele>
        <time>2018-02-20T08:58:58.000Z</time>
      </trkpt>
      <trkpt lat="43.52983" lon="5.51147">
        <ele>211</ele>
        <time>2018-02-20T08:58:59.000Z</time>
      </trkpt>
      <trkpt lat="43.52984" lon="5.51147">
        <ele>211</ele>
        <time>2018-02-20T08:59:00.000Z</time>
      </trkpt>
      <trkpt lat="43.52984" lon="5.51147">
        <ele>211</ele>
        <time>2018-02-20T08:59:01.000Z</time>
      </trkpt>
      <trkpt lat="43.52984" lon="5.51147">
        <ele>211</ele>
        <time>2018-02-20T08:59:02.000Z</time>
      </trkpt>
      <trkpt lat="43.52984" lon="5.51147">
        <ele>211</ele>
        <time>2018-02-20T08:59:03.000Z</time>
      </trkpt>
      <trkpt lat="43.52984" lon="5.51146">
        <ele>211</ele>
        <time>2018-02-20T08:59:04.000Z</time>
      </trkpt>
      <trkpt lat="43.52984" lon="5.51146">
        <ele>211</ele>
        <time>2018-02-20T08:59:05.000Z</time>
      </trkpt>
      <trkpt lat="43.52984" lon="5.51146">
        <ele>211</ele>
        <time>2018-02-20T08:59:06.000Z</time>
      </trkpt>
      <trkpt lat="43.52984" lon="5.51146">
        <ele>211</ele>
        <time>2018-02-20T08:59:07.000Z</time>
      </trkpt>
      <trkpt lat="43.52984" lon="5.51146">
        <ele>211</ele>
        <time>2018-02-20T08:59:08.000Z</time>
      </trkpt>
      <trkpt lat="43.52984" lon="5.51146">
        <ele>211</ele>
        <time>2018-02-20T08:59:09.000Z</time>
      </trkpt>
      <trkpt lat="43.52984" lon="5.51146">
        <ele>211</ele>
        <time>2018-02-20T08:59:10.000Z</time>
      </trkpt>
      <trkpt lat="43.52984" lon="5.51146">
        <ele>211</ele>
        <time>2018-02-20T08:59:11.000Z</time>
      </trkpt>
      <trkpt lat="43.52984" lon="5.51146">
        <ele>211</ele>
        <time>2018-02-20T08:59:12.000Z</time>
      </trkpt>
      <trkpt lat="43.52984" lon="5.51146">
        <ele>211</ele>
        <time>2018-02-20T08:59:13.000Z</time>
      </trkpt>
      <trkpt lat="43.52984" lon="5.51146">
        <ele>211</ele>
        <time>2018-02-20T08:59:14.000Z</time>
      </trkpt>
      <trkpt lat="43.52984" lon="5.51146">
        <ele>211</ele>
        <time>2018-02-20T08:59:15.000Z</time>
      </trkpt>
      <trkpt lat="43.52984" lon="5.51146">
        <ele>211</ele>
        <time>2018-02-20T08:59:16.000Z</time>
      </trkpt>
      <trkpt lat="43.52984" lon="5.51146">
        <ele>211</ele>
        <time>2018-02-20T08:59:17.000Z</time>
      </trkpt>
      <trkpt lat="43.52984" lon="5.51146">
        <ele>211</ele>
        <time>2018-02-20T08:59:18.000Z</time>
      </trkpt>
      <trkpt lat="43.52984" lon="5.51146">
        <ele>211</ele>
        <time>2018-02-20T08:59:19.000Z</time>
      </trkpt>
      <trkpt lat="43.52984" lon="5.51146">
        <ele>211</ele>
        <time>2018-02-20T08:59:20.000Z</time>
      </trkpt>
      <trkpt lat="43.52984" lon="5.51146">
        <ele>211</ele>
        <time>2018-02-20T08:59:21.000Z</time>
      </trkpt>
      <trkpt lat="43.52984" lon="5.51146">
        <ele>211</ele>
        <time>2018-02-20T08:59:22.000Z</time>
      </trkpt>
      <trkpt lat="43.52984" lon="5.51146">
        <ele>211</ele>
        <time>2018-02-20T08:59:23.000Z</time>
      </trkpt>
      <trkpt lat="43.52984" lon="5.51146">
        <ele>211</ele>
        <time>2018-02-20T08:59:24.000Z</time>
      </trkpt>
      <trkpt lat="43.52984" lon="5.51146">
        <ele>211</ele>
        <time>2018-02-20T08:59:25.000Z</time>
      </trkpt>
      <trkpt lat="43.52984" lon="5.51146">
        <ele>211</ele>
        <time>2018-02-20T08:59:26.000Z</time>
      </trkpt>
      <trkpt lat="43.52985" lon="5.51146">
        <ele>211</ele>
        <time>2018-02-20T08:59:27.000Z</time>
      </trkpt>
      <trkpt lat="43.52985" lon="5.51146">
        <ele>211</ele>
        <time>2018-02-20T08:59:28.000Z</time>
      </trkpt>
      <trkpt lat="43.52985" lon="5.51146">
        <ele>211</ele>
        <time>2018-02-20T08:59:29.000Z</time>
      </trkpt>
      <trkpt lat="43.52985" lon="5.51146">
        <ele>211</ele>
        <time>2018-02-20T08:59:30.000Z</time>
      </trkpt>
      <trkpt lat="43.52985" lon="5.51146">
        <ele>211</ele>
        <time>2018-02-20T08:59:31.000Z</time>
      </trkpt>
      <trkpt lat="43.52985" lon="5.51146">
        <ele>211</ele>
        <time>2018-02-20T08:59:32.000Z</time>
      </trkpt>
      <trkpt lat="43.52985" lon="5.51146">
        <ele>211</ele>
        <time>2018-02-20T08:59:33.000Z</time>
      </trkpt>
      <trkpt lat="43.52985" lon="5.51146">
        <ele>211</ele>
        <time>2018-02-20T08:59:34.000Z</time>
      </trkpt>
      <trkpt lat="43.52985" lon="5.51146">
        <ele>211</ele>
        <time>2018-02-20T08:59:35.000Z</time>
      </trkpt>
      <trkpt lat="43.52985" lon="5.51146">
        <ele>211</ele>
        <time>2018-02-20T08:59:36.000Z</time>
      </trkpt>
      <trkpt lat="43.52985" lon="5.51146">
        <ele>211</ele>
        <time>2018-02-20T08:59:37.000Z</time>
      </trkpt>
      <trkpt lat="43.52985" lon="5.51146">
        <ele>211</ele>
        <time>2018-02-20T08:59:38.000Z</time>
      </trkpt>
      <trkpt lat="43.52985" lon="5.51146">
        <ele>211</ele>
        <time>2018-02-20T08:59:39.000Z</time>
      </trkpt>
      <trkpt lat="43.52985" lon="5.51146">
        <ele>211</ele>
        <time>2018-02-20T08:59:40.000Z</time>
      </trkpt>
      <trkpt lat="43.52985" lon="5.51146">
        <ele>211</ele>
        <time>2018-02-20T08:59:41.000Z</time>
      </trkpt>
      <trkpt lat="43.52985" lon="5.51146">
        <ele>211</ele>
        <time>2018-02-20T08:59:42.000Z</time>
      </trkpt>
      <trkpt lat="43.52985" lon="5.51146">
        <ele>211</ele>
        <time>2018-02-20T08:59:43.000Z</time>
      </trkpt>
      <trkpt lat="43.52984" lon="5.51146">
        <ele>211</ele>
        <time>2018-02-20T08:59:44.000Z</time>
      </trkpt>
      <trkpt lat="43.52984" lon="5.51146">
        <ele>211</ele>
        <time>2018-02-20T08:59:45.000Z</time>
      </trkpt>
      <trkpt lat="43.52984" lon="5.51146">
        <ele>212</ele>
        <time>2018-02-20T08:59:46.000Z</time>
      </trkpt>
      <trkpt lat="43.52985" lon="5.51146">
        <ele>212</ele>
        <time>2018-02-20T08:59:47.000Z</time>
      </trkpt>
      <trkpt lat="43.52985" lon="5.51146">
        <ele>212</ele>
        <time>2018-02-20T08:59:48.000Z</time>
      </trkpt>
      <trkpt lat="43.52985" lon="5.51146">
        <ele>212</ele>
        <time>2018-02-20T08:59:49.000Z</time>
      </trkpt>
      <trkpt lat="43.52985" lon="5.51146">
        <ele>212</ele>
        <time>2018-02-20T08:59:50.000Z</time>
      </trkpt>
      <trkpt lat="43.52985" lon="5.51146">
        <ele>212</ele>
        <time>2018-02-20T08:59:51.000Z</time>
      </trkpt>
      <trkpt lat="43.52985" lon="5.51146">
        <ele>212</ele>
        <time>2018-02-20T08:59:52.000Z</time>
      </trkpt>
      <trkpt lat="43.52985" lon="5.51146">
        <ele>212</ele>
        <time>2018-02-20T08:59:53.000Z</time>
      </trkpt>
      <trkpt lat="43.52985" lon="5.51146">
        <ele>212</ele>
        <time>2018-02-20T08:59:54.000Z</time>
      </trkpt>
      <trkpt lat="43.52985" lon="5.51146">
        <ele>212</ele>
        <time>2018-02-20T08:59:55.000Z</time>
      </trkpt>
      <trkpt lat="43.52985" lon="5.51146">
        <ele>212</ele>
        <time>2018-02-20T08:59:56.000Z</time>
      </trkpt>
      <trkpt lat="43.52985" lon="5.51146">
        <ele>212</ele>
        <time>2018-02-20T08:59:57.000Z</time>
      </trkpt>
      <trkpt lat="43.52985" lon="5.51146">
        <ele>212</ele>
        <time>2018-02-20T08:59:58.000Z</time>
      </trkpt>
      <trkpt lat="43.52985" lon="5.51146">
        <ele>212</ele>
        <time>2018-02-20T08:59:59.000Z</time>
      </trkpt>
      <trkpt lat="43.52984" lon="5.51146">
        <ele>212</ele>
        <time>2018-02-20T09:00:00.000Z</time>
      </trkpt>
      <trkpt lat="43.52984" lon="5.51146">
        <ele>212</ele>
        <time>2018-02-20T09:00:01.000Z</time>
      </trkpt>
      <trkpt lat="43.52984" lon="5.51145">
        <ele>212</ele>
        <time>2018-02-20T09:00:02.000Z</time>
      </trkpt>
      <trkpt lat="43.52984" lon="5.51144">
        <ele>212</ele>
        <time>2018-02-20T09:00:03.000Z</time>
      </trkpt>
      <trkpt lat="43.52984" lon="5.51143">
        <ele>211</ele>
        <time>2018-02-20T09:00:04.000Z</time>
      </trkpt>
      <trkpt lat="43.52984" lon="5.51143">
        <ele>211</ele>
        <time>2018-02-20T09:00:05.000Z</time>
      </trkpt>
      <trkpt lat="43.52984" lon="5.51143">
        <ele>210</ele>
        <time>2018-02-20T09:00:06.000Z</time>
      </trkpt>
      <trkpt lat="43.52985" lon="5.51142">
        <ele>210</ele>
        <time>2018-02-20T09:00:07.000Z</time>
      </trkpt>
      <trkpt lat="43.52985" lon="5.51142">
        <ele>210</ele>
        <time>2018-02-20T09:00:08.000Z</time>
      </trkpt>
      <trkpt lat="43.52985" lon="5.51142">
        <ele>210</ele>
        <time>2018-02-20T09:00:09.000Z</time>
      </trkpt>
      <trkpt lat="43.52985" lon="5.51141">
        <ele>209</ele>
        <time>2018-02-20T09:00:10.000Z</time>
      </trkpt>
      <trkpt lat="43.52985" lon="5.5114">
        <ele>209</ele>
        <time>2018-02-20T09:00:11.000Z</time>
      </trkpt>
      <trkpt lat="43.52985" lon="5.5114">
        <ele>209</ele>
        <time>2018-02-20T09:00:12.000Z</time>
      </trkpt>
      <trkpt lat="43.52985" lon="5.5114">
        <ele>209</ele>
        <time>2018-02-20T09:00:13.000Z</time>
      </trkpt>
      <trkpt lat="43.52985" lon="5.51139">
        <ele>208</ele>
        <time>2018-02-20T09:00:14.000Z</time>
      </trkpt>
      <trkpt lat="43.52985" lon="5.51138">
        <ele>208</ele>
        <time>2018-02-20T09:00:15.000Z</time>
      </trkpt>
      <trkpt lat="43.52985" lon="5.51137">
        <ele>208</ele>
        <time>2018-02-20T09:00:16.000Z</time>
      </trkpt>
      <trkpt lat="43.52985" lon="5.51137">
        <ele>208</ele>
        <time>2018-02-20T09:00:17.000Z</time>
      </trkpt>
      <trkpt lat="43.52985" lon="5.51136">
        <ele>208</ele>
        <time>2018-02-20T09:00:18.000Z</time>
      </trkpt>
      <trkpt lat="43.52985" lon="5.51135">
        <ele>207</ele>
        <time>2018-02-20T09:00:19.000Z</time>
      </trkpt>
      <trkpt lat="43.52985" lon="5.51134">
        <ele>207</ele>
        <time>2018-02-20T09:00:20.000Z</time>
      </trkpt>
      <trkpt lat="43.52985" lon="5.51133">
        <ele>207</ele>
        <time>2018-02-20T09:00:21.000Z</time>
      </trkpt>
      <trkpt lat="43.52985" lon="5.51132">
        <ele>207</ele>
        <time>2018-02-20T09:00:22.000Z</time>
      </trkpt>
      <trkpt lat="43.52985" lon="5.51132">
        <ele>207</ele>
        <time>2018-02-20T09:00:23.000Z</time>
      </trkpt>
      <trkpt lat="43.52985" lon="5.51131">
        <ele>207</ele>
        <time>2018-02-20T09:00:24.000Z</time>
      </trkpt>
      <trkpt lat="43.52985" lon="5.51131">
        <ele>207</ele>
        <time>2018-02-20T09:00:25.000Z</time>
      </trkpt>
      <trkpt lat="43.52985" lon="5.51131">
        <ele>207</ele>
        <time>2018-02-20T09:00:26.000Z</time>
      </trkpt>
      <trkpt lat="43.52985" lon="5.51131">
        <ele>207</ele>
        <time>2018-02-20T09:00:27.000Z</time>
      </trkpt>
      <trkpt lat="43.52985" lon="5.51131">
        <ele>207</ele>
        <time>2018-02-20T09:00:28.000Z</time>
      </trkpt>
      <trkpt lat="43.52986" lon="5.51131">
        <ele>207</ele>
        <time>2018-02-20T09:00:29.000Z</time>
      </trkpt>
      <trkpt lat="43.52986" lon="5.51131">
        <ele>207</ele>
        <time>2018-02-20T09:00:30.000Z</time>
      </trkpt>
      <trkpt lat="43.52986" lon="5.51131">
        <ele>207</ele>
        <time>2018-02-20T09:00:31.000Z</time>
      </trkpt>
      <trkpt lat="43.52986" lon="5.51131">
        <ele>207</ele>
        <time>2018-02-20T09:00:32.000Z</time>
      </trkpt>
      <trkpt lat="43.52986" lon="5.51131">
        <ele>206</ele>
        <time>2018-02-20T09:00:33.000Z</time>
      </trkpt>
      <trkpt lat="43.52986" lon="5.51131">
        <ele>206</ele>
        <time>2018-02-20T09:00:34.000Z</time>
      </trkpt>
      <trkpt lat="43.52986" lon="5.51131">
        <ele>206</ele>
        <time>2018-02-20T09:00:35.000Z</time>
      </trkpt>
      <trkpt lat="43.52986" lon="5.51131">
        <ele>206</ele>
        <time>2018-02-20T09:00:36.000Z</time>
      </trkpt>
      <trkpt lat="43.52985" lon="5.51131">
        <ele>206</ele>
        <time>2018-02-20T09:00:37.000Z</time>
      </trkpt>
      <trkpt lat="43.52985" lon="5.51131">
        <ele>206</ele>
        <time>2018-02-20T09:00:38.000Z</time>
      </trkpt>
      <trkpt lat="43.52985" lon="5.51131">
        <ele>206</ele>
        <time>2018-02-20T09:00:39.000Z</time>
      </trkpt>
      <trkpt lat="43.52985" lon="5.5113">
        <ele>206</ele>
        <time>2018-02-20T09:00:40.000Z</time>
      </trkpt>
      <trkpt lat="43.52985" lon="5.51129">
        <ele>206</ele>
        <time>2018-02-20T09:00:41.000Z</time>
      </trkpt>
      <trkpt lat="43.52984" lon="5.51129">
        <ele>206</ele>
        <time>2018-02-20T09:00:42.000Z</time>
      </trkpt>
      <trkpt lat="43.52984" lon="5.51129">
        <ele>206</ele>
        <time>2018-02-20T09:00:43.000Z</time>
      </trkpt>
      <trkpt lat="43.52984" lon="5.51129">
        <ele>206</ele>
        <time>2018-02-20T09:00:44.000Z</time>
      </trkpt>
      <trkpt lat="43.52984" lon="5.51129">
        <ele>206</ele>
        <time>2018-02-20T09:00:45.000Z</time>
      </trkpt>
      <trkpt lat="43.52984" lon="5.51129">
        <ele>207</ele>
        <time>2018-02-20T09:00:46.000Z</time>
      </trkpt>
      <trkpt lat="43.52984" lon="5.51129">
        <ele>207</ele>
        <time>2018-02-20T09:00:47.000Z</time>
      </trkpt>
      <trkpt lat="43.52984" lon="5.51129">
        <ele>207</ele>
        <time>2018-02-20T09:00:48.000Z</time>
      </trkpt>
      <trkpt lat="43.52984" lon="5.51129">
        <ele>207</ele>
        <time>2018-02-20T09:00:49.000Z</time>
      </trkpt>
      <trkpt lat="43.52984" lon="5.51128">
        <ele>207</ele>
        <time>2018-02-20T09:00:50.000Z</time>
      </trkpt>
      <trkpt lat="43.52983" lon="5.51128">
        <ele>207</ele>
        <time>2018-02-20T09:00:51.000Z</time>
      </trkpt>
      <trkpt lat="43.52983" lon="5.51127">
        <ele>207</ele>
        <time>2018-02-20T09:00:52.000Z</time>
      </trkpt>
      <trkpt lat="43.52983" lon="5.51127">
        <ele>206</ele>
        <time>2018-02-20T09:00:53.000Z</time>
      </trkpt>
      <trkpt lat="43.52983" lon="5.51126">
        <ele>206</ele>
        <time>2018-02-20T09:00:54.000Z</time>
      </trkpt>
      <trkpt lat="43.52983" lon="5.51126">
        <ele>206</ele>
        <time>2018-02-20T09:00:55.000Z</time>
      </trkpt>
      <trkpt lat="43.52983" lon="5.51125">
        <ele>206</ele>
        <time>2018-02-20T09:00:56.000Z</time>
      </trkpt>
      <trkpt lat="43.52983" lon="5.51124">
        <ele>206</ele>
        <time>2018-02-20T09:00:57.000Z</time>
      </trkpt>
      <trkpt lat="43.52983" lon="5.51124">
        <ele>206</ele>
        <time>2018-02-20T09:00:58.000Z</time>
      </trkpt>
      <trkpt lat="43.52983" lon="5.51123">
        <ele>206</ele>
        <time>2018-02-20T09:00:59.000Z</time>
      </trkpt>
      <trkpt lat="43.52983" lon="5.51123">
        <ele>206</ele>
        <time>2018-02-20T09:01:00.000Z</time>
      </trkpt>
      <trkpt lat="43.52983" lon="5.51123">
        <ele>205</ele>
        <time>2018-02-20T09:01:01.000Z</time>
      </trkpt>
      <trkpt lat="43.52983" lon="5.51122">
        <ele>205</ele>
        <time>2018-02-20T09:01:02.000Z</time>
      </trkpt>
      <trkpt lat="43.52983" lon="5.51122">
        <ele>205</ele>
        <time>2018-02-20T09:01:03.000Z</time>
      </trkpt>
      <trkpt lat="43.52983" lon="5.51122">
        <ele>205</ele>
        <time>2018-02-20T09:01:04.000Z</time>
      </trkpt>
      <trkpt lat="43.52983" lon="5.51122">
        <ele>205</ele>
        <time>2018-02-20T09:01:05.000Z</time>
      </trkpt>
      <trkpt lat="43.52983" lon="5.51122">
        <ele>205</ele>
        <time>2018-02-20T09:01:06.000Z</time>
      </trkpt>
      <trkpt lat="43.52983" lon="5.51122">
        <ele>205</ele>
        <time>2018-02-20T09:01:07.000Z</time>
      </trkpt>
      <trkpt lat="43.52983" lon="5.51122">
        <ele>204</ele>
        <time>2018-02-20T09:01:08.000Z</time>
      </trkpt>
      <trkpt lat="43.52983" lon="5.51122">
        <ele>204</ele>
        <time>2018-02-20T09:01:09.000Z</time>
      </trkpt>
      <trkpt lat="43.52984" lon="5.51122">
        <ele>204</ele>
        <time>2018-02-20T09:01:10.000Z</time>
      </trkpt>
      <trkpt lat="43.52984" lon="5.51122">
        <ele>204</ele>
        <time>2018-02-20T09:01:11.000Z</time>
      </trkpt>
      <trkpt lat="43.52983" lon="5.51122">
        <ele>204</ele>
        <time>2018-02-20T09:01:12.000Z</time>
      </trkpt>
      <trkpt lat="43.52983" lon="5.51122">
        <ele>203</ele>
        <time>2018-02-20T09:01:13.000Z</time>
      </trkpt>
      <trkpt lat="43.52983" lon="5.51122">
        <ele>203</ele>
        <time>2018-02-20T09:01:14.000Z</time>
      </trkpt>
      <trkpt lat="43.52984" lon="5.51122">
        <ele>203</ele>
        <time>2018-02-20T09:01:15.000Z</time>
      </trkpt>
      <trkpt lat="43.52984" lon="5.51122">
        <ele>203</ele>
        <time>2018-02-20T09:01:16.000Z</time>
      </trkpt>
      <trkpt lat="43.52984" lon="5.51122">
        <ele>203</ele>
        <time>2018-02-20T09:01:17.000Z</time>
      </trkpt>
      <trkpt lat="43.52984" lon="5.51122">
        <ele>203</ele>
        <time>2018-02-20T09:01:18.000Z</time>
      </trkpt>
      <trkpt lat="43.52984" lon="5.51122">
        <ele>203</ele>
        <time>2018-02-20T09:01:19.000Z</time>
      </trkpt>
      <trkpt lat="43.52984" lon="5.51122">
        <ele>202</ele>
        <time>2018-02-20T09:01:20.000Z</time>
      </trkpt>
      <trkpt lat="43.52984" lon="5.51121">
        <ele>202</ele>
        <time>2018-02-20T09:01:21.000Z</time>
      </trkpt>
      <trkpt lat="43.52984" lon="5.51121">
        <ele>202</ele>
        <time>2018-02-20T09:01:22.000Z</time>
      </trkpt>
      <trkpt lat="43.52985" lon="5.51121">
        <ele>202</ele>
        <time>2018-02-20T09:01:23.000Z</time>
      </trkpt>
      <trkpt lat="43.52985" lon="5.51121">
        <ele>202</ele>
        <time>2018-02-20T09:01:24.000Z</time>
      </trkpt>
      <trkpt lat="43.52985" lon="5.51121">
        <ele>202</ele>
        <time>2018-02-20T09:01:25.000Z</time>
      </trkpt>
      <trkpt lat="43.52985" lon="5.51121">
        <ele>202</ele>
        <time>2018-02-20T09:01:26.000Z</time>
      </trkpt>
      <trkpt lat="43.52986" lon="5.5112">
        <ele>202</ele>
        <time>2018-02-20T09:01:27.000Z</time>
      </trkpt>
      <trkpt lat="43.52986" lon="5.5112">
        <ele>201</ele>
        <time>2018-02-20T09:01:28.000Z</time>
      </trkpt>
      <trkpt lat="43.52986" lon="5.5112">
        <ele>201</ele>
        <time>2018-02-20T09:01:29.000Z</time>
      </trkpt>
      <trkpt lat="43.52986" lon="5.51119">
        <ele>201</ele>
        <time>2018-02-20T09:01:30.000Z</time>
      </trkpt>
      <trkpt lat="43.52986" lon="5.51119">
        <ele>201</ele>
        <time>2018-02-20T09:01:31.000Z</time>
      </trkpt>
      <trkpt lat="43.52985" lon="5.51119">
        <ele>201</ele>
        <time>2018-02-20T09:01:32.000Z</time>
      </trkpt>
      <trkpt lat="43.52985" lon="5.51119">
        <ele>201</ele>
        <time>2018-02-20T09:01:33.000Z</time>
      </trkpt>
      <trkpt lat="43.52985" lon="5.51119">
        <ele>201</ele>
        <time>2018-02-20T09:01:34.000Z</time>
      </trkpt>
      <trkpt lat="43.52984" lon="5.51119">
        <ele>201</ele>
        <time>2018-02-20T09:01:35.000Z</time>
      </trkpt>
      <trkpt lat="43.52984" lon="5.51118">
        <ele>201</ele>
        <time>2018-02-20T09:01:36.000Z</time>
      </trkpt>
      <trkpt lat="43.52983" lon="5.51118">
        <ele>201</ele>
        <time>2018-02-20T09:01:37.000Z</time>
      </trkpt>
      <trkpt lat="43.52982" lon="5.51117">
        <ele>201</ele>
        <time>2018-02-20T09:01:38.000Z</time>
      </trkpt>
      <trkpt lat="43.52982" lon="5.51117">
        <ele>201</ele>
        <time>2018-02-20T09:01:39.000Z</time>
      </trkpt>
      <trkpt lat="43.52981" lon="5.51117">
        <ele>201</ele>
        <time>2018-02-20T09:01:40.000Z</time>
      </trkpt>
      <trkpt lat="43.52981" lon="5.51116">
        <ele>201</ele>
        <time>2018-02-20T09:01:41.000Z</time>
      </trkpt>
      <trkpt lat="43.5298" lon="5.51116">
        <ele>201</ele>
        <time>2018-02-20T09:01:42.000Z</time>
      </trkpt>
      <trkpt lat="43.5298" lon="5.51116">
        <ele>201</ele>
        <time>2018-02-20T09:01:43.000Z</time>
      </trkpt>
      <trkpt lat="43.52979" lon="5.51115">
        <ele>201</ele>
        <time>2018-02-20T09:01:44.000Z</time>
      </trkpt>
      <trkpt lat="43.52978" lon="5.51116">
        <ele>201</ele>
        <time>2018-02-20T09:01:45.000Z</time>
      </trkpt>
      <trkpt lat="43.52978" lon="5.51116">
        <ele>201</ele>
        <time>2018-02-20T09:01:46.000Z</time>
      </trkpt>
      <trkpt lat="43.52978" lon="5.51116">
        <ele>201</ele>
        <time>2018-02-20T09:01:47.000Z</time>
      </trkpt>
      <trkpt lat="43.52977" lon="5.51116">
        <ele>201</ele>
        <time>2018-02-20T09:01:48.000Z</time>
      </trkpt>
      <trkpt lat="43.52976" lon="5.51117">
        <ele>201</ele>
        <time>2018-02-20T09:01:49.000Z</time>
      </trkpt>
      <trkpt lat="43.52976" lon="5.51117">
        <ele>201</ele>
        <time>2018-02-20T09:01:50.000Z</time>
      </trkpt>
      <trkpt lat="43.52976" lon="5.51117">
        <ele>201</ele>
        <time>2018-02-20T09:01:51.000Z</time>
      </trkpt>
      <trkpt lat="43.52975" lon="5.51118">
        <ele>200</ele>
        <time>2018-02-20T09:01:52.000Z</time>
      </trkpt>
      <trkpt lat="43.52975" lon="5.51118">
        <ele>200</ele>
        <time>2018-02-20T09:01:53.000Z</time>
      </trkpt>
      <trkpt lat="43.52975" lon="5.51119">
        <ele>200</ele>
        <time>2018-02-20T09:01:54.000Z</time>
      </trkpt>
      <trkpt lat="43.52974" lon="5.51119">
        <ele>200</ele>
        <time>2018-02-20T09:01:55.000Z</time>
      </trkpt>
      <trkpt lat="43.52974" lon="5.51119">
        <ele>201</ele>
        <time>2018-02-20T09:01:56.000Z</time>
      </trkpt>
      <trkpt lat="43.52974" lon="5.51119">
        <ele>201</ele>
        <time>2018-02-20T09:01:57.000Z</time>
      </trkpt>
      <trkpt lat="43.52973" lon="5.51119">
        <ele>201</ele>
        <time>2018-02-20T09:01:58.000Z</time>
      </trkpt>
      <trkpt lat="43.52973" lon="5.5112">
        <ele>201</ele>
        <time>2018-02-20T09:01:59.000Z</time>
      </trkpt>
      <trkpt lat="43.52972" lon="5.5112">
        <ele>201</ele>
        <time>2018-02-20T09:02:00.000Z</time>
      </trkpt>
      <trkpt lat="43.52971" lon="5.51121">
        <ele>201</ele>
        <time>2018-02-20T09:02:01.000Z</time>
      </trkpt>
      <trkpt lat="43.5297" lon="5.51121">
        <ele>201</ele>
        <time>2018-02-20T09:02:02.000Z</time>
      </trkpt>
      <trkpt lat="43.5297" lon="5.51121">
        <ele>201</ele>
        <time>2018-02-20T09:02:03.000Z</time>
      </trkpt>
      <trkpt lat="43.5297" lon="5.51121">
        <ele>201</ele>
        <time>2018-02-20T09:02:04.000Z</time>
      </trkpt>
      <trkpt lat="43.52969" lon="5.51121">
        <ele>202</ele>
        <time>2018-02-20T09:02:05.000Z</time>
      </trkpt>
      <trkpt lat="43.52969" lon="5.51121">
        <ele>202</ele>
        <time>2018-02-20T09:02:06.000Z</time>
      </trkpt>
      <trkpt lat="43.52968" lon="5.51122">
        <ele>202</ele>
        <time>2018-02-20T09:02:07.000Z</time>
      </trkpt>
      <trkpt lat="43.52967" lon="5.51122">
        <ele>202</ele>
        <time>2018-02-20T09:02:08.000Z</time>
      </trkpt>
      <trkpt lat="43.52966" lon="5.51122">
        <ele>202</ele>
        <time>2018-02-20T09:02:09.000Z</time>
      </trkpt>
      <trkpt lat="43.52965" lon="5.51122">
        <ele>202</ele>
        <time>2018-02-20T09:02:10.000Z</time>
      </trkpt>
      <trkpt lat="43.52964" lon="5.51122">
        <ele>202</ele>
        <time>2018-02-20T09:02:11.000Z</time>
      </trkpt>
      <trkpt lat="43.52963" lon="5.51122">
        <ele>202</ele>
        <time>2018-02-20T09:02:12.000Z</time>
      </trkpt>
      <trkpt lat="43.52962" lon="5.51122">
        <ele>203</ele>
        <time>2018-02-20T09:02:13.000Z</time>
      </trkpt>
      <trkpt lat="43.52961" lon="5.51123">
        <ele>203</ele>
        <time>2018-02-20T09:02:14.000Z</time>
      </trkpt>
      <trkpt lat="43.5296" lon="5.51123">
        <ele>202</ele>
        <time>2018-02-20T09:02:15.000Z</time>
      </trkpt>
      <trkpt lat="43.52959" lon="5.51124">
        <ele>202</ele>
        <time>2018-02-20T09:02:16.000Z</time>
      </trkpt>
      <trkpt lat="43.52958" lon="5.51124">
        <ele>202</ele>
        <time>2018-02-20T09:02:17.000Z</time>
      </trkpt>
      <trkpt lat="43.52956" lon="5.51124">
        <ele>202</ele>
        <time>2018-02-20T09:02:18.000Z</time>
      </trkpt>
      <trkpt lat="43.52955" lon="5.51123">
        <ele>202</ele>
        <time>2018-02-20T09:02:19.000Z</time>
      </trkpt>
      <trkpt lat="43.52953" lon="5.51123">
        <ele>202</ele>
        <time>2018-02-20T09:02:20.000Z</time>
      </trkpt>
      <trkpt lat="43.52952" lon="5.51122">
        <ele>201</ele>
        <time>2018-02-20T09:02:21.000Z</time>
      </trkpt>
      <trkpt lat="43.52951" lon="5.51122">
        <ele>201</ele>
        <time>2018-02-20T09:02:22.000Z</time>
      </trkpt>
      <trkpt lat="43.5295" lon="5.51121">
        <ele>201</ele>
        <time>2018-02-20T09:02:23.000Z</time>
      </trkpt>
      <trkpt lat="43.52949" lon="5.5112">
        <ele>201</ele>
        <time>2018-02-20T09:02:24.000Z</time>
      </trkpt>
      <trkpt lat="43.52947" lon="5.51119">
        <ele>200</ele>
        <time>2018-02-20T09:02:25.000Z</time>
      </trkpt>
      <trkpt lat="43.52946" lon="5.51118">
        <ele>200</ele>
        <time>2018-02-20T09:02:26.000Z</time>
      </trkpt>
      <trkpt lat="43.52945" lon="5.51117">
        <ele>200</ele>
        <time>2018-02-20T09:02:27.000Z</time>
      </trkpt>
      <trkpt lat="43.52944" lon="5.51116">
        <ele>200</ele>
        <time>2018-02-20T09:02:28.000Z</time>
      </trkpt>
      <trkpt lat="43.52944" lon="5.51116">
        <ele>199</ele>
        <time>2018-02-20T09:02:29.000Z</time>
      </trkpt>
      <trkpt lat="43.52943" lon="5.51115">
        <ele>199</ele>
        <time>2018-02-20T09:02:30.000Z</time>
      </trkpt>
      <trkpt lat="43.52943" lon="5.51114">
        <ele>199</ele>
        <time>2018-02-20T09:02:31.000Z</time>
      </trkpt>
      <trkpt lat="43.52942" lon="5.51113">
        <ele>199</ele>
        <time>2018-02-20T09:02:32.000Z</time>
      </trkpt>
      <trkpt lat="43.52941" lon="5.51112">
        <ele>199</ele>
        <time>2018-02-20T09:02:33.000Z</time>
      </trkpt>
      <trkpt lat="43.52941" lon="5.51111">
        <ele>199</ele>
        <time>2018-02-20T09:02:34.000Z</time>
      </trkpt>
      <trkpt lat="43.5294" lon="5.51111">
        <ele>199</ele>
        <time>2018-02-20T09:02:35.000Z</time>
      </trkpt>
      <trkpt lat="43.5294" lon="5.5111">
        <ele>199</ele>
        <time>2018-02-20T09:02:36.000Z</time>
      </trkpt>
      <trkpt lat="43.52939" lon="5.5111">
        <ele>199</ele>
        <time>2018-02-20T09:02:37.000Z</time>
      </trkpt>
      <trkpt lat="43.52938" lon="5.51109">
        <ele>199</ele>
        <time>2018-02-20T09:02:38.000Z</time>
      </trkpt>
      <trkpt lat="43.52937" lon="5.51108">
        <ele>199</ele>
        <time>2018-02-20T09:02:39.000Z</time>
      </trkpt>
      <trkpt lat="43.52937" lon="5.51106">
        <ele>198</ele>
        <time>2018-02-20T09:02:40.000Z</time>
      </trkpt>
      <trkpt lat="43.52936" lon="5.51105">
        <ele>198</ele>
        <time>2018-02-20T09:02:41.000Z</time>
      </trkpt>
      <trkpt lat="43.52935" lon="5.51103">
        <ele>198</ele>
        <time>2018-02-20T09:02:42.000Z</time>
      </trkpt>
      <trkpt lat="43.52935" lon="5.51102">
        <ele>198</ele>
        <time>2018-02-20T09:02:43.000Z</time>
      </trkpt>
      <trkpt lat="43.52934" lon="5.51101">
        <ele>198</ele>
        <time>2018-02-20T09:02:44.000Z</time>
      </trkpt>
      <trkpt lat="43.52934" lon="5.511">
        <ele>198</ele>
        <time>2018-02-20T09:02:45.000Z</time>
      </trkpt>
      <trkpt lat="43.52933" lon="5.51099">
        <ele>199</ele>
        <time>2018-02-20T09:02:46.000Z</time>
      </trkpt>
      <trkpt lat="43.52933" lon="5.51098">
        <ele>199</ele>
        <time>2018-02-20T09:02:47.000Z</time>
      </trkpt>
      <trkpt lat="43.52932" lon="5.51097">
        <ele>199</ele>
        <time>2018-02-20T09:02:48.000Z</time>
      </trkpt>
      <trkpt lat="43.52932" lon="5.51096">
        <ele>199</ele>
        <time>2018-02-20T09:02:49.000Z</time>
      </trkpt>
      <trkpt lat="43.52932" lon="5.51095">
        <ele>199</ele>
        <time>2018-02-20T09:02:50.000Z</time>
      </trkpt>
      <trkpt lat="43.52932" lon="5.51094">
        <ele>199</ele>
        <time>2018-02-20T09:02:51.000Z</time>
      </trkpt>
      <trkpt lat="43.52931" lon="5.51093">
        <ele>199</ele>
        <time>2018-02-20T09:02:52.000Z</time>
      </trkpt>
      <trkpt lat="43.52931" lon="5.51093">
        <ele>199</ele>
        <time>2018-02-20T09:02:53.000Z</time>
      </trkpt>
      <trkpt lat="43.5293" lon="5.51092">
        <ele>199</ele>
        <time>2018-02-20T09:02:54.000Z</time>
      </trkpt>
      <trkpt lat="43.5293" lon="5.51091">
        <ele>199</ele>
        <time>2018-02-20T09:02:55.000Z</time>
      </trkpt>
      <trkpt lat="43.5293" lon="5.5109">
        <ele>199</ele>
        <time>2018-02-20T09:02:56.000Z</time>
      </trkpt>
      <trkpt lat="43.52929" lon="5.5109">
        <ele>199</ele>
        <time>2018-02-20T09:02:57.000Z</time>
      </trkpt>
      <trkpt lat="43.52928" lon="5.51089">
        <ele>199</ele>
        <time>2018-02-20T09:02:58.000Z</time>
      </trkpt>
      <trkpt lat="43.52928" lon="5.51088">
        <ele>199</ele>
        <time>2018-02-20T09:02:59.000Z</time>
      </trkpt>
      <trkpt lat="43.52927" lon="5.51087">
        <ele>199</ele>
        <time>2018-02-20T09:03:00.000Z</time>
      </trkpt>
      <trkpt lat="43.52927" lon="5.51087">
        <ele>199</ele>
        <time>2018-02-20T09:03:01.000Z</time>
      </trkpt>
      <trkpt lat="43.52926" lon="5.51086">
        <ele>199</ele>
        <time>2018-02-20T09:03:02.000Z</time>
      </trkpt>
      <trkpt lat="43.52926" lon="5.51085">
        <ele>199</ele>
        <time>2018-02-20T09:03:03.000Z</time>
      </trkpt>
      <trkpt lat="43.52925" lon="5.51085">
        <ele>199</ele>
        <time>2018-02-20T09:03:04.000Z</time>
      </trkpt>
      <trkpt lat="43.52925" lon="5.51084">
        <ele>199</ele>
        <time>2018-02-20T09:03:05.000Z</time>
      </trkpt>
      <trkpt lat="43.52924" lon="5.51083">
        <ele>199</ele>
        <time>2018-02-20T09:03:06.000Z</time>
      </trkpt>
      <trkpt lat="43.52924" lon="5.51082">
        <ele>199</ele>
        <time>2018-02-20T09:03:07.000Z</time>
      </trkpt>
      <trkpt lat="43.52923" lon="5.51081">
        <ele>199</ele>
        <time>2018-02-20T09:03:08.000Z</time>
      </trkpt>
      <trkpt lat="43.52923" lon="5.51081">
        <ele>199</ele>
        <time>2018-02-20T09:03:09.000Z</time>
      </trkpt>
      <trkpt lat="43.52922" lon="5.5108">
        <ele>199</ele>
        <time>2018-02-20T09:03:10.000Z</time>
      </trkpt>
      <trkpt lat="43.52922" lon="5.51079">
        <ele>199</ele>
        <time>2018-02-20T09:03:11.000Z</time>
      </trkpt>
      <trkpt lat="43.52921" lon="5.51078">
        <ele>199</ele>
        <time>2018-02-20T09:03:12.000Z</time>
      </trkpt>
      <trkpt lat="43.5292" lon="5.51077">
        <ele>199</ele>
        <time>2018-02-20T09:03:13.000Z</time>
      </trkpt>
      <trkpt lat="43.5292" lon="5.51075">
        <ele>199</ele>
        <time>2018-02-20T09:03:14.000Z</time>
      </trkpt>
      <trkpt lat="43.5292" lon="5.51074">
        <ele>199</ele>
        <time>2018-02-20T09:03:15.000Z</time>
      </trkpt>
      <trkpt lat="43.52919" lon="5.51073">
        <ele>199</ele>
        <time>2018-02-20T09:03:16.000Z</time>
      </trkpt>
      <trkpt lat="43.52919" lon="5.51073">
        <ele>199</ele>
        <time>2018-02-20T09:03:17.000Z</time>
      </trkpt>
      <trkpt lat="43.52918" lon="5.51072">
        <ele>199</ele>
        <time>2018-02-20T09:03:18.000Z</time>
      </trkpt>
      <trkpt lat="43.52917" lon="5.51071">
        <ele>199</ele>
        <time>2018-02-20T09:03:19.000Z</time>
      </trkpt>
      <trkpt lat="43.52917" lon="5.5107">
        <ele>199</ele>
        <time>2018-02-20T09:03:20.000Z</time>
      </trkpt>
      <trkpt lat="43.52916" lon="5.51069">
        <ele>199</ele>
        <time>2018-02-20T09:03:21.000Z</time>
      </trkpt>
      <trkpt lat="43.52915" lon="5.51068">
        <ele>199</ele>
        <time>2018-02-20T09:03:22.000Z</time>
      </trkpt>
      <trkpt lat="43.52915" lon="5.51067">
        <ele>199</ele>
        <time>2018-02-20T09:03:23.000Z</time>
      </trkpt>
      <trkpt lat="43.52914" lon="5.51066">
        <ele>198</ele>
        <time>2018-02-20T09:03:24.000Z</time>
      </trkpt>
      <trkpt lat="43.52914" lon="5.51065">
        <ele>198</ele>
        <time>2018-02-20T09:03:25.000Z</time>
      </trkpt>
      <trkpt lat="43.52913" lon="5.51064">
        <ele>198</ele>
        <time>2018-02-20T09:03:26.000Z</time>
      </trkpt>
      <trkpt lat="43.52913" lon="5.51063">
        <ele>198</ele>
        <time>2018-02-20T09:03:27.000Z</time>
      </trkpt>
      <trkpt lat="43.52912" lon="5.51062">
        <ele>198</ele>
        <time>2018-02-20T09:03:28.000Z</time>
      </trkpt>
      <trkpt lat="43.52912" lon="5.5106">
        <ele>198</ele>
        <time>2018-02-20T09:03:29.000Z</time>
      </trkpt>
      <trkpt lat="43.52911" lon="5.51059">
        <ele>197</ele>
        <time>2018-02-20T09:03:30.000Z</time>
      </trkpt>
      <trkpt lat="43.52911" lon="5.51058">
        <ele>197</ele>
        <time>2018-02-20T09:03:31.000Z</time>
      </trkpt>
      <trkpt lat="43.5291" lon="5.51057">
        <ele>197</ele>
        <time>2018-02-20T09:03:32.000Z</time>
      </trkpt>
      <trkpt lat="43.5291" lon="5.51055">
        <ele>197</ele>
        <time>2018-02-20T09:03:33.000Z</time>
      </trkpt>
      <trkpt lat="43.52909" lon="5.51054">
        <ele>197</ele>
        <time>2018-02-20T09:03:34.000Z</time>
      </trkpt>
      <trkpt lat="43.52908" lon="5.51053">
        <ele>196</ele>
        <time>2018-02-20T09:03:35.000Z</time>
      </trkpt>
      <trkpt lat="43.52908" lon="5.51052">
        <ele>196</ele>
        <time>2018-02-20T09:03:36.000Z</time>
      </trkpt>
      <trkpt lat="43.52908" lon="5.51051">
        <ele>196</ele>
        <time>2018-02-20T09:03:37.000Z</time>
      </trkpt>
      <trkpt lat="43.52907" lon="5.5105">
        <ele>196</ele>
        <time>2018-02-20T09:03:38.000Z</time>
      </trkpt>
      <trkpt lat="43.52907" lon="5.51048">
        <ele>196</ele>
        <time>2018-02-20T09:03:39.000Z</time>
      </trkpt>
      <trkpt lat="43.52907" lon="5.51047">
        <ele>196</ele>
        <time>2018-02-20T09:03:40.000Z</time>
      </trkpt>
      <trkpt lat="43.52906" lon="5.51046">
        <ele>196</ele>
        <time>2018-02-20T09:03:41.000Z</time>
      </trkpt>
      <trkpt lat="43.52906" lon="5.51045">
        <ele>195</ele>
        <time>2018-02-20T09:03:42.000Z</time>
      </trkpt>
      <trkpt lat="43.52906" lon="5.51044">
        <ele>195</ele>
        <time>2018-02-20T09:03:43.000Z</time>
      </trkpt>
      <trkpt lat="43.52906" lon="5.51042">
        <ele>195</ele>
        <time>2018-02-20T09:03:44.000Z</time>
      </trkpt>
      <trkpt lat="43.52906" lon="5.51042">
        <ele>195</ele>
        <time>2018-02-20T09:03:45.000Z</time>
      </trkpt>
      <trkpt lat="43.52906" lon="5.51041">
        <ele>195</ele>
        <time>2018-02-20T09:03:46.000Z</time>
      </trkpt>
      <trkpt lat="43.52906" lon="5.51039">
        <ele>195</ele>
        <time>2018-02-20T09:03:47.000Z</time>
      </trkpt>
      <trkpt lat="43.52906" lon="5.51038">
        <ele>195</ele>
        <time>2018-02-20T09:03:48.000Z</time>
      </trkpt>
      <trkpt lat="43.52905" lon="5.51037">
        <ele>195</ele>
        <time>2018-02-20T09:03:49.000Z</time>
      </trkpt>
      <trkpt lat="43.52905" lon="5.51036">
        <ele>195</ele>
        <time>2018-02-20T09:03:50.000Z</time>
      </trkpt>
      <trkpt lat="43.52904" lon="5.51035">
        <ele>195</ele>
        <time>2018-02-20T09:03:51.000Z</time>
      </trkpt>
      <trkpt lat="43.52904" lon="5.51033">
        <ele>195</ele>
        <time>2018-02-20T09:03:52.000Z</time>
      </trkpt>
      <trkpt lat="43.52903" lon="5.51032">
        <ele>195</ele>
        <time>2018-02-20T09:03:53.000Z</time>
      </trkpt>
      <trkpt lat="43.52903" lon="5.51031">
        <ele>195</ele>
        <time>2018-02-20T09:03:54.000Z</time>
      </trkpt>
      <trkpt lat="43.52902" lon="5.51029">
        <ele>195</ele>
        <time>2018-02-20T09:03:55.000Z</time>
      </trkpt>
      <trkpt lat="43.52902" lon="5.51028">
        <ele>195</ele>
        <time>2018-02-20T09:03:56.000Z</time>
      </trkpt>
      <trkpt lat="43.52902" lon="5.51026">
        <ele>195</ele>
        <time>2018-02-20T09:03:57.000Z</time>
      </trkpt>
      <trkpt lat="43.52902" lon="5.51025">
        <ele>195</ele>
        <time>2018-02-20T09:03:58.000Z</time>
      </trkpt>
      <trkpt lat="43.52902" lon="5.51023">
        <ele>195</ele>
        <time>2018-02-20T09:03:59.000Z</time>
      </trkpt>
      <trkpt lat="43.52902" lon="5.51022">
        <ele>195</ele>
        <time>2018-02-20T09:04:00.000Z</time>
      </trkpt>
      <trkpt lat="43.52901" lon="5.51021">
        <ele>195</ele>
        <time>2018-02-20T09:04:01.000Z</time>
      </trkpt>
      <trkpt lat="43.52901" lon="5.51019">
        <ele>195</ele>
        <time>2018-02-20T09:04:02.000Z</time>
      </trkpt>
      <trkpt lat="43.529" lon="5.51017">
        <ele>195</ele>
        <time>2018-02-20T09:04:03.000Z</time>
      </trkpt>
      <trkpt lat="43.529" lon="5.51016">
        <ele>195</ele>
        <time>2018-02-20T09:04:04.000Z</time>
      </trkpt>
      <trkpt lat="43.529" lon="5.51015">
        <ele>195</ele>
        <time>2018-02-20T09:04:05.000Z</time>
      </trkpt>
      <trkpt lat="43.52899" lon="5.51014">
        <ele>195</ele>
        <time>2018-02-20T09:04:06.000Z</time>
      </trkpt>
      <trkpt lat="43.52899" lon="5.51012">
        <ele>195</ele>
        <time>2018-02-20T09:04:07.000Z</time>
      </trkpt>
      <trkpt lat="43.52898" lon="5.51011">
        <ele>195</ele>
        <time>2018-02-20T09:04:08.000Z</time>
      </trkpt>
      <trkpt lat="43.52898" lon="5.5101">
        <ele>195</ele>
        <time>2018-02-20T09:04:09.000Z</time>
      </trkpt>
      <trkpt lat="43.52897" lon="5.51009">
        <ele>195</ele>
        <time>2018-02-20T09:04:10.000Z</time>
      </trkpt>
      <trkpt lat="43.52897" lon="5.51008">
        <ele>195</ele>
        <time>2018-02-20T09:04:11.000Z</time>
      </trkpt>
      <trkpt lat="43.52897" lon="5.51007">
        <ele>195</ele>
        <time>2018-02-20T09:04:12.000Z</time>
      </trkpt>
      <trkpt lat="43.52896" lon="5.51005">
        <ele>195</ele>
        <time>2018-02-20T09:04:13.000Z</time>
      </trkpt>
      <trkpt lat="43.52896" lon="5.51004">
        <ele>195</ele>
        <time>2018-02-20T09:04:14.000Z</time>
      </trkpt>
      <trkpt lat="43.52895" lon="5.51003">
        <ele>195</ele>
        <time>2018-02-20T09:04:15.000Z</time>
      </trkpt>
      <trkpt lat="43.52895" lon="5.51001">
        <ele>195</ele>
        <time>2018-02-20T09:04:16.000Z</time>
      </trkpt>
      <trkpt lat="43.52894" lon="5.51">
        <ele>195</ele>
        <time>2018-02-20T09:04:17.000Z</time>
      </trkpt>
      <trkpt lat="43.52894" lon="5.50998">
        <ele>195</ele>
        <time>2018-02-20T09:04:18.000Z</time>
      </trkpt>
      <trkpt lat="43.52894" lon="5.50998">
        <ele>195</ele>
        <time>2018-02-20T09:04:19.000Z</time>
      </trkpt>
      <trkpt lat="43.52893" lon="5.50997">
        <ele>195</ele>
        <time>2018-02-20T09:04:20.000Z</time>
      </trkpt>
      <trkpt lat="43.52893" lon="5.50997">
        <ele>196</ele>
        <time>2018-02-20T09:04:21.000Z</time>
      </trkpt>
      <trkpt lat="43.52893" lon="5.50996">
        <ele>196</ele>
        <time>2018-02-20T09:04:22.000Z</time>
      </trkpt>
      <trkpt lat="43.52893" lon="5.50996">
        <ele>196</ele>
        <time>2018-02-20T09:04:23.000Z</time>
      </trkpt>
      <trkpt lat="43.52893" lon="5.50996">
        <ele>196</ele>
        <time>2018-02-20T09:04:24.000Z</time>
      </trkpt>
      <trkpt lat="43.52893" lon="5.50995">
        <ele>196</ele>
        <time>2018-02-20T09:04:25.000Z</time>
      </trkpt>
      <trkpt lat="43.52893" lon="5.50995">
        <ele>196</ele>
        <time>2018-02-20T09:04:26.000Z</time>
      </trkpt>
      <trkpt lat="43.52893" lon="5.50995">
        <ele>196</ele>
        <time>2018-02-20T09:04:27.000Z</time>
      </trkpt>
      <trkpt lat="43.52893" lon="5.50995">
        <ele>196</ele>
        <time>2018-02-20T09:04:28.000Z</time>
      </trkpt>
      <trkpt lat="43.52893" lon="5.50994">
        <ele>196</ele>
        <time>2018-02-20T09:04:29.000Z</time>
      </trkpt>
      <trkpt lat="43.52893" lon="5.50994">
        <ele>196</ele>
        <time>2018-02-20T09:04:30.000Z</time>
      </trkpt>
      <trkpt lat="43.52893" lon="5.50994">
        <ele>197</ele>
        <time>2018-02-20T09:04:31.000Z</time>
      </trkpt>
      <trkpt lat="43.52893" lon="5.50994">
        <ele>197</ele>
        <time>2018-02-20T09:04:32.000Z</time>
      </trkpt>
      <trkpt lat="43.52893" lon="5.50994">
        <ele>197</ele>
        <time>2018-02-20T09:04:33.000Z</time>
      </trkpt>
      <trkpt lat="43.52893" lon="5.50994">
        <ele>197</ele>
        <time>2018-02-20T09:04:34.000Z</time>
      </trkpt>
      <trkpt lat="43.52893" lon="5.50994">
        <ele>197</ele>
        <time>2018-02-20T09:04:35.000Z</time>
      </trkpt>
      <trkpt lat="43.52893" lon="5.50993">
        <ele>197</ele>
        <time>2018-02-20T09:04:36.000Z</time>
      </trkpt>
      <trkpt lat="43.52893" lon="5.50993">
        <ele>197</ele>
        <time>2018-02-20T09:04:37.000Z</time>
      </trkpt>
      <trkpt lat="43.52893" lon="5.50993">
        <ele>197</ele>
        <time>2018-02-20T09:04:38.000Z</time>
      </trkpt>
      <trkpt lat="43.52893" lon="5.50993">
        <ele>197</ele>
        <time>2018-02-20T09:04:39.000Z</time>
      </trkpt>
      <trkpt lat="43.52893" lon="5.50993">
        <ele>197</ele>
        <time>2018-02-20T09:04:40.000Z</time>
      </trkpt>
      <trkpt lat="43.52893" lon="5.50993">
        <ele>197</ele>
        <time>2018-02-20T09:04:41.000Z</time>
      </trkpt>
      <trkpt lat="43.52893" lon="5.50993">
        <ele>197</ele>
        <time>2018-02-20T09:04:42.000Z</time>
      </trkpt>
      <trkpt lat="43.52893" lon="5.50992">
        <ele>197</ele>
        <time>2018-02-20T09:04:43.000Z</time>
      </trkpt>
      <trkpt lat="43.52893" lon="5.50992">
        <ele>197</ele>
        <time>2018-02-20T09:04:44.000Z</time>
      </trkpt>
      <trkpt lat="43.52893" lon="5.50993">
        <ele>197</ele>
        <time>2018-02-20T09:04:45.000Z</time>
      </trkpt>
      <trkpt lat="43.52893" lon="5.50993">
        <ele>198</ele>
        <time>2018-02-20T09:04:46.000Z</time>
      </trkpt>
      <trkpt lat="43.52893" lon="5.50993">
        <ele>198</ele>
        <time>2018-02-20T09:04:47.000Z</time>
      </trkpt>
      <trkpt lat="43.52893" lon="5.50993">
        <ele>198</ele>
        <time>2018-02-20T09:04:48.000Z</time>
      </trkpt>
      <trkpt lat="43.52892" lon="5.50993">
        <ele>198</ele>
        <time>2018-02-20T09:04:49.000Z</time>
      </trkpt>
      <trkpt lat="43.52892" lon="5.50993">
        <ele>198</ele>
        <time>2018-02-20T09:04:50.000Z</time>
      </trkpt>
      <trkpt lat="43.52892" lon="5.50993">
        <ele>198</ele>
        <time>2018-02-20T09:04:51.000Z</time>
      </trkpt>
      <trkpt lat="43.52892" lon="5.50993">
        <ele>198</ele>
        <time>2018-02-20T09:04:52.000Z</time>
      </trkpt>
      <trkpt lat="43.52892" lon="5.50993">
        <ele>198</ele>
        <time>2018-02-20T09:04:53.000Z</time>
      </trkpt>
      <trkpt lat="43.52892" lon="5.50993">
        <ele>198</ele>
        <time>2018-02-20T09:04:54.000Z</time>
      </trkpt>
      <trkpt lat="43.52892" lon="5.50993">
        <ele>198</ele>
        <time>2018-02-20T09:04:55.000Z</time>
      </trkpt>
      <trkpt lat="43.52892" lon="5.50993">
        <ele>198</ele>
        <time>2018-02-20T09:04:56.000Z</time>
      </trkpt>
      <trkpt lat="43.52892" lon="5.50993">
        <ele>198</ele>
        <time>2018-02-20T09:04:57.000Z</time>
      </trkpt>
      <trkpt lat="43.52892" lon="5.50993">
        <ele>198</ele>
        <time>2018-02-20T09:04:58.000Z</time>
      </trkpt>
      <trkpt lat="43.52892" lon="5.50993">
        <ele>198</ele>
        <time>2018-02-20T09:04:59.000Z</time>
      </trkpt>
      <trkpt lat="43.52891" lon="5.50993">
        <ele>198</ele>
        <time>2018-02-20T09:05:00.000Z</time>
      </trkpt>
      <trkpt lat="43.52891" lon="5.50993">
        <ele>198</ele>
        <time>2018-02-20T09:05:01.000Z</time>
      </trkpt>
      <trkpt lat="43.52891" lon="5.50993">
        <ele>198</ele>
        <time>2018-02-20T09:05:02.000Z</time>
      </trkpt>
      <trkpt lat="43.52891" lon="5.50993">
        <ele>198</ele>
        <time>2018-02-20T09:05:03.000Z</time>
      </trkpt>
      <trkpt lat="43.52891" lon="5.50993">
        <ele>198</ele>
        <time>2018-02-20T09:05:04.000Z</time>
      </trkpt>
      <trkpt lat="43.52891" lon="5.50993">
        <ele>198</ele>
        <time>2018-02-20T09:05:05.000Z</time>
      </trkpt>
      <trkpt lat="43.52891" lon="5.50993">
        <ele>198</ele>
        <time>2018-02-20T09:05:06.000Z</time>
      </trkpt>
      <trkpt lat="43.52891" lon="5.50993">
        <ele>198</ele>
        <time>2018-02-20T09:05:07.000Z</time>
      </trkpt>
      <trkpt lat="43.52891" lon="5.50993">
        <ele>198</ele>
        <time>2018-02-20T09:05:08.000Z</time>
      </trkpt>
      <trkpt lat="43.52891" lon="5.50993">
        <ele>198</ele>
        <time>2018-02-20T09:05:09.000Z</time>
      </trkpt>
      <trkpt lat="43.52891" lon="5.50993">
        <ele>198</ele>
        <time>2018-02-20T09:05:10.000Z</time>
      </trkpt>
      <trkpt lat="43.52891" lon="5.50993">
        <ele>198</ele>
        <time>2018-02-20T09:05:11.000Z</time>
      </trkpt>
      <trkpt lat="43.52891" lon="5.50993">
        <ele>199</ele>
        <time>2018-02-20T09:05:12.000Z</time>
      </trkpt>
      <trkpt lat="43.52891" lon="5.50993">
        <ele>199</ele>
        <time>2018-02-20T09:05:13.000Z</time>
      </trkpt>
      <trkpt lat="43.52891" lon="5.50993">
        <ele>199</ele>
        <time>2018-02-20T09:05:14.000Z</time>
      </trkpt>
      <trkpt lat="43.52891" lon="5.50993">
        <ele>199</ele>
        <time>2018-02-20T09:05:15.000Z</time>
      </trkpt>
      <trkpt lat="43.52891" lon="5.50993">
        <ele>199</ele>
        <time>2018-02-20T09:05:16.000Z</time>
      </trkpt>
      <trkpt lat="43.52891" lon="5.50993">
        <ele>199</ele>
        <time>2018-02-20T09:05:17.000Z</time>
      </trkpt>
      <trkpt lat="43.52891" lon="5.50993">
        <ele>199</ele>
        <time>2018-02-20T09:05:18.000Z</time>
      </trkpt>
      <trkpt lat="43.52891" lon="5.50993">
        <ele>199</ele>
        <time>2018-02-20T09:05:19.000Z</time>
      </trkpt>
      <trkpt lat="43.52891" lon="5.50993">
        <ele>199</ele>
        <time>2018-02-20T09:05:20.000Z</time>
      </trkpt>
      <trkpt lat="43.52891" lon="5.50993">
        <ele>199</ele>
        <time>2018-02-20T09:05:21.000Z</time>
      </trkpt>
      <trkpt lat="43.52891" lon="5.50993">
        <ele>199</ele>
        <time>2018-02-20T09:05:22.000Z</time>
      </trkpt>
      <trkpt lat="43.52891" lon="5.50993">
        <ele>199</ele>
        <time>2018-02-20T09:05:23.000Z</time>
      </trkpt>
      <trkpt lat="43.52891" lon="5.50993">
        <ele>199</ele>
        <time>2018-02-20T09:05:24.000Z</time>
      </trkpt>
      <trkpt lat="43.52891" lon="5.50993">
        <ele>199</ele>
        <time>2018-02-20T09:05:25.000Z</time>
      </trkpt>
      <trkpt lat="43.52891" lon="5.50993">
        <ele>199</ele>
        <time>2018-02-20T09:05:26.000Z</time>
      </trkpt>
      <trkpt lat="43.52891" lon="5.50993">
        <ele>199</ele>
        <time>2018-02-20T09:05:27.000Z</time>
      </trkpt>
      <trkpt lat="43.52891" lon="5.50993">
        <ele>200</ele>
        <time>2018-02-20T09:05:28.000Z</time>
      </trkpt>
      <trkpt lat="43.52891" lon="5.50993">
        <ele>200</ele>
        <time>2018-02-20T09:05:29.000Z</time>
      </trkpt>
      <trkpt lat="43.52891" lon="5.50993">
        <ele>200</ele>
        <time>2018-02-20T09:05:30.000Z</time>
      </trkpt>
      <trkpt lat="43.52891" lon="5.50993">
        <ele>200</ele>
        <time>2018-02-20T09:05:31.000Z</time>
      </trkpt>
      <trkpt lat="43.52891" lon="5.50993">
        <ele>200</ele>
        <time>2018-02-20T09:05:32.000Z</time>
      </trkpt>
      <trkpt lat="43.5289" lon="5.50993">
        <ele>200</ele>
        <time>2018-02-20T09:05:33.000Z</time>
      </trkpt>
      <trkpt lat="43.5289" lon="5.50993">
        <ele>200</ele>
        <time>2018-02-20T09:05:34.000Z</time>
      </trkpt>
      <trkpt lat="43.5289" lon="5.50993">
        <ele>200</ele>
        <time>2018-02-20T09:05:35.000Z</time>
      </trkpt>
      <trkpt lat="43.5289" lon="5.50993">
        <ele>200</ele>
        <time>2018-02-20T09:05:36.000Z</time>
      </trkpt>
      <trkpt lat="43.5289" lon="5.50993">
        <ele>200</ele>
        <time>2018-02-20T09:05:37.000Z</time>
      </trkpt>
      <trkpt lat="43.5289" lon="5.50993">
        <ele>200</ele>
        <time>2018-02-20T09:05:38.000Z</time>
      </trkpt>
      <trkpt lat="43.5289" lon="5.50993">
        <ele>200</ele>
        <time>2018-02-20T09:05:39.000Z</time>
      </trkpt>
      <trkpt lat="43.5289" lon="5.50993">
        <ele>200</ele>
        <time>2018-02-20T09:05:40.000Z</time>
      </trkpt>
      <trkpt lat="43.5289" lon="5.50993">
        <ele>200</ele>
        <time>2018-02-20T09:05:41.000Z</time>
      </trkpt>
      <trkpt lat="43.5289" lon="5.50993">
        <ele>200</ele>
        <time>2018-02-20T09:05:42.000Z</time>
      </trkpt>
      <trkpt lat="43.5289" lon="5.50993">
        <ele>200</ele>
        <time>2018-02-20T09:05:43.000Z</time>
      </trkpt>
      <trkpt lat="43.5289" lon="5.50993">
        <ele>200</ele>
        <time>2018-02-20T09:05:44.000Z</time>
      </trkpt>
      <trkpt lat="43.5289" lon="5.50993">
        <ele>200</ele>
        <time>2018-02-20T09:05:45.000Z</time>
      </trkpt>
      <trkpt lat="43.5289" lon="5.50993">
        <ele>200</ele>
        <time>2018-02-20T09:05:46.000Z</time>
      </trkpt>
      <trkpt lat="43.5289" lon="5.50993">
        <ele>200</ele>
        <time>2018-02-20T09:05:47.000Z</time>
      </trkpt>
      <trkpt lat="43.5289" lon="5.50993">
        <ele>200</ele>
        <time>2018-02-20T09:05:48.000Z</time>
      </trkpt>
      <trkpt lat="43.5289" lon="5.50993">
        <ele>200</ele>
        <time>2018-02-20T09:05:49.000Z</time>
      </trkpt>
      <trkpt lat="43.5289" lon="5.50993">
        <ele>200</ele>
        <time>2018-02-20T09:05:50.000Z</time>
      </trkpt>
      <trkpt lat="43.5289" lon="5.50993">
        <ele>200</ele>
        <time>2018-02-20T09:05:51.000Z</time>
      </trkpt>
      <trkpt lat="43.5289" lon="5.50993">
        <ele>200</ele>
        <time>2018-02-20T09:05:52.000Z</time>
      </trkpt>
      <trkpt lat="43.5289" lon="5.50993">
        <ele>200</ele>
        <time>2018-02-20T09:05:53.000Z</time>
      </trkpt>
      <trkpt lat="43.5289" lon="5.50992">
        <ele>200</ele>
        <time>2018-02-20T09:05:54.000Z</time>
      </trkpt>
      <trkpt lat="43.52889" lon="5.50991">
        <ele>200</ele>
        <time>2018-02-20T09:05:55.000Z</time>
      </trkpt>
      <trkpt lat="43.52889" lon="5.5099">
        <ele>200</ele>
        <time>2018-02-20T09:05:56.000Z</time>
      </trkpt>
      <trkpt lat="43.52889" lon="5.50989">
        <ele>200</ele>
        <time>2018-02-20T09:05:57.000Z</time>
      </trkpt>
      <trkpt lat="43.52888" lon="5.50988">
        <ele>200</ele>
        <time>2018-02-20T09:05:58.000Z</time>
      </trkpt>
      <trkpt lat="43.52888" lon="5.50987">
        <ele>200</ele>
        <time>2018-02-20T09:05:59.000Z</time>
      </trkpt>
      <trkpt lat="43.52887" lon="5.50987">
        <ele>200</ele>
        <time>2018-02-20T09:06:00.000Z</time>
      </trkpt>
      <trkpt lat="43.52886" lon="5.50986">
        <ele>200</ele>
        <time>2018-02-20T09:06:01.000Z</time>
      </trkpt>
      <trkpt lat="43.52886" lon="5.50985">
        <ele>200</ele>
        <time>2018-02-20T09:06:02.000Z</time>
      </trkpt>
      <trkpt lat="43.52885" lon="5.50984">
        <ele>200</ele>
        <time>2018-02-20T09:06:03.000Z</time>
      </trkpt>
      <trkpt lat="43.52885" lon="5.50983">
        <ele>200</ele>
        <time>2018-02-20T09:06:04.000Z</time>
      </trkpt>
      <trkpt lat="43.52884" lon="5.50983">
        <ele>200</ele>
        <time>2018-02-20T09:06:05.000Z</time>
      </trkpt>
      <trkpt lat="43.52884" lon="5.50983">
        <ele>200</ele>
        <time>2018-02-20T09:06:06.000Z</time>
      </trkpt>
      <trkpt lat="43.52884" lon="5.50982">
        <ele>200</ele>
        <time>2018-02-20T09:06:07.000Z</time>
      </trkpt>
      <trkpt lat="43.52884" lon="5.50982">
        <ele>200</ele>
        <time>2018-02-20T09:06:08.000Z</time>
      </trkpt>
      <trkpt lat="43.52884" lon="5.50982">
        <ele>200</ele>
        <time>2018-02-20T09:06:09.000Z</time>
      </trkpt>
      <trkpt lat="43.52884" lon="5.50982">
        <ele>200</ele>
        <time>2018-02-20T09:06:10.000Z</time>
      </trkpt>
      <trkpt lat="43.52884" lon="5.50982">
        <ele>200</ele>
        <time>2018-02-20T09:06:11.000Z</time>
      </trkpt>
      <trkpt lat="43.52884" lon="5.50981">
        <ele>200</ele>
        <time>2018-02-20T09:06:12.000Z</time>
      </trkpt>
      <trkpt lat="43.52884" lon="5.50981">
        <ele>200</ele>
        <time>2018-02-20T09:06:13.000Z</time>
      </trkpt>
      <trkpt lat="43.52884" lon="5.50981">
        <ele>200</ele>
        <time>2018-02-20T09:06:14.000Z</time>
      </trkpt>
      <trkpt lat="43.52884" lon="5.50981">
        <ele>200</ele>
        <time>2018-02-20T09:06:15.000Z</time>
      </trkpt>
      <trkpt lat="43.52884" lon="5.50981">
        <ele>200</ele>
        <time>2018-02-20T09:06:16.000Z</time>
      </trkpt>
      <trkpt lat="43.52884" lon="5.50981">
        <ele>200</ele>
        <time>2018-02-20T09:06:17.000Z</time>
      </trkpt>
      <trkpt lat="43.52884" lon="5.50981">
        <ele>200</ele>
        <time>2018-02-20T09:06:18.000Z</time>
      </trkpt>
      <trkpt lat="43.52884" lon="5.50981">
        <ele>199</ele>
        <time>2018-02-20T09:06:19.000Z</time>
      </trkpt>
      <trkpt lat="43.52884" lon="5.50981">
        <ele>199</ele>
        <time>2018-02-20T09:06:20.000Z</time>
      </trkpt>
      <trkpt lat="43.52885" lon="5.50981">
        <ele>199</ele>
        <time>2018-02-20T09:06:21.000Z</time>
      </trkpt>
      <trkpt lat="43.52885" lon="5.50981">
        <ele>199</ele>
        <time>2018-02-20T09:06:22.000Z</time>
      </trkpt>
      <trkpt lat="43.52885" lon="5.50981">
        <ele>199</ele>
        <time>2018-02-20T09:06:23.000Z</time>
      </trkpt>
      <trkpt lat="43.52885" lon="5.5098">
        <ele>199</ele>
        <time>2018-02-20T09:06:24.000Z</time>
      </trkpt>
      <trkpt lat="43.52885" lon="5.5098">
        <ele>199</ele>
        <time>2018-02-20T09:06:25.000Z</time>
      </trkpt>
      <trkpt lat="43.52885" lon="5.5098">
        <ele>199</ele>
        <time>2018-02-20T09:06:26.000Z</time>
      </trkpt>
      <trkpt lat="43.52885" lon="5.5098">
        <ele>199</ele>
        <time>2018-02-20T09:06:27.000Z</time>
      </trkpt>
      <trkpt lat="43.52885" lon="5.5098">
        <ele>199</ele>
        <time>2018-02-20T09:06:28.000Z</time>
      </trkpt>
      <trkpt lat="43.52885" lon="5.5098">
        <ele>199</ele>
        <time>2018-02-20T09:06:29.000Z</time>
      </trkpt>
      <trkpt lat="43.52885" lon="5.5098">
        <ele>199</ele>
        <time>2018-02-20T09:06:30.000Z</time>
      </trkpt>
      <trkpt lat="43.52885" lon="5.50979">
        <ele>199</ele>
        <time>2018-02-20T09:06:31.000Z</time>
      </trkpt>
      <trkpt lat="43.52885" lon="5.50978">
        <ele>199</ele>
        <time>2018-02-20T09:06:32.000Z</time>
      </trkpt>
      <trkpt lat="43.52885" lon="5.50977">
        <ele>199</ele>
        <time>2018-02-20T09:06:33.000Z</time>
      </trkpt>
      <trkpt lat="43.52885" lon="5.50976">
        <ele>199</ele>
        <time>2018-02-20T09:06:34.000Z</time>
      </trkpt>
      <trkpt lat="43.52885" lon="5.50975">
        <ele>199</ele>
        <time>2018-02-20T09:06:35.000Z</time>
      </trkpt>
      <trkpt lat="43.52885" lon="5.50975">
        <ele>199</ele>
        <time>2018-02-20T09:06:36.000Z</time>
      </trkpt>
      <trkpt lat="43.52885" lon="5.50974">
        <ele>199</ele>
        <time>2018-02-20T09:06:37.000Z</time>
      </trkpt>
      <trkpt lat="43.52885" lon="5.50973">
        <ele>199</ele>
        <time>2018-02-20T09:06:38.000Z</time>
      </trkpt>
      <trkpt lat="43.52885" lon="5.50972">
        <ele>199</ele>
        <time>2018-02-20T09:06:39.000Z</time>
      </trkpt>
      <trkpt lat="43.52885" lon="5.50971">
        <ele>199</ele>
        <time>2018-02-20T09:06:40.000Z</time>
      </trkpt>
      <trkpt lat="43.52885" lon="5.5097">
        <ele>199</ele>
        <time>2018-02-20T09:06:41.000Z</time>
      </trkpt>
      <trkpt lat="43.52884" lon="5.5097">
        <ele>199</ele>
        <time>2018-02-20T09:06:42.000Z</time>
      </trkpt>
      <trkpt lat="43.52884" lon="5.50969">
        <ele>199</ele>
        <time>2018-02-20T09:06:43.000Z</time>
      </trkpt>
      <trkpt lat="43.52883" lon="5.50968">
        <ele>200</ele>
        <time>2018-02-20T09:06:44.000Z</time>
      </trkpt>
      <trkpt lat="43.52882" lon="5.50968">
        <ele>200</ele>
        <time>2018-02-20T09:06:45.000Z</time>
      </trkpt>
      <trkpt lat="43.52882" lon="5.50968">
        <ele>200</ele>
        <time>2018-02-20T09:06:46.000Z</time>
      </trkpt>
      <trkpt lat="43.52881" lon="5.50967">
        <ele>200</ele>
        <time>2018-02-20T09:06:47.000Z</time>
      </trkpt>
      <trkpt lat="43.52881" lon="5.50967">
        <ele>200</ele>
        <time>2018-02-20T09:06:48.000Z</time>
      </trkpt>
      <trkpt lat="43.52881" lon="5.50966">
        <ele>200</ele>
        <time>2018-02-20T09:06:49.000Z</time>
      </trkpt>
      <trkpt lat="43.52881" lon="5.50967">
        <ele>200</ele>
        <time>2018-02-20T09:06:50.000Z</time>
      </trkpt>
      <trkpt lat="43.52881" lon="5.50967">
        <ele>201</ele>
        <time>2018-02-20T09:06:51.000Z</time>
      </trkpt>
      <trkpt lat="43.5288" lon="5.50967">
        <ele>201</ele>
        <time>2018-02-20T09:06:52.000Z</time>
      </trkpt>
      <trkpt lat="43.5288" lon="5.50967">
        <ele>201</ele>
        <time>2018-02-20T09:06:53.000Z</time>
      </trkpt>
      <trkpt lat="43.5288" lon="5.50967">
        <ele>201</ele>
        <time>2018-02-20T09:06:54.000Z</time>
      </trkpt>
      <trkpt lat="43.52879" lon="5.50966">
        <ele>201</ele>
        <time>2018-02-20T09:06:55.000Z</time>
      </trkpt>
      <trkpt lat="43.52879" lon="5.50966">
        <ele>201</ele>
        <time>2018-02-20T09:06:56.000Z</time>
      </trkpt>
      <trkpt lat="43.52878" lon="5.50966">
        <ele>200</ele>
        <time>2018-02-20T09:06:57.000Z</time>
      </trkpt>
      <trkpt lat="43.52877" lon="5.50965">
        <ele>200</ele>
        <time>2018-02-20T09:06:58.000Z</time>
      </trkpt>
      <trkpt lat="43.52876" lon="5.50964">
        <ele>200</ele>
        <time>2018-02-20T09:06:59.000Z</time>
      </trkpt>
      <trkpt lat="43.52875" lon="5.50964">
        <ele>200</ele>
        <time>2018-02-20T09:07:00.000Z</time>
      </trkpt>
      <trkpt lat="43.52875" lon="5.50963">
        <ele>200</ele>
        <time>2018-02-20T09:07:01.000Z</time>
      </trkpt>
      <trkpt lat="43.52875" lon="5.50963">
        <ele>200</ele>
        <time>2018-02-20T09:07:02.000Z</time>
      </trkpt>
      <trkpt lat="43.52875" lon="5.50963">
        <ele>200</ele>
        <time>2018-02-20T09:07:03.000Z</time>
      </trkpt>
      <trkpt lat="43.52875" lon="5.50963">
        <ele>200</ele>
        <time>2018-02-20T09:07:04.000Z</time>
      </trkpt>
      <trkpt lat="43.52875" lon="5.50964">
        <ele>200</ele>
        <time>2018-02-20T09:07:05.000Z</time>
      </trkpt>
      <trkpt lat="43.52875" lon="5.50964">
        <ele>200</ele>
        <time>2018-02-20T09:07:06.000Z</time>
      </trkpt>
      <trkpt lat="43.52874" lon="5.50963">
        <ele>200</ele>
        <time>2018-02-20T09:07:07.000Z</time>
      </trkpt>
      <trkpt lat="43.52874" lon="5.50962">
        <ele>200</ele>
        <time>2018-02-20T09:07:08.000Z</time>
      </trkpt>
      <trkpt lat="43.52874" lon="5.50962">
        <ele>200</ele>
        <time>2018-02-20T09:07:09.000Z</time>
      </trkpt>
      <trkpt lat="43.52873" lon="5.50961">
        <ele>200</ele>
        <time>2018-02-20T09:07:10.000Z</time>
      </trkpt>
      <trkpt lat="43.52872" lon="5.5096">
        <ele>200</ele>
        <time>2018-02-20T09:07:11.000Z</time>
      </trkpt>
      <trkpt lat="43.52872" lon="5.50959">
        <ele>200</ele>
        <time>2018-02-20T09:07:12.000Z</time>
      </trkpt>
      <trkpt lat="43.52871" lon="5.50958">
        <ele>201</ele>
        <time>2018-02-20T09:07:13.000Z</time>
      </trkpt>
      <trkpt lat="43.52871" lon="5.50958">
        <ele>201</ele>
        <time>2018-02-20T09:07:14.000Z</time>
      </trkpt>
      <trkpt lat="43.5287" lon="5.50957">
        <ele>201</ele>
        <time>2018-02-20T09:07:15.000Z</time>
      </trkpt>
      <trkpt lat="43.5287" lon="5.50957">
        <ele>201</ele>
        <time>2018-02-20T09:07:16.000Z</time>
      </trkpt>
      <trkpt lat="43.5287" lon="5.50957">
        <ele>201</ele>
        <time>2018-02-20T09:07:17.000Z</time>
      </trkpt>
      <trkpt lat="43.5287" lon="5.50957">
        <ele>201</ele>
        <time>2018-02-20T09:07:18.000Z</time>
      </trkpt>
      <trkpt lat="43.52871" lon="5.50957">
        <ele>201</ele>
        <time>2018-02-20T09:07:19.000Z</time>
      </trkpt>
      <trkpt lat="43.52871" lon="5.50957">
        <ele>201</ele>
        <time>2018-02-20T09:07:20.000Z</time>
      </trkpt>
      <trkpt lat="43.5287" lon="5.50957">
        <ele>201</ele>
        <time>2018-02-20T09:07:21.000Z</time>
      </trkpt>
      <trkpt lat="43.5287" lon="5.50958">
        <ele>201</ele>
        <time>2018-02-20T09:07:22.000Z</time>
      </trkpt>
      <trkpt lat="43.52869" lon="5.50959">
        <ele>201</ele>
        <time>2018-02-20T09:07:23.000Z</time>
      </trkpt>
      <trkpt lat="43.52868" lon="5.50959">
        <ele>201</ele>
        <time>2018-02-20T09:07:24.000Z</time>
      </trkpt>
      <trkpt lat="43.52867" lon="5.50959">
        <ele>201</ele>
        <time>2018-02-20T09:07:25.000Z</time>
      </trkpt>
      <trkpt lat="43.52866" lon="5.50959">
        <ele>201</ele>
        <time>2018-02-20T09:07:26.000Z</time>
      </trkpt>
      <trkpt lat="43.52865" lon="5.5096">
        <ele>201</ele>
        <time>2018-02-20T09:07:27.000Z</time>
      </trkpt>
      <trkpt lat="43.52865" lon="5.5096">
        <ele>201</ele>
        <time>2018-02-20T09:07:28.000Z</time>
      </trkpt>
      <trkpt lat="43.52865" lon="5.5096">
        <ele>201</ele>
        <time>2018-02-20T09:07:29.000Z</time>
      </trkpt>
      <trkpt lat="43.52865" lon="5.5096">
        <ele>201</ele>
        <time>2018-02-20T09:07:30.000Z</time>
      </trkpt>
      <trkpt lat="43.52865" lon="5.5096">
        <ele>201</ele>
        <time>2018-02-20T09:07:31.000Z</time>
      </trkpt>
      <trkpt lat="43.52866" lon="5.50961">
        <ele>201</ele>
        <time>2018-02-20T09:07:32.000Z</time>
      </trkpt>
      <trkpt lat="43.52866" lon="5.50961">
        <ele>201</ele>
        <time>2018-02-20T09:07:33.000Z</time>
      </trkpt>
      <trkpt lat="43.52866" lon="5.50961">
        <ele>201</ele>
        <time>2018-02-20T09:07:34.000Z</time>
      </trkpt>
      <trkpt lat="43.52866" lon="5.50961">
        <ele>201</ele>
        <time>2018-02-20T09:07:35.000Z</time>
      </trkpt>
      <trkpt lat="43.52866" lon="5.50961">
        <ele>201</ele>
        <time>2018-02-20T09:07:36.000Z</time>
      </trkpt>
      <trkpt lat="43.52866" lon="5.50961">
        <ele>201</ele>
        <time>2018-02-20T09:07:37.000Z</time>
      </trkpt>
      <trkpt lat="43.52866" lon="5.50961">
        <ele>201</ele>
        <time>2018-02-20T09:07:38.000Z</time>
      </trkpt>
      <trkpt lat="43.52865" lon="5.50962">
        <ele>201</ele>
        <time>2018-02-20T09:07:39.000Z</time>
      </trkpt>
      <trkpt lat="43.52865" lon="5.50962">
        <ele>201</ele>
        <time>2018-02-20T09:07:40.000Z</time>
      </trkpt>
      <trkpt lat="43.52865" lon="5.50962">
        <ele>201</ele>
        <time>2018-02-20T09:07:41.000Z</time>
      </trkpt>
      <trkpt lat="43.52865" lon="5.50963">
        <ele>201</ele>
        <time>2018-02-20T09:07:42.000Z</time>
      </trkpt>
      <trkpt lat="43.52865" lon="5.50963">
        <ele>201</ele>
        <time>2018-02-20T09:07:43.000Z</time>
      </trkpt>
      <trkpt lat="43.52865" lon="5.50963">
        <ele>202</ele>
        <time>2018-02-20T09:07:44.000Z</time>
      </trkpt>
      <trkpt lat="43.52864" lon="5.50965">
        <ele>202</ele>
        <time>2018-02-20T09:07:45.000Z</time>
      </trkpt>
      <trkpt lat="43.52864" lon="5.50966">
        <ele>202</ele>
        <time>2018-02-20T09:07:46.000Z</time>
      </trkpt>
      <trkpt lat="43.52864" lon="5.50967">
        <ele>202</ele>
        <time>2018-02-20T09:07:47.000Z</time>
      </trkpt>
      <trkpt lat="43.52863" lon="5.50968">
        <ele>202</ele>
        <time>2018-02-20T09:07:48.000Z</time>
      </trkpt>
      <trkpt lat="43.52863" lon="5.50969">
        <ele>202</ele>
        <time>2018-02-20T09:07:49.000Z</time>
      </trkpt>
      <trkpt lat="43.52863" lon="5.50969">
        <ele>202</ele>
        <time>2018-02-20T09:07:50.000Z</time>
      </trkpt>
      <trkpt lat="43.52862" lon="5.50969">
        <ele>202</ele>
        <time>2018-02-20T09:07:51.000Z</time>
      </trkpt>
      <trkpt lat="43.52862" lon="5.50969">
        <ele>202</ele>
        <time>2018-02-20T09:07:52.000Z</time>
      </trkpt>
      <trkpt lat="43.52862" lon="5.5097">
        <ele>202</ele>
        <time>2018-02-20T09:07:53.000Z</time>
      </trkpt>
      <trkpt lat="43.52862" lon="5.5097">
        <ele>202</ele>
        <time>2018-02-20T09:07:54.000Z</time>
      </trkpt>
      <trkpt lat="43.52862" lon="5.5097">
        <ele>202</ele>
        <time>2018-02-20T09:07:55.000Z</time>
      </trkpt>
      <trkpt lat="43.52862" lon="5.5097">
        <ele>202</ele>
        <time>2018-02-20T09:07:56.000Z</time>
      </trkpt>
      <trkpt lat="43.52863" lon="5.5097">
        <ele>202</ele>
        <time>2018-02-20T09:07:57.000Z</time>
      </trkpt>
      <trkpt lat="43.52863" lon="5.5097">
        <ele>202</ele>
        <time>2018-02-20T09:07:58.000Z</time>
      </trkpt>
      <trkpt lat="43.52862" lon="5.50971">
        <ele>202</ele>
        <time>2018-02-20T09:07:59.000Z</time>
      </trkpt>
      <trkpt lat="43.52862" lon="5.50971">
        <ele>202</ele>
        <time>2018-02-20T09:08:00.000Z</time>
      </trkpt>
      <trkpt lat="43.52862" lon="5.50971">
        <ele>202</ele>
        <time>2018-02-20T09:08:01.000Z</time>
      </trkpt>
      <trkpt lat="43.52863" lon="5.50971">
        <ele>202</ele>
        <time>2018-02-20T09:08:02.000Z</time>
      </trkpt>
      <trkpt lat="43.52863" lon="5.50971">
        <ele>202</ele>
        <time>2018-02-20T09:08:03.000Z</time>
      </trkpt>
      <trkpt lat="43.52863" lon="5.50971">
        <ele>202</ele>
        <time>2018-02-20T09:08:04.000Z</time>
      </trkpt>
      <trkpt lat="43.52863" lon="5.50971">
        <ele>202</ele>
        <time>2018-02-20T09:08:05.000Z</time>
      </trkpt>
      <trkpt lat="43.52863" lon="5.50971">
        <ele>202</ele>
        <time>2018-02-20T09:08:06.000Z</time>
      </trkpt>
      <trkpt lat="43.52862" lon="5.50972">
        <ele>202</ele>
        <time>2018-02-20T09:08:07.000Z</time>
      </trkpt>
      <trkpt lat="43.52862" lon="5.50972">
        <ele>202</ele>
        <time>2018-02-20T09:08:08.000Z</time>
      </trkpt>
      <trkpt lat="43.52862" lon="5.50973">
        <ele>202</ele>
        <time>2018-02-20T09:08:09.000Z</time>
      </trkpt>
      <trkpt lat="43.52862" lon="5.50973">
        <ele>202</ele>
        <time>2018-02-20T09:08:10.000Z</time>
      </trkpt>
      <trkpt lat="43.52862" lon="5.50973">
        <ele>202</ele>
        <time>2018-02-20T09:08:11.000Z</time>
      </trkpt>
      <trkpt lat="43.52862" lon="5.50973">
        <ele>202</ele>
        <time>2018-02-20T09:08:12.000Z</time>
      </trkpt>
      <trkpt lat="43.52862" lon="5.50974">
        <ele>202</ele>
        <time>2018-02-20T09:08:13.000Z</time>
      </trkpt>
      <trkpt lat="43.52862" lon="5.50974">
        <ele>202</ele>
        <time>2018-02-20T09:08:14.000Z</time>
      </trkpt>
      <trkpt lat="43.52863" lon="5.50974">
        <ele>203</ele>
        <time>2018-02-20T09:08:15.000Z</time>
      </trkpt>
      <trkpt lat="43.52863" lon="5.50974">
        <ele>203</ele>
        <time>2018-02-20T09:08:16.000Z</time>
      </trkpt>
      <trkpt lat="43.52863" lon="5.50974">
        <ele>203</ele>
        <time>2018-02-20T09:08:17.000Z</time>
      </trkpt>
      <trkpt lat="43.52863" lon="5.50974">
        <ele>203</ele>
        <time>2018-02-20T09:08:18.000Z</time>
      </trkpt>
      <trkpt lat="43.52863" lon="5.50974">
        <ele>202</ele>
        <time>2018-02-20T09:08:19.000Z</time>
      </trkpt>
      <trkpt lat="43.52863" lon="5.50974">
        <ele>202</ele>
        <time>2018-02-20T09:08:20.000Z</time>
      </trkpt>
      <trkpt lat="43.52863" lon="5.50974">
        <ele>202</ele>
        <time>2018-02-20T09:08:21.000Z</time>
      </trkpt>
      <trkpt lat="43.52863" lon="5.50974">
        <ele>202</ele>
        <time>2018-02-20T09:08:22.000Z</time>
      </trkpt>
      <trkpt lat="43.52863" lon="5.50974">
        <ele>202</ele>
        <time>2018-02-20T09:08:23.000Z</time>
      </trkpt>
      <trkpt lat="43.52863" lon="5.50974">
        <ele>202</ele>
        <time>2018-02-20T09:08:24.000Z</time>
      </trkpt>
      <trkpt lat="43.52863" lon="5.50974">
        <ele>202</ele>
        <time>2018-02-20T09:08:25.000Z</time>
      </trkpt>
      <trkpt lat="43.52863" lon="5.50973">
        <ele>202</ele>
        <time>2018-02-20T09:08:26.000Z</time>
      </trkpt>
      <trkpt lat="43.52863" lon="5.50973">
        <ele>202</ele>
        <time>2018-02-20T09:08:27.000Z</time>
      </trkpt>
      <trkpt lat="43.52863" lon="5.50973">
        <ele>202</ele>
        <time>2018-02-20T09:08:28.000Z</time>
      </trkpt>
      <trkpt lat="43.52863" lon="5.50973">
        <ele>202</ele>
        <time>2018-02-20T09:08:29.000Z</time>
      </trkpt>
      <trkpt lat="43.52863" lon="5.50973">
        <ele>202</ele>
        <time>2018-02-20T09:08:30.000Z</time>
      </trkpt>
      <trkpt lat="43.52863" lon="5.50973">
        <ele>202</ele>
        <time>2018-02-20T09:08:31.000Z</time>
      </trkpt>
      <trkpt lat="43.52863" lon="5.50973">
        <ele>202</ele>
        <time>2018-02-20T09:08:32.000Z</time>
      </trkpt>
      <trkpt lat="43.52863" lon="5.50973">
        <ele>202</ele>
        <time>2018-02-20T09:08:33.000Z</time>
      </trkpt>
      <trkpt lat="43.52863" lon="5.50973">
        <ele>202</ele>
        <time>2018-02-20T09:08:34.000Z</time>
      </trkpt>
      <trkpt lat="43.52863" lon="5.50972">
        <ele>202</ele>
        <time>2018-02-20T09:08:35.000Z</time>
      </trkpt>
      <trkpt lat="43.52863" lon="5.50973">
        <ele>202</ele>
        <time>2018-02-20T09:08:36.000Z</time>
      </trkpt>
      <trkpt lat="43.52863" lon="5.50973">
        <ele>202</ele>
        <time>2018-02-20T09:08:37.000Z</time>
      </trkpt>
      <trkpt lat="43.52863" lon="5.50973">
        <ele>202</ele>
        <time>2018-02-20T09:08:38.000Z</time>
      </trkpt>
      <trkpt lat="43.52863" lon="5.50972">
        <ele>202</ele>
        <time>2018-02-20T09:08:39.000Z</time>
      </trkpt>
      <trkpt lat="43.52863" lon="5.50972">
        <ele>202</ele>
        <time>2018-02-20T09:08:40.000Z</time>
      </trkpt>
      <trkpt lat="43.52864" lon="5.50971">
        <ele>202</ele>
        <time>2018-02-20T09:08:41.000Z</time>
      </trkpt>
      <trkpt lat="43.52864" lon="5.5097">
        <ele>202</ele>
        <time>2018-02-20T09:08:42.000Z</time>
      </trkpt>
      <trkpt lat="43.52865" lon="5.50969">
        <ele>203</ele>
        <time>2018-02-20T09:08:43.000Z</time>
      </trkpt>
      <trkpt lat="43.52865" lon="5.50968">
        <ele>203</ele>
        <time>2018-02-20T09:08:44.000Z</time>
      </trkpt>
      <trkpt lat="43.52865" lon="5.50968">
        <ele>203</ele>
        <time>2018-02-20T09:08:45.000Z</time>
      </trkpt>
      <trkpt lat="43.52865" lon="5.50968">
        <ele>203</ele>
        <time>2018-02-20T09:08:46.000Z</time>
      </trkpt>
      <trkpt lat="43.52865" lon="5.50968">
        <ele>202</ele>
        <time>2018-02-20T09:08:47.000Z</time>
      </trkpt>
      <trkpt lat="43.52865" lon="5.50968">
        <ele>202</ele>
        <time>2018-02-20T09:08:48.000Z</time>
      </trkpt>
      <trkpt lat="43.52865" lon="5.50968">
        <ele>202</ele>
        <time>2018-02-20T09:08:49.000Z</time>
      </trkpt>
      <trkpt lat="43.52865" lon="5.50968">
        <ele>202</ele>
        <time>2018-02-20T09:08:50.000Z</time>
      </trkpt>
      <trkpt lat="43.52865" lon="5.50967">
        <ele>202</ele>
        <time>2018-02-20T09:08:51.000Z</time>
      </trkpt>
      <trkpt lat="43.52865" lon="5.50967">
        <ele>202</ele>
        <time>2018-02-20T09:08:52.000Z</time>
      </trkpt>
      <trkpt lat="43.52865" lon="5.50967">
        <ele>202</ele>
        <time>2018-02-20T09:08:53.000Z</time>
      </trkpt>
      <trkpt lat="43.52865" lon="5.50967">
        <ele>202</ele>
        <time>2018-02-20T09:08:54.000Z</time>
      </trkpt>
      <trkpt lat="43.52866" lon="5.50966">
        <ele>202</ele>
        <time>2018-02-20T09:08:55.000Z</time>
      </trkpt>
      <trkpt lat="43.52866" lon="5.50966">
        <ele>202</ele>
        <time>2018-02-20T09:08:56.000Z</time>
      </trkpt>
      <trkpt lat="43.52866" lon="5.50966">
        <ele>202</ele>
        <time>2018-02-20T09:08:57.000Z</time>
      </trkpt>
      <trkpt lat="43.52866" lon="5.50965">
        <ele>202</ele>
        <time>2018-02-20T09:08:58.000Z</time>
      </trkpt>
      <trkpt lat="43.52867" lon="5.50965">
        <ele>202</ele>
        <time>2018-02-20T09:08:59.000Z</time>
      </trkpt>
      <trkpt lat="43.52867" lon="5.50965">
        <ele>202</ele>
        <time>2018-02-20T09:09:00.000Z</time>
      </trkpt>
      <trkpt lat="43.52867" lon="5.50964">
        <ele>202</ele>
        <time>2018-02-20T09:09:01.000Z</time>
      </trkpt>
      <trkpt lat="43.52867" lon="5.50962">
        <ele>202</ele>
        <time>2018-02-20T09:09:02.000Z</time>
      </trkpt>
      <trkpt lat="43.52868" lon="5.50961">
        <ele>202</ele>
        <time>2018-02-20T09:09:03.000Z</time>
      </trkpt>
      <trkpt lat="43.52868" lon="5.50959">
        <ele>202</ele>
        <time>2018-02-20T09:09:04.000Z</time>
      </trkpt>
      <trkpt lat="43.52869" lon="5.50957">
        <ele>202</ele>
        <time>2018-02-20T09:09:05.000Z</time>
      </trkpt>
      <trkpt lat="43.5287" lon="5.50956">
        <ele>202</ele>
        <time>2018-02-20T09:09:06.000Z</time>
      </trkpt>
      <trkpt lat="43.5287" lon="5.50955">
        <ele>202</ele>
        <time>2018-02-20T09:09:07.000Z</time>
      </trkpt>
      <trkpt lat="43.5287" lon="5.50955">
        <ele>202</ele>
        <time>2018-02-20T09:09:08.000Z</time>
      </trkpt>
      <trkpt lat="43.5287" lon="5.50955">
        <ele>202</ele>
        <time>2018-02-20T09:09:09.000Z</time>
      </trkpt>
      <trkpt lat="43.5287" lon="5.50955">
        <ele>202</ele>
        <time>2018-02-20T09:09:10.000Z</time>
      </trkpt>
      <trkpt lat="43.5287" lon="5.50955">
        <ele>202</ele>
        <time>2018-02-20T09:09:11.000Z</time>
      </trkpt>
      <trkpt lat="43.5287" lon="5.50954">
        <ele>202</ele>
        <time>2018-02-20T09:09:12.000Z</time>
      </trkpt>
      <trkpt lat="43.52871" lon="5.50954">
        <ele>202</ele>
        <time>2018-02-20T09:09:13.000Z</time>
      </trkpt>
      <trkpt lat="43.52871" lon="5.50954">
        <ele>202</ele>
        <time>2018-02-20T09:09:14.000Z</time>
      </trkpt>
      <trkpt lat="43.52871" lon="5.50954">
        <ele>202</ele>
        <time>2018-02-20T09:09:15.000Z</time>
      </trkpt>
      <trkpt lat="43.52872" lon="5.50953">
        <ele>202</ele>
        <time>2018-02-20T09:09:16.000Z</time>
      </trkpt>
      <trkpt lat="43.52872" lon="5.50953">
        <ele>203</ele>
        <time>2018-02-20T09:09:17.000Z</time>
      </trkpt>
      <trkpt lat="43.52872" lon="5.50952">
        <ele>203</ele>
        <time>2018-02-20T09:09:18.000Z</time>
      </trkpt>
      <trkpt lat="43.52872" lon="5.50952">
        <ele>203</ele>
        <time>2018-02-20T09:09:19.000Z</time>
      </trkpt>
      <trkpt lat="43.52872" lon="5.50951">
        <ele>203</ele>
        <time>2018-02-20T09:09:20.000Z</time>
      </trkpt>
      <trkpt lat="43.52872" lon="5.5095">
        <ele>203</ele>
        <time>2018-02-20T09:09:21.000Z</time>
      </trkpt>
      <trkpt lat="43.52873" lon="5.50949">
        <ele>203</ele>
        <time>2018-02-20T09:09:22.000Z</time>
      </trkpt>
      <trkpt lat="43.52873" lon="5.50949">
        <ele>203</ele>
        <time>2018-02-20T09:09:23.000Z</time>
      </trkpt>
      <trkpt lat="43.52873" lon="5.50948">
        <ele>203</ele>
        <time>2018-02-20T09:09:24.000Z</time>
      </trkpt>
      <trkpt lat="43.52874" lon="5.50948">
        <ele>203</ele>
        <time>2018-02-20T09:09:25.000Z</time>
      </trkpt>
      <trkpt lat="43.52874" lon="5.50948">
        <ele>203</ele>
        <time>2018-02-20T09:09:26.000Z</time>
      </trkpt>
      <trkpt lat="43.52874" lon="5.50948">
        <ele>203</ele>
        <time>2018-02-20T09:09:27.000Z</time>
      </trkpt>
      <trkpt lat="43.52874" lon="5.50948">
        <ele>203</ele>
        <time>2018-02-20T09:09:28.000Z</time>
      </trkpt>
      <trkpt lat="43.52873" lon="5.50948">
        <ele>203</ele>
        <time>2018-02-20T09:09:29.000Z</time>
      </trkpt>
      <trkpt lat="43.52873" lon="5.50948">
        <ele>203</ele>
        <time>2018-02-20T09:09:30.000Z</time>
      </trkpt>
      <trkpt lat="43.52873" lon="5.50948">
        <ele>203</ele>
        <time>2018-02-20T09:09:31.000Z</time>
      </trkpt>
      <trkpt lat="43.52874" lon="5.50947">
        <ele>203</ele>
        <time>2018-02-20T09:09:32.000Z</time>
      </trkpt>
      <trkpt lat="43.52874" lon="5.50947">
        <ele>203</ele>
        <time>2018-02-20T09:09:33.000Z</time>
      </trkpt>
      <trkpt lat="43.52874" lon="5.50947">
        <ele>204</ele>
        <time>2018-02-20T09:09:34.000Z</time>
      </trkpt>
      <trkpt lat="43.52874" lon="5.50946">
        <ele>204</ele>
        <time>2018-02-20T09:09:35.000Z</time>
      </trkpt>
      <trkpt lat="43.52875" lon="5.50946">
        <ele>204</ele>
        <time>2018-02-20T09:09:36.000Z</time>
      </trkpt>
      <trkpt lat="43.52875" lon="5.50945">
        <ele>204</ele>
        <time>2018-02-20T09:09:37.000Z</time>
      </trkpt>
      <trkpt lat="43.52875" lon="5.50945">
        <ele>204</ele>
        <time>2018-02-20T09:09:38.000Z</time>
      </trkpt>
      <trkpt lat="43.52875" lon="5.50945">
        <ele>204</ele>
        <time>2018-02-20T09:09:39.000Z</time>
      </trkpt>
      <trkpt lat="43.52875" lon="5.50945">
        <ele>204</ele>
        <time>2018-02-20T09:09:40.000Z</time>
      </trkpt>
      <trkpt lat="43.52875" lon="5.50945">
        <ele>204</ele>
        <time>2018-02-20T09:09:41.000Z</time>
      </trkpt>
      <trkpt lat="43.52875" lon="5.50945">
        <ele>204</ele>
        <time>2018-02-20T09:09:42.000Z</time>
      </trkpt>
      <trkpt lat="43.52875" lon="5.50945">
        <ele>204</ele>
        <time>2018-02-20T09:09:43.000Z</time>
      </trkpt>
      <trkpt lat="43.52875" lon="5.50944">
        <ele>204</ele>
        <time>2018-02-20T09:09:44.000Z</time>
      </trkpt>
      <trkpt lat="43.52875" lon="5.50944">
        <ele>204</ele>
        <time>2018-02-20T09:09:45.000Z</time>
      </trkpt>
      <trkpt lat="43.52875" lon="5.50944">
        <ele>204</ele>
        <time>2018-02-20T09:09:46.000Z</time>
      </trkpt>
      <trkpt lat="43.52875" lon="5.50944">
        <ele>204</ele>
        <time>2018-02-20T09:09:47.000Z</time>
      </trkpt>
      <trkpt lat="43.52875" lon="5.50944">
        <ele>204</ele>
        <time>2018-02-20T09:09:48.000Z</time>
      </trkpt>
      <trkpt lat="43.52875" lon="5.50944">
        <ele>204</ele>
        <time>2018-02-20T09:09:49.000Z</time>
      </trkpt>
      <trkpt lat="43.52875" lon="5.50944">
        <ele>204</ele>
        <time>2018-02-20T09:09:50.000Z</time>
      </trkpt>
      <trkpt lat="43.52875" lon="5.50944">
        <ele>204</ele>
        <time>2018-02-20T09:09:51.000Z</time>
      </trkpt>
      <trkpt lat="43.52874" lon="5.50944">
        <ele>204</ele>
        <time>2018-02-20T09:09:52.000Z</time>
      </trkpt>
      <trkpt lat="43.52874" lon="5.50944">
        <ele>204</ele>
        <time>2018-02-20T09:09:53.000Z</time>
      </trkpt>
      <trkpt lat="43.52874" lon="5.50944">
        <ele>204</ele>
        <time>2018-02-20T09:09:54.000Z</time>
      </trkpt>
      <trkpt lat="43.52875" lon="5.50944">
        <ele>204</ele>
        <time>2018-02-20T09:09:55.000Z</time>
      </trkpt>
      <trkpt lat="43.52875" lon="5.50945">
        <ele>205</ele>
        <time>2018-02-20T09:09:56.000Z</time>
      </trkpt>
      <trkpt lat="43.52875" lon="5.50945">
        <ele>205</ele>
        <time>2018-02-20T09:09:57.000Z</time>
      </trkpt>
      <trkpt lat="43.52875" lon="5.50945">
        <ele>205</ele>
        <time>2018-02-20T09:09:58.000Z</time>
      </trkpt>
      <trkpt lat="43.52875" lon="5.50945">
        <ele>205</ele>
        <time>2018-02-20T09:09:59.000Z</time>
      </trkpt>
      <trkpt lat="43.52875" lon="5.50945">
        <ele>205</ele>
        <time>2018-02-20T09:10:00.000Z</time>
      </trkpt>
      <trkpt lat="43.52874" lon="5.50945">
        <ele>205</ele>
        <time>2018-02-20T09:10:01.000Z</time>
      </trkpt>
      <trkpt lat="43.52874" lon="5.50945">
        <ele>205</ele>
        <time>2018-02-20T09:10:02.000Z</time>
      </trkpt>
      <trkpt lat="43.52874" lon="5.50945">
        <ele>205</ele>
        <time>2018-02-20T09:10:03.000Z</time>
      </trkpt>
      <trkpt lat="43.52874" lon="5.50945">
        <ele>205</ele>
        <time>2018-02-20T09:10:04.000Z</time>
      </trkpt>
      <trkpt lat="43.52874" lon="5.50945">
        <ele>205</ele>
        <time>2018-02-20T09:10:05.000Z</time>
      </trkpt>
      <trkpt lat="43.52874" lon="5.50945">
        <ele>205</ele>
        <time>2018-02-20T09:10:06.000Z</time>
      </trkpt>
      <trkpt lat="43.52874" lon="5.50945">
        <ele>205</ele>
        <time>2018-02-20T09:10:07.000Z</time>
      </trkpt>
      <trkpt lat="43.52874" lon="5.50945">
        <ele>205</ele>
        <time>2018-02-20T09:10:08.000Z</time>
      </trkpt>
      <trkpt lat="43.52874" lon="5.50945">
        <ele>205</ele>
        <time>2018-02-20T09:10:09.000Z</time>
      </trkpt>
      <trkpt lat="43.52874" lon="5.50945">
        <ele>205</ele>
        <time>2018-02-20T09:10:10.000Z</time>
      </trkpt>
      <trkpt lat="43.52874" lon="5.50945">
        <ele>205</ele>
        <time>2018-02-20T09:10:11.000Z</time>
      </trkpt>
      <trkpt lat="43.52874" lon="5.50945">
        <ele>205</ele>
        <time>2018-02-20T09:10:12.000Z</time>
      </trkpt>
      <trkpt lat="43.52873" lon="5.50945">
        <ele>205</ele>
        <time>2018-02-20T09:10:13.000Z</time>
      </trkpt>
      <trkpt lat="43.52873" lon="5.50945">
        <ele>205</ele>
        <time>2018-02-20T09:10:14.000Z</time>
      </trkpt>
      <trkpt lat="43.52873" lon="5.50945">
        <ele>205</ele>
        <time>2018-02-20T09:10:15.000Z</time>
      </trkpt>
      <trkpt lat="43.52873" lon="5.50945">
        <ele>205</ele>
        <time>2018-02-20T09:10:16.000Z</time>
      </trkpt>
      <trkpt lat="43.52873" lon="5.50945">
        <ele>205</ele>
        <time>2018-02-20T09:10:17.000Z</time>
      </trkpt>
      <trkpt lat="43.52874" lon="5.50945">
        <ele>205</ele>
        <time>2018-02-20T09:10:18.000Z</time>
      </trkpt>
      <trkpt lat="43.52874" lon="5.50945">
        <ele>205</ele>
        <time>2018-02-20T09:10:19.000Z</time>
      </trkpt>
      <trkpt lat="43.52874" lon="5.50944">
        <ele>205</ele>
        <time>2018-02-20T09:10:20.000Z</time>
      </trkpt>
      <trkpt lat="43.52876" lon="5.50943">
        <ele>205</ele>
        <time>2018-02-20T09:10:21.000Z</time>
      </trkpt>
      <trkpt lat="43.52876" lon="5.50943">
        <ele>205</ele>
        <time>2018-02-20T09:10:22.000Z</time>
      </trkpt>
      <trkpt lat="43.52876" lon="5.50943">
        <ele>205</ele>
        <time>2018-02-20T09:10:23.000Z</time>
      </trkpt>
      <trkpt lat="43.52876" lon="5.50943">
        <ele>205</ele>
        <time>2018-02-20T09:10:24.000Z</time>
      </trkpt>
      <trkpt lat="43.52876" lon="5.50942">
        <ele>206</ele>
        <time>2018-02-20T09:10:25.000Z</time>
      </trkpt>
      <trkpt lat="43.52876" lon="5.50942">
        <ele>206</ele>
        <time>2018-02-20T09:10:26.000Z</time>
      </trkpt>
      <trkpt lat="43.52876" lon="5.50942">
        <ele>206</ele>
        <time>2018-02-20T09:10:27.000Z</time>
      </trkpt>
      <trkpt lat="43.52876" lon="5.50942">
        <ele>206</ele>
        <time>2018-02-20T09:10:28.000Z</time>
      </trkpt>
      <trkpt lat="43.52876" lon="5.50942">
        <ele>206</ele>
        <time>2018-02-20T09:10:29.000Z</time>
      </trkpt>
      <trkpt lat="43.52876" lon="5.50942">
        <ele>206</ele>
        <time>2018-02-20T09:10:30.000Z</time>
      </trkpt>
      <trkpt lat="43.52876" lon="5.50942">
        <ele>206</ele>
        <time>2018-02-20T09:10:31.000Z</time>
      </trkpt>
      <trkpt lat="43.52875" lon="5.50942">
        <ele>206</ele>
        <time>2018-02-20T09:10:32.000Z</time>
      </trkpt>
      <trkpt lat="43.52875" lon="5.50941">
        <ele>206</ele>
        <time>2018-02-20T09:10:33.000Z</time>
      </trkpt>
      <trkpt lat="43.52875" lon="5.5094">
        <ele>206</ele>
        <time>2018-02-20T09:10:34.000Z</time>
      </trkpt>
      <trkpt lat="43.52875" lon="5.5094">
        <ele>206</ele>
        <time>2018-02-20T09:10:35.000Z</time>
      </trkpt>
      <trkpt lat="43.52875" lon="5.50939">
        <ele>206</ele>
        <time>2018-02-20T09:10:36.000Z</time>
      </trkpt>
      <trkpt lat="43.52874" lon="5.50938">
        <ele>206</ele>
        <time>2018-02-20T09:10:37.000Z</time>
      </trkpt>
      <trkpt lat="43.52874" lon="5.50937">
        <ele>206</ele>
        <time>2018-02-20T09:10:38.000Z</time>
      </trkpt>
      <trkpt lat="43.52874" lon="5.50936">
        <ele>206</ele>
        <time>2018-02-20T09:10:39.000Z</time>
      </trkpt>
      <trkpt lat="43.52874" lon="5.50935">
        <ele>207</ele>
        <time>2018-02-20T09:10:40.000Z</time>
      </trkpt>
      <trkpt lat="43.52874" lon="5.50934">
        <ele>207</ele>
        <time>2018-02-20T09:10:41.000Z</time>
      </trkpt>
      <trkpt lat="43.52875" lon="5.50934">
        <ele>207</ele>
        <time>2018-02-20T09:10:42.000Z</time>
      </trkpt>
      <trkpt lat="43.52876" lon="5.50934">
        <ele>207</ele>
        <time>2018-02-20T09:10:43.000Z</time>
      </trkpt>
      <trkpt lat="43.52876" lon="5.50934">
        <ele>207</ele>
        <time>2018-02-20T09:10:44.000Z</time>
      </trkpt>
      <trkpt lat="43.52876" lon="5.50934">
        <ele>208</ele>
        <time>2018-02-20T09:10:45.000Z</time>
      </trkpt>
      <trkpt lat="43.52876" lon="5.50933">
        <ele>208</ele>
        <time>2018-02-20T09:10:46.000Z</time>
      </trkpt>
      <trkpt lat="43.52876" lon="5.50933">
        <ele>208</ele>
        <time>2018-02-20T09:10:47.000Z</time>
      </trkpt>
      <trkpt lat="43.52876" lon="5.50932">
        <ele>208</ele>
        <time>2018-02-20T09:10:48.000Z</time>
      </trkpt>
      <trkpt lat="43.52876" lon="5.50931">
        <ele>208</ele>
        <time>2018-02-20T09:10:49.000Z</time>
      </trkpt>
      <trkpt lat="43.52876" lon="5.5093">
        <ele>208</ele>
        <time>2018-02-20T09:10:50.000Z</time>
      </trkpt>
      <trkpt lat="43.52876" lon="5.50929">
        <ele>208</ele>
        <time>2018-02-20T09:10:51.000Z</time>
      </trkpt>
      <trkpt lat="43.52876" lon="5.50929">
        <ele>208</ele>
        <time>2018-02-20T09:10:52.000Z</time>
      </trkpt>
      <trkpt lat="43.52876" lon="5.50929">
        <ele>208</ele>
        <time>2018-02-20T09:10:53.000Z</time>
      </trkpt>
      <trkpt lat="43.52876" lon="5.50929">
        <ele>208</ele>
        <time>2018-02-20T09:10:54.000Z</time>
      </trkpt>
      <trkpt lat="43.52876" lon="5.50929">
        <ele>208</ele>
        <time>2018-02-20T09:10:55.000Z</time>
      </trkpt>
      <trkpt lat="43.52876" lon="5.50929">
        <ele>208</ele>
        <time>2018-02-20T09:10:56.000Z</time>
      </trkpt>
      <trkpt lat="43.52876" lon="5.50929">
        <ele>208</ele>
        <time>2018-02-20T09:10:57.000Z</time>
      </trkpt>
      <trkpt lat="43.52876" lon="5.50929">
        <ele>208</ele>
        <time>2018-02-20T09:10:58.000Z</time>
      </trkpt>
      <trkpt lat="43.52876" lon="5.50929">
        <ele>208</ele>
        <time>2018-02-20T09:10:59.000Z</time>
      </trkpt>
      <trkpt lat="43.52876" lon="5.50929">
        <ele>208</ele>
        <time>2018-02-20T09:11:00.000Z</time>
      </trkpt>
      <trkpt lat="43.52876" lon="5.50929">
        <ele>208</ele>
        <time>2018-02-20T09:11:01.000Z</time>
      </trkpt>
      <trkpt lat="43.52876" lon="5.50929">
        <ele>208</ele>
        <time>2018-02-20T09:11:02.000Z</time>
      </trkpt>
      <trkpt lat="43.52876" lon="5.50929">
        <ele>208</ele>
        <time>2018-02-20T09:11:03.000Z</time>
      </trkpt>
      <trkpt lat="43.52877" lon="5.50929">
        <ele>208</ele>
        <time>2018-02-20T09:11:04.000Z</time>
      </trkpt>
      <trkpt lat="43.52877" lon="5.50929">
        <ele>209</ele>
        <time>2018-02-20T09:11:05.000Z</time>
      </trkpt>
      <trkpt lat="43.52877" lon="5.50929">
        <ele>209</ele>
        <time>2018-02-20T09:11:06.000Z</time>
      </trkpt>
      <trkpt lat="43.52877" lon="5.50928">
        <ele>209</ele>
        <time>2018-02-20T09:11:07.000Z</time>
      </trkpt>
      <trkpt lat="43.52877" lon="5.50928">
        <ele>209</ele>
        <time>2018-02-20T09:11:08.000Z</time>
      </trkpt>
      <trkpt lat="43.52877" lon="5.50928">
        <ele>209</ele>
        <time>2018-02-20T09:11:09.000Z</time>
      </trkpt>
      <trkpt lat="43.52877" lon="5.50928">
        <ele>209</ele>
        <time>2018-02-20T09:11:10.000Z</time>
      </trkpt>
      <trkpt lat="43.52877" lon="5.50928">
        <ele>209</ele>
        <time>2018-02-20T09:11:11.000Z</time>
      </trkpt>
      <trkpt lat="43.52877" lon="5.50928">
        <ele>209</ele>
        <time>2018-02-20T09:11:12.000Z</time>
      </trkpt>
      <trkpt lat="43.52877" lon="5.50928">
        <ele>209</ele>
        <time>2018-02-20T09:11:13.000Z</time>
      </trkpt>
      <trkpt lat="43.52877" lon="5.50928">
        <ele>209</ele>
        <time>2018-02-20T09:11:14.000Z</time>
      </trkpt>
      <trkpt lat="43.52877" lon="5.50928">
        <ele>209</ele>
        <time>2018-02-20T09:11:15.000Z</time>
      </trkpt>
      <trkpt lat="43.52877" lon="5.50928">
        <ele>209</ele>
        <time>2018-02-20T09:11:16.000Z</time>
      </trkpt>
      <trkpt lat="43.52877" lon="5.50928">
        <ele>210</ele>
        <time>2018-02-20T09:11:17.000Z</time>
      </trkpt>
      <trkpt lat="43.52877" lon="5.50928">
        <ele>210</ele>
        <time>2018-02-20T09:11:18.000Z</time>
      </trkpt>
      <trkpt lat="43.52877" lon="5.50928">
        <ele>210</ele>
        <time>2018-02-20T09:11:19.000Z</time>
      </trkpt>
      <trkpt lat="43.52877" lon="5.50928">
        <ele>210</ele>
        <time>2018-02-20T09:11:20.000Z</time>
      </trkpt>
      <trkpt lat="43.52877" lon="5.50928">
        <ele>210</ele>
        <time>2018-02-20T09:11:21.000Z</time>
      </trkpt>
      <trkpt lat="43.52877" lon="5.50928">
        <ele>210</ele>
        <time>2018-02-20T09:11:22.000Z</time>
      </trkpt>
      <trkpt lat="43.52877" lon="5.50928">
        <ele>210</ele>
        <time>2018-02-20T09:11:23.000Z</time>
      </trkpt>
      <trkpt lat="43.52876" lon="5.50927">
        <ele>210</ele>
        <time>2018-02-20T09:11:24.000Z</time>
      </trkpt>
      <trkpt lat="43.52876" lon="5.50927">
        <ele>210</ele>
        <time>2018-02-20T09:11:25.000Z</time>
      </trkpt>
      <trkpt lat="43.52875" lon="5.50926">
        <ele>210</ele>
        <time>2018-02-20T09:11:26.000Z</time>
      </trkpt>
      <trkpt lat="43.52874" lon="5.50925">
        <ele>211</ele>
        <time>2018-02-20T09:11:27.000Z</time>
      </trkpt>
      <trkpt lat="43.52874" lon="5.50925">
        <ele>211</ele>
        <time>2018-02-20T09:11:28.000Z</time>
      </trkpt>
      <trkpt lat="43.52873" lon="5.50925">
        <ele>211</ele>
        <time>2018-02-20T09:11:29.000Z</time>
      </trkpt>
      <trkpt lat="43.52873" lon="5.50924">
        <ele>211</ele>
        <time>2018-02-20T09:11:30.000Z</time>
      </trkpt>
      <trkpt lat="43.52872" lon="5.50924">
        <ele>212</ele>
        <time>2018-02-20T09:11:31.000Z</time>
      </trkpt>
      <trkpt lat="43.52872" lon="5.50923">
        <ele>212</ele>
        <time>2018-02-20T09:11:32.000Z</time>
      </trkpt>
      <trkpt lat="43.52871" lon="5.50923">
        <ele>212</ele>
        <time>2018-02-20T09:11:33.000Z</time>
      </trkpt>
      <trkpt lat="43.52871" lon="5.50922">
        <ele>212</ele>
        <time>2018-02-20T09:11:34.000Z</time>
      </trkpt>
      <trkpt lat="43.52871" lon="5.50922">
        <ele>213</ele>
        <time>2018-02-20T09:11:35.000Z</time>
      </trkpt>
      <trkpt lat="43.5287" lon="5.50921">
        <ele>213</ele>
        <time>2018-02-20T09:11:36.000Z</time>
      </trkpt>
      <trkpt lat="43.52869" lon="5.50921">
        <ele>213</ele>
        <time>2018-02-20T09:11:37.000Z</time>
      </trkpt>
      <trkpt lat="43.52869" lon="5.5092">
        <ele>213</ele>
        <time>2018-02-20T09:11:38.000Z</time>
      </trkpt>
      <trkpt lat="43.52868" lon="5.5092">
        <ele>214</ele>
        <time>2018-02-20T09:11:39.000Z</time>
      </trkpt>
      <trkpt lat="43.52868" lon="5.50919">
        <ele>214</ele>
        <time>2018-02-20T09:11:40.000Z</time>
      </trkpt>
      <trkpt lat="43.52867" lon="5.50918">
        <ele>214</ele>
        <time>2018-02-20T09:11:41.000Z</time>
      </trkpt>
      <trkpt lat="43.52867" lon="5.50918">
        <ele>214</ele>
        <time>2018-02-20T09:11:42.000Z</time>
      </trkpt>
      <trkpt lat="43.52867" lon="5.50917">
        <ele>215</ele>
        <time>2018-02-20T09:11:43.000Z</time>
      </trkpt>
      <trkpt lat="43.52867" lon="5.50916">
        <ele>215</ele>
        <time>2018-02-20T09:11:44.000Z</time>
      </trkpt>
      <trkpt lat="43.52867" lon="5.50915">
        <ele>215</ele>
        <time>2018-02-20T09:11:45.000Z</time>
      </trkpt>
      <trkpt lat="43.52867" lon="5.50915">
        <ele>215</ele>
        <time>2018-02-20T09:11:46.000Z</time>
      </trkpt>
      <trkpt lat="43.52866" lon="5.50914">
        <ele>216</ele>
        <time>2018-02-20T09:11:47.000Z</time>
      </trkpt>
      <trkpt lat="43.52866" lon="5.50913">
        <ele>216</ele>
        <time>2018-02-20T09:11:48.000Z</time>
      </trkpt>
      <trkpt lat="43.52866" lon="5.50912">
        <ele>216</ele>
        <time>2018-02-20T09:11:49.000Z</time>
      </trkpt>
      <trkpt lat="43.52866" lon="5.50912">
        <ele>216</ele>
        <time>2018-02-20T09:11:50.000Z</time>
      </trkpt>
      <trkpt lat="43.52865" lon="5.50911">
        <ele>216</ele>
        <time>2018-02-20T09:11:51.000Z</time>
      </trkpt>
      <trkpt lat="43.52865" lon="5.50911">
        <ele>217</ele>
        <time>2018-02-20T09:11:52.000Z</time>
      </trkpt>
      <trkpt lat="43.52865" lon="5.50911">
        <ele>217</ele>
        <time>2018-02-20T09:11:53.000Z</time>
      </trkpt>
      <trkpt lat="43.52864" lon="5.5091">
        <ele>217</ele>
        <time>2018-02-20T09:11:54.000Z</time>
      </trkpt>
      <trkpt lat="43.52864" lon="5.5091">
        <ele>217</ele>
        <time>2018-02-20T09:11:55.000Z</time>
      </trkpt>
      <trkpt lat="43.52864" lon="5.5091">
        <ele>218</ele>
        <time>2018-02-20T09:11:56.000Z</time>
      </trkpt>
      <trkpt lat="43.52863" lon="5.50909">
        <ele>218</ele>
        <time>2018-02-20T09:11:57.000Z</time>
      </trkpt>
      <trkpt lat="43.52863" lon="5.50909">
        <ele>218</ele>
        <time>2018-02-20T09:11:58.000Z</time>
      </trkpt>
      <trkpt lat="43.52862" lon="5.50908">
        <ele>218</ele>
        <time>2018-02-20T09:11:59.000Z</time>
      </trkpt>
      <trkpt lat="43.52862" lon="5.50908">
        <ele>219</ele>
        <time>2018-02-20T09:12:00.000Z</time>
      </trkpt>
      <trkpt lat="43.52861" lon="5.50907">
        <ele>219</ele>
        <time>2018-02-20T09:12:01.000Z</time>
      </trkpt>
      <trkpt lat="43.52861" lon="5.50907">
        <ele>219</ele>
        <time>2018-02-20T09:12:02.000Z</time>
      </trkpt>
      <trkpt lat="43.5286" lon="5.50907">
        <ele>219</ele>
        <time>2018-02-20T09:12:03.000Z</time>
      </trkpt>
      <trkpt lat="43.52859" lon="5.50907">
        <ele>220</ele>
        <time>2018-02-20T09:12:04.000Z</time>
      </trkpt>
      <trkpt lat="43.52859" lon="5.50907">
        <ele>220</ele>
        <time>2018-02-20T09:12:05.000Z</time>
      </trkpt>
      <trkpt lat="43.52858" lon="5.50907">
        <ele>220</ele>
        <time>2018-02-20T09:12:06.000Z</time>
      </trkpt>
      <trkpt lat="43.52858" lon="5.50907">
        <ele>220</ele>
        <time>2018-02-20T09:12:07.000Z</time>
      </trkpt>
      <trkpt lat="43.52857" lon="5.50906">
        <ele>221</ele>
        <time>2018-02-20T09:12:08.000Z</time>
      </trkpt>
      <trkpt lat="43.52857" lon="5.50905">
        <ele>221</ele>
        <time>2018-02-20T09:12:09.000Z</time>
      </trkpt>
      <trkpt lat="43.52857" lon="5.50904">
        <ele>221</ele>
        <time>2018-02-20T09:12:10.000Z</time>
      </trkpt>
      <trkpt lat="43.52857" lon="5.50904">
        <ele>221</ele>
        <time>2018-02-20T09:12:11.000Z</time>
      </trkpt>
      <trkpt lat="43.52856" lon="5.50903">
        <ele>222</ele>
        <time>2018-02-20T09:12:12.000Z</time>
      </trkpt>
      <trkpt lat="43.52856" lon="5.50902">
        <ele>222</ele>
        <time>2018-02-20T09:12:13.000Z</time>
      </trkpt>
      <trkpt lat="43.52856" lon="5.50902">
        <ele>222</ele>
        <time>2018-02-20T09:12:14.000Z</time>
      </trkpt>
      <trkpt lat="43.52855" lon="5.50901">
        <ele>222</ele>
        <time>2018-02-20T09:12:15.000Z</time>
      </trkpt>
      <trkpt lat="43.52855" lon="5.509">
        <ele>222</ele>
        <time>2018-02-20T09:12:16.000Z</time>
      </trkpt>
      <trkpt lat="43.52855" lon="5.50899">
        <ele>223</ele>
        <time>2018-02-20T09:12:17.000Z</time>
      </trkpt>
      <trkpt lat="43.52855" lon="5.50899">
        <ele>223</ele>
        <time>2018-02-20T09:12:18.000Z</time>
      </trkpt>
      <trkpt lat="43.52855" lon="5.50898">
        <ele>223</ele>
        <time>2018-02-20T09:12:19.000Z</time>
      </trkpt>
      <trkpt lat="43.52855" lon="5.50898">
        <ele>223</ele>
        <time>2018-02-20T09:12:20.000Z</time>
      </trkpt>
      <trkpt lat="43.52855" lon="5.50897">
        <ele>223</ele>
        <time>2018-02-20T09:12:21.000Z</time>
      </trkpt>
      <trkpt lat="43.52855" lon="5.50897">
        <ele>223</ele>
        <time>2018-02-20T09:12:22.000Z</time>
      </trkpt>
      <trkpt lat="43.52854" lon="5.50897">
        <ele>223</ele>
        <time>2018-02-20T09:12:23.000Z</time>
      </trkpt>
      <trkpt lat="43.52854" lon="5.50897">
        <ele>224</ele>
        <time>2018-02-20T09:12:24.000Z</time>
      </trkpt>
      <trkpt lat="43.52853" lon="5.50896">
        <ele>224</ele>
        <time>2018-02-20T09:12:25.000Z</time>
      </trkpt>
      <trkpt lat="43.52853" lon="5.50896">
        <ele>224</ele>
        <time>2018-02-20T09:12:26.000Z</time>
      </trkpt>
      <trkpt lat="43.52852" lon="5.50896">
        <ele>224</ele>
        <time>2018-02-20T09:12:27.000Z</time>
      </trkpt>
      <trkpt lat="43.52852" lon="5.50896">
        <ele>224</ele>
        <time>2018-02-20T09:12:28.000Z</time>
      </trkpt>
      <trkpt lat="43.52851" lon="5.50895">
        <ele>224</ele>
        <time>2018-02-20T09:12:29.000Z</time>
      </trkpt>
      <trkpt lat="43.52851" lon="5.50895">
        <ele>224</ele>
        <time>2018-02-20T09:12:30.000Z</time>
      </trkpt>
      <trkpt lat="43.52851" lon="5.50894">
        <ele>224</ele>
        <time>2018-02-20T09:12:31.000Z</time>
      </trkpt>
      <trkpt lat="43.52851" lon="5.50894">
        <ele>224</ele>
        <time>2018-02-20T09:12:32.000Z</time>
      </trkpt>
      <trkpt lat="43.52851" lon="5.50893">
        <ele>224</ele>
        <time>2018-02-20T09:12:33.000Z</time>
      </trkpt>
      <trkpt lat="43.5285" lon="5.50893">
        <ele>224</ele>
        <time>2018-02-20T09:12:34.000Z</time>
      </trkpt>
      <trkpt lat="43.5285" lon="5.50892">
        <ele>225</ele>
        <time>2018-02-20T09:12:35.000Z</time>
      </trkpt>
      <trkpt lat="43.52849" lon="5.50891">
        <ele>225</ele>
        <time>2018-02-20T09:12:36.000Z</time>
      </trkpt>
      <trkpt lat="43.52849" lon="5.50891">
        <ele>225</ele>
        <time>2018-02-20T09:12:37.000Z</time>
      </trkpt>
      <trkpt lat="43.52849" lon="5.5089">
        <ele>225</ele>
        <time>2018-02-20T09:12:38.000Z</time>
      </trkpt>
      <trkpt lat="43.52848" lon="5.5089">
        <ele>225</ele>
        <time>2018-02-20T09:12:39.000Z</time>
      </trkpt>
      <trkpt lat="43.52848" lon="5.50889">
        <ele>225</ele>
        <time>2018-02-20T09:12:40.000Z</time>
      </trkpt>
      <trkpt lat="43.52848" lon="5.50889">
        <ele>225</ele>
        <time>2018-02-20T09:12:41.000Z</time>
      </trkpt>
      <trkpt lat="43.52847" lon="5.50888">
        <ele>225</ele>
        <time>2018-02-20T09:12:42.000Z</time>
      </trkpt>
      <trkpt lat="43.52847" lon="5.50888">
        <ele>225</ele>
        <time>2018-02-20T09:12:43.000Z</time>
      </trkpt>
      <trkpt lat="43.52847" lon="5.50888">
        <ele>225</ele>
        <time>2018-02-20T09:12:44.000Z</time>
      </trkpt>
      <trkpt lat="43.52847" lon="5.50888">
        <ele>225</ele>
        <time>2018-02-20T09:12:45.000Z</time>
      </trkpt>
      <trkpt lat="43.52847" lon="5.50887">
        <ele>225</ele>
        <time>2018-02-20T09:12:46.000Z</time>
      </trkpt>
      <trkpt lat="43.52847" lon="5.50887">
        <ele>225</ele>
        <time>2018-02-20T09:12:47.000Z</time>
      </trkpt>
      <trkpt lat="43.52847" lon="5.50887">
        <ele>225</ele>
        <time>2018-02-20T09:12:48.000Z</time>
      </trkpt>
      <trkpt lat="43.52847" lon="5.50887">
        <ele>225</ele>
        <time>2018-02-20T09:12:49.000Z</time>
      </trkpt>
      <trkpt lat="43.52847" lon="5.50887">
        <ele>225</ele>
        <time>2018-02-20T09:12:50.000Z</time>
      </trkpt>
      <trkpt lat="43.52846" lon="5.50887">
        <ele>225</ele>
        <time>2018-02-20T09:12:51.000Z</time>
      </trkpt>
      <trkpt lat="43.52846" lon="5.50886">
        <ele>225</ele>
        <time>2018-02-20T09:12:52.000Z</time>
      </trkpt>
      <trkpt lat="43.52846" lon="5.50886">
        <ele>225</ele>
        <time>2018-02-20T09:12:53.000Z</time>
      </trkpt>
      <trkpt lat="43.52846" lon="5.50886">
        <ele>225</ele>
        <time>2018-02-20T09:12:54.000Z</time>
      </trkpt>
      <trkpt lat="43.52846" lon="5.50886">
        <ele>225</ele>
        <time>2018-02-20T09:12:55.000Z</time>
      </trkpt>
      <trkpt lat="43.52847" lon="5.50886">
        <ele>225</ele>
        <time>2018-02-20T09:12:56.000Z</time>
      </trkpt>
      <trkpt lat="43.52847" lon="5.50886">
        <ele>225</ele>
        <time>2018-02-20T09:12:57.000Z</time>
      </trkpt>
      <trkpt lat="43.52847" lon="5.50886">
        <ele>225</ele>
        <time>2018-02-20T09:12:58.000Z</time>
      </trkpt>
      <trkpt lat="43.52847" lon="5.50886">
        <ele>225</ele>
        <time>2018-02-20T09:12:59.000Z</time>
      </trkpt>
      <trkpt lat="43.52846" lon="5.50886">
        <ele>225</ele>
        <time>2018-02-20T09:13:00.000Z</time>
      </trkpt>
      <trkpt lat="43.52846" lon="5.50885">
        <ele>225</ele>
        <time>2018-02-20T09:13:01.000Z</time>
      </trkpt>
      <trkpt lat="43.52846" lon="5.50885">
        <ele>225</ele>
        <time>2018-02-20T09:13:02.000Z</time>
      </trkpt>
      <trkpt lat="43.52845" lon="5.50884">
        <ele>225</ele>
        <time>2018-02-20T09:13:03.000Z</time>
      </trkpt>
      <trkpt lat="43.52845" lon="5.50884">
        <ele>225</ele>
        <time>2018-02-20T09:13:04.000Z</time>
      </trkpt>
      <trkpt lat="43.52845" lon="5.50883">
        <ele>225</ele>
        <time>2018-02-20T09:13:05.000Z</time>
      </trkpt>
      <trkpt lat="43.52845" lon="5.50883">
        <ele>225</ele>
        <time>2018-02-20T09:13:06.000Z</time>
      </trkpt>
      <trkpt lat="43.52845" lon="5.50883">
        <ele>225</ele>
        <time>2018-02-20T09:13:07.000Z</time>
      </trkpt>
      <trkpt lat="43.52845" lon="5.50883">
        <ele>225</ele>
        <time>2018-02-20T09:13:08.000Z</time>
      </trkpt>
      <trkpt lat="43.52844" lon="5.50883">
        <ele>225</ele>
        <time>2018-02-20T09:13:09.000Z</time>
      </trkpt>
      <trkpt lat="43.52844" lon="5.50883">
        <ele>225</ele>
        <time>2018-02-20T09:13:10.000Z</time>
      </trkpt>
      <trkpt lat="43.52843" lon="5.50882">
        <ele>225</ele>
        <time>2018-02-20T09:13:11.000Z</time>
      </trkpt>
      <trkpt lat="43.52843" lon="5.50882">
        <ele>225</ele>
        <time>2018-02-20T09:13:12.000Z</time>
      </trkpt>
      <trkpt lat="43.52842" lon="5.50881">
        <ele>226</ele>
        <time>2018-02-20T09:13:13.000Z</time>
      </trkpt>
      <trkpt lat="43.52841" lon="5.5088">
        <ele>226</ele>
        <time>2018-02-20T09:13:14.000Z</time>
      </trkpt>
      <trkpt lat="43.52841" lon="5.5088">
        <ele>226</ele>
        <time>2018-02-20T09:13:15.000Z</time>
      </trkpt>
      <trkpt lat="43.5284" lon="5.5088">
        <ele>226</ele>
        <time>2018-02-20T09:13:16.000Z</time>
      </trkpt>
      <trkpt lat="43.5284" lon="5.5088">
        <ele>226</ele>
        <time>2018-02-20T09:13:17.000Z</time>
      </trkpt>
      <trkpt lat="43.52839" lon="5.50879">
        <ele>226</ele>
        <time>2018-02-20T09:13:18.000Z</time>
      </trkpt>
      <trkpt lat="43.52839" lon="5.50879">
        <ele>226</ele>
        <time>2018-02-20T09:13:19.000Z</time>
      </trkpt>
      <trkpt lat="43.52839" lon="5.50879">
        <ele>226</ele>
        <time>2018-02-20T09:13:20.000Z</time>
      </trkpt>
      <trkpt lat="43.52838" lon="5.50878">
        <ele>226</ele>
        <time>2018-02-20T09:13:21.000Z</time>
      </trkpt>
      <trkpt lat="43.52838" lon="5.50878">
        <ele>227</ele>
        <time>2018-02-20T09:13:22.000Z</time>
      </trkpt>
      <trkpt lat="43.52837" lon="5.50878">
        <ele>227</ele>
        <time>2018-02-20T09:13:23.000Z</time>
      </trkpt>
      <trkpt lat="43.52837" lon="5.50878">
        <ele>227</ele>
        <time>2018-02-20T09:13:24.000Z</time>
      </trkpt>
      <trkpt lat="43.52836" lon="5.50878">
        <ele>227</ele>
        <time>2018-02-20T09:13:25.000Z</time>
      </trkpt>
      <trkpt lat="43.52836" lon="5.50877">
        <ele>227</ele>
        <time>2018-02-20T09:13:26.000Z</time>
      </trkpt>
      <trkpt lat="43.52835" lon="5.50877">
        <ele>227</ele>
        <time>2018-02-20T09:13:27.000Z</time>
      </trkpt>
      <trkpt lat="43.52835" lon="5.50876">
        <ele>227</ele>
        <time>2018-02-20T09:13:28.000Z</time>
      </trkpt>
      <trkpt lat="43.52835" lon="5.50876">
        <ele>228</ele>
        <time>2018-02-20T09:13:29.000Z</time>
      </trkpt>
      <trkpt lat="43.52835" lon="5.50876">
        <ele>228</ele>
        <time>2018-02-20T09:13:30.000Z</time>
      </trkpt>
      <trkpt lat="43.52835" lon="5.50875">
        <ele>228</ele>
        <time>2018-02-20T09:13:31.000Z</time>
      </trkpt>
      <trkpt lat="43.52834" lon="5.50875">
        <ele>228</ele>
        <time>2018-02-20T09:13:32.000Z</time>
      </trkpt>
      <trkpt lat="43.52833" lon="5.50875">
        <ele>228</ele>
        <time>2018-02-20T09:13:33.000Z</time>
      </trkpt>
      <trkpt lat="43.52833" lon="5.50875">
        <ele>228</ele>
        <time>2018-02-20T09:13:34.000Z</time>
      </trkpt>
      <trkpt lat="43.52832" lon="5.50875">
        <ele>228</ele>
        <time>2018-02-20T09:13:35.000Z</time>
      </trkpt>
      <trkpt lat="43.52832" lon="5.50875">
        <ele>229</ele>
        <time>2018-02-20T09:13:36.000Z</time>
      </trkpt>
      <trkpt lat="43.52831" lon="5.50875">
        <ele>229</ele>
        <time>2018-02-20T09:13:37.000Z</time>
      </trkpt>
      <trkpt lat="43.52831" lon="5.50875">
        <ele>229</ele>
        <time>2018-02-20T09:13:38.000Z</time>
      </trkpt>
      <trkpt lat="43.52831" lon="5.50875">
        <ele>229</ele>
        <time>2018-02-20T09:13:39.000Z</time>
      </trkpt>
      <trkpt lat="43.52831" lon="5.50875">
        <ele>229</ele>
        <time>2018-02-20T09:13:40.000Z</time>
      </trkpt>
      <trkpt lat="43.52831" lon="5.50875">
        <ele>229</ele>
        <time>2018-02-20T09:13:41.000Z</time>
      </trkpt>
      <trkpt lat="43.5283" lon="5.50874">
        <ele>230</ele>
        <time>2018-02-20T09:13:42.000Z</time>
      </trkpt>
      <trkpt lat="43.5283" lon="5.50874">
        <ele>230</ele>
        <time>2018-02-20T09:13:43.000Z</time>
      </trkpt>
      <trkpt lat="43.5283" lon="5.50874">
        <ele>230</ele>
        <time>2018-02-20T09:13:44.000Z</time>
      </trkpt>
      <trkpt lat="43.52829" lon="5.50874">
        <ele>230</ele>
        <time>2018-02-20T09:13:45.000Z</time>
      </trkpt>
      <trkpt lat="43.52829" lon="5.50874">
        <ele>230</ele>
        <time>2018-02-20T09:13:46.000Z</time>
      </trkpt>
      <trkpt lat="43.52829" lon="5.50874">
        <ele>230</ele>
        <time>2018-02-20T09:13:47.000Z</time>
      </trkpt>
      <trkpt lat="43.52829" lon="5.50874">
        <ele>231</ele>
        <time>2018-02-20T09:13:48.000Z</time>
      </trkpt>
      <trkpt lat="43.52828" lon="5.50873">
        <ele>231</ele>
        <time>2018-02-20T09:13:49.000Z</time>
      </trkpt>
      <trkpt lat="43.52828" lon="5.50873">
        <ele>231</ele>
        <time>2018-02-20T09:13:50.000Z</time>
      </trkpt>
      <trkpt lat="43.52828" lon="5.50872">
        <ele>231</ele>
        <time>2018-02-20T09:13:51.000Z</time>
      </trkpt>
      <trkpt lat="43.52828" lon="5.50871">
        <ele>231</ele>
        <time>2018-02-20T09:13:52.000Z</time>
      </trkpt>
      <trkpt lat="43.52828" lon="5.50871">
        <ele>232</ele>
        <time>2018-02-20T09:13:53.000Z</time>
      </trkpt>
      <trkpt lat="43.52828" lon="5.5087">
        <ele>232</ele>
        <time>2018-02-20T09:13:54.000Z</time>
      </trkpt>
      <trkpt lat="43.52828" lon="5.5087">
        <ele>232</ele>
        <time>2018-02-20T09:13:55.000Z</time>
      </trkpt>
      <trkpt lat="43.52828" lon="5.50869">
        <ele>232</ele>
        <time>2018-02-20T09:13:56.000Z</time>
      </trkpt>
      <trkpt lat="43.52828" lon="5.50869">
        <ele>232</ele>
        <time>2018-02-20T09:13:57.000Z</time>
      </trkpt>
      <trkpt lat="43.52828" lon="5.50869">
        <ele>232</ele>
        <time>2018-02-20T09:13:58.000Z</time>
      </trkpt>
      <trkpt lat="43.52828" lon="5.50869">
        <ele>232</ele>
        <time>2018-02-20T09:13:59.000Z</time>
      </trkpt>
      <trkpt lat="43.52828" lon="5.50869">
        <ele>232</ele>
        <time>2018-02-20T09:14:00.000Z</time>
      </trkpt>
      <trkpt lat="43.52828" lon="5.50869">
        <ele>232</ele>
        <time>2018-02-20T09:14:01.000Z</time>
      </trkpt>
      <trkpt lat="43.52828" lon="5.50868">
        <ele>233</ele>
        <time>2018-02-20T09:14:02.000Z</time>
      </trkpt>
      <trkpt lat="43.52829" lon="5.50868">
        <ele>233</ele>
        <time>2018-02-20T09:14:03.000Z</time>
      </trkpt>
      <trkpt lat="43.52829" lon="5.50868">
        <ele>233</ele>
        <time>2018-02-20T09:14:04.000Z</time>
      </trkpt>
      <trkpt lat="43.52829" lon="5.50868">
        <ele>233</ele>
        <time>2018-02-20T09:14:05.000Z</time>
      </trkpt>
      <trkpt lat="43.52829" lon="5.50868">
        <ele>233</ele>
        <time>2018-02-20T09:14:06.000Z</time>
      </trkpt>
      <trkpt lat="43.52829" lon="5.50867">
        <ele>233</ele>
        <time>2018-02-20T09:14:07.000Z</time>
      </trkpt>
      <trkpt lat="43.52829" lon="5.50867">
        <ele>233</ele>
        <time>2018-02-20T09:14:08.000Z</time>
      </trkpt>
      <trkpt lat="43.52828" lon="5.50867">
        <ele>234</ele>
        <time>2018-02-20T09:14:09.000Z</time>
      </trkpt>
      <trkpt lat="43.52828" lon="5.50867">
        <ele>234</ele>
        <time>2018-02-20T09:14:10.000Z</time>
      </trkpt>
      <trkpt lat="43.52828" lon="5.50866">
        <ele>234</ele>
        <time>2018-02-20T09:14:11.000Z</time>
      </trkpt>
      <trkpt lat="43.52828" lon="5.50865">
        <ele>234</ele>
        <time>2018-02-20T09:14:12.000Z</time>
      </trkpt>
      <trkpt lat="43.52827" lon="5.50864">
        <ele>235</ele>
        <time>2018-02-20T09:14:13.000Z</time>
      </trkpt>
      <trkpt lat="43.52827" lon="5.50864">
        <ele>235</ele>
        <time>2018-02-20T09:14:14.000Z</time>
      </trkpt>
      <trkpt lat="43.52827" lon="5.50864">
        <ele>235</ele>
        <time>2018-02-20T09:14:15.000Z</time>
      </trkpt>
      <trkpt lat="43.52826" lon="5.50863">
        <ele>235</ele>
        <time>2018-02-20T09:14:16.000Z</time>
      </trkpt>
      <trkpt lat="43.52826" lon="5.50863">
        <ele>236</ele>
        <time>2018-02-20T09:14:17.000Z</time>
      </trkpt>
      <trkpt lat="43.52826" lon="5.50862">
        <ele>236</ele>
        <time>2018-02-20T09:14:18.000Z</time>
      </trkpt>
      <trkpt lat="43.52826" lon="5.50862">
        <ele>236</ele>
        <time>2018-02-20T09:14:19.000Z</time>
      </trkpt>
      <trkpt lat="43.52826" lon="5.50862">
        <ele>236</ele>
        <time>2018-02-20T09:14:20.000Z</time>
      </trkpt>
      <trkpt lat="43.52825" lon="5.50862">
        <ele>236</ele>
        <time>2018-02-20T09:14:21.000Z</time>
      </trkpt>
      <trkpt lat="43.52825" lon="5.50861">
        <ele>237</ele>
        <time>2018-02-20T09:14:22.000Z</time>
      </trkpt>
      <trkpt lat="43.52825" lon="5.50861">
        <ele>237</ele>
        <time>2018-02-20T09:14:23.000Z</time>
      </trkpt>
      <trkpt lat="43.52824" lon="5.50861">
        <ele>237</ele>
        <time>2018-02-20T09:14:24.000Z</time>
      </trkpt>
      <trkpt lat="43.52824" lon="5.50861">
        <ele>237</ele>
        <time>2018-02-20T09:14:25.000Z</time>
      </trkpt>
      <trkpt lat="43.52824" lon="5.50861">
        <ele>237</ele>
        <time>2018-02-20T09:14:26.000Z</time>
      </trkpt>
      <trkpt lat="43.52824" lon="5.50861">
        <ele>238</ele>
        <time>2018-02-20T09:14:27.000Z</time>
      </trkpt>
      <trkpt lat="43.52823" lon="5.50861">
        <ele>238</ele>
        <time>2018-02-20T09:14:28.000Z</time>
      </trkpt>
      <trkpt lat="43.52823" lon="5.5086">
        <ele>238</ele>
        <time>2018-02-20T09:14:29.000Z</time>
      </trkpt>
      <trkpt lat="43.52823" lon="5.5086">
        <ele>238</ele>
        <time>2018-02-20T09:14:30.000Z</time>
      </trkpt>
      <trkpt lat="43.52823" lon="5.5086">
        <ele>238</ele>
        <time>2018-02-20T09:14:31.000Z</time>
      </trkpt>
      <trkpt lat="43.52823" lon="5.5086">
        <ele>238</ele>
        <time>2018-02-20T09:14:32.000Z</time>
      </trkpt>
      <trkpt lat="43.52823" lon="5.5086">
        <ele>238</ele>
        <time>2018-02-20T09:14:33.000Z</time>
      </trkpt>
      <trkpt lat="43.52822" lon="5.5086">
        <ele>238</ele>
        <time>2018-02-20T09:14:34.000Z</time>
      </trkpt>
      <trkpt lat="43.52822" lon="5.5086">
        <ele>238</ele>
        <time>2018-02-20T09:14:35.000Z</time>
      </trkpt>
      <trkpt lat="43.52822" lon="5.50859">
        <ele>239</ele>
        <time>2018-02-20T09:14:36.000Z</time>
      </trkpt>
      <trkpt lat="43.52822" lon="5.50859">
        <ele>239</ele>
        <time>2018-02-20T09:14:37.000Z</time>
      </trkpt>
      <trkpt lat="43.52822" lon="5.50859">
        <ele>239</ele>
        <time>2018-02-20T09:14:38.000Z</time>
      </trkpt>
      <trkpt lat="43.52821" lon="5.50859">
        <ele>239</ele>
        <time>2018-02-20T09:14:39.000Z</time>
      </trkpt>
      <trkpt lat="43.52821" lon="5.50859">
        <ele>239</ele>
        <time>2018-02-20T09:14:40.000Z</time>
      </trkpt>
      <trkpt lat="43.52821" lon="5.50858">
        <ele>239</ele>
        <time>2018-02-20T09:14:41.000Z</time>
      </trkpt>
      <trkpt lat="43.5282" lon="5.50858">
        <ele>239</ele>
        <time>2018-02-20T09:14:42.000Z</time>
      </trkpt>
      <trkpt lat="43.5282" lon="5.50858">
        <ele>239</ele>
        <time>2018-02-20T09:14:43.000Z</time>
      </trkpt>
      <trkpt lat="43.52819" lon="5.50857">
        <ele>239</ele>
        <time>2018-02-20T09:14:44.000Z</time>
      </trkpt>
      <trkpt lat="43.52819" lon="5.50857">
        <ele>239</ele>
        <time>2018-02-20T09:14:45.000Z</time>
      </trkpt>
      <trkpt lat="43.52819" lon="5.50856">
        <ele>239</ele>
        <time>2018-02-20T09:14:46.000Z</time>
      </trkpt>
      <trkpt lat="43.52819" lon="5.50855">
        <ele>239</ele>
        <time>2018-02-20T09:14:47.000Z</time>
      </trkpt>
      <trkpt lat="43.52819" lon="5.50855">
        <ele>239</ele>
        <time>2018-02-20T09:14:48.000Z</time>
      </trkpt>
      <trkpt lat="43.52819" lon="5.50855">
        <ele>239</ele>
        <time>2018-02-20T09:14:49.000Z</time>
      </trkpt>
      <trkpt lat="43.52819" lon="5.50854">
        <ele>239</ele>
        <time>2018-02-20T09:14:50.000Z</time>
      </trkpt>
      <trkpt lat="43.52818" lon="5.50854">
        <ele>240</ele>
        <time>2018-02-20T09:14:51.000Z</time>
      </trkpt>
      <trkpt lat="43.52818" lon="5.50853">
        <ele>240</ele>
        <time>2018-02-20T09:14:52.000Z</time>
      </trkpt>
      <trkpt lat="43.52818" lon="5.50853">
        <ele>240</ele>
        <time>2018-02-20T09:14:53.000Z</time>
      </trkpt>
      <trkpt lat="43.52818" lon="5.50853">
        <ele>240</ele>
        <time>2018-02-20T09:14:54.000Z</time>
      </trkpt>
      <trkpt lat="43.52818" lon="5.50853">
        <ele>240</ele>
        <time>2018-02-20T09:14:55.000Z</time>
      </trkpt>
      <trkpt lat="43.52818" lon="5.50852">
        <ele>240</ele>
        <time>2018-02-20T09:14:56.000Z</time>
      </trkpt>
      <trkpt lat="43.52818" lon="5.50852">
        <ele>240</ele>
        <time>2018-02-20T09:14:57.000Z</time>
      </trkpt>
      <trkpt lat="43.52818" lon="5.50852">
        <ele>240</ele>
        <time>2018-02-20T09:14:58.000Z</time>
      </trkpt>
      <trkpt lat="43.52818" lon="5.50852">
        <ele>240</ele>
        <time>2018-02-20T09:14:59.000Z</time>
      </trkpt>
      <trkpt lat="43.52818" lon="5.50852">
        <ele>240</ele>
        <time>2018-02-20T09:15:00.000Z</time>
      </trkpt>
      <trkpt lat="43.52818" lon="5.50852">
        <ele>240</ele>
        <time>2018-02-20T09:15:01.000Z</time>
      </trkpt>
      <trkpt lat="43.52818" lon="5.50852">
        <ele>241</ele>
        <time>2018-02-20T09:15:02.000Z</time>
      </trkpt>
      <trkpt lat="43.52818" lon="5.50852">
        <ele>241</ele>
        <time>2018-02-20T09:15:03.000Z</time>
      </trkpt>
      <trkpt lat="43.52818" lon="5.50852">
        <ele>241</ele>
        <time>2018-02-20T09:15:04.000Z</time>
      </trkpt>
      <trkpt lat="43.52819" lon="5.50852">
        <ele>241</ele>
        <time>2018-02-20T09:15:05.000Z</time>
      </trkpt>
      <trkpt lat="43.52819" lon="5.50852">
        <ele>241</ele>
        <time>2018-02-20T09:15:06.000Z</time>
      </trkpt>
      <trkpt lat="43.52819" lon="5.50852">
        <ele>241</ele>
        <time>2018-02-20T09:15:07.000Z</time>
      </trkpt>
      <trkpt lat="43.52819" lon="5.50852">
        <ele>241</ele>
        <time>2018-02-20T09:15:08.000Z</time>
      </trkpt>
      <trkpt lat="43.52819" lon="5.50852">
        <ele>241</ele>
        <time>2018-02-20T09:15:09.000Z</time>
      </trkpt>
      <trkpt lat="43.52819" lon="5.50852">
        <ele>241</ele>
        <time>2018-02-20T09:15:10.000Z</time>
      </trkpt>
      <trkpt lat="43.52819" lon="5.50852">
        <ele>241</ele>
        <time>2018-02-20T09:15:11.000Z</time>
      </trkpt>
      <trkpt lat="43.52819" lon="5.50851">
        <ele>241</ele>
        <time>2018-02-20T09:15:12.000Z</time>
      </trkpt>
      <trkpt lat="43.52819" lon="5.50851">
        <ele>241</ele>
        <time>2018-02-20T09:15:13.000Z</time>
      </trkpt>
      <trkpt lat="43.52819" lon="5.50851">
        <ele>241</ele>
        <time>2018-02-20T09:15:14.000Z</time>
      </trkpt>
      <trkpt lat="43.52819" lon="5.50851">
        <ele>241</ele>
        <time>2018-02-20T09:15:15.000Z</time>
      </trkpt>
      <trkpt lat="43.52819" lon="5.50851">
        <ele>241</ele>
        <time>2018-02-20T09:15:16.000Z</time>
      </trkpt>
      <trkpt lat="43.52819" lon="5.50851">
        <ele>241</ele>
        <time>2018-02-20T09:15:17.000Z</time>
      </trkpt>
      <trkpt lat="43.52819" lon="5.50851">
        <ele>241</ele>
        <time>2018-02-20T09:15:18.000Z</time>
      </trkpt>
      <trkpt lat="43.52819" lon="5.50851">
        <ele>241</ele>
        <time>2018-02-20T09:15:19.000Z</time>
      </trkpt>
      <trkpt lat="43.52818" lon="5.50851">
        <ele>241</ele>
        <time>2018-02-20T09:15:20.000Z</time>
      </trkpt>
      <trkpt lat="43.52818" lon="5.5085">
        <ele>241</ele>
        <time>2018-02-20T09:15:21.000Z</time>
      </trkpt>
      <trkpt lat="43.52818" lon="5.50849">
        <ele>242</ele>
        <time>2018-02-20T09:15:22.000Z</time>
      </trkpt>
      <trkpt lat="43.52817" lon="5.50848">
        <ele>242</ele>
        <time>2018-02-20T09:15:23.000Z</time>
      </trkpt>
      <trkpt lat="43.52817" lon="5.50848">
        <ele>242</ele>
        <time>2018-02-20T09:15:24.000Z</time>
      </trkpt>
      <trkpt lat="43.52816" lon="5.50847">
        <ele>242</ele>
        <time>2018-02-20T09:15:25.000Z</time>
      </trkpt>
      <trkpt lat="43.52816" lon="5.50847">
        <ele>242</ele>
        <time>2018-02-20T09:15:26.000Z</time>
      </trkpt>
      <trkpt lat="43.52816" lon="5.50846">
        <ele>242</ele>
        <time>2018-02-20T09:15:27.000Z</time>
      </trkpt>
      <trkpt lat="43.52815" lon="5.50847">
        <ele>242</ele>
        <time>2018-02-20T09:15:28.000Z</time>
      </trkpt>
      <trkpt lat="43.52815" lon="5.50846">
        <ele>242</ele>
        <time>2018-02-20T09:15:29.000Z</time>
      </trkpt>
      <trkpt lat="43.52814" lon="5.50846">
        <ele>242</ele>
        <time>2018-02-20T09:15:30.000Z</time>
      </trkpt>
      <trkpt lat="43.52814" lon="5.50846">
        <ele>242</ele>
        <time>2018-02-20T09:15:31.000Z</time>
      </trkpt>
      <trkpt lat="43.52813" lon="5.50846">
        <ele>243</ele>
        <time>2018-02-20T09:15:32.000Z</time>
      </trkpt>
      <trkpt lat="43.52813" lon="5.50845">
        <ele>243</ele>
        <time>2018-02-20T09:15:33.000Z</time>
      </trkpt>
      <trkpt lat="43.52812" lon="5.50845">
        <ele>243</ele>
        <time>2018-02-20T09:15:34.000Z</time>
      </trkpt>
      <trkpt lat="43.52812" lon="5.50845">
        <ele>243</ele>
        <time>2018-02-20T09:15:35.000Z</time>
      </trkpt>
      <trkpt lat="43.52812" lon="5.50845">
        <ele>243</ele>
        <time>2018-02-20T09:15:36.000Z</time>
      </trkpt>
      <trkpt lat="43.52812" lon="5.50845">
        <ele>243</ele>
        <time>2018-02-20T09:15:37.000Z</time>
      </trkpt>
      <trkpt lat="43.52812" lon="5.50844">
        <ele>243</ele>
        <time>2018-02-20T09:15:38.000Z</time>
      </trkpt>
      <trkpt lat="43.52811" lon="5.50844">
        <ele>243</ele>
        <time>2018-02-20T09:15:39.000Z</time>
      </trkpt>
      <trkpt lat="43.52811" lon="5.50844">
        <ele>243</ele>
        <time>2018-02-20T09:15:40.000Z</time>
      </trkpt>
      <trkpt lat="43.52811" lon="5.50843">
        <ele>243</ele>
        <time>2018-02-20T09:15:41.000Z</time>
      </trkpt>
      <trkpt lat="43.52811" lon="5.50842">
        <ele>244</ele>
        <time>2018-02-20T09:15:42.000Z</time>
      </trkpt>
      <trkpt lat="43.5281" lon="5.50842">
        <ele>244</ele>
        <time>2018-02-20T09:15:43.000Z</time>
      </trkpt>
      <trkpt lat="43.5281" lon="5.50841">
        <ele>244</ele>
        <time>2018-02-20T09:15:44.000Z</time>
      </trkpt>
      <trkpt lat="43.5281" lon="5.50841">
        <ele>244</ele>
        <time>2018-02-20T09:15:45.000Z</time>
      </trkpt>
      <trkpt lat="43.5281" lon="5.5084">
        <ele>244</ele>
        <time>2018-02-20T09:15:46.000Z</time>
      </trkpt>
      <trkpt lat="43.52809" lon="5.5084">
        <ele>244</ele>
        <time>2018-02-20T09:15:47.000Z</time>
      </trkpt>
      <trkpt lat="43.52809" lon="5.50839">
        <ele>245</ele>
        <time>2018-02-20T09:15:48.000Z</time>
      </trkpt>
      <trkpt lat="43.52809" lon="5.50839">
        <ele>245</ele>
        <time>2018-02-20T09:15:49.000Z</time>
      </trkpt>
      <trkpt lat="43.52809" lon="5.50838">
        <ele>245</ele>
        <time>2018-02-20T09:15:50.000Z</time>
      </trkpt>
      <trkpt lat="43.52809" lon="5.50838">
        <ele>245</ele>
        <time>2018-02-20T09:15:51.000Z</time>
      </trkpt>
      <trkpt lat="43.52808" lon="5.50837">
        <ele>245</ele>
        <time>2018-02-20T09:15:52.000Z</time>
      </trkpt>
      <trkpt lat="43.52808" lon="5.50837">
        <ele>245</ele>
        <time>2018-02-20T09:15:53.000Z</time>
      </trkpt>
      <trkpt lat="43.52808" lon="5.50837">
        <ele>246</ele>
        <time>2018-02-20T09:15:54.000Z</time>
      </trkpt>
      <trkpt lat="43.52807" lon="5.50836">
        <ele>246</ele>
        <time>2018-02-20T09:15:55.000Z</time>
      </trkpt>
      <trkpt lat="43.52807" lon="5.50836">
        <ele>246</ele>
        <time>2018-02-20T09:15:56.000Z</time>
      </trkpt>
      <trkpt lat="43.52807" lon="5.50835">
        <ele>246</ele>
        <time>2018-02-20T09:15:57.000Z</time>
      </trkpt>
      <trkpt lat="43.52806" lon="5.50835">
        <ele>246</ele>
        <time>2018-02-20T09:15:58.000Z</time>
      </trkpt>
      <trkpt lat="43.52806" lon="5.50834">
        <ele>246</ele>
        <time>2018-02-20T09:15:59.000Z</time>
      </trkpt>
      <trkpt lat="43.52806" lon="5.50833">
        <ele>247</ele>
        <time>2018-02-20T09:16:00.000Z</time>
      </trkpt>
      <trkpt lat="43.52806" lon="5.50833">
        <ele>247</ele>
        <time>2018-02-20T09:16:01.000Z</time>
      </trkpt>
      <trkpt lat="43.52805" lon="5.50832">
        <ele>247</ele>
        <time>2018-02-20T09:16:02.000Z</time>
      </trkpt>
      <trkpt lat="43.52805" lon="5.50832">
        <ele>247</ele>
        <time>2018-02-20T09:16:03.000Z</time>
      </trkpt>
      <trkpt lat="43.52805" lon="5.50831">
        <ele>247</ele>
        <time>2018-02-20T09:16:04.000Z</time>
      </trkpt>
      <trkpt lat="43.52805" lon="5.50831">
        <ele>247</ele>
        <time>2018-02-20T09:16:05.000Z</time>
      </trkpt>
      <trkpt lat="43.52805" lon="5.5083">
        <ele>248</ele>
        <time>2018-02-20T09:16:06.000Z</time>
      </trkpt>
      <trkpt lat="43.52805" lon="5.5083">
        <ele>248</ele>
        <time>2018-02-20T09:16:07.000Z</time>
      </trkpt>
      <trkpt lat="43.52805" lon="5.50829">
        <ele>248</ele>
        <time>2018-02-20T09:16:08.000Z</time>
      </trkpt>
      <trkpt lat="43.52805" lon="5.50829">
        <ele>248</ele>
        <time>2018-02-20T09:16:09.000Z</time>
      </trkpt>
      <trkpt lat="43.52804" lon="5.5083">
        <ele>248</ele>
        <time>2018-02-20T09:16:10.000Z</time>
      </trkpt>
      <trkpt lat="43.52804" lon="5.5083">
        <ele>248</ele>
        <time>2018-02-20T09:16:11.000Z</time>
      </trkpt>
      <trkpt lat="43.52803" lon="5.5083">
        <ele>248</ele>
        <time>2018-02-20T09:16:12.000Z</time>
      </trkpt>
      <trkpt lat="43.52803" lon="5.50829">
        <ele>249</ele>
        <time>2018-02-20T09:16:13.000Z</time>
      </trkpt>
      <trkpt lat="43.52803" lon="5.50829">
        <ele>249</ele>
        <time>2018-02-20T09:16:14.000Z</time>
      </trkpt>
      <trkpt lat="43.52802" lon="5.50829">
        <ele>249</ele>
        <time>2018-02-20T09:16:15.000Z</time>
      </trkpt>
      <trkpt lat="43.52802" lon="5.50829">
        <ele>249</ele>
        <time>2018-02-20T09:16:16.000Z</time>
      </trkpt>
      <trkpt lat="43.52802" lon="5.50829">
        <ele>249</ele>
        <time>2018-02-20T09:16:17.000Z</time>
      </trkpt>
      <trkpt lat="43.52801" lon="5.50828">
        <ele>250</ele>
        <time>2018-02-20T09:16:18.000Z</time>
      </trkpt>
      <trkpt lat="43.52801" lon="5.50828">
        <ele>250</ele>
        <time>2018-02-20T09:16:19.000Z</time>
      </trkpt>
      <trkpt lat="43.528" lon="5.50827">
        <ele>250</ele>
        <time>2018-02-20T09:16:20.000Z</time>
      </trkpt>
      <trkpt lat="43.528" lon="5.50827">
        <ele>250</ele>
        <time>2018-02-20T09:16:21.000Z</time>
      </trkpt>
      <trkpt lat="43.528" lon="5.50826">
        <ele>251</ele>
        <time>2018-02-20T09:16:22.000Z</time>
      </trkpt>
      <trkpt lat="43.52799" lon="5.50826">
        <ele>251</ele>
        <time>2018-02-20T09:16:23.000Z</time>
      </trkpt>
      <trkpt lat="43.52799" lon="5.50826">
        <ele>251</ele>
        <time>2018-02-20T09:16:24.000Z</time>
      </trkpt>
      <trkpt lat="43.52799" lon="5.50825">
        <ele>252</ele>
        <time>2018-02-20T09:16:25.000Z</time>
      </trkpt>
      <trkpt lat="43.52798" lon="5.50825">
        <ele>252</ele>
        <time>2018-02-20T09:16:26.000Z</time>
      </trkpt>
      <trkpt lat="43.52798" lon="5.50825">
        <ele>252</ele>
        <time>2018-02-20T09:16:27.000Z</time>
      </trkpt>
      <trkpt lat="43.52798" lon="5.50825">
        <ele>252</ele>
        <time>2018-02-20T09:16:28.000Z</time>
      </trkpt>
      <trkpt lat="43.52798" lon="5.50825">
        <ele>252</ele>
        <time>2018-02-20T09:16:29.000Z</time>
      </trkpt>
      <trkpt lat="43.52798" lon="5.50825">
        <ele>252</ele>
        <time>2018-02-20T09:16:30.000Z</time>
      </trkpt>
      <trkpt lat="43.52798" lon="5.50825">
        <ele>253</ele>
        <time>2018-02-20T09:16:31.000Z</time>
      </trkpt>
      <trkpt lat="43.52798" lon="5.50825">
        <ele>253</ele>
        <time>2018-02-20T09:16:32.000Z</time>
      </trkpt>
      <trkpt lat="43.52797" lon="5.50825">
        <ele>253</ele>
        <time>2018-02-20T09:16:33.000Z</time>
      </trkpt>
      <trkpt lat="43.52797" lon="5.50825">
        <ele>253</ele>
        <time>2018-02-20T09:16:34.000Z</time>
      </trkpt>
      <trkpt lat="43.52796" lon="5.50825">
        <ele>253</ele>
        <time>2018-02-20T09:16:35.000Z</time>
      </trkpt>
      <trkpt lat="43.52796" lon="5.50825">
        <ele>253</ele>
        <time>2018-02-20T09:16:36.000Z</time>
      </trkpt>
      <trkpt lat="43.52795" lon="5.50825">
        <ele>254</ele>
        <time>2018-02-20T09:16:37.000Z</time>
      </trkpt>
      <trkpt lat="43.52795" lon="5.50825">
        <ele>254</ele>
        <time>2018-02-20T09:16:38.000Z</time>
      </trkpt>
      <trkpt lat="43.52795" lon="5.50825">
        <ele>254</ele>
        <time>2018-02-20T09:16:39.000Z</time>
      </trkpt>
      <trkpt lat="43.52794" lon="5.50825">
        <ele>254</ele>
        <time>2018-02-20T09:16:40.000Z</time>
      </trkpt>
      <trkpt lat="43.52793" lon="5.50825">
        <ele>255</ele>
        <time>2018-02-20T09:16:41.000Z</time>
      </trkpt>
      <trkpt lat="43.52793" lon="5.50825">
        <ele>255</ele>
        <time>2018-02-20T09:16:42.000Z</time>
      </trkpt>
      <trkpt lat="43.52792" lon="5.50825">
        <ele>255</ele>
        <time>2018-02-20T09:16:43.000Z</time>
      </trkpt>
      <trkpt lat="43.52791" lon="5.50824">
        <ele>256</ele>
        <time>2018-02-20T09:16:44.000Z</time>
      </trkpt>
      <trkpt lat="43.52791" lon="5.50824">
        <ele>256</ele>
        <time>2018-02-20T09:16:45.000Z</time>
      </trkpt>
      <trkpt lat="43.52791" lon="5.50823">
        <ele>256</ele>
        <time>2018-02-20T09:16:46.000Z</time>
      </trkpt>
      <trkpt lat="43.52791" lon="5.50823">
        <ele>256</ele>
        <time>2018-02-20T09:16:47.000Z</time>
      </trkpt>
      <trkpt lat="43.5279" lon="5.50823">
        <ele>256</ele>
        <time>2018-02-20T09:16:48.000Z</time>
      </trkpt>
      <trkpt lat="43.5279" lon="5.50823">
        <ele>256</ele>
        <time>2018-02-20T09:16:49.000Z</time>
      </trkpt>
      <trkpt lat="43.52789" lon="5.50823">
        <ele>257</ele>
        <time>2018-02-20T09:16:50.000Z</time>
      </trkpt>
      <trkpt lat="43.52789" lon="5.50822">
        <ele>257</ele>
        <time>2018-02-20T09:16:51.000Z</time>
      </trkpt>
      <trkpt lat="43.52788" lon="5.50822">
        <ele>257</ele>
        <time>2018-02-20T09:16:52.000Z</time>
      </trkpt>
      <trkpt lat="43.52788" lon="5.50822">
        <ele>257</ele>
        <time>2018-02-20T09:16:53.000Z</time>
      </trkpt>
      <trkpt lat="43.52787" lon="5.50822">
        <ele>257</ele>
        <time>2018-02-20T09:16:54.000Z</time>
      </trkpt>
      <trkpt lat="43.52787" lon="5.50821">
        <ele>257</ele>
        <time>2018-02-20T09:16:55.000Z</time>
      </trkpt>
      <trkpt lat="43.52787" lon="5.50821">
        <ele>258</ele>
        <time>2018-02-20T09:16:56.000Z</time>
      </trkpt>
      <trkpt lat="43.52787" lon="5.50821">
        <ele>258</ele>
        <time>2018-02-20T09:16:57.000Z</time>
      </trkpt>
      <trkpt lat="43.52787" lon="5.50821">
        <ele>258</ele>
        <time>2018-02-20T09:16:58.000Z</time>
      </trkpt>
      <trkpt lat="43.52787" lon="5.50821">
        <ele>258</ele>
        <time>2018-02-20T09:16:59.000Z</time>
      </trkpt>
      <trkpt lat="43.52787" lon="5.50821">
        <ele>258</ele>
        <time>2018-02-20T09:17:00.000Z</time>
      </trkpt>
      <trkpt lat="43.52787" lon="5.5082">
        <ele>258</ele>
        <time>2018-02-20T09:17:01.000Z</time>
      </trkpt>
      <trkpt lat="43.52787" lon="5.5082">
        <ele>258</ele>
        <time>2018-02-20T09:17:02.000Z</time>
      </trkpt>
      <trkpt lat="43.52787" lon="5.5082">
        <ele>258</ele>
        <time>2018-02-20T09:17:03.000Z</time>
      </trkpt>
      <trkpt lat="43.52787" lon="5.5082">
        <ele>258</ele>
        <time>2018-02-20T09:17:04.000Z</time>
      </trkpt>
      <trkpt lat="43.52787" lon="5.5082">
        <ele>258</ele>
        <time>2018-02-20T09:17:05.000Z</time>
      </trkpt>
      <trkpt lat="43.52787" lon="5.5082">
        <ele>258</ele>
        <time>2018-02-20T09:17:06.000Z</time>
      </trkpt>
      <trkpt lat="43.52787" lon="5.5082">
        <ele>258</ele>
        <time>2018-02-20T09:17:07.000Z</time>
      </trkpt>
      <trkpt lat="43.52787" lon="5.5082">
        <ele>258</ele>
        <time>2018-02-20T09:17:08.000Z</time>
      </trkpt>
      <trkpt lat="43.52786" lon="5.5082">
        <ele>258</ele>
        <time>2018-02-20T09:17:09.000Z</time>
      </trkpt>
      <trkpt lat="43.52786" lon="5.50819">
        <ele>258</ele>
        <time>2018-02-20T09:17:10.000Z</time>
      </trkpt>
      <trkpt lat="43.52786" lon="5.50818">
        <ele>259</ele>
        <time>2018-02-20T09:17:11.000Z</time>
      </trkpt>
      <trkpt lat="43.52786" lon="5.50818">
        <ele>259</ele>
        <time>2018-02-20T09:17:12.000Z</time>
      </trkpt>
      <trkpt lat="43.52785" lon="5.50817">
        <ele>259</ele>
        <time>2018-02-20T09:17:13.000Z</time>
      </trkpt>
      <trkpt lat="43.52785" lon="5.50817">
        <ele>259</ele>
        <time>2018-02-20T09:17:14.000Z</time>
      </trkpt>
      <trkpt lat="43.52784" lon="5.50817">
        <ele>259</ele>
        <time>2018-02-20T09:17:15.000Z</time>
      </trkpt>
      <trkpt lat="43.52783" lon="5.50816">
        <ele>259</ele>
        <time>2018-02-20T09:17:16.000Z</time>
      </trkpt>
      <trkpt lat="43.52783" lon="5.50816">
        <ele>259</ele>
        <time>2018-02-20T09:17:17.000Z</time>
      </trkpt>
      <trkpt lat="43.52782" lon="5.50815">
        <ele>259</ele>
        <time>2018-02-20T09:17:18.000Z</time>
      </trkpt>
      <trkpt lat="43.52781" lon="5.50815">
        <ele>259</ele>
        <time>2018-02-20T09:17:19.000Z</time>
      </trkpt>
      <trkpt lat="43.5278" lon="5.50815">
        <ele>260</ele>
        <time>2018-02-20T09:17:20.000Z</time>
      </trkpt>
      <trkpt lat="43.5278" lon="5.50815">
        <ele>260</ele>
        <time>2018-02-20T09:17:21.000Z</time>
      </trkpt>
      <trkpt lat="43.52779" lon="5.50815">
        <ele>260</ele>
        <time>2018-02-20T09:17:22.000Z</time>
      </trkpt>
      <trkpt lat="43.52778" lon="5.50815">
        <ele>260</ele>
        <time>2018-02-20T09:17:23.000Z</time>
      </trkpt>
      <trkpt lat="43.52777" lon="5.50815">
        <ele>260</ele>
        <time>2018-02-20T09:17:24.000Z</time>
      </trkpt>
      <trkpt lat="43.52777" lon="5.50814">
        <ele>260</ele>
        <time>2018-02-20T09:17:25.000Z</time>
      </trkpt>
      <trkpt lat="43.52777" lon="5.50814">
        <ele>260</ele>
        <time>2018-02-20T09:17:26.000Z</time>
      </trkpt>
      <trkpt lat="43.52777" lon="5.50814">
        <ele>260</ele>
        <time>2018-02-20T09:17:27.000Z</time>
      </trkpt>
      <trkpt lat="43.52777" lon="5.50814">
        <ele>260</ele>
        <time>2018-02-20T09:17:28.000Z</time>
      </trkpt>
      <trkpt lat="43.52777" lon="5.50814">
        <ele>260</ele>
        <time>2018-02-20T09:17:29.000Z</time>
      </trkpt>
      <trkpt lat="43.52777" lon="5.50814">
        <ele>260</ele>
        <time>2018-02-20T09:17:30.000Z</time>
      </trkpt>
      <trkpt lat="43.52777" lon="5.50814">
        <ele>260</ele>
        <time>2018-02-20T09:17:31.000Z</time>
      </trkpt>
      <trkpt lat="43.52777" lon="5.50814">
        <ele>260</ele>
        <time>2018-02-20T09:17:32.000Z</time>
      </trkpt>
      <trkpt lat="43.52777" lon="5.50814">
        <ele>260</ele>
        <time>2018-02-20T09:17:33.000Z</time>
      </trkpt>
      <trkpt lat="43.52777" lon="5.50815">
        <ele>260</ele>
        <time>2018-02-20T09:17:34.000Z</time>
      </trkpt>
      <trkpt lat="43.52777" lon="5.50815">
        <ele>261</ele>
        <time>2018-02-20T09:17:35.000Z</time>
      </trkpt>
      <trkpt lat="43.52777" lon="5.50815">
        <ele>261</ele>
        <time>2018-02-20T09:17:36.000Z</time>
      </trkpt>
      <trkpt lat="43.52777" lon="5.50815">
        <ele>261</ele>
        <time>2018-02-20T09:17:37.000Z</time>
      </trkpt>
      <trkpt lat="43.52776" lon="5.50816">
        <ele>261</ele>
        <time>2018-02-20T09:17:38.000Z</time>
      </trkpt>
      <trkpt lat="43.52776" lon="5.50816">
        <ele>261</ele>
        <time>2018-02-20T09:17:39.000Z</time>
      </trkpt>
      <trkpt lat="43.52776" lon="5.50816">
        <ele>260</ele>
        <time>2018-02-20T09:17:40.000Z</time>
      </trkpt>
      <trkpt lat="43.52776" lon="5.50816">
        <ele>260</ele>
        <time>2018-02-20T09:17:41.000Z</time>
      </trkpt>
      <trkpt lat="43.52776" lon="5.50816">
        <ele>260</ele>
        <time>2018-02-20T09:17:42.000Z</time>
      </trkpt>
      <trkpt lat="43.52776" lon="5.50816">
        <ele>260</ele>
        <time>2018-02-20T09:17:43.000Z</time>
      </trkpt>
      <trkpt lat="43.52776" lon="5.50816">
        <ele>260</ele>
        <time>2018-02-20T09:17:44.000Z</time>
      </trkpt>
      <trkpt lat="43.52776" lon="5.50816">
        <ele>260</ele>
        <time>2018-02-20T09:17:45.000Z</time>
      </trkpt>
      <trkpt lat="43.52776" lon="5.50816">
        <ele>260</ele>
        <time>2018-02-20T09:17:46.000Z</time>
      </trkpt>
      <trkpt lat="43.52776" lon="5.50816">
        <ele>261</ele>
        <time>2018-02-20T09:17:47.000Z</time>
      </trkpt>
      <trkpt lat="43.52776" lon="5.50816">
        <ele>261</ele>
        <time>2018-02-20T09:17:48.000Z</time>
      </trkpt>
      <trkpt lat="43.52776" lon="5.50815">
        <ele>261</ele>
        <time>2018-02-20T09:17:49.000Z</time>
      </trkpt>
      <trkpt lat="43.52776" lon="5.50815">
        <ele>261</ele>
        <time>2018-02-20T09:17:50.000Z</time>
      </trkpt>
      <trkpt lat="43.52776" lon="5.50815">
        <ele>261</ele>
        <time>2018-02-20T09:17:51.000Z</time>
      </trkpt>
      <trkpt lat="43.52776" lon="5.50815">
        <ele>261</ele>
        <time>2018-02-20T09:17:52.000Z</time>
      </trkpt>
      <trkpt lat="43.52776" lon="5.50815">
        <ele>261</ele>
        <time>2018-02-20T09:17:53.000Z</time>
      </trkpt>
      <trkpt lat="43.52776" lon="5.50815">
        <ele>261</ele>
        <time>2018-02-20T09:17:54.000Z</time>
      </trkpt>
      <trkpt lat="43.52776" lon="5.50815">
        <ele>261</ele>
        <time>2018-02-20T09:17:55.000Z</time>
      </trkpt>
      <trkpt lat="43.52775" lon="5.50815">
        <ele>261</ele>
        <time>2018-02-20T09:17:56.000Z</time>
      </trkpt>
      <trkpt lat="43.52775" lon="5.50815">
        <ele>261</ele>
        <time>2018-02-20T09:17:57.000Z</time>
      </trkpt>
      <trkpt lat="43.52775" lon="5.50815">
        <ele>261</ele>
        <time>2018-02-20T09:17:58.000Z</time>
      </trkpt>
      <trkpt lat="43.52775" lon="5.50815">
        <ele>261</ele>
        <time>2018-02-20T09:17:59.000Z</time>
      </trkpt>
      <trkpt lat="43.52775" lon="5.50815">
        <ele>261</ele>
        <time>2018-02-20T09:18:00.000Z</time>
      </trkpt>
      <trkpt lat="43.52775" lon="5.50815">
        <ele>261</ele>
        <time>2018-02-20T09:18:01.000Z</time>
      </trkpt>
      <trkpt lat="43.52775" lon="5.50815">
        <ele>262</ele>
        <time>2018-02-20T09:18:02.000Z</time>
      </trkpt>
      <trkpt lat="43.52775" lon="5.50815">
        <ele>262</ele>
        <time>2018-02-20T09:18:03.000Z</time>
      </trkpt>
      <trkpt lat="43.52775" lon="5.50815">
        <ele>262</ele>
        <time>2018-02-20T09:18:04.000Z</time>
      </trkpt>
      <trkpt lat="43.52775" lon="5.50815">
        <ele>262</ele>
        <time>2018-02-20T09:18:05.000Z</time>
      </trkpt>
      <trkpt lat="43.52775" lon="5.50815">
        <ele>262</ele>
        <time>2018-02-20T09:18:06.000Z</time>
      </trkpt>
      <trkpt lat="43.52775" lon="5.50815">
        <ele>262</ele>
        <time>2018-02-20T09:18:07.000Z</time>
      </trkpt>
      <trkpt lat="43.52775" lon="5.50815">
        <ele>262</ele>
        <time>2018-02-20T09:18:08.000Z</time>
      </trkpt>
      <trkpt lat="43.52775" lon="5.50815">
        <ele>262</ele>
        <time>2018-02-20T09:18:09.000Z</time>
      </trkpt>
      <trkpt lat="43.52775" lon="5.50815">
        <ele>262</ele>
        <time>2018-02-20T09:18:10.000Z</time>
      </trkpt>
      <trkpt lat="43.52775" lon="5.50814">
        <ele>262</ele>
        <time>2018-02-20T09:18:11.000Z</time>
      </trkpt>
      <trkpt lat="43.52775" lon="5.50814">
        <ele>262</ele>
        <time>2018-02-20T09:18:12.000Z</time>
      </trkpt>
      <trkpt lat="43.52775" lon="5.50814">
        <ele>262</ele>
        <time>2018-02-20T09:18:13.000Z</time>
      </trkpt>
      <trkpt lat="43.52775" lon="5.50814">
        <ele>262</ele>
        <time>2018-02-20T09:18:14.000Z</time>
      </trkpt>
      <trkpt lat="43.52775" lon="5.50813">
        <ele>262</ele>
        <time>2018-02-20T09:18:15.000Z</time>
      </trkpt>
      <trkpt lat="43.52775" lon="5.50813">
        <ele>262</ele>
        <time>2018-02-20T09:18:16.000Z</time>
      </trkpt>
      <trkpt lat="43.52775" lon="5.50813">
        <ele>262</ele>
        <time>2018-02-20T09:18:17.000Z</time>
      </trkpt>
      <trkpt lat="43.52775" lon="5.50813">
        <ele>262</ele>
        <time>2018-02-20T09:18:18.000Z</time>
      </trkpt>
      <trkpt lat="43.52775" lon="5.50813">
        <ele>262</ele>
        <time>2018-02-20T09:18:19.000Z</time>
      </trkpt>
      <trkpt lat="43.52775" lon="5.50814">
        <ele>262</ele>
        <time>2018-02-20T09:18:20.000Z</time>
      </trkpt>
      <trkpt lat="43.52775" lon="5.50814">
        <ele>262</ele>
        <time>2018-02-20T09:18:21.000Z</time>
      </trkpt>
      <trkpt lat="43.52775" lon="5.50813">
        <ele>262</ele>
        <time>2018-02-20T09:18:22.000Z</time>
      </trkpt>
      <trkpt lat="43.52775" lon="5.50813">
        <ele>262</ele>
        <time>2018-02-20T09:18:23.000Z</time>
      </trkpt>
      <trkpt lat="43.52775" lon="5.50813">
        <ele>262</ele>
        <time>2018-02-20T09:18:24.000Z</time>
      </trkpt>
      <trkpt lat="43.52775" lon="5.50813">
        <ele>262</ele>
        <time>2018-02-20T09:18:25.000Z</time>
      </trkpt>
      <trkpt lat="43.52775" lon="5.50813">
        <ele>262</ele>
        <time>2018-02-20T09:18:26.000Z</time>
      </trkpt>
      <trkpt lat="43.52775" lon="5.50813">
        <ele>262</ele>
        <time>2018-02-20T09:18:27.000Z</time>
      </trkpt>
      <trkpt lat="43.52775" lon="5.50813">
        <ele>262</ele>
        <time>2018-02-20T09:18:28.000Z</time>
      </trkpt>
      <trkpt lat="43.52775" lon="5.50813">
        <ele>262</ele>
        <time>2018-02-20T09:18:29.000Z</time>
      </trkpt>
      <trkpt lat="43.52774" lon="5.50813">
        <ele>262</ele>
        <time>2018-02-20T09:18:30.000Z</time>
      </trkpt>
      <trkpt lat="43.52774" lon="5.50813">
        <ele>262</ele>
        <time>2018-02-20T09:18:31.000Z</time>
      </trkpt>
      <trkpt lat="43.52774" lon="5.50813">
        <ele>262</ele>
        <time>2018-02-20T09:18:32.000Z</time>
      </trkpt>
      <trkpt lat="43.52774" lon="5.50813">
        <ele>262</ele>
        <time>2018-02-20T09:18:33.000Z</time>
      </trkpt>
      <trkpt lat="43.52774" lon="5.50813">
        <ele>262</ele>
        <time>2018-02-20T09:18:34.000Z</time>
      </trkpt>
      <trkpt lat="43.52774" lon="5.50813">
        <ele>262</ele>
        <time>2018-02-20T09:18:35.000Z</time>
      </trkpt>
      <trkpt lat="43.52774" lon="5.50813">
        <ele>262</ele>
        <time>2018-02-20T09:18:36.000Z</time>
      </trkpt>
      <trkpt lat="43.52774" lon="5.50813">
        <ele>262</ele>
        <time>2018-02-20T09:18:37.000Z</time>
      </trkpt>
      <trkpt lat="43.52774" lon="5.50813">
        <ele>262</ele>
        <time>2018-02-20T09:18:38.000Z</time>
      </trkpt>
      <trkpt lat="43.52773" lon="5.50813">
        <ele>262</ele>
        <time>2018-02-20T09:18:39.000Z</time>
      </trkpt>
      <trkpt lat="43.52773" lon="5.50813">
        <ele>262</ele>
        <time>2018-02-20T09:18:40.000Z</time>
      </trkpt>
      <trkpt lat="43.52773" lon="5.50813">
        <ele>262</ele>
        <time>2018-02-20T09:18:41.000Z</time>
      </trkpt>
      <trkpt lat="43.52773" lon="5.50813">
        <ele>262</ele>
        <time>2018-02-20T09:18:42.000Z</time>
      </trkpt>
      <trkpt lat="43.52773" lon="5.50813">
        <ele>262</ele>
        <time>2018-02-20T09:18:43.000Z</time>
      </trkpt>
      <trkpt lat="43.52773" lon="5.50813">
        <ele>262</ele>
        <time>2018-02-20T09:18:44.000Z</time>
      </trkpt>
      <trkpt lat="43.52772" lon="5.50812">
        <ele>262</ele>
        <time>2018-02-20T09:18:45.000Z</time>
      </trkpt>
      <trkpt lat="43.52772" lon="5.50812">
        <ele>262</ele>
        <time>2018-02-20T09:18:46.000Z</time>
      </trkpt>
      <trkpt lat="43.52771" lon="5.50811">
        <ele>262</ele>
        <time>2018-02-20T09:18:47.000Z</time>
      </trkpt>
      <trkpt lat="43.52771" lon="5.5081">
        <ele>262</ele>
        <time>2018-02-20T09:18:48.000Z</time>
      </trkpt>
      <trkpt lat="43.5277" lon="5.50808">
        <ele>262</ele>
        <time>2018-02-20T09:18:49.000Z</time>
      </trkpt>
      <trkpt lat="43.5277" lon="5.50807">
        <ele>262</ele>
        <time>2018-02-20T09:18:50.000Z</time>
      </trkpt>
      <trkpt lat="43.52769" lon="5.50806">
        <ele>262</ele>
        <time>2018-02-20T09:18:51.000Z</time>
      </trkpt>
      <trkpt lat="43.52769" lon="5.50805">
        <ele>262</ele>
        <time>2018-02-20T09:18:52.000Z</time>
      </trkpt>
      <trkpt lat="43.52769" lon="5.50805">
        <ele>262</ele>
        <time>2018-02-20T09:18:53.000Z</time>
      </trkpt>
      <trkpt lat="43.52769" lon="5.50804">
        <ele>263</ele>
        <time>2018-02-20T09:18:54.000Z</time>
      </trkpt>
      <trkpt lat="43.52768" lon="5.50803">
        <ele>263</ele>
        <time>2018-02-20T09:18:55.000Z</time>
      </trkpt>
      <trkpt lat="43.52768" lon="5.50802">
        <ele>263</ele>
        <time>2018-02-20T09:18:56.000Z</time>
      </trkpt>
      <trkpt lat="43.52767" lon="5.50801">
        <ele>263</ele>
        <time>2018-02-20T09:18:57.000Z</time>
      </trkpt>
      <trkpt lat="43.52767" lon="5.508">
        <ele>263</ele>
        <time>2018-02-20T09:18:58.000Z</time>
      </trkpt>
      <trkpt lat="43.52767" lon="5.50799">
        <ele>263</ele>
        <time>2018-02-20T09:18:59.000Z</time>
      </trkpt>
      <trkpt lat="43.52766" lon="5.50798">
        <ele>263</ele>
        <time>2018-02-20T09:19:00.000Z</time>
      </trkpt>
      <trkpt lat="43.52766" lon="5.50797">
        <ele>263</ele>
        <time>2018-02-20T09:19:01.000Z</time>
      </trkpt>
      <trkpt lat="43.52766" lon="5.50796">
        <ele>263</ele>
        <time>2018-02-20T09:19:02.000Z</time>
      </trkpt>
      <trkpt lat="43.52766" lon="5.50795">
        <ele>263</ele>
        <time>2018-02-20T09:19:03.000Z</time>
      </trkpt>
      <trkpt lat="43.52765" lon="5.50794">
        <ele>264</ele>
        <time>2018-02-20T09:19:04.000Z</time>
      </trkpt>
      <trkpt lat="43.52765" lon="5.50793">
        <ele>264</ele>
        <time>2018-02-20T09:19:05.000Z</time>
      </trkpt>
      <trkpt lat="43.52765" lon="5.50792">
        <ele>264</ele>
        <time>2018-02-20T09:19:06.000Z</time>
      </trkpt>
      <trkpt lat="43.52764" lon="5.50791">
        <ele>264</ele>
        <time>2018-02-20T09:19:07.000Z</time>
      </trkpt>
      <trkpt lat="43.52764" lon="5.5079">
        <ele>264</ele>
        <time>2018-02-20T09:19:08.000Z</time>
      </trkpt>
      <trkpt lat="43.52763" lon="5.5079">
        <ele>264</ele>
        <time>2018-02-20T09:19:09.000Z</time>
      </trkpt>
      <trkpt lat="43.52763" lon="5.50789">
        <ele>265</ele>
        <time>2018-02-20T09:19:10.000Z</time>
      </trkpt>
      <trkpt lat="43.52762" lon="5.50788">
        <ele>265</ele>
        <time>2018-02-20T09:19:11.000Z</time>
      </trkpt>
      <trkpt lat="43.52762" lon="5.50787">
        <ele>265</ele>
        <time>2018-02-20T09:19:12.000Z</time>
      </trkpt>
      <trkpt lat="43.52762" lon="5.50786">
        <ele>265</ele>
        <time>2018-02-20T09:19:13.000Z</time>
      </trkpt>
      <trkpt lat="43.52761" lon="5.50786">
        <ele>265</ele>
        <time>2018-02-20T09:19:14.000Z</time>
      </trkpt>
      <trkpt lat="43.52761" lon="5.50785">
        <ele>265</ele>
        <time>2018-02-20T09:19:15.000Z</time>
      </trkpt>
      <trkpt lat="43.52761" lon="5.50784">
        <ele>265</ele>
        <time>2018-02-20T09:19:16.000Z</time>
      </trkpt>
      <trkpt lat="43.52761" lon="5.50784">
        <ele>265</ele>
        <time>2018-02-20T09:19:17.000Z</time>
      </trkpt>
      <trkpt lat="43.52761" lon="5.50783">
        <ele>265</ele>
        <time>2018-02-20T09:19:18.000Z</time>
      </trkpt>
      <trkpt lat="43.52761" lon="5.50783">
        <ele>265</ele>
        <time>2018-02-20T09:19:19.000Z</time>
      </trkpt>
      <trkpt lat="43.52761" lon="5.50783">
        <ele>265</ele>
        <time>2018-02-20T09:19:20.000Z</time>
      </trkpt>
      <trkpt lat="43.52761" lon="5.50783">
        <ele>265</ele>
        <time>2018-02-20T09:19:21.000Z</time>
      </trkpt>
      <trkpt lat="43.52761" lon="5.50783">
        <ele>265</ele>
        <time>2018-02-20T09:19:22.000Z</time>
      </trkpt>
      <trkpt lat="43.52761" lon="5.50782">
        <ele>265</ele>
        <time>2018-02-20T09:19:23.000Z</time>
      </trkpt>
      <trkpt lat="43.52762" lon="5.50782">
        <ele>265</ele>
        <time>2018-02-20T09:19:24.000Z</time>
      </trkpt>
      <trkpt lat="43.52761" lon="5.50782">
        <ele>265</ele>
        <time>2018-02-20T09:19:25.000Z</time>
      </trkpt>
      <trkpt lat="43.52761" lon="5.50781">
        <ele>265</ele>
        <time>2018-02-20T09:19:26.000Z</time>
      </trkpt>
      <trkpt lat="43.52762" lon="5.50781">
        <ele>265</ele>
        <time>2018-02-20T09:19:27.000Z</time>
      </trkpt>
      <trkpt lat="43.52762" lon="5.50781">
        <ele>265</ele>
        <time>2018-02-20T09:19:28.000Z</time>
      </trkpt>
      <trkpt lat="43.52762" lon="5.5078">
        <ele>265</ele>
        <time>2018-02-20T09:19:29.000Z</time>
      </trkpt>
      <trkpt lat="43.52762" lon="5.50779">
        <ele>265</ele>
        <time>2018-02-20T09:19:30.000Z</time>
      </trkpt>
      <trkpt lat="43.52762" lon="5.50778">
        <ele>265</ele>
        <time>2018-02-20T09:19:31.000Z</time>
      </trkpt>
      <trkpt lat="43.52762" lon="5.50778">
        <ele>265</ele>
        <time>2018-02-20T09:19:32.000Z</time>
      </trkpt>
      <trkpt lat="43.52762" lon="5.50777">
        <ele>265</ele>
        <time>2018-02-20T09:19:33.000Z</time>
      </trkpt>
      <trkpt lat="43.52762" lon="5.50776">
        <ele>265</ele>
        <time>2018-02-20T09:19:34.000Z</time>
      </trkpt>
      <trkpt lat="43.52762" lon="5.50776">
        <ele>265</ele>
        <time>2018-02-20T09:19:35.000Z</time>
      </trkpt>
      <trkpt lat="43.52762" lon="5.50775">
        <ele>265</ele>
        <time>2018-02-20T09:19:36.000Z</time>
      </trkpt>
      <trkpt lat="43.52762" lon="5.50774">
        <ele>265</ele>
        <time>2018-02-20T09:19:37.000Z</time>
      </trkpt>
      <trkpt lat="43.52762" lon="5.50773">
        <ele>265</ele>
        <time>2018-02-20T09:19:38.000Z</time>
      </trkpt>
      <trkpt lat="43.52762" lon="5.50773">
        <ele>265</ele>
        <time>2018-02-20T09:19:39.000Z</time>
      </trkpt>
      <trkpt lat="43.52761" lon="5.50773">
        <ele>265</ele>
        <time>2018-02-20T09:19:40.000Z</time>
      </trkpt>
      <trkpt lat="43.52761" lon="5.50773">
        <ele>265</ele>
        <time>2018-02-20T09:19:41.000Z</time>
      </trkpt>
      <trkpt lat="43.52761" lon="5.50773">
        <ele>265</ele>
        <time>2018-02-20T09:19:42.000Z</time>
      </trkpt>
      <trkpt lat="43.52761" lon="5.50773">
        <ele>265</ele>
        <time>2018-02-20T09:19:43.000Z</time>
      </trkpt>
      <trkpt lat="43.52761" lon="5.50773">
        <ele>266</ele>
        <time>2018-02-20T09:19:44.000Z</time>
      </trkpt>
      <trkpt lat="43.52761" lon="5.50773">
        <ele>266</ele>
        <time>2018-02-20T09:19:45.000Z</time>
      </trkpt>
      <trkpt lat="43.52761" lon="5.50772">
        <ele>266</ele>
        <time>2018-02-20T09:19:46.000Z</time>
      </trkpt>
      <trkpt lat="43.52761" lon="5.50772">
        <ele>266</ele>
        <time>2018-02-20T09:19:47.000Z</time>
      </trkpt>
      <trkpt lat="43.52762" lon="5.50772">
        <ele>266</ele>
        <time>2018-02-20T09:19:48.000Z</time>
      </trkpt>
      <trkpt lat="43.52762" lon="5.50772">
        <ele>266</ele>
        <time>2018-02-20T09:19:49.000Z</time>
      </trkpt>
      <trkpt lat="43.52762" lon="5.50772">
        <ele>266</ele>
        <time>2018-02-20T09:19:50.000Z</time>
      </trkpt>
      <trkpt lat="43.52762" lon="5.50772">
        <ele>266</ele>
        <time>2018-02-20T09:19:51.000Z</time>
      </trkpt>
      <trkpt lat="43.52762" lon="5.50771">
        <ele>267</ele>
        <time>2018-02-20T09:19:52.000Z</time>
      </trkpt>
      <trkpt lat="43.52762" lon="5.50772">
        <ele>267</ele>
        <time>2018-02-20T09:19:53.000Z</time>
      </trkpt>
      <trkpt lat="43.52762" lon="5.50772">
        <ele>267</ele>
        <time>2018-02-20T09:19:54.000Z</time>
      </trkpt>
      <trkpt lat="43.52762" lon="5.50772">
        <ele>267</ele>
        <time>2018-02-20T09:19:55.000Z</time>
      </trkpt>
      <trkpt lat="43.52762" lon="5.50772">
        <ele>267</ele>
        <time>2018-02-20T09:19:56.000Z</time>
      </trkpt>
      <trkpt lat="43.52762" lon="5.50772">
        <ele>267</ele>
        <time>2018-02-20T09:19:57.000Z</time>
      </trkpt>
      <trkpt lat="43.52763" lon="5.50772">
        <ele>267</ele>
        <time>2018-02-20T09:19:58.000Z</time>
      </trkpt>
      <trkpt lat="43.52763" lon="5.50772">
        <ele>267</ele>
        <time>2018-02-20T09:19:59.000Z</time>
      </trkpt>
      <trkpt lat="43.52763" lon="5.50772">
        <ele>267</ele>
        <time>2018-02-20T09:20:00.000Z</time>
      </trkpt>
      <trkpt lat="43.52763" lon="5.50772">
        <ele>267</ele>
        <time>2018-02-20T09:20:01.000Z</time>
      </trkpt>
      <trkpt lat="43.52763" lon="5.50772">
        <ele>267</ele>
        <time>2018-02-20T09:20:02.000Z</time>
      </trkpt>
      <trkpt lat="43.52763" lon="5.50772">
        <ele>267</ele>
        <time>2018-02-20T09:20:03.000Z</time>
      </trkpt>
      <trkpt lat="43.52763" lon="5.50772">
        <ele>267</ele>
        <time>2018-02-20T09:20:04.000Z</time>
      </trkpt>
      <trkpt lat="43.52763" lon="5.50772">
        <ele>267</ele>
        <time>2018-02-20T09:20:05.000Z</time>
      </trkpt>
      <trkpt lat="43.52763" lon="5.50771">
        <ele>268</ele>
        <time>2018-02-20T09:20:06.000Z</time>
      </trkpt>
      <trkpt lat="43.52763" lon="5.50771">
        <ele>268</ele>
        <time>2018-02-20T09:20:07.000Z</time>
      </trkpt>
      <trkpt lat="43.52763" lon="5.50771">
        <ele>268</ele>
        <time>2018-02-20T09:20:08.000Z</time>
      </trkpt>
      <trkpt lat="43.52763" lon="5.50771">
        <ele>268</ele>
        <time>2018-02-20T09:20:09.000Z</time>
      </trkpt>
      <trkpt lat="43.52762" lon="5.50771">
        <ele>268</ele>
        <time>2018-02-20T09:20:10.000Z</time>
      </trkpt>
      <trkpt lat="43.52762" lon="5.50771">
        <ele>268</ele>
        <time>2018-02-20T09:20:11.000Z</time>
      </trkpt>
      <trkpt lat="43.52762" lon="5.50771">
        <ele>268</ele>
        <time>2018-02-20T09:20:12.000Z</time>
      </trkpt>
      <trkpt lat="43.52762" lon="5.50771">
        <ele>268</ele>
        <time>2018-02-20T09:20:13.000Z</time>
      </trkpt>
      <trkpt lat="43.52762" lon="5.50771">
        <ele>268</ele>
        <time>2018-02-20T09:20:14.000Z</time>
      </trkpt>
      <trkpt lat="43.52762" lon="5.50771">
        <ele>268</ele>
        <time>2018-02-20T09:20:15.000Z</time>
      </trkpt>
      <trkpt lat="43.52762" lon="5.50771">
        <ele>268</ele>
        <time>2018-02-20T09:20:16.000Z</time>
      </trkpt>
      <trkpt lat="43.52762" lon="5.50771">
        <ele>268</ele>
        <time>2018-02-20T09:20:17.000Z</time>
      </trkpt>
      <trkpt lat="43.52762" lon="5.50771">
        <ele>268</ele>
        <time>2018-02-20T09:20:18.000Z</time>
      </trkpt>
      <trkpt lat="43.52762" lon="5.50771">
        <ele>268</ele>
        <time>2018-02-20T09:20:19.000Z</time>
      </trkpt>
      <trkpt lat="43.52762" lon="5.50771">
        <ele>268</ele>
        <time>2018-02-20T09:20:20.000Z</time>
      </trkpt>
      <trkpt lat="43.52762" lon="5.50771">
        <ele>268</ele>
        <time>2018-02-20T09:20:21.000Z</time>
      </trkpt>
      <trkpt lat="43.52762" lon="5.50771">
        <ele>269</ele>
        <time>2018-02-20T09:20:22.000Z</time>
      </trkpt>
      <trkpt lat="43.52762" lon="5.5077">
        <ele>269</ele>
        <time>2018-02-20T09:20:23.000Z</time>
      </trkpt>
      <trkpt lat="43.52762" lon="5.5077">
        <ele>269</ele>
        <time>2018-02-20T09:20:24.000Z</time>
      </trkpt>
      <trkpt lat="43.52762" lon="5.5077">
        <ele>269</ele>
        <time>2018-02-20T09:20:25.000Z</time>
      </trkpt>
      <trkpt lat="43.52762" lon="5.5077">
        <ele>269</ele>
        <time>2018-02-20T09:20:26.000Z</time>
      </trkpt>
      <trkpt lat="43.52762" lon="5.5077">
        <ele>269</ele>
        <time>2018-02-20T09:20:27.000Z</time>
      </trkpt>
      <trkpt lat="43.52762" lon="5.5077">
        <ele>269</ele>
        <time>2018-02-20T09:20:28.000Z</time>
      </trkpt>
      <trkpt lat="43.52762" lon="5.5077">
        <ele>269</ele>
        <time>2018-02-20T09:20:29.000Z</time>
      </trkpt>
      <trkpt lat="43.52762" lon="5.5077">
        <ele>269</ele>
        <time>2018-02-20T09:20:30.000Z</time>
      </trkpt>
      <trkpt lat="43.52762" lon="5.5077">
        <ele>269</ele>
        <time>2018-02-20T09:20:31.000Z</time>
      </trkpt>
      <trkpt lat="43.52762" lon="5.5077">
        <ele>269</ele>
        <time>2018-02-20T09:20:32.000Z</time>
      </trkpt>
      <trkpt lat="43.52762" lon="5.5077">
        <ele>269</ele>
        <time>2018-02-20T09:20:33.000Z</time>
      </trkpt>
      <trkpt lat="43.52762" lon="5.5077">
        <ele>270</ele>
        <time>2018-02-20T09:20:34.000Z</time>
      </trkpt>
      <trkpt lat="43.52762" lon="5.5077">
        <ele>270</ele>
        <time>2018-02-20T09:20:35.000Z</time>
      </trkpt>
      <trkpt lat="43.52762" lon="5.5077">
        <ele>270</ele>
        <time>2018-02-20T09:20:36.000Z</time>
      </trkpt>
      <trkpt lat="43.52762" lon="5.5077">
        <ele>270</ele>
        <time>2018-02-20T09:20:37.000Z</time>
      </trkpt>
      <trkpt lat="43.52762" lon="5.5077">
        <ele>270</ele>
        <time>2018-02-20T09:20:38.000Z</time>
      </trkpt>
      <trkpt lat="43.52762" lon="5.5077">
        <ele>270</ele>
        <time>2018-02-20T09:20:39.000Z</time>
      </trkpt>
      <trkpt lat="43.52761" lon="5.5077">
        <ele>270</ele>
        <time>2018-02-20T09:20:40.000Z</time>
      </trkpt>
      <trkpt lat="43.52761" lon="5.5077">
        <ele>270</ele>
        <time>2018-02-20T09:20:41.000Z</time>
      </trkpt>
      <trkpt lat="43.52761" lon="5.5077">
        <ele>270</ele>
        <time>2018-02-20T09:20:42.000Z</time>
      </trkpt>
      <trkpt lat="43.52761" lon="5.5077">
        <ele>270</ele>
        <time>2018-02-20T09:20:43.000Z</time>
      </trkpt>
      <trkpt lat="43.52761" lon="5.50771">
        <ele>270</ele>
        <time>2018-02-20T09:20:44.000Z</time>
      </trkpt>
      <trkpt lat="43.52761" lon="5.50771">
        <ele>270</ele>
        <time>2018-02-20T09:20:45.000Z</time>
      </trkpt>
      <trkpt lat="43.5276" lon="5.50771">
        <ele>270</ele>
        <time>2018-02-20T09:20:46.000Z</time>
      </trkpt>
      <trkpt lat="43.5276" lon="5.50771">
        <ele>271</ele>
        <time>2018-02-20T09:20:47.000Z</time>
      </trkpt>
      <trkpt lat="43.5276" lon="5.50771">
        <ele>271</ele>
        <time>2018-02-20T09:20:48.000Z</time>
      </trkpt>
      <trkpt lat="43.5276" lon="5.50771">
        <ele>271</ele>
        <time>2018-02-20T09:20:49.000Z</time>
      </trkpt>
      <trkpt lat="43.5276" lon="5.50771">
        <ele>271</ele>
        <time>2018-02-20T09:20:50.000Z</time>
      </trkpt>
      <trkpt lat="43.5276" lon="5.50771">
        <ele>271</ele>
        <time>2018-02-20T09:20:51.000Z</time>
      </trkpt>
      <trkpt lat="43.5276" lon="5.50771">
        <ele>271</ele>
        <time>2018-02-20T09:20:52.000Z</time>
      </trkpt>
      <trkpt lat="43.52759" lon="5.50771">
        <ele>271</ele>
        <time>2018-02-20T09:20:53.000Z</time>
      </trkpt>
      <trkpt lat="43.52759" lon="5.50771">
        <ele>271</ele>
        <time>2018-02-20T09:20:54.000Z</time>
      </trkpt>
      <trkpt lat="43.52759" lon="5.50771">
        <ele>271</ele>
        <time>2018-02-20T09:20:55.000Z</time>
      </trkpt>
      <trkpt lat="43.52759" lon="5.50771">
        <ele>271</ele>
        <time>2018-02-20T09:20:56.000Z</time>
      </trkpt>
      <trkpt lat="43.52758" lon="5.50769">
        <ele>271</ele>
        <time>2018-02-20T09:20:57.000Z</time>
      </trkpt>
      <trkpt lat="43.52757" lon="5.50768">
        <ele>272</ele>
        <time>2018-02-20T09:20:58.000Z</time>
      </trkpt>
      <trkpt lat="43.52757" lon="5.50767">
        <ele>272</ele>
        <time>2018-02-20T09:20:59.000Z</time>
      </trkpt>
      <trkpt lat="43.52756" lon="5.50765">
        <ele>272</ele>
        <time>2018-02-20T09:21:00.000Z</time>
      </trkpt>
      <trkpt lat="43.52756" lon="5.50764">
        <ele>272</ele>
        <time>2018-02-20T09:21:01.000Z</time>
      </trkpt>
      <trkpt lat="43.52756" lon="5.50763">
        <ele>272</ele>
        <time>2018-02-20T09:21:02.000Z</time>
      </trkpt>
      <trkpt lat="43.52756" lon="5.50762">
        <ele>272</ele>
        <time>2018-02-20T09:21:03.000Z</time>
      </trkpt>
      <trkpt lat="43.52756" lon="5.50761">
        <ele>273</ele>
        <time>2018-02-20T09:21:04.000Z</time>
      </trkpt>
      <trkpt lat="43.52756" lon="5.5076">
        <ele>273</ele>
        <time>2018-02-20T09:21:05.000Z</time>
      </trkpt>
      <trkpt lat="43.52756" lon="5.50759">
        <ele>273</ele>
        <time>2018-02-20T09:21:06.000Z</time>
      </trkpt>
      <trkpt lat="43.52756" lon="5.50759">
        <ele>273</ele>
        <time>2018-02-20T09:21:07.000Z</time>
      </trkpt>
      <trkpt lat="43.52757" lon="5.50758">
        <ele>273</ele>
        <time>2018-02-20T09:21:08.000Z</time>
      </trkpt>
      <trkpt lat="43.52757" lon="5.50757">
        <ele>274</ele>
        <time>2018-02-20T09:21:09.000Z</time>
      </trkpt>
      <trkpt lat="43.52757" lon="5.50757">
        <ele>274</ele>
        <time>2018-02-20T09:21:10.000Z</time>
      </trkpt>
      <trkpt lat="43.52757" lon="5.50756">
        <ele>274</ele>
        <time>2018-02-20T09:21:11.000Z</time>
      </trkpt>
      <trkpt lat="43.52757" lon="5.50755">
        <ele>274</ele>
        <time>2018-02-20T09:21:12.000Z</time>
      </trkpt>
      <trkpt lat="43.52756" lon="5.50754">
        <ele>274</ele>
        <time>2018-02-20T09:21:13.000Z</time>
      </trkpt>
      <trkpt lat="43.52756" lon="5.50753">
        <ele>274</ele>
        <time>2018-02-20T09:21:14.000Z</time>
      </trkpt>
      <trkpt lat="43.52755" lon="5.50753">
        <ele>274</ele>
        <time>2018-02-20T09:21:15.000Z</time>
      </trkpt>
      <trkpt lat="43.52754" lon="5.50753">
        <ele>274</ele>
        <time>2018-02-20T09:21:16.000Z</time>
      </trkpt>
      <trkpt lat="43.52754" lon="5.50752">
        <ele>274</ele>
        <time>2018-02-20T09:21:17.000Z</time>
      </trkpt>
      <trkpt lat="43.52753" lon="5.50752">
        <ele>274</ele>
        <time>2018-02-20T09:21:18.000Z</time>
      </trkpt>
      <trkpt lat="43.52752" lon="5.50751">
        <ele>274</ele>
        <time>2018-02-20T09:21:19.000Z</time>
      </trkpt>
      <trkpt lat="43.52752" lon="5.50751">
        <ele>274</ele>
        <time>2018-02-20T09:21:20.000Z</time>
      </trkpt>
      <trkpt lat="43.52752" lon="5.5075">
        <ele>275</ele>
        <time>2018-02-20T09:21:21.000Z</time>
      </trkpt>
      <trkpt lat="43.52751" lon="5.5075">
        <ele>275</ele>
        <time>2018-02-20T09:21:22.000Z</time>
      </trkpt>
      <trkpt lat="43.5275" lon="5.5075">
        <ele>275</ele>
        <time>2018-02-20T09:21:23.000Z</time>
      </trkpt>
      <trkpt lat="43.5275" lon="5.50749">
        <ele>275</ele>
        <time>2018-02-20T09:21:24.000Z</time>
      </trkpt>
      <trkpt lat="43.5275" lon="5.50748">
        <ele>275</ele>
        <time>2018-02-20T09:21:25.000Z</time>
      </trkpt>
      <trkpt lat="43.5275" lon="5.50747">
        <ele>275</ele>
        <time>2018-02-20T09:21:26.000Z</time>
      </trkpt>
      <trkpt lat="43.5275" lon="5.50747">
        <ele>276</ele>
        <time>2018-02-20T09:21:27.000Z</time>
      </trkpt>
      <trkpt lat="43.5275" lon="5.50746">
        <ele>276</ele>
        <time>2018-02-20T09:21:28.000Z</time>
      </trkpt>
      <trkpt lat="43.5275" lon="5.50745">
        <ele>276</ele>
        <time>2018-02-20T09:21:29.000Z</time>
      </trkpt>
      <trkpt lat="43.5275" lon="5.50745">
        <ele>276</ele>
        <time>2018-02-20T09:21:30.000Z</time>
      </trkpt>
      <trkpt lat="43.5275" lon="5.50744">
        <ele>276</ele>
        <time>2018-02-20T09:21:31.000Z</time>
      </trkpt>
      <trkpt lat="43.5275" lon="5.50743">
        <ele>277</ele>
        <time>2018-02-20T09:21:32.000Z</time>
      </trkpt>
      <trkpt lat="43.5275" lon="5.50743">
        <ele>277</ele>
        <time>2018-02-20T09:21:33.000Z</time>
      </trkpt>
      <trkpt lat="43.5275" lon="5.50742">
        <ele>277</ele>
        <time>2018-02-20T09:21:34.000Z</time>
      </trkpt>
      <trkpt lat="43.52749" lon="5.50742">
        <ele>277</ele>
        <time>2018-02-20T09:21:35.000Z</time>
      </trkpt>
      <trkpt lat="43.52749" lon="5.50743">
        <ele>277</ele>
        <time>2018-02-20T09:21:36.000Z</time>
      </trkpt>
      <trkpt lat="43.52749" lon="5.50743">
        <ele>277</ele>
        <time>2018-02-20T09:21:37.000Z</time>
      </trkpt>
      <trkpt lat="43.52749" lon="5.50743">
        <ele>277</ele>
        <time>2018-02-20T09:21:38.000Z</time>
      </trkpt>
      <trkpt lat="43.52749" lon="5.50743">
        <ele>277</ele>
        <time>2018-02-20T09:21:39.000Z</time>
      </trkpt>
      <trkpt lat="43.52749" lon="5.50743">
        <ele>278</ele>
        <time>2018-02-20T09:21:40.000Z</time>
      </trkpt>
      <trkpt lat="43.52749" lon="5.50743">
        <ele>278</ele>
        <time>2018-02-20T09:21:41.000Z</time>
      </trkpt>
      <trkpt lat="43.52749" lon="5.50744">
        <ele>278</ele>
        <time>2018-02-20T09:21:42.000Z</time>
      </trkpt>
      <trkpt lat="43.52749" lon="5.50744">
        <ele>278</ele>
        <time>2018-02-20T09:21:43.000Z</time>
      </trkpt>
      <trkpt lat="43.52749" lon="5.50744">
        <ele>278</ele>
        <time>2018-02-20T09:21:44.000Z</time>
      </trkpt>
      <trkpt lat="43.52749" lon="5.50744">
        <ele>278</ele>
        <time>2018-02-20T09:21:45.000Z</time>
      </trkpt>
      <trkpt lat="43.52749" lon="5.50744">
        <ele>278</ele>
        <time>2018-02-20T09:21:46.000Z</time>
      </trkpt>
      <trkpt lat="43.52749" lon="5.50744">
        <ele>278</ele>
        <time>2018-02-20T09:21:47.000Z</time>
      </trkpt>
      <trkpt lat="43.52749" lon="5.50744">
        <ele>278</ele>
        <time>2018-02-20T09:21:48.000Z</time>
      </trkpt>
      <trkpt lat="43.52749" lon="5.50744">
        <ele>278</ele>
        <time>2018-02-20T09:21:49.000Z</time>
      </trkpt>
      <trkpt lat="43.52749" lon="5.50744">
        <ele>278</ele>
        <time>2018-02-20T09:21:50.000Z</time>
      </trkpt>
      <trkpt lat="43.5275" lon="5.50744">
        <ele>278</ele>
        <time>2018-02-20T09:21:51.000Z</time>
      </trkpt>
      <trkpt lat="43.5275" lon="5.50744">
        <ele>278</ele>
        <time>2018-02-20T09:21:52.000Z</time>
      </trkpt>
      <trkpt lat="43.5275" lon="5.50744">
        <ele>278</ele>
        <time>2018-02-20T09:21:53.000Z</time>
      </trkpt>
      <trkpt lat="43.5275" lon="5.50745">
        <ele>278</ele>
        <time>2018-02-20T09:21:54.000Z</time>
      </trkpt>
      <trkpt lat="43.5275" lon="5.50745">
        <ele>278</ele>
        <time>2018-02-20T09:21:55.000Z</time>
      </trkpt>
      <trkpt lat="43.5275" lon="5.50745">
        <ele>278</ele>
        <time>2018-02-20T09:21:56.000Z</time>
      </trkpt>
      <trkpt lat="43.5275" lon="5.50745">
        <ele>278</ele>
        <time>2018-02-20T09:21:57.000Z</time>
      </trkpt>
      <trkpt lat="43.5275" lon="5.50745">
        <ele>278</ele>
        <time>2018-02-20T09:21:58.000Z</time>
      </trkpt>
      <trkpt lat="43.5275" lon="5.50745">
        <ele>278</ele>
        <time>2018-02-20T09:21:59.000Z</time>
      </trkpt>
      <trkpt lat="43.5275" lon="5.50745">
        <ele>278</ele>
        <time>2018-02-20T09:22:00.000Z</time>
      </trkpt>
      <trkpt lat="43.5275" lon="5.50745">
        <ele>278</ele>
        <time>2018-02-20T09:22:01.000Z</time>
      </trkpt>
      <trkpt lat="43.5275" lon="5.50745">
        <ele>279</ele>
        <time>2018-02-20T09:22:02.000Z</time>
      </trkpt>
      <trkpt lat="43.5275" lon="5.50745">
        <ele>279</ele>
        <time>2018-02-20T09:22:03.000Z</time>
      </trkpt>
      <trkpt lat="43.5275" lon="5.50745">
        <ele>279</ele>
        <time>2018-02-20T09:22:04.000Z</time>
      </trkpt>
      <trkpt lat="43.5275" lon="5.50746">
        <ele>279</ele>
        <time>2018-02-20T09:22:05.000Z</time>
      </trkpt>
      <trkpt lat="43.5275" lon="5.50746">
        <ele>279</ele>
        <time>2018-02-20T09:22:06.000Z</time>
      </trkpt>
      <trkpt lat="43.5275" lon="5.50746">
        <ele>279</ele>
        <time>2018-02-20T09:22:07.000Z</time>
      </trkpt>
      <trkpt lat="43.52749" lon="5.50746">
        <ele>280</ele>
        <time>2018-02-20T09:22:08.000Z</time>
      </trkpt>
      <trkpt lat="43.52748" lon="5.50745">
        <ele>280</ele>
        <time>2018-02-20T09:22:09.000Z</time>
      </trkpt>
      <trkpt lat="43.52748" lon="5.50745">
        <ele>280</ele>
        <time>2018-02-20T09:22:10.000Z</time>
      </trkpt>
      <trkpt lat="43.52747" lon="5.50744">
        <ele>280</ele>
        <time>2018-02-20T09:22:11.000Z</time>
      </trkpt>
      <trkpt lat="43.52746" lon="5.50744">
        <ele>280</ele>
        <time>2018-02-20T09:22:12.000Z</time>
      </trkpt>
      <trkpt lat="43.52746" lon="5.50743">
        <ele>281</ele>
        <time>2018-02-20T09:22:13.000Z</time>
      </trkpt>
      <trkpt lat="43.52745" lon="5.50743">
        <ele>281</ele>
        <time>2018-02-20T09:22:14.000Z</time>
      </trkpt>
      <trkpt lat="43.52744" lon="5.50743">
        <ele>281</ele>
        <time>2018-02-20T09:22:15.000Z</time>
      </trkpt>
      <trkpt lat="43.52744" lon="5.50743">
        <ele>281</ele>
        <time>2018-02-20T09:22:16.000Z</time>
      </trkpt>
      <trkpt lat="43.52743" lon="5.50742">
        <ele>281</ele>
        <time>2018-02-20T09:22:17.000Z</time>
      </trkpt>
      <trkpt lat="43.52742" lon="5.50742">
        <ele>282</ele>
        <time>2018-02-20T09:22:18.000Z</time>
      </trkpt>
      <trkpt lat="43.52742" lon="5.50743">
        <ele>282</ele>
        <time>2018-02-20T09:22:19.000Z</time>
      </trkpt>
      <trkpt lat="43.52741" lon="5.50743">
        <ele>282</ele>
        <time>2018-02-20T09:22:20.000Z</time>
      </trkpt>
      <trkpt lat="43.5274" lon="5.50743">
        <ele>282</ele>
        <time>2018-02-20T09:22:21.000Z</time>
      </trkpt>
      <trkpt lat="43.52739" lon="5.50743">
        <ele>282</ele>
        <time>2018-02-20T09:22:22.000Z</time>
      </trkpt>
      <trkpt lat="43.52738" lon="5.50743">
        <ele>282</ele>
        <time>2018-02-20T09:22:23.000Z</time>
      </trkpt>
      <trkpt lat="43.52738" lon="5.50743">
        <ele>282</ele>
        <time>2018-02-20T09:22:24.000Z</time>
      </trkpt>
      <trkpt lat="43.52737" lon="5.50743">
        <ele>282</ele>
        <time>2018-02-20T09:22:25.000Z</time>
      </trkpt>
      <trkpt lat="43.52736" lon="5.50742">
        <ele>282</ele>
        <time>2018-02-20T09:22:26.000Z</time>
      </trkpt>
      <trkpt lat="43.52736" lon="5.50742">
        <ele>282</ele>
        <time>2018-02-20T09:22:27.000Z</time>
      </trkpt>
      <trkpt lat="43.52735" lon="5.50742">
        <ele>282</ele>
        <time>2018-02-20T09:22:28.000Z</time>
      </trkpt>
      <trkpt lat="43.52735" lon="5.50741">
        <ele>282</ele>
        <time>2018-02-20T09:22:29.000Z</time>
      </trkpt>
      <trkpt lat="43.52734" lon="5.50741">
        <ele>282</ele>
        <time>2018-02-20T09:22:30.000Z</time>
      </trkpt>
      <trkpt lat="43.52733" lon="5.50741">
        <ele>282</ele>
        <time>2018-02-20T09:22:31.000Z</time>
      </trkpt>
      <trkpt lat="43.52732" lon="5.50741">
        <ele>282</ele>
        <time>2018-02-20T09:22:32.000Z</time>
      </trkpt>
      <trkpt lat="43.52731" lon="5.5074">
        <ele>281</ele>
        <time>2018-02-20T09:22:33.000Z</time>
      </trkpt>
      <trkpt lat="43.52731" lon="5.50739">
        <ele>281</ele>
        <time>2018-02-20T09:22:34.000Z</time>
      </trkpt>
      <trkpt lat="43.5273" lon="5.50739">
        <ele>281</ele>
        <time>2018-02-20T09:22:35.000Z</time>
      </trkpt>
      <trkpt lat="43.5273" lon="5.50738">
        <ele>281</ele>
        <time>2018-02-20T09:22:36.000Z</time>
      </trkpt>
      <trkpt lat="43.52729" lon="5.50738">
        <ele>281</ele>
        <time>2018-02-20T09:22:37.000Z</time>
      </trkpt>
      <trkpt lat="43.52728" lon="5.50738">
        <ele>281</ele>
        <time>2018-02-20T09:22:38.000Z</time>
      </trkpt>
      <trkpt lat="43.52728" lon="5.50737">
        <ele>281</ele>
        <time>2018-02-20T09:22:39.000Z</time>
      </trkpt>
      <trkpt lat="43.52727" lon="5.50737">
        <ele>281</ele>
        <time>2018-02-20T09:22:40.000Z</time>
      </trkpt>
      <trkpt lat="43.52726" lon="5.50736">
        <ele>281</ele>
        <time>2018-02-20T09:22:41.000Z</time>
      </trkpt>
      <trkpt lat="43.52726" lon="5.50736">
        <ele>282</ele>
        <time>2018-02-20T09:22:42.000Z</time>
      </trkpt>
      <trkpt lat="43.52725" lon="5.50735">
        <ele>282</ele>
        <time>2018-02-20T09:22:43.000Z</time>
      </trkpt>
      <trkpt lat="43.52724" lon="5.50735">
        <ele>282</ele>
        <time>2018-02-20T09:22:44.000Z</time>
      </trkpt>
      <trkpt lat="43.52723" lon="5.50735">
        <ele>282</ele>
        <time>2018-02-20T09:22:45.000Z</time>
      </trkpt>
      <trkpt lat="43.52722" lon="5.50734">
        <ele>282</ele>
        <time>2018-02-20T09:22:46.000Z</time>
      </trkpt>
      <trkpt lat="43.52722" lon="5.50733">
        <ele>282</ele>
        <time>2018-02-20T09:22:47.000Z</time>
      </trkpt>
      <trkpt lat="43.52721" lon="5.50733">
        <ele>282</ele>
        <time>2018-02-20T09:22:48.000Z</time>
      </trkpt>
      <trkpt lat="43.52721" lon="5.50733">
        <ele>282</ele>
        <time>2018-02-20T09:22:49.000Z</time>
      </trkpt>
      <trkpt lat="43.5272" lon="5.50732">
        <ele>283</ele>
        <time>2018-02-20T09:22:50.000Z</time>
      </trkpt>
      <trkpt lat="43.5272" lon="5.50731">
        <ele>283</ele>
        <time>2018-02-20T09:22:51.000Z</time>
      </trkpt>
      <trkpt lat="43.5272" lon="5.50731">
        <ele>283</ele>
        <time>2018-02-20T09:22:52.000Z</time>
      </trkpt>
      <trkpt lat="43.52719" lon="5.50731">
        <ele>283</ele>
        <time>2018-02-20T09:22:53.000Z</time>
      </trkpt>
      <trkpt lat="43.52719" lon="5.5073">
        <ele>283</ele>
        <time>2018-02-20T09:22:54.000Z</time>
      </trkpt>
      <trkpt lat="43.52718" lon="5.50729">
        <ele>283</ele>
        <time>2018-02-20T09:22:55.000Z</time>
      </trkpt>
      <trkpt lat="43.52718" lon="5.50728">
        <ele>283</ele>
        <time>2018-02-20T09:22:56.000Z</time>
      </trkpt>
      <trkpt lat="43.52718" lon="5.50727">
        <ele>283</ele>
        <time>2018-02-20T09:22:57.000Z</time>
      </trkpt>
      <trkpt lat="43.52717" lon="5.50727">
        <ele>283</ele>
        <time>2018-02-20T09:22:58.000Z</time>
      </trkpt>
      <trkpt lat="43.52717" lon="5.50726">
        <ele>283</ele>
        <time>2018-02-20T09:22:59.000Z</time>
      </trkpt>
      <trkpt lat="43.52716" lon="5.50726">
        <ele>283</ele>
        <time>2018-02-20T09:23:00.000Z</time>
      </trkpt>
      <trkpt lat="43.52715" lon="5.50726">
        <ele>283</ele>
        <time>2018-02-20T09:23:01.000Z</time>
      </trkpt>
      <trkpt lat="43.52715" lon="5.50726">
        <ele>284</ele>
        <time>2018-02-20T09:23:02.000Z</time>
      </trkpt>
      <trkpt lat="43.52715" lon="5.50725">
        <ele>284</ele>
        <time>2018-02-20T09:23:03.000Z</time>
      </trkpt>
      <trkpt lat="43.52714" lon="5.50725">
        <ele>284</ele>
        <time>2018-02-20T09:23:04.000Z</time>
      </trkpt>
      <trkpt lat="43.52713" lon="5.50724">
        <ele>284</ele>
        <time>2018-02-20T09:23:05.000Z</time>
      </trkpt>
      <trkpt lat="43.52713" lon="5.50724">
        <ele>285</ele>
        <time>2018-02-20T09:23:06.000Z</time>
      </trkpt>
      <trkpt lat="43.52712" lon="5.50723">
        <ele>285</ele>
        <time>2018-02-20T09:23:07.000Z</time>
      </trkpt>
      <trkpt lat="43.52712" lon="5.50723">
        <ele>285</ele>
        <time>2018-02-20T09:23:08.000Z</time>
      </trkpt>
      <trkpt lat="43.52711" lon="5.50723">
        <ele>285</ele>
        <time>2018-02-20T09:23:09.000Z</time>
      </trkpt>
      <trkpt lat="43.5271" lon="5.50722">
        <ele>285</ele>
        <time>2018-02-20T09:23:10.000Z</time>
      </trkpt>
      <trkpt lat="43.5271" lon="5.50722">
        <ele>285</ele>
        <time>2018-02-20T09:23:11.000Z</time>
      </trkpt>
      <trkpt lat="43.52709" lon="5.50722">
        <ele>285</ele>
        <time>2018-02-20T09:23:12.000Z</time>
      </trkpt>
      <trkpt lat="43.52708" lon="5.50721">
        <ele>285</ele>
        <time>2018-02-20T09:23:13.000Z</time>
      </trkpt>
      <trkpt lat="43.52708" lon="5.50721">
        <ele>286</ele>
        <time>2018-02-20T09:23:14.000Z</time>
      </trkpt>
      <trkpt lat="43.52708" lon="5.50721">
        <ele>286</ele>
        <time>2018-02-20T09:23:15.000Z</time>
      </trkpt>
      <trkpt lat="43.52707" lon="5.5072">
        <ele>286</ele>
        <time>2018-02-20T09:23:16.000Z</time>
      </trkpt>
      <trkpt lat="43.52707" lon="5.5072">
        <ele>286</ele>
        <time>2018-02-20T09:23:17.000Z</time>
      </trkpt>
      <trkpt lat="43.52707" lon="5.5072">
        <ele>286</ele>
        <time>2018-02-20T09:23:18.000Z</time>
      </trkpt>
      <trkpt lat="43.52706" lon="5.5072">
        <ele>287</ele>
        <time>2018-02-20T09:23:19.000Z</time>
      </trkpt>
      <trkpt lat="43.52706" lon="5.5072">
        <ele>287</ele>
        <time>2018-02-20T09:23:20.000Z</time>
      </trkpt>
      <trkpt lat="43.52706" lon="5.50721">
        <ele>287</ele>
        <time>2018-02-20T09:23:21.000Z</time>
      </trkpt>
      <trkpt lat="43.52706" lon="5.50721">
        <ele>288</ele>
        <time>2018-02-20T09:23:22.000Z</time>
      </trkpt>
      <trkpt lat="43.52706" lon="5.50721">
        <ele>288</ele>
        <time>2018-02-20T09:23:23.000Z</time>
      </trkpt>
      <trkpt lat="43.52705" lon="5.50721">
        <ele>288</ele>
        <time>2018-02-20T09:23:24.000Z</time>
      </trkpt>
      <trkpt lat="43.52705" lon="5.50721">
        <ele>288</ele>
        <time>2018-02-20T09:23:25.000Z</time>
      </trkpt>
      <trkpt lat="43.52705" lon="5.50721">
        <ele>289</ele>
        <time>2018-02-20T09:23:26.000Z</time>
      </trkpt>
      <trkpt lat="43.52705" lon="5.50722">
        <ele>289</ele>
        <time>2018-02-20T09:23:27.000Z</time>
      </trkpt>
      <trkpt lat="43.52705" lon="5.50722">
        <ele>289</ele>
        <time>2018-02-20T09:23:28.000Z</time>
      </trkpt>
      <trkpt lat="43.52705" lon="5.50722">
        <ele>289</ele>
        <time>2018-02-20T09:23:29.000Z</time>
      </trkpt>
      <trkpt lat="43.52705" lon="5.50722">
        <ele>289</ele>
        <time>2018-02-20T09:23:30.000Z</time>
      </trkpt>
      <trkpt lat="43.52704" lon="5.50722">
        <ele>290</ele>
        <time>2018-02-20T09:23:31.000Z</time>
      </trkpt>
      <trkpt lat="43.52704" lon="5.50722">
        <ele>290</ele>
        <time>2018-02-20T09:23:32.000Z</time>
      </trkpt>
      <trkpt lat="43.52704" lon="5.50722">
        <ele>290</ele>
        <time>2018-02-20T09:23:33.000Z</time>
      </trkpt>
      <trkpt lat="43.52704" lon="5.50722">
        <ele>290</ele>
        <time>2018-02-20T09:23:34.000Z</time>
      </trkpt>
      <trkpt lat="43.52704" lon="5.50722">
        <ele>290</ele>
        <time>2018-02-20T09:23:35.000Z</time>
      </trkpt>
      <trkpt lat="43.52704" lon="5.50722">
        <ele>291</ele>
        <time>2018-02-20T09:23:36.000Z</time>
      </trkpt>
      <trkpt lat="43.52704" lon="5.50723">
        <ele>291</ele>
        <time>2018-02-20T09:23:37.000Z</time>
      </trkpt>
      <trkpt lat="43.52704" lon="5.50723">
        <ele>291</ele>
        <time>2018-02-20T09:23:38.000Z</time>
      </trkpt>
      <trkpt lat="43.52704" lon="5.50723">
        <ele>291</ele>
        <time>2018-02-20T09:23:39.000Z</time>
      </trkpt>
      <trkpt lat="43.52704" lon="5.50723">
        <ele>291</ele>
        <time>2018-02-20T09:23:40.000Z</time>
      </trkpt>
      <trkpt lat="43.52703" lon="5.50723">
        <ele>291</ele>
        <time>2018-02-20T09:23:41.000Z</time>
      </trkpt>
      <trkpt lat="43.52703" lon="5.50723">
        <ele>291</ele>
        <time>2018-02-20T09:23:42.000Z</time>
      </trkpt>
      <trkpt lat="43.52703" lon="5.50723">
        <ele>291</ele>
        <time>2018-02-20T09:23:43.000Z</time>
      </trkpt>
      <trkpt lat="43.52703" lon="5.50723">
        <ele>291</ele>
        <time>2018-02-20T09:23:44.000Z</time>
      </trkpt>
      <trkpt lat="43.52703" lon="5.50723">
        <ele>292</ele>
        <time>2018-02-20T09:23:45.000Z</time>
      </trkpt>
      <trkpt lat="43.52703" lon="5.50723">
        <ele>292</ele>
        <time>2018-02-20T09:23:46.000Z</time>
      </trkpt>
      <trkpt lat="43.52703" lon="5.50723">
        <ele>292</ele>
        <time>2018-02-20T09:23:47.000Z</time>
      </trkpt>
      <trkpt lat="43.52703" lon="5.50723">
        <ele>292</ele>
        <time>2018-02-20T09:23:48.000Z</time>
      </trkpt>
      <trkpt lat="43.52703" lon="5.50723">
        <ele>292</ele>
        <time>2018-02-20T09:23:49.000Z</time>
      </trkpt>
      <trkpt lat="43.52703" lon="5.50723">
        <ele>292</ele>
        <time>2018-02-20T09:23:50.000Z</time>
      </trkpt>
      <trkpt lat="43.52703" lon="5.50723">
        <ele>292</ele>
        <time>2018-02-20T09:23:51.000Z</time>
      </trkpt>
      <trkpt lat="43.52703" lon="5.50723">
        <ele>292</ele>
        <time>2018-02-20T09:23:52.000Z</time>
      </trkpt>
      <trkpt lat="43.52703" lon="5.50723">
        <ele>292</ele>
        <time>2018-02-20T09:23:53.000Z</time>
      </trkpt>
      <trkpt lat="43.52703" lon="5.50723">
        <ele>292</ele>
        <time>2018-02-20T09:23:54.000Z</time>
      </trkpt>
      <trkpt lat="43.52703" lon="5.50722">
        <ele>292</ele>
        <time>2018-02-20T09:23:55.000Z</time>
      </trkpt>
      <trkpt lat="43.52703" lon="5.50722">
        <ele>292</ele>
        <time>2018-02-20T09:23:56.000Z</time>
      </trkpt>
      <trkpt lat="43.52702" lon="5.50722">
        <ele>292</ele>
        <time>2018-02-20T09:23:57.000Z</time>
      </trkpt>
      <trkpt lat="43.527" lon="5.50722">
        <ele>292</ele>
        <time>2018-02-20T09:23:58.000Z</time>
      </trkpt>
      <trkpt lat="43.52699" lon="5.50721">
        <ele>292</ele>
        <time>2018-02-20T09:23:59.000Z</time>
      </trkpt>
      <trkpt lat="43.52698" lon="5.50721">
        <ele>291</ele>
        <time>2018-02-20T09:24:00.000Z</time>
      </trkpt>
      <trkpt lat="43.52697" lon="5.5072">
        <ele>291</ele>
        <time>2018-02-20T09:24:01.000Z</time>
      </trkpt>
      <trkpt lat="43.52696" lon="5.5072">
        <ele>291</ele>
        <time>2018-02-20T09:24:02.000Z</time>
      </trkpt>
      <trkpt lat="43.52696" lon="5.50719">
        <ele>291</ele>
        <time>2018-02-20T09:24:03.000Z</time>
      </trkpt>
      <trkpt lat="43.52696" lon="5.50719">
        <ele>291</ele>
        <time>2018-02-20T09:24:04.000Z</time>
      </trkpt>
      <trkpt lat="43.52696" lon="5.50719">
        <ele>291</ele>
        <time>2018-02-20T09:24:05.000Z</time>
      </trkpt>
      <trkpt lat="43.52696" lon="5.50719">
        <ele>291</ele>
        <time>2018-02-20T09:24:06.000Z</time>
      </trkpt>
      <trkpt lat="43.52696" lon="5.50719">
        <ele>291</ele>
        <time>2018-02-20T09:24:07.000Z</time>
      </trkpt>
      <trkpt lat="43.52696" lon="5.50719">
        <ele>291</ele>
        <time>2018-02-20T09:24:08.000Z</time>
      </trkpt>
      <trkpt lat="43.52696" lon="5.50719">
        <ele>291</ele>
        <time>2018-02-20T09:24:09.000Z</time>
      </trkpt>
      <trkpt lat="43.52696" lon="5.50719">
        <ele>291</ele>
        <time>2018-02-20T09:24:10.000Z</time>
      </trkpt>
      <trkpt lat="43.52696" lon="5.50719">
        <ele>291</ele>
        <time>2018-02-20T09:24:11.000Z</time>
      </trkpt>
      <trkpt lat="43.52696" lon="5.50719">
        <ele>290</ele>
        <time>2018-02-20T09:24:12.000Z</time>
      </trkpt>
      <trkpt lat="43.52696" lon="5.50719">
        <ele>290</ele>
        <time>2018-02-20T09:24:13.000Z</time>
      </trkpt>
      <trkpt lat="43.52696" lon="5.50719">
        <ele>290</ele>
        <time>2018-02-20T09:24:14.000Z</time>
      </trkpt>
      <trkpt lat="43.52696" lon="5.50718">
        <ele>290</ele>
        <time>2018-02-20T09:24:15.000Z</time>
      </trkpt>
      <trkpt lat="43.52696" lon="5.50718">
        <ele>290</ele>
        <time>2018-02-20T09:24:16.000Z</time>
      </trkpt>
      <trkpt lat="43.52696" lon="5.50718">
        <ele>290</ele>
        <time>2018-02-20T09:24:17.000Z</time>
      </trkpt>
      <trkpt lat="43.52696" lon="5.50718">
        <ele>290</ele>
        <time>2018-02-20T09:24:18.000Z</time>
      </trkpt>
      <trkpt lat="43.52696" lon="5.50718">
        <ele>290</ele>
        <time>2018-02-20T09:24:19.000Z</time>
      </trkpt>
      <trkpt lat="43.52696" lon="5.50718">
        <ele>290</ele>
        <time>2018-02-20T09:24:20.000Z</time>
      </trkpt>
      <trkpt lat="43.52696" lon="5.50718">
        <ele>290</ele>
        <time>2018-02-20T09:24:21.000Z</time>
      </trkpt>
      <trkpt lat="43.52696" lon="5.50718">
        <ele>290</ele>
        <time>2018-02-20T09:24:22.000Z</time>
      </trkpt>
      <trkpt lat="43.52697" lon="5.50718">
        <ele>290</ele>
        <time>2018-02-20T09:24:23.000Z</time>
      </trkpt>
      <trkpt lat="43.52697" lon="5.50718">
        <ele>290</ele>
        <time>2018-02-20T09:24:24.000Z</time>
      </trkpt>
      <trkpt lat="43.52697" lon="5.50718">
        <ele>290</ele>
        <time>2018-02-20T09:24:25.000Z</time>
      </trkpt>
      <trkpt lat="43.52696" lon="5.50718">
        <ele>290</ele>
        <time>2018-02-20T09:24:26.000Z</time>
      </trkpt>
      <trkpt lat="43.52696" lon="5.50717">
        <ele>290</ele>
        <time>2018-02-20T09:24:27.000Z</time>
      </trkpt>
      <trkpt lat="43.52695" lon="5.50717">
        <ele>289</ele>
        <time>2018-02-20T09:24:28.000Z</time>
      </trkpt>
      <trkpt lat="43.52694" lon="5.50716">
        <ele>289</ele>
        <time>2018-02-20T09:24:29.000Z</time>
      </trkpt>
      <trkpt lat="43.52693" lon="5.50716">
        <ele>289</ele>
        <time>2018-02-20T09:24:30.000Z</time>
      </trkpt>
      <trkpt lat="43.52692" lon="5.50715">
        <ele>289</ele>
        <time>2018-02-20T09:24:31.000Z</time>
      </trkpt>
      <trkpt lat="43.52692" lon="5.50714">
        <ele>289</ele>
        <time>2018-02-20T09:24:32.000Z</time>
      </trkpt>
      <trkpt lat="43.52691" lon="5.50714">
        <ele>289</ele>
        <time>2018-02-20T09:24:33.000Z</time>
      </trkpt>
      <trkpt lat="43.5269" lon="5.50714">
        <ele>289</ele>
        <time>2018-02-20T09:24:34.000Z</time>
      </trkpt>
      <trkpt lat="43.52689" lon="5.50713">
        <ele>289</ele>
        <time>2018-02-20T09:24:35.000Z</time>
      </trkpt>
      <trkpt lat="43.52689" lon="5.50713">
        <ele>289</ele>
        <time>2018-02-20T09:24:36.000Z</time>
      </trkpt>
      <trkpt lat="43.52688" lon="5.50713">
        <ele>289</ele>
        <time>2018-02-20T09:24:37.000Z</time>
      </trkpt>
      <trkpt lat="43.52687" lon="5.50713">
        <ele>289</ele>
        <time>2018-02-20T09:24:38.000Z</time>
      </trkpt>
      <trkpt lat="43.52686" lon="5.50713">
        <ele>289</ele>
        <time>2018-02-20T09:24:39.000Z</time>
      </trkpt>
      <trkpt lat="43.52685" lon="5.50713">
        <ele>289</ele>
        <time>2018-02-20T09:24:40.000Z</time>
      </trkpt>
      <trkpt lat="43.52684" lon="5.50713">
        <ele>288</ele>
        <time>2018-02-20T09:24:41.000Z</time>
      </trkpt>
      <trkpt lat="43.52683" lon="5.50712">
        <ele>288</ele>
        <time>2018-02-20T09:24:42.000Z</time>
      </trkpt>
      <trkpt lat="43.52682" lon="5.50712">
        <ele>288</ele>
        <time>2018-02-20T09:24:43.000Z</time>
      </trkpt>
      <trkpt lat="43.52681" lon="5.50712">
        <ele>288</ele>
        <time>2018-02-20T09:24:44.000Z</time>
      </trkpt>
      <trkpt lat="43.52681" lon="5.50713">
        <ele>288</ele>
        <time>2018-02-20T09:24:45.000Z</time>
      </trkpt>
      <trkpt lat="43.5268" lon="5.50713">
        <ele>288</ele>
        <time>2018-02-20T09:24:46.000Z</time>
      </trkpt>
      <trkpt lat="43.52679" lon="5.50713">
        <ele>288</ele>
        <time>2018-02-20T09:24:47.000Z</time>
      </trkpt>
      <trkpt lat="43.52679" lon="5.50713">
        <ele>288</ele>
        <time>2018-02-20T09:24:48.000Z</time>
      </trkpt>
      <trkpt lat="43.52678" lon="5.50713">
        <ele>288</ele>
        <time>2018-02-20T09:24:49.000Z</time>
      </trkpt>
      <trkpt lat="43.52678" lon="5.50714">
        <ele>288</ele>
        <time>2018-02-20T09:24:50.000Z</time>
      </trkpt>
      <trkpt lat="43.52678" lon="5.50714">
        <ele>288</ele>
        <time>2018-02-20T09:24:51.000Z</time>
      </trkpt>
      <trkpt lat="43.52678" lon="5.50714">
        <ele>288</ele>
        <time>2018-02-20T09:24:52.000Z</time>
      </trkpt>
      <trkpt lat="43.52678" lon="5.50714">
        <ele>288</ele>
        <time>2018-02-20T09:24:53.000Z</time>
      </trkpt>
      <trkpt lat="43.52678" lon="5.50714">
        <ele>288</ele>
        <time>2018-02-20T09:24:54.000Z</time>
      </trkpt>
      <trkpt lat="43.52678" lon="5.50714">
        <ele>289</ele>
        <time>2018-02-20T09:24:55.000Z</time>
      </trkpt>
      <trkpt lat="43.52678" lon="5.50714">
        <ele>289</ele>
        <time>2018-02-20T09:24:56.000Z</time>
      </trkpt>
      <trkpt lat="43.52678" lon="5.50714">
        <ele>289</ele>
        <time>2018-02-20T09:24:57.000Z</time>
      </trkpt>
      <trkpt lat="43.52678" lon="5.50714">
        <ele>289</ele>
        <time>2018-02-20T09:24:58.000Z</time>
      </trkpt>
      <trkpt lat="43.52677" lon="5.50714">
        <ele>289</ele>
        <time>2018-02-20T09:24:59.000Z</time>
      </trkpt>
      <trkpt lat="43.52677" lon="5.50714">
        <ele>289</ele>
        <time>2018-02-20T09:25:00.000Z</time>
      </trkpt>
      <trkpt lat="43.52677" lon="5.50714">
        <ele>289</ele>
        <time>2018-02-20T09:25:01.000Z</time>
      </trkpt>
      <trkpt lat="43.52677" lon="5.50714">
        <ele>289</ele>
        <time>2018-02-20T09:25:02.000Z</time>
      </trkpt>
      <trkpt lat="43.52677" lon="5.50714">
        <ele>289</ele>
        <time>2018-02-20T09:25:03.000Z</time>
      </trkpt>
      <trkpt lat="43.52677" lon="5.50714">
        <ele>289</ele>
        <time>2018-02-20T09:25:04.000Z</time>
      </trkpt>
      <trkpt lat="43.52677" lon="5.50714">
        <ele>289</ele>
        <time>2018-02-20T09:25:05.000Z</time>
      </trkpt>
      <trkpt lat="43.52677" lon="5.50714">
        <ele>290</ele>
        <time>2018-02-20T09:25:06.000Z</time>
      </trkpt>
      <trkpt lat="43.52676" lon="5.50714">
        <ele>290</ele>
        <time>2018-02-20T09:25:07.000Z</time>
      </trkpt>
      <trkpt lat="43.52676" lon="5.50714">
        <ele>290</ele>
        <time>2018-02-20T09:25:08.000Z</time>
      </trkpt>
      <trkpt lat="43.52676" lon="5.50714">
        <ele>290</ele>
        <time>2018-02-20T09:25:09.000Z</time>
      </trkpt>
      <trkpt lat="43.52676" lon="5.50714">
        <ele>290</ele>
        <time>2018-02-20T09:25:10.000Z</time>
      </trkpt>
      <trkpt lat="43.52676" lon="5.50713">
        <ele>290</ele>
        <time>2018-02-20T09:25:11.000Z</time>
      </trkpt>
      <trkpt lat="43.52676" lon="5.50712">
        <ele>290</ele>
        <time>2018-02-20T09:25:12.000Z</time>
      </trkpt>
      <trkpt lat="43.52676" lon="5.50712">
        <ele>290</ele>
        <time>2018-02-20T09:25:13.000Z</time>
      </trkpt>
      <trkpt lat="43.52675" lon="5.5071">
        <ele>290</ele>
        <time>2018-02-20T09:25:14.000Z</time>
      </trkpt>
      <trkpt lat="43.52675" lon="5.50709">
        <ele>290</ele>
        <time>2018-02-20T09:25:15.000Z</time>
      </trkpt>
      <trkpt lat="43.52675" lon="5.50708">
        <ele>291</ele>
        <time>2018-02-20T09:25:16.000Z</time>
      </trkpt>
      <trkpt lat="43.52675" lon="5.50707">
        <ele>291</ele>
        <time>2018-02-20T09:25:17.000Z</time>
      </trkpt>
      <trkpt lat="43.52675" lon="5.50706">
        <ele>291</ele>
        <time>2018-02-20T09:25:18.000Z</time>
      </trkpt>
      <trkpt lat="43.52675" lon="5.50705">
        <ele>291</ele>
        <time>2018-02-20T09:25:19.000Z</time>
      </trkpt>
      <trkpt lat="43.52676" lon="5.50704">
        <ele>291</ele>
        <time>2018-02-20T09:25:20.000Z</time>
      </trkpt>
      <trkpt lat="43.52676" lon="5.50703">
        <ele>291</ele>
        <time>2018-02-20T09:25:21.000Z</time>
      </trkpt>
      <trkpt lat="43.52677" lon="5.50703">
        <ele>291</ele>
        <time>2018-02-20T09:25:22.000Z</time>
      </trkpt>
      <trkpt lat="43.52678" lon="5.50702">
        <ele>291</ele>
        <time>2018-02-20T09:25:23.000Z</time>
      </trkpt>
      <trkpt lat="43.52679" lon="5.50702">
        <ele>291</ele>
        <time>2018-02-20T09:25:24.000Z</time>
      </trkpt>
      <trkpt lat="43.5268" lon="5.50701">
        <ele>291</ele>
        <time>2018-02-20T09:25:25.000Z</time>
      </trkpt>
      <trkpt lat="43.5268" lon="5.50701">
        <ele>291</ele>
        <time>2018-02-20T09:25:26.000Z</time>
      </trkpt>
      <trkpt lat="43.52681" lon="5.507">
        <ele>291</ele>
        <time>2018-02-20T09:25:27.000Z</time>
      </trkpt>
      <trkpt lat="43.52681" lon="5.507">
        <ele>291</ele>
        <time>2018-02-20T09:25:28.000Z</time>
      </trkpt>
      <trkpt lat="43.52681" lon="5.507">
        <ele>291</ele>
        <time>2018-02-20T09:25:29.000Z</time>
      </trkpt>
      <trkpt lat="43.52681" lon="5.507">
        <ele>291</ele>
        <time>2018-02-20T09:25:30.000Z</time>
      </trkpt>
      <trkpt lat="43.52682" lon="5.50699">
        <ele>291</ele>
        <time>2018-02-20T09:25:31.000Z</time>
      </trkpt>
      <trkpt lat="43.52683" lon="5.50699">
        <ele>291</ele>
        <time>2018-02-20T09:25:32.000Z</time>
      </trkpt>
      <trkpt lat="43.52684" lon="5.50698">
        <ele>291</ele>
        <time>2018-02-20T09:25:33.000Z</time>
      </trkpt>
      <trkpt lat="43.52685" lon="5.50698">
        <ele>291</ele>
        <time>2018-02-20T09:25:34.000Z</time>
      </trkpt>
      <trkpt lat="43.52686" lon="5.50697">
        <ele>291</ele>
        <time>2018-02-20T09:25:35.000Z</time>
      </trkpt>
      <trkpt lat="43.52687" lon="5.50697">
        <ele>291</ele>
        <time>2018-02-20T09:25:36.000Z</time>
      </trkpt>
      <trkpt lat="43.52688" lon="5.50696">
        <ele>291</ele>
        <time>2018-02-20T09:25:37.000Z</time>
      </trkpt>
      <trkpt lat="43.52689" lon="5.50696">
        <ele>292</ele>
        <time>2018-02-20T09:25:38.000Z</time>
      </trkpt>
      <trkpt lat="43.5269" lon="5.50695">
        <ele>292</ele>
        <time>2018-02-20T09:25:39.000Z</time>
      </trkpt>
      <trkpt lat="43.52691" lon="5.50695">
        <ele>292</ele>
        <time>2018-02-20T09:25:40.000Z</time>
      </trkpt>
      <trkpt lat="43.52691" lon="5.50695">
        <ele>292</ele>
        <time>2018-02-20T09:25:41.000Z</time>
      </trkpt>
      <trkpt lat="43.52692" lon="5.50695">
        <ele>292</ele>
        <time>2018-02-20T09:25:42.000Z</time>
      </trkpt>
      <trkpt lat="43.52693" lon="5.50695">
        <ele>292</ele>
        <time>2018-02-20T09:25:43.000Z</time>
      </trkpt>
      <trkpt lat="43.52695" lon="5.50694">
        <ele>292</ele>
        <time>2018-02-20T09:25:44.000Z</time>
      </trkpt>
      <trkpt lat="43.52696" lon="5.50694">
        <ele>292</ele>
        <time>2018-02-20T09:25:45.000Z</time>
      </trkpt>
      <trkpt lat="43.52696" lon="5.50693">
        <ele>292</ele>
        <time>2018-02-20T09:25:46.000Z</time>
      </trkpt>
      <trkpt lat="43.52696" lon="5.50693">
        <ele>293</ele>
        <time>2018-02-20T09:25:47.000Z</time>
      </trkpt>
      <trkpt lat="43.52697" lon="5.50693">
        <ele>293</ele>
        <time>2018-02-20T09:25:48.000Z</time>
      </trkpt>
      <trkpt lat="43.52697" lon="5.50693">
        <ele>293</ele>
        <time>2018-02-20T09:25:49.000Z</time>
      </trkpt>
      <trkpt lat="43.52698" lon="5.50693">
        <ele>293</ele>
        <time>2018-02-20T09:25:50.000Z</time>
      </trkpt>
      <trkpt lat="43.52699" lon="5.50692">
        <ele>293</ele>
        <time>2018-02-20T09:25:51.000Z</time>
      </trkpt>
      <trkpt lat="43.52699" lon="5.50692">
        <ele>293</ele>
        <time>2018-02-20T09:25:52.000Z</time>
      </trkpt>
      <trkpt lat="43.52699" lon="5.50692">
        <ele>293</ele>
        <time>2018-02-20T09:25:53.000Z</time>
      </trkpt>
      <trkpt lat="43.527" lon="5.50692">
        <ele>293</ele>
        <time>2018-02-20T09:25:54.000Z</time>
      </trkpt>
      <trkpt lat="43.52701" lon="5.50692">
        <ele>293</ele>
        <time>2018-02-20T09:25:55.000Z</time>
      </trkpt>
      <trkpt lat="43.52702" lon="5.50692">
        <ele>293</ele>
        <time>2018-02-20T09:25:56.000Z</time>
      </trkpt>
      <trkpt lat="43.52703" lon="5.50692">
        <ele>293</ele>
        <time>2018-02-20T09:25:57.000Z</time>
      </trkpt>
      <trkpt lat="43.52703" lon="5.50692">
        <ele>293</ele>
        <time>2018-02-20T09:25:58.000Z</time>
      </trkpt>
      <trkpt lat="43.52704" lon="5.50691">
        <ele>293</ele>
        <time>2018-02-20T09:25:59.000Z</time>
      </trkpt>
      <trkpt lat="43.52705" lon="5.50691">
        <ele>293</ele>
        <time>2018-02-20T09:26:00.000Z</time>
      </trkpt>
      <trkpt lat="43.52706" lon="5.50691">
        <ele>293</ele>
        <time>2018-02-20T09:26:01.000Z</time>
      </trkpt>
      <trkpt lat="43.52707" lon="5.50691">
        <ele>293</ele>
        <time>2018-02-20T09:26:02.000Z</time>
      </trkpt>
      <trkpt lat="43.52708" lon="5.5069">
        <ele>293</ele>
        <time>2018-02-20T09:26:03.000Z</time>
      </trkpt>
      <trkpt lat="43.52709" lon="5.5069">
        <ele>293</ele>
        <time>2018-02-20T09:26:04.000Z</time>
      </trkpt>
      <trkpt lat="43.5271" lon="5.5069">
        <ele>293</ele>
        <time>2018-02-20T09:26:05.000Z</time>
      </trkpt>
      <trkpt lat="43.52711" lon="5.5069">
        <ele>293</ele>
        <time>2018-02-20T09:26:06.000Z</time>
      </trkpt>
      <trkpt lat="43.52713" lon="5.50689">
        <ele>293</ele>
        <time>2018-02-20T09:26:07.000Z</time>
      </trkpt>
      <trkpt lat="43.52714" lon="5.50689">
        <ele>293</ele>
        <time>2018-02-20T09:26:08.000Z</time>
      </trkpt>
      <trkpt lat="43.52715" lon="5.50689">
        <ele>293</ele>
        <time>2018-02-20T09:26:09.000Z</time>
      </trkpt>
      <trkpt lat="43.52716" lon="5.50688">
        <ele>293</ele>
        <time>2018-02-20T09:26:10.000Z</time>
      </trkpt>
      <trkpt lat="43.52717" lon="5.50687">
        <ele>293</ele>
        <time>2018-02-20T09:26:11.000Z</time>
      </trkpt>
      <trkpt lat="43.52719" lon="5.50687">
        <ele>293</ele>
        <time>2018-02-20T09:26:12.000Z</time>
      </trkpt>
      <trkpt lat="43.5272" lon="5.50687">
        <ele>293</ele>
        <time>2018-02-20T09:26:13.000Z</time>
      </trkpt>
      <trkpt lat="43.52721" lon="5.50686">
        <ele>293</ele>
        <time>2018-02-20T09:26:14.000Z</time>
      </trkpt>
      <trkpt lat="43.52722" lon="5.50686">
        <ele>293</ele>
        <time>2018-02-20T09:26:15.000Z</time>
      </trkpt>
      <trkpt lat="43.52723" lon="5.50685">
        <ele>293</ele>
        <time>2018-02-20T09:26:16.000Z</time>
      </trkpt>
      <trkpt lat="43.52724" lon="5.50685">
        <ele>293</ele>
        <time>2018-02-20T09:26:17.000Z</time>
      </trkpt>
      <trkpt lat="43.52725" lon="5.50685">
        <ele>293</ele>
        <time>2018-02-20T09:26:18.000Z</time>
      </trkpt>
      <trkpt lat="43.52726" lon="5.50685">
        <ele>293</ele>
        <time>2018-02-20T09:26:19.000Z</time>
      </trkpt>
      <trkpt lat="43.52728" lon="5.50684">
        <ele>294</ele>
        <time>2018-02-20T09:26:20.000Z</time>
      </trkpt>
      <trkpt lat="43.52729" lon="5.50684">
        <ele>294</ele>
        <time>2018-02-20T09:26:21.000Z</time>
      </trkpt>
      <trkpt lat="43.5273" lon="5.50684">
        <ele>294</ele>
        <time>2018-02-20T09:26:22.000Z</time>
      </trkpt>
      <trkpt lat="43.52731" lon="5.50683">
        <ele>294</ele>
        <time>2018-02-20T09:26:23.000Z</time>
      </trkpt>
      <trkpt lat="43.52733" lon="5.50683">
        <ele>294</ele>
        <time>2018-02-20T09:26:24.000Z</time>
      </trkpt>
      <trkpt lat="43.52734" lon="5.50683">
        <ele>294</ele>
        <time>2018-02-20T09:26:25.000Z</time>
      </trkpt>
      <trkpt lat="43.52735" lon="5.50683">
        <ele>294</ele>
        <time>2018-02-20T09:26:26.000Z</time>
      </trkpt>
      <trkpt lat="43.52736" lon="5.50683">
        <ele>294</ele>
        <time>2018-02-20T09:26:27.000Z</time>
      </trkpt>
      <trkpt lat="43.52737" lon="5.50683">
        <ele>294</ele>
        <time>2018-02-20T09:26:28.000Z</time>
      </trkpt>
      <trkpt lat="43.52739" lon="5.50682">
        <ele>294</ele>
        <time>2018-02-20T09:26:29.000Z</time>
      </trkpt>
      <trkpt lat="43.5274" lon="5.50682">
        <ele>294</ele>
        <time>2018-02-20T09:26:30.000Z</time>
      </trkpt>
      <trkpt lat="43.52741" lon="5.50681">
        <ele>294</ele>
        <time>2018-02-20T09:26:31.000Z</time>
      </trkpt>
      <trkpt lat="43.52742" lon="5.50681">
        <ele>295</ele>
        <time>2018-02-20T09:26:32.000Z</time>
      </trkpt>
      <trkpt lat="43.52743" lon="5.50681">
        <ele>295</ele>
        <time>2018-02-20T09:26:33.000Z</time>
      </trkpt>
      <trkpt lat="43.52744" lon="5.5068">
        <ele>295</ele>
        <time>2018-02-20T09:26:34.000Z</time>
      </trkpt>
      <trkpt lat="43.52745" lon="5.5068">
        <ele>295</ele>
        <time>2018-02-20T09:26:35.000Z</time>
      </trkpt>
      <trkpt lat="43.52746" lon="5.5068">
        <ele>295</ele>
        <time>2018-02-20T09:26:36.000Z</time>
      </trkpt>
      <trkpt lat="43.52747" lon="5.5068">
        <ele>295</ele>
        <time>2018-02-20T09:26:37.000Z</time>
      </trkpt>
      <trkpt lat="43.52747" lon="5.5068">
        <ele>295</ele>
        <time>2018-02-20T09:26:38.000Z</time>
      </trkpt>
      <trkpt lat="43.52748" lon="5.50681">
        <ele>295</ele>
        <time>2018-02-20T09:26:39.000Z</time>
      </trkpt>
      <trkpt lat="43.52748" lon="5.50681">
        <ele>295</ele>
        <time>2018-02-20T09:26:40.000Z</time>
      </trkpt>
      <trkpt lat="43.52749" lon="5.5068">
        <ele>295</ele>
        <time>2018-02-20T09:26:41.000Z</time>
      </trkpt>
      <trkpt lat="43.5275" lon="5.50681">
        <ele>295</ele>
        <time>2018-02-20T09:26:42.000Z</time>
      </trkpt>
      <trkpt lat="43.5275" lon="5.50681">
        <ele>295</ele>
        <time>2018-02-20T09:26:43.000Z</time>
      </trkpt>
      <trkpt lat="43.5275" lon="5.50681">
        <ele>295</ele>
        <time>2018-02-20T09:26:44.000Z</time>
      </trkpt>
      <trkpt lat="43.52751" lon="5.50681">
        <ele>295</ele>
        <time>2018-02-20T09:26:45.000Z</time>
      </trkpt>
      <trkpt lat="43.52752" lon="5.50681">
        <ele>295</ele>
        <time>2018-02-20T09:26:46.000Z</time>
      </trkpt>
      <trkpt lat="43.52753" lon="5.5068">
        <ele>295</ele>
        <time>2018-02-20T09:26:47.000Z</time>
      </trkpt>
      <trkpt lat="43.52754" lon="5.5068">
        <ele>295</ele>
        <time>2018-02-20T09:26:48.000Z</time>
      </trkpt>
      <trkpt lat="43.52756" lon="5.5068">
        <ele>295</ele>
        <time>2018-02-20T09:26:49.000Z</time>
      </trkpt>
      <trkpt lat="43.52757" lon="5.5068">
        <ele>295</ele>
        <time>2018-02-20T09:26:50.000Z</time>
      </trkpt>
      <trkpt lat="43.52758" lon="5.5068">
        <ele>295</ele>
        <time>2018-02-20T09:26:51.000Z</time>
      </trkpt>
      <trkpt lat="43.52759" lon="5.5068">
        <ele>295</ele>
        <time>2018-02-20T09:26:52.000Z</time>
      </trkpt>
      <trkpt lat="43.5276" lon="5.5068">
        <ele>295</ele>
        <time>2018-02-20T09:26:53.000Z</time>
      </trkpt>
      <trkpt lat="43.52761" lon="5.5068">
        <ele>295</ele>
        <time>2018-02-20T09:26:54.000Z</time>
      </trkpt>
      <trkpt lat="43.52762" lon="5.50679">
        <ele>295</ele>
        <time>2018-02-20T09:26:55.000Z</time>
      </trkpt>
      <trkpt lat="43.52763" lon="5.50679">
        <ele>295</ele>
        <time>2018-02-20T09:26:56.000Z</time>
      </trkpt>
      <trkpt lat="43.52765" lon="5.50679">
        <ele>296</ele>
        <time>2018-02-20T09:26:57.000Z</time>
      </trkpt>
      <trkpt lat="43.52766" lon="5.50679">
        <ele>296</ele>
        <time>2018-02-20T09:26:58.000Z</time>
      </trkpt>
      <trkpt lat="43.52767" lon="5.50679">
        <ele>296</ele>
        <time>2018-02-20T09:26:59.000Z</time>
      </trkpt>
      <trkpt lat="43.52768" lon="5.50678">
        <ele>296</ele>
        <time>2018-02-20T09:27:00.000Z</time>
      </trkpt>
      <trkpt lat="43.52769" lon="5.50678">
        <ele>296</ele>
        <time>2018-02-20T09:27:01.000Z</time>
      </trkpt>
      <trkpt lat="43.5277" lon="5.50678">
        <ele>296</ele>
        <time>2018-02-20T09:27:02.000Z</time>
      </trkpt>
      <trkpt lat="43.52771" lon="5.50678">
        <ele>296</ele>
        <time>2018-02-20T09:27:03.000Z</time>
      </trkpt>
      <trkpt lat="43.52772" lon="5.50678">
        <ele>295</ele>
        <time>2018-02-20T09:27:04.000Z</time>
      </trkpt>
      <trkpt lat="43.52774" lon="5.50678">
        <ele>295</ele>
        <time>2018-02-20T09:27:05.000Z</time>
      </trkpt>
      <trkpt lat="43.52775" lon="5.50677">
        <ele>295</ele>
        <time>2018-02-20T09:27:06.000Z</time>
      </trkpt>
      <trkpt lat="43.52777" lon="5.50677">
        <ele>295</ele>
        <time>2018-02-20T09:27:07.000Z</time>
      </trkpt>
      <trkpt lat="43.52778" lon="5.50677">
        <ele>296</ele>
        <time>2018-02-20T09:27:08.000Z</time>
      </trkpt>
      <trkpt lat="43.52779" lon="5.50676">
        <ele>296</ele>
        <time>2018-02-20T09:27:09.000Z</time>
      </trkpt>
      <trkpt lat="43.5278" lon="5.50676">
        <ele>296</ele>
        <time>2018-02-20T09:27:10.000Z</time>
      </trkpt>
      <trkpt lat="43.52781" lon="5.50676">
        <ele>296</ele>
        <time>2018-02-20T09:27:11.000Z</time>
      </trkpt>
      <trkpt lat="43.52782" lon="5.50676">
        <ele>296</ele>
        <time>2018-02-20T09:27:12.000Z</time>
      </trkpt>
      <trkpt lat="43.52783" lon="5.50676">
        <ele>296</ele>
        <time>2018-02-20T09:27:13.000Z</time>
      </trkpt>
      <trkpt lat="43.52784" lon="5.50676">
        <ele>296</ele>
        <time>2018-02-20T09:27:14.000Z</time>
      </trkpt>
      <trkpt lat="43.52786" lon="5.50675">
        <ele>296</ele>
        <time>2018-02-20T09:27:15.000Z</time>
      </trkpt>
      <trkpt lat="43.52787" lon="5.50675">
        <ele>296</ele>
        <time>2018-02-20T09:27:16.000Z</time>
      </trkpt>
      <trkpt lat="43.52788" lon="5.50675">
        <ele>295</ele>
        <time>2018-02-20T09:27:17.000Z</time>
      </trkpt>
      <trkpt lat="43.52789" lon="5.50675">
        <ele>295</ele>
        <time>2018-02-20T09:27:18.000Z</time>
      </trkpt>
      <trkpt lat="43.5279" lon="5.50674">
        <ele>295</ele>
        <time>2018-02-20T09:27:19.000Z</time>
      </trkpt>
      <trkpt lat="43.52791" lon="5.50674">
        <ele>295</ele>
        <time>2018-02-20T09:27:20.000Z</time>
      </trkpt>
      <trkpt lat="43.52793" lon="5.50674">
        <ele>295</ele>
        <time>2018-02-20T09:27:21.000Z</time>
      </trkpt>
      <trkpt lat="43.52794" lon="5.50674">
        <ele>295</ele>
        <time>2018-02-20T09:27:22.000Z</time>
      </trkpt>
      <trkpt lat="43.52795" lon="5.50674">
        <ele>295</ele>
        <time>2018-02-20T09:27:23.000Z</time>
      </trkpt>
      <trkpt lat="43.52797" lon="5.50674">
        <ele>295</ele>
        <time>2018-02-20T09:27:24.000Z</time>
      </trkpt>
      <trkpt lat="43.52798" lon="5.50674">
        <ele>295</ele>
        <time>2018-02-20T09:27:25.000Z</time>
      </trkpt>
      <trkpt lat="43.52799" lon="5.50674">
        <ele>295</ele>
        <time>2018-02-20T09:27:26.000Z</time>
      </trkpt>
      <trkpt lat="43.52801" lon="5.50675">
        <ele>295</ele>
        <time>2018-02-20T09:27:27.000Z</time>
      </trkpt>
      <trkpt lat="43.52802" lon="5.50676">
        <ele>295</ele>
        <time>2018-02-20T09:27:28.000Z</time>
      </trkpt>
      <trkpt lat="43.52803" lon="5.50677">
        <ele>295</ele>
        <time>2018-02-20T09:27:29.000Z</time>
      </trkpt>
      <trkpt lat="43.52804" lon="5.50678">
        <ele>295</ele>
        <time>2018-02-20T09:27:30.000Z</time>
      </trkpt>
      <trkpt lat="43.52805" lon="5.50679">
        <ele>295</ele>
        <time>2018-02-20T09:27:31.000Z</time>
      </trkpt>
      <trkpt lat="43.52807" lon="5.5068">
        <ele>295</ele>
        <time>2018-02-20T09:27:32.000Z</time>
      </trkpt>
      <trkpt lat="43.52808" lon="5.5068">
        <ele>295</ele>
        <time>2018-02-20T09:27:33.000Z</time>
      </trkpt>
      <trkpt lat="43.52809" lon="5.50681">
        <ele>295</ele>
        <time>2018-02-20T09:27:34.000Z</time>
      </trkpt>
      <trkpt lat="43.5281" lon="5.50681">
        <ele>295</ele>
        <time>2018-02-20T09:27:35.000Z</time>
      </trkpt>
      <trkpt lat="43.52811" lon="5.50682">
        <ele>295</ele>
        <time>2018-02-20T09:27:36.000Z</time>
      </trkpt>
      <trkpt lat="43.52812" lon="5.50683">
        <ele>295</ele>
        <time>2018-02-20T09:27:37.000Z</time>
      </trkpt>
      <trkpt lat="43.52814" lon="5.50683">
        <ele>295</ele>
        <time>2018-02-20T09:27:38.000Z</time>
      </trkpt>
      <trkpt lat="43.52815" lon="5.50684">
        <ele>295</ele>
        <time>2018-02-20T09:27:39.000Z</time>
      </trkpt>
      <trkpt lat="43.52816" lon="5.50685">
        <ele>295</ele>
        <time>2018-02-20T09:27:40.000Z</time>
      </trkpt>
      <trkpt lat="43.52817" lon="5.50686">
        <ele>295</ele>
        <time>2018-02-20T09:27:41.000Z</time>
      </trkpt>
      <trkpt lat="43.52818" lon="5.50687">
        <ele>295</ele>
        <time>2018-02-20T09:27:42.000Z</time>
      </trkpt>
      <trkpt lat="43.52819" lon="5.50688">
        <ele>295</ele>
        <time>2018-02-20T09:27:43.000Z</time>
      </trkpt>
      <trkpt lat="43.5282" lon="5.50688">
        <ele>295</ele>
        <time>2018-02-20T09:27:44.000Z</time>
      </trkpt>
      <trkpt lat="43.5282" lon="5.50688">
        <ele>295</ele>
        <time>2018-02-20T09:27:45.000Z</time>
      </trkpt>
      <trkpt lat="43.52822" lon="5.50688">
        <ele>295</ele>
        <time>2018-02-20T09:27:46.000Z</time>
      </trkpt>
      <trkpt lat="43.52823" lon="5.50688">
        <ele>295</ele>
        <time>2018-02-20T09:27:47.000Z</time>
      </trkpt>
      <trkpt lat="43.52824" lon="5.50688">
        <ele>295</ele>
        <time>2018-02-20T09:27:48.000Z</time>
      </trkpt>
      <trkpt lat="43.52825" lon="5.50688">
        <ele>295</ele>
        <time>2018-02-20T09:27:49.000Z</time>
      </trkpt>
      <trkpt lat="43.52826" lon="5.50688">
        <ele>295</ele>
        <time>2018-02-20T09:27:50.000Z</time>
      </trkpt>
      <trkpt lat="43.52827" lon="5.50687">
        <ele>295</ele>
        <time>2018-02-20T09:27:51.000Z</time>
      </trkpt>
      <trkpt lat="43.52828" lon="5.50687">
        <ele>295</ele>
        <time>2018-02-20T09:27:52.000Z</time>
      </trkpt>
      <trkpt lat="43.52829" lon="5.50687">
        <ele>295</ele>
        <time>2018-02-20T09:27:53.000Z</time>
      </trkpt>
      <trkpt lat="43.5283" lon="5.50686">
        <ele>295</ele>
        <time>2018-02-20T09:27:54.000Z</time>
      </trkpt>
      <trkpt lat="43.52831" lon="5.50686">
        <ele>295</ele>
        <time>2018-02-20T09:27:55.000Z</time>
      </trkpt>
      <trkpt lat="43.52831" lon="5.50686">
        <ele>295</ele>
        <time>2018-02-20T09:27:56.000Z</time>
      </trkpt>
      <trkpt lat="43.52832" lon="5.50686">
        <ele>295</ele>
        <time>2018-02-20T09:27:57.000Z</time>
      </trkpt>
      <trkpt lat="43.52833" lon="5.50686">
        <ele>295</ele>
        <time>2018-02-20T09:27:58.000Z</time>
      </trkpt>
      <trkpt lat="43.52834" lon="5.50685">
        <ele>295</ele>
        <time>2018-02-20T09:27:59.000Z</time>
      </trkpt>
      <trkpt lat="43.52835" lon="5.50685">
        <ele>295</ele>
        <time>2018-02-20T09:28:00.000Z</time>
      </trkpt>
      <trkpt lat="43.52835" lon="5.50685">
        <ele>295</ele>
        <time>2018-02-20T09:28:01.000Z</time>
      </trkpt>
      <trkpt lat="43.52836" lon="5.50685">
        <ele>295</ele>
        <time>2018-02-20T09:28:02.000Z</time>
      </trkpt>
      <trkpt lat="43.52836" lon="5.50685">
        <ele>296</ele>
        <time>2018-02-20T09:28:03.000Z</time>
      </trkpt>
      <trkpt lat="43.52837" lon="5.50685">
        <ele>296</ele>
        <time>2018-02-20T09:28:04.000Z</time>
      </trkpt>
      <trkpt lat="43.52838" lon="5.50684">
        <ele>296</ele>
        <time>2018-02-20T09:28:05.000Z</time>
      </trkpt>
      <trkpt lat="43.52839" lon="5.50685">
        <ele>296</ele>
        <time>2018-02-20T09:28:06.000Z</time>
      </trkpt>
      <trkpt lat="43.52839" lon="5.50684">
        <ele>296</ele>
        <time>2018-02-20T09:28:07.000Z</time>
      </trkpt>
      <trkpt lat="43.5284" lon="5.50684">
        <ele>296</ele>
        <time>2018-02-20T09:28:08.000Z</time>
      </trkpt>
      <trkpt lat="43.52841" lon="5.50683">
        <ele>297</ele>
        <time>2018-02-20T09:28:09.000Z</time>
      </trkpt>
      <trkpt lat="43.52842" lon="5.50683">
        <ele>297</ele>
        <time>2018-02-20T09:28:10.000Z</time>
      </trkpt>
      <trkpt lat="43.52843" lon="5.50682">
        <ele>297</ele>
        <time>2018-02-20T09:28:11.000Z</time>
      </trkpt>
      <trkpt lat="43.52844" lon="5.50681">
        <ele>297</ele>
        <time>2018-02-20T09:28:12.000Z</time>
      </trkpt>
      <trkpt lat="43.52845" lon="5.50681">
        <ele>297</ele>
        <time>2018-02-20T09:28:13.000Z</time>
      </trkpt>
      <trkpt lat="43.52846" lon="5.5068">
        <ele>297</ele>
        <time>2018-02-20T09:28:14.000Z</time>
      </trkpt>
      <trkpt lat="43.52847" lon="5.5068">
        <ele>297</ele>
        <time>2018-02-20T09:28:15.000Z</time>
      </trkpt>
      <trkpt lat="43.52847" lon="5.50679">
        <ele>297</ele>
        <time>2018-02-20T09:28:16.000Z</time>
      </trkpt>
      <trkpt lat="43.52848" lon="5.50679">
        <ele>297</ele>
        <time>2018-02-20T09:28:17.000Z</time>
      </trkpt>
      <trkpt lat="43.52849" lon="5.50678">
        <ele>297</ele>
        <time>2018-02-20T09:28:18.000Z</time>
      </trkpt>
      <trkpt lat="43.5285" lon="5.50677">
        <ele>297</ele>
        <time>2018-02-20T09:28:19.000Z</time>
      </trkpt>
      <trkpt lat="43.52851" lon="5.50677">
        <ele>297</ele>
        <time>2018-02-20T09:28:20.000Z</time>
      </trkpt>
      <trkpt lat="43.52852" lon="5.50676">
        <ele>297</ele>
        <time>2018-02-20T09:28:21.000Z</time>
      </trkpt>
      <trkpt lat="43.52853" lon="5.50676">
        <ele>297</ele>
        <time>2018-02-20T09:28:22.000Z</time>
      </trkpt>
      <trkpt lat="43.52854" lon="5.50675">
        <ele>297</ele>
        <time>2018-02-20T09:28:23.000Z</time>
      </trkpt>
      <trkpt lat="43.52855" lon="5.50675">
        <ele>297</ele>
        <time>2018-02-20T09:28:24.000Z</time>
      </trkpt>
      <trkpt lat="43.52856" lon="5.50674">
        <ele>296</ele>
        <time>2018-02-20T09:28:25.000Z</time>
      </trkpt>
      <trkpt lat="43.52857" lon="5.50674">
        <ele>296</ele>
        <time>2018-02-20T09:28:26.000Z</time>
      </trkpt>
      <trkpt lat="43.52857" lon="5.50673">
        <ele>296</ele>
        <time>2018-02-20T09:28:27.000Z</time>
      </trkpt>
      <trkpt lat="43.52858" lon="5.50672">
        <ele>296</ele>
        <time>2018-02-20T09:28:28.000Z</time>
      </trkpt>
      <trkpt lat="43.52858" lon="5.50671">
        <ele>296</ele>
        <time>2018-02-20T09:28:29.000Z</time>
      </trkpt>
      <trkpt lat="43.52859" lon="5.5067">
        <ele>296</ele>
        <time>2018-02-20T09:28:30.000Z</time>
      </trkpt>
      <trkpt lat="43.5286" lon="5.50669">
        <ele>296</ele>
        <time>2018-02-20T09:28:31.000Z</time>
      </trkpt>
      <trkpt lat="43.5286" lon="5.50668">
        <ele>296</ele>
        <time>2018-02-20T09:28:32.000Z</time>
      </trkpt>
      <trkpt lat="43.5286" lon="5.50668">
        <ele>296</ele>
        <time>2018-02-20T09:28:33.000Z</time>
      </trkpt>
      <trkpt lat="43.5286" lon="5.50668">
        <ele>296</ele>
        <time>2018-02-20T09:28:34.000Z</time>
      </trkpt>
      <trkpt lat="43.5286" lon="5.50668">
        <ele>297</ele>
        <time>2018-02-20T09:28:35.000Z</time>
      </trkpt>
      <trkpt lat="43.5286" lon="5.50668">
        <ele>297</ele>
        <time>2018-02-20T09:28:36.000Z</time>
      </trkpt>
      <trkpt lat="43.5286" lon="5.50668">
        <ele>297</ele>
        <time>2018-02-20T09:28:37.000Z</time>
      </trkpt>
      <trkpt lat="43.5286" lon="5.50667">
        <ele>297</ele>
        <time>2018-02-20T09:28:38.000Z</time>
      </trkpt>
      <trkpt lat="43.5286" lon="5.50667">
        <ele>297</ele>
        <time>2018-02-20T09:28:39.000Z</time>
      </trkpt>
      <trkpt lat="43.52861" lon="5.50667">
        <ele>297</ele>
        <time>2018-02-20T09:28:40.000Z</time>
      </trkpt>
      <trkpt lat="43.52861" lon="5.50667">
        <ele>297</ele>
        <time>2018-02-20T09:28:41.000Z</time>
      </trkpt>
      <trkpt lat="43.52861" lon="5.50667">
        <ele>297</ele>
        <time>2018-02-20T09:28:42.000Z</time>
      </trkpt>
      <trkpt lat="43.52861" lon="5.50667">
        <ele>297</ele>
        <time>2018-02-20T09:28:43.000Z</time>
      </trkpt>
      <trkpt lat="43.52861" lon="5.50667">
        <ele>298</ele>
        <time>2018-02-20T09:28:44.000Z</time>
      </trkpt>
      <trkpt lat="43.52861" lon="5.50667">
        <ele>298</ele>
        <time>2018-02-20T09:28:45.000Z</time>
      </trkpt>
      <trkpt lat="43.52861" lon="5.50666">
        <ele>298</ele>
        <time>2018-02-20T09:28:46.000Z</time>
      </trkpt>
      <trkpt lat="43.52861" lon="5.50666">
        <ele>298</ele>
        <time>2018-02-20T09:28:47.000Z</time>
      </trkpt>
      <trkpt lat="43.52861" lon="5.50666">
        <ele>298</ele>
        <time>2018-02-20T09:28:48.000Z</time>
      </trkpt>
      <trkpt lat="43.52861" lon="5.50666">
        <ele>298</ele>
        <time>2018-02-20T09:28:49.000Z</time>
      </trkpt>
      <trkpt lat="43.52861" lon="5.50666">
        <ele>298</ele>
        <time>2018-02-20T09:28:50.000Z</time>
      </trkpt>
      <trkpt lat="43.52861" lon="5.50666">
        <ele>298</ele>
        <time>2018-02-20T09:28:51.000Z</time>
      </trkpt>
      <trkpt lat="43.52861" lon="5.50666">
        <ele>298</ele>
        <time>2018-02-20T09:28:52.000Z</time>
      </trkpt>
      <trkpt lat="43.52861" lon="5.50666">
        <ele>298</ele>
        <time>2018-02-20T09:28:53.000Z</time>
      </trkpt>
      <trkpt lat="43.52861" lon="5.50666">
        <ele>298</ele>
        <time>2018-02-20T09:28:54.000Z</time>
      </trkpt>
      <trkpt lat="43.52861" lon="5.50666">
        <ele>298</ele>
        <time>2018-02-20T09:28:55.000Z</time>
      </trkpt>
      <trkpt lat="43.52861" lon="5.50666">
        <ele>298</ele>
        <time>2018-02-20T09:28:56.000Z</time>
      </trkpt>
      <trkpt lat="43.52861" lon="5.50666">
        <ele>298</ele>
        <time>2018-02-20T09:28:57.000Z</time>
      </trkpt>
      <trkpt lat="43.52861" lon="5.50666">
        <ele>298</ele>
        <time>2018-02-20T09:28:58.000Z</time>
      </trkpt>
      <trkpt lat="43.52861" lon="5.50666">
        <ele>298</ele>
        <time>2018-02-20T09:28:59.000Z</time>
      </trkpt>
      <trkpt lat="43.52861" lon="5.50666">
        <ele>298</ele>
        <time>2018-02-20T09:29:00.000Z</time>
      </trkpt>
      <trkpt lat="43.52861" lon="5.50666">
        <ele>298</ele>
        <time>2018-02-20T09:29:01.000Z</time>
      </trkpt>
      <trkpt lat="43.52861" lon="5.50666">
        <ele>298</ele>
        <time>2018-02-20T09:29:02.000Z</time>
      </trkpt>
      <trkpt lat="43.52861" lon="5.50666">
        <ele>298</ele>
        <time>2018-02-20T09:29:03.000Z</time>
      </trkpt>
      <trkpt lat="43.52861" lon="5.50666">
        <ele>298</ele>
        <time>2018-02-20T09:29:04.000Z</time>
      </trkpt>
      <trkpt lat="43.52861" lon="5.50666">
        <ele>298</ele>
        <time>2018-02-20T09:29:05.000Z</time>
      </trkpt>
      <trkpt lat="43.52861" lon="5.50666">
        <ele>298</ele>
        <time>2018-02-20T09:29:06.000Z</time>
      </trkpt>
      <trkpt lat="43.52861" lon="5.50666">
        <ele>298</ele>
        <time>2018-02-20T09:29:07.000Z</time>
      </trkpt>
      <trkpt lat="43.52861" lon="5.50666">
        <ele>298</ele>
        <time>2018-02-20T09:29:08.000Z</time>
      </trkpt>
      <trkpt lat="43.52861" lon="5.50665">
        <ele>298</ele>
        <time>2018-02-20T09:29:09.000Z</time>
      </trkpt>
      <trkpt lat="43.52862" lon="5.50665">
        <ele>298</ele>
        <time>2018-02-20T09:29:10.000Z</time>
      </trkpt>
      <trkpt lat="43.52862" lon="5.50665">
        <ele>298</ele>
        <time>2018-02-20T09:29:11.000Z</time>
      </trkpt>
      <trkpt lat="43.52862" lon="5.50665">
        <ele>298</ele>
        <time>2018-02-20T09:29:12.000Z</time>
      </trkpt>
      <trkpt lat="43.52862" lon="5.50665">
        <ele>298</ele>
        <time>2018-02-20T09:29:13.000Z</time>
      </trkpt>
      <trkpt lat="43.52862" lon="5.50665">
        <ele>298</ele>
        <time>2018-02-20T09:29:14.000Z</time>
      </trkpt>
      <trkpt lat="43.52862" lon="5.50665">
        <ele>298</ele>
        <time>2018-02-20T09:29:15.000Z</time>
      </trkpt>
      <trkpt lat="43.52862" lon="5.50666">
        <ele>298</ele>
        <time>2018-02-20T09:29:16.000Z</time>
      </trkpt>
      <trkpt lat="43.52862" lon="5.50666">
        <ele>298</ele>
        <time>2018-02-20T09:29:17.000Z</time>
      </trkpt>
      <trkpt lat="43.52862" lon="5.50666">
        <ele>298</ele>
        <time>2018-02-20T09:29:18.000Z</time>
      </trkpt>
      <trkpt lat="43.52862" lon="5.50667">
        <ele>298</ele>
        <time>2018-02-20T09:29:19.000Z</time>
      </trkpt>
      <trkpt lat="43.52862" lon="5.50667">
        <ele>298</ele>
        <time>2018-02-20T09:29:20.000Z</time>
      </trkpt>
      <trkpt lat="43.52862" lon="5.50668">
        <ele>297</ele>
        <time>2018-02-20T09:29:21.000Z</time>
      </trkpt>
      <trkpt lat="43.52863" lon="5.50668">
        <ele>297</ele>
        <time>2018-02-20T09:29:22.000Z</time>
      </trkpt>
      <trkpt lat="43.52863" lon="5.50668">
        <ele>297</ele>
        <time>2018-02-20T09:29:23.000Z</time>
      </trkpt>
      <trkpt lat="43.52863" lon="5.50668">
        <ele>297</ele>
        <time>2018-02-20T09:29:24.000Z</time>
      </trkpt>
      <trkpt lat="43.52863" lon="5.50668">
        <ele>297</ele>
        <time>2018-02-20T09:29:25.000Z</time>
      </trkpt>
      <trkpt lat="43.52863" lon="5.50668">
        <ele>297</ele>
        <time>2018-02-20T09:29:26.000Z</time>
      </trkpt>
      <trkpt lat="43.52863" lon="5.50668">
        <ele>297</ele>
        <time>2018-02-20T09:29:27.000Z</time>
      </trkpt>
      <trkpt lat="43.52863" lon="5.50668">
        <ele>297</ele>
        <time>2018-02-20T09:29:28.000Z</time>
      </trkpt>
      <trkpt lat="43.52863" lon="5.50668">
        <ele>297</ele>
        <time>2018-02-20T09:29:29.000Z</time>
      </trkpt>
      <trkpt lat="43.52863" lon="5.50668">
        <ele>297</ele>
        <time>2018-02-20T09:29:30.000Z</time>
      </trkpt>
      <trkpt lat="43.52863" lon="5.50668">
        <ele>297</ele>
        <time>2018-02-20T09:29:31.000Z</time>
      </trkpt>
      <trkpt lat="43.52863" lon="5.50668">
        <ele>296</ele>
        <time>2018-02-20T09:29:32.000Z</time>
      </trkpt>
      <trkpt lat="43.52864" lon="5.50669">
        <ele>296</ele>
        <time>2018-02-20T09:29:33.000Z</time>
      </trkpt>
      <trkpt lat="43.52864" lon="5.5067">
        <ele>296</ele>
        <time>2018-02-20T09:29:34.000Z</time>
      </trkpt>
      <trkpt lat="43.52864" lon="5.50671">
        <ele>296</ele>
        <time>2018-02-20T09:29:35.000Z</time>
      </trkpt>
      <trkpt lat="43.52865" lon="5.50672">
        <ele>295</ele>
        <time>2018-02-20T09:29:36.000Z</time>
      </trkpt>
      <trkpt lat="43.52865" lon="5.50673">
        <ele>295</ele>
        <time>2018-02-20T09:29:37.000Z</time>
      </trkpt>
      <trkpt lat="43.52866" lon="5.50675">
        <ele>295</ele>
        <time>2018-02-20T09:29:38.000Z</time>
      </trkpt>
      <trkpt lat="43.52866" lon="5.50676">
        <ele>295</ele>
        <time>2018-02-20T09:29:39.000Z</time>
      </trkpt>
      <trkpt lat="43.52867" lon="5.50677">
        <ele>295</ele>
        <time>2018-02-20T09:29:40.000Z</time>
      </trkpt>
      <trkpt lat="43.52867" lon="5.50678">
        <ele>295</ele>
        <time>2018-02-20T09:29:41.000Z</time>
      </trkpt>
      <trkpt lat="43.52868" lon="5.50679">
        <ele>294</ele>
        <time>2018-02-20T09:29:42.000Z</time>
      </trkpt>
      <trkpt lat="43.52869" lon="5.50681">
        <ele>294</ele>
        <time>2018-02-20T09:29:43.000Z</time>
      </trkpt>
      <trkpt lat="43.5287" lon="5.50682">
        <ele>294</ele>
        <time>2018-02-20T09:29:44.000Z</time>
      </trkpt>
      <trkpt lat="43.52871" lon="5.50683">
        <ele>294</ele>
        <time>2018-02-20T09:29:45.000Z</time>
      </trkpt>
      <trkpt lat="43.52872" lon="5.50684">
        <ele>294</ele>
        <time>2018-02-20T09:29:46.000Z</time>
      </trkpt>
      <trkpt lat="43.52873" lon="5.50685">
        <ele>293</ele>
        <time>2018-02-20T09:29:47.000Z</time>
      </trkpt>
      <trkpt lat="43.52874" lon="5.50685">
        <ele>293</ele>
        <time>2018-02-20T09:29:48.000Z</time>
      </trkpt>
      <trkpt lat="43.52875" lon="5.50686">
        <ele>293</ele>
        <time>2018-02-20T09:29:49.000Z</time>
      </trkpt>
      <trkpt lat="43.52876" lon="5.50687">
        <ele>293</ele>
        <time>2018-02-20T09:29:50.000Z</time>
      </trkpt>
      <trkpt lat="43.52877" lon="5.50688">
        <ele>293</ele>
        <time>2018-02-20T09:29:51.000Z</time>
      </trkpt>
      <trkpt lat="43.52878" lon="5.50689">
        <ele>292</ele>
        <time>2018-02-20T09:29:52.000Z</time>
      </trkpt>
      <trkpt lat="43.52879" lon="5.50691">
        <ele>292</ele>
        <time>2018-02-20T09:29:53.000Z</time>
      </trkpt>
      <trkpt lat="43.52879" lon="5.50692">
        <ele>292</ele>
        <time>2018-02-20T09:29:54.000Z</time>
      </trkpt>
      <trkpt lat="43.5288" lon="5.50693">
        <ele>292</ele>
        <time>2018-02-20T09:29:55.000Z</time>
      </trkpt>
      <trkpt lat="43.52881" lon="5.50694">
        <ele>292</ele>
        <time>2018-02-20T09:29:56.000Z</time>
      </trkpt>
      <trkpt lat="43.52882" lon="5.50695">
        <ele>291</ele>
        <time>2018-02-20T09:29:57.000Z</time>
      </trkpt>
      <trkpt lat="43.52882" lon="5.50697">
        <ele>291</ele>
        <time>2018-02-20T09:29:58.000Z</time>
      </trkpt>
      <trkpt lat="43.52883" lon="5.50698">
        <ele>291</ele>
        <time>2018-02-20T09:29:59.000Z</time>
      </trkpt>
      <trkpt lat="43.52883" lon="5.507">
        <ele>291</ele>
        <time>2018-02-20T09:30:00.000Z</time>
      </trkpt>
      <trkpt lat="43.52884" lon="5.50701">
        <ele>291</ele>
        <time>2018-02-20T09:30:01.000Z</time>
      </trkpt>
      <trkpt lat="43.52885" lon="5.50702">
        <ele>291</ele>
        <time>2018-02-20T09:30:02.000Z</time>
      </trkpt>
      <trkpt lat="43.52885" lon="5.50704">
        <ele>290</ele>
        <time>2018-02-20T09:30:03.000Z</time>
      </trkpt>
      <trkpt lat="43.52886" lon="5.50706">
        <ele>290</ele>
        <time>2018-02-20T09:30:04.000Z</time>
      </trkpt>
      <trkpt lat="43.52886" lon="5.50708">
        <ele>290</ele>
        <time>2018-02-20T09:30:05.000Z</time>
      </trkpt>
      <trkpt lat="43.52887" lon="5.50709">
        <ele>290</ele>
        <time>2018-02-20T09:30:06.000Z</time>
      </trkpt>
      <trkpt lat="43.52887" lon="5.50711">
        <ele>289</ele>
        <time>2018-02-20T09:30:07.000Z</time>
      </trkpt>
      <trkpt lat="43.52887" lon="5.50712">
        <ele>289</ele>
        <time>2018-02-20T09:30:08.000Z</time>
      </trkpt>
      <trkpt lat="43.52887" lon="5.50713">
        <ele>289</ele>
        <time>2018-02-20T09:30:09.000Z</time>
      </trkpt>
      <trkpt lat="43.52887" lon="5.50713">
        <ele>289</ele>
        <time>2018-02-20T09:30:10.000Z</time>
      </trkpt>
      <trkpt lat="43.52887" lon="5.50713">
        <ele>289</ele>
        <time>2018-02-20T09:30:11.000Z</time>
      </trkpt>
      <trkpt lat="43.52887" lon="5.50713">
        <ele>289</ele>
        <time>2018-02-20T09:30:12.000Z</time>
      </trkpt>
      <trkpt lat="43.52887" lon="5.50713">
        <ele>289</ele>
        <time>2018-02-20T09:30:13.000Z</time>
      </trkpt>
      <trkpt lat="43.52888" lon="5.50713">
        <ele>289</ele>
        <time>2018-02-20T09:30:14.000Z</time>
      </trkpt>
      <trkpt lat="43.52888" lon="5.50713">
        <ele>288</ele>
        <time>2018-02-20T09:30:15.000Z</time>
      </trkpt>
      <trkpt lat="43.52888" lon="5.50713">
        <ele>288</ele>
        <time>2018-02-20T09:30:16.000Z</time>
      </trkpt>
      <trkpt lat="43.52888" lon="5.50713">
        <ele>288</ele>
        <time>2018-02-20T09:30:17.000Z</time>
      </trkpt>
      <trkpt lat="43.52888" lon="5.50713">
        <ele>288</ele>
        <time>2018-02-20T09:30:18.000Z</time>
      </trkpt>
      <trkpt lat="43.52888" lon="5.50713">
        <ele>288</ele>
        <time>2018-02-20T09:30:19.000Z</time>
      </trkpt>
      <trkpt lat="43.52888" lon="5.50713">
        <ele>288</ele>
        <time>2018-02-20T09:30:20.000Z</time>
      </trkpt>
      <trkpt lat="43.52889" lon="5.50713">
        <ele>288</ele>
        <time>2018-02-20T09:30:21.000Z</time>
      </trkpt>
      <trkpt lat="43.52889" lon="5.50713">
        <ele>288</ele>
        <time>2018-02-20T09:30:22.000Z</time>
      </trkpt>
      <trkpt lat="43.5289" lon="5.50713">
        <ele>288</ele>
        <time>2018-02-20T09:30:23.000Z</time>
      </trkpt>
      <trkpt lat="43.5289" lon="5.50713">
        <ele>288</ele>
        <time>2018-02-20T09:30:24.000Z</time>
      </trkpt>
      <trkpt lat="43.52891" lon="5.50713">
        <ele>288</ele>
        <time>2018-02-20T09:30:25.000Z</time>
      </trkpt>
      <trkpt lat="43.52892" lon="5.50712">
        <ele>287</ele>
        <time>2018-02-20T09:30:26.000Z</time>
      </trkpt>
      <trkpt lat="43.52893" lon="5.50712">
        <ele>287</ele>
        <time>2018-02-20T09:30:27.000Z</time>
      </trkpt>
      <trkpt lat="43.52894" lon="5.50711">
        <ele>287</ele>
        <time>2018-02-20T09:30:28.000Z</time>
      </trkpt>
      <trkpt lat="43.52895" lon="5.50711">
        <ele>287</ele>
        <time>2018-02-20T09:30:29.000Z</time>
      </trkpt>
      <trkpt lat="43.52896" lon="5.5071">
        <ele>287</ele>
        <time>2018-02-20T09:30:30.000Z</time>
      </trkpt>
      <trkpt lat="43.52897" lon="5.50709">
        <ele>287</ele>
        <time>2018-02-20T09:30:31.000Z</time>
      </trkpt>
      <trkpt lat="43.52898" lon="5.50708">
        <ele>287</ele>
        <time>2018-02-20T09:30:32.000Z</time>
      </trkpt>
      <trkpt lat="43.52898" lon="5.50707">
        <ele>287</ele>
        <time>2018-02-20T09:30:33.000Z</time>
      </trkpt>
      <trkpt lat="43.52898" lon="5.50706">
        <ele>287</ele>
        <time>2018-02-20T09:30:34.000Z</time>
      </trkpt>
      <trkpt lat="43.52899" lon="5.50704">
        <ele>287</ele>
        <time>2018-02-20T09:30:35.000Z</time>
      </trkpt>
      <trkpt lat="43.52899" lon="5.50703">
        <ele>287</ele>
        <time>2018-02-20T09:30:36.000Z</time>
      </trkpt>
      <trkpt lat="43.52899" lon="5.50702">
        <ele>287</ele>
        <time>2018-02-20T09:30:37.000Z</time>
      </trkpt>
      <trkpt lat="43.529" lon="5.507">
        <ele>287</ele>
        <time>2018-02-20T09:30:38.000Z</time>
      </trkpt>
      <trkpt lat="43.529" lon="5.507">
        <ele>287</ele>
        <time>2018-02-20T09:30:39.000Z</time>
      </trkpt>
      <trkpt lat="43.52901" lon="5.50699">
        <ele>287</ele>
        <time>2018-02-20T09:30:40.000Z</time>
      </trkpt>
      <trkpt lat="43.52902" lon="5.50699">
        <ele>287</ele>
        <time>2018-02-20T09:30:41.000Z</time>
      </trkpt>
      <trkpt lat="43.52902" lon="5.50699">
        <ele>287</ele>
        <time>2018-02-20T09:30:42.000Z</time>
      </trkpt>
      <trkpt lat="43.52903" lon="5.50699">
        <ele>287</ele>
        <time>2018-02-20T09:30:43.000Z</time>
      </trkpt>
      <trkpt lat="43.52904" lon="5.50699">
        <ele>287</ele>
        <time>2018-02-20T09:30:44.000Z</time>
      </trkpt>
      <trkpt lat="43.52905" lon="5.507">
        <ele>287</ele>
        <time>2018-02-20T09:30:45.000Z</time>
      </trkpt>
      <trkpt lat="43.52905" lon="5.50701">
        <ele>287</ele>
        <time>2018-02-20T09:30:46.000Z</time>
      </trkpt>
      <trkpt lat="43.52906" lon="5.50702">
        <ele>287</ele>
        <time>2018-02-20T09:30:47.000Z</time>
      </trkpt>
      <trkpt lat="43.52906" lon="5.50703">
        <ele>288</ele>
        <time>2018-02-20T09:30:48.000Z</time>
      </trkpt>
      <trkpt lat="43.52907" lon="5.50704">
        <ele>288</ele>
        <time>2018-02-20T09:30:49.000Z</time>
      </trkpt>
      <trkpt lat="43.52908" lon="5.50705">
        <ele>288</ele>
        <time>2018-02-20T09:30:50.000Z</time>
      </trkpt>
      <trkpt lat="43.52908" lon="5.50707">
        <ele>288</ele>
        <time>2018-02-20T09:30:51.000Z</time>
      </trkpt>
      <trkpt lat="43.52909" lon="5.50708">
        <ele>287</ele>
        <time>2018-02-20T09:30:52.000Z</time>
      </trkpt>
      <trkpt lat="43.5291" lon="5.50709">
        <ele>287</ele>
        <time>2018-02-20T09:30:53.000Z</time>
      </trkpt>
      <trkpt lat="43.5291" lon="5.5071">
        <ele>287</ele>
        <time>2018-02-20T09:30:54.000Z</time>
      </trkpt>
      <trkpt lat="43.52911" lon="5.50712">
        <ele>287</ele>
        <time>2018-02-20T09:30:55.000Z</time>
      </trkpt>
      <trkpt lat="43.52912" lon="5.50713">
        <ele>287</ele>
        <time>2018-02-20T09:30:56.000Z</time>
      </trkpt>
      <trkpt lat="43.52912" lon="5.50714">
        <ele>287</ele>
        <time>2018-02-20T09:30:57.000Z</time>
      </trkpt>
      <trkpt lat="43.52913" lon="5.50716">
        <ele>287</ele>
        <time>2018-02-20T09:30:58.000Z</time>
      </trkpt>
      <trkpt lat="43.52914" lon="5.50717">
        <ele>287</ele>
        <time>2018-02-20T09:30:59.000Z</time>
      </trkpt>
      <trkpt lat="43.52915" lon="5.50718">
        <ele>287</ele>
        <time>2018-02-20T09:31:00.000Z</time>
      </trkpt>
      <trkpt lat="43.52915" lon="5.5072">
        <ele>287</ele>
        <time>2018-02-20T09:31:01.000Z</time>
      </trkpt>
      <trkpt lat="43.52915" lon="5.50721">
        <ele>287</ele>
        <time>2018-02-20T09:31:02.000Z</time>
      </trkpt>
      <trkpt lat="43.52916" lon="5.50723">
        <ele>287</ele>
        <time>2018-02-20T09:31:03.000Z</time>
      </trkpt>
      <trkpt lat="43.52917" lon="5.50724">
        <ele>287</ele>
        <time>2018-02-20T09:31:04.000Z</time>
      </trkpt>
      <trkpt lat="43.52918" lon="5.50725">
        <ele>287</ele>
        <time>2018-02-20T09:31:05.000Z</time>
      </trkpt>
      <trkpt lat="43.52918" lon="5.50727">
        <ele>287</ele>
        <time>2018-02-20T09:31:06.000Z</time>
      </trkpt>
      <trkpt lat="43.52919" lon="5.50728">
        <ele>287</ele>
        <time>2018-02-20T09:31:07.000Z</time>
      </trkpt>
      <trkpt lat="43.5292" lon="5.5073">
        <ele>286</ele>
        <time>2018-02-20T09:31:08.000Z</time>
      </trkpt>
      <trkpt lat="43.52921" lon="5.50731">
        <ele>286</ele>
        <time>2018-02-20T09:31:09.000Z</time>
      </trkpt>
      <trkpt lat="43.52922" lon="5.50732">
        <ele>286</ele>
        <time>2018-02-20T09:31:10.000Z</time>
      </trkpt>
      <trkpt lat="43.52922" lon="5.50734">
        <ele>286</ele>
        <time>2018-02-20T09:31:11.000Z</time>
      </trkpt>
      <trkpt lat="43.52923" lon="5.50735">
        <ele>286</ele>
        <time>2018-02-20T09:31:12.000Z</time>
      </trkpt>
      <trkpt lat="43.52923" lon="5.50736">
        <ele>285</ele>
        <time>2018-02-20T09:31:13.000Z</time>
      </trkpt>
      <trkpt lat="43.52924" lon="5.50738">
        <ele>285</ele>
        <time>2018-02-20T09:31:14.000Z</time>
      </trkpt>
      <trkpt lat="43.52925" lon="5.50739">
        <ele>285</ele>
        <time>2018-02-20T09:31:15.000Z</time>
      </trkpt>
      <trkpt lat="43.52926" lon="5.5074">
        <ele>285</ele>
        <time>2018-02-20T09:31:16.000Z</time>
      </trkpt>
      <trkpt lat="43.52927" lon="5.50741">
        <ele>285</ele>
        <time>2018-02-20T09:31:17.000Z</time>
      </trkpt>
      <trkpt lat="43.52927" lon="5.50743">
        <ele>285</ele>
        <time>2018-02-20T09:31:18.000Z</time>
      </trkpt>
      <trkpt lat="43.52928" lon="5.50744">
        <ele>285</ele>
        <time>2018-02-20T09:31:19.000Z</time>
      </trkpt>
      <trkpt lat="43.52929" lon="5.50745">
        <ele>284</ele>
        <time>2018-02-20T09:31:20.000Z</time>
      </trkpt>
      <trkpt lat="43.52929" lon="5.50745">
        <ele>284</ele>
        <time>2018-02-20T09:31:21.000Z</time>
      </trkpt>
      <trkpt lat="43.52929" lon="5.50746">
        <ele>284</ele>
        <time>2018-02-20T09:31:22.000Z</time>
      </trkpt>
      <trkpt lat="43.52929" lon="5.50746">
        <ele>284</ele>
        <time>2018-02-20T09:31:23.000Z</time>
      </trkpt>
      <trkpt lat="43.5293" lon="5.50746">
        <ele>284</ele>
        <time>2018-02-20T09:31:24.000Z</time>
      </trkpt>
      <trkpt lat="43.5293" lon="5.50746">
        <ele>284</ele>
        <time>2018-02-20T09:31:25.000Z</time>
      </trkpt>
      <trkpt lat="43.52931" lon="5.50746">
        <ele>283</ele>
        <time>2018-02-20T09:31:26.000Z</time>
      </trkpt>
      <trkpt lat="43.52933" lon="5.50746">
        <ele>283</ele>
        <time>2018-02-20T09:31:27.000Z</time>
      </trkpt>
      <trkpt lat="43.52934" lon="5.50745">
        <ele>283</ele>
        <time>2018-02-20T09:31:28.000Z</time>
      </trkpt>
      <trkpt lat="43.52935" lon="5.50744">
        <ele>283</ele>
        <time>2018-02-20T09:31:29.000Z</time>
      </trkpt>
      <trkpt lat="43.52936" lon="5.50744">
        <ele>283</ele>
        <time>2018-02-20T09:31:30.000Z</time>
      </trkpt>
      <trkpt lat="43.52937" lon="5.50743">
        <ele>283</ele>
        <time>2018-02-20T09:31:31.000Z</time>
      </trkpt>
      <trkpt lat="43.52938" lon="5.50742">
        <ele>282</ele>
        <time>2018-02-20T09:31:32.000Z</time>
      </trkpt>
      <trkpt lat="43.52939" lon="5.50741">
        <ele>282</ele>
        <time>2018-02-20T09:31:33.000Z</time>
      </trkpt>
      <trkpt lat="43.5294" lon="5.5074">
        <ele>282</ele>
        <time>2018-02-20T09:31:34.000Z</time>
      </trkpt>
      <trkpt lat="43.52941" lon="5.50739">
        <ele>282</ele>
        <time>2018-02-20T09:31:35.000Z</time>
      </trkpt>
      <trkpt lat="43.52941" lon="5.50738">
        <ele>281</ele>
        <time>2018-02-20T09:31:36.000Z</time>
      </trkpt>
      <trkpt lat="43.52942" lon="5.50736">
        <ele>281</ele>
        <time>2018-02-20T09:31:37.000Z</time>
      </trkpt>
      <trkpt lat="43.52942" lon="5.50735">
        <ele>281</ele>
        <time>2018-02-20T09:31:38.000Z</time>
      </trkpt>
      <trkpt lat="43.52943" lon="5.50734">
        <ele>281</ele>
        <time>2018-02-20T09:31:39.000Z</time>
      </trkpt>
      <trkpt lat="43.52944" lon="5.50732">
        <ele>280</ele>
        <time>2018-02-20T09:31:40.000Z</time>
      </trkpt>
      <trkpt lat="43.52945" lon="5.50731">
        <ele>280</ele>
        <time>2018-02-20T09:31:41.000Z</time>
      </trkpt>
      <trkpt lat="43.52946" lon="5.5073">
        <ele>280</ele>
        <time>2018-02-20T09:31:42.000Z</time>
      </trkpt>
      <trkpt lat="43.52947" lon="5.50729">
        <ele>280</ele>
        <time>2018-02-20T09:31:43.000Z</time>
      </trkpt>
      <trkpt lat="43.52947" lon="5.50727">
        <ele>280</ele>
        <time>2018-02-20T09:31:44.000Z</time>
      </trkpt>
      <trkpt lat="43.52948" lon="5.50726">
        <ele>280</ele>
        <time>2018-02-20T09:31:45.000Z</time>
      </trkpt>
      <trkpt lat="43.5295" lon="5.50725">
        <ele>280</ele>
        <time>2018-02-20T09:31:46.000Z</time>
      </trkpt>
      <trkpt lat="43.52951" lon="5.50724">
        <ele>280</ele>
        <time>2018-02-20T09:31:47.000Z</time>
      </trkpt>
      <trkpt lat="43.52951" lon="5.50723">
        <ele>280</ele>
        <time>2018-02-20T09:31:48.000Z</time>
      </trkpt>
      <trkpt lat="43.52951" lon="5.50723">
        <ele>280</ele>
        <time>2018-02-20T09:31:49.000Z</time>
      </trkpt>
      <trkpt lat="43.52952" lon="5.50722">
        <ele>280</ele>
        <time>2018-02-20T09:31:50.000Z</time>
      </trkpt>
      <trkpt lat="43.52953" lon="5.50721">
        <ele>280</ele>
        <time>2018-02-20T09:31:51.000Z</time>
      </trkpt>
      <trkpt lat="43.52954" lon="5.5072">
        <ele>280</ele>
        <time>2018-02-20T09:31:52.000Z</time>
      </trkpt>
      <trkpt lat="43.52955" lon="5.50719">
        <ele>280</ele>
        <time>2018-02-20T09:31:53.000Z</time>
      </trkpt>
      <trkpt lat="43.52956" lon="5.50719">
        <ele>280</ele>
        <time>2018-02-20T09:31:54.000Z</time>
      </trkpt>
      <trkpt lat="43.52958" lon="5.50718">
        <ele>280</ele>
        <time>2018-02-20T09:31:55.000Z</time>
      </trkpt>
      <trkpt lat="43.52959" lon="5.50718">
        <ele>280</ele>
        <time>2018-02-20T09:31:56.000Z</time>
      </trkpt>
      <trkpt lat="43.5296" lon="5.50717">
        <ele>280</ele>
        <time>2018-02-20T09:31:57.000Z</time>
      </trkpt>
      <trkpt lat="43.52962" lon="5.50717">
        <ele>280</ele>
        <time>2018-02-20T09:31:58.000Z</time>
      </trkpt>
      <trkpt lat="43.52963" lon="5.50717">
        <ele>280</ele>
        <time>2018-02-20T09:31:59.000Z</time>
      </trkpt>
      <trkpt lat="43.52964" lon="5.50717">
        <ele>280</ele>
        <time>2018-02-20T09:32:00.000Z</time>
      </trkpt>
      <trkpt lat="43.52966" lon="5.50716">
        <ele>280</ele>
        <time>2018-02-20T09:32:01.000Z</time>
      </trkpt>
      <trkpt lat="43.52967" lon="5.50716">
        <ele>280</ele>
        <time>2018-02-20T09:32:02.000Z</time>
      </trkpt>
      <trkpt lat="43.52969" lon="5.50716">
        <ele>280</ele>
        <time>2018-02-20T09:32:03.000Z</time>
      </trkpt>
      <trkpt lat="43.5297" lon="5.50717">
        <ele>280</ele>
        <time>2018-02-20T09:32:04.000Z</time>
      </trkpt>
      <trkpt lat="43.52972" lon="5.50717">
        <ele>280</ele>
        <time>2018-02-20T09:32:05.000Z</time>
      </trkpt>
      <trkpt lat="43.52973" lon="5.50718">
        <ele>280</ele>
        <time>2018-02-20T09:32:06.000Z</time>
      </trkpt>
      <trkpt lat="43.52974" lon="5.50718">
        <ele>280</ele>
        <time>2018-02-20T09:32:07.000Z</time>
      </trkpt>
      <trkpt lat="43.52975" lon="5.50718">
        <ele>280</ele>
        <time>2018-02-20T09:32:08.000Z</time>
      </trkpt>
      <trkpt lat="43.52977" lon="5.50719">
        <ele>280</ele>
        <time>2018-02-20T09:32:09.000Z</time>
      </trkpt>
      <trkpt lat="43.52978" lon="5.50719">
        <ele>280</ele>
        <time>2018-02-20T09:32:10.000Z</time>
      </trkpt>
      <trkpt lat="43.5298" lon="5.5072">
        <ele>280</ele>
        <time>2018-02-20T09:32:11.000Z</time>
      </trkpt>
      <trkpt lat="43.52981" lon="5.50721">
        <ele>280</ele>
        <time>2018-02-20T09:32:12.000Z</time>
      </trkpt>
      <trkpt lat="43.52982" lon="5.50722">
        <ele>280</ele>
        <time>2018-02-20T09:32:13.000Z</time>
      </trkpt>
      <trkpt lat="43.52984" lon="5.50723">
        <ele>280</ele>
        <time>2018-02-20T09:32:14.000Z</time>
      </trkpt>
      <trkpt lat="43.52985" lon="5.50723">
        <ele>280</ele>
        <time>2018-02-20T09:32:15.000Z</time>
      </trkpt>
      <trkpt lat="43.52986" lon="5.50724">
        <ele>280</ele>
        <time>2018-02-20T09:32:16.000Z</time>
      </trkpt>
      <trkpt lat="43.52987" lon="5.50725">
        <ele>280</ele>
        <time>2018-02-20T09:32:17.000Z</time>
      </trkpt>
      <trkpt lat="43.52989" lon="5.50727">
        <ele>279</ele>
        <time>2018-02-20T09:32:18.000Z</time>
      </trkpt>
      <trkpt lat="43.5299" lon="5.50727">
        <ele>279</ele>
        <time>2018-02-20T09:32:19.000Z</time>
      </trkpt>
      <trkpt lat="43.52991" lon="5.50728">
        <ele>279</ele>
        <time>2018-02-20T09:32:20.000Z</time>
      </trkpt>
      <trkpt lat="43.52992" lon="5.50729">
        <ele>279</ele>
        <time>2018-02-20T09:32:21.000Z</time>
      </trkpt>
      <trkpt lat="43.52993" lon="5.5073">
        <ele>279</ele>
        <time>2018-02-20T09:32:22.000Z</time>
      </trkpt>
      <trkpt lat="43.52995" lon="5.50731">
        <ele>279</ele>
        <time>2018-02-20T09:32:23.000Z</time>
      </trkpt>
      <trkpt lat="43.52996" lon="5.50732">
        <ele>279</ele>
        <time>2018-02-20T09:32:24.000Z</time>
      </trkpt>
      <trkpt lat="43.52997" lon="5.50732">
        <ele>278</ele>
        <time>2018-02-20T09:32:25.000Z</time>
      </trkpt>
      <trkpt lat="43.52998" lon="5.50733">
        <ele>278</ele>
        <time>2018-02-20T09:32:26.000Z</time>
      </trkpt>
      <trkpt lat="43.52999" lon="5.50733">
        <ele>278</ele>
        <time>2018-02-20T09:32:27.000Z</time>
      </trkpt>
      <trkpt lat="43.53" lon="5.50733">
        <ele>278</ele>
        <time>2018-02-20T09:32:28.000Z</time>
      </trkpt>
      <trkpt lat="43.53002" lon="5.50734">
        <ele>278</ele>
        <time>2018-02-20T09:32:29.000Z</time>
      </trkpt>
      <trkpt lat="43.53003" lon="5.50734">
        <ele>278</ele>
        <time>2018-02-20T09:32:30.000Z</time>
      </trkpt>
      <trkpt lat="43.53004" lon="5.50735">
        <ele>278</ele>
        <time>2018-02-20T09:32:31.000Z</time>
      </trkpt>
      <trkpt lat="43.53005" lon="5.50735">
        <ele>278</ele>
        <time>2018-02-20T09:32:32.000Z</time>
      </trkpt>
      <trkpt lat="43.53006" lon="5.50736">
        <ele>278</ele>
        <time>2018-02-20T09:32:33.000Z</time>
      </trkpt>
      <trkpt lat="43.53008" lon="5.50736">
        <ele>277</ele>
        <time>2018-02-20T09:32:34.000Z</time>
      </trkpt>
      <trkpt lat="43.53009" lon="5.50736">
        <ele>277</ele>
        <time>2018-02-20T09:32:35.000Z</time>
      </trkpt>
      <trkpt lat="43.5301" lon="5.50736">
        <ele>277</ele>
        <time>2018-02-20T09:32:36.000Z</time>
      </trkpt>
      <trkpt lat="43.53012" lon="5.50736">
        <ele>277</ele>
        <time>2018-02-20T09:32:37.000Z</time>
      </trkpt>
      <trkpt lat="43.53013" lon="5.50737">
        <ele>277</ele>
        <time>2018-02-20T09:32:38.000Z</time>
      </trkpt>
      <trkpt lat="43.53014" lon="5.50737">
        <ele>277</ele>
        <time>2018-02-20T09:32:39.000Z</time>
      </trkpt>
      <trkpt lat="43.53016" lon="5.50737">
        <ele>277</ele>
        <time>2018-02-20T09:32:40.000Z</time>
      </trkpt>
      <trkpt lat="43.53017" lon="5.50737">
        <ele>277</ele>
        <time>2018-02-20T09:32:41.000Z</time>
      </trkpt>
      <trkpt lat="43.53018" lon="5.50737">
        <ele>277</ele>
        <time>2018-02-20T09:32:42.000Z</time>
      </trkpt>
      <trkpt lat="43.5302" lon="5.50738">
        <ele>276</ele>
        <time>2018-02-20T09:32:43.000Z</time>
      </trkpt>
      <trkpt lat="43.53021" lon="5.50738">
        <ele>276</ele>
        <time>2018-02-20T09:32:44.000Z</time>
      </trkpt>
      <trkpt lat="43.53022" lon="5.50738">
        <ele>276</ele>
        <time>2018-02-20T09:32:45.000Z</time>
      </trkpt>
      <trkpt lat="43.53023" lon="5.50739">
        <ele>276</ele>
        <time>2018-02-20T09:32:46.000Z</time>
      </trkpt>
      <trkpt lat="43.53024" lon="5.50739">
        <ele>276</ele>
        <time>2018-02-20T09:32:47.000Z</time>
      </trkpt>
      <trkpt lat="43.53026" lon="5.50739">
        <ele>276</ele>
        <time>2018-02-20T09:32:48.000Z</time>
      </trkpt>
      <trkpt lat="43.53027" lon="5.50739">
        <ele>276</ele>
        <time>2018-02-20T09:32:49.000Z</time>
      </trkpt>
      <trkpt lat="43.53028" lon="5.50739">
        <ele>276</ele>
        <time>2018-02-20T09:32:50.000Z</time>
      </trkpt>
      <trkpt lat="43.5303" lon="5.50739">
        <ele>276</ele>
        <time>2018-02-20T09:32:51.000Z</time>
      </trkpt>
      <trkpt lat="43.53031" lon="5.50739">
        <ele>276</ele>
        <time>2018-02-20T09:32:52.000Z</time>
      </trkpt>
      <trkpt lat="43.53032" lon="5.50739">
        <ele>276</ele>
        <time>2018-02-20T09:32:53.000Z</time>
      </trkpt>
      <trkpt lat="43.53033" lon="5.50739">
        <ele>276</ele>
        <time>2018-02-20T09:32:54.000Z</time>
      </trkpt>
      <trkpt lat="43.53035" lon="5.5074">
        <ele>276</ele>
        <time>2018-02-20T09:32:55.000Z</time>
      </trkpt>
      <trkpt lat="43.53036" lon="5.5074">
        <ele>276</ele>
        <time>2018-02-20T09:32:56.000Z</time>
      </trkpt>
      <trkpt lat="43.53037" lon="5.5074">
        <ele>276</ele>
        <time>2018-02-20T09:32:57.000Z</time>
      </trkpt>
      <trkpt lat="43.53038" lon="5.5074">
        <ele>276</ele>
        <time>2018-02-20T09:32:58.000Z</time>
      </trkpt>
      <trkpt lat="43.53039" lon="5.5074">
        <ele>276</ele>
        <time>2018-02-20T09:32:59.000Z</time>
      </trkpt>
      <trkpt lat="43.53041" lon="5.5074">
        <ele>275</ele>
        <time>2018-02-20T09:33:00.000Z</time>
      </trkpt>
      <trkpt lat="43.53042" lon="5.5074">
        <ele>275</ele>
        <time>2018-02-20T09:33:01.000Z</time>
      </trkpt>
      <trkpt lat="43.53043" lon="5.50741">
        <ele>275</ele>
        <time>2018-02-20T09:33:02.000Z</time>
      </trkpt>
      <trkpt lat="43.53044" lon="5.50741">
        <ele>275</ele>
        <time>2018-02-20T09:33:03.000Z</time>
      </trkpt>
      <trkpt lat="43.53045" lon="5.50741">
        <ele>274</ele>
        <time>2018-02-20T09:33:04.000Z</time>
      </trkpt>
      <trkpt lat="43.53046" lon="5.50742">
        <ele>274</ele>
        <time>2018-02-20T09:33:05.000Z</time>
      </trkpt>
      <trkpt lat="43.53047" lon="5.50742">
        <ele>274</ele>
        <time>2018-02-20T09:33:06.000Z</time>
      </trkpt>
      <trkpt lat="43.53048" lon="5.50743">
        <ele>273</ele>
        <time>2018-02-20T09:33:07.000Z</time>
      </trkpt>
      <trkpt lat="43.53048" lon="5.50744">
        <ele>273</ele>
        <time>2018-02-20T09:33:08.000Z</time>
      </trkpt>
      <trkpt lat="43.53049" lon="5.50745">
        <ele>273</ele>
        <time>2018-02-20T09:33:09.000Z</time>
      </trkpt>
      <trkpt lat="43.5305" lon="5.50746">
        <ele>272</ele>
        <time>2018-02-20T09:33:10.000Z</time>
      </trkpt>
      <trkpt lat="43.53051" lon="5.50747">
        <ele>272</ele>
        <time>2018-02-20T09:33:11.000Z</time>
      </trkpt>
      <trkpt lat="43.53052" lon="5.50748">
        <ele>272</ele>
        <time>2018-02-20T09:33:12.000Z</time>
      </trkpt>
      <trkpt lat="43.53053" lon="5.50749">
        <ele>272</ele>
        <time>2018-02-20T09:33:13.000Z</time>
      </trkpt>
      <trkpt lat="43.53054" lon="5.5075">
        <ele>271</ele>
        <time>2018-02-20T09:33:14.000Z</time>
      </trkpt>
      <trkpt lat="43.53054" lon="5.50751">
        <ele>271</ele>
        <time>2018-02-20T09:33:15.000Z</time>
      </trkpt>
      <trkpt lat="43.53055" lon="5.50752">
        <ele>271</ele>
        <time>2018-02-20T09:33:16.000Z</time>
      </trkpt>
      <trkpt lat="43.53056" lon="5.50753">
        <ele>271</ele>
        <time>2018-02-20T09:33:17.000Z</time>
      </trkpt>
      <trkpt lat="43.53057" lon="5.50754">
        <ele>270</ele>
        <time>2018-02-20T09:33:18.000Z</time>
      </trkpt>
      <trkpt lat="43.53058" lon="5.50756">
        <ele>270</ele>
        <time>2018-02-20T09:33:19.000Z</time>
      </trkpt>
      <trkpt lat="43.53059" lon="5.50756">
        <ele>270</ele>
        <time>2018-02-20T09:33:20.000Z</time>
      </trkpt>
      <trkpt lat="43.5306" lon="5.50758">
        <ele>269</ele>
        <time>2018-02-20T09:33:21.000Z</time>
      </trkpt>
      <trkpt lat="43.53061" lon="5.50759">
        <ele>269</ele>
        <time>2018-02-20T09:33:22.000Z</time>
      </trkpt>
      <trkpt lat="43.53063" lon="5.5076">
        <ele>269</ele>
        <time>2018-02-20T09:33:23.000Z</time>
      </trkpt>
      <trkpt lat="43.53063" lon="5.50761">
        <ele>268</ele>
        <time>2018-02-20T09:33:24.000Z</time>
      </trkpt>
      <trkpt lat="43.53064" lon="5.50762">
        <ele>268</ele>
        <time>2018-02-20T09:33:25.000Z</time>
      </trkpt>
      <trkpt lat="43.53065" lon="5.50763">
        <ele>268</ele>
        <time>2018-02-20T09:33:26.000Z</time>
      </trkpt>
      <trkpt lat="43.53066" lon="5.50765">
        <ele>267</ele>
        <time>2018-02-20T09:33:27.000Z</time>
      </trkpt>
      <trkpt lat="43.53066" lon="5.50766">
        <ele>267</ele>
        <time>2018-02-20T09:33:28.000Z</time>
      </trkpt>
      <trkpt lat="43.53066" lon="5.50767">
        <ele>267</ele>
        <time>2018-02-20T09:33:29.000Z</time>
      </trkpt>
      <trkpt lat="43.53067" lon="5.50768">
        <ele>266</ele>
        <time>2018-02-20T09:33:30.000Z</time>
      </trkpt>
      <trkpt lat="43.53068" lon="5.50769">
        <ele>266</ele>
        <time>2018-02-20T09:33:31.000Z</time>
      </trkpt>
      <trkpt lat="43.53069" lon="5.5077">
        <ele>266</ele>
        <time>2018-02-20T09:33:32.000Z</time>
      </trkpt>
      <trkpt lat="43.53069" lon="5.50771">
        <ele>265</ele>
        <time>2018-02-20T09:33:33.000Z</time>
      </trkpt>
      <trkpt lat="43.5307" lon="5.50772">
        <ele>265</ele>
        <time>2018-02-20T09:33:34.000Z</time>
      </trkpt>
      <trkpt lat="43.53071" lon="5.50774">
        <ele>265</ele>
        <time>2018-02-20T09:33:35.000Z</time>
      </trkpt>
      <trkpt lat="43.53072" lon="5.50775">
        <ele>264</ele>
        <time>2018-02-20T09:33:36.000Z</time>
      </trkpt>
      <trkpt lat="43.53072" lon="5.50776">
        <ele>264</ele>
        <time>2018-02-20T09:33:37.000Z</time>
      </trkpt>
      <trkpt lat="43.53073" lon="5.50777">
        <ele>264</ele>
        <time>2018-02-20T09:33:38.000Z</time>
      </trkpt>
      <trkpt lat="43.53074" lon="5.50778">
        <ele>263</ele>
        <time>2018-02-20T09:33:39.000Z</time>
      </trkpt>
      <trkpt lat="43.53075" lon="5.50779">
        <ele>263</ele>
        <time>2018-02-20T09:33:40.000Z</time>
      </trkpt>
      <trkpt lat="43.53076" lon="5.5078">
        <ele>263</ele>
        <time>2018-02-20T09:33:41.000Z</time>
      </trkpt>
      <trkpt lat="43.53077" lon="5.50781">
        <ele>262</ele>
        <time>2018-02-20T09:33:42.000Z</time>
      </trkpt>
      <trkpt lat="43.53078" lon="5.50782">
        <ele>262</ele>
        <time>2018-02-20T09:33:43.000Z</time>
      </trkpt>
      <trkpt lat="43.53078" lon="5.50783">
        <ele>261</ele>
        <time>2018-02-20T09:33:44.000Z</time>
      </trkpt>
      <trkpt lat="43.53079" lon="5.50785">
        <ele>261</ele>
        <time>2018-02-20T09:33:45.000Z</time>
      </trkpt>
      <trkpt lat="43.5308" lon="5.50786">
        <ele>261</ele>
        <time>2018-02-20T09:33:46.000Z</time>
      </trkpt>
      <trkpt lat="43.53081" lon="5.50787">
        <ele>260</ele>
        <time>2018-02-20T09:33:47.000Z</time>
      </trkpt>
      <trkpt lat="43.53082" lon="5.50788">
        <ele>260</ele>
        <time>2018-02-20T09:33:48.000Z</time>
      </trkpt>
      <trkpt lat="43.53083" lon="5.50789">
        <ele>260</ele>
        <time>2018-02-20T09:33:49.000Z</time>
      </trkpt>
      <trkpt lat="43.53084" lon="5.5079">
        <ele>259</ele>
        <time>2018-02-20T09:33:50.000Z</time>
      </trkpt>
      <trkpt lat="43.53084" lon="5.50791">
        <ele>259</ele>
        <time>2018-02-20T09:33:51.000Z</time>
      </trkpt>
      <trkpt lat="43.53085" lon="5.50792">
        <ele>259</ele>
        <time>2018-02-20T09:33:52.000Z</time>
      </trkpt>
      <trkpt lat="43.53086" lon="5.50792">
        <ele>259</ele>
        <time>2018-02-20T09:33:53.000Z</time>
      </trkpt>
      <trkpt lat="43.53086" lon="5.50793">
        <ele>259</ele>
        <time>2018-02-20T09:33:54.000Z</time>
      </trkpt>
      <trkpt lat="43.53087" lon="5.50795">
        <ele>258</ele>
        <time>2018-02-20T09:33:55.000Z</time>
      </trkpt>
      <trkpt lat="43.53088" lon="5.50795">
        <ele>258</ele>
        <time>2018-02-20T09:33:56.000Z</time>
      </trkpt>
      <trkpt lat="43.53089" lon="5.50796">
        <ele>258</ele>
        <time>2018-02-20T09:33:57.000Z</time>
      </trkpt>
      <trkpt lat="43.5309" lon="5.50797">
        <ele>258</ele>
        <time>2018-02-20T09:33:58.000Z</time>
      </trkpt>
      <trkpt lat="43.5309" lon="5.50799">
        <ele>258</ele>
        <time>2018-02-20T09:33:59.000Z</time>
      </trkpt>
      <trkpt lat="43.53091" lon="5.508">
        <ele>257</ele>
        <time>2018-02-20T09:34:00.000Z</time>
      </trkpt>
      <trkpt lat="43.53092" lon="5.50801">
        <ele>257</ele>
        <time>2018-02-20T09:34:01.000Z</time>
      </trkpt>
      <trkpt lat="43.53092" lon="5.50802">
        <ele>257</ele>
        <time>2018-02-20T09:34:02.000Z</time>
      </trkpt>
      <trkpt lat="43.53093" lon="5.50803">
        <ele>257</ele>
        <time>2018-02-20T09:34:03.000Z</time>
      </trkpt>
      <trkpt lat="43.53094" lon="5.50804">
        <ele>256</ele>
        <time>2018-02-20T09:34:04.000Z</time>
      </trkpt>
      <trkpt lat="43.53095" lon="5.50805">
        <ele>256</ele>
        <time>2018-02-20T09:34:05.000Z</time>
      </trkpt>
      <trkpt lat="43.53095" lon="5.50805">
        <ele>256</ele>
        <time>2018-02-20T09:34:06.000Z</time>
      </trkpt>
      <trkpt lat="43.53095" lon="5.50805">
        <ele>256</ele>
        <time>2018-02-20T09:34:07.000Z</time>
      </trkpt>
      <trkpt lat="43.53096" lon="5.50806">
        <ele>255</ele>
        <time>2018-02-20T09:34:08.000Z</time>
      </trkpt>
      <trkpt lat="43.53097" lon="5.50806">
        <ele>255</ele>
        <time>2018-02-20T09:34:09.000Z</time>
      </trkpt>
      <trkpt lat="43.53098" lon="5.50807">
        <ele>255</ele>
        <time>2018-02-20T09:34:10.000Z</time>
      </trkpt>
      <trkpt lat="43.53099" lon="5.50808">
        <ele>255</ele>
        <time>2018-02-20T09:34:11.000Z</time>
      </trkpt>
      <trkpt lat="43.531" lon="5.50809">
        <ele>255</ele>
        <time>2018-02-20T09:34:12.000Z</time>
      </trkpt>
      <trkpt lat="43.53101" lon="5.5081">
        <ele>254</ele>
        <time>2018-02-20T09:34:13.000Z</time>
      </trkpt>
      <trkpt lat="43.53102" lon="5.5081">
        <ele>254</ele>
        <time>2018-02-20T09:34:14.000Z</time>
      </trkpt>
      <trkpt lat="43.53102" lon="5.5081">
        <ele>254</ele>
        <time>2018-02-20T09:34:15.000Z</time>
      </trkpt>
      <trkpt lat="43.53102" lon="5.50811">
        <ele>254</ele>
        <time>2018-02-20T09:34:16.000Z</time>
      </trkpt>
      <trkpt lat="43.53103" lon="5.50811">
        <ele>254</ele>
        <time>2018-02-20T09:34:17.000Z</time>
      </trkpt>
      <trkpt lat="43.53103" lon="5.50812">
        <ele>254</ele>
        <time>2018-02-20T09:34:18.000Z</time>
      </trkpt>
      <trkpt lat="43.53104" lon="5.50813">
        <ele>254</ele>
        <time>2018-02-20T09:34:19.000Z</time>
      </trkpt>
      <trkpt lat="43.53105" lon="5.50813">
        <ele>254</ele>
        <time>2018-02-20T09:34:20.000Z</time>
      </trkpt>
      <trkpt lat="43.53106" lon="5.50814">
        <ele>254</ele>
        <time>2018-02-20T09:34:21.000Z</time>
      </trkpt>
      <trkpt lat="43.53107" lon="5.50815">
        <ele>253</ele>
        <time>2018-02-20T09:34:22.000Z</time>
      </trkpt>
      <trkpt lat="43.53108" lon="5.50816">
        <ele>253</ele>
        <time>2018-02-20T09:34:23.000Z</time>
      </trkpt>
      <trkpt lat="43.53109" lon="5.50817">
        <ele>253</ele>
        <time>2018-02-20T09:34:24.000Z</time>
      </trkpt>
      <trkpt lat="43.5311" lon="5.50817">
        <ele>253</ele>
        <time>2018-02-20T09:34:25.000Z</time>
      </trkpt>
      <trkpt lat="43.53111" lon="5.50818">
        <ele>253</ele>
        <time>2018-02-20T09:34:26.000Z</time>
      </trkpt>
      <trkpt lat="43.53112" lon="5.50819">
        <ele>252</ele>
        <time>2018-02-20T09:34:27.000Z</time>
      </trkpt>
      <trkpt lat="43.53113" lon="5.5082">
        <ele>252</ele>
        <time>2018-02-20T09:34:28.000Z</time>
      </trkpt>
      <trkpt lat="43.53114" lon="5.5082">
        <ele>252</ele>
        <time>2018-02-20T09:34:29.000Z</time>
      </trkpt>
      <trkpt lat="43.53115" lon="5.50821">
        <ele>252</ele>
        <time>2018-02-20T09:34:30.000Z</time>
      </trkpt>
      <trkpt lat="43.53116" lon="5.50822">
        <ele>252</ele>
        <time>2018-02-20T09:34:31.000Z</time>
      </trkpt>
      <trkpt lat="43.53117" lon="5.50823">
        <ele>252</ele>
        <time>2018-02-20T09:34:32.000Z</time>
      </trkpt>
      <trkpt lat="43.53118" lon="5.50824">
        <ele>252</ele>
        <time>2018-02-20T09:34:33.000Z</time>
      </trkpt>
      <trkpt lat="43.5312" lon="5.50824">
        <ele>251</ele>
        <time>2018-02-20T09:34:34.000Z</time>
      </trkpt>
      <trkpt lat="43.53121" lon="5.50825">
        <ele>251</ele>
        <time>2018-02-20T09:34:35.000Z</time>
      </trkpt>
      <trkpt lat="43.53122" lon="5.50825">
        <ele>251</ele>
        <time>2018-02-20T09:34:36.000Z</time>
      </trkpt>
      <trkpt lat="43.53123" lon="5.50826">
        <ele>251</ele>
        <time>2018-02-20T09:34:37.000Z</time>
      </trkpt>
      <trkpt lat="43.53124" lon="5.50826">
        <ele>251</ele>
        <time>2018-02-20T09:34:38.000Z</time>
      </trkpt>
      <trkpt lat="43.53125" lon="5.50827">
        <ele>251</ele>
        <time>2018-02-20T09:34:39.000Z</time>
      </trkpt>
      <trkpt lat="43.53126" lon="5.50828">
        <ele>250</ele>
        <time>2018-02-20T09:34:40.000Z</time>
      </trkpt>
      <trkpt lat="43.53127" lon="5.50829">
        <ele>250</ele>
        <time>2018-02-20T09:34:41.000Z</time>
      </trkpt>
      <trkpt lat="43.53129" lon="5.5083">
        <ele>250</ele>
        <time>2018-02-20T09:34:42.000Z</time>
      </trkpt>
      <trkpt lat="43.53129" lon="5.5083">
        <ele>250</ele>
        <time>2018-02-20T09:34:43.000Z</time>
      </trkpt>
      <trkpt lat="43.53129" lon="5.50831">
        <ele>250</ele>
        <time>2018-02-20T09:34:44.000Z</time>
      </trkpt>
      <trkpt lat="43.5313" lon="5.50831">
        <ele>250</ele>
        <time>2018-02-20T09:34:45.000Z</time>
      </trkpt>
      <trkpt lat="43.5313" lon="5.50831">
        <ele>249</ele>
        <time>2018-02-20T09:34:46.000Z</time>
      </trkpt>
      <trkpt lat="43.5313" lon="5.50831">
        <ele>249</ele>
        <time>2018-02-20T09:34:47.000Z</time>
      </trkpt>
      <trkpt lat="43.5313" lon="5.50832">
        <ele>249</ele>
        <time>2018-02-20T09:34:48.000Z</time>
      </trkpt>
      <trkpt lat="43.53131" lon="5.50833">
        <ele>249</ele>
        <time>2018-02-20T09:34:49.000Z</time>
      </trkpt>
      <trkpt lat="43.53132" lon="5.50834">
        <ele>249</ele>
        <time>2018-02-20T09:34:50.000Z</time>
      </trkpt>
      <trkpt lat="43.53133" lon="5.50834">
        <ele>248</ele>
        <time>2018-02-20T09:34:51.000Z</time>
      </trkpt>
      <trkpt lat="43.53134" lon="5.50835">
        <ele>248</ele>
        <time>2018-02-20T09:34:52.000Z</time>
      </trkpt>
      <trkpt lat="43.53135" lon="5.50836">
        <ele>248</ele>
        <time>2018-02-20T09:34:53.000Z</time>
      </trkpt>
      <trkpt lat="43.53137" lon="5.50836">
        <ele>248</ele>
        <time>2018-02-20T09:34:54.000Z</time>
      </trkpt>
      <trkpt lat="43.53138" lon="5.50837">
        <ele>248</ele>
        <time>2018-02-20T09:34:55.000Z</time>
      </trkpt>
      <trkpt lat="43.53139" lon="5.50838">
        <ele>248</ele>
        <time>2018-02-20T09:34:56.000Z</time>
      </trkpt>
      <trkpt lat="43.5314" lon="5.50839">
        <ele>247</ele>
        <time>2018-02-20T09:34:57.000Z</time>
      </trkpt>
      <trkpt lat="43.53141" lon="5.5084">
        <ele>247</ele>
        <time>2018-02-20T09:34:58.000Z</time>
      </trkpt>
      <trkpt lat="43.53141" lon="5.50841">
        <ele>247</ele>
        <time>2018-02-20T09:34:59.000Z</time>
      </trkpt>
      <trkpt lat="43.53142" lon="5.50842">
        <ele>247</ele>
        <time>2018-02-20T09:35:00.000Z</time>
      </trkpt>
      <trkpt lat="43.53143" lon="5.50843">
        <ele>247</ele>
        <time>2018-02-20T09:35:01.000Z</time>
      </trkpt>
      <trkpt lat="43.53144" lon="5.50844">
        <ele>247</ele>
        <time>2018-02-20T09:35:02.000Z</time>
      </trkpt>
      <trkpt lat="43.53145" lon="5.50845">
        <ele>246</ele>
        <time>2018-02-20T09:35:03.000Z</time>
      </trkpt>
      <trkpt lat="43.53146" lon="5.50846">
        <ele>246</ele>
        <time>2018-02-20T09:35:04.000Z</time>
      </trkpt>
      <trkpt lat="43.53147" lon="5.50847">
        <ele>246</ele>
        <time>2018-02-20T09:35:05.000Z</time>
      </trkpt>
      <trkpt lat="43.53147" lon="5.50848">
        <ele>246</ele>
        <time>2018-02-20T09:35:06.000Z</time>
      </trkpt>
      <trkpt lat="43.53148" lon="5.50849">
        <ele>246</ele>
        <time>2018-02-20T09:35:07.000Z</time>
      </trkpt>
      <trkpt lat="43.53149" lon="5.5085">
        <ele>245</ele>
        <time>2018-02-20T09:35:08.000Z</time>
      </trkpt>
      <trkpt lat="43.5315" lon="5.50851">
        <ele>245</ele>
        <time>2018-02-20T09:35:09.000Z</time>
      </trkpt>
      <trkpt lat="43.53151" lon="5.50851">
        <ele>245</ele>
        <time>2018-02-20T09:35:10.000Z</time>
      </trkpt>
      <trkpt lat="43.53151" lon="5.50852">
        <ele>245</ele>
        <time>2018-02-20T09:35:11.000Z</time>
      </trkpt>
      <trkpt lat="43.53152" lon="5.50853">
        <ele>245</ele>
        <time>2018-02-20T09:35:12.000Z</time>
      </trkpt>
      <trkpt lat="43.53154" lon="5.50853">
        <ele>245</ele>
        <time>2018-02-20T09:35:13.000Z</time>
      </trkpt>
      <trkpt lat="43.53155" lon="5.50854">
        <ele>244</ele>
        <time>2018-02-20T09:35:14.000Z</time>
      </trkpt>
      <trkpt lat="43.53156" lon="5.50854">
        <ele>244</ele>
        <time>2018-02-20T09:35:15.000Z</time>
      </trkpt>
      <trkpt lat="43.53157" lon="5.50855">
        <ele>244</ele>
        <time>2018-02-20T09:35:16.000Z</time>
      </trkpt>
      <trkpt lat="43.53158" lon="5.50855">
        <ele>243</ele>
        <time>2018-02-20T09:35:17.000Z</time>
      </trkpt>
      <trkpt lat="43.5316" lon="5.50856">
        <ele>243</ele>
        <time>2018-02-20T09:35:18.000Z</time>
      </trkpt>
      <trkpt lat="43.53161" lon="5.50857">
        <ele>243</ele>
        <time>2018-02-20T09:35:19.000Z</time>
      </trkpt>
      <trkpt lat="43.53162" lon="5.50858">
        <ele>243</ele>
        <time>2018-02-20T09:35:20.000Z</time>
      </trkpt>
      <trkpt lat="43.53163" lon="5.50858">
        <ele>242</ele>
        <time>2018-02-20T09:35:21.000Z</time>
      </trkpt>
      <trkpt lat="43.53165" lon="5.50859">
        <ele>242</ele>
        <time>2018-02-20T09:35:22.000Z</time>
      </trkpt>
      <trkpt lat="43.53166" lon="5.50859">
        <ele>242</ele>
        <time>2018-02-20T09:35:23.000Z</time>
      </trkpt>
      <trkpt lat="43.53167" lon="5.5086">
        <ele>242</ele>
        <time>2018-02-20T09:35:24.000Z</time>
      </trkpt>
      <trkpt lat="43.53168" lon="5.5086">
        <ele>242</ele>
        <time>2018-02-20T09:35:25.000Z</time>
      </trkpt>
      <trkpt lat="43.53169" lon="5.50861">
        <ele>242</ele>
        <time>2018-02-20T09:35:26.000Z</time>
      </trkpt>
      <trkpt lat="43.5317" lon="5.50861">
        <ele>242</ele>
        <time>2018-02-20T09:35:27.000Z</time>
      </trkpt>
      <trkpt lat="43.53171" lon="5.50861">
        <ele>242</ele>
        <time>2018-02-20T09:35:28.000Z</time>
      </trkpt>
      <trkpt lat="43.53172" lon="5.50861">
        <ele>242</ele>
        <time>2018-02-20T09:35:29.000Z</time>
      </trkpt>
      <trkpt lat="43.53173" lon="5.50862">
        <ele>242</ele>
        <time>2018-02-20T09:35:30.000Z</time>
      </trkpt>
      <trkpt lat="43.53174" lon="5.50862">
        <ele>241</ele>
        <time>2018-02-20T09:35:31.000Z</time>
      </trkpt>
      <trkpt lat="43.53175" lon="5.50862">
        <ele>241</ele>
        <time>2018-02-20T09:35:32.000Z</time>
      </trkpt>
      <trkpt lat="43.53176" lon="5.50863">
        <ele>241</ele>
        <time>2018-02-20T09:35:33.000Z</time>
      </trkpt>
      <trkpt lat="43.53177" lon="5.50863">
        <ele>241</ele>
        <time>2018-02-20T09:35:34.000Z</time>
      </trkpt>
      <trkpt lat="43.53178" lon="5.50863">
        <ele>241</ele>
        <time>2018-02-20T09:35:35.000Z</time>
      </trkpt>
      <trkpt lat="43.53179" lon="5.50863">
        <ele>241</ele>
        <time>2018-02-20T09:35:36.000Z</time>
      </trkpt>
      <trkpt lat="43.53181" lon="5.50863">
        <ele>240</ele>
        <time>2018-02-20T09:35:37.000Z</time>
      </trkpt>
      <trkpt lat="43.53182" lon="5.50863">
        <ele>240</ele>
        <time>2018-02-20T09:35:38.000Z</time>
      </trkpt>
      <trkpt lat="43.53183" lon="5.50863">
        <ele>240</ele>
        <time>2018-02-20T09:35:39.000Z</time>
      </trkpt>
      <trkpt lat="43.53184" lon="5.50863">
        <ele>240</ele>
        <time>2018-02-20T09:35:40.000Z</time>
      </trkpt>
      <trkpt lat="43.53185" lon="5.50863">
        <ele>240</ele>
        <time>2018-02-20T09:35:41.000Z</time>
      </trkpt>
      <trkpt lat="43.53186" lon="5.50863">
        <ele>239</ele>
        <time>2018-02-20T09:35:42.000Z</time>
      </trkpt>
      <trkpt lat="43.53187" lon="5.50863">
        <ele>239</ele>
        <time>2018-02-20T09:35:43.000Z</time>
      </trkpt>
      <trkpt lat="43.53188" lon="5.50863">
        <ele>239</ele>
        <time>2018-02-20T09:35:44.000Z</time>
      </trkpt>
      <trkpt lat="43.5319" lon="5.50862">
        <ele>239</ele>
        <time>2018-02-20T09:35:45.000Z</time>
      </trkpt>
      <trkpt lat="43.53191" lon="5.50863">
        <ele>239</ele>
        <time>2018-02-20T09:35:46.000Z</time>
      </trkpt>
      <trkpt lat="43.53192" lon="5.50863">
        <ele>239</ele>
        <time>2018-02-20T09:35:47.000Z</time>
      </trkpt>
      <trkpt lat="43.53194" lon="5.50863">
        <ele>238</ele>
        <time>2018-02-20T09:35:48.000Z</time>
      </trkpt>
      <trkpt lat="43.53195" lon="5.50863">
        <ele>238</ele>
        <time>2018-02-20T09:35:49.000Z</time>
      </trkpt>
      <trkpt lat="43.53196" lon="5.50862">
        <ele>238</ele>
        <time>2018-02-20T09:35:50.000Z</time>
      </trkpt>
      <trkpt lat="43.53197" lon="5.50862">
        <ele>238</ele>
        <time>2018-02-20T09:35:51.000Z</time>
      </trkpt>
      <trkpt lat="43.53199" lon="5.50862">
        <ele>238</ele>
        <time>2018-02-20T09:35:52.000Z</time>
      </trkpt>
      <trkpt lat="43.532" lon="5.50862">
        <ele>238</ele>
        <time>2018-02-20T09:35:53.000Z</time>
      </trkpt>
      <trkpt lat="43.53201" lon="5.50862">
        <ele>238</ele>
        <time>2018-02-20T09:35:54.000Z</time>
      </trkpt>
      <trkpt lat="43.53202" lon="5.50862">
        <ele>238</ele>
        <time>2018-02-20T09:35:55.000Z</time>
      </trkpt>
      <trkpt lat="43.53203" lon="5.50861">
        <ele>237</ele>
        <time>2018-02-20T09:35:56.000Z</time>
      </trkpt>
      <trkpt lat="43.53204" lon="5.50861">
        <ele>237</ele>
        <time>2018-02-20T09:35:57.000Z</time>
      </trkpt>
      <trkpt lat="43.53205" lon="5.50861">
        <ele>237</ele>
        <time>2018-02-20T09:35:58.000Z</time>
      </trkpt>
      <trkpt lat="43.53206" lon="5.50861">
        <ele>237</ele>
        <time>2018-02-20T09:35:59.000Z</time>
      </trkpt>
      <trkpt lat="43.53207" lon="5.50862">
        <ele>237</ele>
        <time>2018-02-20T09:36:00.000Z</time>
      </trkpt>
      <trkpt lat="43.53208" lon="5.50862">
        <ele>237</ele>
        <time>2018-02-20T09:36:01.000Z</time>
      </trkpt>
      <trkpt lat="43.5321" lon="5.50862">
        <ele>237</ele>
        <time>2018-02-20T09:36:02.000Z</time>
      </trkpt>
      <trkpt lat="43.53211" lon="5.50862">
        <ele>237</ele>
        <time>2018-02-20T09:36:03.000Z</time>
      </trkpt>
      <trkpt lat="43.53212" lon="5.50862">
        <ele>236</ele>
        <time>2018-02-20T09:36:04.000Z</time>
      </trkpt>
      <trkpt lat="43.53213" lon="5.50863">
        <ele>236</ele>
        <time>2018-02-20T09:36:05.000Z</time>
      </trkpt>
      <trkpt lat="43.53214" lon="5.50863">
        <ele>236</ele>
        <time>2018-02-20T09:36:06.000Z</time>
      </trkpt>
      <trkpt lat="43.53215" lon="5.50863">
        <ele>236</ele>
        <time>2018-02-20T09:36:07.000Z</time>
      </trkpt>
      <trkpt lat="43.53216" lon="5.50864">
        <ele>236</ele>
        <time>2018-02-20T09:36:08.000Z</time>
      </trkpt>
      <trkpt lat="43.53217" lon="5.50863">
        <ele>236</ele>
        <time>2018-02-20T09:36:09.000Z</time>
      </trkpt>
      <trkpt lat="43.53218" lon="5.50864">
        <ele>236</ele>
        <time>2018-02-20T09:36:10.000Z</time>
      </trkpt>
      <trkpt lat="43.53219" lon="5.50864">
        <ele>236</ele>
        <time>2018-02-20T09:36:11.000Z</time>
      </trkpt>
      <trkpt lat="43.5322" lon="5.50864">
        <ele>236</ele>
        <time>2018-02-20T09:36:12.000Z</time>
      </trkpt>
      <trkpt lat="43.5322" lon="5.50864">
        <ele>236</ele>
        <time>2018-02-20T09:36:13.000Z</time>
      </trkpt>
      <trkpt lat="43.53221" lon="5.50864">
        <ele>235</ele>
        <time>2018-02-20T09:36:14.000Z</time>
      </trkpt>
      <trkpt lat="43.53222" lon="5.50865">
        <ele>235</ele>
        <time>2018-02-20T09:36:15.000Z</time>
      </trkpt>
      <trkpt lat="43.53223" lon="5.50866">
        <ele>235</ele>
        <time>2018-02-20T09:36:16.000Z</time>
      </trkpt>
      <trkpt lat="43.53224" lon="5.50866">
        <ele>235</ele>
        <time>2018-02-20T09:36:17.000Z</time>
      </trkpt>
      <trkpt lat="43.53225" lon="5.50867">
        <ele>235</ele>
        <time>2018-02-20T09:36:18.000Z</time>
      </trkpt>
      <trkpt lat="43.53226" lon="5.50867">
        <ele>235</ele>
        <time>2018-02-20T09:36:19.000Z</time>
      </trkpt>
      <trkpt lat="43.53227" lon="5.50867">
        <ele>235</ele>
        <time>2018-02-20T09:36:20.000Z</time>
      </trkpt>
      <trkpt lat="43.53228" lon="5.50867">
        <ele>235</ele>
        <time>2018-02-20T09:36:21.000Z</time>
      </trkpt>
      <trkpt lat="43.53229" lon="5.50867">
        <ele>235</ele>
        <time>2018-02-20T09:36:22.000Z</time>
      </trkpt>
      <trkpt lat="43.53229" lon="5.50868">
        <ele>235</ele>
        <time>2018-02-20T09:36:23.000Z</time>
      </trkpt>
      <trkpt lat="43.53229" lon="5.50869">
        <ele>234</ele>
        <time>2018-02-20T09:36:24.000Z</time>
      </trkpt>
      <trkpt lat="43.53229" lon="5.50869">
        <ele>234</ele>
        <time>2018-02-20T09:36:25.000Z</time>
      </trkpt>
      <trkpt lat="43.53228" lon="5.50869">
        <ele>234</ele>
        <time>2018-02-20T09:36:26.000Z</time>
      </trkpt>
      <trkpt lat="43.53229" lon="5.50869">
        <ele>234</ele>
        <time>2018-02-20T09:36:27.000Z</time>
      </trkpt>
      <trkpt lat="43.53229" lon="5.5087">
        <ele>234</ele>
        <time>2018-02-20T09:36:28.000Z</time>
      </trkpt>
      <trkpt lat="43.53229" lon="5.5087">
        <ele>234</ele>
        <time>2018-02-20T09:36:29.000Z</time>
      </trkpt>
      <trkpt lat="43.53229" lon="5.5087">
        <ele>234</ele>
        <time>2018-02-20T09:36:30.000Z</time>
      </trkpt>
      <trkpt lat="43.53229" lon="5.5087">
        <ele>234</ele>
        <time>2018-02-20T09:36:31.000Z</time>
      </trkpt>
      <trkpt lat="43.53229" lon="5.50869">
        <ele>234</ele>
        <time>2018-02-20T09:36:32.000Z</time>
      </trkpt>
      <trkpt lat="43.53229" lon="5.50869">
        <ele>234</ele>
        <time>2018-02-20T09:36:33.000Z</time>
      </trkpt>
      <trkpt lat="43.53229" lon="5.50869">
        <ele>234</ele>
        <time>2018-02-20T09:36:34.000Z</time>
      </trkpt>
      <trkpt lat="43.53229" lon="5.50869">
        <ele>234</ele>
        <time>2018-02-20T09:36:35.000Z</time>
      </trkpt>
      <trkpt lat="43.53229" lon="5.50868">
        <ele>233</ele>
        <time>2018-02-20T09:36:36.000Z</time>
      </trkpt>
      <trkpt lat="43.5323" lon="5.50868">
        <ele>233</ele>
        <time>2018-02-20T09:36:37.000Z</time>
      </trkpt>
      <trkpt lat="43.53231" lon="5.50868">
        <ele>233</ele>
        <time>2018-02-20T09:36:38.000Z</time>
      </trkpt>
      <trkpt lat="43.53231" lon="5.50867">
        <ele>233</ele>
        <time>2018-02-20T09:36:39.000Z</time>
      </trkpt>
      <trkpt lat="43.53232" lon="5.50867">
        <ele>233</ele>
        <time>2018-02-20T09:36:40.000Z</time>
      </trkpt>
      <trkpt lat="43.53233" lon="5.50867">
        <ele>233</ele>
        <time>2018-02-20T09:36:41.000Z</time>
      </trkpt>
      <trkpt lat="43.53234" lon="5.50868">
        <ele>233</ele>
        <time>2018-02-20T09:36:42.000Z</time>
      </trkpt>
      <trkpt lat="43.53235" lon="5.50868">
        <ele>233</ele>
        <time>2018-02-20T09:36:43.000Z</time>
      </trkpt>
      <trkpt lat="43.53236" lon="5.50868">
        <ele>233</ele>
        <time>2018-02-20T09:36:44.000Z</time>
      </trkpt>
      <trkpt lat="43.53237" lon="5.50868">
        <ele>233</ele>
        <time>2018-02-20T09:36:45.000Z</time>
      </trkpt>
      <trkpt lat="43.53238" lon="5.50868">
        <ele>233</ele>
        <time>2018-02-20T09:36:46.000Z</time>
      </trkpt>
      <trkpt lat="43.53239" lon="5.50868">
        <ele>233</ele>
        <time>2018-02-20T09:36:47.000Z</time>
      </trkpt>
      <trkpt lat="43.5324" lon="5.50868">
        <ele>232</ele>
        <time>2018-02-20T09:36:48.000Z</time>
      </trkpt>
      <trkpt lat="43.53241" lon="5.50867">
        <ele>232</ele>
        <time>2018-02-20T09:36:49.000Z</time>
      </trkpt>
      <trkpt lat="43.53242" lon="5.50867">
        <ele>232</ele>
        <time>2018-02-20T09:36:50.000Z</time>
      </trkpt>
      <trkpt lat="43.53243" lon="5.50867">
        <ele>232</ele>
        <time>2018-02-20T09:36:51.000Z</time>
      </trkpt>
      <trkpt lat="43.53245" lon="5.50867">
        <ele>232</ele>
        <time>2018-02-20T09:36:52.000Z</time>
      </trkpt>
      <trkpt lat="43.53246" lon="5.50867">
        <ele>232</ele>
        <time>2018-02-20T09:36:53.000Z</time>
      </trkpt>
      <trkpt lat="43.53247" lon="5.50866">
        <ele>232</ele>
        <time>2018-02-20T09:36:54.000Z</time>
      </trkpt>
      <trkpt lat="43.53248" lon="5.50866">
        <ele>232</ele>
        <time>2018-02-20T09:36:55.000Z</time>
      </trkpt>
      <trkpt lat="43.53249" lon="5.50866">
        <ele>232</ele>
        <time>2018-02-20T09:36:56.000Z</time>
      </trkpt>
      <trkpt lat="43.53249" lon="5.50865">
        <ele>232</ele>
        <time>2018-02-20T09:36:57.000Z</time>
      </trkpt>
      <trkpt lat="43.5325" lon="5.50865">
        <ele>232</ele>
        <time>2018-02-20T09:36:58.000Z</time>
      </trkpt>
      <trkpt lat="43.53251" lon="5.50865">
        <ele>232</ele>
        <time>2018-02-20T09:36:59.000Z</time>
      </trkpt>
      <trkpt lat="43.53252" lon="5.50864">
        <ele>232</ele>
        <time>2018-02-20T09:37:00.000Z</time>
      </trkpt>
      <trkpt lat="43.53253" lon="5.50864">
        <ele>232</ele>
        <time>2018-02-20T09:37:01.000Z</time>
      </trkpt>
      <trkpt lat="43.53254" lon="5.50863">
        <ele>232</ele>
        <time>2018-02-20T09:37:02.000Z</time>
      </trkpt>
      <trkpt lat="43.53255" lon="5.50863">
        <ele>232</ele>
        <time>2018-02-20T09:37:03.000Z</time>
      </trkpt>
      <trkpt lat="43.53257" lon="5.50862">
        <ele>232</ele>
        <time>2018-02-20T09:37:04.000Z</time>
      </trkpt>
      <trkpt lat="43.53258" lon="5.50862">
        <ele>232</ele>
        <time>2018-02-20T09:37:05.000Z</time>
      </trkpt>
      <trkpt lat="43.53259" lon="5.50862">
        <ele>231</ele>
        <time>2018-02-20T09:37:06.000Z</time>
      </trkpt>
      <trkpt lat="43.5326" lon="5.50862">
        <ele>231</ele>
        <time>2018-02-20T09:37:07.000Z</time>
      </trkpt>
      <trkpt lat="43.53261" lon="5.50861">
        <ele>231</ele>
        <time>2018-02-20T09:37:08.000Z</time>
      </trkpt>
      <trkpt lat="43.53262" lon="5.50861">
        <ele>231</ele>
        <time>2018-02-20T09:37:09.000Z</time>
      </trkpt>
      <trkpt lat="43.53263" lon="5.50861">
        <ele>231</ele>
        <time>2018-02-20T09:37:10.000Z</time>
      </trkpt>
      <trkpt lat="43.53264" lon="5.50861">
        <ele>231</ele>
        <time>2018-02-20T09:37:11.000Z</time>
      </trkpt>
      <trkpt lat="43.53265" lon="5.50861">
        <ele>231</ele>
        <time>2018-02-20T09:37:12.000Z</time>
      </trkpt>
      <trkpt lat="43.53266" lon="5.50861">
        <ele>231</ele>
        <time>2018-02-20T09:37:13.000Z</time>
      </trkpt>
      <trkpt lat="43.53266" lon="5.50861">
        <ele>230</ele>
        <time>2018-02-20T09:37:14.000Z</time>
      </trkpt>
      <trkpt lat="43.53267" lon="5.50862">
        <ele>230</ele>
        <time>2018-02-20T09:37:15.000Z</time>
      </trkpt>
      <trkpt lat="43.53268" lon="5.50862">
        <ele>230</ele>
        <time>2018-02-20T09:37:16.000Z</time>
      </trkpt>
      <trkpt lat="43.53269" lon="5.50863">
        <ele>230</ele>
        <time>2018-02-20T09:37:17.000Z</time>
      </trkpt>
      <trkpt lat="43.5327" lon="5.50864">
        <ele>230</ele>
        <time>2018-02-20T09:37:18.000Z</time>
      </trkpt>
      <trkpt lat="43.5327" lon="5.50864">
        <ele>229</ele>
        <time>2018-02-20T09:37:19.000Z</time>
      </trkpt>
      <trkpt lat="43.53271" lon="5.50864">
        <ele>229</ele>
        <time>2018-02-20T09:37:20.000Z</time>
      </trkpt>
      <trkpt lat="43.53271" lon="5.50864">
        <ele>229</ele>
        <time>2018-02-20T09:37:21.000Z</time>
      </trkpt>
      <trkpt lat="43.53271" lon="5.50864">
        <ele>228</ele>
        <time>2018-02-20T09:37:22.000Z</time>
      </trkpt>
      <trkpt lat="43.53271" lon="5.50865">
        <ele>228</ele>
        <time>2018-02-20T09:37:23.000Z</time>
      </trkpt>
      <trkpt lat="43.53272" lon="5.50865">
        <ele>228</ele>
        <time>2018-02-20T09:37:24.000Z</time>
      </trkpt>
      <trkpt lat="43.53272" lon="5.50865">
        <ele>227</ele>
        <time>2018-02-20T09:37:25.000Z</time>
      </trkpt>
      <trkpt lat="43.53273" lon="5.50865">
        <ele>227</ele>
        <time>2018-02-20T09:37:26.000Z</time>
      </trkpt>
      <trkpt lat="43.53273" lon="5.50865">
        <ele>227</ele>
        <time>2018-02-20T09:37:27.000Z</time>
      </trkpt>
      <trkpt lat="43.53273" lon="5.50866">
        <ele>227</ele>
        <time>2018-02-20T09:37:28.000Z</time>
      </trkpt>
      <trkpt lat="43.53273" lon="5.50866">
        <ele>227</ele>
        <time>2018-02-20T09:37:29.000Z</time>
      </trkpt>
      <trkpt lat="43.53274" lon="5.50866">
        <ele>227</ele>
        <time>2018-02-20T09:37:30.000Z</time>
      </trkpt>
      <trkpt lat="43.53274" lon="5.50866">
        <ele>226</ele>
        <time>2018-02-20T09:37:31.000Z</time>
      </trkpt>
      <trkpt lat="43.53274" lon="5.50866">
        <ele>226</ele>
        <time>2018-02-20T09:37:32.000Z</time>
      </trkpt>
      <trkpt lat="43.53274" lon="5.50866">
        <ele>226</ele>
        <time>2018-02-20T09:37:33.000Z</time>
      </trkpt>
      <trkpt lat="43.53274" lon="5.50866">
        <ele>226</ele>
        <time>2018-02-20T09:37:34.000Z</time>
      </trkpt>
      <trkpt lat="43.53274" lon="5.50866">
        <ele>226</ele>
        <time>2018-02-20T09:37:35.000Z</time>
      </trkpt>
      <trkpt lat="43.53274" lon="5.50865">
        <ele>226</ele>
        <time>2018-02-20T09:37:36.000Z</time>
      </trkpt>
      <trkpt lat="43.53275" lon="5.50865">
        <ele>226</ele>
        <time>2018-02-20T09:37:37.000Z</time>
      </trkpt>
      <trkpt lat="43.53275" lon="5.50865">
        <ele>226</ele>
        <time>2018-02-20T09:37:38.000Z</time>
      </trkpt>
      <trkpt lat="43.53276" lon="5.50866">
        <ele>225</ele>
        <time>2018-02-20T09:37:39.000Z</time>
      </trkpt>
      <trkpt lat="43.53277" lon="5.50866">
        <ele>225</ele>
        <time>2018-02-20T09:37:40.000Z</time>
      </trkpt>
      <trkpt lat="43.53277" lon="5.50867">
        <ele>225</ele>
        <time>2018-02-20T09:37:41.000Z</time>
      </trkpt>
      <trkpt lat="43.53278" lon="5.50868">
        <ele>225</ele>
        <time>2018-02-20T09:37:42.000Z</time>
      </trkpt>
      <trkpt lat="43.53279" lon="5.5087">
        <ele>225</ele>
        <time>2018-02-20T09:37:43.000Z</time>
      </trkpt>
      <trkpt lat="43.5328" lon="5.5087">
        <ele>225</ele>
        <time>2018-02-20T09:37:44.000Z</time>
      </trkpt>
      <trkpt lat="43.53281" lon="5.50871">
        <ele>225</ele>
        <time>2018-02-20T09:37:45.000Z</time>
      </trkpt>
      <trkpt lat="43.53282" lon="5.50871">
        <ele>225</ele>
        <time>2018-02-20T09:37:46.000Z</time>
      </trkpt>
      <trkpt lat="43.53283" lon="5.50872">
        <ele>225</ele>
        <time>2018-02-20T09:37:47.000Z</time>
      </trkpt>
      <trkpt lat="43.53284" lon="5.50873">
        <ele>225</ele>
        <time>2018-02-20T09:37:48.000Z</time>
      </trkpt>
      <trkpt lat="43.53284" lon="5.50874">
        <ele>225</ele>
        <time>2018-02-20T09:37:49.000Z</time>
      </trkpt>
      <trkpt lat="43.53285" lon="5.50876">
        <ele>225</ele>
        <time>2018-02-20T09:37:50.000Z</time>
      </trkpt>
      <trkpt lat="43.53286" lon="5.50877">
        <ele>225</ele>
        <time>2018-02-20T09:37:51.000Z</time>
      </trkpt>
      <trkpt lat="43.53287" lon="5.50878">
        <ele>225</ele>
        <time>2018-02-20T09:37:52.000Z</time>
      </trkpt>
      <trkpt lat="43.53288" lon="5.50879">
        <ele>224</ele>
        <time>2018-02-20T09:37:53.000Z</time>
      </trkpt>
      <trkpt lat="43.53289" lon="5.5088">
        <ele>224</ele>
        <time>2018-02-20T09:37:54.000Z</time>
      </trkpt>
      <trkpt lat="43.53289" lon="5.50882">
        <ele>224</ele>
        <time>2018-02-20T09:37:55.000Z</time>
      </trkpt>
      <trkpt lat="43.5329" lon="5.50883">
        <ele>224</ele>
        <time>2018-02-20T09:37:56.000Z</time>
      </trkpt>
      <trkpt lat="43.53291" lon="5.50884">
        <ele>224</ele>
        <time>2018-02-20T09:37:57.000Z</time>
      </trkpt>
      <trkpt lat="43.53292" lon="5.50885">
        <ele>224</ele>
        <time>2018-02-20T09:37:58.000Z</time>
      </trkpt>
      <trkpt lat="43.53293" lon="5.50887">
        <ele>224</ele>
        <time>2018-02-20T09:37:59.000Z</time>
      </trkpt>
      <trkpt lat="43.53293" lon="5.50888">
        <ele>224</ele>
        <time>2018-02-20T09:38:00.000Z</time>
      </trkpt>
      <trkpt lat="43.53294" lon="5.5089">
        <ele>224</ele>
        <time>2018-02-20T09:38:01.000Z</time>
      </trkpt>
      <trkpt lat="43.53294" lon="5.50891">
        <ele>224</ele>
        <time>2018-02-20T09:38:02.000Z</time>
      </trkpt>
      <trkpt lat="43.53295" lon="5.50893">
        <ele>224</ele>
        <time>2018-02-20T09:38:03.000Z</time>
      </trkpt>
      <trkpt lat="43.53296" lon="5.50894">
        <ele>224</ele>
        <time>2018-02-20T09:38:04.000Z</time>
      </trkpt>
      <trkpt lat="43.53297" lon="5.50896">
        <ele>224</ele>
        <time>2018-02-20T09:38:05.000Z</time>
      </trkpt>
      <trkpt lat="43.53297" lon="5.50897">
        <ele>224</ele>
        <time>2018-02-20T09:38:06.000Z</time>
      </trkpt>
      <trkpt lat="43.53298" lon="5.50899">
        <ele>223</ele>
        <time>2018-02-20T09:38:07.000Z</time>
      </trkpt>
      <trkpt lat="43.53298" lon="5.509">
        <ele>223</ele>
        <time>2018-02-20T09:38:08.000Z</time>
      </trkpt>
      <trkpt lat="43.53299" lon="5.50902">
        <ele>223</ele>
        <time>2018-02-20T09:38:09.000Z</time>
      </trkpt>
      <trkpt lat="43.53301" lon="5.50903">
        <ele>223</ele>
        <time>2018-02-20T09:38:10.000Z</time>
      </trkpt>
      <trkpt lat="43.53301" lon="5.50905">
        <ele>223</ele>
        <time>2018-02-20T09:38:11.000Z</time>
      </trkpt>
      <trkpt lat="43.53302" lon="5.50906">
        <ele>223</ele>
        <time>2018-02-20T09:38:12.000Z</time>
      </trkpt>
      <trkpt lat="43.53302" lon="5.50908">
        <ele>223</ele>
        <time>2018-02-20T09:38:13.000Z</time>
      </trkpt>
      <trkpt lat="43.53303" lon="5.50909">
        <ele>223</ele>
        <time>2018-02-20T09:38:14.000Z</time>
      </trkpt>
      <trkpt lat="43.53304" lon="5.5091">
        <ele>222</ele>
        <time>2018-02-20T09:38:15.000Z</time>
      </trkpt>
      <trkpt lat="43.53304" lon="5.50912">
        <ele>222</ele>
        <time>2018-02-20T09:38:16.000Z</time>
      </trkpt>
      <trkpt lat="43.53305" lon="5.50913">
        <ele>222</ele>
        <time>2018-02-20T09:38:17.000Z</time>
      </trkpt>
      <trkpt lat="43.53305" lon="5.50915">
        <ele>222</ele>
        <time>2018-02-20T09:38:18.000Z</time>
      </trkpt>
      <trkpt lat="43.53306" lon="5.50916">
        <ele>222</ele>
        <time>2018-02-20T09:38:19.000Z</time>
      </trkpt>
      <trkpt lat="43.53306" lon="5.50918">
        <ele>222</ele>
        <time>2018-02-20T09:38:20.000Z</time>
      </trkpt>
      <trkpt lat="43.53306" lon="5.50919">
        <ele>222</ele>
        <time>2018-02-20T09:38:21.000Z</time>
      </trkpt>
      <trkpt lat="43.53306" lon="5.50921">
        <ele>222</ele>
        <time>2018-02-20T09:38:22.000Z</time>
      </trkpt>
      <trkpt lat="43.53307" lon="5.50922">
        <ele>222</ele>
        <time>2018-02-20T09:38:23.000Z</time>
      </trkpt>
      <trkpt lat="43.53307" lon="5.50924">
        <ele>222</ele>
        <time>2018-02-20T09:38:24.000Z</time>
      </trkpt>
      <trkpt lat="43.53307" lon="5.50925">
        <ele>222</ele>
        <time>2018-02-20T09:38:25.000Z</time>
      </trkpt>
      <trkpt lat="43.53307" lon="5.50926">
        <ele>222</ele>
        <time>2018-02-20T09:38:26.000Z</time>
      </trkpt>
      <trkpt lat="43.53308" lon="5.50928">
        <ele>222</ele>
        <time>2018-02-20T09:38:27.000Z</time>
      </trkpt>
      <trkpt lat="43.53308" lon="5.5093">
        <ele>222</ele>
        <time>2018-02-20T09:38:28.000Z</time>
      </trkpt>
      <trkpt lat="43.53308" lon="5.50931">
        <ele>222</ele>
        <time>2018-02-20T09:38:29.000Z</time>
      </trkpt>
      <trkpt lat="43.53309" lon="5.50933">
        <ele>222</ele>
        <time>2018-02-20T09:38:30.000Z</time>
      </trkpt>
      <trkpt lat="43.53309" lon="5.50934">
        <ele>222</ele>
        <time>2018-02-20T09:38:31.000Z</time>
      </trkpt>
      <trkpt lat="43.5331" lon="5.50936">
        <ele>222</ele>
        <time>2018-02-20T09:38:32.000Z</time>
      </trkpt>
      <trkpt lat="43.53311" lon="5.50937">
        <ele>222</ele>
        <time>2018-02-20T09:38:33.000Z</time>
      </trkpt>
      <trkpt lat="43.53311" lon="5.50939">
        <ele>222</ele>
        <time>2018-02-20T09:38:34.000Z</time>
      </trkpt>
      <trkpt lat="43.53312" lon="5.5094">
        <ele>222</ele>
        <time>2018-02-20T09:38:35.000Z</time>
      </trkpt>
      <trkpt lat="43.53312" lon="5.50942">
        <ele>221</ele>
        <time>2018-02-20T09:38:36.000Z</time>
      </trkpt>
      <trkpt lat="43.53312" lon="5.50943">
        <ele>221</ele>
        <time>2018-02-20T09:38:37.000Z</time>
      </trkpt>
      <trkpt lat="43.53312" lon="5.50944">
        <ele>221</ele>
        <time>2018-02-20T09:38:38.000Z</time>
      </trkpt>
      <trkpt lat="43.53313" lon="5.50945">
        <ele>221</ele>
        <time>2018-02-20T09:38:39.000Z</time>
      </trkpt>
      <trkpt lat="43.53313" lon="5.50946">
        <ele>221</ele>
        <time>2018-02-20T09:38:40.000Z</time>
      </trkpt>
      <trkpt lat="43.53313" lon="5.50947">
        <ele>221</ele>
        <time>2018-02-20T09:38:41.000Z</time>
      </trkpt>
      <trkpt lat="43.53313" lon="5.50949">
        <ele>221</ele>
        <time>2018-02-20T09:38:42.000Z</time>
      </trkpt>
      <trkpt lat="43.53314" lon="5.5095">
        <ele>221</ele>
        <time>2018-02-20T09:38:43.000Z</time>
      </trkpt>
      <trkpt lat="43.53314" lon="5.50952">
        <ele>221</ele>
        <time>2018-02-20T09:38:44.000Z</time>
      </trkpt>
      <trkpt lat="43.53315" lon="5.50953">
        <ele>221</ele>
        <time>2018-02-20T09:38:45.000Z</time>
      </trkpt>
      <trkpt lat="43.53315" lon="5.50955">
        <ele>221</ele>
        <time>2018-02-20T09:38:46.000Z</time>
      </trkpt>
      <trkpt lat="43.53315" lon="5.50956">
        <ele>221</ele>
        <time>2018-02-20T09:38:47.000Z</time>
      </trkpt>
      <trkpt lat="43.53315" lon="5.50958">
        <ele>221</ele>
        <time>2018-02-20T09:38:48.000Z</time>
      </trkpt>
      <trkpt lat="43.53315" lon="5.5096">
        <ele>221</ele>
        <time>2018-02-20T09:38:49.000Z</time>
      </trkpt>
      <trkpt lat="43.53316" lon="5.50961">
        <ele>221</ele>
        <time>2018-02-20T09:38:50.000Z</time>
      </trkpt>
      <trkpt lat="43.53316" lon="5.50963">
        <ele>221</ele>
        <time>2018-02-20T09:38:51.000Z</time>
      </trkpt>
      <trkpt lat="43.53316" lon="5.50965">
        <ele>221</ele>
        <time>2018-02-20T09:38:52.000Z</time>
      </trkpt>
      <trkpt lat="43.53317" lon="5.50966">
        <ele>221</ele>
        <time>2018-02-20T09:38:53.000Z</time>
      </trkpt>
      <trkpt lat="43.53317" lon="5.50968">
        <ele>221</ele>
        <time>2018-02-20T09:38:54.000Z</time>
      </trkpt>
      <trkpt lat="43.53317" lon="5.5097">
        <ele>221</ele>
        <time>2018-02-20T09:38:55.000Z</time>
      </trkpt>
      <trkpt lat="43.53318" lon="5.50972">
        <ele>221</ele>
        <time>2018-02-20T09:38:56.000Z</time>
      </trkpt>
      <trkpt lat="43.53318" lon="5.50973">
        <ele>222</ele>
        <time>2018-02-20T09:38:57.000Z</time>
      </trkpt>
      <trkpt lat="43.53319" lon="5.50975">
        <ele>222</ele>
        <time>2018-02-20T09:38:58.000Z</time>
      </trkpt>
      <trkpt lat="43.53319" lon="5.50977">
        <ele>222</ele>
        <time>2018-02-20T09:38:59.000Z</time>
      </trkpt>
      <trkpt lat="43.53319" lon="5.50979">
        <ele>222</ele>
        <time>2018-02-20T09:39:00.000Z</time>
      </trkpt>
      <trkpt lat="43.53319" lon="5.5098">
        <ele>222</ele>
        <time>2018-02-20T09:39:01.000Z</time>
      </trkpt>
      <trkpt lat="43.5332" lon="5.50982">
        <ele>223</ele>
        <time>2018-02-20T09:39:02.000Z</time>
      </trkpt>
      <trkpt lat="43.5332" lon="5.50983">
        <ele>223</ele>
        <time>2018-02-20T09:39:03.000Z</time>
      </trkpt>
      <trkpt lat="43.5332" lon="5.50985">
        <ele>223</ele>
        <time>2018-02-20T09:39:04.000Z</time>
      </trkpt>
      <trkpt lat="43.5332" lon="5.50986">
        <ele>223</ele>
        <time>2018-02-20T09:39:05.000Z</time>
      </trkpt>
      <trkpt lat="43.5332" lon="5.50988">
        <ele>224</ele>
        <time>2018-02-20T09:39:06.000Z</time>
      </trkpt>
      <trkpt lat="43.5332" lon="5.5099">
        <ele>224</ele>
        <time>2018-02-20T09:39:07.000Z</time>
      </trkpt>
      <trkpt lat="43.5332" lon="5.50991">
        <ele>224</ele>
        <time>2018-02-20T09:39:08.000Z</time>
      </trkpt>
      <trkpt lat="43.5332" lon="5.50992">
        <ele>224</ele>
        <time>2018-02-20T09:39:09.000Z</time>
      </trkpt>
      <trkpt lat="43.53321" lon="5.50994">
        <ele>224</ele>
        <time>2018-02-20T09:39:10.000Z</time>
      </trkpt>
      <trkpt lat="43.53321" lon="5.50995">
        <ele>224</ele>
        <time>2018-02-20T09:39:11.000Z</time>
      </trkpt>
      <trkpt lat="43.53321" lon="5.50996">
        <ele>225</ele>
        <time>2018-02-20T09:39:12.000Z</time>
      </trkpt>
      <trkpt lat="43.5332" lon="5.50997">
        <ele>225</ele>
        <time>2018-02-20T09:39:13.000Z</time>
      </trkpt>
      <trkpt lat="43.5332" lon="5.50997">
        <ele>225</ele>
        <time>2018-02-20T09:39:14.000Z</time>
      </trkpt>
      <trkpt lat="43.5332" lon="5.50998">
        <ele>225</ele>
        <time>2018-02-20T09:39:15.000Z</time>
      </trkpt>
      <trkpt lat="43.5332" lon="5.50998">
        <ele>225</ele>
        <time>2018-02-20T09:39:16.000Z</time>
      </trkpt>
      <trkpt lat="43.5332" lon="5.50999">
        <ele>225</ele>
        <time>2018-02-20T09:39:17.000Z</time>
      </trkpt>
      <trkpt lat="43.5332" lon="5.51">
        <ele>225</ele>
        <time>2018-02-20T09:39:18.000Z</time>
      </trkpt>
      <trkpt lat="43.53321" lon="5.51002">
        <ele>225</ele>
        <time>2018-02-20T09:39:19.000Z</time>
      </trkpt>
      <trkpt lat="43.53321" lon="5.51003">
        <ele>225</ele>
        <time>2018-02-20T09:39:20.000Z</time>
      </trkpt>
      <trkpt lat="43.53321" lon="5.51005">
        <ele>225</ele>
        <time>2018-02-20T09:39:21.000Z</time>
      </trkpt>
      <trkpt lat="43.53321" lon="5.51006">
        <ele>225</ele>
        <time>2018-02-20T09:39:22.000Z</time>
      </trkpt>
      <trkpt lat="43.53321" lon="5.51008">
        <ele>225</ele>
        <time>2018-02-20T09:39:23.000Z</time>
      </trkpt>
      <trkpt lat="43.53322" lon="5.51009">
        <ele>225</ele>
        <time>2018-02-20T09:39:24.000Z</time>
      </trkpt>
      <trkpt lat="43.53322" lon="5.51011">
        <ele>225</ele>
        <time>2018-02-20T09:39:25.000Z</time>
      </trkpt>
      <trkpt lat="43.53322" lon="5.51012">
        <ele>225</ele>
        <time>2018-02-20T09:39:26.000Z</time>
      </trkpt>
      <trkpt lat="43.53323" lon="5.51014">
        <ele>225</ele>
        <time>2018-02-20T09:39:27.000Z</time>
      </trkpt>
      <trkpt lat="43.53323" lon="5.51015">
        <ele>225</ele>
        <time>2018-02-20T09:39:28.000Z</time>
      </trkpt>
      <trkpt lat="43.53324" lon="5.51017">
        <ele>225</ele>
        <time>2018-02-20T09:39:29.000Z</time>
      </trkpt>
      <trkpt lat="43.53324" lon="5.51018">
        <ele>225</ele>
        <time>2018-02-20T09:39:30.000Z</time>
      </trkpt>
      <trkpt lat="43.53324" lon="5.51019">
        <ele>225</ele>
        <time>2018-02-20T09:39:31.000Z</time>
      </trkpt>
      <trkpt lat="43.53325" lon="5.51021">
        <ele>225</ele>
        <time>2018-02-20T09:39:32.000Z</time>
      </trkpt>
      <trkpt lat="43.53325" lon="5.51022">
        <ele>225</ele>
        <time>2018-02-20T09:39:33.000Z</time>
      </trkpt>
      <trkpt lat="43.53325" lon="5.51024">
        <ele>225</ele>
        <time>2018-02-20T09:39:34.000Z</time>
      </trkpt>
      <trkpt lat="43.53325" lon="5.51025">
        <ele>226</ele>
        <time>2018-02-20T09:39:35.000Z</time>
      </trkpt>
      <trkpt lat="43.53326" lon="5.51026">
        <ele>226</ele>
        <time>2018-02-20T09:39:36.000Z</time>
      </trkpt>
      <trkpt lat="43.53326" lon="5.51027">
        <ele>226</ele>
        <time>2018-02-20T09:39:37.000Z</time>
      </trkpt>
      <trkpt lat="43.53326" lon="5.51027">
        <ele>226</ele>
        <time>2018-02-20T09:39:38.000Z</time>
      </trkpt>
      <trkpt lat="43.53326" lon="5.51027">
        <ele>226</ele>
        <time>2018-02-20T09:39:39.000Z</time>
      </trkpt>
      <trkpt lat="43.53326" lon="5.51027">
        <ele>226</ele>
        <time>2018-02-20T09:39:40.000Z</time>
      </trkpt>
      <trkpt lat="43.53326" lon="5.51027">
        <ele>226</ele>
        <time>2018-02-20T09:39:41.000Z</time>
      </trkpt>
      <trkpt lat="43.53326" lon="5.51028">
        <ele>226</ele>
        <time>2018-02-20T09:39:42.000Z</time>
      </trkpt>
      <trkpt lat="43.53326" lon="5.51028">
        <ele>226</ele>
        <time>2018-02-20T09:39:43.000Z</time>
      </trkpt>
      <trkpt lat="43.53326" lon="5.51028">
        <ele>226</ele>
        <time>2018-02-20T09:39:44.000Z</time>
      </trkpt>
      <trkpt lat="43.53326" lon="5.51028">
        <ele>226</ele>
        <time>2018-02-20T09:39:45.000Z</time>
      </trkpt>
      <trkpt lat="43.53326" lon="5.51028">
        <ele>226</ele>
        <time>2018-02-20T09:39:46.000Z</time>
      </trkpt>
      <trkpt lat="43.53326" lon="5.51028">
        <ele>226</ele>
        <time>2018-02-20T09:39:47.000Z</time>
      </trkpt>
      <trkpt lat="43.53326" lon="5.51028">
        <ele>226</ele>
        <time>2018-02-20T09:39:48.000Z</time>
      </trkpt>
      <trkpt lat="43.53326" lon="5.51028">
        <ele>226</ele>
        <time>2018-02-20T09:39:49.000Z</time>
      </trkpt>
      <trkpt lat="43.53326" lon="5.51028">
        <ele>226</ele>
        <time>2018-02-20T09:39:50.000Z</time>
      </trkpt>
      <trkpt lat="43.53326" lon="5.51029">
        <ele>226</ele>
        <time>2018-02-20T09:39:51.000Z</time>
      </trkpt>
      <trkpt lat="43.53327" lon="5.51029">
        <ele>226</ele>
        <time>2018-02-20T09:39:52.000Z</time>
      </trkpt>
      <trkpt lat="43.53328" lon="5.5103">
        <ele>226</ele>
        <time>2018-02-20T09:39:53.000Z</time>
      </trkpt>
      <trkpt lat="43.53329" lon="5.51032">
        <ele>226</ele>
        <time>2018-02-20T09:39:54.000Z</time>
      </trkpt>
      <trkpt lat="43.53329" lon="5.51033">
        <ele>226</ele>
        <time>2018-02-20T09:39:55.000Z</time>
      </trkpt>
      <trkpt lat="43.53329" lon="5.51035">
        <ele>226</ele>
        <time>2018-02-20T09:39:56.000Z</time>
      </trkpt>
      <trkpt lat="43.5333" lon="5.51037">
        <ele>226</ele>
        <time>2018-02-20T09:39:57.000Z</time>
      </trkpt>
      <trkpt lat="43.5333" lon="5.51039">
        <ele>227</ele>
        <time>2018-02-20T09:39:58.000Z</time>
      </trkpt>
      <trkpt lat="43.5333" lon="5.51041">
        <ele>227</ele>
        <time>2018-02-20T09:39:59.000Z</time>
      </trkpt>
      <trkpt lat="43.5333" lon="5.51043">
        <ele>227</ele>
        <time>2018-02-20T09:40:00.000Z</time>
      </trkpt>
      <trkpt lat="43.5333" lon="5.51045">
        <ele>227</ele>
        <time>2018-02-20T09:40:01.000Z</time>
      </trkpt>
      <trkpt lat="43.5333" lon="5.51046">
        <ele>227</ele>
        <time>2018-02-20T09:40:02.000Z</time>
      </trkpt>
      <trkpt lat="43.5333" lon="5.51048">
        <ele>227</ele>
        <time>2018-02-20T09:40:03.000Z</time>
      </trkpt>
      <trkpt lat="43.5333" lon="5.5105">
        <ele>228</ele>
        <time>2018-02-20T09:40:04.000Z</time>
      </trkpt>
      <trkpt lat="43.5333" lon="5.51052">
        <ele>228</ele>
        <time>2018-02-20T09:40:05.000Z</time>
      </trkpt>
      <trkpt lat="43.53329" lon="5.51053">
        <ele>228</ele>
        <time>2018-02-20T09:40:06.000Z</time>
      </trkpt>
      <trkpt lat="43.53329" lon="5.51055">
        <ele>228</ele>
        <time>2018-02-20T09:40:07.000Z</time>
      </trkpt>
      <trkpt lat="43.53329" lon="5.51057">
        <ele>229</ele>
        <time>2018-02-20T09:40:08.000Z</time>
      </trkpt>
      <trkpt lat="43.53329" lon="5.51059">
        <ele>229</ele>
        <time>2018-02-20T09:40:09.000Z</time>
      </trkpt>
      <trkpt lat="43.53328" lon="5.5106">
        <ele>229</ele>
        <time>2018-02-20T09:40:10.000Z</time>
      </trkpt>
      <trkpt lat="43.53328" lon="5.51062">
        <ele>230</ele>
        <time>2018-02-20T09:40:11.000Z</time>
      </trkpt>
      <trkpt lat="43.53327" lon="5.51064">
        <ele>230</ele>
        <time>2018-02-20T09:40:12.000Z</time>
      </trkpt>
      <trkpt lat="43.53326" lon="5.51065">
        <ele>230</ele>
        <time>2018-02-20T09:40:13.000Z</time>
      </trkpt>
      <trkpt lat="43.53325" lon="5.51067">
        <ele>230</ele>
        <time>2018-02-20T09:40:14.000Z</time>
      </trkpt>
      <trkpt lat="43.53325" lon="5.51068">
        <ele>231</ele>
        <time>2018-02-20T09:40:15.000Z</time>
      </trkpt>
      <trkpt lat="43.53324" lon="5.5107">
        <ele>231</ele>
        <time>2018-02-20T09:40:16.000Z</time>
      </trkpt>
      <trkpt lat="43.53324" lon="5.51071">
        <ele>231</ele>
        <time>2018-02-20T09:40:17.000Z</time>
      </trkpt>
      <trkpt lat="43.53323" lon="5.51072">
        <ele>232</ele>
        <time>2018-02-20T09:40:18.000Z</time>
      </trkpt>
      <trkpt lat="43.53323" lon="5.51073">
        <ele>232</ele>
        <time>2018-02-20T09:40:19.000Z</time>
      </trkpt>
      <trkpt lat="43.53322" lon="5.51074">
        <ele>232</ele>
        <time>2018-02-20T09:40:20.000Z</time>
      </trkpt>
      <trkpt lat="43.53321" lon="5.51075">
        <ele>233</ele>
        <time>2018-02-20T09:40:21.000Z</time>
      </trkpt>
      <trkpt lat="43.5332" lon="5.51076">
        <ele>233</ele>
        <time>2018-02-20T09:40:22.000Z</time>
      </trkpt>
      <trkpt lat="43.53319" lon="5.51076">
        <ele>233</ele>
        <time>2018-02-20T09:40:23.000Z</time>
      </trkpt>
      <trkpt lat="43.53318" lon="5.51077">
        <ele>233</ele>
        <time>2018-02-20T09:40:24.000Z</time>
      </trkpt>
      <trkpt lat="43.53318" lon="5.51078">
        <ele>233</ele>
        <time>2018-02-20T09:40:25.000Z</time>
      </trkpt>
      <trkpt lat="43.53317" lon="5.51079">
        <ele>233</ele>
        <time>2018-02-20T09:40:26.000Z</time>
      </trkpt>
      <trkpt lat="43.53316" lon="5.5108">
        <ele>234</ele>
        <time>2018-02-20T09:40:27.000Z</time>
      </trkpt>
      <trkpt lat="43.53315" lon="5.51081">
        <ele>234</ele>
        <time>2018-02-20T09:40:28.000Z</time>
      </trkpt>
      <trkpt lat="43.53314" lon="5.51082">
        <ele>234</ele>
        <time>2018-02-20T09:40:29.000Z</time>
      </trkpt>
      <trkpt lat="43.53313" lon="5.51083">
        <ele>234</ele>
        <time>2018-02-20T09:40:30.000Z</time>
      </trkpt>
      <trkpt lat="43.53312" lon="5.51084">
        <ele>234</ele>
        <time>2018-02-20T09:40:31.000Z</time>
      </trkpt>
      <trkpt lat="43.53312" lon="5.51085">
        <ele>235</ele>
        <time>2018-02-20T09:40:32.000Z</time>
      </trkpt>
      <trkpt lat="43.53311" lon="5.51086">
        <ele>235</ele>
        <time>2018-02-20T09:40:33.000Z</time>
      </trkpt>
      <trkpt lat="43.5331" lon="5.51087">
        <ele>235</ele>
        <time>2018-02-20T09:40:34.000Z</time>
      </trkpt>
      <trkpt lat="43.53309" lon="5.51089">
        <ele>235</ele>
        <time>2018-02-20T09:40:35.000Z</time>
      </trkpt>
      <trkpt lat="43.53309" lon="5.5109">
        <ele>235</ele>
        <time>2018-02-20T09:40:36.000Z</time>
      </trkpt>
      <trkpt lat="43.53309" lon="5.51092">
        <ele>235</ele>
        <time>2018-02-20T09:40:37.000Z</time>
      </trkpt>
      <trkpt lat="43.53308" lon="5.51093">
        <ele>235</ele>
        <time>2018-02-20T09:40:38.000Z</time>
      </trkpt>
      <trkpt lat="43.53308" lon="5.51095">
        <ele>235</ele>
        <time>2018-02-20T09:40:39.000Z</time>
      </trkpt>
      <trkpt lat="43.53308" lon="5.51096">
        <ele>235</ele>
        <time>2018-02-20T09:40:40.000Z</time>
      </trkpt>
      <trkpt lat="43.53308" lon="5.51098">
        <ele>235</ele>
        <time>2018-02-20T09:40:41.000Z</time>
      </trkpt>
      <trkpt lat="43.53308" lon="5.51099">
        <ele>236</ele>
        <time>2018-02-20T09:40:42.000Z</time>
      </trkpt>
      <trkpt lat="43.53308" lon="5.51101">
        <ele>236</ele>
        <time>2018-02-20T09:40:43.000Z</time>
      </trkpt>
      <trkpt lat="43.53308" lon="5.51103">
        <ele>236</ele>
        <time>2018-02-20T09:40:44.000Z</time>
      </trkpt>
      <trkpt lat="43.53307" lon="5.51104">
        <ele>236</ele>
        <time>2018-02-20T09:40:45.000Z</time>
      </trkpt>
      <trkpt lat="43.53307" lon="5.51106">
        <ele>236</ele>
        <time>2018-02-20T09:40:46.000Z</time>
      </trkpt>
      <trkpt lat="43.53307" lon="5.51108">
        <ele>236</ele>
        <time>2018-02-20T09:40:47.000Z</time>
      </trkpt>
      <trkpt lat="43.53307" lon="5.51109">
        <ele>236</ele>
        <time>2018-02-20T09:40:48.000Z</time>
      </trkpt>
      <trkpt lat="43.53307" lon="5.51111">
        <ele>237</ele>
        <time>2018-02-20T09:40:49.000Z</time>
      </trkpt>
      <trkpt lat="43.53307" lon="5.51112">
        <ele>237</ele>
        <time>2018-02-20T09:40:50.000Z</time>
      </trkpt>
      <trkpt lat="43.53307" lon="5.51113">
        <ele>237</ele>
        <time>2018-02-20T09:40:51.000Z</time>
      </trkpt>
      <trkpt lat="43.53308" lon="5.51115">
        <ele>237</ele>
        <time>2018-02-20T09:40:52.000Z</time>
      </trkpt>
      <trkpt lat="43.53308" lon="5.51116">
        <ele>237</ele>
        <time>2018-02-20T09:40:53.000Z</time>
      </trkpt>
      <trkpt lat="43.53308" lon="5.51118">
        <ele>237</ele>
        <time>2018-02-20T09:40:54.000Z</time>
      </trkpt>
      <trkpt lat="43.53309" lon="5.51119">
        <ele>238</ele>
        <time>2018-02-20T09:40:55.000Z</time>
      </trkpt>
      <trkpt lat="43.53309" lon="5.5112">
        <ele>238</ele>
        <time>2018-02-20T09:40:56.000Z</time>
      </trkpt>
      <trkpt lat="43.53309" lon="5.51122">
        <ele>238</ele>
        <time>2018-02-20T09:40:57.000Z</time>
      </trkpt>
      <trkpt lat="43.53309" lon="5.51123">
        <ele>238</ele>
        <time>2018-02-20T09:40:58.000Z</time>
      </trkpt>
      <trkpt lat="43.53309" lon="5.51124">
        <ele>238</ele>
        <time>2018-02-20T09:40:59.000Z</time>
      </trkpt>
      <trkpt lat="43.53309" lon="5.51126">
        <ele>238</ele>
        <time>2018-02-20T09:41:00.000Z</time>
      </trkpt>
      <trkpt lat="43.53309" lon="5.51127">
        <ele>238</ele>
        <time>2018-02-20T09:41:01.000Z</time>
      </trkpt>
      <trkpt lat="43.5331" lon="5.51128">
        <ele>238</ele>
        <time>2018-02-20T09:41:02.000Z</time>
      </trkpt>
      <trkpt lat="43.5331" lon="5.51129">
        <ele>238</ele>
        <time>2018-02-20T09:41:03.000Z</time>
      </trkpt>
      <trkpt lat="43.5331" lon="5.5113">
        <ele>238</ele>
        <time>2018-02-20T09:41:04.000Z</time>
      </trkpt>
      <trkpt lat="43.53311" lon="5.51132">
        <ele>238</ele>
        <time>2018-02-20T09:41:05.000Z</time>
      </trkpt>
      <trkpt lat="43.53311" lon="5.51133">
        <ele>239</ele>
        <time>2018-02-20T09:41:06.000Z</time>
      </trkpt>
      <trkpt lat="43.53311" lon="5.51135">
        <ele>239</ele>
        <time>2018-02-20T09:41:07.000Z</time>
      </trkpt>
      <trkpt lat="43.53312" lon="5.51136">
        <ele>239</ele>
        <time>2018-02-20T09:41:08.000Z</time>
      </trkpt>
      <trkpt lat="43.53312" lon="5.51137">
        <ele>239</ele>
        <time>2018-02-20T09:41:09.000Z</time>
      </trkpt>
      <trkpt lat="43.53312" lon="5.51139">
        <ele>239</ele>
        <time>2018-02-20T09:41:10.000Z</time>
      </trkpt>
      <trkpt lat="43.53312" lon="5.5114">
        <ele>239</ele>
        <time>2018-02-20T09:41:11.000Z</time>
      </trkpt>
      <trkpt lat="43.53313" lon="5.51142">
        <ele>240</ele>
        <time>2018-02-20T09:41:12.000Z</time>
      </trkpt>
      <trkpt lat="43.53313" lon="5.51143">
        <ele>240</ele>
        <time>2018-02-20T09:41:13.000Z</time>
      </trkpt>
      <trkpt lat="43.53313" lon="5.51144">
        <ele>240</ele>
        <time>2018-02-20T09:41:14.000Z</time>
      </trkpt>
      <trkpt lat="43.53314" lon="5.51145">
        <ele>240</ele>
        <time>2018-02-20T09:41:15.000Z</time>
      </trkpt>
      <trkpt lat="43.53314" lon="5.51147">
        <ele>240</ele>
        <time>2018-02-20T09:41:16.000Z</time>
      </trkpt>
      <trkpt lat="43.53314" lon="5.51148">
        <ele>240</ele>
        <time>2018-02-20T09:41:17.000Z</time>
      </trkpt>
      <trkpt lat="43.53315" lon="5.5115">
        <ele>240</ele>
        <time>2018-02-20T09:41:18.000Z</time>
      </trkpt>
      <trkpt lat="43.53315" lon="5.51151">
        <ele>240</ele>
        <time>2018-02-20T09:41:19.000Z</time>
      </trkpt>
      <trkpt lat="43.53315" lon="5.51153">
        <ele>240</ele>
        <time>2018-02-20T09:41:20.000Z</time>
      </trkpt>
      <trkpt lat="43.53315" lon="5.51154">
        <ele>240</ele>
        <time>2018-02-20T09:41:21.000Z</time>
      </trkpt>
      <trkpt lat="43.53315" lon="5.51156">
        <ele>240</ele>
        <time>2018-02-20T09:41:22.000Z</time>
      </trkpt>
      <trkpt lat="43.53315" lon="5.51157">
        <ele>240</ele>
        <time>2018-02-20T09:41:23.000Z</time>
      </trkpt>
      <trkpt lat="43.53315" lon="5.51159">
        <ele>241</ele>
        <time>2018-02-20T09:41:24.000Z</time>
      </trkpt>
      <trkpt lat="43.53314" lon="5.51161">
        <ele>241</ele>
        <time>2018-02-20T09:41:25.000Z</time>
      </trkpt>
      <trkpt lat="43.53314" lon="5.51162">
        <ele>241</ele>
        <time>2018-02-20T09:41:26.000Z</time>
      </trkpt>
      <trkpt lat="43.53314" lon="5.51164">
        <ele>241</ele>
        <time>2018-02-20T09:41:27.000Z</time>
      </trkpt>
      <trkpt lat="43.53314" lon="5.51165">
        <ele>242</ele>
        <time>2018-02-20T09:41:28.000Z</time>
      </trkpt>
      <trkpt lat="43.53313" lon="5.51167">
        <ele>242</ele>
        <time>2018-02-20T09:41:29.000Z</time>
      </trkpt>
      <trkpt lat="43.53313" lon="5.51168">
        <ele>242</ele>
        <time>2018-02-20T09:41:30.000Z</time>
      </trkpt>
      <trkpt lat="43.53312" lon="5.51168">
        <ele>242</ele>
        <time>2018-02-20T09:41:31.000Z</time>
      </trkpt>
      <trkpt lat="43.53311" lon="5.5117">
        <ele>243</ele>
        <time>2018-02-20T09:41:32.000Z</time>
      </trkpt>
      <trkpt lat="43.53311" lon="5.51171">
        <ele>243</ele>
        <time>2018-02-20T09:41:33.000Z</time>
      </trkpt>
      <trkpt lat="43.5331" lon="5.51172">
        <ele>243</ele>
        <time>2018-02-20T09:41:34.000Z</time>
      </trkpt>
      <trkpt lat="43.5331" lon="5.51173">
        <ele>243</ele>
        <time>2018-02-20T09:41:35.000Z</time>
      </trkpt>
      <trkpt lat="43.53309" lon="5.51175">
        <ele>244</ele>
        <time>2018-02-20T09:41:36.000Z</time>
      </trkpt>
      <trkpt lat="43.53309" lon="5.51175">
        <ele>244</ele>
        <time>2018-02-20T09:41:37.000Z</time>
      </trkpt>
      <trkpt lat="43.53308" lon="5.51176">
        <ele>244</ele>
        <time>2018-02-20T09:41:38.000Z</time>
      </trkpt>
      <trkpt lat="43.53307" lon="5.51177">
        <ele>244</ele>
        <time>2018-02-20T09:41:39.000Z</time>
      </trkpt>
      <trkpt lat="43.53307" lon="5.51178">
        <ele>245</ele>
        <time>2018-02-20T09:41:40.000Z</time>
      </trkpt>
      <trkpt lat="43.53306" lon="5.51179">
        <ele>245</ele>
        <time>2018-02-20T09:41:41.000Z</time>
      </trkpt>
      <trkpt lat="43.53305" lon="5.5118">
        <ele>245</ele>
        <time>2018-02-20T09:41:42.000Z</time>
      </trkpt>
      <trkpt lat="43.53304" lon="5.51181">
        <ele>245</ele>
        <time>2018-02-20T09:41:43.000Z</time>
      </trkpt>
      <trkpt lat="43.53303" lon="5.51181">
        <ele>246</ele>
        <time>2018-02-20T09:41:44.000Z</time>
      </trkpt>
      <trkpt lat="43.53302" lon="5.51182">
        <ele>246</ele>
        <time>2018-02-20T09:41:45.000Z</time>
      </trkpt>
      <trkpt lat="43.53301" lon="5.51182">
        <ele>246</ele>
        <time>2018-02-20T09:41:46.000Z</time>
      </trkpt>
      <trkpt lat="43.533" lon="5.51183">
        <ele>246</ele>
        <time>2018-02-20T09:41:47.000Z</time>
      </trkpt>
      <trkpt lat="43.53299" lon="5.51183">
        <ele>246</ele>
        <time>2018-02-20T09:41:48.000Z</time>
      </trkpt>
      <trkpt lat="43.53297" lon="5.51183">
        <ele>246</ele>
        <time>2018-02-20T09:41:49.000Z</time>
      </trkpt>
      <trkpt lat="43.53296" lon="5.51183">
        <ele>246</ele>
        <time>2018-02-20T09:41:50.000Z</time>
      </trkpt>
      <trkpt lat="43.53295" lon="5.51183">
        <ele>246</ele>
        <time>2018-02-20T09:41:51.000Z</time>
      </trkpt>
      <trkpt lat="43.53294" lon="5.51183">
        <ele>246</ele>
        <time>2018-02-20T09:41:52.000Z</time>
      </trkpt>
      <trkpt lat="43.53293" lon="5.51183">
        <ele>246</ele>
        <time>2018-02-20T09:41:53.000Z</time>
      </trkpt>
      <trkpt lat="43.53292" lon="5.51182">
        <ele>246</ele>
        <time>2018-02-20T09:41:54.000Z</time>
      </trkpt>
      <trkpt lat="43.5329" lon="5.51182">
        <ele>246</ele>
        <time>2018-02-20T09:41:55.000Z</time>
      </trkpt>
      <trkpt lat="43.53289" lon="5.51182">
        <ele>246</ele>
        <time>2018-02-20T09:41:56.000Z</time>
      </trkpt>
      <trkpt lat="43.53289" lon="5.51182">
        <ele>246</ele>
        <time>2018-02-20T09:41:57.000Z</time>
      </trkpt>
      <trkpt lat="43.53288" lon="5.51182">
        <ele>246</ele>
        <time>2018-02-20T09:41:58.000Z</time>
      </trkpt>
      <trkpt lat="43.53287" lon="5.51182">
        <ele>246</ele>
        <time>2018-02-20T09:41:59.000Z</time>
      </trkpt>
      <trkpt lat="43.53287" lon="5.51182">
        <ele>246</ele>
        <time>2018-02-20T09:42:00.000Z</time>
      </trkpt>
      <trkpt lat="43.53287" lon="5.51182">
        <ele>246</ele>
        <time>2018-02-20T09:42:01.000Z</time>
      </trkpt>
      <trkpt lat="43.53287" lon="5.51182">
        <ele>246</ele>
        <time>2018-02-20T09:42:02.000Z</time>
      </trkpt>
      <trkpt lat="43.53287" lon="5.51182">
        <ele>246</ele>
        <time>2018-02-20T09:42:03.000Z</time>
      </trkpt>
      <trkpt lat="43.53287" lon="5.51182">
        <ele>246</ele>
        <time>2018-02-20T09:42:04.000Z</time>
      </trkpt>
      <trkpt lat="43.53286" lon="5.51182">
        <ele>246</ele>
        <time>2018-02-20T09:42:05.000Z</time>
      </trkpt>
      <trkpt lat="43.53286" lon="5.51182">
        <ele>246</ele>
        <time>2018-02-20T09:42:06.000Z</time>
      </trkpt>
      <trkpt lat="43.53285" lon="5.51182">
        <ele>246</ele>
        <time>2018-02-20T09:42:07.000Z</time>
      </trkpt>
      <trkpt lat="43.53284" lon="5.51182">
        <ele>246</ele>
        <time>2018-02-20T09:42:08.000Z</time>
      </trkpt>
      <trkpt lat="43.53284" lon="5.51182">
        <ele>246</ele>
        <time>2018-02-20T09:42:09.000Z</time>
      </trkpt>
      <trkpt lat="43.53283" lon="5.51182">
        <ele>245</ele>
        <time>2018-02-20T09:42:10.000Z</time>
      </trkpt>
      <trkpt lat="43.53283" lon="5.51182">
        <ele>245</ele>
        <time>2018-02-20T09:42:11.000Z</time>
      </trkpt>
      <trkpt lat="43.53283" lon="5.51182">
        <ele>245</ele>
        <time>2018-02-20T09:42:12.000Z</time>
      </trkpt>
      <trkpt lat="43.53283" lon="5.51182">
        <ele>245</ele>
        <time>2018-02-20T09:42:13.000Z</time>
      </trkpt>
      <trkpt lat="43.53283" lon="5.51182">
        <ele>245</ele>
        <time>2018-02-20T09:42:14.000Z</time>
      </trkpt>
      <trkpt lat="43.53283" lon="5.51182">
        <ele>245</ele>
        <time>2018-02-20T09:42:15.000Z</time>
      </trkpt>
      <trkpt lat="43.53283" lon="5.51182">
        <ele>245</ele>
        <time>2018-02-20T09:42:16.000Z</time>
      </trkpt>
      <trkpt lat="43.53283" lon="5.51182">
        <ele>245</ele>
        <time>2018-02-20T09:42:17.000Z</time>
      </trkpt>
      <trkpt lat="43.53282" lon="5.51182">
        <ele>245</ele>
        <time>2018-02-20T09:42:18.000Z</time>
      </trkpt>
      <trkpt lat="43.53282" lon="5.51182">
        <ele>245</ele>
        <time>2018-02-20T09:42:19.000Z</time>
      </trkpt>
      <trkpt lat="43.53282" lon="5.51182">
        <ele>245</ele>
        <time>2018-02-20T09:42:20.000Z</time>
      </trkpt>
      <trkpt lat="43.53282" lon="5.51183">
        <ele>245</ele>
        <time>2018-02-20T09:42:21.000Z</time>
      </trkpt>
      <trkpt lat="43.53282" lon="5.51183">
        <ele>244</ele>
        <time>2018-02-20T09:42:22.000Z</time>
      </trkpt>
      <trkpt lat="43.53282" lon="5.51183">
        <ele>244</ele>
        <time>2018-02-20T09:42:23.000Z</time>
      </trkpt>
      <trkpt lat="43.53282" lon="5.51183">
        <ele>244</ele>
        <time>2018-02-20T09:42:24.000Z</time>
      </trkpt>
      <trkpt lat="43.53283" lon="5.51183">
        <ele>244</ele>
        <time>2018-02-20T09:42:25.000Z</time>
      </trkpt>
      <trkpt lat="43.53282" lon="5.51183">
        <ele>244</ele>
        <time>2018-02-20T09:42:26.000Z</time>
      </trkpt>
      <trkpt lat="43.53282" lon="5.51183">
        <ele>244</ele>
        <time>2018-02-20T09:42:27.000Z</time>
      </trkpt>
      <trkpt lat="43.53282" lon="5.51183">
        <ele>244</ele>
        <time>2018-02-20T09:42:28.000Z</time>
      </trkpt>
      <trkpt lat="43.53282" lon="5.51183">
        <ele>244</ele>
        <time>2018-02-20T09:42:29.000Z</time>
      </trkpt>
      <trkpt lat="43.53282" lon="5.51183">
        <ele>244</ele>
        <time>2018-02-20T09:42:30.000Z</time>
      </trkpt>
      <trkpt lat="43.53282" lon="5.51183">
        <ele>244</ele>
        <time>2018-02-20T09:42:31.000Z</time>
      </trkpt>
      <trkpt lat="43.53282" lon="5.51183">
        <ele>244</ele>
        <time>2018-02-20T09:42:32.000Z</time>
      </trkpt>
      <trkpt lat="43.53282" lon="5.51183">
        <ele>244</ele>
        <time>2018-02-20T09:42:33.000Z</time>
      </trkpt>
      <trkpt lat="43.53282" lon="5.51183">
        <ele>244</ele>
        <time>2018-02-20T09:42:34.000Z</time>
      </trkpt>
      <trkpt lat="43.53282" lon="5.51183">
        <ele>244</ele>
        <time>2018-02-20T09:42:35.000Z</time>
      </trkpt>
      <trkpt lat="43.53282" lon="5.51183">
        <ele>244</ele>
        <time>2018-02-20T09:42:36.000Z</time>
      </trkpt>
      <trkpt lat="43.53282" lon="5.51183">
        <ele>244</ele>
        <time>2018-02-20T09:42:37.000Z</time>
      </trkpt>
      <trkpt lat="43.53282" lon="5.51183">
        <ele>244</ele>
        <time>2018-02-20T09:42:38.000Z</time>
      </trkpt>
      <trkpt lat="43.53282" lon="5.51183">
        <ele>244</ele>
        <time>2018-02-20T09:42:39.000Z</time>
      </trkpt>
      <trkpt lat="43.53282" lon="5.51183">
        <ele>244</ele>
        <time>2018-02-20T09:42:40.000Z</time>
      </trkpt>
      <trkpt lat="43.53282" lon="5.51183">
        <ele>244</ele>
        <time>2018-02-20T09:42:41.000Z</time>
      </trkpt>
      <trkpt lat="43.53282" lon="5.51183">
        <ele>244</ele>
        <time>2018-02-20T09:42:42.000Z</time>
      </trkpt>
      <trkpt lat="43.53282" lon="5.51183">
        <ele>244</ele>
        <time>2018-02-20T09:42:43.000Z</time>
      </trkpt>
      <trkpt lat="43.53282" lon="5.51183">
        <ele>244</ele>
        <time>2018-02-20T09:42:44.000Z</time>
      </trkpt>
      <trkpt lat="43.53282" lon="5.51183">
        <ele>244</ele>
        <time>2018-02-20T09:42:45.000Z</time>
      </trkpt>
      <trkpt lat="43.53282" lon="5.51183">
        <ele>244</ele>
        <time>2018-02-20T09:42:46.000Z</time>
      </trkpt>
      <trkpt lat="43.53282" lon="5.51183">
        <ele>244</ele>
        <time>2018-02-20T09:42:47.000Z</time>
      </trkpt>
      <trkpt lat="43.53282" lon="5.51183">
        <ele>244</ele>
        <time>2018-02-20T09:42:48.000Z</time>
      </trkpt>
      <trkpt lat="43.53282" lon="5.51183">
        <ele>244</ele>
        <time>2018-02-20T09:42:49.000Z</time>
      </trkpt>
      <trkpt lat="43.53282" lon="5.51183">
        <ele>244</ele>
        <time>2018-02-20T09:42:50.000Z</time>
      </trkpt>
      <trkpt lat="43.53282" lon="5.51183">
        <ele>244</ele>
        <time>2018-02-20T09:42:51.000Z</time>
      </trkpt>
      <trkpt lat="43.53282" lon="5.51183">
        <ele>244</ele>
        <time>2018-02-20T09:42:52.000Z</time>
      </trkpt>
      <trkpt lat="43.53282" lon="5.51183">
        <ele>244</ele>
        <time>2018-02-20T09:42:53.000Z</time>
      </trkpt>
      <trkpt lat="43.53282" lon="5.51183">
        <ele>244</ele>
        <time>2018-02-20T09:42:54.000Z</time>
      </trkpt>
      <trkpt lat="43.53282" lon="5.51183">
        <ele>244</ele>
        <time>2018-02-20T09:42:55.000Z</time>
      </trkpt>
      <trkpt lat="43.53282" lon="5.51183">
        <ele>244</ele>
        <time>2018-02-20T09:42:56.000Z</time>
      </trkpt>
      <trkpt lat="43.53282" lon="5.51183">
        <ele>244</ele>
        <time>2018-02-20T09:42:57.000Z</time>
      </trkpt>
      <trkpt lat="43.53282" lon="5.51183">
        <ele>244</ele>
        <time>2018-02-20T09:42:58.000Z</time>
      </trkpt>
      <trkpt lat="43.53282" lon="5.51183">
        <ele>244</ele>
        <time>2018-02-20T09:42:59.000Z</time>
      </trkpt>
      <trkpt lat="43.53282" lon="5.51183">
        <ele>244</ele>
        <time>2018-02-20T09:43:00.000Z</time>
      </trkpt>
      <trkpt lat="43.53282" lon="5.51183">
        <ele>244</ele>
        <time>2018-02-20T09:43:01.000Z</time>
      </trkpt>
      <trkpt lat="43.53282" lon="5.51183">
        <ele>244</ele>
        <time>2018-02-20T09:43:02.000Z</time>
      </trkpt>
      <trkpt lat="43.53282" lon="5.51183">
        <ele>244</ele>
        <time>2018-02-20T09:43:03.000Z</time>
      </trkpt>
      <trkpt lat="43.53282" lon="5.51183">
        <ele>244</ele>
        <time>2018-02-20T09:43:04.000Z</time>
      </trkpt>
      <trkpt lat="43.53282" lon="5.51183">
        <ele>244</ele>
        <time>2018-02-20T09:43:05.000Z</time>
      </trkpt>
      <trkpt lat="43.53282" lon="5.51183">
        <ele>244</ele>
        <time>2018-02-20T09:43:06.000Z</time>
      </trkpt>
      <trkpt lat="43.53282" lon="5.51183">
        <ele>244</ele>
        <time>2018-02-20T09:43:07.000Z</time>
      </trkpt>
      <trkpt lat="43.53282" lon="5.51183">
        <ele>244</ele>
        <time>2018-02-20T09:43:08.000Z</time>
      </trkpt>
      <trkpt lat="43.53282" lon="5.51183">
        <ele>244</ele>
        <time>2018-02-20T09:43:09.000Z</time>
      </trkpt>
      <trkpt lat="43.53282" lon="5.51183">
        <ele>244</ele>
        <time>2018-02-20T09:43:10.000Z</time>
      </trkpt>
      <trkpt lat="43.53282" lon="5.51183">
        <ele>244</ele>
        <time>2018-02-20T09:43:11.000Z</time>
      </trkpt>
      <trkpt lat="43.53282" lon="5.51183">
        <ele>244</ele>
        <time>2018-02-20T09:43:12.000Z</time>
      </trkpt>
      <trkpt lat="43.53282" lon="5.51183">
        <ele>244</ele>
        <time>2018-02-20T09:43:13.000Z</time>
      </trkpt>
      <trkpt lat="43.53282" lon="5.51183">
        <ele>244</ele>
        <time>2018-02-20T09:43:14.000Z</time>
      </trkpt>
      <trkpt lat="43.53282" lon="5.51183">
        <ele>244</ele>
        <time>2018-02-20T09:43:15.000Z</time>
      </trkpt>
      <trkpt lat="43.53282" lon="5.51183">
        <ele>244</ele>
        <time>2018-02-20T09:43:16.000Z</time>
      </trkpt>
      <trkpt lat="43.53282" lon="5.51183">
        <ele>244</ele>
        <time>2018-02-20T09:43:17.000Z</time>
      </trkpt>
      <trkpt lat="43.53282" lon="5.51183">
        <ele>244</ele>
        <time>2018-02-20T09:43:18.000Z</time>
      </trkpt>
      <trkpt lat="43.53282" lon="5.51183">
        <ele>244</ele>
        <time>2018-02-20T09:43:19.000Z</time>
      </trkpt>
      <trkpt lat="43.53282" lon="5.51183">
        <ele>244</ele>
        <time>2018-02-20T09:43:20.000Z</time>
      </trkpt>
      <trkpt lat="43.53282" lon="5.51183">
        <ele>244</ele>
        <time>2018-02-20T09:43:21.000Z</time>
      </trkpt>
      <trkpt lat="43.53282" lon="5.51183">
        <ele>244</ele>
        <time>2018-02-20T09:43:22.000Z</time>
      </trkpt>
      <trkpt lat="43.53282" lon="5.51183">
        <ele>244</ele>
        <time>2018-02-20T09:43:23.000Z</time>
      </trkpt>
      <trkpt lat="43.53282" lon="5.51183">
        <ele>244</ele>
        <time>2018-02-20T09:43:24.000Z</time>
      </trkpt>
      <trkpt lat="43.53282" lon="5.51183">
        <ele>244</ele>
        <time>2018-02-20T09:43:25.000Z</time>
      </trkpt>
      <trkpt lat="43.53282" lon="5.51183">
        <ele>244</ele>
        <time>2018-02-20T09:43:26.000Z</time>
      </trkpt>
      <trkpt lat="43.53282" lon="5.51183">
        <ele>244</ele>
        <time>2018-02-20T09:43:27.000Z</time>
      </trkpt>
      <trkpt lat="43.53282" lon="5.51183">
        <ele>244</ele>
        <time>2018-02-20T09:43:28.000Z</time>
      </trkpt>
      <trkpt lat="43.53282" lon="5.51183">
        <ele>244</ele>
        <time>2018-02-20T09:43:29.000Z</time>
      </trkpt>
      <trkpt lat="43.53282" lon="5.51183">
        <ele>244</ele>
        <time>2018-02-20T09:43:30.000Z</time>
      </trkpt>
      <trkpt lat="43.53282" lon="5.51183">
        <ele>244</ele>
        <time>2018-02-20T09:43:31.000Z</time>
      </trkpt>
      <trkpt lat="43.53281" lon="5.51183">
        <ele>244</ele>
        <time>2018-02-20T09:43:32.000Z</time>
      </trkpt>
      <trkpt lat="43.53281" lon="5.51183">
        <ele>244</ele>
        <time>2018-02-20T09:43:33.000Z</time>
      </trkpt>
      <trkpt lat="43.53282" lon="5.51183">
        <ele>244</ele>
        <time>2018-02-20T09:43:34.000Z</time>
      </trkpt>
      <trkpt lat="43.53282" lon="5.51183">
        <ele>244</ele>
        <time>2018-02-20T09:43:35.000Z</time>
      </trkpt>
      <trkpt lat="43.53281" lon="5.51182">
        <ele>244</ele>
        <time>2018-02-20T09:43:36.000Z</time>
      </trkpt>
      <trkpt lat="43.53281" lon="5.51181">
        <ele>244</ele>
        <time>2018-02-20T09:43:37.000Z</time>
      </trkpt>
      <trkpt lat="43.53281" lon="5.5118">
        <ele>244</ele>
        <time>2018-02-20T09:43:38.000Z</time>
      </trkpt>
      <trkpt lat="43.5328" lon="5.51178">
        <ele>244</ele>
        <time>2018-02-20T09:43:39.000Z</time>
      </trkpt>
      <trkpt lat="43.5328" lon="5.51177">
        <ele>244</ele>
        <time>2018-02-20T09:43:40.000Z</time>
      </trkpt>
      <trkpt lat="43.53279" lon="5.51176">
        <ele>244</ele>
        <time>2018-02-20T09:43:41.000Z</time>
      </trkpt>
      <trkpt lat="43.53278" lon="5.51175">
        <ele>244</ele>
        <time>2018-02-20T09:43:42.000Z</time>
      </trkpt>
      <trkpt lat="43.53278" lon="5.51174">
        <ele>244</ele>
        <time>2018-02-20T09:43:43.000Z</time>
      </trkpt>
      <trkpt lat="43.53277" lon="5.51173">
        <ele>244</ele>
        <time>2018-02-20T09:43:44.000Z</time>
      </trkpt>
      <trkpt lat="43.53276" lon="5.51171">
        <ele>244</ele>
        <time>2018-02-20T09:43:45.000Z</time>
      </trkpt>
      <trkpt lat="43.53275" lon="5.5117">
        <ele>244</ele>
        <time>2018-02-20T09:43:46.000Z</time>
      </trkpt>
      <trkpt lat="43.53274" lon="5.51169">
        <ele>244</ele>
        <time>2018-02-20T09:43:47.000Z</time>
      </trkpt>
      <trkpt lat="43.53274" lon="5.51168">
        <ele>244</ele>
        <time>2018-02-20T09:43:48.000Z</time>
      </trkpt>
      <trkpt lat="43.53273" lon="5.51167">
        <ele>244</ele>
        <time>2018-02-20T09:43:49.000Z</time>
      </trkpt>
      <trkpt lat="43.53273" lon="5.51166">
        <ele>244</ele>
        <time>2018-02-20T09:43:50.000Z</time>
      </trkpt>
      <trkpt lat="43.53272" lon="5.51165">
        <ele>244</ele>
        <time>2018-02-20T09:43:51.000Z</time>
      </trkpt>
      <trkpt lat="43.53271" lon="5.51164">
        <ele>244</ele>
        <time>2018-02-20T09:43:52.000Z</time>
      </trkpt>
      <trkpt lat="43.5327" lon="5.51163">
        <ele>244</ele>
        <time>2018-02-20T09:43:53.000Z</time>
      </trkpt>
      <trkpt lat="43.53269" lon="5.51162">
        <ele>244</ele>
        <time>2018-02-20T09:43:54.000Z</time>
      </trkpt>
      <trkpt lat="43.53268" lon="5.51162">
        <ele>244</ele>
        <time>2018-02-20T09:43:55.000Z</time>
      </trkpt>
      <trkpt lat="43.53267" lon="5.51162">
        <ele>244</ele>
        <time>2018-02-20T09:43:56.000Z</time>
      </trkpt>
      <trkpt lat="43.53265" lon="5.51161">
        <ele>244</ele>
        <time>2018-02-20T09:43:57.000Z</time>
      </trkpt>
      <trkpt lat="43.53264" lon="5.51161">
        <ele>244</ele>
        <time>2018-02-20T09:43:58.000Z</time>
      </trkpt>
      <trkpt lat="43.53263" lon="5.5116">
        <ele>244</ele>
        <time>2018-02-20T09:43:59.000Z</time>
      </trkpt>
      <trkpt lat="43.53262" lon="5.5116">
        <ele>244</ele>
        <time>2018-02-20T09:44:00.000Z</time>
      </trkpt>
      <trkpt lat="43.53261" lon="5.5116">
        <ele>244</ele>
        <time>2018-02-20T09:44:01.000Z</time>
      </trkpt>
      <trkpt lat="43.5326" lon="5.5116">
        <ele>244</ele>
        <time>2018-02-20T09:44:02.000Z</time>
      </trkpt>
      <trkpt lat="43.53259" lon="5.51159">
        <ele>244</ele>
        <time>2018-02-20T09:44:03.000Z</time>
      </trkpt>
      <trkpt lat="43.53258" lon="5.51159">
        <ele>244</ele>
        <time>2018-02-20T09:44:04.000Z</time>
      </trkpt>
      <trkpt lat="43.53257" lon="5.51158">
        <ele>244</ele>
        <time>2018-02-20T09:44:05.000Z</time>
      </trkpt>
      <trkpt lat="43.53257" lon="5.51158">
        <ele>244</ele>
        <time>2018-02-20T09:44:06.000Z</time>
      </trkpt>
      <trkpt lat="43.53257" lon="5.51158">
        <ele>244</ele>
        <time>2018-02-20T09:44:07.000Z</time>
      </trkpt>
      <trkpt lat="43.53257" lon="5.51159">
        <ele>244</ele>
        <time>2018-02-20T09:44:08.000Z</time>
      </trkpt>
      <trkpt lat="43.53257" lon="5.5116">
        <ele>244</ele>
        <time>2018-02-20T09:44:09.000Z</time>
      </trkpt>
      <trkpt lat="43.53257" lon="5.5116">
        <ele>244</ele>
        <time>2018-02-20T09:44:10.000Z</time>
      </trkpt>
      <trkpt lat="43.53257" lon="5.5116">
        <ele>244</ele>
        <time>2018-02-20T09:44:11.000Z</time>
      </trkpt>
      <trkpt lat="43.53257" lon="5.5116">
        <ele>244</ele>
        <time>2018-02-20T09:44:12.000Z</time>
      </trkpt>
      <trkpt lat="43.53257" lon="5.5116">
        <ele>244</ele>
        <time>2018-02-20T09:44:13.000Z</time>
      </trkpt>
      <trkpt lat="43.53257" lon="5.5116">
        <ele>244</ele>
        <time>2018-02-20T09:44:14.000Z</time>
      </trkpt>
      <trkpt lat="43.53257" lon="5.5116">
        <ele>244</ele>
        <time>2018-02-20T09:44:15.000Z</time>
      </trkpt>
      <trkpt lat="43.53257" lon="5.5116">
        <ele>244</ele>
        <time>2018-02-20T09:44:16.000Z</time>
      </trkpt>
      <trkpt lat="43.53257" lon="5.5116">
        <ele>244</ele>
        <time>2018-02-20T09:44:17.000Z</time>
      </trkpt>
      <trkpt lat="43.53257" lon="5.5116">
        <ele>244</ele>
        <time>2018-02-20T09:44:18.000Z</time>
      </trkpt>
      <trkpt lat="43.53257" lon="5.5116">
        <ele>244</ele>
        <time>2018-02-20T09:44:19.000Z</time>
      </trkpt>
      <trkpt lat="43.53257" lon="5.5116">
        <ele>244</ele>
        <time>2018-02-20T09:44:20.000Z</time>
      </trkpt>
      <trkpt lat="43.53257" lon="5.5116">
        <ele>244</ele>
        <time>2018-02-20T09:44:21.000Z</time>
      </trkpt>
      <trkpt lat="43.53257" lon="5.5116">
        <ele>244</ele>
        <time>2018-02-20T09:44:22.000Z</time>
      </trkpt>
      <trkpt lat="43.53257" lon="5.5116">
        <ele>244</ele>
        <time>2018-02-20T09:44:23.000Z</time>
      </trkpt>
      <trkpt lat="43.53257" lon="5.51159">
        <ele>244</ele>
        <time>2018-02-20T09:44:24.000Z</time>
      </trkpt>
      <trkpt lat="43.53257" lon="5.51158">
        <ele>244</ele>
        <time>2018-02-20T09:44:25.000Z</time>
      </trkpt>
      <trkpt lat="43.53257" lon="5.51158">
        <ele>244</ele>
        <time>2018-02-20T09:44:26.000Z</time>
      </trkpt>
      <trkpt lat="43.53257" lon="5.51157">
        <ele>244</ele>
        <time>2018-02-20T09:44:27.000Z</time>
      </trkpt>
      <trkpt lat="43.53257" lon="5.51156">
        <ele>244</ele>
        <time>2018-02-20T09:44:28.000Z</time>
      </trkpt>
      <trkpt lat="43.53257" lon="5.51155">
        <ele>244</ele>
        <time>2018-02-20T09:44:29.000Z</time>
      </trkpt>
      <trkpt lat="43.53258" lon="5.51154">
        <ele>244</ele>
        <time>2018-02-20T09:44:30.000Z</time>
      </trkpt>
      <trkpt lat="43.53258" lon="5.51154">
        <ele>244</ele>
        <time>2018-02-20T09:44:31.000Z</time>
      </trkpt>
      <trkpt lat="43.53258" lon="5.51153">
        <ele>244</ele>
        <time>2018-02-20T09:44:32.000Z</time>
      </trkpt>
      <trkpt lat="43.53258" lon="5.51152">
        <ele>244</ele>
        <time>2018-02-20T09:44:33.000Z</time>
      </trkpt>
      <trkpt lat="43.53259" lon="5.5115">
        <ele>244</ele>
        <time>2018-02-20T09:44:34.000Z</time>
      </trkpt>
      <trkpt lat="43.53259" lon="5.51149">
        <ele>244</ele>
        <time>2018-02-20T09:44:35.000Z</time>
      </trkpt>
      <trkpt lat="43.53259" lon="5.51147">
        <ele>244</ele>
        <time>2018-02-20T09:44:36.000Z</time>
      </trkpt>
      <trkpt lat="43.53259" lon="5.51146">
        <ele>244</ele>
        <time>2018-02-20T09:44:37.000Z</time>
      </trkpt>
      <trkpt lat="43.53259" lon="5.51144">
        <ele>244</ele>
        <time>2018-02-20T09:44:38.000Z</time>
      </trkpt>
      <trkpt lat="43.53258" lon="5.51143">
        <ele>244</ele>
        <time>2018-02-20T09:44:39.000Z</time>
      </trkpt>
      <trkpt lat="43.53257" lon="5.51142">
        <ele>244</ele>
        <time>2018-02-20T09:44:40.000Z</time>
      </trkpt>
      <trkpt lat="43.53256" lon="5.51141">
        <ele>244</ele>
        <time>2018-02-20T09:44:41.000Z</time>
      </trkpt>
      <trkpt lat="43.53255" lon="5.5114">
        <ele>244</ele>
        <time>2018-02-20T09:44:42.000Z</time>
      </trkpt>
      <trkpt lat="43.53255" lon="5.5114">
        <ele>244</ele>
        <time>2018-02-20T09:44:43.000Z</time>
      </trkpt>
      <trkpt lat="43.53254" lon="5.5114">
        <ele>244</ele>
        <time>2018-02-20T09:44:44.000Z</time>
      </trkpt>
      <trkpt lat="43.53253" lon="5.51141">
        <ele>244</ele>
        <time>2018-02-20T09:44:45.000Z</time>
      </trkpt>
      <trkpt lat="43.53252" lon="5.51141">
        <ele>244</ele>
        <time>2018-02-20T09:44:46.000Z</time>
      </trkpt>
      <trkpt lat="43.53251" lon="5.51141">
        <ele>244</ele>
        <time>2018-02-20T09:44:47.000Z</time>
      </trkpt>
      <trkpt lat="43.53249" lon="5.51141">
        <ele>244</ele>
        <time>2018-02-20T09:44:48.000Z</time>
      </trkpt>
      <trkpt lat="43.53248" lon="5.51141">
        <ele>244</ele>
        <time>2018-02-20T09:44:49.000Z</time>
      </trkpt>
      <trkpt lat="43.53246" lon="5.51141">
        <ele>244</ele>
        <time>2018-02-20T09:44:50.000Z</time>
      </trkpt>
      <trkpt lat="43.53245" lon="5.51141">
        <ele>244</ele>
        <time>2018-02-20T09:44:51.000Z</time>
      </trkpt>
      <trkpt lat="43.53244" lon="5.51142">
        <ele>244</ele>
        <time>2018-02-20T09:44:52.000Z</time>
      </trkpt>
      <trkpt lat="43.53243" lon="5.51142">
        <ele>244</ele>
        <time>2018-02-20T09:44:53.000Z</time>
      </trkpt>
      <trkpt lat="43.53242" lon="5.51142">
        <ele>245</ele>
        <time>2018-02-20T09:44:54.000Z</time>
      </trkpt>
      <trkpt lat="43.53241" lon="5.51142">
        <ele>245</ele>
        <time>2018-02-20T09:44:55.000Z</time>
      </trkpt>
      <trkpt lat="43.53241" lon="5.51142">
        <ele>245</ele>
        <time>2018-02-20T09:44:56.000Z</time>
      </trkpt>
      <trkpt lat="43.53241" lon="5.51142">
        <ele>245</ele>
        <time>2018-02-20T09:44:57.000Z</time>
      </trkpt>
      <trkpt lat="43.5324" lon="5.51142">
        <ele>245</ele>
        <time>2018-02-20T09:44:58.000Z</time>
      </trkpt>
      <trkpt lat="43.5324" lon="5.51142">
        <ele>245</ele>
        <time>2018-02-20T09:44:59.000Z</time>
      </trkpt>
      <trkpt lat="43.53239" lon="5.51141">
        <ele>245</ele>
        <time>2018-02-20T09:45:00.000Z</time>
      </trkpt>
      <trkpt lat="43.53239" lon="5.51141">
        <ele>245</ele>
        <time>2018-02-20T09:45:01.000Z</time>
      </trkpt>
      <trkpt lat="43.53238" lon="5.51142">
        <ele>245</ele>
        <time>2018-02-20T09:45:02.000Z</time>
      </trkpt>
      <trkpt lat="43.53237" lon="5.51142">
        <ele>245</ele>
        <time>2018-02-20T09:45:03.000Z</time>
      </trkpt>
      <trkpt lat="43.53237" lon="5.51142">
        <ele>245</ele>
        <time>2018-02-20T09:45:04.000Z</time>
      </trkpt>
      <trkpt lat="43.53237" lon="5.51142">
        <ele>245</ele>
        <time>2018-02-20T09:45:05.000Z</time>
      </trkpt>
      <trkpt lat="43.53237" lon="5.51141">
        <ele>245</ele>
        <time>2018-02-20T09:45:06.000Z</time>
      </trkpt>
      <trkpt lat="43.53236" lon="5.51141">
        <ele>245</ele>
        <time>2018-02-20T09:45:07.000Z</time>
      </trkpt>
      <trkpt lat="43.53235" lon="5.51141">
        <ele>245</ele>
        <time>2018-02-20T09:45:08.000Z</time>
      </trkpt>
      <trkpt lat="43.53234" lon="5.51141">
        <ele>245</ele>
        <time>2018-02-20T09:45:09.000Z</time>
      </trkpt>
      <trkpt lat="43.53234" lon="5.51141">
        <ele>245</ele>
        <time>2018-02-20T09:45:10.000Z</time>
      </trkpt>
      <trkpt lat="43.53234" lon="5.51141">
        <ele>245</ele>
        <time>2018-02-20T09:45:11.000Z</time>
      </trkpt>
      <trkpt lat="43.53234" lon="5.51141">
        <ele>245</ele>
        <time>2018-02-20T09:45:12.000Z</time>
      </trkpt>
      <trkpt lat="43.53234" lon="5.51141">
        <ele>245</ele>
        <time>2018-02-20T09:45:13.000Z</time>
      </trkpt>
      <trkpt lat="43.53234" lon="5.51141">
        <ele>245</ele>
        <time>2018-02-20T09:45:14.000Z</time>
      </trkpt>
      <trkpt lat="43.53234" lon="5.51141">
        <ele>244</ele>
        <time>2018-02-20T09:45:15.000Z</time>
      </trkpt>
      <trkpt lat="43.53234" lon="5.51141">
        <ele>244</ele>
        <time>2018-02-20T09:45:16.000Z</time>
      </trkpt>
      <trkpt lat="43.53234" lon="5.51141">
        <ele>244</ele>
        <time>2018-02-20T09:45:17.000Z</time>
      </trkpt>
      <trkpt lat="43.53234" lon="5.51141">
        <ele>244</ele>
        <time>2018-02-20T09:45:18.000Z</time>
      </trkpt>
      <trkpt lat="43.53234" lon="5.51141">
        <ele>244</ele>
        <time>2018-02-20T09:45:19.000Z</time>
      </trkpt>
      <trkpt lat="43.53234" lon="5.51141">
        <ele>244</ele>
        <time>2018-02-20T09:45:20.000Z</time>
      </trkpt>
      <trkpt lat="43.53234" lon="5.51141">
        <ele>244</ele>
        <time>2018-02-20T09:45:21.000Z</time>
      </trkpt>
      <trkpt lat="43.53234" lon="5.51141">
        <ele>244</ele>
        <time>2018-02-20T09:45:22.000Z</time>
      </trkpt>
      <trkpt lat="43.53234" lon="5.51141">
        <ele>244</ele>
        <time>2018-02-20T09:45:23.000Z</time>
      </trkpt>
      <trkpt lat="43.53235" lon="5.51141">
        <ele>244</ele>
        <time>2018-02-20T09:45:24.000Z</time>
      </trkpt>
      <trkpt lat="43.53235" lon="5.51141">
        <ele>244</ele>
        <time>2018-02-20T09:45:25.000Z</time>
      </trkpt>
      <trkpt lat="43.53235" lon="5.51142">
        <ele>244</ele>
        <time>2018-02-20T09:45:26.000Z</time>
      </trkpt>
      <trkpt lat="43.53235" lon="5.51142">
        <ele>244</ele>
        <time>2018-02-20T09:45:27.000Z</time>
      </trkpt>
      <trkpt lat="43.53235" lon="5.51142">
        <ele>244</ele>
        <time>2018-02-20T09:45:28.000Z</time>
      </trkpt>
      <trkpt lat="43.53234" lon="5.51142">
        <ele>244</ele>
        <time>2018-02-20T09:45:29.000Z</time>
      </trkpt>
      <trkpt lat="43.53234" lon="5.51141">
        <ele>244</ele>
        <time>2018-02-20T09:45:30.000Z</time>
      </trkpt>
      <trkpt lat="43.53234" lon="5.51142">
        <ele>244</ele>
        <time>2018-02-20T09:45:31.000Z</time>
      </trkpt>
      <trkpt lat="43.53234" lon="5.51141">
        <ele>244</ele>
        <time>2018-02-20T09:45:32.000Z</time>
      </trkpt>
      <trkpt lat="43.53234" lon="5.51141">
        <ele>244</ele>
        <time>2018-02-20T09:45:33.000Z</time>
      </trkpt>
      <trkpt lat="43.53234" lon="5.51141">
        <ele>244</ele>
        <time>2018-02-20T09:45:34.000Z</time>
      </trkpt>
      <trkpt lat="43.53234" lon="5.51142">
        <ele>244</ele>
        <time>2018-02-20T09:45:35.000Z</time>
      </trkpt>
      <trkpt lat="43.53234" lon="5.51142">
        <ele>244</ele>
        <time>2018-02-20T09:45:36.000Z</time>
      </trkpt>
      <trkpt lat="43.53234" lon="5.51141">
        <ele>244</ele>
        <time>2018-02-20T09:45:37.000Z</time>
      </trkpt>
      <trkpt lat="43.53233" lon="5.51141">
        <ele>244</ele>
        <time>2018-02-20T09:45:38.000Z</time>
      </trkpt>
      <trkpt lat="43.53233" lon="5.51141">
        <ele>243</ele>
        <time>2018-02-20T09:45:39.000Z</time>
      </trkpt>
      <trkpt lat="43.53232" lon="5.5114">
        <ele>243</ele>
        <time>2018-02-20T09:45:40.000Z</time>
      </trkpt>
      <trkpt lat="43.53231" lon="5.5114">
        <ele>243</ele>
        <time>2018-02-20T09:45:41.000Z</time>
      </trkpt>
      <trkpt lat="43.5323" lon="5.5114">
        <ele>243</ele>
        <time>2018-02-20T09:45:42.000Z</time>
      </trkpt>
      <trkpt lat="43.53229" lon="5.51139">
        <ele>243</ele>
        <time>2018-02-20T09:45:43.000Z</time>
      </trkpt>
      <trkpt lat="43.53228" lon="5.51139">
        <ele>243</ele>
        <time>2018-02-20T09:45:44.000Z</time>
      </trkpt>
      <trkpt lat="43.53227" lon="5.51139">
        <ele>243</ele>
        <time>2018-02-20T09:45:45.000Z</time>
      </trkpt>
      <trkpt lat="43.53226" lon="5.51138">
        <ele>243</ele>
        <time>2018-02-20T09:45:46.000Z</time>
      </trkpt>
      <trkpt lat="43.53225" lon="5.51137">
        <ele>243</ele>
        <time>2018-02-20T09:45:47.000Z</time>
      </trkpt>
      <trkpt lat="43.53223" lon="5.51137">
        <ele>243</ele>
        <time>2018-02-20T09:45:48.000Z</time>
      </trkpt>
      <trkpt lat="43.53222" lon="5.51136">
        <ele>243</ele>
        <time>2018-02-20T09:45:49.000Z</time>
      </trkpt>
      <trkpt lat="43.53222" lon="5.51136">
        <ele>243</ele>
        <time>2018-02-20T09:45:50.000Z</time>
      </trkpt>
      <trkpt lat="43.53221" lon="5.51135">
        <ele>243</ele>
        <time>2018-02-20T09:45:51.000Z</time>
      </trkpt>
      <trkpt lat="43.5322" lon="5.51134">
        <ele>243</ele>
        <time>2018-02-20T09:45:52.000Z</time>
      </trkpt>
      <trkpt lat="43.53219" lon="5.51134">
        <ele>243</ele>
        <time>2018-02-20T09:45:53.000Z</time>
      </trkpt>
      <trkpt lat="43.53217" lon="5.51133">
        <ele>243</ele>
        <time>2018-02-20T09:45:54.000Z</time>
      </trkpt>
      <trkpt lat="43.53217" lon="5.51132">
        <ele>243</ele>
        <time>2018-02-20T09:45:55.000Z</time>
      </trkpt>
      <trkpt lat="43.53216" lon="5.51132">
        <ele>242</ele>
        <time>2018-02-20T09:45:56.000Z</time>
      </trkpt>
      <trkpt lat="43.53214" lon="5.51131">
        <ele>242</ele>
        <time>2018-02-20T09:45:57.000Z</time>
      </trkpt>
      <trkpt lat="43.53213" lon="5.5113">
        <ele>242</ele>
        <time>2018-02-20T09:45:58.000Z</time>
      </trkpt>
      <trkpt lat="43.53212" lon="5.51129">
        <ele>242</ele>
        <time>2018-02-20T09:45:59.000Z</time>
      </trkpt>
      <trkpt lat="43.53211" lon="5.51129">
        <ele>242</ele>
        <time>2018-02-20T09:46:00.000Z</time>
      </trkpt>
      <trkpt lat="43.53211" lon="5.51128">
        <ele>242</ele>
        <time>2018-02-20T09:46:01.000Z</time>
      </trkpt>
      <trkpt lat="43.5321" lon="5.51127">
        <ele>242</ele>
        <time>2018-02-20T09:46:02.000Z</time>
      </trkpt>
      <trkpt lat="43.5321" lon="5.51127">
        <ele>242</ele>
        <time>2018-02-20T09:46:03.000Z</time>
      </trkpt>
      <trkpt lat="43.53209" lon="5.51127">
        <ele>242</ele>
        <time>2018-02-20T09:46:04.000Z</time>
      </trkpt>
      <trkpt lat="43.53209" lon="5.51126">
        <ele>242</ele>
        <time>2018-02-20T09:46:05.000Z</time>
      </trkpt>
      <trkpt lat="43.53209" lon="5.51126">
        <ele>242</ele>
        <time>2018-02-20T09:46:06.000Z</time>
      </trkpt>
      <trkpt lat="43.53209" lon="5.51126">
        <ele>242</ele>
        <time>2018-02-20T09:46:07.000Z</time>
      </trkpt>
      <trkpt lat="43.53209" lon="5.51126">
        <ele>242</ele>
        <time>2018-02-20T09:46:08.000Z</time>
      </trkpt>
      <trkpt lat="43.53208" lon="5.51126">
        <ele>242</ele>
        <time>2018-02-20T09:46:09.000Z</time>
      </trkpt>
      <trkpt lat="43.53208" lon="5.51126">
        <ele>242</ele>
        <time>2018-02-20T09:46:10.000Z</time>
      </trkpt>
      <trkpt lat="43.53207" lon="5.51125">
        <ele>242</ele>
        <time>2018-02-20T09:46:11.000Z</time>
      </trkpt>
      <trkpt lat="43.53207" lon="5.51125">
        <ele>243</ele>
        <time>2018-02-20T09:46:12.000Z</time>
      </trkpt>
      <trkpt lat="43.53206" lon="5.51125">
        <ele>243</ele>
        <time>2018-02-20T09:46:13.000Z</time>
      </trkpt>
      <trkpt lat="43.53205" lon="5.51124">
        <ele>242</ele>
        <time>2018-02-20T09:46:14.000Z</time>
      </trkpt>
      <trkpt lat="43.53205" lon="5.51123">
        <ele>242</ele>
        <time>2018-02-20T09:46:15.000Z</time>
      </trkpt>
      <trkpt lat="43.53204" lon="5.51123">
        <ele>242</ele>
        <time>2018-02-20T09:46:16.000Z</time>
      </trkpt>
      <trkpt lat="43.53204" lon="5.51123">
        <ele>242</ele>
        <time>2018-02-20T09:46:17.000Z</time>
      </trkpt>
      <trkpt lat="43.53204" lon="5.51123">
        <ele>242</ele>
        <time>2018-02-20T09:46:18.000Z</time>
      </trkpt>
      <trkpt lat="43.53203" lon="5.51123">
        <ele>243</ele>
        <time>2018-02-20T09:46:19.000Z</time>
      </trkpt>
      <trkpt lat="43.53203" lon="5.51123">
        <ele>243</ele>
        <time>2018-02-20T09:46:20.000Z</time>
      </trkpt>
      <trkpt lat="43.53203" lon="5.51123">
        <ele>243</ele>
        <time>2018-02-20T09:46:21.000Z</time>
      </trkpt>
      <trkpt lat="43.53203" lon="5.51123">
        <ele>243</ele>
        <time>2018-02-20T09:46:22.000Z</time>
      </trkpt>
      <trkpt lat="43.53203" lon="5.51123">
        <ele>242</ele>
        <time>2018-02-20T09:46:23.000Z</time>
      </trkpt>
      <trkpt lat="43.53203" lon="5.51123">
        <ele>242</ele>
        <time>2018-02-20T09:46:24.000Z</time>
      </trkpt>
      <trkpt lat="43.53203" lon="5.51123">
        <ele>242</ele>
        <time>2018-02-20T09:46:25.000Z</time>
      </trkpt>
      <trkpt lat="43.53203" lon="5.51123">
        <ele>242</ele>
        <time>2018-02-20T09:46:26.000Z</time>
      </trkpt>
      <trkpt lat="43.53202" lon="5.51122">
        <ele>242</ele>
        <time>2018-02-20T09:46:27.000Z</time>
      </trkpt>
      <trkpt lat="43.53202" lon="5.51121">
        <ele>242</ele>
        <time>2018-02-20T09:46:28.000Z</time>
      </trkpt>
      <trkpt lat="43.53201" lon="5.5112">
        <ele>242</ele>
        <time>2018-02-20T09:46:29.000Z</time>
      </trkpt>
      <trkpt lat="43.53201" lon="5.5112">
        <ele>242</ele>
        <time>2018-02-20T09:46:30.000Z</time>
      </trkpt>
      <trkpt lat="43.53201" lon="5.5112">
        <ele>242</ele>
        <time>2018-02-20T09:46:31.000Z</time>
      </trkpt>
      <trkpt lat="43.53201" lon="5.5112">
        <ele>242</ele>
        <time>2018-02-20T09:46:32.000Z</time>
      </trkpt>
      <trkpt lat="43.53201" lon="5.5112">
        <ele>242</ele>
        <time>2018-02-20T09:46:33.000Z</time>
      </trkpt>
      <trkpt lat="43.53201" lon="5.5112">
        <ele>242</ele>
        <time>2018-02-20T09:46:34.000Z</time>
      </trkpt>
      <trkpt lat="43.53201" lon="5.5112">
        <ele>242</ele>
        <time>2018-02-20T09:46:35.000Z</time>
      </trkpt>
      <trkpt lat="43.53201" lon="5.5112">
        <ele>242</ele>
        <time>2018-02-20T09:46:36.000Z</time>
      </trkpt>
      <trkpt lat="43.53201" lon="5.5112">
        <ele>242</ele>
        <time>2018-02-20T09:46:37.000Z</time>
      </trkpt>
      <trkpt lat="43.53201" lon="5.5112">
        <ele>242</ele>
        <time>2018-02-20T09:46:38.000Z</time>
      </trkpt>
      <trkpt lat="43.53201" lon="5.5112">
        <ele>242</ele>
        <time>2018-02-20T09:46:39.000Z</time>
      </trkpt>
      <trkpt lat="43.53201" lon="5.5112">
        <ele>242</ele>
        <time>2018-02-20T09:46:40.000Z</time>
      </trkpt>
      <trkpt lat="43.53201" lon="5.5112">
        <ele>242</ele>
        <time>2018-02-20T09:46:41.000Z</time>
      </trkpt>
      <trkpt lat="43.53201" lon="5.5112">
        <ele>242</ele>
        <time>2018-02-20T09:46:42.000Z</time>
      </trkpt>
      <trkpt lat="43.53201" lon="5.5112">
        <ele>242</ele>
        <time>2018-02-20T09:46:43.000Z</time>
      </trkpt>
      <trkpt lat="43.53201" lon="5.5112">
        <ele>242</ele>
        <time>2018-02-20T09:46:44.000Z</time>
      </trkpt>
      <trkpt lat="43.53201" lon="5.5112">
        <ele>242</ele>
        <time>2018-02-20T09:46:45.000Z</time>
      </trkpt>
      <trkpt lat="43.53201" lon="5.5112">
        <ele>242</ele>
        <time>2018-02-20T09:46:46.000Z</time>
      </trkpt>
      <trkpt lat="43.53201" lon="5.5112">
        <ele>242</ele>
        <time>2018-02-20T09:46:47.000Z</time>
      </trkpt>
      <trkpt lat="43.53201" lon="5.5112">
        <ele>242</ele>
        <time>2018-02-20T09:46:48.000Z</time>
      </trkpt>
      <trkpt lat="43.53201" lon="5.5112">
        <ele>242</ele>
        <time>2018-02-20T09:46:49.000Z</time>
      </trkpt>
      <trkpt lat="43.53201" lon="5.5112">
        <ele>242</ele>
        <time>2018-02-20T09:46:50.000Z</time>
      </trkpt>
      <trkpt lat="43.53201" lon="5.5112">
        <ele>242</ele>
        <time>2018-02-20T09:46:51.000Z</time>
      </trkpt>
      <trkpt lat="43.53201" lon="5.5112">
        <ele>242</ele>
        <time>2018-02-20T09:46:52.000Z</time>
      </trkpt>
      <trkpt lat="43.53201" lon="5.5112">
        <ele>242</ele>
        <time>2018-02-20T09:46:53.000Z</time>
      </trkpt>
      <trkpt lat="43.53201" lon="5.5112">
        <ele>242</ele>
        <time>2018-02-20T09:46:54.000Z</time>
      </trkpt>
      <trkpt lat="43.53201" lon="5.5112">
        <ele>242</ele>
        <time>2018-02-20T09:46:55.000Z</time>
      </trkpt>
      <trkpt lat="43.53201" lon="5.5112">
        <ele>242</ele>
        <time>2018-02-20T09:46:56.000Z</time>
      </trkpt>
      <trkpt lat="43.53201" lon="5.5112">
        <ele>242</ele>
        <time>2018-02-20T09:46:57.000Z</time>
      </trkpt>
      <trkpt lat="43.53201" lon="5.5112">
        <ele>242</ele>
        <time>2018-02-20T09:46:58.000Z</time>
      </trkpt>
      <trkpt lat="43.53201" lon="5.5112">
        <ele>242</ele>
        <time>2018-02-20T09:46:59.000Z</time>
      </trkpt>
      <trkpt lat="43.53201" lon="5.5112">
        <ele>242</ele>
        <time>2018-02-20T09:47:00.000Z</time>
      </trkpt>
      <trkpt lat="43.53201" lon="5.5112">
        <ele>242</ele>
        <time>2018-02-20T09:47:01.000Z</time>
      </trkpt>
      <trkpt lat="43.53201" lon="5.5112">
        <ele>242</ele>
        <time>2018-02-20T09:47:02.000Z</time>
      </trkpt>
      <trkpt lat="43.53201" lon="5.5112">
        <ele>242</ele>
        <time>2018-02-20T09:47:03.000Z</time>
      </trkpt>
      <trkpt lat="43.53201" lon="5.5112">
        <ele>242</ele>
        <time>2018-02-20T09:47:04.000Z</time>
      </trkpt>
      <trkpt lat="43.53201" lon="5.5112">
        <ele>242</ele>
        <time>2018-02-20T09:47:05.000Z</time>
      </trkpt>
      <trkpt lat="43.53201" lon="5.5112">
        <ele>242</ele>
        <time>2018-02-20T09:47:06.000Z</time>
      </trkpt>
      <trkpt lat="43.53201" lon="5.5112">
        <ele>242</ele>
        <time>2018-02-20T09:47:07.000Z</time>
      </trkpt>
      <trkpt lat="43.53201" lon="5.5112">
        <ele>242</ele>
        <time>2018-02-20T09:47:08.000Z</time>
      </trkpt>
      <trkpt lat="43.53201" lon="5.5112">
        <ele>243</ele>
        <time>2018-02-20T09:47:09.000Z</time>
      </trkpt>
      <trkpt lat="43.53201" lon="5.5112">
        <ele>243</ele>
        <time>2018-02-20T09:47:10.000Z</time>
      </trkpt>
      <trkpt lat="43.53201" lon="5.5112">
        <ele>243</ele>
        <time>2018-02-20T09:47:11.000Z</time>
      </trkpt>
      <trkpt lat="43.53201" lon="5.5112">
        <ele>243</ele>
        <time>2018-02-20T09:47:12.000Z</time>
      </trkpt>
      <trkpt lat="43.53201" lon="5.5112">
        <ele>243</ele>
        <time>2018-02-20T09:47:13.000Z</time>
      </trkpt>
      <trkpt lat="43.53201" lon="5.5112">
        <ele>243</ele>
        <time>2018-02-20T09:47:14.000Z</time>
      </trkpt>
      <trkpt lat="43.53201" lon="5.5112">
        <ele>243</ele>
        <time>2018-02-20T09:47:15.000Z</time>
      </trkpt>
      <trkpt lat="43.53201" lon="5.5112">
        <ele>243</ele>
        <time>2018-02-20T09:47:16.000Z</time>
      </trkpt>
      <trkpt lat="43.53201" lon="5.5112">
        <ele>243</ele>
        <time>2018-02-20T09:47:17.000Z</time>
      </trkpt>
      <trkpt lat="43.53201" lon="5.5112">
        <ele>243</ele>
        <time>2018-02-20T09:47:18.000Z</time>
      </trkpt>
      <trkpt lat="43.53201" lon="5.5112">
        <ele>243</ele>
        <time>2018-02-20T09:47:19.000Z</time>
      </trkpt>
      <trkpt lat="43.53201" lon="5.5112">
        <ele>243</ele>
        <time>2018-02-20T09:47:20.000Z</time>
      </trkpt>
      <trkpt lat="43.53202" lon="5.51119">
        <ele>243</ele>
        <time>2018-02-20T09:47:21.000Z</time>
      </trkpt>
      <trkpt lat="43.53202" lon="5.51119">
        <ele>243</ele>
        <time>2018-02-20T09:47:22.000Z</time>
      </trkpt>
      <trkpt lat="43.53202" lon="5.51119">
        <ele>243</ele>
        <time>2018-02-20T09:47:23.000Z</time>
      </trkpt>
      <trkpt lat="43.53202" lon="5.51118">
        <ele>243</ele>
        <time>2018-02-20T09:47:24.000Z</time>
      </trkpt>
      <trkpt lat="43.53202" lon="5.51118">
        <ele>243</ele>
        <time>2018-02-20T09:47:25.000Z</time>
      </trkpt>
      <trkpt lat="43.53202" lon="5.51117">
        <ele>243</ele>
        <time>2018-02-20T09:47:26.000Z</time>
      </trkpt>
      <trkpt lat="43.53202" lon="5.51116">
        <ele>243</ele>
        <time>2018-02-20T09:47:27.000Z</time>
      </trkpt>
      <trkpt lat="43.53202" lon="5.51115">
        <ele>242</ele>
        <time>2018-02-20T09:47:28.000Z</time>
      </trkpt>
      <trkpt lat="43.53202" lon="5.51115">
        <ele>242</ele>
        <time>2018-02-20T09:47:29.000Z</time>
      </trkpt>
      <trkpt lat="43.53202" lon="5.51115">
        <ele>243</ele>
        <time>2018-02-20T09:47:30.000Z</time>
      </trkpt>
      <trkpt lat="43.53202" lon="5.51115">
        <ele>243</ele>
        <time>2018-02-20T09:47:31.000Z</time>
      </trkpt>
      <trkpt lat="43.53201" lon="5.51114">
        <ele>243</ele>
        <time>2018-02-20T09:47:32.000Z</time>
      </trkpt>
      <trkpt lat="43.53201" lon="5.51114">
        <ele>243</ele>
        <time>2018-02-20T09:47:33.000Z</time>
      </trkpt>
      <trkpt lat="43.53201" lon="5.51114">
        <ele>243</ele>
        <time>2018-02-20T09:47:34.000Z</time>
      </trkpt>
      <trkpt lat="43.53201" lon="5.51114">
        <ele>242</ele>
        <time>2018-02-20T09:47:35.000Z</time>
      </trkpt>
      <trkpt lat="43.53202" lon="5.51113">
        <ele>243</ele>
        <time>2018-02-20T09:47:36.000Z</time>
      </trkpt>
      <trkpt lat="43.53202" lon="5.51113">
        <ele>243</ele>
        <time>2018-02-20T09:47:37.000Z</time>
      </trkpt>
      <trkpt lat="43.53202" lon="5.51113">
        <ele>243</ele>
        <time>2018-02-20T09:47:38.000Z</time>
      </trkpt>
      <trkpt lat="43.53202" lon="5.51113">
        <ele>243</ele>
        <time>2018-02-20T09:47:39.000Z</time>
      </trkpt>
      <trkpt lat="43.53202" lon="5.51113">
        <ele>243</ele>
        <time>2018-02-20T09:47:40.000Z</time>
      </trkpt>
      <trkpt lat="43.53202" lon="5.51113">
        <ele>243</ele>
        <time>2018-02-20T09:47:41.000Z</time>
      </trkpt>
      <trkpt lat="43.53202" lon="5.51113">
        <ele>243</ele>
        <time>2018-02-20T09:47:42.000Z</time>
      </trkpt>
      <trkpt lat="43.53202" lon="5.51112">
        <ele>243</ele>
        <time>2018-02-20T09:47:43.000Z</time>
      </trkpt>
      <trkpt lat="43.53202" lon="5.51113">
        <ele>242</ele>
        <time>2018-02-20T09:47:44.000Z</time>
      </trkpt>
      <trkpt lat="43.53203" lon="5.51114">
        <ele>242</ele>
        <time>2018-02-20T09:47:45.000Z</time>
      </trkpt>
      <trkpt lat="43.53204" lon="5.51115">
        <ele>242</ele>
        <time>2018-02-20T09:47:46.000Z</time>
      </trkpt>
      <trkpt lat="43.53204" lon="5.51116">
        <ele>242</ele>
        <time>2018-02-20T09:47:47.000Z</time>
      </trkpt>
      <trkpt lat="43.53205" lon="5.51117">
        <ele>242</ele>
        <time>2018-02-20T09:47:48.000Z</time>
      </trkpt>
      <trkpt lat="43.53206" lon="5.51119">
        <ele>243</ele>
        <time>2018-02-20T09:47:49.000Z</time>
      </trkpt>
      <trkpt lat="43.53207" lon="5.5112">
        <ele>243</ele>
        <time>2018-02-20T09:47:50.000Z</time>
      </trkpt>
      <trkpt lat="43.53209" lon="5.51121">
        <ele>243</ele>
        <time>2018-02-20T09:47:51.000Z</time>
      </trkpt>
      <trkpt lat="43.5321" lon="5.51122">
        <ele>243</ele>
        <time>2018-02-20T09:47:52.000Z</time>
      </trkpt>
      <trkpt lat="43.53211" lon="5.51123">
        <ele>243</ele>
        <time>2018-02-20T09:47:53.000Z</time>
      </trkpt>
      <trkpt lat="43.53212" lon="5.51124">
        <ele>243</ele>
        <time>2018-02-20T09:47:54.000Z</time>
      </trkpt>
      <trkpt lat="43.53213" lon="5.51124">
        <ele>242</ele>
        <time>2018-02-20T09:47:55.000Z</time>
      </trkpt>
      <trkpt lat="43.53213" lon="5.51124">
        <ele>242</ele>
        <time>2018-02-20T09:47:56.000Z</time>
      </trkpt>
      <trkpt lat="43.53214" lon="5.51124">
        <ele>242</ele>
        <time>2018-02-20T09:47:57.000Z</time>
      </trkpt>
      <trkpt lat="43.53214" lon="5.51125">
        <ele>242</ele>
        <time>2018-02-20T09:47:58.000Z</time>
      </trkpt>
      <trkpt lat="43.53214" lon="5.51125">
        <ele>242</ele>
        <time>2018-02-20T09:47:59.000Z</time>
      </trkpt>
      <trkpt lat="43.53214" lon="5.51125">
        <ele>242</ele>
        <time>2018-02-20T09:48:00.000Z</time>
      </trkpt>
      <trkpt lat="43.53214" lon="5.51124">
        <ele>242</ele>
        <time>2018-02-20T09:48:01.000Z</time>
      </trkpt>
      <trkpt lat="43.53214" lon="5.51124">
        <ele>242</ele>
        <time>2018-02-20T09:48:02.000Z</time>
      </trkpt>
      <trkpt lat="43.53214" lon="5.51124">
        <ele>242</ele>
        <time>2018-02-20T09:48:03.000Z</time>
      </trkpt>
      <trkpt lat="43.53214" lon="5.51124">
        <ele>242</ele>
        <time>2018-02-20T09:48:04.000Z</time>
      </trkpt>
      <trkpt lat="43.53214" lon="5.51124">
        <ele>242</ele>
        <time>2018-02-20T09:48:05.000Z</time>
      </trkpt>
      <trkpt lat="43.53214" lon="5.51124">
        <ele>242</ele>
        <time>2018-02-20T09:48:06.000Z</time>
      </trkpt>
      <trkpt lat="43.53214" lon="5.51125">
        <ele>242</ele>
        <time>2018-02-20T09:48:07.000Z</time>
      </trkpt>
      <trkpt lat="43.53214" lon="5.51125">
        <ele>242</ele>
        <time>2018-02-20T09:48:08.000Z</time>
      </trkpt>
      <trkpt lat="43.53214" lon="5.51125">
        <ele>242</ele>
        <time>2018-02-20T09:48:09.000Z</time>
      </trkpt>
      <trkpt lat="43.53214" lon="5.51125">
        <ele>242</ele>
        <time>2018-02-20T09:48:10.000Z</time>
      </trkpt>
      <trkpt lat="43.53214" lon="5.51125">
        <ele>242</ele>
        <time>2018-02-20T09:48:11.000Z</time>
      </trkpt>
      <trkpt lat="43.53214" lon="5.51125">
        <ele>242</ele>
        <time>2018-02-20T09:48:12.000Z</time>
      </trkpt>
      <trkpt lat="43.53214" lon="5.51125">
        <ele>242</ele>
        <time>2018-02-20T09:48:13.000Z</time>
      </trkpt>
      <trkpt lat="43.53214" lon="5.51125">
        <ele>242</ele>
        <time>2018-02-20T09:48:14.000Z</time>
      </trkpt>
      <trkpt lat="43.53214" lon="5.51125">
        <ele>242</ele>
        <time>2018-02-20T09:48:15.000Z</time>
      </trkpt>
      <trkpt lat="43.53214" lon="5.51125">
        <ele>242</ele>
        <time>2018-02-20T09:48:16.000Z</time>
      </trkpt>
      <trkpt lat="43.53214" lon="5.51125">
        <ele>242</ele>
        <time>2018-02-20T09:48:17.000Z</time>
      </trkpt>
      <trkpt lat="43.53214" lon="5.51125">
        <ele>242</ele>
        <time>2018-02-20T09:48:18.000Z</time>
      </trkpt>
      <trkpt lat="43.53214" lon="5.51125">
        <ele>242</ele>
        <time>2018-02-20T09:48:19.000Z</time>
      </trkpt>
      <trkpt lat="43.53214" lon="5.51124">
        <ele>242</ele>
        <time>2018-02-20T09:48:20.000Z</time>
      </trkpt>
      <trkpt lat="43.53213" lon="5.51124">
        <ele>242</ele>
        <time>2018-02-20T09:48:21.000Z</time>
      </trkpt>
      <trkpt lat="43.53213" lon="5.51124">
        <ele>242</ele>
        <time>2018-02-20T09:48:22.000Z</time>
      </trkpt>
      <trkpt lat="43.53213" lon="5.51124">
        <ele>242</ele>
        <time>2018-02-20T09:48:23.000Z</time>
      </trkpt>
      <trkpt lat="43.53213" lon="5.51124">
        <ele>242</ele>
        <time>2018-02-20T09:48:24.000Z</time>
      </trkpt>
      <trkpt lat="43.53213" lon="5.51124">
        <ele>242</ele>
        <time>2018-02-20T09:48:25.000Z</time>
      </trkpt>
      <trkpt lat="43.53213" lon="5.51124">
        <ele>242</ele>
        <time>2018-02-20T09:48:26.000Z</time>
      </trkpt>
      <trkpt lat="43.53213" lon="5.51124">
        <ele>242</ele>
        <time>2018-02-20T09:48:27.000Z</time>
      </trkpt>
      <trkpt lat="43.53213" lon="5.51124">
        <ele>242</ele>
        <time>2018-02-20T09:48:28.000Z</time>
      </trkpt>
      <trkpt lat="43.53213" lon="5.51124">
        <ele>242</ele>
        <time>2018-02-20T09:48:29.000Z</time>
      </trkpt>
      <trkpt lat="43.53212" lon="5.51124">
        <ele>242</ele>
        <time>2018-02-20T09:48:30.000Z</time>
      </trkpt>
      <trkpt lat="43.53212" lon="5.51124">
        <ele>242</ele>
        <time>2018-02-20T09:48:31.000Z</time>
      </trkpt>
      <trkpt lat="43.53212" lon="5.51124">
        <ele>242</ele>
        <time>2018-02-20T09:48:32.000Z</time>
      </trkpt>
      <trkpt lat="43.53212" lon="5.51124">
        <ele>242</ele>
        <time>2018-02-20T09:48:33.000Z</time>
      </trkpt>
      <trkpt lat="43.53212" lon="5.51123">
        <ele>242</ele>
        <time>2018-02-20T09:48:34.000Z</time>
      </trkpt>
      <trkpt lat="43.53211" lon="5.51123">
        <ele>242</ele>
        <time>2018-02-20T09:48:35.000Z</time>
      </trkpt>
      <trkpt lat="43.53211" lon="5.51124">
        <ele>242</ele>
        <time>2018-02-20T09:48:36.000Z</time>
      </trkpt>
      <trkpt lat="43.5321" lon="5.51124">
        <ele>242</ele>
        <time>2018-02-20T09:48:37.000Z</time>
      </trkpt>
      <trkpt lat="43.5321" lon="5.51124">
        <ele>242</ele>
        <time>2018-02-20T09:48:38.000Z</time>
      </trkpt>
      <trkpt lat="43.5321" lon="5.51124">
        <ele>242</ele>
        <time>2018-02-20T09:48:39.000Z</time>
      </trkpt>
      <trkpt lat="43.53209" lon="5.51125">
        <ele>242</ele>
        <time>2018-02-20T09:48:40.000Z</time>
      </trkpt>
      <trkpt lat="43.53209" lon="5.51125">
        <ele>242</ele>
        <time>2018-02-20T09:48:41.000Z</time>
      </trkpt>
      <trkpt lat="43.53209" lon="5.51125">
        <ele>242</ele>
        <time>2018-02-20T09:48:42.000Z</time>
      </trkpt>
      <trkpt lat="43.53209" lon="5.51125">
        <ele>242</ele>
        <time>2018-02-20T09:48:43.000Z</time>
      </trkpt>
      <trkpt lat="43.53209" lon="5.51125">
        <ele>242</ele>
        <time>2018-02-20T09:48:44.000Z</time>
      </trkpt>
      <trkpt lat="43.53209" lon="5.51125">
        <ele>242</ele>
        <time>2018-02-20T09:48:45.000Z</time>
      </trkpt>
      <trkpt lat="43.53209" lon="5.51125">
        <ele>242</ele>
        <time>2018-02-20T09:48:46.000Z</time>
      </trkpt>
      <trkpt lat="43.53209" lon="5.51125">
        <ele>242</ele>
        <time>2018-02-20T09:48:47.000Z</time>
      </trkpt>
      <trkpt lat="43.53209" lon="5.51125">
        <ele>242</ele>
        <time>2018-02-20T09:48:48.000Z</time>
      </trkpt>
      <trkpt lat="43.53209" lon="5.51125">
        <ele>242</ele>
        <time>2018-02-20T09:48:49.000Z</time>
      </trkpt>
      <trkpt lat="43.53209" lon="5.51125">
        <ele>242</ele>
        <time>2018-02-20T09:48:50.000Z</time>
      </trkpt>
      <trkpt lat="43.5321" lon="5.51125">
        <ele>242</ele>
        <time>2018-02-20T09:48:51.000Z</time>
      </trkpt>
      <trkpt lat="43.5321" lon="5.51125">
        <ele>242</ele>
        <time>2018-02-20T09:48:52.000Z</time>
      </trkpt>
      <trkpt lat="43.5321" lon="5.51125">
        <ele>242</ele>
        <time>2018-02-20T09:48:53.000Z</time>
      </trkpt>
      <trkpt lat="43.5321" lon="5.51125">
        <ele>242</ele>
        <time>2018-02-20T09:48:54.000Z</time>
      </trkpt>
      <trkpt lat="43.5321" lon="5.51125">
        <ele>242</ele>
        <time>2018-02-20T09:48:55.000Z</time>
      </trkpt>
      <trkpt lat="43.53209" lon="5.51125">
        <ele>242</ele>
        <time>2018-02-20T09:48:56.000Z</time>
      </trkpt>
      <trkpt lat="43.53209" lon="5.51125">
        <ele>242</ele>
        <time>2018-02-20T09:48:57.000Z</time>
      </trkpt>
      <trkpt lat="43.53209" lon="5.51125">
        <ele>242</ele>
        <time>2018-02-20T09:48:58.000Z</time>
      </trkpt>
      <trkpt lat="43.53208" lon="5.51125">
        <ele>242</ele>
        <time>2018-02-20T09:48:59.000Z</time>
      </trkpt>
      <trkpt lat="43.53208" lon="5.51125">
        <ele>242</ele>
        <time>2018-02-20T09:49:00.000Z</time>
      </trkpt>
      <trkpt lat="43.53208" lon="5.51125">
        <ele>242</ele>
        <time>2018-02-20T09:49:01.000Z</time>
      </trkpt>
      <trkpt lat="43.53208" lon="5.51125">
        <ele>242</ele>
        <time>2018-02-20T09:49:02.000Z</time>
      </trkpt>
      <trkpt lat="43.53208" lon="5.51125">
        <ele>242</ele>
        <time>2018-02-20T09:49:03.000Z</time>
      </trkpt>
      <trkpt lat="43.53208" lon="5.51125">
        <ele>242</ele>
        <time>2018-02-20T09:49:04.000Z</time>
      </trkpt>
      <trkpt lat="43.53208" lon="5.51125">
        <ele>242</ele>
        <time>2018-02-20T09:49:05.000Z</time>
      </trkpt>
      <trkpt lat="43.53208" lon="5.51125">
        <ele>242</ele>
        <time>2018-02-20T09:49:06.000Z</time>
      </trkpt>
      <trkpt lat="43.53208" lon="5.51125">
        <ele>242</ele>
        <time>2018-02-20T09:49:07.000Z</time>
      </trkpt>
      <trkpt lat="43.53208" lon="5.51125">
        <ele>242</ele>
        <time>2018-02-20T09:49:08.000Z</time>
      </trkpt>
      <trkpt lat="43.53209" lon="5.51125">
        <ele>242</ele>
        <time>2018-02-20T09:49:09.000Z</time>
      </trkpt>
      <trkpt lat="43.53209" lon="5.51125">
        <ele>242</ele>
        <time>2018-02-20T09:49:10.000Z</time>
      </trkpt>
      <trkpt lat="43.53208" lon="5.51125">
        <ele>242</ele>
        <time>2018-02-20T09:49:11.000Z</time>
      </trkpt>
      <trkpt lat="43.53208" lon="5.51125">
        <ele>242</ele>
        <time>2018-02-20T09:49:12.000Z</time>
      </trkpt>
      <trkpt lat="43.53208" lon="5.51125">
        <ele>242</ele>
        <time>2018-02-20T09:49:13.000Z</time>
      </trkpt>
      <trkpt lat="43.53208" lon="5.51125">
        <ele>242</ele>
        <time>2018-02-20T09:49:14.000Z</time>
      </trkpt>
      <trkpt lat="43.53208" lon="5.51125">
        <ele>242</ele>
        <time>2018-02-20T09:49:15.000Z</time>
      </trkpt>
      <trkpt lat="43.53208" lon="5.51125">
        <ele>242</ele>
        <time>2018-02-20T09:49:16.000Z</time>
      </trkpt>
      <trkpt lat="43.53208" lon="5.51125">
        <ele>242</ele>
        <time>2018-02-20T09:49:17.000Z</time>
      </trkpt>
      <trkpt lat="43.53208" lon="5.51125">
        <ele>242</ele>
        <time>2018-02-20T09:49:18.000Z</time>
      </trkpt>
      <trkpt lat="43.53208" lon="5.51125">
        <ele>242</ele>
        <time>2018-02-20T09:49:19.000Z</time>
      </trkpt>
      <trkpt lat="43.53208" lon="5.51124">
        <ele>242</ele>
        <time>2018-02-20T09:49:20.000Z</time>
      </trkpt>
      <trkpt lat="43.53208" lon="5.51124">
        <ele>242</ele>
        <time>2018-02-20T09:49:21.000Z</time>
      </trkpt>
      <trkpt lat="43.53208" lon="5.51124">
        <ele>242</ele>
        <time>2018-02-20T09:49:22.000Z</time>
      </trkpt>
      <trkpt lat="43.53207" lon="5.51124">
        <ele>243</ele>
        <time>2018-02-20T09:49:23.000Z</time>
      </trkpt>
      <trkpt lat="43.53207" lon="5.51124">
        <ele>243</ele>
        <time>2018-02-20T09:49:24.000Z</time>
      </trkpt>
      <trkpt lat="43.53207" lon="5.51124">
        <ele>243</ele>
        <time>2018-02-20T09:49:25.000Z</time>
      </trkpt>
      <trkpt lat="43.53207" lon="5.51124">
        <ele>243</ele>
        <time>2018-02-20T09:49:26.000Z</time>
      </trkpt>
      <trkpt lat="43.53207" lon="5.51124">
        <ele>243</ele>
        <time>2018-02-20T09:49:27.000Z</time>
      </trkpt>
      <trkpt lat="43.53207" lon="5.51124">
        <ele>243</ele>
        <time>2018-02-20T09:49:28.000Z</time>
      </trkpt>
      <trkpt lat="43.53207" lon="5.51124">
        <ele>243</ele>
        <time>2018-02-20T09:49:29.000Z</time>
      </trkpt>
      <trkpt lat="43.53207" lon="5.51124">
        <ele>243</ele>
        <time>2018-02-20T09:49:30.000Z</time>
      </trkpt>
      <trkpt lat="43.53207" lon="5.51124">
        <ele>243</ele>
        <time>2018-02-20T09:49:31.000Z</time>
      </trkpt>
      <trkpt lat="43.53207" lon="5.51124">
        <ele>243</ele>
        <time>2018-02-20T09:49:32.000Z</time>
      </trkpt>
      <trkpt lat="43.53207" lon="5.51124">
        <ele>243</ele>
        <time>2018-02-20T09:49:33.000Z</time>
      </trkpt>
      <trkpt lat="43.53207" lon="5.51124">
        <ele>243</ele>
        <time>2018-02-20T09:49:34.000Z</time>
      </trkpt>
      <trkpt lat="43.53207" lon="5.51124">
        <ele>243</ele>
        <time>2018-02-20T09:49:35.000Z</time>
      </trkpt>
      <trkpt lat="43.53207" lon="5.51124">
        <ele>243</ele>
        <time>2018-02-20T09:49:36.000Z</time>
      </trkpt>
      <trkpt lat="43.53207" lon="5.51124">
        <ele>243</ele>
        <time>2018-02-20T09:49:37.000Z</time>
      </trkpt>
      <trkpt lat="43.53208" lon="5.51124">
        <ele>243</ele>
        <time>2018-02-20T09:49:38.000Z</time>
      </trkpt>
      <trkpt lat="43.53208" lon="5.51124">
        <ele>243</ele>
        <time>2018-02-20T09:49:39.000Z</time>
      </trkpt>
      <trkpt lat="43.53208" lon="5.51124">
        <ele>243</ele>
        <time>2018-02-20T09:49:40.000Z</time>
      </trkpt>
      <trkpt lat="43.53208" lon="5.51124">
        <ele>243</ele>
        <time>2018-02-20T09:49:41.000Z</time>
      </trkpt>
      <trkpt lat="43.53208" lon="5.51124">
        <ele>243</ele>
        <time>2018-02-20T09:49:42.000Z</time>
      </trkpt>
      <trkpt lat="43.53208" lon="5.51124">
        <ele>243</ele>
        <time>2018-02-20T09:49:43.000Z</time>
      </trkpt>
      <trkpt lat="43.53208" lon="5.51124">
        <ele>243</ele>
        <time>2018-02-20T09:49:44.000Z</time>
      </trkpt>
      <trkpt lat="43.53208" lon="5.51123">
        <ele>243</ele>
        <time>2018-02-20T09:49:45.000Z</time>
      </trkpt>
      <trkpt lat="43.53208" lon="5.51123">
        <ele>243</ele>
        <time>2018-02-20T09:49:46.000Z</time>
      </trkpt>
      <trkpt lat="43.53208" lon="5.51123">
        <ele>243</ele>
        <time>2018-02-20T09:49:47.000Z</time>
      </trkpt>
      <trkpt lat="43.53208" lon="5.51123">
        <ele>243</ele>
        <time>2018-02-20T09:49:48.000Z</time>
      </trkpt>
      <trkpt lat="43.53208" lon="5.51123">
        <ele>243</ele>
        <time>2018-02-20T09:49:49.000Z</time>
      </trkpt>
      <trkpt lat="43.53208" lon="5.51123">
        <ele>243</ele>
        <time>2018-02-20T09:49:50.000Z</time>
      </trkpt>
      <trkpt lat="43.53208" lon="5.51123">
        <ele>243</ele>
        <time>2018-02-20T09:49:51.000Z</time>
      </trkpt>
      <trkpt lat="43.53208" lon="5.51123">
        <ele>242</ele>
        <time>2018-02-20T09:49:52.000Z</time>
      </trkpt>
      <trkpt lat="43.53208" lon="5.51123">
        <ele>242</ele>
        <time>2018-02-20T09:49:53.000Z</time>
      </trkpt>
      <trkpt lat="43.53208" lon="5.51123">
        <ele>242</ele>
        <time>2018-02-20T09:49:54.000Z</time>
      </trkpt>
      <trkpt lat="43.53208" lon="5.51123">
        <ele>242</ele>
        <time>2018-02-20T09:49:55.000Z</time>
      </trkpt>
      <trkpt lat="43.53208" lon="5.51123">
        <ele>242</ele>
        <time>2018-02-20T09:49:56.000Z</time>
      </trkpt>
      <trkpt lat="43.53208" lon="5.51123">
        <ele>242</ele>
        <time>2018-02-20T09:49:57.000Z</time>
      </trkpt>
      <trkpt lat="43.53208" lon="5.51123">
        <ele>242</ele>
        <time>2018-02-20T09:49:58.000Z</time>
      </trkpt>
      <trkpt lat="43.53208" lon="5.51123">
        <ele>242</ele>
        <time>2018-02-20T09:49:59.000Z</time>
      </trkpt>
      <trkpt lat="43.53208" lon="5.51124">
        <ele>242</ele>
        <time>2018-02-20T09:50:00.000Z</time>
      </trkpt>
      <trkpt lat="43.53208" lon="5.51124">
        <ele>242</ele>
        <time>2018-02-20T09:50:01.000Z</time>
      </trkpt>
      <trkpt lat="43.53209" lon="5.51123">
        <ele>242</ele>
        <time>2018-02-20T09:50:02.000Z</time>
      </trkpt>
      <trkpt lat="43.53209" lon="5.51123">
        <ele>242</ele>
        <time>2018-02-20T09:50:03.000Z</time>
      </trkpt>
      <trkpt lat="43.53209" lon="5.51122">
        <ele>242</ele>
        <time>2018-02-20T09:50:04.000Z</time>
      </trkpt>
      <trkpt lat="43.53209" lon="5.51122">
        <ele>242</ele>
        <time>2018-02-20T09:50:05.000Z</time>
      </trkpt>
      <trkpt lat="43.53209" lon="5.51122">
        <ele>242</ele>
        <time>2018-02-20T09:50:06.000Z</time>
      </trkpt>
      <trkpt lat="43.53209" lon="5.51122">
        <ele>242</ele>
        <time>2018-02-20T09:50:07.000Z</time>
      </trkpt>
      <trkpt lat="43.53209" lon="5.51123">
        <ele>242</ele>
        <time>2018-02-20T09:50:08.000Z</time>
      </trkpt>
      <trkpt lat="43.5321" lon="5.51123">
        <ele>242</ele>
        <time>2018-02-20T09:50:09.000Z</time>
      </trkpt>
      <trkpt lat="43.5321" lon="5.51124">
        <ele>242</ele>
        <time>2018-02-20T09:50:10.000Z</time>
      </trkpt>
      <trkpt lat="43.5321" lon="5.51124">
        <ele>242</ele>
        <time>2018-02-20T09:50:11.000Z</time>
      </trkpt>
      <trkpt lat="43.5321" lon="5.51123">
        <ele>242</ele>
        <time>2018-02-20T09:50:12.000Z</time>
      </trkpt>
      <trkpt lat="43.5321" lon="5.51123">
        <ele>242</ele>
        <time>2018-02-20T09:50:13.000Z</time>
      </trkpt>
      <trkpt lat="43.5321" lon="5.51123">
        <ele>242</ele>
        <time>2018-02-20T09:50:14.000Z</time>
      </trkpt>
      <trkpt lat="43.5321" lon="5.51123">
        <ele>242</ele>
        <time>2018-02-20T09:50:15.000Z</time>
      </trkpt>
      <trkpt lat="43.5321" lon="5.51122">
        <ele>242</ele>
        <time>2018-02-20T09:50:16.000Z</time>
      </trkpt>
      <trkpt lat="43.5321" lon="5.51122">
        <ele>242</ele>
        <time>2018-02-20T09:50:17.000Z</time>
      </trkpt>
      <trkpt lat="43.5321" lon="5.51123">
        <ele>242</ele>
        <time>2018-02-20T09:50:18.000Z</time>
      </trkpt>
      <trkpt lat="43.5321" lon="5.51123">
        <ele>242</ele>
        <time>2018-02-20T09:50:19.000Z</time>
      </trkpt>
      <trkpt lat="43.5321" lon="5.51123">
        <ele>242</ele>
        <time>2018-02-20T09:50:20.000Z</time>
      </trkpt>
      <trkpt lat="43.5321" lon="5.51123">
        <ele>242</ele>
        <time>2018-02-20T09:50:21.000Z</time>
      </trkpt>
      <trkpt lat="43.5321" lon="5.51123">
        <ele>242</ele>
        <time>2018-02-20T09:50:22.000Z</time>
      </trkpt>
      <trkpt lat="43.5321" lon="5.51123">
        <ele>243</ele>
        <time>2018-02-20T09:50:23.000Z</time>
      </trkpt>
      <trkpt lat="43.5321" lon="5.51123">
        <ele>243</ele>
        <time>2018-02-20T09:50:24.000Z</time>
      </trkpt>
      <trkpt lat="43.5321" lon="5.51123">
        <ele>243</ele>
        <time>2018-02-20T09:50:25.000Z</time>
      </trkpt>
      <trkpt lat="43.53209" lon="5.51123">
        <ele>243</ele>
        <time>2018-02-20T09:50:26.000Z</time>
      </trkpt>
      <trkpt lat="43.53209" lon="5.51123">
        <ele>243</ele>
        <time>2018-02-20T09:50:27.000Z</time>
      </trkpt>
      <trkpt lat="43.53209" lon="5.51123">
        <ele>243</ele>
        <time>2018-02-20T09:50:28.000Z</time>
      </trkpt>
      <trkpt lat="43.53209" lon="5.51123">
        <ele>243</ele>
        <time>2018-02-20T09:50:29.000Z</time>
      </trkpt>
      <trkpt lat="43.53209" lon="5.51123">
        <ele>243</ele>
        <time>2018-02-20T09:50:30.000Z</time>
      </trkpt>
      <trkpt lat="43.53209" lon="5.51123">
        <ele>243</ele>
        <time>2018-02-20T09:50:31.000Z</time>
      </trkpt>
      <trkpt lat="43.53209" lon="5.51123">
        <ele>243</ele>
        <time>2018-02-20T09:50:32.000Z</time>
      </trkpt>
      <trkpt lat="43.53209" lon="5.51123">
        <ele>243</ele>
        <time>2018-02-20T09:50:33.000Z</time>
      </trkpt>
      <trkpt lat="43.53209" lon="5.51122">
        <ele>243</ele>
        <time>2018-02-20T09:50:34.000Z</time>
      </trkpt>
      <trkpt lat="43.53208" lon="5.51122">
        <ele>243</ele>
        <time>2018-02-20T09:50:35.000Z</time>
      </trkpt>
      <trkpt lat="43.53208" lon="5.51122">
        <ele>243</ele>
        <time>2018-02-20T09:50:36.000Z</time>
      </trkpt>
      <trkpt lat="43.53208" lon="5.51122">
        <ele>243</ele>
        <time>2018-02-20T09:50:37.000Z</time>
      </trkpt>
      <trkpt lat="43.53208" lon="5.51122">
        <ele>243</ele>
        <time>2018-02-20T09:50:38.000Z</time>
      </trkpt>
      <trkpt lat="43.53208" lon="5.51122">
        <ele>243</ele>
        <time>2018-02-20T09:50:39.000Z</time>
      </trkpt>
      <trkpt lat="43.53208" lon="5.51122">
        <ele>243</ele>
        <time>2018-02-20T09:50:40.000Z</time>
      </trkpt>
      <trkpt lat="43.53208" lon="5.51122">
        <ele>242</ele>
        <time>2018-02-20T09:50:41.000Z</time>
      </trkpt>
      <trkpt lat="43.53208" lon="5.51122">
        <ele>242</ele>
        <time>2018-02-20T09:50:42.000Z</time>
      </trkpt>
      <trkpt lat="43.53208" lon="5.51122">
        <ele>242</ele>
        <time>2018-02-20T09:50:43.000Z</time>
      </trkpt>
      <trkpt lat="43.53208" lon="5.51122">
        <ele>242</ele>
        <time>2018-02-20T09:50:44.000Z</time>
      </trkpt>
      <trkpt lat="43.53208" lon="5.51122">
        <ele>242</ele>
        <time>2018-02-20T09:50:45.000Z</time>
      </trkpt>
      <trkpt lat="43.53208" lon="5.51122">
        <ele>242</ele>
        <time>2018-02-20T09:50:46.000Z</time>
      </trkpt>
      <trkpt lat="43.53208" lon="5.51122">
        <ele>242</ele>
        <time>2018-02-20T09:50:47.000Z</time>
      </trkpt>
      <trkpt lat="43.53208" lon="5.51122">
        <ele>242</ele>
        <time>2018-02-20T09:50:48.000Z</time>
      </trkpt>
      <trkpt lat="43.53208" lon="5.51122">
        <ele>242</ele>
        <time>2018-02-20T09:50:49.000Z</time>
      </trkpt>
      <trkpt lat="43.53208" lon="5.51122">
        <ele>242</ele>
        <time>2018-02-20T09:50:50.000Z</time>
      </trkpt>
      <trkpt lat="43.53208" lon="5.51122">
        <ele>242</ele>
        <time>2018-02-20T09:50:51.000Z</time>
      </trkpt>
      <trkpt lat="43.53208" lon="5.51122">
        <ele>242</ele>
        <time>2018-02-20T09:50:52.000Z</time>
      </trkpt>
      <trkpt lat="43.53208" lon="5.51122">
        <ele>242</ele>
        <time>2018-02-20T09:50:53.000Z</time>
      </trkpt>
      <trkpt lat="43.53208" lon="5.51122">
        <ele>242</ele>
        <time>2018-02-20T09:50:54.000Z</time>
      </trkpt>
      <trkpt lat="43.53208" lon="5.51122">
        <ele>242</ele>
        <time>2018-02-20T09:50:55.000Z</time>
      </trkpt>
      <trkpt lat="43.53208" lon="5.51122">
        <ele>242</ele>
        <time>2018-02-20T09:50:56.000Z</time>
      </trkpt>
      <trkpt lat="43.53208" lon="5.51122">
        <ele>242</ele>
        <time>2018-02-20T09:50:57.000Z</time>
      </trkpt>
      <trkpt lat="43.53208" lon="5.51122">
        <ele>242</ele>
        <time>2018-02-20T09:50:58.000Z</time>
      </trkpt>
      <trkpt lat="43.53208" lon="5.51122">
        <ele>242</ele>
        <time>2018-02-20T09:50:59.000Z</time>
      </trkpt>
      <trkpt lat="43.53208" lon="5.51122">
        <ele>242</ele>
        <time>2018-02-20T09:51:00.000Z</time>
      </trkpt>
      <trkpt lat="43.53208" lon="5.51122">
        <ele>242</ele>
        <time>2018-02-20T09:51:01.000Z</time>
      </trkpt>
      <trkpt lat="43.53208" lon="5.51122">
        <ele>242</ele>
        <time>2018-02-20T09:51:02.000Z</time>
      </trkpt>
      <trkpt lat="43.53208" lon="5.51122">
        <ele>242</ele>
        <time>2018-02-20T09:51:03.000Z</time>
      </trkpt>
      <trkpt lat="43.53208" lon="5.51122">
        <ele>242</ele>
        <time>2018-02-20T09:51:04.000Z</time>
      </trkpt>
      <trkpt lat="43.53208" lon="5.51122">
        <ele>242</ele>
        <time>2018-02-20T09:51:05.000Z</time>
      </trkpt>
      <trkpt lat="43.53208" lon="5.51122">
        <ele>242</ele>
        <time>2018-02-20T09:51:06.000Z</time>
      </trkpt>
      <trkpt lat="43.53208" lon="5.51121">
        <ele>242</ele>
        <time>2018-02-20T09:51:07.000Z</time>
      </trkpt>
      <trkpt lat="43.53208" lon="5.51121">
        <ele>242</ele>
        <time>2018-02-20T09:51:08.000Z</time>
      </trkpt>
      <trkpt lat="43.53208" lon="5.51121">
        <ele>242</ele>
        <time>2018-02-20T09:51:09.000Z</time>
      </trkpt>
      <trkpt lat="43.53208" lon="5.51121">
        <ele>242</ele>
        <time>2018-02-20T09:51:10.000Z</time>
      </trkpt>
      <trkpt lat="43.53208" lon="5.51121">
        <ele>242</ele>
        <time>2018-02-20T09:51:11.000Z</time>
      </trkpt>
      <trkpt lat="43.53208" lon="5.51121">
        <ele>242</ele>
        <time>2018-02-20T09:51:12.000Z</time>
      </trkpt>
      <trkpt lat="43.53208" lon="5.51121">
        <ele>242</ele>
        <time>2018-02-20T09:51:13.000Z</time>
      </trkpt>
      <trkpt lat="43.53208" lon="5.51121">
        <ele>242</ele>
        <time>2018-02-20T09:51:14.000Z</time>
      </trkpt>
      <trkpt lat="43.53208" lon="5.51121">
        <ele>242</ele>
        <time>2018-02-20T09:51:15.000Z</time>
      </trkpt>
      <trkpt lat="43.53208" lon="5.51121">
        <ele>242</ele>
        <time>2018-02-20T09:51:16.000Z</time>
      </trkpt>
      <trkpt lat="43.53208" lon="5.51121">
        <ele>242</ele>
        <time>2018-02-20T09:51:17.000Z</time>
      </trkpt>
      <trkpt lat="43.53208" lon="5.51121">
        <ele>242</ele>
        <time>2018-02-20T09:51:18.000Z</time>
      </trkpt>
      <trkpt lat="43.53208" lon="5.51121">
        <ele>242</ele>
        <time>2018-02-20T09:51:19.000Z</time>
      </trkpt>
      <trkpt lat="43.53208" lon="5.51121">
        <ele>242</ele>
        <time>2018-02-20T09:51:20.000Z</time>
      </trkpt>
      <trkpt lat="43.53208" lon="5.51121">
        <ele>242</ele>
        <time>2018-02-20T09:51:21.000Z</time>
      </trkpt>
      <trkpt lat="43.53208" lon="5.51121">
        <ele>243</ele>
        <time>2018-02-20T09:51:22.000Z</time>
      </trkpt>
      <trkpt lat="43.53208" lon="5.51121">
        <ele>243</ele>
        <time>2018-02-20T09:51:23.000Z</time>
      </trkpt>
      <trkpt lat="43.53208" lon="5.51121">
        <ele>243</ele>
        <time>2018-02-20T09:51:24.000Z</time>
      </trkpt>
      <trkpt lat="43.53208" lon="5.51121">
        <ele>243</ele>
        <time>2018-02-20T09:51:25.000Z</time>
      </trkpt>
      <trkpt lat="43.53208" lon="5.51121">
        <ele>243</ele>
        <time>2018-02-20T09:51:26.000Z</time>
      </trkpt>
      <trkpt lat="43.53208" lon="5.51121">
        <ele>243</ele>
        <time>2018-02-20T09:51:27.000Z</time>
      </trkpt>
      <trkpt lat="43.53208" lon="5.51121">
        <ele>243</ele>
        <time>2018-02-20T09:51:28.000Z</time>
      </trkpt>
      <trkpt lat="43.53208" lon="5.51121">
        <ele>243</ele>
        <time>2018-02-20T09:51:29.000Z</time>
      </trkpt>
      <trkpt lat="43.53208" lon="5.51121">
        <ele>243</ele>
        <time>2018-02-20T09:51:30.000Z</time>
      </trkpt>
      <trkpt lat="43.53208" lon="5.51121">
        <ele>243</ele>
        <time>2018-02-20T09:51:31.000Z</time>
      </trkpt>
      <trkpt lat="43.53208" lon="5.51121">
        <ele>243</ele>
        <time>2018-02-20T09:51:32.000Z</time>
      </trkpt>
      <trkpt lat="43.53208" lon="5.51121">
        <ele>243</ele>
        <time>2018-02-20T09:51:33.000Z</time>
      </trkpt>
      <trkpt lat="43.53208" lon="5.51121">
        <ele>243</ele>
        <time>2018-02-20T09:51:34.000Z</time>
      </trkpt>
      <trkpt lat="43.53208" lon="5.51121">
        <ele>243</ele>
        <time>2018-02-20T09:51:35.000Z</time>
      </trkpt>
      <trkpt lat="43.53208" lon="5.51121">
        <ele>243</ele>
        <time>2018-02-20T09:51:36.000Z</time>
      </trkpt>
      <trkpt lat="43.53209" lon="5.51121">
        <ele>243</ele>
        <time>2018-02-20T09:51:37.000Z</time>
      </trkpt>
      <trkpt lat="43.53209" lon="5.51122">
        <ele>243</ele>
        <time>2018-02-20T09:51:38.000Z</time>
      </trkpt>
      <trkpt lat="43.53209" lon="5.51122">
        <ele>243</ele>
        <time>2018-02-20T09:51:39.000Z</time>
      </trkpt>
      <trkpt lat="43.53209" lon="5.51122">
        <ele>243</ele>
        <time>2018-02-20T09:51:40.000Z</time>
      </trkpt>
      <trkpt lat="43.53209" lon="5.51122">
        <ele>243</ele>
        <time>2018-02-20T09:51:41.000Z</time>
      </trkpt>
      <trkpt lat="43.53209" lon="5.51122">
        <ele>243</ele>
        <time>2018-02-20T09:51:42.000Z</time>
      </trkpt>
      <trkpt lat="43.53209" lon="5.51122">
        <ele>243</ele>
        <time>2018-02-20T09:51:43.000Z</time>
      </trkpt>
      <trkpt lat="43.53208" lon="5.51122">
        <ele>243</ele>
        <time>2018-02-20T09:51:44.000Z</time>
      </trkpt>
      <trkpt lat="43.53208" lon="5.51122">
        <ele>243</ele>
        <time>2018-02-20T09:51:45.000Z</time>
      </trkpt>
      <trkpt lat="43.53208" lon="5.51122">
        <ele>243</ele>
        <time>2018-02-20T09:51:46.000Z</time>
      </trkpt>
      <trkpt lat="43.53208" lon="5.51122">
        <ele>243</ele>
        <time>2018-02-20T09:51:47.000Z</time>
      </trkpt>
      <trkpt lat="43.53208" lon="5.51122">
        <ele>243</ele>
        <time>2018-02-20T09:51:48.000Z</time>
      </trkpt>
      <trkpt lat="43.53208" lon="5.51122">
        <ele>243</ele>
        <time>2018-02-20T09:51:49.000Z</time>
      </trkpt>
      <trkpt lat="43.53208" lon="5.51122">
        <ele>243</ele>
        <time>2018-02-20T09:51:50.000Z</time>
      </trkpt>
      <trkpt lat="43.53208" lon="5.51122">
        <ele>243</ele>
        <time>2018-02-20T09:51:51.000Z</time>
      </trkpt>
      <trkpt lat="43.53208" lon="5.51122">
        <ele>243</ele>
        <time>2018-02-20T09:51:52.000Z</time>
      </trkpt>
      <trkpt lat="43.53208" lon="5.51122">
        <ele>243</ele>
        <time>2018-02-20T09:51:53.000Z</time>
      </trkpt>
      <trkpt lat="43.53208" lon="5.51122">
        <ele>243</ele>
        <time>2018-02-20T09:51:54.000Z</time>
      </trkpt>
      <trkpt lat="43.53208" lon="5.51122">
        <ele>243</ele>
        <time>2018-02-20T09:51:55.000Z</time>
      </trkpt>
      <trkpt lat="43.53208" lon="5.51122">
        <ele>243</ele>
        <time>2018-02-20T09:51:56.000Z</time>
      </trkpt>
      <trkpt lat="43.53208" lon="5.51122">
        <ele>243</ele>
        <time>2018-02-20T09:51:57.000Z</time>
      </trkpt>
      <trkpt lat="43.53208" lon="5.51122">
        <ele>243</ele>
        <time>2018-02-20T09:51:58.000Z</time>
      </trkpt>
      <trkpt lat="43.53208" lon="5.51122">
        <ele>243</ele>
        <time>2018-02-20T09:51:59.000Z</time>
      </trkpt>
      <trkpt lat="43.53208" lon="5.51122">
        <ele>243</ele>
        <time>2018-02-20T09:52:00.000Z</time>
      </trkpt>
      <trkpt lat="43.53208" lon="5.51122">
        <ele>243</ele>
        <time>2018-02-20T09:52:01.000Z</time>
      </trkpt>
      <trkpt lat="43.53208" lon="5.51122">
        <ele>243</ele>
        <time>2018-02-20T09:52:02.000Z</time>
      </trkpt>
      <trkpt lat="43.53208" lon="5.51122">
        <ele>243</ele>
        <time>2018-02-20T09:52:03.000Z</time>
      </trkpt>
      <trkpt lat="43.53208" lon="5.51122">
        <ele>243</ele>
        <time>2018-02-20T09:52:04.000Z</time>
      </trkpt>
      <trkpt lat="43.53208" lon="5.51123">
        <ele>243</ele>
        <time>2018-02-20T09:52:05.000Z</time>
      </trkpt>
      <trkpt lat="43.53208" lon="5.51123">
        <ele>243</ele>
        <time>2018-02-20T09:52:06.000Z</time>
      </trkpt>
      <trkpt lat="43.53208" lon="5.51123">
        <ele>243</ele>
        <time>2018-02-20T09:52:07.000Z</time>
      </trkpt>
      <trkpt lat="43.53208" lon="5.51123">
        <ele>243</ele>
        <time>2018-02-20T09:52:08.000Z</time>
      </trkpt>
      <trkpt lat="43.53208" lon="5.51122">
        <ele>243</ele>
        <time>2018-02-20T09:52:09.000Z</time>
      </trkpt>
      <trkpt lat="43.53208" lon="5.51123">
        <ele>242</ele>
        <time>2018-02-20T09:52:10.000Z</time>
      </trkpt>
      <trkpt lat="43.53208" lon="5.51123">
        <ele>242</ele>
        <time>2018-02-20T09:52:11.000Z</time>
      </trkpt>
      <trkpt lat="43.53208" lon="5.51123">
        <ele>242</ele>
        <time>2018-02-20T09:52:12.000Z</time>
      </trkpt>
      <trkpt lat="43.53208" lon="5.51123">
        <ele>242</ele>
        <time>2018-02-20T09:52:13.000Z</time>
      </trkpt>
      <trkpt lat="43.53208" lon="5.51123">
        <ele>242</ele>
        <time>2018-02-20T09:52:14.000Z</time>
      </trkpt>
      <trkpt lat="43.53208" lon="5.51123">
        <ele>242</ele>
        <time>2018-02-20T09:52:15.000Z</time>
      </trkpt>
      <trkpt lat="43.53208" lon="5.51123">
        <ele>242</ele>
        <time>2018-02-20T09:52:16.000Z</time>
      </trkpt>
      <trkpt lat="43.53208" lon="5.51123">
        <ele>242</ele>
        <time>2018-02-20T09:52:17.000Z</time>
      </trkpt>
      <trkpt lat="43.53208" lon="5.51123">
        <ele>242</ele>
        <time>2018-02-20T09:52:18.000Z</time>
      </trkpt>
      <trkpt lat="43.53208" lon="5.51123">
        <ele>242</ele>
        <time>2018-02-20T09:52:19.000Z</time>
      </trkpt>
      <trkpt lat="43.53208" lon="5.51123">
        <ele>242</ele>
        <time>2018-02-20T09:52:20.000Z</time>
      </trkpt>
      <trkpt lat="43.53208" lon="5.51123">
        <ele>242</ele>
        <time>2018-02-20T09:52:21.000Z</time>
      </trkpt>
      <trkpt lat="43.53208" lon="5.51123">
        <ele>242</ele>
        <time>2018-02-20T09:52:22.000Z</time>
      </trkpt>
      <trkpt lat="43.53208" lon="5.51123">
        <ele>242</ele>
        <time>2018-02-20T09:52:23.000Z</time>
      </trkpt>
      <trkpt lat="43.53208" lon="5.51123">
        <ele>242</ele>
        <time>2018-02-20T09:52:24.000Z</time>
      </trkpt>
      <trkpt lat="43.53208" lon="5.51123">
        <ele>242</ele>
        <time>2018-02-20T09:52:25.000Z</time>
      </trkpt>
      <trkpt lat="43.53208" lon="5.51123">
        <ele>242</ele>
        <time>2018-02-20T09:52:26.000Z</time>
      </trkpt>
      <trkpt lat="43.53208" lon="5.51123">
        <ele>242</ele>
        <time>2018-02-20T09:52:27.000Z</time>
      </trkpt>
      <trkpt lat="43.53208" lon="5.51123">
        <ele>242</ele>
        <time>2018-02-20T09:52:28.000Z</time>
      </trkpt>
      <trkpt lat="43.53208" lon="5.51122">
        <ele>242</ele>
        <time>2018-02-20T09:52:29.000Z</time>
      </trkpt>
      <trkpt lat="43.53208" lon="5.51122">
        <ele>242</ele>
        <time>2018-02-20T09:52:30.000Z</time>
      </trkpt>
      <trkpt lat="43.53208" lon="5.51122">
        <ele>242</ele>
        <time>2018-02-20T09:52:31.000Z</time>
      </trkpt>
      <trkpt lat="43.53208" lon="5.51122">
        <ele>242</ele>
        <time>2018-02-20T09:52:32.000Z</time>
      </trkpt>
      <trkpt lat="43.53208" lon="5.51122">
        <ele>242</ele>
        <time>2018-02-20T09:52:33.000Z</time>
      </trkpt>
      <trkpt lat="43.53208" lon="5.51122">
        <ele>242</ele>
        <time>2018-02-20T09:52:34.000Z</time>
      </trkpt>
      <trkpt lat="43.53208" lon="5.51122">
        <ele>242</ele>
        <time>2018-02-20T09:52:35.000Z</time>
      </trkpt>
      <trkpt lat="43.53208" lon="5.51122">
        <ele>242</ele>
        <time>2018-02-20T09:52:36.000Z</time>
      </trkpt>
      <trkpt lat="43.53208" lon="5.51122">
        <ele>242</ele>
        <time>2018-02-20T09:52:37.000Z</time>
      </trkpt>
      <trkpt lat="43.53208" lon="5.51122">
        <ele>242</ele>
        <time>2018-02-20T09:52:38.000Z</time>
      </trkpt>
      <trkpt lat="43.53208" lon="5.51122">
        <ele>242</ele>
        <time>2018-02-20T09:52:39.000Z</time>
      </trkpt>
      <trkpt lat="43.53208" lon="5.51122">
        <ele>242</ele>
        <time>2018-02-20T09:52:40.000Z</time>
      </trkpt>
      <trkpt lat="43.53208" lon="5.51122">
        <ele>242</ele>
        <time>2018-02-20T09:52:41.000Z</time>
      </trkpt>
      <trkpt lat="43.53208" lon="5.51122">
        <ele>242</ele>
        <time>2018-02-20T09:52:42.000Z</time>
      </trkpt>
      <trkpt lat="43.53208" lon="5.51122">
        <ele>242</ele>
        <time>2018-02-20T09:52:43.000Z</time>
      </trkpt>
      <trkpt lat="43.53208" lon="5.51122">
        <ele>242</ele>
        <time>2018-02-20T09:52:44.000Z</time>
      </trkpt>
      <trkpt lat="43.53208" lon="5.51122">
        <ele>242</ele>
        <time>2018-02-20T09:52:45.000Z</time>
      </trkpt>
      <trkpt lat="43.53208" lon="5.51122">
        <ele>242</ele>
        <time>2018-02-20T09:52:46.000Z</time>
      </trkpt>
      <trkpt lat="43.53208" lon="5.51122">
        <ele>242</ele>
        <time>2018-02-20T09:52:47.000Z</time>
      </trkpt>
      <trkpt lat="43.53208" lon="5.51122">
        <ele>242</ele>
        <time>2018-02-20T09:52:48.000Z</time>
      </trkpt>
      <trkpt lat="43.53208" lon="5.51122">
        <ele>242</ele>
        <time>2018-02-20T09:52:49.000Z</time>
      </trkpt>
      <trkpt lat="43.53208" lon="5.51122">
        <ele>242</ele>
        <time>2018-02-20T09:52:50.000Z</time>
      </trkpt>
      <trkpt lat="43.53208" lon="5.51122">
        <ele>242</ele>
        <time>2018-02-20T09:52:51.000Z</time>
      </trkpt>
      <trkpt lat="43.53208" lon="5.51122">
        <ele>242</ele>
        <time>2018-02-20T09:52:52.000Z</time>
      </trkpt>
      <trkpt lat="43.53208" lon="5.51122">
        <ele>242</ele>
        <time>2018-02-20T09:52:53.000Z</time>
      </trkpt>
      <trkpt lat="43.53208" lon="5.51122">
        <ele>242</ele>
        <time>2018-02-20T09:52:54.000Z</time>
      </trkpt>
      <trkpt lat="43.53208" lon="5.51122">
        <ele>242</ele>
        <time>2018-02-20T09:52:55.000Z</time>
      </trkpt>
      <trkpt lat="43.53208" lon="5.51122">
        <ele>242</ele>
        <time>2018-02-20T09:52:56.000Z</time>
      </trkpt>
      <trkpt lat="43.53208" lon="5.51122">
        <ele>242</ele>
        <time>2018-02-20T09:52:57.000Z</time>
      </trkpt>
      <trkpt lat="43.53208" lon="5.51122">
        <ele>242</ele>
        <time>2018-02-20T09:52:58.000Z</time>
      </trkpt>
      <trkpt lat="43.53208" lon="5.51122">
        <ele>242</ele>
        <time>2018-02-20T09:52:59.000Z</time>
      </trkpt>
      <trkpt lat="43.53208" lon="5.51122">
        <ele>242</ele>
        <time>2018-02-20T09:53:00.000Z</time>
      </trkpt>
      <trkpt lat="43.53208" lon="5.51122">
        <ele>242</ele>
        <time>2018-02-20T09:53:01.000Z</time>
      </trkpt>
      <trkpt lat="43.53208" lon="5.51122">
        <ele>242</ele>
        <time>2018-02-20T09:53:02.000Z</time>
      </trkpt>
      <trkpt lat="43.53209" lon="5.51122">
        <ele>242</ele>
        <time>2018-02-20T09:53:03.000Z</time>
      </trkpt>
      <trkpt lat="43.53209" lon="5.51122">
        <ele>242</ele>
        <time>2018-02-20T09:53:04.000Z</time>
      </trkpt>
      <trkpt lat="43.53209" lon="5.51122">
        <ele>242</ele>
        <time>2018-02-20T09:53:05.000Z</time>
      </trkpt>
      <trkpt lat="43.53209" lon="5.51122">
        <ele>243</ele>
        <time>2018-02-20T09:53:06.000Z</time>
      </trkpt>
      <trkpt lat="43.53209" lon="5.51122">
        <ele>243</ele>
        <time>2018-02-20T09:53:07.000Z</time>
      </trkpt>
      <trkpt lat="43.53209" lon="5.51122">
        <ele>243</ele>
        <time>2018-02-20T09:53:08.000Z</time>
      </trkpt>
      <trkpt lat="43.53209" lon="5.51122">
        <ele>243</ele>
        <time>2018-02-20T09:53:09.000Z</time>
      </trkpt>
      <trkpt lat="43.53209" lon="5.51122">
        <ele>243</ele>
        <time>2018-02-20T09:53:10.000Z</time>
      </trkpt>
      <trkpt lat="43.53209" lon="5.51122">
        <ele>243</ele>
        <time>2018-02-20T09:53:11.000Z</time>
      </trkpt>
      <trkpt lat="43.53209" lon="5.51122">
        <ele>243</ele>
        <time>2018-02-20T09:53:12.000Z</time>
      </trkpt>
      <trkpt lat="43.53209" lon="5.51123">
        <ele>243</ele>
        <time>2018-02-20T09:53:13.000Z</time>
      </trkpt>
      <trkpt lat="43.53209" lon="5.51122">
        <ele>243</ele>
        <time>2018-02-20T09:53:14.000Z</time>
      </trkpt>
      <trkpt lat="43.53209" lon="5.51122">
        <ele>243</ele>
        <time>2018-02-20T09:53:15.000Z</time>
      </trkpt>
      <trkpt lat="43.53209" lon="5.51122">
        <ele>243</ele>
        <time>2018-02-20T09:53:16.000Z</time>
      </trkpt>
      <trkpt lat="43.53209" lon="5.51122">
        <ele>243</ele>
        <time>2018-02-20T09:53:17.000Z</time>
      </trkpt>
      <trkpt lat="43.53209" lon="5.51122">
        <ele>243</ele>
        <time>2018-02-20T09:53:18.000Z</time>
      </trkpt>
      <trkpt lat="43.53209" lon="5.51122">
        <ele>243</ele>
        <time>2018-02-20T09:53:19.000Z</time>
      </trkpt>
      <trkpt lat="43.53209" lon="5.51122">
        <ele>243</ele>
        <time>2018-02-20T09:53:20.000Z</time>
      </trkpt>
      <trkpt lat="43.53209" lon="5.51122">
        <ele>243</ele>
        <time>2018-02-20T09:53:21.000Z</time>
      </trkpt>
      <trkpt lat="43.53209" lon="5.51122">
        <ele>243</ele>
        <time>2018-02-20T09:53:22.000Z</time>
      </trkpt>
      <trkpt lat="43.53209" lon="5.51122">
        <ele>243</ele>
        <time>2018-02-20T09:53:23.000Z</time>
      </trkpt>
      <trkpt lat="43.53209" lon="5.51122">
        <ele>243</ele>
        <time>2018-02-20T09:53:24.000Z</time>
      </trkpt>
      <trkpt lat="43.53209" lon="5.51122">
        <ele>243</ele>
        <time>2018-02-20T09:53:25.000Z</time>
      </trkpt>
      <trkpt lat="43.53209" lon="5.51122">
        <ele>243</ele>
        <time>2018-02-20T09:53:26.000Z</time>
      </trkpt>
      <trkpt lat="43.53209" lon="5.51122">
        <ele>242</ele>
        <time>2018-02-20T09:53:27.000Z</time>
      </trkpt>
      <trkpt lat="43.53209" lon="5.51122">
        <ele>242</ele>
        <time>2018-02-20T09:53:28.000Z</time>
      </trkpt>
      <trkpt lat="43.53209" lon="5.51122">
        <ele>242</ele>
        <time>2018-02-20T09:53:29.000Z</time>
      </trkpt>
      <trkpt lat="43.53209" lon="5.51122">
        <ele>242</ele>
        <time>2018-02-20T09:53:30.000Z</time>
      </trkpt>
      <trkpt lat="43.53209" lon="5.51122">
        <ele>242</ele>
        <time>2018-02-20T09:53:31.000Z</time>
      </trkpt>
      <trkpt lat="43.53209" lon="5.51122">
        <ele>242</ele>
        <time>2018-02-20T09:53:32.000Z</time>
      </trkpt>
      <trkpt lat="43.53209" lon="5.51122">
        <ele>242</ele>
        <time>2018-02-20T09:53:33.000Z</time>
      </trkpt>
      <trkpt lat="43.53209" lon="5.51122">
        <ele>242</ele>
        <time>2018-02-20T09:53:34.000Z</time>
      </trkpt>
      <trkpt lat="43.53209" lon="5.51122">
        <ele>242</ele>
        <time>2018-02-20T09:53:35.000Z</time>
      </trkpt>
      <trkpt lat="43.53209" lon="5.51122">
        <ele>242</ele>
        <time>2018-02-20T09:53:36.000Z</time>
      </trkpt>
      <trkpt lat="43.53209" lon="5.51122">
        <ele>242</ele>
        <time>2018-02-20T09:53:37.000Z</time>
      </trkpt>
      <trkpt lat="43.53209" lon="5.51122">
        <ele>242</ele>
        <time>2018-02-20T09:53:38.000Z</time>
      </trkpt>
      <trkpt lat="43.53209" lon="5.51122">
        <ele>242</ele>
        <time>2018-02-20T09:53:39.000Z</time>
      </trkpt>
      <trkpt lat="43.53209" lon="5.51122">
        <ele>242</ele>
        <time>2018-02-20T09:53:40.000Z</time>
      </trkpt>
      <trkpt lat="43.53209" lon="5.51122">
        <ele>242</ele>
        <time>2018-02-20T09:53:41.000Z</time>
      </trkpt>
      <trkpt lat="43.53209" lon="5.51122">
        <ele>242</ele>
        <time>2018-02-20T09:53:42.000Z</time>
      </trkpt>
      <trkpt lat="43.53209" lon="5.51122">
        <ele>242</ele>
        <time>2018-02-20T09:53:43.000Z</time>
      </trkpt>
      <trkpt lat="43.53209" lon="5.51122">
        <ele>242</ele>
        <time>2018-02-20T09:53:44.000Z</time>
      </trkpt>
      <trkpt lat="43.53209" lon="5.51122">
        <ele>242</ele>
        <time>2018-02-20T09:53:45.000Z</time>
      </trkpt>
      <trkpt lat="43.53209" lon="5.51122">
        <ele>242</ele>
        <time>2018-02-20T09:53:46.000Z</time>
      </trkpt>
      <trkpt lat="43.53209" lon="5.51122">
        <ele>242</ele>
        <time>2018-02-20T09:53:47.000Z</time>
      </trkpt>
      <trkpt lat="43.53209" lon="5.51122">
        <ele>242</ele>
        <time>2018-02-20T09:53:48.000Z</time>
      </trkpt>
      <trkpt lat="43.53209" lon="5.51122">
        <ele>242</ele>
        <time>2018-02-20T09:53:49.000Z</time>
      </trkpt>
      <trkpt lat="43.53209" lon="5.51122">
        <ele>242</ele>
        <time>2018-02-20T09:53:50.000Z</time>
      </trkpt>
      <trkpt lat="43.53209" lon="5.51122">
        <ele>242</ele>
        <time>2018-02-20T09:53:51.000Z</time>
      </trkpt>
      <trkpt lat="43.53209" lon="5.51122">
        <ele>242</ele>
        <time>2018-02-20T09:53:52.000Z</time>
      </trkpt>
      <trkpt lat="43.53209" lon="5.51122">
        <ele>242</ele>
        <time>2018-02-20T09:53:53.000Z</time>
      </trkpt>
      <trkpt lat="43.53209" lon="5.51122">
        <ele>242</ele>
        <time>2018-02-20T09:53:54.000Z</time>
      </trkpt>
      <trkpt lat="43.53209" lon="5.51122">
        <ele>242</ele>
        <time>2018-02-20T09:53:55.000Z</time>
      </trkpt>
      <trkpt lat="43.53209" lon="5.51122">
        <ele>242</ele>
        <time>2018-02-20T09:53:56.000Z</time>
      </trkpt>
      <trkpt lat="43.53209" lon="5.51122">
        <ele>242</ele>
        <time>2018-02-20T09:53:57.000Z</time>
      </trkpt>
      <trkpt lat="43.5321" lon="5.51122">
        <ele>242</ele>
        <time>2018-02-20T09:53:58.000Z</time>
      </trkpt>
      <trkpt lat="43.5321" lon="5.51122">
        <ele>242</ele>
        <time>2018-02-20T09:53:59.000Z</time>
      </trkpt>
      <trkpt lat="43.5321" lon="5.51122">
        <ele>242</ele>
        <time>2018-02-20T09:54:00.000Z</time>
      </trkpt>
      <trkpt lat="43.5321" lon="5.51122">
        <ele>242</ele>
        <time>2018-02-20T09:54:01.000Z</time>
      </trkpt>
      <trkpt lat="43.5321" lon="5.51122">
        <ele>242</ele>
        <time>2018-02-20T09:54:02.000Z</time>
      </trkpt>
      <trkpt lat="43.5321" lon="5.51122">
        <ele>242</ele>
        <time>2018-02-20T09:54:03.000Z</time>
      </trkpt>
      <trkpt lat="43.5321" lon="5.51122">
        <ele>242</ele>
        <time>2018-02-20T09:54:04.000Z</time>
      </trkpt>
      <trkpt lat="43.5321" lon="5.51122">
        <ele>242</ele>
        <time>2018-02-20T09:54:05.000Z</time>
      </trkpt>
      <trkpt lat="43.5321" lon="5.51122">
        <ele>242</ele>
        <time>2018-02-20T09:54:06.000Z</time>
      </trkpt>
      <trkpt lat="43.5321" lon="5.51121">
        <ele>242</ele>
        <time>2018-02-20T09:54:07.000Z</time>
      </trkpt>
      <trkpt lat="43.5321" lon="5.51121">
        <ele>242</ele>
        <time>2018-02-20T09:54:08.000Z</time>
      </trkpt>
      <trkpt lat="43.5321" lon="5.51121">
        <ele>242</ele>
        <time>2018-02-20T09:54:09.000Z</time>
      </trkpt>
      <trkpt lat="43.5321" lon="5.51121">
        <ele>242</ele>
        <time>2018-02-20T09:54:10.000Z</time>
      </trkpt>
      <trkpt lat="43.5321" lon="5.51121">
        <ele>242</ele>
        <time>2018-02-20T09:54:11.000Z</time>
      </trkpt>
      <trkpt lat="43.5321" lon="5.51121">
        <ele>242</ele>
        <time>2018-02-20T09:54:12.000Z</time>
      </trkpt>
      <trkpt lat="43.5321" lon="5.51121">
        <ele>242</ele>
        <time>2018-02-20T09:54:13.000Z</time>
      </trkpt>
      <trkpt lat="43.5321" lon="5.51121">
        <ele>242</ele>
        <time>2018-02-20T09:54:14.000Z</time>
      </trkpt>
      <trkpt lat="43.5321" lon="5.51121">
        <ele>242</ele>
        <time>2018-02-20T09:54:15.000Z</time>
      </trkpt>
      <trkpt lat="43.5321" lon="5.51121">
        <ele>242</ele>
        <time>2018-02-20T09:54:16.000Z</time>
      </trkpt>
      <trkpt lat="43.5321" lon="5.51121">
        <ele>242</ele>
        <time>2018-02-20T09:54:17.000Z</time>
      </trkpt>
      <trkpt lat="43.5321" lon="5.51121">
        <ele>242</ele>
        <time>2018-02-20T09:54:18.000Z</time>
      </trkpt>
      <trkpt lat="43.5321" lon="5.51121">
        <ele>242</ele>
        <time>2018-02-20T09:54:19.000Z</time>
      </trkpt>
      <trkpt lat="43.5321" lon="5.51121">
        <ele>242</ele>
        <time>2018-02-20T09:54:20.000Z</time>
      </trkpt>
      <trkpt lat="43.5321" lon="5.51121">
        <ele>242</ele>
        <time>2018-02-20T09:54:21.000Z</time>
      </trkpt>
      <trkpt lat="43.5321" lon="5.51121">
        <ele>242</ele>
        <time>2018-02-20T09:54:22.000Z</time>
      </trkpt>
      <trkpt lat="43.5321" lon="5.51121">
        <ele>242</ele>
        <time>2018-02-20T09:54:23.000Z</time>
      </trkpt>
      <trkpt lat="43.5321" lon="5.51121">
        <ele>242</ele>
        <time>2018-02-20T09:54:24.000Z</time>
      </trkpt>
      <trkpt lat="43.5321" lon="5.51121">
        <ele>242</ele>
        <time>2018-02-20T09:54:25.000Z</time>
      </trkpt>
      <trkpt lat="43.5321" lon="5.51121">
        <ele>242</ele>
        <time>2018-02-20T09:54:26.000Z</time>
      </trkpt>
      <trkpt lat="43.5321" lon="5.51121">
        <ele>242</ele>
        <time>2018-02-20T09:54:27.000Z</time>
      </trkpt>
      <trkpt lat="43.5321" lon="5.51121">
        <ele>242</ele>
        <time>2018-02-20T09:54:28.000Z</time>
      </trkpt>
      <trkpt lat="43.5321" lon="5.51121">
        <ele>242</ele>
        <time>2018-02-20T09:54:29.000Z</time>
      </trkpt>
      <trkpt lat="43.5321" lon="5.51121">
        <ele>242</ele>
        <time>2018-02-20T09:54:30.000Z</time>
      </trkpt>
      <trkpt lat="43.5321" lon="5.51121">
        <ele>242</ele>
        <time>2018-02-20T09:54:31.000Z</time>
      </trkpt>
      <trkpt lat="43.5321" lon="5.51121">
        <ele>242</ele>
        <time>2018-02-20T09:54:32.000Z</time>
      </trkpt>
      <trkpt lat="43.5321" lon="5.51121">
        <ele>242</ele>
        <time>2018-02-20T09:54:33.000Z</time>
      </trkpt>
      <trkpt lat="43.5321" lon="5.51121">
        <ele>242</ele>
        <time>2018-02-20T09:54:34.000Z</time>
      </trkpt>
      <trkpt lat="43.5321" lon="5.51121">
        <ele>242</ele>
        <time>2018-02-20T09:54:35.000Z</time>
      </trkpt>
      <trkpt lat="43.5321" lon="5.51121">
        <ele>242</ele>
        <time>2018-02-20T09:54:36.000Z</time>
      </trkpt>
      <trkpt lat="43.5321" lon="5.51121">
        <ele>241</ele>
        <time>2018-02-20T09:54:37.000Z</time>
      </trkpt>
      <trkpt lat="43.5321" lon="5.51121">
        <ele>241</ele>
        <time>2018-02-20T09:54:38.000Z</time>
      </trkpt>
      <trkpt lat="43.5321" lon="5.51121">
        <ele>241</ele>
        <time>2018-02-20T09:54:39.000Z</time>
      </trkpt>
      <trkpt lat="43.5321" lon="5.51121">
        <ele>241</ele>
        <time>2018-02-20T09:54:40.000Z</time>
      </trkpt>
      <trkpt lat="43.5321" lon="5.51121">
        <ele>241</ele>
        <time>2018-02-20T09:54:41.000Z</time>
      </trkpt>
      <trkpt lat="43.5321" lon="5.51121">
        <ele>241</ele>
        <time>2018-02-20T09:54:42.000Z</time>
      </trkpt>
      <trkpt lat="43.5321" lon="5.51121">
        <ele>241</ele>
        <time>2018-02-20T09:54:43.000Z</time>
      </trkpt>
      <trkpt lat="43.5321" lon="5.51121">
        <ele>241</ele>
        <time>2018-02-20T09:54:44.000Z</time>
      </trkpt>
      <trkpt lat="43.5321" lon="5.51121">
        <ele>241</ele>
        <time>2018-02-20T09:54:45.000Z</time>
      </trkpt>
      <trkpt lat="43.5321" lon="5.51121">
        <ele>241</ele>
        <time>2018-02-20T09:54:46.000Z</time>
      </trkpt>
      <trkpt lat="43.5321" lon="5.51121">
        <ele>241</ele>
        <time>2018-02-20T09:54:47.000Z</time>
      </trkpt>
      <trkpt lat="43.5321" lon="5.51121">
        <ele>241</ele>
        <time>2018-02-20T09:54:48.000Z</time>
      </trkpt>
      <trkpt lat="43.5321" lon="5.51121">
        <ele>241</ele>
        <time>2018-02-20T09:54:49.000Z</time>
      </trkpt>
      <trkpt lat="43.5321" lon="5.51121">
        <ele>241</ele>
        <time>2018-02-20T09:54:50.000Z</time>
      </trkpt>
      <trkpt lat="43.5321" lon="5.51121">
        <ele>241</ele>
        <time>2018-02-20T09:54:51.000Z</time>
      </trkpt>
      <trkpt lat="43.5321" lon="5.51121">
        <ele>241</ele>
        <time>2018-02-20T09:54:52.000Z</time>
      </trkpt>
      <trkpt lat="43.5321" lon="5.51121">
        <ele>241</ele>
        <time>2018-02-20T09:54:53.000Z</time>
      </trkpt>
      <trkpt lat="43.5321" lon="5.51121">
        <ele>241</ele>
        <time>2018-02-20T09:54:54.000Z</time>
      </trkpt>
      <trkpt lat="43.5321" lon="5.51121">
        <ele>241</ele>
        <time>2018-02-20T09:54:55.000Z</time>
      </trkpt>
      <trkpt lat="43.5321" lon="5.51121">
        <ele>241</ele>
        <time>2018-02-20T09:54:56.000Z</time>
      </trkpt>
      <trkpt lat="43.5321" lon="5.51121">
        <ele>241</ele>
        <time>2018-02-20T09:54:57.000Z</time>
      </trkpt>
      <trkpt lat="43.5321" lon="5.51121">
        <ele>241</ele>
        <time>2018-02-20T09:54:58.000Z</time>
      </trkpt>
      <trkpt lat="43.5321" lon="5.51121">
        <ele>241</ele>
        <time>2018-02-20T09:54:59.000Z</time>
      </trkpt>
      <trkpt lat="43.5321" lon="5.51121">
        <ele>241</ele>
        <time>2018-02-20T09:55:00.000Z</time>
      </trkpt>
      <trkpt lat="43.5321" lon="5.51121">
        <ele>241</ele>
        <time>2018-02-20T09:55:01.000Z</time>
      </trkpt>
      <trkpt lat="43.5321" lon="5.51121">
        <ele>241</ele>
        <time>2018-02-20T09:55:02.000Z</time>
      </trkpt>
      <trkpt lat="43.5321" lon="5.51121">
        <ele>241</ele>
        <time>2018-02-20T09:55:03.000Z</time>
      </trkpt>
      <trkpt lat="43.5321" lon="5.51121">
        <ele>241</ele>
        <time>2018-02-20T09:55:04.000Z</time>
      </trkpt>
      <trkpt lat="43.5321" lon="5.51121">
        <ele>241</ele>
        <time>2018-02-20T09:55:05.000Z</time>
      </trkpt>
      <trkpt lat="43.5321" lon="5.51121">
        <ele>241</ele>
        <time>2018-02-20T09:55:06.000Z</time>
      </trkpt>
      <trkpt lat="43.5321" lon="5.51121">
        <ele>241</ele>
        <time>2018-02-20T09:55:07.000Z</time>
      </trkpt>
      <trkpt lat="43.5321" lon="5.51121">
        <ele>241</ele>
        <time>2018-02-20T09:55:08.000Z</time>
      </trkpt>
      <trkpt lat="43.5321" lon="5.51121">
        <ele>241</ele>
        <time>2018-02-20T09:55:09.000Z</time>
      </trkpt>
      <trkpt lat="43.5321" lon="5.51121">
        <ele>241</ele>
        <time>2018-02-20T09:55:10.000Z</time>
      </trkpt>
      <trkpt lat="43.5321" lon="5.51121">
        <ele>241</ele>
        <time>2018-02-20T09:55:11.000Z</time>
      </trkpt>
      <trkpt lat="43.5321" lon="5.51121">
        <ele>241</ele>
        <time>2018-02-20T09:55:12.000Z</time>
      </trkpt>
      <trkpt lat="43.5321" lon="5.51121">
        <ele>241</ele>
        <time>2018-02-20T09:55:13.000Z</time>
      </trkpt>
      <trkpt lat="43.5321" lon="5.51121">
        <ele>241</ele>
        <time>2018-02-20T09:55:14.000Z</time>
      </trkpt>
      <trkpt lat="43.5321" lon="5.51121">
        <ele>241</ele>
        <time>2018-02-20T09:55:15.000Z</time>
      </trkpt>
      <trkpt lat="43.5321" lon="5.51121">
        <ele>241</ele>
        <time>2018-02-20T09:55:16.000Z</time>
      </trkpt>
      <trkpt lat="43.5321" lon="5.51122">
        <ele>241</ele>
        <time>2018-02-20T09:55:17.000Z</time>
      </trkpt>
      <trkpt lat="43.53209" lon="5.51122">
        <ele>241</ele>
        <time>2018-02-20T09:55:18.000Z</time>
      </trkpt>
      <trkpt lat="43.53209" lon="5.51122">
        <ele>241</ele>
        <time>2018-02-20T09:55:19.000Z</time>
      </trkpt>
      <trkpt lat="43.53209" lon="5.51122">
        <ele>241</ele>
        <time>2018-02-20T09:55:20.000Z</time>
      </trkpt>
      <trkpt lat="43.53208" lon="5.51122">
        <ele>241</ele>
        <time>2018-02-20T09:55:21.000Z</time>
      </trkpt>
      <trkpt lat="43.53208" lon="5.51122">
        <ele>241</ele>
        <time>2018-02-20T09:55:22.000Z</time>
      </trkpt>
      <trkpt lat="43.53208" lon="5.51122">
        <ele>241</ele>
        <time>2018-02-20T09:55:23.000Z</time>
      </trkpt>
      <trkpt lat="43.53208" lon="5.51122">
        <ele>241</ele>
        <time>2018-02-20T09:55:24.000Z</time>
      </trkpt>
      <trkpt lat="43.53208" lon="5.51122">
        <ele>241</ele>
        <time>2018-02-20T09:55:25.000Z</time>
      </trkpt>
      <trkpt lat="43.53208" lon="5.51122">
        <ele>241</ele>
        <time>2018-02-20T09:55:26.000Z</time>
      </trkpt>
      <trkpt lat="43.53208" lon="5.51122">
        <ele>242</ele>
        <time>2018-02-20T09:55:27.000Z</time>
      </trkpt>
      <trkpt lat="43.53208" lon="5.51122">
        <ele>242</ele>
        <time>2018-02-20T09:55:28.000Z</time>
      </trkpt>
      <trkpt lat="43.53208" lon="5.51122">
        <ele>242</ele>
        <time>2018-02-20T09:55:29.000Z</time>
      </trkpt>
      <trkpt lat="43.53208" lon="5.51122">
        <ele>242</ele>
        <time>2018-02-20T09:55:30.000Z</time>
      </trkpt>
      <trkpt lat="43.53208" lon="5.51122">
        <ele>242</ele>
        <time>2018-02-20T09:55:31.000Z</time>
      </trkpt>
      <trkpt lat="43.53208" lon="5.51122">
        <ele>242</ele>
        <time>2018-02-20T09:55:32.000Z</time>
      </trkpt>
      <trkpt lat="43.53208" lon="5.51122">
        <ele>242</ele>
        <time>2018-02-20T09:55:33.000Z</time>
      </trkpt>
      <trkpt lat="43.53208" lon="5.51122">
        <ele>241</ele>
        <time>2018-02-20T09:55:34.000Z</time>
      </trkpt>
      <trkpt lat="43.53208" lon="5.51122">
        <ele>241</ele>
        <time>2018-02-20T09:55:35.000Z</time>
      </trkpt>
      <trkpt lat="43.53208" lon="5.51122">
        <ele>241</ele>
        <time>2018-02-20T09:55:36.000Z</time>
      </trkpt>
      <trkpt lat="43.53208" lon="5.51122">
        <ele>241</ele>
        <time>2018-02-20T09:55:37.000Z</time>
      </trkpt>
      <trkpt lat="43.53208" lon="5.51122">
        <ele>241</ele>
        <time>2018-02-20T09:55:38.000Z</time>
      </trkpt>
      <trkpt lat="43.53208" lon="5.51122">
        <ele>241</ele>
        <time>2018-02-20T09:55:39.000Z</time>
      </trkpt>
      <trkpt lat="43.53208" lon="5.51122">
        <ele>241</ele>
        <time>2018-02-20T09:55:40.000Z</time>
      </trkpt>
      <trkpt lat="43.53208" lon="5.51122">
        <ele>241</ele>
        <time>2018-02-20T09:55:41.000Z</time>
      </trkpt>
      <trkpt lat="43.53208" lon="5.51122">
        <ele>241</ele>
        <time>2018-02-20T09:55:42.000Z</time>
      </trkpt>
      <trkpt lat="43.53208" lon="5.51122">
        <ele>241</ele>
        <time>2018-02-20T09:55:43.000Z</time>
      </trkpt>
      <trkpt lat="43.53208" lon="5.51122">
        <ele>241</ele>
        <time>2018-02-20T09:55:44.000Z</time>
      </trkpt>
      <trkpt lat="43.53208" lon="5.51122">
        <ele>241</ele>
        <time>2018-02-20T09:55:45.000Z</time>
      </trkpt>
      <trkpt lat="43.53208" lon="5.51122">
        <ele>241</ele>
        <time>2018-02-20T09:55:46.000Z</time>
      </trkpt>
      <trkpt lat="43.53208" lon="5.51122">
        <ele>241</ele>
        <time>2018-02-20T09:55:47.000Z</time>
      </trkpt>
      <trkpt lat="43.53208" lon="5.51122">
        <ele>241</ele>
        <time>2018-02-20T09:55:48.000Z</time>
      </trkpt>
      <trkpt lat="43.53208" lon="5.51122">
        <ele>241</ele>
        <time>2018-02-20T09:55:49.000Z</time>
      </trkpt>
      <trkpt lat="43.53208" lon="5.51122">
        <ele>241</ele>
        <time>2018-02-20T09:55:50.000Z</time>
      </trkpt>
      <trkpt lat="43.53208" lon="5.51122">
        <ele>241</ele>
        <time>2018-02-20T09:55:51.000Z</time>
      </trkpt>
      <trkpt lat="43.53208" lon="5.51122">
        <ele>241</ele>
        <time>2018-02-20T09:55:52.000Z</time>
      </trkpt>
      <trkpt lat="43.53208" lon="5.51121">
        <ele>241</ele>
        <time>2018-02-20T09:55:53.000Z</time>
      </trkpt>
      <trkpt lat="43.53208" lon="5.51121">
        <ele>241</ele>
        <time>2018-02-20T09:55:54.000Z</time>
      </trkpt>
      <trkpt lat="43.53208" lon="5.51121">
        <ele>241</ele>
        <time>2018-02-20T09:55:55.000Z</time>
      </trkpt>
      <trkpt lat="43.53208" lon="5.51121">
        <ele>242</ele>
        <time>2018-02-20T09:55:56.000Z</time>
      </trkpt>
      <trkpt lat="43.53208" lon="5.51121">
        <ele>242</ele>
        <time>2018-02-20T09:55:57.000Z</time>
      </trkpt>
      <trkpt lat="43.53208" lon="5.51121">
        <ele>242</ele>
        <time>2018-02-20T09:55:58.000Z</time>
      </trkpt>
      <trkpt lat="43.53208" lon="5.51121">
        <ele>242</ele>
        <time>2018-02-20T09:55:59.000Z</time>
      </trkpt>
      <trkpt lat="43.53208" lon="5.51121">
        <ele>242</ele>
        <time>2018-02-20T09:56:00.000Z</time>
      </trkpt>
      <trkpt lat="43.53208" lon="5.51121">
        <ele>242</ele>
        <time>2018-02-20T09:56:01.000Z</time>
      </trkpt>
      <trkpt lat="43.53208" lon="5.51121">
        <ele>242</ele>
        <time>2018-02-20T09:56:02.000Z</time>
      </trkpt>
      <trkpt lat="43.53208" lon="5.51121">
        <ele>242</ele>
        <time>2018-02-20T09:56:03.000Z</time>
      </trkpt>
      <trkpt lat="43.53208" lon="5.51121">
        <ele>242</ele>
        <time>2018-02-20T09:56:04.000Z</time>
      </trkpt>
      <trkpt lat="43.53208" lon="5.51121">
        <ele>242</ele>
        <time>2018-02-20T09:56:05.000Z</time>
      </trkpt>
      <trkpt lat="43.53208" lon="5.51121">
        <ele>242</ele>
        <time>2018-02-20T09:56:06.000Z</time>
      </trkpt>
      <trkpt lat="43.53208" lon="5.51121">
        <ele>242</ele>
        <time>2018-02-20T09:56:07.000Z</time>
      </trkpt>
      <trkpt lat="43.53208" lon="5.51121">
        <ele>242</ele>
        <time>2018-02-20T09:56:08.000Z</time>
      </trkpt>
      <trkpt lat="43.53209" lon="5.51121">
        <ele>242</ele>
        <time>2018-02-20T09:56:09.000Z</time>
      </trkpt>
      <trkpt lat="43.53209" lon="5.51121">
        <ele>242</ele>
        <time>2018-02-20T09:56:10.000Z</time>
      </trkpt>
      <trkpt lat="43.53209" lon="5.51121">
        <ele>242</ele>
        <time>2018-02-20T09:56:11.000Z</time>
      </trkpt>
      <trkpt lat="43.53208" lon="5.51121">
        <ele>242</ele>
        <time>2018-02-20T09:56:12.000Z</time>
      </trkpt>
      <trkpt lat="43.53208" lon="5.51121">
        <ele>242</ele>
        <time>2018-02-20T09:56:13.000Z</time>
      </trkpt>
      <trkpt lat="43.53208" lon="5.5112">
        <ele>242</ele>
        <time>2018-02-20T09:56:14.000Z</time>
      </trkpt>
      <trkpt lat="43.53208" lon="5.5112">
        <ele>242</ele>
        <time>2018-02-20T09:56:15.000Z</time>
      </trkpt>
      <trkpt lat="43.53207" lon="5.5112">
        <ele>242</ele>
        <time>2018-02-20T09:56:16.000Z</time>
      </trkpt>
      <trkpt lat="43.53207" lon="5.5112">
        <ele>242</ele>
        <time>2018-02-20T09:56:17.000Z</time>
      </trkpt>
      <trkpt lat="43.53207" lon="5.51119">
        <ele>242</ele>
        <time>2018-02-20T09:56:18.000Z</time>
      </trkpt>
      <trkpt lat="43.53207" lon="5.5112">
        <ele>242</ele>
        <time>2018-02-20T09:56:19.000Z</time>
      </trkpt>
      <trkpt lat="43.53207" lon="5.5112">
        <ele>242</ele>
        <time>2018-02-20T09:56:20.000Z</time>
      </trkpt>
      <trkpt lat="43.53207" lon="5.5112">
        <ele>242</ele>
        <time>2018-02-20T09:56:21.000Z</time>
      </trkpt>
      <trkpt lat="43.53207" lon="5.5112">
        <ele>242</ele>
        <time>2018-02-20T09:56:22.000Z</time>
      </trkpt>
      <trkpt lat="43.53207" lon="5.5112">
        <ele>242</ele>
        <time>2018-02-20T09:56:23.000Z</time>
      </trkpt>
      <trkpt lat="43.53207" lon="5.5112">
        <ele>242</ele>
        <time>2018-02-20T09:56:24.000Z</time>
      </trkpt>
      <trkpt lat="43.53207" lon="5.5112">
        <ele>242</ele>
        <time>2018-02-20T09:56:25.000Z</time>
      </trkpt>
      <trkpt lat="43.53207" lon="5.5112">
        <ele>242</ele>
        <time>2018-02-20T09:56:26.000Z</time>
      </trkpt>
      <trkpt lat="43.53207" lon="5.5112">
        <ele>242</ele>
        <time>2018-02-20T09:56:27.000Z</time>
      </trkpt>
      <trkpt lat="43.53207" lon="5.5112">
        <ele>242</ele>
        <time>2018-02-20T09:56:28.000Z</time>
      </trkpt>
      <trkpt lat="43.53207" lon="5.5112">
        <ele>242</ele>
        <time>2018-02-20T09:56:29.000Z</time>
      </trkpt>
      <trkpt lat="43.53207" lon="5.5112">
        <ele>242</ele>
        <time>2018-02-20T09:56:30.000Z</time>
      </trkpt>
      <trkpt lat="43.53207" lon="5.5112">
        <ele>242</ele>
        <time>2018-02-20T09:56:31.000Z</time>
      </trkpt>
      <trkpt lat="43.53207" lon="5.5112">
        <ele>242</ele>
        <time>2018-02-20T09:56:32.000Z</time>
      </trkpt>
      <trkpt lat="43.53207" lon="5.5112">
        <ele>242</ele>
        <time>2018-02-20T09:56:33.000Z</time>
      </trkpt>
      <trkpt lat="43.53207" lon="5.5112">
        <ele>242</ele>
        <time>2018-02-20T09:56:34.000Z</time>
      </trkpt>
      <trkpt lat="43.53207" lon="5.5112">
        <ele>242</ele>
        <time>2018-02-20T09:56:35.000Z</time>
      </trkpt>
      <trkpt lat="43.53207" lon="5.5112">
        <ele>242</ele>
        <time>2018-02-20T09:56:36.000Z</time>
      </trkpt>
      <trkpt lat="43.53207" lon="5.51121">
        <ele>242</ele>
        <time>2018-02-20T09:56:37.000Z</time>
      </trkpt>
      <trkpt lat="43.53208" lon="5.51121">
        <ele>242</ele>
        <time>2018-02-20T09:56:38.000Z</time>
      </trkpt>
      <trkpt lat="43.53208" lon="5.51122">
        <ele>242</ele>
        <time>2018-02-20T09:56:39.000Z</time>
      </trkpt>
      <trkpt lat="43.53209" lon="5.51123">
        <ele>243</ele>
        <time>2018-02-20T09:56:40.000Z</time>
      </trkpt>
      <trkpt lat="43.53209" lon="5.51123">
        <ele>243</ele>
        <time>2018-02-20T09:56:41.000Z</time>
      </trkpt>
      <trkpt lat="43.53209" lon="5.51123">
        <ele>243</ele>
        <time>2018-02-20T09:56:42.000Z</time>
      </trkpt>
      <trkpt lat="43.53209" lon="5.51124">
        <ele>243</ele>
        <time>2018-02-20T09:56:43.000Z</time>
      </trkpt>
      <trkpt lat="43.53209" lon="5.51124">
        <ele>243</ele>
        <time>2018-02-20T09:56:44.000Z</time>
      </trkpt>
      <trkpt lat="43.53209" lon="5.51124">
        <ele>243</ele>
        <time>2018-02-20T09:56:45.000Z</time>
      </trkpt>
      <trkpt lat="43.53209" lon="5.51124">
        <ele>243</ele>
        <time>2018-02-20T09:56:46.000Z</time>
      </trkpt>
      <trkpt lat="43.53209" lon="5.51124">
        <ele>243</ele>
        <time>2018-02-20T09:56:47.000Z</time>
      </trkpt>
      <trkpt lat="43.53209" lon="5.51124">
        <ele>243</ele>
        <time>2018-02-20T09:56:48.000Z</time>
      </trkpt>
      <trkpt lat="43.53209" lon="5.51124">
        <ele>243</ele>
        <time>2018-02-20T09:56:49.000Z</time>
      </trkpt>
      <trkpt lat="43.53209" lon="5.51124">
        <ele>244</ele>
        <time>2018-02-20T09:56:50.000Z</time>
      </trkpt>
      <trkpt lat="43.53208" lon="5.51124">
        <ele>244</ele>
        <time>2018-02-20T09:56:51.000Z</time>
      </trkpt>
      <trkpt lat="43.53208" lon="5.51124">
        <ele>244</ele>
        <time>2018-02-20T09:56:52.000Z</time>
      </trkpt>
      <trkpt lat="43.53208" lon="5.51124">
        <ele>244</ele>
        <time>2018-02-20T09:56:53.000Z</time>
      </trkpt>
      <trkpt lat="43.53208" lon="5.51124">
        <ele>244</ele>
        <time>2018-02-20T09:56:54.000Z</time>
      </trkpt>
      <trkpt lat="43.53208" lon="5.51124">
        <ele>244</ele>
        <time>2018-02-20T09:56:55.000Z</time>
      </trkpt>
      <trkpt lat="43.53208" lon="5.51125">
        <ele>243</ele>
        <time>2018-02-20T09:56:56.000Z</time>
      </trkpt>
      <trkpt lat="43.53208" lon="5.51125">
        <ele>243</ele>
        <time>2018-02-20T09:56:57.000Z</time>
      </trkpt>
      <trkpt lat="43.53208" lon="5.51124">
        <ele>243</ele>
        <time>2018-02-20T09:56:58.000Z</time>
      </trkpt>
      <trkpt lat="43.53208" lon="5.51124">
        <ele>244</ele>
        <time>2018-02-20T09:56:59.000Z</time>
      </trkpt>
      <trkpt lat="43.53208" lon="5.51124">
        <ele>244</ele>
        <time>2018-02-20T09:57:00.000Z</time>
      </trkpt>
      <trkpt lat="43.53208" lon="5.51124">
        <ele>244</ele>
        <time>2018-02-20T09:57:01.000Z</time>
      </trkpt>
      <trkpt lat="43.53208" lon="5.51124">
        <ele>244</ele>
        <time>2018-02-20T09:57:02.000Z</time>
      </trkpt>
      <trkpt lat="43.53208" lon="5.51124">
        <ele>244</ele>
        <time>2018-02-20T09:57:03.000Z</time>
      </trkpt>
      <trkpt lat="43.53208" lon="5.51124">
        <ele>244</ele>
        <time>2018-02-20T09:57:04.000Z</time>
      </trkpt>
      <trkpt lat="43.53208" lon="5.51124">
        <ele>244</ele>
        <time>2018-02-20T09:57:05.000Z</time>
      </trkpt>
      <trkpt lat="43.53208" lon="5.51124">
        <ele>244</ele>
        <time>2018-02-20T09:57:06.000Z</time>
      </trkpt>
      <trkpt lat="43.53208" lon="5.51124">
        <ele>244</ele>
        <time>2018-02-20T09:57:07.000Z</time>
      </trkpt>
      <trkpt lat="43.53208" lon="5.51124">
        <ele>244</ele>
        <time>2018-02-20T09:57:08.000Z</time>
      </trkpt>
      <trkpt lat="43.53208" lon="5.51124">
        <ele>244</ele>
        <time>2018-02-20T09:57:09.000Z</time>
      </trkpt>
      <trkpt lat="43.53208" lon="5.51124">
        <ele>244</ele>
        <time>2018-02-20T09:57:10.000Z</time>
      </trkpt>
      <trkpt lat="43.53208" lon="5.51125">
        <ele>243</ele>
        <time>2018-02-20T09:57:11.000Z</time>
      </trkpt>
      <trkpt lat="43.53208" lon="5.51125">
        <ele>243</ele>
        <time>2018-02-20T09:57:12.000Z</time>
      </trkpt>
      <trkpt lat="43.53208" lon="5.51124">
        <ele>243</ele>
        <time>2018-02-20T09:57:13.000Z</time>
      </trkpt>
      <trkpt lat="43.53207" lon="5.51124">
        <ele>244</ele>
        <time>2018-02-20T09:57:14.000Z</time>
      </trkpt>
      <trkpt lat="43.53207" lon="5.51124">
        <ele>244</ele>
        <time>2018-02-20T09:57:15.000Z</time>
      </trkpt>
      <trkpt lat="43.53207" lon="5.51124">
        <ele>244</ele>
        <time>2018-02-20T09:57:16.000Z</time>
      </trkpt>
      <trkpt lat="43.53207" lon="5.51124">
        <ele>244</ele>
        <time>2018-02-20T09:57:17.000Z</time>
      </trkpt>
      <trkpt lat="43.53207" lon="5.51124">
        <ele>244</ele>
        <time>2018-02-20T09:57:18.000Z</time>
      </trkpt>
      <trkpt lat="43.53207" lon="5.51124">
        <ele>244</ele>
        <time>2018-02-20T09:57:19.000Z</time>
      </trkpt>
      <trkpt lat="43.53207" lon="5.51125">
        <ele>244</ele>
        <time>2018-02-20T09:57:20.000Z</time>
      </trkpt>
      <trkpt lat="43.53207" lon="5.51124">
        <ele>244</ele>
        <time>2018-02-20T09:57:21.000Z</time>
      </trkpt>
      <trkpt lat="43.53207" lon="5.51124">
        <ele>244</ele>
        <time>2018-02-20T09:57:22.000Z</time>
      </trkpt>
      <trkpt lat="43.53207" lon="5.51124">
        <ele>244</ele>
        <time>2018-02-20T09:57:23.000Z</time>
      </trkpt>
      <trkpt lat="43.53207" lon="5.51124">
        <ele>244</ele>
        <time>2018-02-20T09:57:24.000Z</time>
      </trkpt>
      <trkpt lat="43.53207" lon="5.51124">
        <ele>244</ele>
        <time>2018-02-20T09:57:25.000Z</time>
      </trkpt>
      <trkpt lat="43.53207" lon="5.51124">
        <ele>244</ele>
        <time>2018-02-20T09:57:26.000Z</time>
      </trkpt>
      <trkpt lat="43.53207" lon="5.51124">
        <ele>245</ele>
        <time>2018-02-20T09:57:27.000Z</time>
      </trkpt>
      <trkpt lat="43.53207" lon="5.51124">
        <ele>245</ele>
        <time>2018-02-20T09:57:28.000Z</time>
      </trkpt>
      <trkpt lat="43.53207" lon="5.51124">
        <ele>245</ele>
        <time>2018-02-20T09:57:29.000Z</time>
      </trkpt>
      <trkpt lat="43.53207" lon="5.51124">
        <ele>245</ele>
        <time>2018-02-20T09:57:30.000Z</time>
      </trkpt>
      <trkpt lat="43.53207" lon="5.51124">
        <ele>245</ele>
        <time>2018-02-20T09:57:31.000Z</time>
      </trkpt>
      <trkpt lat="43.53207" lon="5.51124">
        <ele>245</ele>
        <time>2018-02-20T09:57:32.000Z</time>
      </trkpt>
      <trkpt lat="43.53207" lon="5.51123">
        <ele>245</ele>
        <time>2018-02-20T09:57:33.000Z</time>
      </trkpt>
      <trkpt lat="43.53207" lon="5.51124">
        <ele>245</ele>
        <time>2018-02-20T09:57:34.000Z</time>
      </trkpt>
      <trkpt lat="43.53206" lon="5.51124">
        <ele>245</ele>
        <time>2018-02-20T09:57:35.000Z</time>
      </trkpt>
      <trkpt lat="43.53206" lon="5.51123">
        <ele>245</ele>
        <time>2018-02-20T09:57:36.000Z</time>
      </trkpt>
      <trkpt lat="43.53205" lon="5.51122">
        <ele>245</ele>
        <time>2018-02-20T09:57:37.000Z</time>
      </trkpt>
      <trkpt lat="43.53205" lon="5.51121">
        <ele>245</ele>
        <time>2018-02-20T09:57:38.000Z</time>
      </trkpt>
      <trkpt lat="43.53204" lon="5.5112">
        <ele>245</ele>
        <time>2018-02-20T09:57:39.000Z</time>
      </trkpt>
      <trkpt lat="43.53203" lon="5.51119">
        <ele>246</ele>
        <time>2018-02-20T09:57:40.000Z</time>
      </trkpt>
      <trkpt lat="43.53203" lon="5.51118">
        <ele>246</ele>
        <time>2018-02-20T09:57:41.000Z</time>
      </trkpt>
      <trkpt lat="43.53203" lon="5.51118">
        <ele>246</ele>
        <time>2018-02-20T09:57:42.000Z</time>
      </trkpt>
      <trkpt lat="43.53203" lon="5.51118">
        <ele>246</ele>
        <time>2018-02-20T09:57:43.000Z</time>
      </trkpt>
      <trkpt lat="43.53203" lon="5.51118">
        <ele>246</ele>
        <time>2018-02-20T09:57:44.000Z</time>
      </trkpt>
      <trkpt lat="43.53203" lon="5.51118">
        <ele>246</ele>
        <time>2018-02-20T09:57:45.000Z</time>
      </trkpt>
      <trkpt lat="43.53203" lon="5.51118">
        <ele>246</ele>
        <time>2018-02-20T09:57:46.000Z</time>
      </trkpt>
      <trkpt lat="43.53203" lon="5.51118">
        <ele>246</ele>
        <time>2018-02-20T09:57:47.000Z</time>
      </trkpt>
      <trkpt lat="43.53203" lon="5.51118">
        <ele>246</ele>
        <time>2018-02-20T09:57:48.000Z</time>
      </trkpt>
      <trkpt lat="43.53203" lon="5.51118">
        <ele>246</ele>
        <time>2018-02-20T09:57:49.000Z</time>
      </trkpt>
      <trkpt lat="43.53203" lon="5.51117">
        <ele>246</ele>
        <time>2018-02-20T09:57:50.000Z</time>
      </trkpt>
      <trkpt lat="43.53203" lon="5.51117">
        <ele>246</ele>
        <time>2018-02-20T09:57:51.000Z</time>
      </trkpt>
      <trkpt lat="43.53203" lon="5.51116">
        <ele>246</ele>
        <time>2018-02-20T09:57:52.000Z</time>
      </trkpt>
      <trkpt lat="43.53202" lon="5.51115">
        <ele>246</ele>
        <time>2018-02-20T09:57:53.000Z</time>
      </trkpt>
      <trkpt lat="43.53202" lon="5.51113">
        <ele>245</ele>
        <time>2018-02-20T09:57:54.000Z</time>
      </trkpt>
      <trkpt lat="43.53202" lon="5.51112">
        <ele>245</ele>
        <time>2018-02-20T09:57:55.000Z</time>
      </trkpt>
      <trkpt lat="43.53202" lon="5.51111">
        <ele>245</ele>
        <time>2018-02-20T09:57:56.000Z</time>
      </trkpt>
      <trkpt lat="43.53202" lon="5.51111">
        <ele>246</ele>
        <time>2018-02-20T09:57:57.000Z</time>
      </trkpt>
      <trkpt lat="43.53201" lon="5.5111">
        <ele>246</ele>
        <time>2018-02-20T09:57:58.000Z</time>
      </trkpt>
      <trkpt lat="43.53201" lon="5.5111">
        <ele>246</ele>
        <time>2018-02-20T09:57:59.000Z</time>
      </trkpt>
      <trkpt lat="43.53201" lon="5.51109">
        <ele>246</ele>
        <time>2018-02-20T09:58:00.000Z</time>
      </trkpt>
      <trkpt lat="43.53201" lon="5.51109">
        <ele>246</ele>
        <time>2018-02-20T09:58:01.000Z</time>
      </trkpt>
      <trkpt lat="43.53201" lon="5.51109">
        <ele>246</ele>
        <time>2018-02-20T09:58:02.000Z</time>
      </trkpt>
      <trkpt lat="43.53201" lon="5.51108">
        <ele>246</ele>
        <time>2018-02-20T09:58:03.000Z</time>
      </trkpt>
      <trkpt lat="43.53201" lon="5.51108">
        <ele>245</ele>
        <time>2018-02-20T09:58:04.000Z</time>
      </trkpt>
      <trkpt lat="43.53201" lon="5.51109">
        <ele>246</ele>
        <time>2018-02-20T09:58:05.000Z</time>
      </trkpt>
      <trkpt lat="43.53201" lon="5.51109">
        <ele>245</ele>
        <time>2018-02-20T09:58:06.000Z</time>
      </trkpt>
      <trkpt lat="43.53201" lon="5.51108">
        <ele>245</ele>
        <time>2018-02-20T09:58:07.000Z</time>
      </trkpt>
      <trkpt lat="43.53201" lon="5.51108">
        <ele>245</ele>
        <time>2018-02-20T09:58:08.000Z</time>
      </trkpt>
      <trkpt lat="43.53201" lon="5.51107">
        <ele>245</ele>
        <time>2018-02-20T09:58:09.000Z</time>
      </trkpt>
      <trkpt lat="43.532" lon="5.51106">
        <ele>246</ele>
        <time>2018-02-20T09:58:10.000Z</time>
      </trkpt>
      <trkpt lat="43.532" lon="5.51105">
        <ele>246</ele>
        <time>2018-02-20T09:58:11.000Z</time>
      </trkpt>
      <trkpt lat="43.532" lon="5.51104">
        <ele>246</ele>
        <time>2018-02-20T09:58:12.000Z</time>
      </trkpt>
      <trkpt lat="43.532" lon="5.51103">
        <ele>246</ele>
        <time>2018-02-20T09:58:13.000Z</time>
      </trkpt>
      <trkpt lat="43.532" lon="5.51102">
        <ele>246</ele>
        <time>2018-02-20T09:58:14.000Z</time>
      </trkpt>
      <trkpt lat="43.53199" lon="5.51102">
        <ele>246</ele>
        <time>2018-02-20T09:58:15.000Z</time>
      </trkpt>
      <trkpt lat="43.53199" lon="5.51101">
        <ele>246</ele>
        <time>2018-02-20T09:58:16.000Z</time>
      </trkpt>
      <trkpt lat="43.53199" lon="5.511">
        <ele>246</ele>
        <time>2018-02-20T09:58:17.000Z</time>
      </trkpt>
      <trkpt lat="43.53199" lon="5.51098">
        <ele>246</ele>
        <time>2018-02-20T09:58:18.000Z</time>
      </trkpt>
      <trkpt lat="43.53198" lon="5.51098">
        <ele>246</ele>
        <time>2018-02-20T09:58:19.000Z</time>
      </trkpt>
      <trkpt lat="43.53198" lon="5.51097">
        <ele>246</ele>
        <time>2018-02-20T09:58:20.000Z</time>
      </trkpt>
      <trkpt lat="43.53197" lon="5.51096">
        <ele>246</ele>
        <time>2018-02-20T09:58:21.000Z</time>
      </trkpt>
      <trkpt lat="43.53197" lon="5.51095">
        <ele>246</ele>
        <time>2018-02-20T09:58:22.000Z</time>
      </trkpt>
      <trkpt lat="43.53197" lon="5.51094">
        <ele>246</ele>
        <time>2018-02-20T09:58:23.000Z</time>
      </trkpt>
      <trkpt lat="43.53197" lon="5.51094">
        <ele>246</ele>
        <time>2018-02-20T09:58:24.000Z</time>
      </trkpt>
      <trkpt lat="43.53197" lon="5.51094">
        <ele>246</ele>
        <time>2018-02-20T09:58:25.000Z</time>
      </trkpt>
      <trkpt lat="43.53197" lon="5.51094">
        <ele>246</ele>
        <time>2018-02-20T09:58:26.000Z</time>
      </trkpt>
      <trkpt lat="43.53197" lon="5.51094">
        <ele>246</ele>
        <time>2018-02-20T09:58:27.000Z</time>
      </trkpt>
      <trkpt lat="43.53197" lon="5.51094">
        <ele>246</ele>
        <time>2018-02-20T09:58:28.000Z</time>
      </trkpt>
      <trkpt lat="43.53197" lon="5.51094">
        <ele>246</ele>
        <time>2018-02-20T09:58:29.000Z</time>
      </trkpt>
      <trkpt lat="43.53197" lon="5.51094">
        <ele>246</ele>
        <time>2018-02-20T09:58:30.000Z</time>
      </trkpt>
      <trkpt lat="43.53197" lon="5.51094">
        <ele>246</ele>
        <time>2018-02-20T09:58:31.000Z</time>
      </trkpt>
      <trkpt lat="43.53197" lon="5.51094">
        <ele>246</ele>
        <time>2018-02-20T09:58:32.000Z</time>
      </trkpt>
      <trkpt lat="43.53197" lon="5.51094">
        <ele>246</ele>
        <time>2018-02-20T09:58:33.000Z</time>
      </trkpt>
      <trkpt lat="43.53197" lon="5.51094">
        <ele>246</ele>
        <time>2018-02-20T09:58:34.000Z</time>
      </trkpt>
      <trkpt lat="43.53197" lon="5.51093">
        <ele>246</ele>
        <time>2018-02-20T09:58:35.000Z</time>
      </trkpt>
      <trkpt lat="43.53197" lon="5.51093">
        <ele>246</ele>
        <time>2018-02-20T09:58:36.000Z</time>
      </trkpt>
      <trkpt lat="43.53197" lon="5.51093">
        <ele>246</ele>
        <time>2018-02-20T09:58:37.000Z</time>
      </trkpt>
      <trkpt lat="43.53197" lon="5.51093">
        <ele>246</ele>
        <time>2018-02-20T09:58:38.000Z</time>
      </trkpt>
      <trkpt lat="43.53196" lon="5.51093">
        <ele>246</ele>
        <time>2018-02-20T09:58:39.000Z</time>
      </trkpt>
      <trkpt lat="43.53196" lon="5.51093">
        <ele>246</ele>
        <time>2018-02-20T09:58:40.000Z</time>
      </trkpt>
      <trkpt lat="43.53196" lon="5.51093">
        <ele>246</ele>
        <time>2018-02-20T09:58:41.000Z</time>
      </trkpt>
      <trkpt lat="43.53195" lon="5.51092">
        <ele>246</ele>
        <time>2018-02-20T09:58:42.000Z</time>
      </trkpt>
      <trkpt lat="43.53194" lon="5.51092">
        <ele>246</ele>
        <time>2018-02-20T09:58:43.000Z</time>
      </trkpt>
      <trkpt lat="43.53194" lon="5.51091">
        <ele>246</ele>
        <time>2018-02-20T09:58:44.000Z</time>
      </trkpt>
      <trkpt lat="43.53193" lon="5.5109">
        <ele>246</ele>
        <time>2018-02-20T09:58:45.000Z</time>
      </trkpt>
      <trkpt lat="43.53193" lon="5.51089">
        <ele>246</ele>
        <time>2018-02-20T09:58:46.000Z</time>
      </trkpt>
      <trkpt lat="43.53193" lon="5.51087">
        <ele>245</ele>
        <time>2018-02-20T09:58:47.000Z</time>
      </trkpt>
      <trkpt lat="43.53192" lon="5.51086">
        <ele>245</ele>
        <time>2018-02-20T09:58:48.000Z</time>
      </trkpt>
      <trkpt lat="43.53192" lon="5.51085">
        <ele>245</ele>
        <time>2018-02-20T09:58:49.000Z</time>
      </trkpt>
      <trkpt lat="43.53192" lon="5.51084">
        <ele>245</ele>
        <time>2018-02-20T09:58:50.000Z</time>
      </trkpt>
      <trkpt lat="43.53191" lon="5.51082">
        <ele>245</ele>
        <time>2018-02-20T09:58:51.000Z</time>
      </trkpt>
      <trkpt lat="43.53191" lon="5.51081">
        <ele>245</ele>
        <time>2018-02-20T09:58:52.000Z</time>
      </trkpt>
      <trkpt lat="43.5319" lon="5.5108">
        <ele>245</ele>
        <time>2018-02-20T09:58:53.000Z</time>
      </trkpt>
      <trkpt lat="43.53189" lon="5.51079">
        <ele>245</ele>
        <time>2018-02-20T09:58:54.000Z</time>
      </trkpt>
      <trkpt lat="43.53189" lon="5.51078">
        <ele>246</ele>
        <time>2018-02-20T09:58:55.000Z</time>
      </trkpt>
      <trkpt lat="43.53188" lon="5.51078">
        <ele>246</ele>
        <time>2018-02-20T09:58:56.000Z</time>
      </trkpt>
      <trkpt lat="43.53187" lon="5.51078">
        <ele>246</ele>
        <time>2018-02-20T09:58:57.000Z</time>
      </trkpt>
      <trkpt lat="43.53186" lon="5.51077">
        <ele>246</ele>
        <time>2018-02-20T09:58:58.000Z</time>
      </trkpt>
      <trkpt lat="43.53186" lon="5.51076">
        <ele>246</ele>
        <time>2018-02-20T09:58:59.000Z</time>
      </trkpt>
      <trkpt lat="43.53185" lon="5.51076">
        <ele>246</ele>
        <time>2018-02-20T09:59:00.000Z</time>
      </trkpt>
      <trkpt lat="43.53184" lon="5.51076">
        <ele>247</ele>
        <time>2018-02-20T09:59:01.000Z</time>
      </trkpt>
      <trkpt lat="43.53184" lon="5.51076">
        <ele>247</ele>
        <time>2018-02-20T09:59:02.000Z</time>
      </trkpt>
      <trkpt lat="43.53183" lon="5.51076">
        <ele>247</ele>
        <time>2018-02-20T09:59:03.000Z</time>
      </trkpt>
      <trkpt lat="43.53183" lon="5.51076">
        <ele>247</ele>
        <time>2018-02-20T09:59:04.000Z</time>
      </trkpt>
      <trkpt lat="43.53182" lon="5.51076">
        <ele>247</ele>
        <time>2018-02-20T09:59:05.000Z</time>
      </trkpt>
      <trkpt lat="43.53182" lon="5.51076">
        <ele>247</ele>
        <time>2018-02-20T09:59:06.000Z</time>
      </trkpt>
      <trkpt lat="43.53181" lon="5.51077">
        <ele>247</ele>
        <time>2018-02-20T09:59:07.000Z</time>
      </trkpt>
      <trkpt lat="43.5318" lon="5.51076">
        <ele>248</ele>
        <time>2018-02-20T09:59:08.000Z</time>
      </trkpt>
      <trkpt lat="43.5318" lon="5.51076">
        <ele>247</ele>
        <time>2018-02-20T09:59:09.000Z</time>
      </trkpt>
      <trkpt lat="43.5318" lon="5.51076">
        <ele>247</ele>
        <time>2018-02-20T09:59:10.000Z</time>
      </trkpt>
      <trkpt lat="43.53179" lon="5.51076">
        <ele>247</ele>
        <time>2018-02-20T09:59:11.000Z</time>
      </trkpt>
      <trkpt lat="43.53178" lon="5.51076">
        <ele>247</ele>
        <time>2018-02-20T09:59:12.000Z</time>
      </trkpt>
      <trkpt lat="43.53178" lon="5.51077">
        <ele>248</ele>
        <time>2018-02-20T09:59:13.000Z</time>
      </trkpt>
      <trkpt lat="43.53177" lon="5.51078">
        <ele>248</ele>
        <time>2018-02-20T09:59:14.000Z</time>
      </trkpt>
      <trkpt lat="43.53176" lon="5.51079">
        <ele>248</ele>
        <time>2018-02-20T09:59:15.000Z</time>
      </trkpt>
      <trkpt lat="43.53175" lon="5.51081">
        <ele>248</ele>
        <time>2018-02-20T09:59:16.000Z</time>
      </trkpt>
      <trkpt lat="43.53175" lon="5.51082">
        <ele>248</ele>
        <time>2018-02-20T09:59:17.000Z</time>
      </trkpt>
      <trkpt lat="43.53174" lon="5.51083">
        <ele>249</ele>
        <time>2018-02-20T09:59:18.000Z</time>
      </trkpt>
      <trkpt lat="43.53174" lon="5.51084">
        <ele>249</ele>
        <time>2018-02-20T09:59:19.000Z</time>
      </trkpt>
      <trkpt lat="43.53173" lon="5.51085">
        <ele>249</ele>
        <time>2018-02-20T09:59:20.000Z</time>
      </trkpt>
      <trkpt lat="43.53173" lon="5.51086">
        <ele>249</ele>
        <time>2018-02-20T09:59:21.000Z</time>
      </trkpt>
      <trkpt lat="43.53172" lon="5.51087">
        <ele>249</ele>
        <time>2018-02-20T09:59:22.000Z</time>
      </trkpt>
      <trkpt lat="43.53172" lon="5.51087">
        <ele>249</ele>
        <time>2018-02-20T09:59:23.000Z</time>
      </trkpt>
      <trkpt lat="43.53171" lon="5.51088">
        <ele>249</ele>
        <time>2018-02-20T09:59:24.000Z</time>
      </trkpt>
      <trkpt lat="43.5317" lon="5.51088">
        <ele>250</ele>
        <time>2018-02-20T09:59:25.000Z</time>
      </trkpt>
      <trkpt lat="43.53169" lon="5.51089">
        <ele>250</ele>
        <time>2018-02-20T09:59:26.000Z</time>
      </trkpt>
      <trkpt lat="43.53168" lon="5.5109">
        <ele>250</ele>
        <time>2018-02-20T09:59:27.000Z</time>
      </trkpt>
      <trkpt lat="43.53168" lon="5.5109">
        <ele>250</ele>
        <time>2018-02-20T09:59:28.000Z</time>
      </trkpt>
      <trkpt lat="43.53167" lon="5.51091">
        <ele>250</ele>
        <time>2018-02-20T09:59:29.000Z</time>
      </trkpt>
      <trkpt lat="43.53167" lon="5.51092">
        <ele>251</ele>
        <time>2018-02-20T09:59:30.000Z</time>
      </trkpt>
      <trkpt lat="43.53166" lon="5.51093">
        <ele>251</ele>
        <time>2018-02-20T09:59:31.000Z</time>
      </trkpt>
      <trkpt lat="43.53166" lon="5.51094">
        <ele>251</ele>
        <time>2018-02-20T09:59:32.000Z</time>
      </trkpt>
      <trkpt lat="43.53165" lon="5.51095">
        <ele>251</ele>
        <time>2018-02-20T09:59:33.000Z</time>
      </trkpt>
      <trkpt lat="43.53164" lon="5.51095">
        <ele>252</ele>
        <time>2018-02-20T09:59:34.000Z</time>
      </trkpt>
      <trkpt lat="43.53163" lon="5.51096">
        <ele>252</ele>
        <time>2018-02-20T09:59:35.000Z</time>
      </trkpt>
      <trkpt lat="43.53163" lon="5.51096">
        <ele>252</ele>
        <time>2018-02-20T09:59:36.000Z</time>
      </trkpt>
      <trkpt lat="43.53162" lon="5.51097">
        <ele>252</ele>
        <time>2018-02-20T09:59:37.000Z</time>
      </trkpt>
      <trkpt lat="43.53161" lon="5.51097">
        <ele>252</ele>
        <time>2018-02-20T09:59:38.000Z</time>
      </trkpt>
      <trkpt lat="43.5316" lon="5.51098">
        <ele>253</ele>
        <time>2018-02-20T09:59:39.000Z</time>
      </trkpt>
      <trkpt lat="43.53159" lon="5.51099">
        <ele>253</ele>
        <time>2018-02-20T09:59:40.000Z</time>
      </trkpt>
      <trkpt lat="43.53159" lon="5.511">
        <ele>253</ele>
        <time>2018-02-20T09:59:41.000Z</time>
      </trkpt>
      <trkpt lat="43.53158" lon="5.51101">
        <ele>253</ele>
        <time>2018-02-20T09:59:42.000Z</time>
      </trkpt>
      <trkpt lat="43.53157" lon="5.51101">
        <ele>253</ele>
        <time>2018-02-20T09:59:43.000Z</time>
      </trkpt>
      <trkpt lat="43.53157" lon="5.51102">
        <ele>254</ele>
        <time>2018-02-20T09:59:44.000Z</time>
      </trkpt>
      <trkpt lat="43.53156" lon="5.51103">
        <ele>254</ele>
        <time>2018-02-20T09:59:45.000Z</time>
      </trkpt>
      <trkpt lat="43.53155" lon="5.51104">
        <ele>254</ele>
        <time>2018-02-20T09:59:46.000Z</time>
      </trkpt>
      <trkpt lat="43.53155" lon="5.51105">
        <ele>254</ele>
        <time>2018-02-20T09:59:47.000Z</time>
      </trkpt>
      <trkpt lat="43.53154" lon="5.51106">
        <ele>254</ele>
        <time>2018-02-20T09:59:48.000Z</time>
      </trkpt>
      <trkpt lat="43.53154" lon="5.51107">
        <ele>254</ele>
        <time>2018-02-20T09:59:49.000Z</time>
      </trkpt>
      <trkpt lat="43.53154" lon="5.51108">
        <ele>254</ele>
        <time>2018-02-20T09:59:50.000Z</time>
      </trkpt>
      <trkpt lat="43.53153" lon="5.5111">
        <ele>255</ele>
        <time>2018-02-20T09:59:51.000Z</time>
      </trkpt>
      <trkpt lat="43.53153" lon="5.51111">
        <ele>255</ele>
        <time>2018-02-20T09:59:52.000Z</time>
      </trkpt>
      <trkpt lat="43.53153" lon="5.51112">
        <ele>255</ele>
        <time>2018-02-20T09:59:53.000Z</time>
      </trkpt>
      <trkpt lat="43.53152" lon="5.51113">
        <ele>255</ele>
        <time>2018-02-20T09:59:54.000Z</time>
      </trkpt>
      <trkpt lat="43.53152" lon="5.51114">
        <ele>255</ele>
        <time>2018-02-20T09:59:55.000Z</time>
      </trkpt>
      <trkpt lat="43.53151" lon="5.51115">
        <ele>256</ele>
        <time>2018-02-20T09:59:56.000Z</time>
      </trkpt>
      <trkpt lat="43.53151" lon="5.51116">
        <ele>256</ele>
        <time>2018-02-20T09:59:57.000Z</time>
      </trkpt>
      <trkpt lat="43.53151" lon="5.51117">
        <ele>256</ele>
        <time>2018-02-20T09:59:58.000Z</time>
      </trkpt>
      <trkpt lat="43.53151" lon="5.51119">
        <ele>256</ele>
        <time>2018-02-20T09:59:59.000Z</time>
      </trkpt>
      <trkpt lat="43.5315" lon="5.5112">
        <ele>257</ele>
        <time>2018-02-20T10:00:00.000Z</time>
      </trkpt>
      <trkpt lat="43.5315" lon="5.51121">
        <ele>257</ele>
        <time>2018-02-20T10:00:01.000Z</time>
      </trkpt>
      <trkpt lat="43.53149" lon="5.51122">
        <ele>257</ele>
        <time>2018-02-20T10:00:02.000Z</time>
      </trkpt>
      <trkpt lat="43.53149" lon="5.51123">
        <ele>257</ele>
        <time>2018-02-20T10:00:03.000Z</time>
      </trkpt>
      <trkpt lat="43.53149" lon="5.51124">
        <ele>257</ele>
        <time>2018-02-20T10:00:04.000Z</time>
      </trkpt>
      <trkpt lat="43.53148" lon="5.51125">
        <ele>258</ele>
        <time>2018-02-20T10:00:05.000Z</time>
      </trkpt>
      <trkpt lat="43.53148" lon="5.51126">
        <ele>258</ele>
        <time>2018-02-20T10:00:06.000Z</time>
      </trkpt>
      <trkpt lat="43.53148" lon="5.51127">
        <ele>258</ele>
        <time>2018-02-20T10:00:07.000Z</time>
      </trkpt>
      <trkpt lat="43.53147" lon="5.51128">
        <ele>258</ele>
        <time>2018-02-20T10:00:08.000Z</time>
      </trkpt>
      <trkpt lat="43.53147" lon="5.51129">
        <ele>259</ele>
        <time>2018-02-20T10:00:09.000Z</time>
      </trkpt>
      <trkpt lat="43.53147" lon="5.51131">
        <ele>259</ele>
        <time>2018-02-20T10:00:10.000Z</time>
      </trkpt>
      <trkpt lat="43.53147" lon="5.51132">
        <ele>259</ele>
        <time>2018-02-20T10:00:11.000Z</time>
      </trkpt>
      <trkpt lat="43.53146" lon="5.51132">
        <ele>259</ele>
        <time>2018-02-20T10:00:12.000Z</time>
      </trkpt>
      <trkpt lat="43.53146" lon="5.51133">
        <ele>260</ele>
        <time>2018-02-20T10:00:13.000Z</time>
      </trkpt>
      <trkpt lat="43.53146" lon="5.51135">
        <ele>260</ele>
        <time>2018-02-20T10:00:14.000Z</time>
      </trkpt>
      <trkpt lat="43.53146" lon="5.51136">
        <ele>260</ele>
        <time>2018-02-20T10:00:15.000Z</time>
      </trkpt>
      <trkpt lat="43.53145" lon="5.51137">
        <ele>260</ele>
        <time>2018-02-20T10:00:16.000Z</time>
      </trkpt>
      <trkpt lat="43.53145" lon="5.51137">
        <ele>260</ele>
        <time>2018-02-20T10:00:17.000Z</time>
      </trkpt>
      <trkpt lat="43.53145" lon="5.51138">
        <ele>260</ele>
        <time>2018-02-20T10:00:18.000Z</time>
      </trkpt>
      <trkpt lat="43.53145" lon="5.51139">
        <ele>261</ele>
        <time>2018-02-20T10:00:19.000Z</time>
      </trkpt>
      <trkpt lat="43.53145" lon="5.5114">
        <ele>261</ele>
        <time>2018-02-20T10:00:20.000Z</time>
      </trkpt>
      <trkpt lat="43.53145" lon="5.5114">
        <ele>261</ele>
        <time>2018-02-20T10:00:21.000Z</time>
      </trkpt>
      <trkpt lat="43.53144" lon="5.51141">
        <ele>261</ele>
        <time>2018-02-20T10:00:22.000Z</time>
      </trkpt>
      <trkpt lat="43.53144" lon="5.51142">
        <ele>261</ele>
        <time>2018-02-20T10:00:23.000Z</time>
      </trkpt>
      <trkpt lat="43.53144" lon="5.51143">
        <ele>261</ele>
        <time>2018-02-20T10:00:24.000Z</time>
      </trkpt>
      <trkpt lat="43.53144" lon="5.51143">
        <ele>261</ele>
        <time>2018-02-20T10:00:25.000Z</time>
      </trkpt>
      <trkpt lat="43.53144" lon="5.51144">
        <ele>261</ele>
        <time>2018-02-20T10:00:26.000Z</time>
      </trkpt>
      <trkpt lat="43.53144" lon="5.51145">
        <ele>261</ele>
        <time>2018-02-20T10:00:27.000Z</time>
      </trkpt>
      <trkpt lat="43.53144" lon="5.51146">
        <ele>261</ele>
        <time>2018-02-20T10:00:28.000Z</time>
      </trkpt>
      <trkpt lat="43.53144" lon="5.51147">
        <ele>262</ele>
        <time>2018-02-20T10:00:29.000Z</time>
      </trkpt>
      <trkpt lat="43.53145" lon="5.51147">
        <ele>262</ele>
        <time>2018-02-20T10:00:30.000Z</time>
      </trkpt>
      <trkpt lat="43.53145" lon="5.51148">
        <ele>262</ele>
        <time>2018-02-20T10:00:31.000Z</time>
      </trkpt>
      <trkpt lat="43.53145" lon="5.51149">
        <ele>262</ele>
        <time>2018-02-20T10:00:32.000Z</time>
      </trkpt>
      <trkpt lat="43.53146" lon="5.5115">
        <ele>262</ele>
        <time>2018-02-20T10:00:33.000Z</time>
      </trkpt>
      <trkpt lat="43.53146" lon="5.51151">
        <ele>262</ele>
        <time>2018-02-20T10:00:34.000Z</time>
      </trkpt>
      <trkpt lat="43.53146" lon="5.51152">
        <ele>262</ele>
        <time>2018-02-20T10:00:35.000Z</time>
      </trkpt>
      <trkpt lat="43.53146" lon="5.51153">
        <ele>262</ele>
        <time>2018-02-20T10:00:36.000Z</time>
      </trkpt>
      <trkpt lat="43.53147" lon="5.51154">
        <ele>263</ele>
        <time>2018-02-20T10:00:37.000Z</time>
      </trkpt>
      <trkpt lat="43.53147" lon="5.51155">
        <ele>263</ele>
        <time>2018-02-20T10:00:38.000Z</time>
      </trkpt>
      <trkpt lat="43.53147" lon="5.51156">
        <ele>263</ele>
        <time>2018-02-20T10:00:39.000Z</time>
      </trkpt>
      <trkpt lat="43.53148" lon="5.51156">
        <ele>263</ele>
        <time>2018-02-20T10:00:40.000Z</time>
      </trkpt>
      <trkpt lat="43.53148" lon="5.51157">
        <ele>263</ele>
        <time>2018-02-20T10:00:41.000Z</time>
      </trkpt>
      <trkpt lat="43.53149" lon="5.51158">
        <ele>263</ele>
        <time>2018-02-20T10:00:42.000Z</time>
      </trkpt>
      <trkpt lat="43.53149" lon="5.51158">
        <ele>263</ele>
        <time>2018-02-20T10:00:43.000Z</time>
      </trkpt>
      <trkpt lat="43.53149" lon="5.51159">
        <ele>264</ele>
        <time>2018-02-20T10:00:44.000Z</time>
      </trkpt>
      <trkpt lat="43.53149" lon="5.5116">
        <ele>264</ele>
        <time>2018-02-20T10:00:45.000Z</time>
      </trkpt>
      <trkpt lat="43.53149" lon="5.51161">
        <ele>264</ele>
        <time>2018-02-20T10:00:46.000Z</time>
      </trkpt>
      <trkpt lat="43.5315" lon="5.51162">
        <ele>264</ele>
        <time>2018-02-20T10:00:47.000Z</time>
      </trkpt>
      <trkpt lat="43.5315" lon="5.51163">
        <ele>264</ele>
        <time>2018-02-20T10:00:48.000Z</time>
      </trkpt>
      <trkpt lat="43.5315" lon="5.51164">
        <ele>264</ele>
        <time>2018-02-20T10:00:49.000Z</time>
      </trkpt>
      <trkpt lat="43.5315" lon="5.51165">
        <ele>264</ele>
        <time>2018-02-20T10:00:50.000Z</time>
      </trkpt>
      <trkpt lat="43.53151" lon="5.51166">
        <ele>264</ele>
        <time>2018-02-20T10:00:51.000Z</time>
      </trkpt>
      <trkpt lat="43.53151" lon="5.51167">
        <ele>264</ele>
        <time>2018-02-20T10:00:52.000Z</time>
      </trkpt>
      <trkpt lat="43.53151" lon="5.51168">
        <ele>264</ele>
        <time>2018-02-20T10:00:53.000Z</time>
      </trkpt>
      <trkpt lat="43.53151" lon="5.51168">
        <ele>265</ele>
        <time>2018-02-20T10:00:54.000Z</time>
      </trkpt>
      <trkpt lat="43.53152" lon="5.51169">
        <ele>265</ele>
        <time>2018-02-20T10:00:55.000Z</time>
      </trkpt>
      <trkpt lat="43.53152" lon="5.5117">
        <ele>265</ele>
        <time>2018-02-20T10:00:56.000Z</time>
      </trkpt>
      <trkpt lat="43.53152" lon="5.51171">
        <ele>265</ele>
        <time>2018-02-20T10:00:57.000Z</time>
      </trkpt>
      <trkpt lat="43.53152" lon="5.51172">
        <ele>265</ele>
        <time>2018-02-20T10:00:58.000Z</time>
      </trkpt>
      <trkpt lat="43.53152" lon="5.51173">
        <ele>265</ele>
        <time>2018-02-20T10:00:59.000Z</time>
      </trkpt>
      <trkpt lat="43.53152" lon="5.51174">
        <ele>265</ele>
        <time>2018-02-20T10:01:00.000Z</time>
      </trkpt>
      <trkpt lat="43.53152" lon="5.51175">
        <ele>265</ele>
        <time>2018-02-20T10:01:01.000Z</time>
      </trkpt>
      <trkpt lat="43.53152" lon="5.51176">
        <ele>265</ele>
        <time>2018-02-20T10:01:02.000Z</time>
      </trkpt>
      <trkpt lat="43.53153" lon="5.51178">
        <ele>265</ele>
        <time>2018-02-20T10:01:03.000Z</time>
      </trkpt>
      <trkpt lat="43.53153" lon="5.51179">
        <ele>266</ele>
        <time>2018-02-20T10:01:04.000Z</time>
      </trkpt>
      <trkpt lat="43.53153" lon="5.5118">
        <ele>266</ele>
        <time>2018-02-20T10:01:05.000Z</time>
      </trkpt>
      <trkpt lat="43.53153" lon="5.51181">
        <ele>266</ele>
        <time>2018-02-20T10:01:06.000Z</time>
      </trkpt>
      <trkpt lat="43.53153" lon="5.51182">
        <ele>266</ele>
        <time>2018-02-20T10:01:07.000Z</time>
      </trkpt>
      <trkpt lat="43.53152" lon="5.51183">
        <ele>266</ele>
        <time>2018-02-20T10:01:08.000Z</time>
      </trkpt>
      <trkpt lat="43.53152" lon="5.51183">
        <ele>266</ele>
        <time>2018-02-20T10:01:09.000Z</time>
      </trkpt>
      <trkpt lat="43.53152" lon="5.51184">
        <ele>266</ele>
        <time>2018-02-20T10:01:10.000Z</time>
      </trkpt>
      <trkpt lat="43.53152" lon="5.51185">
        <ele>266</ele>
        <time>2018-02-20T10:01:11.000Z</time>
      </trkpt>
      <trkpt lat="43.53152" lon="5.51186">
        <ele>266</ele>
        <time>2018-02-20T10:01:12.000Z</time>
      </trkpt>
      <trkpt lat="43.53152" lon="5.51187">
        <ele>266</ele>
        <time>2018-02-20T10:01:13.000Z</time>
      </trkpt>
      <trkpt lat="43.53152" lon="5.51188">
        <ele>267</ele>
        <time>2018-02-20T10:01:14.000Z</time>
      </trkpt>
      <trkpt lat="43.53152" lon="5.51189">
        <ele>267</ele>
        <time>2018-02-20T10:01:15.000Z</time>
      </trkpt>
      <trkpt lat="43.53152" lon="5.5119">
        <ele>267</ele>
        <time>2018-02-20T10:01:16.000Z</time>
      </trkpt>
      <trkpt lat="43.53151" lon="5.51192">
        <ele>267</ele>
        <time>2018-02-20T10:01:17.000Z</time>
      </trkpt>
      <trkpt lat="43.53151" lon="5.51192">
        <ele>267</ele>
        <time>2018-02-20T10:01:18.000Z</time>
      </trkpt>
      <trkpt lat="43.53151" lon="5.51194">
        <ele>267</ele>
        <time>2018-02-20T10:01:19.000Z</time>
      </trkpt>
      <trkpt lat="43.53151" lon="5.51195">
        <ele>267</ele>
        <time>2018-02-20T10:01:20.000Z</time>
      </trkpt>
      <trkpt lat="43.5315" lon="5.51196">
        <ele>267</ele>
        <time>2018-02-20T10:01:21.000Z</time>
      </trkpt>
      <trkpt lat="43.5315" lon="5.51197">
        <ele>267</ele>
        <time>2018-02-20T10:01:22.000Z</time>
      </trkpt>
      <trkpt lat="43.5315" lon="5.51198">
        <ele>267</ele>
        <time>2018-02-20T10:01:23.000Z</time>
      </trkpt>
      <trkpt lat="43.5315" lon="5.51199">
        <ele>268</ele>
        <time>2018-02-20T10:01:24.000Z</time>
      </trkpt>
      <trkpt lat="43.5315" lon="5.512">
        <ele>268</ele>
        <time>2018-02-20T10:01:25.000Z</time>
      </trkpt>
      <trkpt lat="43.53149" lon="5.51201">
        <ele>268</ele>
        <time>2018-02-20T10:01:26.000Z</time>
      </trkpt>
      <trkpt lat="43.53149" lon="5.51202">
        <ele>268</ele>
        <time>2018-02-20T10:01:27.000Z</time>
      </trkpt>
      <trkpt lat="43.53149" lon="5.51203">
        <ele>268</ele>
        <time>2018-02-20T10:01:28.000Z</time>
      </trkpt>
      <trkpt lat="43.53149" lon="5.51204">
        <ele>268</ele>
        <time>2018-02-20T10:01:29.000Z</time>
      </trkpt>
      <trkpt lat="43.53148" lon="5.51205">
        <ele>268</ele>
        <time>2018-02-20T10:01:30.000Z</time>
      </trkpt>
      <trkpt lat="43.53148" lon="5.51206">
        <ele>268</ele>
        <time>2018-02-20T10:01:31.000Z</time>
      </trkpt>
      <trkpt lat="43.53148" lon="5.51207">
        <ele>268</ele>
        <time>2018-02-20T10:01:32.000Z</time>
      </trkpt>
      <trkpt lat="43.53148" lon="5.51208">
        <ele>268</ele>
        <time>2018-02-20T10:01:33.000Z</time>
      </trkpt>
      <trkpt lat="43.53148" lon="5.51209">
        <ele>268</ele>
        <time>2018-02-20T10:01:34.000Z</time>
      </trkpt>
      <trkpt lat="43.53148" lon="5.5121">
        <ele>268</ele>
        <time>2018-02-20T10:01:35.000Z</time>
      </trkpt>
      <trkpt lat="43.53147" lon="5.51211">
        <ele>268</ele>
        <time>2018-02-20T10:01:36.000Z</time>
      </trkpt>
      <trkpt lat="43.53147" lon="5.51212">
        <ele>269</ele>
        <time>2018-02-20T10:01:37.000Z</time>
      </trkpt>
      <trkpt lat="43.53147" lon="5.51213">
        <ele>269</ele>
        <time>2018-02-20T10:01:38.000Z</time>
      </trkpt>
      <trkpt lat="43.53146" lon="5.51214">
        <ele>269</ele>
        <time>2018-02-20T10:01:39.000Z</time>
      </trkpt>
      <trkpt lat="43.53146" lon="5.51214">
        <ele>269</ele>
        <time>2018-02-20T10:01:40.000Z</time>
      </trkpt>
      <trkpt lat="43.53146" lon="5.51215">
        <ele>269</ele>
        <time>2018-02-20T10:01:41.000Z</time>
      </trkpt>
      <trkpt lat="43.53146" lon="5.51216">
        <ele>269</ele>
        <time>2018-02-20T10:01:42.000Z</time>
      </trkpt>
      <trkpt lat="43.53146" lon="5.51218">
        <ele>269</ele>
        <time>2018-02-20T10:01:43.000Z</time>
      </trkpt>
      <trkpt lat="43.53146" lon="5.51219">
        <ele>269</ele>
        <time>2018-02-20T10:01:44.000Z</time>
      </trkpt>
      <trkpt lat="43.53145" lon="5.5122">
        <ele>269</ele>
        <time>2018-02-20T10:01:45.000Z</time>
      </trkpt>
      <trkpt lat="43.53145" lon="5.51221">
        <ele>269</ele>
        <time>2018-02-20T10:01:46.000Z</time>
      </trkpt>
      <trkpt lat="43.53145" lon="5.51223">
        <ele>270</ele>
        <time>2018-02-20T10:01:47.000Z</time>
      </trkpt>
      <trkpt lat="43.53144" lon="5.51223">
        <ele>270</ele>
        <time>2018-02-20T10:01:48.000Z</time>
      </trkpt>
      <trkpt lat="43.53144" lon="5.51225">
        <ele>270</ele>
        <time>2018-02-20T10:01:49.000Z</time>
      </trkpt>
      <trkpt lat="43.53144" lon="5.51226">
        <ele>270</ele>
        <time>2018-02-20T10:01:50.000Z</time>
      </trkpt>
      <trkpt lat="43.53144" lon="5.51227">
        <ele>270</ele>
        <time>2018-02-20T10:01:51.000Z</time>
      </trkpt>
      <trkpt lat="43.53143" lon="5.51228">
        <ele>270</ele>
        <time>2018-02-20T10:01:52.000Z</time>
      </trkpt>
      <trkpt lat="43.53143" lon="5.51229">
        <ele>270</ele>
        <time>2018-02-20T10:01:53.000Z</time>
      </trkpt>
      <trkpt lat="43.53142" lon="5.5123">
        <ele>270</ele>
        <time>2018-02-20T10:01:54.000Z</time>
      </trkpt>
      <trkpt lat="43.53142" lon="5.51231">
        <ele>270</ele>
        <time>2018-02-20T10:01:55.000Z</time>
      </trkpt>
      <trkpt lat="43.53142" lon="5.51232">
        <ele>270</ele>
        <time>2018-02-20T10:01:56.000Z</time>
      </trkpt>
      <trkpt lat="43.53141" lon="5.51233">
        <ele>270</ele>
        <time>2018-02-20T10:01:57.000Z</time>
      </trkpt>
      <trkpt lat="43.53141" lon="5.51234">
        <ele>270</ele>
        <time>2018-02-20T10:01:58.000Z</time>
      </trkpt>
      <trkpt lat="43.53141" lon="5.51235">
        <ele>270</ele>
        <time>2018-02-20T10:01:59.000Z</time>
      </trkpt>
      <trkpt lat="43.53141" lon="5.51237">
        <ele>270</ele>
        <time>2018-02-20T10:02:00.000Z</time>
      </trkpt>
      <trkpt lat="43.53141" lon="5.51238">
        <ele>270</ele>
        <time>2018-02-20T10:02:01.000Z</time>
      </trkpt>
      <trkpt lat="43.53141" lon="5.51239">
        <ele>270</ele>
        <time>2018-02-20T10:02:02.000Z</time>
      </trkpt>
      <trkpt lat="43.53141" lon="5.5124">
        <ele>270</ele>
        <time>2018-02-20T10:02:03.000Z</time>
      </trkpt>
      <trkpt lat="43.53141" lon="5.51241">
        <ele>270</ele>
        <time>2018-02-20T10:02:04.000Z</time>
      </trkpt>
      <trkpt lat="43.53141" lon="5.51243">
        <ele>270</ele>
        <time>2018-02-20T10:02:05.000Z</time>
      </trkpt>
      <trkpt lat="43.53141" lon="5.51244">
        <ele>270</ele>
        <time>2018-02-20T10:02:06.000Z</time>
      </trkpt>
      <trkpt lat="43.53141" lon="5.51245">
        <ele>270</ele>
        <time>2018-02-20T10:02:07.000Z</time>
      </trkpt>
      <trkpt lat="43.5314" lon="5.51246">
        <ele>271</ele>
        <time>2018-02-20T10:02:08.000Z</time>
      </trkpt>
      <trkpt lat="43.5314" lon="5.51247">
        <ele>271</ele>
        <time>2018-02-20T10:02:09.000Z</time>
      </trkpt>
      <trkpt lat="43.5314" lon="5.51248">
        <ele>271</ele>
        <time>2018-02-20T10:02:10.000Z</time>
      </trkpt>
      <trkpt lat="43.5314" lon="5.51249">
        <ele>271</ele>
        <time>2018-02-20T10:02:11.000Z</time>
      </trkpt>
      <trkpt lat="43.53139" lon="5.51249">
        <ele>271</ele>
        <time>2018-02-20T10:02:12.000Z</time>
      </trkpt>
      <trkpt lat="43.53139" lon="5.51249">
        <ele>271</ele>
        <time>2018-02-20T10:02:13.000Z</time>
      </trkpt>
      <trkpt lat="43.53139" lon="5.51249">
        <ele>271</ele>
        <time>2018-02-20T10:02:14.000Z</time>
      </trkpt>
      <trkpt lat="43.53139" lon="5.51249">
        <ele>271</ele>
        <time>2018-02-20T10:02:15.000Z</time>
      </trkpt>
      <trkpt lat="43.53139" lon="5.51249">
        <ele>271</ele>
        <time>2018-02-20T10:02:16.000Z</time>
      </trkpt>
      <trkpt lat="43.53139" lon="5.51249">
        <ele>271</ele>
        <time>2018-02-20T10:02:17.000Z</time>
      </trkpt>
      <trkpt lat="43.53139" lon="5.51249">
        <ele>271</ele>
        <time>2018-02-20T10:02:18.000Z</time>
      </trkpt>
      <trkpt lat="43.53139" lon="5.51249">
        <ele>271</ele>
        <time>2018-02-20T10:02:19.000Z</time>
      </trkpt>
      <trkpt lat="43.53139" lon="5.51249">
        <ele>271</ele>
        <time>2018-02-20T10:02:20.000Z</time>
      </trkpt>
      <trkpt lat="43.53139" lon="5.5125">
        <ele>271</ele>
        <time>2018-02-20T10:02:21.000Z</time>
      </trkpt>
      <trkpt lat="43.53139" lon="5.5125">
        <ele>271</ele>
        <time>2018-02-20T10:02:22.000Z</time>
      </trkpt>
      <trkpt lat="43.53139" lon="5.5125">
        <ele>271</ele>
        <time>2018-02-20T10:02:23.000Z</time>
      </trkpt>
      <trkpt lat="43.53139" lon="5.5125">
        <ele>271</ele>
        <time>2018-02-20T10:02:24.000Z</time>
      </trkpt>
      <trkpt lat="43.53139" lon="5.51251">
        <ele>271</ele>
        <time>2018-02-20T10:02:25.000Z</time>
      </trkpt>
      <trkpt lat="43.53139" lon="5.51252">
        <ele>271</ele>
        <time>2018-02-20T10:02:26.000Z</time>
      </trkpt>
      <trkpt lat="43.53138" lon="5.51253">
        <ele>271</ele>
        <time>2018-02-20T10:02:27.000Z</time>
      </trkpt>
      <trkpt lat="43.53138" lon="5.51254">
        <ele>271</ele>
        <time>2018-02-20T10:02:28.000Z</time>
      </trkpt>
      <trkpt lat="43.53138" lon="5.51255">
        <ele>271</ele>
        <time>2018-02-20T10:02:29.000Z</time>
      </trkpt>
      <trkpt lat="43.53138" lon="5.51257">
        <ele>272</ele>
        <time>2018-02-20T10:02:30.000Z</time>
      </trkpt>
      <trkpt lat="43.53137" lon="5.51258">
        <ele>272</ele>
        <time>2018-02-20T10:02:31.000Z</time>
      </trkpt>
      <trkpt lat="43.53137" lon="5.51259">
        <ele>272</ele>
        <time>2018-02-20T10:02:32.000Z</time>
      </trkpt>
      <trkpt lat="43.53137" lon="5.5126">
        <ele>272</ele>
        <time>2018-02-20T10:02:33.000Z</time>
      </trkpt>
      <trkpt lat="43.53137" lon="5.51261">
        <ele>272</ele>
        <time>2018-02-20T10:02:34.000Z</time>
      </trkpt>
      <trkpt lat="43.53136" lon="5.51263">
        <ele>272</ele>
        <time>2018-02-20T10:02:35.000Z</time>
      </trkpt>
      <trkpt lat="43.53136" lon="5.51264">
        <ele>273</ele>
        <time>2018-02-20T10:02:36.000Z</time>
      </trkpt>
      <trkpt lat="43.53136" lon="5.51265">
        <ele>273</ele>
        <time>2018-02-20T10:02:37.000Z</time>
      </trkpt>
      <trkpt lat="43.53135" lon="5.51266">
        <ele>273</ele>
        <time>2018-02-20T10:02:38.000Z</time>
      </trkpt>
      <trkpt lat="43.53135" lon="5.51267">
        <ele>273</ele>
        <time>2018-02-20T10:02:39.000Z</time>
      </trkpt>
      <trkpt lat="43.53135" lon="5.51268">
        <ele>273</ele>
        <time>2018-02-20T10:02:40.000Z</time>
      </trkpt>
      <trkpt lat="43.53135" lon="5.51269">
        <ele>273</ele>
        <time>2018-02-20T10:02:41.000Z</time>
      </trkpt>
      <trkpt lat="43.53134" lon="5.5127">
        <ele>274</ele>
        <time>2018-02-20T10:02:42.000Z</time>
      </trkpt>
      <trkpt lat="43.53134" lon="5.51271">
        <ele>274</ele>
        <time>2018-02-20T10:02:43.000Z</time>
      </trkpt>
      <trkpt lat="43.53134" lon="5.51273">
        <ele>274</ele>
        <time>2018-02-20T10:02:44.000Z</time>
      </trkpt>
      <trkpt lat="43.53134" lon="5.51274">
        <ele>274</ele>
        <time>2018-02-20T10:02:45.000Z</time>
      </trkpt>
      <trkpt lat="43.53134" lon="5.51275">
        <ele>274</ele>
        <time>2018-02-20T10:02:46.000Z</time>
      </trkpt>
      <trkpt lat="43.53134" lon="5.51276">
        <ele>274</ele>
        <time>2018-02-20T10:02:47.000Z</time>
      </trkpt>
      <trkpt lat="43.53133" lon="5.51277">
        <ele>275</ele>
        <time>2018-02-20T10:02:48.000Z</time>
      </trkpt>
      <trkpt lat="43.53133" lon="5.51278">
        <ele>275</ele>
        <time>2018-02-20T10:02:49.000Z</time>
      </trkpt>
      <trkpt lat="43.53133" lon="5.51279">
        <ele>275</ele>
        <time>2018-02-20T10:02:50.000Z</time>
      </trkpt>
      <trkpt lat="43.53133" lon="5.5128">
        <ele>275</ele>
        <time>2018-02-20T10:02:51.000Z</time>
      </trkpt>
      <trkpt lat="43.53133" lon="5.51282">
        <ele>275</ele>
        <time>2018-02-20T10:02:52.000Z</time>
      </trkpt>
      <trkpt lat="43.53132" lon="5.51283">
        <ele>275</ele>
        <time>2018-02-20T10:02:53.000Z</time>
      </trkpt>
      <trkpt lat="43.53132" lon="5.51284">
        <ele>275</ele>
        <time>2018-02-20T10:02:54.000Z</time>
      </trkpt>
      <trkpt lat="43.53131" lon="5.51285">
        <ele>275</ele>
        <time>2018-02-20T10:02:55.000Z</time>
      </trkpt>
      <trkpt lat="43.53131" lon="5.51286">
        <ele>275</ele>
        <time>2018-02-20T10:02:56.000Z</time>
      </trkpt>
      <trkpt lat="43.53131" lon="5.51287">
        <ele>275</ele>
        <time>2018-02-20T10:02:57.000Z</time>
      </trkpt>
      <trkpt lat="43.53131" lon="5.51288">
        <ele>275</ele>
        <time>2018-02-20T10:02:58.000Z</time>
      </trkpt>
      <trkpt lat="43.53131" lon="5.51289">
        <ele>276</ele>
        <time>2018-02-20T10:02:59.000Z</time>
      </trkpt>
      <trkpt lat="43.5313" lon="5.5129">
        <ele>276</ele>
        <time>2018-02-20T10:03:00.000Z</time>
      </trkpt>
      <trkpt lat="43.5313" lon="5.51291">
        <ele>276</ele>
        <time>2018-02-20T10:03:01.000Z</time>
      </trkpt>
      <trkpt lat="43.5313" lon="5.51293">
        <ele>276</ele>
        <time>2018-02-20T10:03:02.000Z</time>
      </trkpt>
      <trkpt lat="43.5313" lon="5.51294">
        <ele>276</ele>
        <time>2018-02-20T10:03:03.000Z</time>
      </trkpt>
      <trkpt lat="43.5313" lon="5.51295">
        <ele>276</ele>
        <time>2018-02-20T10:03:04.000Z</time>
      </trkpt>
      <trkpt lat="43.5313" lon="5.51296">
        <ele>276</ele>
        <time>2018-02-20T10:03:05.000Z</time>
      </trkpt>
      <trkpt lat="43.53129" lon="5.51297">
        <ele>277</ele>
        <time>2018-02-20T10:03:06.000Z</time>
      </trkpt>
      <trkpt lat="43.53129" lon="5.51298">
        <ele>277</ele>
        <time>2018-02-20T10:03:07.000Z</time>
      </trkpt>
      <trkpt lat="43.53129" lon="5.51298">
        <ele>277</ele>
        <time>2018-02-20T10:03:08.000Z</time>
      </trkpt>
      <trkpt lat="43.53129" lon="5.513">
        <ele>277</ele>
        <time>2018-02-20T10:03:09.000Z</time>
      </trkpt>
      <trkpt lat="43.53129" lon="5.51301">
        <ele>278</ele>
        <time>2018-02-20T10:03:10.000Z</time>
      </trkpt>
      <trkpt lat="43.53129" lon="5.51302">
        <ele>278</ele>
        <time>2018-02-20T10:03:11.000Z</time>
      </trkpt>
      <trkpt lat="43.53129" lon="5.51303">
        <ele>278</ele>
        <time>2018-02-20T10:03:12.000Z</time>
      </trkpt>
      <trkpt lat="43.53128" lon="5.51304">
        <ele>278</ele>
        <time>2018-02-20T10:03:13.000Z</time>
      </trkpt>
      <trkpt lat="43.53128" lon="5.51305">
        <ele>278</ele>
        <time>2018-02-20T10:03:14.000Z</time>
      </trkpt>
      <trkpt lat="43.53128" lon="5.51306">
        <ele>278</ele>
        <time>2018-02-20T10:03:15.000Z</time>
      </trkpt>
      <trkpt lat="43.53128" lon="5.51307">
        <ele>278</ele>
        <time>2018-02-20T10:03:16.000Z</time>
      </trkpt>
      <trkpt lat="43.53128" lon="5.51308">
        <ele>278</ele>
        <time>2018-02-20T10:03:17.000Z</time>
      </trkpt>
      <trkpt lat="43.53128" lon="5.5131">
        <ele>278</ele>
        <time>2018-02-20T10:03:18.000Z</time>
      </trkpt>
      <trkpt lat="43.53127" lon="5.51311">
        <ele>279</ele>
        <time>2018-02-20T10:03:19.000Z</time>
      </trkpt>
      <trkpt lat="43.53127" lon="5.51312">
        <ele>279</ele>
        <time>2018-02-20T10:03:20.000Z</time>
      </trkpt>
      <trkpt lat="43.53127" lon="5.51313">
        <ele>279</ele>
        <time>2018-02-20T10:03:21.000Z</time>
      </trkpt>
      <trkpt lat="43.53127" lon="5.51314">
        <ele>279</ele>
        <time>2018-02-20T10:03:22.000Z</time>
      </trkpt>
      <trkpt lat="43.53127" lon="5.51315">
        <ele>279</ele>
        <time>2018-02-20T10:03:23.000Z</time>
      </trkpt>
      <trkpt lat="43.53127" lon="5.51317">
        <ele>279</ele>
        <time>2018-02-20T10:03:24.000Z</time>
      </trkpt>
      <trkpt lat="43.53127" lon="5.51318">
        <ele>279</ele>
        <time>2018-02-20T10:03:25.000Z</time>
      </trkpt>
      <trkpt lat="43.53127" lon="5.51319">
        <ele>279</ele>
        <time>2018-02-20T10:03:26.000Z</time>
      </trkpt>
      <trkpt lat="43.53126" lon="5.5132">
        <ele>280</ele>
        <time>2018-02-20T10:03:27.000Z</time>
      </trkpt>
      <trkpt lat="43.53126" lon="5.51321">
        <ele>280</ele>
        <time>2018-02-20T10:03:28.000Z</time>
      </trkpt>
      <trkpt lat="43.53126" lon="5.51322">
        <ele>280</ele>
        <time>2018-02-20T10:03:29.000Z</time>
      </trkpt>
      <trkpt lat="43.53126" lon="5.51323">
        <ele>280</ele>
        <time>2018-02-20T10:03:30.000Z</time>
      </trkpt>
      <trkpt lat="43.53125" lon="5.51324">
        <ele>280</ele>
        <time>2018-02-20T10:03:31.000Z</time>
      </trkpt>
      <trkpt lat="43.53125" lon="5.51325">
        <ele>280</ele>
        <time>2018-02-20T10:03:32.000Z</time>
      </trkpt>
      <trkpt lat="43.53125" lon="5.51326">
        <ele>280</ele>
        <time>2018-02-20T10:03:33.000Z</time>
      </trkpt>
      <trkpt lat="43.53125" lon="5.51327">
        <ele>280</ele>
        <time>2018-02-20T10:03:34.000Z</time>
      </trkpt>
      <trkpt lat="43.53125" lon="5.51328">
        <ele>280</ele>
        <time>2018-02-20T10:03:35.000Z</time>
      </trkpt>
      <trkpt lat="43.53124" lon="5.51329">
        <ele>280</ele>
        <time>2018-02-20T10:03:36.000Z</time>
      </trkpt>
      <trkpt lat="43.53124" lon="5.5133">
        <ele>280</ele>
        <time>2018-02-20T10:03:37.000Z</time>
      </trkpt>
      <trkpt lat="43.53124" lon="5.51331">
        <ele>280</ele>
        <time>2018-02-20T10:03:38.000Z</time>
      </trkpt>
      <trkpt lat="43.53124" lon="5.51332">
        <ele>280</ele>
        <time>2018-02-20T10:03:39.000Z</time>
      </trkpt>
      <trkpt lat="43.53124" lon="5.51333">
        <ele>280</ele>
        <time>2018-02-20T10:03:40.000Z</time>
      </trkpt>
      <trkpt lat="43.53124" lon="5.51334">
        <ele>280</ele>
        <time>2018-02-20T10:03:41.000Z</time>
      </trkpt>
      <trkpt lat="43.53124" lon="5.51335">
        <ele>280</ele>
        <time>2018-02-20T10:03:42.000Z</time>
      </trkpt>
      <trkpt lat="43.53124" lon="5.51336">
        <ele>281</ele>
        <time>2018-02-20T10:03:43.000Z</time>
      </trkpt>
      <trkpt lat="43.53124" lon="5.51338">
        <ele>281</ele>
        <time>2018-02-20T10:03:44.000Z</time>
      </trkpt>
      <trkpt lat="43.53124" lon="5.51339">
        <ele>281</ele>
        <time>2018-02-20T10:03:45.000Z</time>
      </trkpt>
      <trkpt lat="43.53124" lon="5.5134">
        <ele>281</ele>
        <time>2018-02-20T10:03:46.000Z</time>
      </trkpt>
      <trkpt lat="43.53123" lon="5.51341">
        <ele>281</ele>
        <time>2018-02-20T10:03:47.000Z</time>
      </trkpt>
      <trkpt lat="43.53123" lon="5.51342">
        <ele>281</ele>
        <time>2018-02-20T10:03:48.000Z</time>
      </trkpt>
      <trkpt lat="43.53123" lon="5.51343">
        <ele>281</ele>
        <time>2018-02-20T10:03:49.000Z</time>
      </trkpt>
      <trkpt lat="43.53122" lon="5.51344">
        <ele>281</ele>
        <time>2018-02-20T10:03:50.000Z</time>
      </trkpt>
      <trkpt lat="43.53122" lon="5.51345">
        <ele>281</ele>
        <time>2018-02-20T10:03:51.000Z</time>
      </trkpt>
      <trkpt lat="43.53122" lon="5.51346">
        <ele>281</ele>
        <time>2018-02-20T10:03:52.000Z</time>
      </trkpt>
      <trkpt lat="43.53122" lon="5.51347">
        <ele>282</ele>
        <time>2018-02-20T10:03:53.000Z</time>
      </trkpt>
      <trkpt lat="43.53122" lon="5.51349">
        <ele>282</ele>
        <time>2018-02-20T10:03:54.000Z</time>
      </trkpt>
      <trkpt lat="43.53122" lon="5.5135">
        <ele>282</ele>
        <time>2018-02-20T10:03:55.000Z</time>
      </trkpt>
      <trkpt lat="43.53122" lon="5.51351">
        <ele>282</ele>
        <time>2018-02-20T10:03:56.000Z</time>
      </trkpt>
      <trkpt lat="43.53121" lon="5.51352">
        <ele>282</ele>
        <time>2018-02-20T10:03:57.000Z</time>
      </trkpt>
      <trkpt lat="43.53121" lon="5.51353">
        <ele>282</ele>
        <time>2018-02-20T10:03:58.000Z</time>
      </trkpt>
      <trkpt lat="43.53121" lon="5.51354">
        <ele>283</ele>
        <time>2018-02-20T10:03:59.000Z</time>
      </trkpt>
      <trkpt lat="43.53121" lon="5.51355">
        <ele>283</ele>
        <time>2018-02-20T10:04:00.000Z</time>
      </trkpt>
      <trkpt lat="43.53121" lon="5.51356">
        <ele>283</ele>
        <time>2018-02-20T10:04:01.000Z</time>
      </trkpt>
      <trkpt lat="43.5312" lon="5.51357">
        <ele>283</ele>
        <time>2018-02-20T10:04:02.000Z</time>
      </trkpt>
      <trkpt lat="43.5312" lon="5.51358">
        <ele>283</ele>
        <time>2018-02-20T10:04:03.000Z</time>
      </trkpt>
      <trkpt lat="43.53119" lon="5.51359">
        <ele>283</ele>
        <time>2018-02-20T10:04:04.000Z</time>
      </trkpt>
      <trkpt lat="43.53119" lon="5.51359">
        <ele>284</ele>
        <time>2018-02-20T10:04:05.000Z</time>
      </trkpt>
      <trkpt lat="43.53119" lon="5.51359">
        <ele>284</ele>
        <time>2018-02-20T10:04:06.000Z</time>
      </trkpt>
      <trkpt lat="43.53119" lon="5.51359">
        <ele>284</ele>
        <time>2018-02-20T10:04:07.000Z</time>
      </trkpt>
      <trkpt lat="43.53119" lon="5.51359">
        <ele>284</ele>
        <time>2018-02-20T10:04:08.000Z</time>
      </trkpt>
      <trkpt lat="43.53119" lon="5.51359">
        <ele>284</ele>
        <time>2018-02-20T10:04:09.000Z</time>
      </trkpt>
      <trkpt lat="43.53119" lon="5.5136">
        <ele>284</ele>
        <time>2018-02-20T10:04:10.000Z</time>
      </trkpt>
      <trkpt lat="43.53119" lon="5.51361">
        <ele>284</ele>
        <time>2018-02-20T10:04:11.000Z</time>
      </trkpt>
      <trkpt lat="43.53119" lon="5.51362">
        <ele>284</ele>
        <time>2018-02-20T10:04:12.000Z</time>
      </trkpt>
      <trkpt lat="43.53118" lon="5.51363">
        <ele>284</ele>
        <time>2018-02-20T10:04:13.000Z</time>
      </trkpt>
      <trkpt lat="43.53118" lon="5.51364">
        <ele>284</ele>
        <time>2018-02-20T10:04:14.000Z</time>
      </trkpt>
      <trkpt lat="43.53117" lon="5.51365">
        <ele>284</ele>
        <time>2018-02-20T10:04:15.000Z</time>
      </trkpt>
      <trkpt lat="43.53117" lon="5.51366">
        <ele>284</ele>
        <time>2018-02-20T10:04:16.000Z</time>
      </trkpt>
      <trkpt lat="43.53116" lon="5.51367">
        <ele>284</ele>
        <time>2018-02-20T10:04:17.000Z</time>
      </trkpt>
      <trkpt lat="43.53115" lon="5.51368">
        <ele>284</ele>
        <time>2018-02-20T10:04:18.000Z</time>
      </trkpt>
      <trkpt lat="43.53115" lon="5.51369">
        <ele>284</ele>
        <time>2018-02-20T10:04:19.000Z</time>
      </trkpt>
      <trkpt lat="43.53114" lon="5.51371">
        <ele>285</ele>
        <time>2018-02-20T10:04:20.000Z</time>
      </trkpt>
      <trkpt lat="43.53114" lon="5.51372">
        <ele>285</ele>
        <time>2018-02-20T10:04:21.000Z</time>
      </trkpt>
      <trkpt lat="43.53114" lon="5.51373">
        <ele>285</ele>
        <time>2018-02-20T10:04:22.000Z</time>
      </trkpt>
      <trkpt lat="43.53113" lon="5.51374">
        <ele>285</ele>
        <time>2018-02-20T10:04:23.000Z</time>
      </trkpt>
      <trkpt lat="43.53113" lon="5.51375">
        <ele>285</ele>
        <time>2018-02-20T10:04:24.000Z</time>
      </trkpt>
      <trkpt lat="43.53113" lon="5.51377">
        <ele>285</ele>
        <time>2018-02-20T10:04:25.000Z</time>
      </trkpt>
      <trkpt lat="43.53112" lon="5.51378">
        <ele>285</ele>
        <time>2018-02-20T10:04:26.000Z</time>
      </trkpt>
      <trkpt lat="43.53112" lon="5.51379">
        <ele>285</ele>
        <time>2018-02-20T10:04:27.000Z</time>
      </trkpt>
      <trkpt lat="43.53112" lon="5.5138">
        <ele>285</ele>
        <time>2018-02-20T10:04:28.000Z</time>
      </trkpt>
      <trkpt lat="43.53112" lon="5.51381">
        <ele>285</ele>
        <time>2018-02-20T10:04:29.000Z</time>
      </trkpt>
      <trkpt lat="43.53111" lon="5.51381">
        <ele>285</ele>
        <time>2018-02-20T10:04:30.000Z</time>
      </trkpt>
      <trkpt lat="43.53111" lon="5.51381">
        <ele>285</ele>
        <time>2018-02-20T10:04:31.000Z</time>
      </trkpt>
      <trkpt lat="43.53111" lon="5.51381">
        <ele>285</ele>
        <time>2018-02-20T10:04:32.000Z</time>
      </trkpt>
      <trkpt lat="43.53111" lon="5.51381">
        <ele>285</ele>
        <time>2018-02-20T10:04:33.000Z</time>
      </trkpt>
      <trkpt lat="43.53111" lon="5.51381">
        <ele>285</ele>
        <time>2018-02-20T10:04:34.000Z</time>
      </trkpt>
      <trkpt lat="43.53111" lon="5.51381">
        <ele>285</ele>
        <time>2018-02-20T10:04:35.000Z</time>
      </trkpt>
      <trkpt lat="43.53111" lon="5.51381">
        <ele>285</ele>
        <time>2018-02-20T10:04:36.000Z</time>
      </trkpt>
      <trkpt lat="43.53111" lon="5.51382">
        <ele>285</ele>
        <time>2018-02-20T10:04:37.000Z</time>
      </trkpt>
      <trkpt lat="43.53111" lon="5.51383">
        <ele>285</ele>
        <time>2018-02-20T10:04:38.000Z</time>
      </trkpt>
      <trkpt lat="43.53111" lon="5.51384">
        <ele>285</ele>
        <time>2018-02-20T10:04:39.000Z</time>
      </trkpt>
      <trkpt lat="43.53111" lon="5.51385">
        <ele>285</ele>
        <time>2018-02-20T10:04:40.000Z</time>
      </trkpt>
      <trkpt lat="43.53111" lon="5.51386">
        <ele>285</ele>
        <time>2018-02-20T10:04:41.000Z</time>
      </trkpt>
      <trkpt lat="43.53111" lon="5.51387">
        <ele>285</ele>
        <time>2018-02-20T10:04:42.000Z</time>
      </trkpt>
      <trkpt lat="43.53111" lon="5.51388">
        <ele>285</ele>
        <time>2018-02-20T10:04:43.000Z</time>
      </trkpt>
      <trkpt lat="43.53112" lon="5.51389">
        <ele>285</ele>
        <time>2018-02-20T10:04:44.000Z</time>
      </trkpt>
      <trkpt lat="43.53112" lon="5.5139">
        <ele>285</ele>
        <time>2018-02-20T10:04:45.000Z</time>
      </trkpt>
      <trkpt lat="43.53112" lon="5.5139">
        <ele>285</ele>
        <time>2018-02-20T10:04:46.000Z</time>
      </trkpt>
      <trkpt lat="43.53113" lon="5.51391">
        <ele>285</ele>
        <time>2018-02-20T10:04:47.000Z</time>
      </trkpt>
      <trkpt lat="43.53113" lon="5.51391">
        <ele>285</ele>
        <time>2018-02-20T10:04:48.000Z</time>
      </trkpt>
      <trkpt lat="43.53114" lon="5.51392">
        <ele>285</ele>
        <time>2018-02-20T10:04:49.000Z</time>
      </trkpt>
      <trkpt lat="43.53114" lon="5.51392">
        <ele>285</ele>
        <time>2018-02-20T10:04:50.000Z</time>
      </trkpt>
      <trkpt lat="43.53114" lon="5.51392">
        <ele>285</ele>
        <time>2018-02-20T10:04:51.000Z</time>
      </trkpt>
      <trkpt lat="43.53114" lon="5.51392">
        <ele>285</ele>
        <time>2018-02-20T10:04:52.000Z</time>
      </trkpt>
      <trkpt lat="43.53114" lon="5.51392">
        <ele>285</ele>
        <time>2018-02-20T10:04:53.000Z</time>
      </trkpt>
      <trkpt lat="43.53114" lon="5.51392">
        <ele>285</ele>
        <time>2018-02-20T10:04:54.000Z</time>
      </trkpt>
      <trkpt lat="43.53114" lon="5.51392">
        <ele>285</ele>
        <time>2018-02-20T10:04:55.000Z</time>
      </trkpt>
      <trkpt lat="43.53114" lon="5.51392">
        <ele>285</ele>
        <time>2018-02-20T10:04:56.000Z</time>
      </trkpt>
      <trkpt lat="43.53114" lon="5.51392">
        <ele>285</ele>
        <time>2018-02-20T10:04:57.000Z</time>
      </trkpt>
      <trkpt lat="43.53114" lon="5.51392">
        <ele>285</ele>
        <time>2018-02-20T10:04:58.000Z</time>
      </trkpt>
      <trkpt lat="43.53114" lon="5.51392">
        <ele>285</ele>
        <time>2018-02-20T10:04:59.000Z</time>
      </trkpt>
      <trkpt lat="43.53114" lon="5.51393">
        <ele>285</ele>
        <time>2018-02-20T10:05:00.000Z</time>
      </trkpt>
      <trkpt lat="43.53114" lon="5.51393">
        <ele>285</ele>
        <time>2018-02-20T10:05:01.000Z</time>
      </trkpt>
      <trkpt lat="43.53114" lon="5.51393">
        <ele>285</ele>
        <time>2018-02-20T10:05:02.000Z</time>
      </trkpt>
      <trkpt lat="43.53114" lon="5.51392">
        <ele>285</ele>
        <time>2018-02-20T10:05:03.000Z</time>
      </trkpt>
      <trkpt lat="43.53114" lon="5.51392">
        <ele>285</ele>
        <time>2018-02-20T10:05:04.000Z</time>
      </trkpt>
      <trkpt lat="43.53114" lon="5.51392">
        <ele>285</ele>
        <time>2018-02-20T10:05:05.000Z</time>
      </trkpt>
      <trkpt lat="43.53114" lon="5.51392">
        <ele>285</ele>
        <time>2018-02-20T10:05:06.000Z</time>
      </trkpt>
      <trkpt lat="43.53114" lon="5.51393">
        <ele>285</ele>
        <time>2018-02-20T10:05:07.000Z</time>
      </trkpt>
      <trkpt lat="43.53114" lon="5.51393">
        <ele>285</ele>
        <time>2018-02-20T10:05:08.000Z</time>
      </trkpt>
      <trkpt lat="43.53114" lon="5.51392">
        <ele>285</ele>
        <time>2018-02-20T10:05:09.000Z</time>
      </trkpt>
      <trkpt lat="43.53114" lon="5.51392">
        <ele>285</ele>
        <time>2018-02-20T10:05:10.000Z</time>
      </trkpt>
      <trkpt lat="43.53114" lon="5.51392">
        <ele>285</ele>
        <time>2018-02-20T10:05:11.000Z</time>
      </trkpt>
      <trkpt lat="43.53114" lon="5.51392">
        <ele>285</ele>
        <time>2018-02-20T10:05:12.000Z</time>
      </trkpt>
      <trkpt lat="43.53114" lon="5.51392">
        <ele>285</ele>
        <time>2018-02-20T10:05:13.000Z</time>
      </trkpt>
      <trkpt lat="43.53114" lon="5.51392">
        <ele>285</ele>
        <time>2018-02-20T10:05:14.000Z</time>
      </trkpt>
      <trkpt lat="43.53114" lon="5.51392">
        <ele>285</ele>
        <time>2018-02-20T10:05:15.000Z</time>
      </trkpt>
      <trkpt lat="43.53114" lon="5.51392">
        <ele>285</ele>
        <time>2018-02-20T10:05:16.000Z</time>
      </trkpt>
      <trkpt lat="43.53114" lon="5.51392">
        <ele>285</ele>
        <time>2018-02-20T10:05:17.000Z</time>
      </trkpt>
      <trkpt lat="43.53114" lon="5.51392">
        <ele>285</ele>
        <time>2018-02-20T10:05:18.000Z</time>
      </trkpt>
      <trkpt lat="43.53114" lon="5.51392">
        <ele>285</ele>
        <time>2018-02-20T10:05:19.000Z</time>
      </trkpt>
      <trkpt lat="43.53114" lon="5.51392">
        <ele>285</ele>
        <time>2018-02-20T10:05:20.000Z</time>
      </trkpt>
      <trkpt lat="43.53114" lon="5.51392">
        <ele>285</ele>
        <time>2018-02-20T10:05:21.000Z</time>
      </trkpt>
      <trkpt lat="43.53114" lon="5.51392">
        <ele>285</ele>
        <time>2018-02-20T10:05:22.000Z</time>
      </trkpt>
      <trkpt lat="43.53114" lon="5.51392">
        <ele>285</ele>
        <time>2018-02-20T10:05:23.000Z</time>
      </trkpt>
      <trkpt lat="43.53114" lon="5.51392">
        <ele>285</ele>
        <time>2018-02-20T10:05:24.000Z</time>
      </trkpt>
      <trkpt lat="43.53114" lon="5.51392">
        <ele>285</ele>
        <time>2018-02-20T10:05:25.000Z</time>
      </trkpt>
      <trkpt lat="43.53114" lon="5.51392">
        <ele>285</ele>
        <time>2018-02-20T10:05:26.000Z</time>
      </trkpt>
      <trkpt lat="43.53114" lon="5.51392">
        <ele>285</ele>
        <time>2018-02-20T10:05:27.000Z</time>
      </trkpt>
      <trkpt lat="43.53114" lon="5.51392">
        <ele>285</ele>
        <time>2018-02-20T10:05:28.000Z</time>
      </trkpt>
      <trkpt lat="43.53114" lon="5.51392">
        <ele>285</ele>
        <time>2018-02-20T10:05:29.000Z</time>
      </trkpt>
      <trkpt lat="43.53114" lon="5.51392">
        <ele>285</ele>
        <time>2018-02-20T10:05:30.000Z</time>
      </trkpt>
      <trkpt lat="43.53114" lon="5.51392">
        <ele>285</ele>
        <time>2018-02-20T10:05:31.000Z</time>
      </trkpt>
      <trkpt lat="43.53114" lon="5.51392">
        <ele>285</ele>
        <time>2018-02-20T10:05:32.000Z</time>
      </trkpt>
      <trkpt lat="43.53114" lon="5.51392">
        <ele>285</ele>
        <time>2018-02-20T10:05:33.000Z</time>
      </trkpt>
      <trkpt lat="43.53114" lon="5.51392">
        <ele>285</ele>
        <time>2018-02-20T10:05:34.000Z</time>
      </trkpt>
      <trkpt lat="43.53114" lon="5.51392">
        <ele>285</ele>
        <time>2018-02-20T10:05:35.000Z</time>
      </trkpt>
      <trkpt lat="43.53114" lon="5.51392">
        <ele>285</ele>
        <time>2018-02-20T10:05:36.000Z</time>
      </trkpt>
      <trkpt lat="43.53114" lon="5.51392">
        <ele>285</ele>
        <time>2018-02-20T10:05:37.000Z</time>
      </trkpt>
      <trkpt lat="43.53114" lon="5.51392">
        <ele>285</ele>
        <time>2018-02-20T10:05:38.000Z</time>
      </trkpt>
      <trkpt lat="43.53114" lon="5.51392">
        <ele>285</ele>
        <time>2018-02-20T10:05:39.000Z</time>
      </trkpt>
      <trkpt lat="43.53114" lon="5.51392">
        <ele>285</ele>
        <time>2018-02-20T10:05:40.000Z</time>
      </trkpt>
      <trkpt lat="43.53114" lon="5.51392">
        <ele>285</ele>
        <time>2018-02-20T10:05:41.000Z</time>
      </trkpt>
      <trkpt lat="43.53114" lon="5.51392">
        <ele>285</ele>
        <time>2018-02-20T10:05:42.000Z</time>
      </trkpt>
      <trkpt lat="43.53114" lon="5.51392">
        <ele>285</ele>
        <time>2018-02-20T10:05:43.000Z</time>
      </trkpt>
      <trkpt lat="43.53114" lon="5.51392">
        <ele>285</ele>
        <time>2018-02-20T10:05:44.000Z</time>
      </trkpt>
      <trkpt lat="43.53114" lon="5.51392">
        <ele>285</ele>
        <time>2018-02-20T10:05:45.000Z</time>
      </trkpt>
      <trkpt lat="43.53114" lon="5.51392">
        <ele>285</ele>
        <time>2018-02-20T10:05:46.000Z</time>
      </trkpt>
      <trkpt lat="43.53114" lon="5.51392">
        <ele>285</ele>
        <time>2018-02-20T10:05:47.000Z</time>
      </trkpt>
      <trkpt lat="43.53114" lon="5.51392">
        <ele>285</ele>
        <time>2018-02-20T10:05:48.000Z</time>
      </trkpt>
      <trkpt lat="43.53114" lon="5.51392">
        <ele>285</ele>
        <time>2018-02-20T10:05:49.000Z</time>
      </trkpt>
      <trkpt lat="43.53114" lon="5.51392">
        <ele>285</ele>
        <time>2018-02-20T10:05:50.000Z</time>
      </trkpt>
      <trkpt lat="43.53114" lon="5.51392">
        <ele>285</ele>
        <time>2018-02-20T10:05:51.000Z</time>
      </trkpt>
      <trkpt lat="43.53114" lon="5.51392">
        <ele>285</ele>
        <time>2018-02-20T10:05:52.000Z</time>
      </trkpt>
      <trkpt lat="43.53114" lon="5.51392">
        <ele>285</ele>
        <time>2018-02-20T10:05:53.000Z</time>
      </trkpt>
      <trkpt lat="43.53114" lon="5.51392">
        <ele>285</ele>
        <time>2018-02-20T10:05:54.000Z</time>
      </trkpt>
      <trkpt lat="43.53114" lon="5.51392">
        <ele>285</ele>
        <time>2018-02-20T10:05:55.000Z</time>
      </trkpt>
      <trkpt lat="43.53114" lon="5.51392">
        <ele>285</ele>
        <time>2018-02-20T10:05:56.000Z</time>
      </trkpt>
      <trkpt lat="43.53114" lon="5.51391">
        <ele>285</ele>
        <time>2018-02-20T10:05:57.000Z</time>
      </trkpt>
      <trkpt lat="43.53114" lon="5.51391">
        <ele>285</ele>
        <time>2018-02-20T10:05:58.000Z</time>
      </trkpt>
      <trkpt lat="43.53114" lon="5.5139">
        <ele>285</ele>
        <time>2018-02-20T10:05:59.000Z</time>
      </trkpt>
      <trkpt lat="43.53115" lon="5.5139">
        <ele>284</ele>
        <time>2018-02-20T10:06:00.000Z</time>
      </trkpt>
      <trkpt lat="43.53116" lon="5.51391">
        <ele>284</ele>
        <time>2018-02-20T10:06:01.000Z</time>
      </trkpt>
      <trkpt lat="43.53117" lon="5.5139">
        <ele>284</ele>
        <time>2018-02-20T10:06:02.000Z</time>
      </trkpt>
      <trkpt lat="43.53117" lon="5.51391">
        <ele>284</ele>
        <time>2018-02-20T10:06:03.000Z</time>
      </trkpt>
      <trkpt lat="43.53118" lon="5.51391">
        <ele>284</ele>
        <time>2018-02-20T10:06:04.000Z</time>
      </trkpt>
      <trkpt lat="43.53118" lon="5.51391">
        <ele>284</ele>
        <time>2018-02-20T10:06:05.000Z</time>
      </trkpt>
      <trkpt lat="43.53118" lon="5.51391">
        <ele>284</ele>
        <time>2018-02-20T10:06:06.000Z</time>
      </trkpt>
      <trkpt lat="43.53118" lon="5.51391">
        <ele>284</ele>
        <time>2018-02-20T10:06:07.000Z</time>
      </trkpt>
      <trkpt lat="43.53118" lon="5.51391">
        <ele>284</ele>
        <time>2018-02-20T10:06:08.000Z</time>
      </trkpt>
      <trkpt lat="43.53118" lon="5.51391">
        <ele>284</ele>
        <time>2018-02-20T10:06:09.000Z</time>
      </trkpt>
      <trkpt lat="43.53118" lon="5.51391">
        <ele>284</ele>
        <time>2018-02-20T10:06:10.000Z</time>
      </trkpt>
      <trkpt lat="43.53118" lon="5.51391">
        <ele>284</ele>
        <time>2018-02-20T10:06:11.000Z</time>
      </trkpt>
      <trkpt lat="43.53118" lon="5.51391">
        <ele>285</ele>
        <time>2018-02-20T10:06:12.000Z</time>
      </trkpt>
      <trkpt lat="43.53118" lon="5.5139">
        <ele>285</ele>
        <time>2018-02-20T10:06:13.000Z</time>
      </trkpt>
      <trkpt lat="43.53119" lon="5.5139">
        <ele>285</ele>
        <time>2018-02-20T10:06:14.000Z</time>
      </trkpt>
      <trkpt lat="43.53119" lon="5.5139">
        <ele>285</ele>
        <time>2018-02-20T10:06:15.000Z</time>
      </trkpt>
      <trkpt lat="43.53119" lon="5.5139">
        <ele>285</ele>
        <time>2018-02-20T10:06:16.000Z</time>
      </trkpt>
      <trkpt lat="43.53119" lon="5.5139">
        <ele>285</ele>
        <time>2018-02-20T10:06:17.000Z</time>
      </trkpt>
      <trkpt lat="43.53119" lon="5.5139">
        <ele>285</ele>
        <time>2018-02-20T10:06:18.000Z</time>
      </trkpt>
      <trkpt lat="43.53119" lon="5.5139">
        <ele>285</ele>
        <time>2018-02-20T10:06:19.000Z</time>
      </trkpt>
      <trkpt lat="43.53119" lon="5.5139">
        <ele>285</ele>
        <time>2018-02-20T10:06:20.000Z</time>
      </trkpt>
      <trkpt lat="43.53119" lon="5.51389">
        <ele>285</ele>
        <time>2018-02-20T10:06:21.000Z</time>
      </trkpt>
      <trkpt lat="43.53119" lon="5.51389">
        <ele>285</ele>
        <time>2018-02-20T10:06:22.000Z</time>
      </trkpt>
      <trkpt lat="43.53119" lon="5.51389">
        <ele>285</ele>
        <time>2018-02-20T10:06:23.000Z</time>
      </trkpt>
      <trkpt lat="43.53119" lon="5.51389">
        <ele>285</ele>
        <time>2018-02-20T10:06:24.000Z</time>
      </trkpt>
      <trkpt lat="43.53119" lon="5.51389">
        <ele>285</ele>
        <time>2018-02-20T10:06:25.000Z</time>
      </trkpt>
      <trkpt lat="43.53119" lon="5.51389">
        <ele>285</ele>
        <time>2018-02-20T10:06:26.000Z</time>
      </trkpt>
      <trkpt lat="43.53119" lon="5.51389">
        <ele>285</ele>
        <time>2018-02-20T10:06:27.000Z</time>
      </trkpt>
      <trkpt lat="43.53119" lon="5.51389">
        <ele>285</ele>
        <time>2018-02-20T10:06:28.000Z</time>
      </trkpt>
      <trkpt lat="43.53119" lon="5.51389">
        <ele>285</ele>
        <time>2018-02-20T10:06:29.000Z</time>
      </trkpt>
      <trkpt lat="43.53119" lon="5.51389">
        <ele>285</ele>
        <time>2018-02-20T10:06:30.000Z</time>
      </trkpt>
      <trkpt lat="43.53119" lon="5.51389">
        <ele>285</ele>
        <time>2018-02-20T10:06:31.000Z</time>
      </trkpt>
      <trkpt lat="43.53119" lon="5.51389">
        <ele>285</ele>
        <time>2018-02-20T10:06:32.000Z</time>
      </trkpt>
      <trkpt lat="43.53119" lon="5.51389">
        <ele>285</ele>
        <time>2018-02-20T10:06:33.000Z</time>
      </trkpt>
      <trkpt lat="43.53119" lon="5.51389">
        <ele>285</ele>
        <time>2018-02-20T10:06:34.000Z</time>
      </trkpt>
      <trkpt lat="43.53119" lon="5.51389">
        <ele>285</ele>
        <time>2018-02-20T10:06:35.000Z</time>
      </trkpt>
      <trkpt lat="43.53119" lon="5.51389">
        <ele>285</ele>
        <time>2018-02-20T10:06:36.000Z</time>
      </trkpt>
      <trkpt lat="43.53119" lon="5.51389">
        <ele>285</ele>
        <time>2018-02-20T10:06:37.000Z</time>
      </trkpt>
      <trkpt lat="43.53119" lon="5.51388">
        <ele>285</ele>
        <time>2018-02-20T10:06:38.000Z</time>
      </trkpt>
      <trkpt lat="43.53119" lon="5.51388">
        <ele>285</ele>
        <time>2018-02-20T10:06:39.000Z</time>
      </trkpt>
      <trkpt lat="43.53119" lon="5.51388">
        <ele>285</ele>
        <time>2018-02-20T10:06:40.000Z</time>
      </trkpt>
      <trkpt lat="43.53119" lon="5.51388">
        <ele>285</ele>
        <time>2018-02-20T10:06:41.000Z</time>
      </trkpt>
      <trkpt lat="43.53119" lon="5.51388">
        <ele>285</ele>
        <time>2018-02-20T10:06:42.000Z</time>
      </trkpt>
      <trkpt lat="43.53119" lon="5.51388">
        <ele>285</ele>
        <time>2018-02-20T10:06:43.000Z</time>
      </trkpt>
      <trkpt lat="43.53119" lon="5.51388">
        <ele>285</ele>
        <time>2018-02-20T10:06:44.000Z</time>
      </trkpt>
      <trkpt lat="43.53119" lon="5.51388">
        <ele>285</ele>
        <time>2018-02-20T10:06:45.000Z</time>
      </trkpt>
      <trkpt lat="43.53119" lon="5.51388">
        <ele>285</ele>
        <time>2018-02-20T10:06:46.000Z</time>
      </trkpt>
      <trkpt lat="43.53119" lon="5.51388">
        <ele>285</ele>
        <time>2018-02-20T10:06:47.000Z</time>
      </trkpt>
      <trkpt lat="43.53119" lon="5.51388">
        <ele>285</ele>
        <time>2018-02-20T10:06:48.000Z</time>
      </trkpt>
      <trkpt lat="43.53119" lon="5.51388">
        <ele>285</ele>
        <time>2018-02-20T10:06:49.000Z</time>
      </trkpt>
      <trkpt lat="43.53119" lon="5.51388">
        <ele>285</ele>
        <time>2018-02-20T10:06:50.000Z</time>
      </trkpt>
      <trkpt lat="43.53119" lon="5.51388">
        <ele>285</ele>
        <time>2018-02-20T10:06:51.000Z</time>
      </trkpt>
      <trkpt lat="43.53119" lon="5.51388">
        <ele>285</ele>
        <time>2018-02-20T10:06:52.000Z</time>
      </trkpt>
      <trkpt lat="43.53119" lon="5.51388">
        <ele>285</ele>
        <time>2018-02-20T10:06:53.000Z</time>
      </trkpt>
      <trkpt lat="43.53119" lon="5.51388">
        <ele>285</ele>
        <time>2018-02-20T10:06:54.000Z</time>
      </trkpt>
      <trkpt lat="43.53119" lon="5.51388">
        <ele>285</ele>
        <time>2018-02-20T10:06:55.000Z</time>
      </trkpt>
      <trkpt lat="43.53119" lon="5.51388">
        <ele>285</ele>
        <time>2018-02-20T10:06:56.000Z</time>
      </trkpt>
      <trkpt lat="43.53119" lon="5.51388">
        <ele>285</ele>
        <time>2018-02-20T10:06:57.000Z</time>
      </trkpt>
      <trkpt lat="43.53119" lon="5.51388">
        <ele>285</ele>
        <time>2018-02-20T10:06:58.000Z</time>
      </trkpt>
      <trkpt lat="43.53119" lon="5.51388">
        <ele>285</ele>
        <time>2018-02-20T10:06:59.000Z</time>
      </trkpt>
      <trkpt lat="43.53119" lon="5.51388">
        <ele>285</ele>
        <time>2018-02-20T10:07:00.000Z</time>
      </trkpt>
      <trkpt lat="43.53119" lon="5.51388">
        <ele>285</ele>
        <time>2018-02-20T10:07:01.000Z</time>
      </trkpt>
      <trkpt lat="43.53119" lon="5.51388">
        <ele>285</ele>
        <time>2018-02-20T10:07:02.000Z</time>
      </trkpt>
      <trkpt lat="43.53119" lon="5.51388">
        <ele>285</ele>
        <time>2018-02-20T10:07:03.000Z</time>
      </trkpt>
      <trkpt lat="43.53119" lon="5.51388">
        <ele>285</ele>
        <time>2018-02-20T10:07:04.000Z</time>
      </trkpt>
      <trkpt lat="43.53119" lon="5.51388">
        <ele>285</ele>
        <time>2018-02-20T10:07:05.000Z</time>
      </trkpt>
      <trkpt lat="43.53119" lon="5.51388">
        <ele>285</ele>
        <time>2018-02-20T10:07:06.000Z</time>
      </trkpt>
      <trkpt lat="43.53119" lon="5.51388">
        <ele>285</ele>
        <time>2018-02-20T10:07:07.000Z</time>
      </trkpt>
      <trkpt lat="43.53119" lon="5.51388">
        <ele>285</ele>
        <time>2018-02-20T10:07:08.000Z</time>
      </trkpt>
      <trkpt lat="43.53119" lon="5.51388">
        <ele>285</ele>
        <time>2018-02-20T10:07:09.000Z</time>
      </trkpt>
      <trkpt lat="43.53119" lon="5.51388">
        <ele>285</ele>
        <time>2018-02-20T10:07:10.000Z</time>
      </trkpt>
      <trkpt lat="43.53119" lon="5.51388">
        <ele>285</ele>
        <time>2018-02-20T10:07:11.000Z</time>
      </trkpt>
      <trkpt lat="43.53119" lon="5.51388">
        <ele>285</ele>
        <time>2018-02-20T10:07:12.000Z</time>
      </trkpt>
      <trkpt lat="43.53119" lon="5.51388">
        <ele>285</ele>
        <time>2018-02-20T10:07:13.000Z</time>
      </trkpt>
      <trkpt lat="43.53119" lon="5.51388">
        <ele>285</ele>
        <time>2018-02-20T10:07:14.000Z</time>
      </trkpt>
      <trkpt lat="43.53119" lon="5.51388">
        <ele>285</ele>
        <time>2018-02-20T10:07:15.000Z</time>
      </trkpt>
      <trkpt lat="43.53119" lon="5.51388">
        <ele>285</ele>
        <time>2018-02-20T10:07:16.000Z</time>
      </trkpt>
      <trkpt lat="43.53119" lon="5.51388">
        <ele>285</ele>
        <time>2018-02-20T10:07:17.000Z</time>
      </trkpt>
      <trkpt lat="43.53119" lon="5.51388">
        <ele>285</ele>
        <time>2018-02-20T10:07:18.000Z</time>
      </trkpt>
      <trkpt lat="43.53119" lon="5.51388">
        <ele>285</ele>
        <time>2018-02-20T10:07:19.000Z</time>
      </trkpt>
      <trkpt lat="43.53119" lon="5.51389">
        <ele>285</ele>
        <time>2018-02-20T10:07:20.000Z</time>
      </trkpt>
      <trkpt lat="43.53118" lon="5.51389">
        <ele>285</ele>
        <time>2018-02-20T10:07:21.000Z</time>
      </trkpt>
      <trkpt lat="43.53118" lon="5.51389">
        <ele>285</ele>
        <time>2018-02-20T10:07:22.000Z</time>
      </trkpt>
      <trkpt lat="43.53117" lon="5.51389">
        <ele>285</ele>
        <time>2018-02-20T10:07:23.000Z</time>
      </trkpt>
      <trkpt lat="43.53116" lon="5.51389">
        <ele>285</ele>
        <time>2018-02-20T10:07:24.000Z</time>
      </trkpt>
      <trkpt lat="43.53115" lon="5.51389">
        <ele>285</ele>
        <time>2018-02-20T10:07:25.000Z</time>
      </trkpt>
      <trkpt lat="43.53114" lon="5.51388">
        <ele>285</ele>
        <time>2018-02-20T10:07:26.000Z</time>
      </trkpt>
      <trkpt lat="43.53114" lon="5.51387">
        <ele>285</ele>
        <time>2018-02-20T10:07:27.000Z</time>
      </trkpt>
      <trkpt lat="43.53113" lon="5.51387">
        <ele>285</ele>
        <time>2018-02-20T10:07:28.000Z</time>
      </trkpt>
      <trkpt lat="43.53112" lon="5.51387">
        <ele>285</ele>
        <time>2018-02-20T10:07:29.000Z</time>
      </trkpt>
      <trkpt lat="43.53111" lon="5.51386">
        <ele>286</ele>
        <time>2018-02-20T10:07:30.000Z</time>
      </trkpt>
      <trkpt lat="43.5311" lon="5.51385">
        <ele>286</ele>
        <time>2018-02-20T10:07:31.000Z</time>
      </trkpt>
      <trkpt lat="43.53109" lon="5.51384">
        <ele>286</ele>
        <time>2018-02-20T10:07:32.000Z</time>
      </trkpt>
      <trkpt lat="43.53109" lon="5.51383">
        <ele>286</ele>
        <time>2018-02-20T10:07:33.000Z</time>
      </trkpt>
      <trkpt lat="43.53108" lon="5.51382">
        <ele>286</ele>
        <time>2018-02-20T10:07:34.000Z</time>
      </trkpt>
      <trkpt lat="43.53108" lon="5.51382">
        <ele>286</ele>
        <time>2018-02-20T10:07:35.000Z</time>
      </trkpt>
      <trkpt lat="43.53108" lon="5.51382">
        <ele>286</ele>
        <time>2018-02-20T10:07:36.000Z</time>
      </trkpt>
      <trkpt lat="43.53108" lon="5.51383">
        <ele>286</ele>
        <time>2018-02-20T10:07:37.000Z</time>
      </trkpt>
      <trkpt lat="43.53108" lon="5.51384">
        <ele>286</ele>
        <time>2018-02-20T10:07:38.000Z</time>
      </trkpt>
      <trkpt lat="43.53108" lon="5.51384">
        <ele>286</ele>
        <time>2018-02-20T10:07:39.000Z</time>
      </trkpt>
      <trkpt lat="43.53108" lon="5.51384">
        <ele>286</ele>
        <time>2018-02-20T10:07:40.000Z</time>
      </trkpt>
      <trkpt lat="43.53108" lon="5.51384">
        <ele>286</ele>
        <time>2018-02-20T10:07:41.000Z</time>
      </trkpt>
      <trkpt lat="43.53108" lon="5.51384">
        <ele>286</ele>
        <time>2018-02-20T10:07:42.000Z</time>
      </trkpt>
      <trkpt lat="43.53108" lon="5.51384">
        <ele>286</ele>
        <time>2018-02-20T10:07:43.000Z</time>
      </trkpt>
      <trkpt lat="43.53108" lon="5.51384">
        <ele>286</ele>
        <time>2018-02-20T10:07:44.000Z</time>
      </trkpt>
      <trkpt lat="43.53108" lon="5.51384">
        <ele>286</ele>
        <time>2018-02-20T10:07:45.000Z</time>
      </trkpt>
      <trkpt lat="43.53108" lon="5.51384">
        <ele>286</ele>
        <time>2018-02-20T10:07:46.000Z</time>
      </trkpt>
      <trkpt lat="43.53108" lon="5.51384">
        <ele>286</ele>
        <time>2018-02-20T10:07:47.000Z</time>
      </trkpt>
      <trkpt lat="43.53108" lon="5.51384">
        <ele>286</ele>
        <time>2018-02-20T10:07:48.000Z</time>
      </trkpt>
      <trkpt lat="43.53108" lon="5.51384">
        <ele>286</ele>
        <time>2018-02-20T10:07:49.000Z</time>
      </trkpt>
      <trkpt lat="43.53108" lon="5.51384">
        <ele>286</ele>
        <time>2018-02-20T10:07:50.000Z</time>
      </trkpt>
      <trkpt lat="43.53108" lon="5.51384">
        <ele>286</ele>
        <time>2018-02-20T10:07:51.000Z</time>
      </trkpt>
      <trkpt lat="43.53108" lon="5.51384">
        <ele>286</ele>
        <time>2018-02-20T10:07:52.000Z</time>
      </trkpt>
      <trkpt lat="43.53108" lon="5.51384">
        <ele>285</ele>
        <time>2018-02-20T10:07:53.000Z</time>
      </trkpt>
      <trkpt lat="43.53108" lon="5.51384">
        <ele>286</ele>
        <time>2018-02-20T10:07:54.000Z</time>
      </trkpt>
      <trkpt lat="43.53108" lon="5.51384">
        <ele>285</ele>
        <time>2018-02-20T10:07:55.000Z</time>
      </trkpt>
      <trkpt lat="43.53108" lon="5.51384">
        <ele>286</ele>
        <time>2018-02-20T10:07:56.000Z</time>
      </trkpt>
      <trkpt lat="43.53108" lon="5.51385">
        <ele>286</ele>
        <time>2018-02-20T10:07:57.000Z</time>
      </trkpt>
      <trkpt lat="43.53108" lon="5.51384">
        <ele>286</ele>
        <time>2018-02-20T10:07:58.000Z</time>
      </trkpt>
      <trkpt lat="43.53108" lon="5.51384">
        <ele>286</ele>
        <time>2018-02-20T10:07:59.000Z</time>
      </trkpt>
      <trkpt lat="43.53107" lon="5.51384">
        <ele>286</ele>
        <time>2018-02-20T10:08:00.000Z</time>
      </trkpt>
      <trkpt lat="43.53107" lon="5.51384">
        <ele>286</ele>
        <time>2018-02-20T10:08:01.000Z</time>
      </trkpt>
      <trkpt lat="43.53107" lon="5.51383">
        <ele>286</ele>
        <time>2018-02-20T10:08:02.000Z</time>
      </trkpt>
      <trkpt lat="43.53106" lon="5.51382">
        <ele>286</ele>
        <time>2018-02-20T10:08:03.000Z</time>
      </trkpt>
      <trkpt lat="43.53105" lon="5.51381">
        <ele>286</ele>
        <time>2018-02-20T10:08:04.000Z</time>
      </trkpt>
      <trkpt lat="43.53105" lon="5.5138">
        <ele>286</ele>
        <time>2018-02-20T10:08:05.000Z</time>
      </trkpt>
      <trkpt lat="43.53104" lon="5.51379">
        <ele>286</ele>
        <time>2018-02-20T10:08:06.000Z</time>
      </trkpt>
      <trkpt lat="43.53103" lon="5.51379">
        <ele>286</ele>
        <time>2018-02-20T10:08:07.000Z</time>
      </trkpt>
      <trkpt lat="43.53102" lon="5.51378">
        <ele>286</ele>
        <time>2018-02-20T10:08:08.000Z</time>
      </trkpt>
      <trkpt lat="43.53101" lon="5.51377">
        <ele>286</ele>
        <time>2018-02-20T10:08:09.000Z</time>
      </trkpt>
      <trkpt lat="43.53101" lon="5.51377">
        <ele>286</ele>
        <time>2018-02-20T10:08:10.000Z</time>
      </trkpt>
      <trkpt lat="43.531" lon="5.51376">
        <ele>286</ele>
        <time>2018-02-20T10:08:11.000Z</time>
      </trkpt>
      <trkpt lat="43.53099" lon="5.51375">
        <ele>286</ele>
        <time>2018-02-20T10:08:12.000Z</time>
      </trkpt>
      <trkpt lat="43.53098" lon="5.51375">
        <ele>286</ele>
        <time>2018-02-20T10:08:13.000Z</time>
      </trkpt>
      <trkpt lat="43.53097" lon="5.51374">
        <ele>286</ele>
        <time>2018-02-20T10:08:14.000Z</time>
      </trkpt>
      <trkpt lat="43.53096" lon="5.51373">
        <ele>286</ele>
        <time>2018-02-20T10:08:15.000Z</time>
      </trkpt>
      <trkpt lat="43.53095" lon="5.51373">
        <ele>286</ele>
        <time>2018-02-20T10:08:16.000Z</time>
      </trkpt>
      <trkpt lat="43.53094" lon="5.51372">
        <ele>286</ele>
        <time>2018-02-20T10:08:17.000Z</time>
      </trkpt>
      <trkpt lat="43.53093" lon="5.51372">
        <ele>286</ele>
        <time>2018-02-20T10:08:18.000Z</time>
      </trkpt>
      <trkpt lat="43.53092" lon="5.51373">
        <ele>286</ele>
        <time>2018-02-20T10:08:19.000Z</time>
      </trkpt>
      <trkpt lat="43.53091" lon="5.51373">
        <ele>286</ele>
        <time>2018-02-20T10:08:20.000Z</time>
      </trkpt>
      <trkpt lat="43.5309" lon="5.51373">
        <ele>286</ele>
        <time>2018-02-20T10:08:21.000Z</time>
      </trkpt>
      <trkpt lat="43.53089" lon="5.51374">
        <ele>286</ele>
        <time>2018-02-20T10:08:22.000Z</time>
      </trkpt>
      <trkpt lat="43.53088" lon="5.51374">
        <ele>286</ele>
        <time>2018-02-20T10:08:23.000Z</time>
      </trkpt>
      <trkpt lat="43.53088" lon="5.51373">
        <ele>286</ele>
        <time>2018-02-20T10:08:24.000Z</time>
      </trkpt>
      <trkpt lat="43.53087" lon="5.51373">
        <ele>286</ele>
        <time>2018-02-20T10:08:25.000Z</time>
      </trkpt>
      <trkpt lat="43.53087" lon="5.51372">
        <ele>286</ele>
        <time>2018-02-20T10:08:26.000Z</time>
      </trkpt>
      <trkpt lat="43.53087" lon="5.51372">
        <ele>286</ele>
        <time>2018-02-20T10:08:27.000Z</time>
      </trkpt>
      <trkpt lat="43.53087" lon="5.51372">
        <ele>286</ele>
        <time>2018-02-20T10:08:28.000Z</time>
      </trkpt>
      <trkpt lat="43.53087" lon="5.51372">
        <ele>286</ele>
        <time>2018-02-20T10:08:29.000Z</time>
      </trkpt>
      <trkpt lat="43.53087" lon="5.51372">
        <ele>286</ele>
        <time>2018-02-20T10:08:30.000Z</time>
      </trkpt>
      <trkpt lat="43.53087" lon="5.51372">
        <ele>286</ele>
        <time>2018-02-20T10:08:31.000Z</time>
      </trkpt>
      <trkpt lat="43.53087" lon="5.51372">
        <ele>286</ele>
        <time>2018-02-20T10:08:32.000Z</time>
      </trkpt>
      <trkpt lat="43.53087" lon="5.51372">
        <ele>286</ele>
        <time>2018-02-20T10:08:33.000Z</time>
      </trkpt>
      <trkpt lat="43.53087" lon="5.51372">
        <ele>286</ele>
        <time>2018-02-20T10:08:34.000Z</time>
      </trkpt>
      <trkpt lat="43.53087" lon="5.51372">
        <ele>286</ele>
        <time>2018-02-20T10:08:35.000Z</time>
      </trkpt>
      <trkpt lat="43.53087" lon="5.51372">
        <ele>286</ele>
        <time>2018-02-20T10:08:36.000Z</time>
      </trkpt>
      <trkpt lat="43.53087" lon="5.51372">
        <ele>286</ele>
        <time>2018-02-20T10:08:37.000Z</time>
      </trkpt>
      <trkpt lat="43.53087" lon="5.51372">
        <ele>286</ele>
        <time>2018-02-20T10:08:38.000Z</time>
      </trkpt>
      <trkpt lat="43.53087" lon="5.51372">
        <ele>286</ele>
        <time>2018-02-20T10:08:39.000Z</time>
      </trkpt>
      <trkpt lat="43.53087" lon="5.51372">
        <ele>286</ele>
        <time>2018-02-20T10:08:40.000Z</time>
      </trkpt>
      <trkpt lat="43.53087" lon="5.51372">
        <ele>286</ele>
        <time>2018-02-20T10:08:41.000Z</time>
      </trkpt>
      <trkpt lat="43.53087" lon="5.51372">
        <ele>286</ele>
        <time>2018-02-20T10:08:42.000Z</time>
      </trkpt>
      <trkpt lat="43.53087" lon="5.51372">
        <ele>286</ele>
        <time>2018-02-20T10:08:43.000Z</time>
      </trkpt>
      <trkpt lat="43.53087" lon="5.51372">
        <ele>286</ele>
        <time>2018-02-20T10:08:44.000Z</time>
      </trkpt>
      <trkpt lat="43.53086" lon="5.51373">
        <ele>286</ele>
        <time>2018-02-20T10:08:45.000Z</time>
      </trkpt>
      <trkpt lat="43.53086" lon="5.51372">
        <ele>286</ele>
        <time>2018-02-20T10:08:46.000Z</time>
      </trkpt>
      <trkpt lat="43.53086" lon="5.51372">
        <ele>286</ele>
        <time>2018-02-20T10:08:47.000Z</time>
      </trkpt>
      <trkpt lat="43.53086" lon="5.51372">
        <ele>286</ele>
        <time>2018-02-20T10:08:48.000Z</time>
      </trkpt>
      <trkpt lat="43.53086" lon="5.51372">
        <ele>286</ele>
        <time>2018-02-20T10:08:49.000Z</time>
      </trkpt>
      <trkpt lat="43.53086" lon="5.51372">
        <ele>286</ele>
        <time>2018-02-20T10:08:50.000Z</time>
      </trkpt>
      <trkpt lat="43.53086" lon="5.51372">
        <ele>286</ele>
        <time>2018-02-20T10:08:51.000Z</time>
      </trkpt>
      <trkpt lat="43.53086" lon="5.51372">
        <ele>286</ele>
        <time>2018-02-20T10:08:52.000Z</time>
      </trkpt>
      <trkpt lat="43.53086" lon="5.51372">
        <ele>286</ele>
        <time>2018-02-20T10:08:53.000Z</time>
      </trkpt>
      <trkpt lat="43.53086" lon="5.51372">
        <ele>286</ele>
        <time>2018-02-20T10:08:54.000Z</time>
      </trkpt>
      <trkpt lat="43.53085" lon="5.51373">
        <ele>286</ele>
        <time>2018-02-20T10:08:55.000Z</time>
      </trkpt>
      <trkpt lat="43.53084" lon="5.51373">
        <ele>286</ele>
        <time>2018-02-20T10:08:56.000Z</time>
      </trkpt>
      <trkpt lat="43.53083" lon="5.51373">
        <ele>286</ele>
        <time>2018-02-20T10:08:57.000Z</time>
      </trkpt>
      <trkpt lat="43.53082" lon="5.51374">
        <ele>286</ele>
        <time>2018-02-20T10:08:58.000Z</time>
      </trkpt>
      <trkpt lat="43.53081" lon="5.51375">
        <ele>286</ele>
        <time>2018-02-20T10:08:59.000Z</time>
      </trkpt>
      <trkpt lat="43.5308" lon="5.51375">
        <ele>286</ele>
        <time>2018-02-20T10:09:00.000Z</time>
      </trkpt>
      <trkpt lat="43.53079" lon="5.51375">
        <ele>286</ele>
        <time>2018-02-20T10:09:01.000Z</time>
      </trkpt>
      <trkpt lat="43.53078" lon="5.51374">
        <ele>286</ele>
        <time>2018-02-20T10:09:02.000Z</time>
      </trkpt>
      <trkpt lat="43.53077" lon="5.51374">
        <ele>286</ele>
        <time>2018-02-20T10:09:03.000Z</time>
      </trkpt>
      <trkpt lat="43.53076" lon="5.51374">
        <ele>286</ele>
        <time>2018-02-20T10:09:04.000Z</time>
      </trkpt>
      <trkpt lat="43.53075" lon="5.51373">
        <ele>286</ele>
        <time>2018-02-20T10:09:05.000Z</time>
      </trkpt>
      <trkpt lat="43.53074" lon="5.51373">
        <ele>286</ele>
        <time>2018-02-20T10:09:06.000Z</time>
      </trkpt>
      <trkpt lat="43.53073" lon="5.51374">
        <ele>286</ele>
        <time>2018-02-20T10:09:07.000Z</time>
      </trkpt>
      <trkpt lat="43.53072" lon="5.51374">
        <ele>286</ele>
        <time>2018-02-20T10:09:08.000Z</time>
      </trkpt>
      <trkpt lat="43.53071" lon="5.51375">
        <ele>285</ele>
        <time>2018-02-20T10:09:09.000Z</time>
      </trkpt>
      <trkpt lat="43.5307" lon="5.51375">
        <ele>285</ele>
        <time>2018-02-20T10:09:10.000Z</time>
      </trkpt>
      <trkpt lat="43.53068" lon="5.51375">
        <ele>285</ele>
        <time>2018-02-20T10:09:11.000Z</time>
      </trkpt>
      <trkpt lat="43.53067" lon="5.51375">
        <ele>285</ele>
        <time>2018-02-20T10:09:12.000Z</time>
      </trkpt>
      <trkpt lat="43.53066" lon="5.51375">
        <ele>285</ele>
        <time>2018-02-20T10:09:13.000Z</time>
      </trkpt>
      <trkpt lat="43.53065" lon="5.51375">
        <ele>285</ele>
        <time>2018-02-20T10:09:14.000Z</time>
      </trkpt>
      <trkpt lat="43.53063" lon="5.51374">
        <ele>285</ele>
        <time>2018-02-20T10:09:15.000Z</time>
      </trkpt>
      <trkpt lat="43.53062" lon="5.51374">
        <ele>285</ele>
        <time>2018-02-20T10:09:16.000Z</time>
      </trkpt>
      <trkpt lat="43.5306" lon="5.51374">
        <ele>284</ele>
        <time>2018-02-20T10:09:17.000Z</time>
      </trkpt>
      <trkpt lat="43.53059" lon="5.51374">
        <ele>284</ele>
        <time>2018-02-20T10:09:18.000Z</time>
      </trkpt>
      <trkpt lat="43.53058" lon="5.51374">
        <ele>284</ele>
        <time>2018-02-20T10:09:19.000Z</time>
      </trkpt>
      <trkpt lat="43.53056" lon="5.51374">
        <ele>284</ele>
        <time>2018-02-20T10:09:20.000Z</time>
      </trkpt>
      <trkpt lat="43.53055" lon="5.51375">
        <ele>284</ele>
        <time>2018-02-20T10:09:21.000Z</time>
      </trkpt>
      <trkpt lat="43.53054" lon="5.51375">
        <ele>284</ele>
        <time>2018-02-20T10:09:22.000Z</time>
      </trkpt>
      <trkpt lat="43.53052" lon="5.51376">
        <ele>284</ele>
        <time>2018-02-20T10:09:23.000Z</time>
      </trkpt>
      <trkpt lat="43.53051" lon="5.51376">
        <ele>284</ele>
        <time>2018-02-20T10:09:24.000Z</time>
      </trkpt>
      <trkpt lat="43.53049" lon="5.51376">
        <ele>283</ele>
        <time>2018-02-20T10:09:25.000Z</time>
      </trkpt>
      <trkpt lat="43.53048" lon="5.51376">
        <ele>283</ele>
        <time>2018-02-20T10:09:26.000Z</time>
      </trkpt>
      <trkpt lat="43.53047" lon="5.51376">
        <ele>283</ele>
        <time>2018-02-20T10:09:27.000Z</time>
      </trkpt>
      <trkpt lat="43.53045" lon="5.51375">
        <ele>283</ele>
        <time>2018-02-20T10:09:28.000Z</time>
      </trkpt>
      <trkpt lat="43.53044" lon="5.51375">
        <ele>283</ele>
        <time>2018-02-20T10:09:29.000Z</time>
      </trkpt>
      <trkpt lat="43.53042" lon="5.51375">
        <ele>283</ele>
        <time>2018-02-20T10:09:30.000Z</time>
      </trkpt>
      <trkpt lat="43.53041" lon="5.51375">
        <ele>283</ele>
        <time>2018-02-20T10:09:31.000Z</time>
      </trkpt>
      <trkpt lat="43.53039" lon="5.51375">
        <ele>283</ele>
        <time>2018-02-20T10:09:32.000Z</time>
      </trkpt>
      <trkpt lat="43.53038" lon="5.51375">
        <ele>282</ele>
        <time>2018-02-20T10:09:33.000Z</time>
      </trkpt>
      <trkpt lat="43.53037" lon="5.51374">
        <ele>282</ele>
        <time>2018-02-20T10:09:34.000Z</time>
      </trkpt>
      <trkpt lat="43.53035" lon="5.51374">
        <ele>282</ele>
        <time>2018-02-20T10:09:35.000Z</time>
      </trkpt>
      <trkpt lat="43.53034" lon="5.51374">
        <ele>282</ele>
        <time>2018-02-20T10:09:36.000Z</time>
      </trkpt>
      <trkpt lat="43.53032" lon="5.51373">
        <ele>282</ele>
        <time>2018-02-20T10:09:37.000Z</time>
      </trkpt>
      <trkpt lat="43.53031" lon="5.51373">
        <ele>281</ele>
        <time>2018-02-20T10:09:38.000Z</time>
      </trkpt>
      <trkpt lat="43.5303" lon="5.51373">
        <ele>281</ele>
        <time>2018-02-20T10:09:39.000Z</time>
      </trkpt>
      <trkpt lat="43.53029" lon="5.51373">
        <ele>281</ele>
        <time>2018-02-20T10:09:40.000Z</time>
      </trkpt>
      <trkpt lat="43.53028" lon="5.51373">
        <ele>281</ele>
        <time>2018-02-20T10:09:41.000Z</time>
      </trkpt>
      <trkpt lat="43.53026" lon="5.51373">
        <ele>281</ele>
        <time>2018-02-20T10:09:42.000Z</time>
      </trkpt>
      <trkpt lat="43.53025" lon="5.51373">
        <ele>281</ele>
        <time>2018-02-20T10:09:43.000Z</time>
      </trkpt>
      <trkpt lat="43.53024" lon="5.51373">
        <ele>280</ele>
        <time>2018-02-20T10:09:44.000Z</time>
      </trkpt>
      <trkpt lat="43.53023" lon="5.51373">
        <ele>280</ele>
        <time>2018-02-20T10:09:45.000Z</time>
      </trkpt>
      <trkpt lat="43.53021" lon="5.51373">
        <ele>280</ele>
        <time>2018-02-20T10:09:46.000Z</time>
      </trkpt>
      <trkpt lat="43.5302" lon="5.51373">
        <ele>280</ele>
        <time>2018-02-20T10:09:47.000Z</time>
      </trkpt>
      <trkpt lat="43.53019" lon="5.51374">
        <ele>280</ele>
        <time>2018-02-20T10:09:48.000Z</time>
      </trkpt>
      <trkpt lat="43.53017" lon="5.51374">
        <ele>280</ele>
        <time>2018-02-20T10:09:49.000Z</time>
      </trkpt>
      <trkpt lat="43.53016" lon="5.51375">
        <ele>280</ele>
        <time>2018-02-20T10:09:50.000Z</time>
      </trkpt>
      <trkpt lat="43.53015" lon="5.51375">
        <ele>280</ele>
        <time>2018-02-20T10:09:51.000Z</time>
      </trkpt>
      <trkpt lat="43.53013" lon="5.51376">
        <ele>280</ele>
        <time>2018-02-20T10:09:52.000Z</time>
      </trkpt>
      <trkpt lat="43.53012" lon="5.51377">
        <ele>280</ele>
        <time>2018-02-20T10:09:53.000Z</time>
      </trkpt>
      <trkpt lat="43.53011" lon="5.51378">
        <ele>280</ele>
        <time>2018-02-20T10:09:54.000Z</time>
      </trkpt>
      <trkpt lat="43.5301" lon="5.51379">
        <ele>280</ele>
        <time>2018-02-20T10:09:55.000Z</time>
      </trkpt>
      <trkpt lat="43.53009" lon="5.5138">
        <ele>280</ele>
        <time>2018-02-20T10:09:56.000Z</time>
      </trkpt>
      <trkpt lat="43.53009" lon="5.51382">
        <ele>280</ele>
        <time>2018-02-20T10:09:57.000Z</time>
      </trkpt>
      <trkpt lat="43.53008" lon="5.51383">
        <ele>280</ele>
        <time>2018-02-20T10:09:58.000Z</time>
      </trkpt>
      <trkpt lat="43.53007" lon="5.51384">
        <ele>280</ele>
        <time>2018-02-20T10:09:59.000Z</time>
      </trkpt>
      <trkpt lat="43.53006" lon="5.51386">
        <ele>279</ele>
        <time>2018-02-20T10:10:00.000Z</time>
      </trkpt>
      <trkpt lat="43.53005" lon="5.51387">
        <ele>279</ele>
        <time>2018-02-20T10:10:01.000Z</time>
      </trkpt>
      <trkpt lat="43.53003" lon="5.51388">
        <ele>279</ele>
        <time>2018-02-20T10:10:02.000Z</time>
      </trkpt>
      <trkpt lat="43.53002" lon="5.51389">
        <ele>279</ele>
        <time>2018-02-20T10:10:03.000Z</time>
      </trkpt>
      <trkpt lat="43.53001" lon="5.5139">
        <ele>278</ele>
        <time>2018-02-20T10:10:04.000Z</time>
      </trkpt>
      <trkpt lat="43.53" lon="5.51391">
        <ele>278</ele>
        <time>2018-02-20T10:10:05.000Z</time>
      </trkpt>
      <trkpt lat="43.52999" lon="5.51392">
        <ele>278</ele>
        <time>2018-02-20T10:10:06.000Z</time>
      </trkpt>
      <trkpt lat="43.52998" lon="5.51392">
        <ele>277</ele>
        <time>2018-02-20T10:10:07.000Z</time>
      </trkpt>
      <trkpt lat="43.52996" lon="5.51393">
        <ele>277</ele>
        <time>2018-02-20T10:10:08.000Z</time>
      </trkpt>
      <trkpt lat="43.52995" lon="5.51394">
        <ele>277</ele>
        <time>2018-02-20T10:10:09.000Z</time>
      </trkpt>
      <trkpt lat="43.52993" lon="5.51394">
        <ele>277</ele>
        <time>2018-02-20T10:10:10.000Z</time>
      </trkpt>
      <trkpt lat="43.52992" lon="5.51395">
        <ele>277</ele>
        <time>2018-02-20T10:10:11.000Z</time>
      </trkpt>
      <trkpt lat="43.5299" lon="5.51395">
        <ele>277</ele>
        <time>2018-02-20T10:10:12.000Z</time>
      </trkpt>
      <trkpt lat="43.52988" lon="5.51396">
        <ele>276</ele>
        <time>2018-02-20T10:10:13.000Z</time>
      </trkpt>
      <trkpt lat="43.52987" lon="5.51396">
        <ele>276</ele>
        <time>2018-02-20T10:10:14.000Z</time>
      </trkpt>
      <trkpt lat="43.52985" lon="5.51397">
        <ele>276</ele>
        <time>2018-02-20T10:10:15.000Z</time>
      </trkpt>
      <trkpt lat="43.52983" lon="5.51397">
        <ele>276</ele>
        <time>2018-02-20T10:10:16.000Z</time>
      </trkpt>
      <trkpt lat="43.52982" lon="5.51398">
        <ele>276</ele>
        <time>2018-02-20T10:10:17.000Z</time>
      </trkpt>
      <trkpt lat="43.52981" lon="5.51398">
        <ele>275</ele>
        <time>2018-02-20T10:10:18.000Z</time>
      </trkpt>
      <trkpt lat="43.52979" lon="5.51398">
        <ele>275</ele>
        <time>2018-02-20T10:10:19.000Z</time>
      </trkpt>
      <trkpt lat="43.52978" lon="5.51399">
        <ele>275</ele>
        <time>2018-02-20T10:10:20.000Z</time>
      </trkpt>
      <trkpt lat="43.52976" lon="5.51399">
        <ele>275</ele>
        <time>2018-02-20T10:10:21.000Z</time>
      </trkpt>
      <trkpt lat="43.52975" lon="5.514">
        <ele>275</ele>
        <time>2018-02-20T10:10:22.000Z</time>
      </trkpt>
      <trkpt lat="43.52974" lon="5.51402">
        <ele>275</ele>
        <time>2018-02-20T10:10:23.000Z</time>
      </trkpt>
      <trkpt lat="43.52974" lon="5.51403">
        <ele>275</ele>
        <time>2018-02-20T10:10:24.000Z</time>
      </trkpt>
      <trkpt lat="43.52974" lon="5.51404">
        <ele>274</ele>
        <time>2018-02-20T10:10:25.000Z</time>
      </trkpt>
      <trkpt lat="43.52973" lon="5.51405">
        <ele>274</ele>
        <time>2018-02-20T10:10:26.000Z</time>
      </trkpt>
      <trkpt lat="43.52973" lon="5.51406">
        <ele>274</ele>
        <time>2018-02-20T10:10:27.000Z</time>
      </trkpt>
      <trkpt lat="43.52973" lon="5.51408">
        <ele>274</ele>
        <time>2018-02-20T10:10:28.000Z</time>
      </trkpt>
      <trkpt lat="43.52973" lon="5.51409">
        <ele>273</ele>
        <time>2018-02-20T10:10:29.000Z</time>
      </trkpt>
      <trkpt lat="43.52973" lon="5.5141">
        <ele>273</ele>
        <time>2018-02-20T10:10:30.000Z</time>
      </trkpt>
      <trkpt lat="43.52973" lon="5.51412">
        <ele>273</ele>
        <time>2018-02-20T10:10:31.000Z</time>
      </trkpt>
      <trkpt lat="43.52973" lon="5.51413">
        <ele>272</ele>
        <time>2018-02-20T10:10:32.000Z</time>
      </trkpt>
      <trkpt lat="43.52973" lon="5.51414">
        <ele>272</ele>
        <time>2018-02-20T10:10:33.000Z</time>
      </trkpt>
      <trkpt lat="43.52973" lon="5.51416">
        <ele>272</ele>
        <time>2018-02-20T10:10:34.000Z</time>
      </trkpt>
      <trkpt lat="43.52973" lon="5.51417">
        <ele>271</ele>
        <time>2018-02-20T10:10:35.000Z</time>
      </trkpt>
      <trkpt lat="43.52973" lon="5.51419">
        <ele>271</ele>
        <time>2018-02-20T10:10:36.000Z</time>
      </trkpt>
      <trkpt lat="43.52972" lon="5.5142">
        <ele>270</ele>
        <time>2018-02-20T10:10:37.000Z</time>
      </trkpt>
      <trkpt lat="43.52972" lon="5.51422">
        <ele>270</ele>
        <time>2018-02-20T10:10:38.000Z</time>
      </trkpt>
      <trkpt lat="43.52971" lon="5.51423">
        <ele>270</ele>
        <time>2018-02-20T10:10:39.000Z</time>
      </trkpt>
      <trkpt lat="43.5297" lon="5.51425">
        <ele>270</ele>
        <time>2018-02-20T10:10:40.000Z</time>
      </trkpt>
      <trkpt lat="43.52969" lon="5.51426">
        <ele>269</ele>
        <time>2018-02-20T10:10:41.000Z</time>
      </trkpt>
      <trkpt lat="43.52968" lon="5.51428">
        <ele>269</ele>
        <time>2018-02-20T10:10:42.000Z</time>
      </trkpt>
      <trkpt lat="43.52967" lon="5.51429">
        <ele>269</ele>
        <time>2018-02-20T10:10:43.000Z</time>
      </trkpt>
      <trkpt lat="43.52966" lon="5.51431">
        <ele>269</ele>
        <time>2018-02-20T10:10:44.000Z</time>
      </trkpt>
      <trkpt lat="43.52966" lon="5.51432">
        <ele>268</ele>
        <time>2018-02-20T10:10:45.000Z</time>
      </trkpt>
      <trkpt lat="43.52964" lon="5.51434">
        <ele>268</ele>
        <time>2018-02-20T10:10:46.000Z</time>
      </trkpt>
      <trkpt lat="43.52963" lon="5.51435">
        <ele>268</ele>
        <time>2018-02-20T10:10:47.000Z</time>
      </trkpt>
      <trkpt lat="43.52963" lon="5.51435">
        <ele>267</ele>
        <time>2018-02-20T10:10:48.000Z</time>
      </trkpt>
      <trkpt lat="43.52963" lon="5.51435">
        <ele>267</ele>
        <time>2018-02-20T10:10:49.000Z</time>
      </trkpt>
      <trkpt lat="43.52962" lon="5.51436">
        <ele>267</ele>
        <time>2018-02-20T10:10:50.000Z</time>
      </trkpt>
      <trkpt lat="43.52962" lon="5.51437">
        <ele>267</ele>
        <time>2018-02-20T10:10:51.000Z</time>
      </trkpt>
      <trkpt lat="43.52961" lon="5.51438">
        <ele>267</ele>
        <time>2018-02-20T10:10:52.000Z</time>
      </trkpt>
      <trkpt lat="43.52961" lon="5.5144">
        <ele>266</ele>
        <time>2018-02-20T10:10:53.000Z</time>
      </trkpt>
      <trkpt lat="43.52961" lon="5.51442">
        <ele>266</ele>
        <time>2018-02-20T10:10:54.000Z</time>
      </trkpt>
      <trkpt lat="43.5296" lon="5.51444">
        <ele>266</ele>
        <time>2018-02-20T10:10:55.000Z</time>
      </trkpt>
      <trkpt lat="43.5296" lon="5.51446">
        <ele>266</ele>
        <time>2018-02-20T10:10:56.000Z</time>
      </trkpt>
      <trkpt lat="43.5296" lon="5.51448">
        <ele>265</ele>
        <time>2018-02-20T10:10:57.000Z</time>
      </trkpt>
      <trkpt lat="43.5296" lon="5.5145">
        <ele>265</ele>
        <time>2018-02-20T10:10:58.000Z</time>
      </trkpt>
      <trkpt lat="43.5296" lon="5.51452">
        <ele>265</ele>
        <time>2018-02-20T10:10:59.000Z</time>
      </trkpt>
      <trkpt lat="43.52959" lon="5.51455">
        <ele>265</ele>
        <time>2018-02-20T10:11:00.000Z</time>
      </trkpt>
      <trkpt lat="43.52959" lon="5.51457">
        <ele>265</ele>
        <time>2018-02-20T10:11:01.000Z</time>
      </trkpt>
      <trkpt lat="43.52959" lon="5.51459">
        <ele>264</ele>
        <time>2018-02-20T10:11:02.000Z</time>
      </trkpt>
      <trkpt lat="43.52959" lon="5.51462">
        <ele>264</ele>
        <time>2018-02-20T10:11:03.000Z</time>
      </trkpt>
      <trkpt lat="43.52959" lon="5.51464">
        <ele>264</ele>
        <time>2018-02-20T10:11:04.000Z</time>
      </trkpt>
      <trkpt lat="43.52958" lon="5.51466">
        <ele>264</ele>
        <time>2018-02-20T10:11:05.000Z</time>
      </trkpt>
      <trkpt lat="43.52958" lon="5.51468">
        <ele>264</ele>
        <time>2018-02-20T10:11:06.000Z</time>
      </trkpt>
      <trkpt lat="43.52958" lon="5.5147">
        <ele>264</ele>
        <time>2018-02-20T10:11:07.000Z</time>
      </trkpt>
      <trkpt lat="43.52957" lon="5.51472">
        <ele>264</ele>
        <time>2018-02-20T10:11:08.000Z</time>
      </trkpt>
      <trkpt lat="43.52957" lon="5.51474">
        <ele>264</ele>
        <time>2018-02-20T10:11:09.000Z</time>
      </trkpt>
      <trkpt lat="43.52957" lon="5.51476">
        <ele>264</ele>
        <time>2018-02-20T10:11:10.000Z</time>
      </trkpt>
      <trkpt lat="43.52956" lon="5.51478">
        <ele>264</ele>
        <time>2018-02-20T10:11:11.000Z</time>
      </trkpt>
      <trkpt lat="43.52956" lon="5.5148">
        <ele>263</ele>
        <time>2018-02-20T10:11:12.000Z</time>
      </trkpt>
      <trkpt lat="43.52955" lon="5.51482">
        <ele>263</ele>
        <time>2018-02-20T10:11:13.000Z</time>
      </trkpt>
      <trkpt lat="43.52955" lon="5.51484">
        <ele>263</ele>
        <time>2018-02-20T10:11:14.000Z</time>
      </trkpt>
      <trkpt lat="43.52955" lon="5.51486">
        <ele>263</ele>
        <time>2018-02-20T10:11:15.000Z</time>
      </trkpt>
      <trkpt lat="43.52954" lon="5.51488">
        <ele>263</ele>
        <time>2018-02-20T10:11:16.000Z</time>
      </trkpt>
      <trkpt lat="43.52954" lon="5.51489">
        <ele>263</ele>
        <time>2018-02-20T10:11:17.000Z</time>
      </trkpt>
      <trkpt lat="43.52954" lon="5.51491">
        <ele>263</ele>
        <time>2018-02-20T10:11:18.000Z</time>
      </trkpt>
      <trkpt lat="43.52954" lon="5.51493">
        <ele>262</ele>
        <time>2018-02-20T10:11:19.000Z</time>
      </trkpt>
      <trkpt lat="43.52954" lon="5.51495">
        <ele>262</ele>
        <time>2018-02-20T10:11:20.000Z</time>
      </trkpt>
      <trkpt lat="43.52954" lon="5.51496">
        <ele>262</ele>
        <time>2018-02-20T10:11:21.000Z</time>
      </trkpt>
      <trkpt lat="43.52954" lon="5.51498">
        <ele>262</ele>
        <time>2018-02-20T10:11:22.000Z</time>
      </trkpt>
      <trkpt lat="43.52954" lon="5.515">
        <ele>262</ele>
        <time>2018-02-20T10:11:23.000Z</time>
      </trkpt>
      <trkpt lat="43.52954" lon="5.51502">
        <ele>262</ele>
        <time>2018-02-20T10:11:24.000Z</time>
      </trkpt>
      <trkpt lat="43.52954" lon="5.51503">
        <ele>262</ele>
        <time>2018-02-20T10:11:25.000Z</time>
      </trkpt>
      <trkpt lat="43.52954" lon="5.51505">
        <ele>262</ele>
        <time>2018-02-20T10:11:26.000Z</time>
      </trkpt>
      <trkpt lat="43.52954" lon="5.51506">
        <ele>262</ele>
        <time>2018-02-20T10:11:27.000Z</time>
      </trkpt>
      <trkpt lat="43.52954" lon="5.51508">
        <ele>262</ele>
        <time>2018-02-20T10:11:28.000Z</time>
      </trkpt>
      <trkpt lat="43.52954" lon="5.51509">
        <ele>261</ele>
        <time>2018-02-20T10:11:29.000Z</time>
      </trkpt>
      <trkpt lat="43.52954" lon="5.51511">
        <ele>261</ele>
        <time>2018-02-20T10:11:30.000Z</time>
      </trkpt>
      <trkpt lat="43.52953" lon="5.51512">
        <ele>261</ele>
        <time>2018-02-20T10:11:31.000Z</time>
      </trkpt>
      <trkpt lat="43.52953" lon="5.51514">
        <ele>261</ele>
        <time>2018-02-20T10:11:32.000Z</time>
      </trkpt>
      <trkpt lat="43.52953" lon="5.51515">
        <ele>260</ele>
        <time>2018-02-20T10:11:33.000Z</time>
      </trkpt>
      <trkpt lat="43.52953" lon="5.51516">
        <ele>260</ele>
        <time>2018-02-20T10:11:34.000Z</time>
      </trkpt>
      <trkpt lat="43.52953" lon="5.51517">
        <ele>260</ele>
        <time>2018-02-20T10:11:35.000Z</time>
      </trkpt>
      <trkpt lat="43.52953" lon="5.51519">
        <ele>260</ele>
        <time>2018-02-20T10:11:36.000Z</time>
      </trkpt>
      <trkpt lat="43.52954" lon="5.5152">
        <ele>260</ele>
        <time>2018-02-20T10:11:37.000Z</time>
      </trkpt>
      <trkpt lat="43.52954" lon="5.51521">
        <ele>260</ele>
        <time>2018-02-20T10:11:38.000Z</time>
      </trkpt>
      <trkpt lat="43.52955" lon="5.51523">
        <ele>259</ele>
        <time>2018-02-20T10:11:39.000Z</time>
      </trkpt>
      <trkpt lat="43.52955" lon="5.51524">
        <ele>259</ele>
        <time>2018-02-20T10:11:40.000Z</time>
      </trkpt>
      <trkpt lat="43.52955" lon="5.51526">
        <ele>259</ele>
        <time>2018-02-20T10:11:41.000Z</time>
      </trkpt>
      <trkpt lat="43.52955" lon="5.51528">
        <ele>259</ele>
        <time>2018-02-20T10:11:42.000Z</time>
      </trkpt>
      <trkpt lat="43.52955" lon="5.51529">
        <ele>259</ele>
        <time>2018-02-20T10:11:43.000Z</time>
      </trkpt>
      <trkpt lat="43.52955" lon="5.51531">
        <ele>259</ele>
        <time>2018-02-20T10:11:44.000Z</time>
      </trkpt>
      <trkpt lat="43.52955" lon="5.51531">
        <ele>259</ele>
        <time>2018-02-20T10:11:45.000Z</time>
      </trkpt>
      <trkpt lat="43.52955" lon="5.51532">
        <ele>259</ele>
        <time>2018-02-20T10:11:46.000Z</time>
      </trkpt>
      <trkpt lat="43.52955" lon="5.51533">
        <ele>259</ele>
        <time>2018-02-20T10:11:47.000Z</time>
      </trkpt>
      <trkpt lat="43.52955" lon="5.51535">
        <ele>259</ele>
        <time>2018-02-20T10:11:48.000Z</time>
      </trkpt>
      <trkpt lat="43.52956" lon="5.51536">
        <ele>260</ele>
        <time>2018-02-20T10:11:49.000Z</time>
      </trkpt>
      <trkpt lat="43.52956" lon="5.51537">
        <ele>260</ele>
        <time>2018-02-20T10:11:50.000Z</time>
      </trkpt>
      <trkpt lat="43.52955" lon="5.51539">
        <ele>259</ele>
        <time>2018-02-20T10:11:51.000Z</time>
      </trkpt>
      <trkpt lat="43.52955" lon="5.5154">
        <ele>259</ele>
        <time>2018-02-20T10:11:52.000Z</time>
      </trkpt>
      <trkpt lat="43.52955" lon="5.51542">
        <ele>259</ele>
        <time>2018-02-20T10:11:53.000Z</time>
      </trkpt>
      <trkpt lat="43.52955" lon="5.51544">
        <ele>259</ele>
        <time>2018-02-20T10:11:54.000Z</time>
      </trkpt>
      <trkpt lat="43.52955" lon="5.51546">
        <ele>259</ele>
        <time>2018-02-20T10:11:55.000Z</time>
      </trkpt>
      <trkpt lat="43.52955" lon="5.51547">
        <ele>259</ele>
        <time>2018-02-20T10:11:56.000Z</time>
      </trkpt>
      <trkpt lat="43.52955" lon="5.51549">
        <ele>259</ele>
        <time>2018-02-20T10:11:57.000Z</time>
      </trkpt>
      <trkpt lat="43.52955" lon="5.51551">
        <ele>259</ele>
        <time>2018-02-20T10:11:58.000Z</time>
      </trkpt>
      <trkpt lat="43.52956" lon="5.51553">
        <ele>259</ele>
        <time>2018-02-20T10:11:59.000Z</time>
      </trkpt>
      <trkpt lat="43.52956" lon="5.51554">
        <ele>258</ele>
        <time>2018-02-20T10:12:00.000Z</time>
      </trkpt>
      <trkpt lat="43.52957" lon="5.51555">
        <ele>258</ele>
        <time>2018-02-20T10:12:01.000Z</time>
      </trkpt>
      <trkpt lat="43.52958" lon="5.51555">
        <ele>258</ele>
        <time>2018-02-20T10:12:02.000Z</time>
      </trkpt>
      <trkpt lat="43.52958" lon="5.51555">
        <ele>258</ele>
        <time>2018-02-20T10:12:03.000Z</time>
      </trkpt>
      <trkpt lat="43.52959" lon="5.51555">
        <ele>259</ele>
        <time>2018-02-20T10:12:04.000Z</time>
      </trkpt>
      <trkpt lat="43.52959" lon="5.51554">
        <ele>259</ele>
        <time>2018-02-20T10:12:05.000Z</time>
      </trkpt>
      <trkpt lat="43.5296" lon="5.51554">
        <ele>259</ele>
        <time>2018-02-20T10:12:06.000Z</time>
      </trkpt>
      <trkpt lat="43.52961" lon="5.51554">
        <ele>259</ele>
        <time>2018-02-20T10:12:07.000Z</time>
      </trkpt>
      <trkpt lat="43.52961" lon="5.51555">
        <ele>259</ele>
        <time>2018-02-20T10:12:08.000Z</time>
      </trkpt>
      <trkpt lat="43.52962" lon="5.51555">
        <ele>259</ele>
        <time>2018-02-20T10:12:09.000Z</time>
      </trkpt>
      <trkpt lat="43.52962" lon="5.51554">
        <ele>259</ele>
        <time>2018-02-20T10:12:10.000Z</time>
      </trkpt>
      <trkpt lat="43.52962" lon="5.51554">
        <ele>259</ele>
        <time>2018-02-20T10:12:11.000Z</time>
      </trkpt>
      <trkpt lat="43.52962" lon="5.51553">
        <ele>259</ele>
        <time>2018-02-20T10:12:12.000Z</time>
      </trkpt>
      <trkpt lat="43.52963" lon="5.51553">
        <ele>260</ele>
        <time>2018-02-20T10:12:13.000Z</time>
      </trkpt>
      <trkpt lat="43.52964" lon="5.51552">
        <ele>260</ele>
        <time>2018-02-20T10:12:14.000Z</time>
      </trkpt>
      <trkpt lat="43.52964" lon="5.51551">
        <ele>260</ele>
        <time>2018-02-20T10:12:15.000Z</time>
      </trkpt>
      <trkpt lat="43.52964" lon="5.5155">
        <ele>260</ele>
        <time>2018-02-20T10:12:16.000Z</time>
      </trkpt>
      <trkpt lat="43.52965" lon="5.51549">
        <ele>260</ele>
        <time>2018-02-20T10:12:17.000Z</time>
      </trkpt>
      <trkpt lat="43.52966" lon="5.51548">
        <ele>260</ele>
        <time>2018-02-20T10:12:18.000Z</time>
      </trkpt>
      <trkpt lat="43.52966" lon="5.51546">
        <ele>261</ele>
        <time>2018-02-20T10:12:19.000Z</time>
      </trkpt>
      <trkpt lat="43.52967" lon="5.51545">
        <ele>261</ele>
        <time>2018-02-20T10:12:20.000Z</time>
      </trkpt>
      <trkpt lat="43.52967" lon="5.51544">
        <ele>261</ele>
        <time>2018-02-20T10:12:21.000Z</time>
      </trkpt>
      <trkpt lat="43.52967" lon="5.51543">
        <ele>261</ele>
        <time>2018-02-20T10:12:22.000Z</time>
      </trkpt>
      <trkpt lat="43.52968" lon="5.51543">
        <ele>261</ele>
        <time>2018-02-20T10:12:23.000Z</time>
      </trkpt>
      <trkpt lat="43.52968" lon="5.51542">
        <ele>261</ele>
        <time>2018-02-20T10:12:24.000Z</time>
      </trkpt>
      <trkpt lat="43.52968" lon="5.51542">
        <ele>261</ele>
        <time>2018-02-20T10:12:25.000Z</time>
      </trkpt>
      <trkpt lat="43.52969" lon="5.51541">
        <ele>262</ele>
        <time>2018-02-20T10:12:26.000Z</time>
      </trkpt>
      <trkpt lat="43.5297" lon="5.5154">
        <ele>262</ele>
        <time>2018-02-20T10:12:27.000Z</time>
      </trkpt>
      <trkpt lat="43.52971" lon="5.5154">
        <ele>262</ele>
        <time>2018-02-20T10:12:28.000Z</time>
      </trkpt>
      <trkpt lat="43.52972" lon="5.51539">
        <ele>262</ele>
        <time>2018-02-20T10:12:29.000Z</time>
      </trkpt>
      <trkpt lat="43.52973" lon="5.51538">
        <ele>262</ele>
        <time>2018-02-20T10:12:30.000Z</time>
      </trkpt>
      <trkpt lat="43.52974" lon="5.51537">
        <ele>262</ele>
        <time>2018-02-20T10:12:31.000Z</time>
      </trkpt>
      <trkpt lat="43.52974" lon="5.51537">
        <ele>262</ele>
        <time>2018-02-20T10:12:32.000Z</time>
      </trkpt>
      <trkpt lat="43.52975" lon="5.51537">
        <ele>262</ele>
        <time>2018-02-20T10:12:33.000Z</time>
      </trkpt>
      <trkpt lat="43.52975" lon="5.51537">
        <ele>262</ele>
        <time>2018-02-20T10:12:34.000Z</time>
      </trkpt>
      <trkpt lat="43.52976" lon="5.51537">
        <ele>262</ele>
        <time>2018-02-20T10:12:35.000Z</time>
      </trkpt>
      <trkpt lat="43.52977" lon="5.51537">
        <ele>262</ele>
        <time>2018-02-20T10:12:36.000Z</time>
      </trkpt>
      <trkpt lat="43.52977" lon="5.51536">
        <ele>262</ele>
        <time>2018-02-20T10:12:37.000Z</time>
      </trkpt>
      <trkpt lat="43.52978" lon="5.51536">
        <ele>262</ele>
        <time>2018-02-20T10:12:38.000Z</time>
      </trkpt>
      <trkpt lat="43.52979" lon="5.51536">
        <ele>262</ele>
        <time>2018-02-20T10:12:39.000Z</time>
      </trkpt>
      <trkpt lat="43.52979" lon="5.51535">
        <ele>262</ele>
        <time>2018-02-20T10:12:40.000Z</time>
      </trkpt>
      <trkpt lat="43.5298" lon="5.51535">
        <ele>262</ele>
        <time>2018-02-20T10:12:41.000Z</time>
      </trkpt>
      <trkpt lat="43.52981" lon="5.51535">
        <ele>262</ele>
        <time>2018-02-20T10:12:42.000Z</time>
      </trkpt>
      <trkpt lat="43.52982" lon="5.51535">
        <ele>262</ele>
        <time>2018-02-20T10:12:43.000Z</time>
      </trkpt>
      <trkpt lat="43.52983" lon="5.51535">
        <ele>262</ele>
        <time>2018-02-20T10:12:44.000Z</time>
      </trkpt>
      <trkpt lat="43.52983" lon="5.51535">
        <ele>263</ele>
        <time>2018-02-20T10:12:45.000Z</time>
      </trkpt>
      <trkpt lat="43.52984" lon="5.51535">
        <ele>263</ele>
        <time>2018-02-20T10:12:46.000Z</time>
      </trkpt>
      <trkpt lat="43.52985" lon="5.51535">
        <ele>263</ele>
        <time>2018-02-20T10:12:47.000Z</time>
      </trkpt>
      <trkpt lat="43.52986" lon="5.51535">
        <ele>263</ele>
        <time>2018-02-20T10:12:48.000Z</time>
      </trkpt>
      <trkpt lat="43.52987" lon="5.51535">
        <ele>263</ele>
        <time>2018-02-20T10:12:49.000Z</time>
      </trkpt>
      <trkpt lat="43.52988" lon="5.51535">
        <ele>263</ele>
        <time>2018-02-20T10:12:50.000Z</time>
      </trkpt>
      <trkpt lat="43.52989" lon="5.51535">
        <ele>263</ele>
        <time>2018-02-20T10:12:51.000Z</time>
      </trkpt>
      <trkpt lat="43.5299" lon="5.51534">
        <ele>264</ele>
        <time>2018-02-20T10:12:52.000Z</time>
      </trkpt>
      <trkpt lat="43.52991" lon="5.51534">
        <ele>264</ele>
        <time>2018-02-20T10:12:53.000Z</time>
      </trkpt>
      <trkpt lat="43.52993" lon="5.51534">
        <ele>264</ele>
        <time>2018-02-20T10:12:54.000Z</time>
      </trkpt>
      <trkpt lat="43.52994" lon="5.51534">
        <ele>264</ele>
        <time>2018-02-20T10:12:55.000Z</time>
      </trkpt>
      <trkpt lat="43.52995" lon="5.51533">
        <ele>264</ele>
        <time>2018-02-20T10:12:56.000Z</time>
      </trkpt>
      <trkpt lat="43.52996" lon="5.51533">
        <ele>264</ele>
        <time>2018-02-20T10:12:57.000Z</time>
      </trkpt>
      <trkpt lat="43.52997" lon="5.51532">
        <ele>264</ele>
        <time>2018-02-20T10:12:58.000Z</time>
      </trkpt>
      <trkpt lat="43.52998" lon="5.51532">
        <ele>264</ele>
        <time>2018-02-20T10:12:59.000Z</time>
      </trkpt>
      <trkpt lat="43.52999" lon="5.51531">
        <ele>264</ele>
        <time>2018-02-20T10:13:00.000Z</time>
      </trkpt>
      <trkpt lat="43.53" lon="5.5153">
        <ele>265</ele>
        <time>2018-02-20T10:13:01.000Z</time>
      </trkpt>
      <trkpt lat="43.53001" lon="5.51529">
        <ele>264</ele>
        <time>2018-02-20T10:13:02.000Z</time>
      </trkpt>
      <trkpt lat="43.53002" lon="5.51528">
        <ele>264</ele>
        <time>2018-02-20T10:13:03.000Z</time>
      </trkpt>
      <trkpt lat="43.53003" lon="5.51527">
        <ele>264</ele>
        <time>2018-02-20T10:13:04.000Z</time>
      </trkpt>
      <trkpt lat="43.53004" lon="5.51527">
        <ele>264</ele>
        <time>2018-02-20T10:13:05.000Z</time>
      </trkpt>
      <trkpt lat="43.53005" lon="5.51526">
        <ele>264</ele>
        <time>2018-02-20T10:13:06.000Z</time>
      </trkpt>
      <trkpt lat="43.53006" lon="5.51526">
        <ele>264</ele>
        <time>2018-02-20T10:13:07.000Z</time>
      </trkpt>
      <trkpt lat="43.53007" lon="5.51525">
        <ele>264</ele>
        <time>2018-02-20T10:13:08.000Z</time>
      </trkpt>
      <trkpt lat="43.53008" lon="5.51524">
        <ele>264</ele>
        <time>2018-02-20T10:13:09.000Z</time>
      </trkpt>
      <trkpt lat="43.53009" lon="5.51524">
        <ele>264</ele>
        <time>2018-02-20T10:13:10.000Z</time>
      </trkpt>
      <trkpt lat="43.5301" lon="5.51523">
        <ele>264</ele>
        <time>2018-02-20T10:13:11.000Z</time>
      </trkpt>
      <trkpt lat="43.53011" lon="5.51522">
        <ele>264</ele>
        <time>2018-02-20T10:13:12.000Z</time>
      </trkpt>
      <trkpt lat="43.53012" lon="5.51522">
        <ele>264</ele>
        <time>2018-02-20T10:13:13.000Z</time>
      </trkpt>
      <trkpt lat="43.53013" lon="5.51521">
        <ele>264</ele>
        <time>2018-02-20T10:13:14.000Z</time>
      </trkpt>
      <trkpt lat="43.53013" lon="5.51521">
        <ele>264</ele>
        <time>2018-02-20T10:13:15.000Z</time>
      </trkpt>
      <trkpt lat="43.53014" lon="5.5152">
        <ele>264</ele>
        <time>2018-02-20T10:13:16.000Z</time>
      </trkpt>
      <trkpt lat="43.53015" lon="5.51519">
        <ele>264</ele>
        <time>2018-02-20T10:13:17.000Z</time>
      </trkpt>
      <trkpt lat="43.53016" lon="5.51519">
        <ele>264</ele>
        <time>2018-02-20T10:13:18.000Z</time>
      </trkpt>
      <trkpt lat="43.53018" lon="5.51519">
        <ele>264</ele>
        <time>2018-02-20T10:13:19.000Z</time>
      </trkpt>
      <trkpt lat="43.53019" lon="5.51519">
        <ele>264</ele>
        <time>2018-02-20T10:13:20.000Z</time>
      </trkpt>
      <trkpt lat="43.53019" lon="5.51519">
        <ele>264</ele>
        <time>2018-02-20T10:13:21.000Z</time>
      </trkpt>
      <trkpt lat="43.5302" lon="5.5152">
        <ele>264</ele>
        <time>2018-02-20T10:13:22.000Z</time>
      </trkpt>
      <trkpt lat="43.53021" lon="5.5152">
        <ele>264</ele>
        <time>2018-02-20T10:13:23.000Z</time>
      </trkpt>
      <trkpt lat="43.53022" lon="5.51521">
        <ele>264</ele>
        <time>2018-02-20T10:13:24.000Z</time>
      </trkpt>
      <trkpt lat="43.53024" lon="5.51522">
        <ele>263</ele>
        <time>2018-02-20T10:13:25.000Z</time>
      </trkpt>
      <trkpt lat="43.53025" lon="5.51523">
        <ele>263</ele>
        <time>2018-02-20T10:13:26.000Z</time>
      </trkpt>
      <trkpt lat="43.53025" lon="5.51524">
        <ele>263</ele>
        <time>2018-02-20T10:13:27.000Z</time>
      </trkpt>
      <trkpt lat="43.53026" lon="5.51525">
        <ele>263</ele>
        <time>2018-02-20T10:13:28.000Z</time>
      </trkpt>
      <trkpt lat="43.53027" lon="5.51526">
        <ele>263</ele>
        <time>2018-02-20T10:13:29.000Z</time>
      </trkpt>
      <trkpt lat="43.53028" lon="5.51526">
        <ele>263</ele>
        <time>2018-02-20T10:13:30.000Z</time>
      </trkpt>
      <trkpt lat="43.53028" lon="5.51526">
        <ele>263</ele>
        <time>2018-02-20T10:13:31.000Z</time>
      </trkpt>
      <trkpt lat="43.53029" lon="5.51526">
        <ele>263</ele>
        <time>2018-02-20T10:13:32.000Z</time>
      </trkpt>
      <trkpt lat="43.5303" lon="5.51527">
        <ele>263</ele>
        <time>2018-02-20T10:13:33.000Z</time>
      </trkpt>
      <trkpt lat="43.53031" lon="5.51528">
        <ele>263</ele>
        <time>2018-02-20T10:13:34.000Z</time>
      </trkpt>
      <trkpt lat="43.53032" lon="5.51529">
        <ele>263</ele>
        <time>2018-02-20T10:13:35.000Z</time>
      </trkpt>
      <trkpt lat="43.53033" lon="5.5153">
        <ele>263</ele>
        <time>2018-02-20T10:13:36.000Z</time>
      </trkpt>
      <trkpt lat="43.53034" lon="5.5153">
        <ele>263</ele>
        <time>2018-02-20T10:13:37.000Z</time>
      </trkpt>
      <trkpt lat="43.53035" lon="5.51531">
        <ele>263</ele>
        <time>2018-02-20T10:13:38.000Z</time>
      </trkpt>
      <trkpt lat="43.53036" lon="5.51532">
        <ele>263</ele>
        <time>2018-02-20T10:13:39.000Z</time>
      </trkpt>
      <trkpt lat="43.53037" lon="5.51532">
        <ele>263</ele>
        <time>2018-02-20T10:13:40.000Z</time>
      </trkpt>
      <trkpt lat="43.53038" lon="5.51533">
        <ele>263</ele>
        <time>2018-02-20T10:13:41.000Z</time>
      </trkpt>
      <trkpt lat="43.53039" lon="5.51533">
        <ele>263</ele>
        <time>2018-02-20T10:13:42.000Z</time>
      </trkpt>
      <trkpt lat="43.53041" lon="5.51533">
        <ele>263</ele>
        <time>2018-02-20T10:13:43.000Z</time>
      </trkpt>
      <trkpt lat="43.53041" lon="5.51534">
        <ele>263</ele>
        <time>2018-02-20T10:13:44.000Z</time>
      </trkpt>
      <trkpt lat="43.53042" lon="5.51535">
        <ele>263</ele>
        <time>2018-02-20T10:13:45.000Z</time>
      </trkpt>
      <trkpt lat="43.53043" lon="5.51536">
        <ele>263</ele>
        <time>2018-02-20T10:13:46.000Z</time>
      </trkpt>
      <trkpt lat="43.53044" lon="5.51536">
        <ele>263</ele>
        <time>2018-02-20T10:13:47.000Z</time>
      </trkpt>
      <trkpt lat="43.53045" lon="5.51537">
        <ele>263</ele>
        <time>2018-02-20T10:13:48.000Z</time>
      </trkpt>
      <trkpt lat="43.53046" lon="5.51537">
        <ele>263</ele>
        <time>2018-02-20T10:13:49.000Z</time>
      </trkpt>
      <trkpt lat="43.53047" lon="5.51537">
        <ele>263</ele>
        <time>2018-02-20T10:13:50.000Z</time>
      </trkpt>
      <trkpt lat="43.53048" lon="5.51538">
        <ele>263</ele>
        <time>2018-02-20T10:13:51.000Z</time>
      </trkpt>
      <trkpt lat="43.53049" lon="5.51538">
        <ele>263</ele>
        <time>2018-02-20T10:13:52.000Z</time>
      </trkpt>
      <trkpt lat="43.53051" lon="5.51539">
        <ele>263</ele>
        <time>2018-02-20T10:13:53.000Z</time>
      </trkpt>
      <trkpt lat="43.53051" lon="5.51539">
        <ele>263</ele>
        <time>2018-02-20T10:13:54.000Z</time>
      </trkpt>
      <trkpt lat="43.53052" lon="5.51539">
        <ele>263</ele>
        <time>2018-02-20T10:13:55.000Z</time>
      </trkpt>
      <trkpt lat="43.53053" lon="5.51539">
        <ele>262</ele>
        <time>2018-02-20T10:13:56.000Z</time>
      </trkpt>
      <trkpt lat="43.53053" lon="5.5154">
        <ele>262</ele>
        <time>2018-02-20T10:13:57.000Z</time>
      </trkpt>
      <trkpt lat="43.53054" lon="5.5154">
        <ele>262</ele>
        <time>2018-02-20T10:13:58.000Z</time>
      </trkpt>
      <trkpt lat="43.53055" lon="5.5154">
        <ele>262</ele>
        <time>2018-02-20T10:13:59.000Z</time>
      </trkpt>
      <trkpt lat="43.53057" lon="5.5154">
        <ele>262</ele>
        <time>2018-02-20T10:14:00.000Z</time>
      </trkpt>
      <trkpt lat="43.53058" lon="5.51541">
        <ele>262</ele>
        <time>2018-02-20T10:14:01.000Z</time>
      </trkpt>
      <trkpt lat="43.53059" lon="5.51541">
        <ele>261</ele>
        <time>2018-02-20T10:14:02.000Z</time>
      </trkpt>
      <trkpt lat="43.5306" lon="5.51542">
        <ele>261</ele>
        <time>2018-02-20T10:14:03.000Z</time>
      </trkpt>
      <trkpt lat="43.53061" lon="5.51543">
        <ele>261</ele>
        <time>2018-02-20T10:14:04.000Z</time>
      </trkpt>
      <trkpt lat="43.53062" lon="5.51545">
        <ele>261</ele>
        <time>2018-02-20T10:14:05.000Z</time>
      </trkpt>
      <trkpt lat="43.53063" lon="5.51546">
        <ele>261</ele>
        <time>2018-02-20T10:14:06.000Z</time>
      </trkpt>
      <trkpt lat="43.53064" lon="5.51547">
        <ele>261</ele>
        <time>2018-02-20T10:14:07.000Z</time>
      </trkpt>
      <trkpt lat="43.53065" lon="5.51548">
        <ele>260</ele>
        <time>2018-02-20T10:14:08.000Z</time>
      </trkpt>
      <trkpt lat="43.53065" lon="5.51549">
        <ele>260</ele>
        <time>2018-02-20T10:14:09.000Z</time>
      </trkpt>
      <trkpt lat="43.53066" lon="5.51551">
        <ele>260</ele>
        <time>2018-02-20T10:14:10.000Z</time>
      </trkpt>
      <trkpt lat="43.53066" lon="5.51552">
        <ele>260</ele>
        <time>2018-02-20T10:14:11.000Z</time>
      </trkpt>
      <trkpt lat="43.53066" lon="5.51552">
        <ele>260</ele>
        <time>2018-02-20T10:14:12.000Z</time>
      </trkpt>
      <trkpt lat="43.53067" lon="5.51552">
        <ele>260</ele>
        <time>2018-02-20T10:14:13.000Z</time>
      </trkpt>
      <trkpt lat="43.53067" lon="5.51553">
        <ele>260</ele>
        <time>2018-02-20T10:14:14.000Z</time>
      </trkpt>
      <trkpt lat="43.53067" lon="5.51553">
        <ele>260</ele>
        <time>2018-02-20T10:14:15.000Z</time>
      </trkpt>
      <trkpt lat="43.53067" lon="5.51553">
        <ele>259</ele>
        <time>2018-02-20T10:14:16.000Z</time>
      </trkpt>
      <trkpt lat="43.53067" lon="5.51553">
        <ele>259</ele>
        <time>2018-02-20T10:14:17.000Z</time>
      </trkpt>
      <trkpt lat="43.53067" lon="5.51553">
        <ele>259</ele>
        <time>2018-02-20T10:14:18.000Z</time>
      </trkpt>
      <trkpt lat="43.53067" lon="5.51553">
        <ele>259</ele>
        <time>2018-02-20T10:14:19.000Z</time>
      </trkpt>
      <trkpt lat="43.53067" lon="5.51553">
        <ele>259</ele>
        <time>2018-02-20T10:14:20.000Z</time>
      </trkpt>
      <trkpt lat="43.53067" lon="5.51553">
        <ele>259</ele>
        <time>2018-02-20T10:14:21.000Z</time>
      </trkpt>
      <trkpt lat="43.53067" lon="5.51553">
        <ele>259</ele>
        <time>2018-02-20T10:14:22.000Z</time>
      </trkpt>
      <trkpt lat="43.53067" lon="5.51554">
        <ele>259</ele>
        <time>2018-02-20T10:14:23.000Z</time>
      </trkpt>
      <trkpt lat="43.53067" lon="5.51554">
        <ele>259</ele>
        <time>2018-02-20T10:14:24.000Z</time>
      </trkpt>
      <trkpt lat="43.53067" lon="5.51554">
        <ele>259</ele>
        <time>2018-02-20T10:14:25.000Z</time>
      </trkpt>
      <trkpt lat="43.53067" lon="5.51554">
        <ele>259</ele>
        <time>2018-02-20T10:14:26.000Z</time>
      </trkpt>
      <trkpt lat="43.53067" lon="5.51554">
        <ele>258</ele>
        <time>2018-02-20T10:14:27.000Z</time>
      </trkpt>
      <trkpt lat="43.53067" lon="5.51554">
        <ele>258</ele>
        <time>2018-02-20T10:14:28.000Z</time>
      </trkpt>
      <trkpt lat="43.53067" lon="5.51554">
        <ele>258</ele>
        <time>2018-02-20T10:14:29.000Z</time>
      </trkpt>
      <trkpt lat="43.53067" lon="5.51554">
        <ele>258</ele>
        <time>2018-02-20T10:14:30.000Z</time>
      </trkpt>
      <trkpt lat="43.53067" lon="5.51554">
        <ele>258</ele>
        <time>2018-02-20T10:14:31.000Z</time>
      </trkpt>
      <trkpt lat="43.53067" lon="5.51554">
        <ele>258</ele>
        <time>2018-02-20T10:14:32.000Z</time>
      </trkpt>
      <trkpt lat="43.53067" lon="5.51554">
        <ele>258</ele>
        <time>2018-02-20T10:14:33.000Z</time>
      </trkpt>
      <trkpt lat="43.53067" lon="5.51554">
        <ele>258</ele>
        <time>2018-02-20T10:14:34.000Z</time>
      </trkpt>
      <trkpt lat="43.53067" lon="5.51554">
        <ele>258</ele>
        <time>2018-02-20T10:14:35.000Z</time>
      </trkpt>
      <trkpt lat="43.53067" lon="5.51554">
        <ele>258</ele>
        <time>2018-02-20T10:14:36.000Z</time>
      </trkpt>
      <trkpt lat="43.53067" lon="5.51554">
        <ele>258</ele>
        <time>2018-02-20T10:14:37.000Z</time>
      </trkpt>
      <trkpt lat="43.53067" lon="5.51554">
        <ele>257</ele>
        <time>2018-02-20T10:14:38.000Z</time>
      </trkpt>
      <trkpt lat="43.53067" lon="5.51554">
        <ele>257</ele>
        <time>2018-02-20T10:14:39.000Z</time>
      </trkpt>
      <trkpt lat="43.53067" lon="5.51554">
        <ele>257</ele>
        <time>2018-02-20T10:14:40.000Z</time>
      </trkpt>
      <trkpt lat="43.53067" lon="5.51554">
        <ele>257</ele>
        <time>2018-02-20T10:14:41.000Z</time>
      </trkpt>
      <trkpt lat="43.53067" lon="5.51554">
        <ele>257</ele>
        <time>2018-02-20T10:14:42.000Z</time>
      </trkpt>
      <trkpt lat="43.53067" lon="5.51554">
        <ele>257</ele>
        <time>2018-02-20T10:14:43.000Z</time>
      </trkpt>
      <trkpt lat="43.53067" lon="5.51554">
        <ele>257</ele>
        <time>2018-02-20T10:14:44.000Z</time>
      </trkpt>
      <trkpt lat="43.53067" lon="5.51554">
        <ele>257</ele>
        <time>2018-02-20T10:14:45.000Z</time>
      </trkpt>
      <trkpt lat="43.53067" lon="5.51554">
        <ele>257</ele>
        <time>2018-02-20T10:14:46.000Z</time>
      </trkpt>
      <trkpt lat="43.53067" lon="5.51554">
        <ele>257</ele>
        <time>2018-02-20T10:14:47.000Z</time>
      </trkpt>
      <trkpt lat="43.53067" lon="5.51554">
        <ele>257</ele>
        <time>2018-02-20T10:14:48.000Z</time>
      </trkpt>
      <trkpt lat="43.53067" lon="5.51554">
        <ele>257</ele>
        <time>2018-02-20T10:14:49.000Z</time>
      </trkpt>
      <trkpt lat="43.53067" lon="5.51554">
        <ele>257</ele>
        <time>2018-02-20T10:14:50.000Z</time>
      </trkpt>
      <trkpt lat="43.53067" lon="5.51554">
        <ele>257</ele>
        <time>2018-02-20T10:14:51.000Z</time>
      </trkpt>
      <trkpt lat="43.53067" lon="5.51554">
        <ele>257</ele>
        <time>2018-02-20T10:14:52.000Z</time>
      </trkpt>
      <trkpt lat="43.53067" lon="5.51554">
        <ele>257</ele>
        <time>2018-02-20T10:14:53.000Z</time>
      </trkpt>
      <trkpt lat="43.53067" lon="5.51554">
        <ele>257</ele>
        <time>2018-02-20T10:14:54.000Z</time>
      </trkpt>
      <trkpt lat="43.53067" lon="5.51554">
        <ele>257</ele>
        <time>2018-02-20T10:14:55.000Z</time>
      </trkpt>
      <trkpt lat="43.53067" lon="5.51554">
        <ele>257</ele>
        <time>2018-02-20T10:14:56.000Z</time>
      </trkpt>
      <trkpt lat="43.53067" lon="5.51554">
        <ele>257</ele>
        <time>2018-02-20T10:14:57.000Z</time>
      </trkpt>
      <trkpt lat="43.53067" lon="5.51554">
        <ele>257</ele>
        <time>2018-02-20T10:14:58.000Z</time>
      </trkpt>
      <trkpt lat="43.53067" lon="5.51554">
        <ele>257</ele>
        <time>2018-02-20T10:14:59.000Z</time>
      </trkpt>
      <trkpt lat="43.53067" lon="5.51554">
        <ele>257</ele>
        <time>2018-02-20T10:15:00.000Z</time>
      </trkpt>
      <trkpt lat="43.53067" lon="5.51554">
        <ele>257</ele>
        <time>2018-02-20T10:15:01.000Z</time>
      </trkpt>
      <trkpt lat="43.53067" lon="5.51554">
        <ele>257</ele>
        <time>2018-02-20T10:15:02.000Z</time>
      </trkpt>
      <trkpt lat="43.53067" lon="5.51554">
        <ele>257</ele>
        <time>2018-02-20T10:15:03.000Z</time>
      </trkpt>
      <trkpt lat="43.53067" lon="5.51554">
        <ele>257</ele>
        <time>2018-02-20T10:15:04.000Z</time>
      </trkpt>
      <trkpt lat="43.53067" lon="5.51554">
        <ele>257</ele>
        <time>2018-02-20T10:15:05.000Z</time>
      </trkpt>
      <trkpt lat="43.53067" lon="5.51554">
        <ele>257</ele>
        <time>2018-02-20T10:15:06.000Z</time>
      </trkpt>
      <trkpt lat="43.53067" lon="5.51554">
        <ele>257</ele>
        <time>2018-02-20T10:15:07.000Z</time>
      </trkpt>
      <trkpt lat="43.53067" lon="5.51554">
        <ele>257</ele>
        <time>2018-02-20T10:15:08.000Z</time>
      </trkpt>
      <trkpt lat="43.53067" lon="5.51554">
        <ele>257</ele>
        <time>2018-02-20T10:15:09.000Z</time>
      </trkpt>
      <trkpt lat="43.53067" lon="5.51554">
        <ele>257</ele>
        <time>2018-02-20T10:15:10.000Z</time>
      </trkpt>
      <trkpt lat="43.53067" lon="5.51555">
        <ele>257</ele>
        <time>2018-02-20T10:15:11.000Z</time>
      </trkpt>
      <trkpt lat="43.53067" lon="5.51556">
        <ele>257</ele>
        <time>2018-02-20T10:15:12.000Z</time>
      </trkpt>
      <trkpt lat="43.53068" lon="5.51558">
        <ele>257</ele>
        <time>2018-02-20T10:15:13.000Z</time>
      </trkpt>
      <trkpt lat="43.53069" lon="5.51559">
        <ele>257</ele>
        <time>2018-02-20T10:15:14.000Z</time>
      </trkpt>
      <trkpt lat="43.53069" lon="5.51561">
        <ele>257</ele>
        <time>2018-02-20T10:15:15.000Z</time>
      </trkpt>
      <trkpt lat="43.53069" lon="5.51562">
        <ele>256</ele>
        <time>2018-02-20T10:15:16.000Z</time>
      </trkpt>
      <trkpt lat="43.53069" lon="5.51564">
        <ele>256</ele>
        <time>2018-02-20T10:15:17.000Z</time>
      </trkpt>
      <trkpt lat="43.5307" lon="5.51566">
        <ele>256</ele>
        <time>2018-02-20T10:15:18.000Z</time>
      </trkpt>
      <trkpt lat="43.5307" lon="5.51567">
        <ele>256</ele>
        <time>2018-02-20T10:15:19.000Z</time>
      </trkpt>
      <trkpt lat="43.53071" lon="5.51568">
        <ele>256</ele>
        <time>2018-02-20T10:15:20.000Z</time>
      </trkpt>
      <trkpt lat="43.53071" lon="5.51569">
        <ele>256</ele>
        <time>2018-02-20T10:15:21.000Z</time>
      </trkpt>
      <trkpt lat="43.53072" lon="5.5157">
        <ele>256</ele>
        <time>2018-02-20T10:15:22.000Z</time>
      </trkpt>
      <trkpt lat="43.53073" lon="5.5157">
        <ele>256</ele>
        <time>2018-02-20T10:15:23.000Z</time>
      </trkpt>
      <trkpt lat="43.53074" lon="5.5157">
        <ele>256</ele>
        <time>2018-02-20T10:15:24.000Z</time>
      </trkpt>
      <trkpt lat="43.53075" lon="5.51569">
        <ele>256</ele>
        <time>2018-02-20T10:15:25.000Z</time>
      </trkpt>
      <trkpt lat="43.53076" lon="5.51569">
        <ele>256</ele>
        <time>2018-02-20T10:15:26.000Z</time>
      </trkpt>
      <trkpt lat="43.53077" lon="5.5157">
        <ele>256</ele>
        <time>2018-02-20T10:15:27.000Z</time>
      </trkpt>
      <trkpt lat="43.53078" lon="5.5157">
        <ele>256</ele>
        <time>2018-02-20T10:15:28.000Z</time>
      </trkpt>
      <trkpt lat="43.53079" lon="5.51571">
        <ele>256</ele>
        <time>2018-02-20T10:15:29.000Z</time>
      </trkpt>
      <trkpt lat="43.5308" lon="5.51571">
        <ele>256</ele>
        <time>2018-02-20T10:15:30.000Z</time>
      </trkpt>
      <trkpt lat="43.53081" lon="5.51571">
        <ele>256</ele>
        <time>2018-02-20T10:15:31.000Z</time>
      </trkpt>
      <trkpt lat="43.53082" lon="5.51571">
        <ele>256</ele>
        <time>2018-02-20T10:15:32.000Z</time>
      </trkpt>
      <trkpt lat="43.53083" lon="5.51571">
        <ele>256</ele>
        <time>2018-02-20T10:15:33.000Z</time>
      </trkpt>
      <trkpt lat="43.53084" lon="5.5157">
        <ele>256</ele>
        <time>2018-02-20T10:15:34.000Z</time>
      </trkpt>
      <trkpt lat="43.53085" lon="5.5157">
        <ele>256</ele>
        <time>2018-02-20T10:15:35.000Z</time>
      </trkpt>
      <trkpt lat="43.53086" lon="5.5157">
        <ele>256</ele>
        <time>2018-02-20T10:15:36.000Z</time>
      </trkpt>
      <trkpt lat="43.53087" lon="5.5157">
        <ele>256</ele>
        <time>2018-02-20T10:15:37.000Z</time>
      </trkpt>
      <trkpt lat="43.53088" lon="5.51571">
        <ele>256</ele>
        <time>2018-02-20T10:15:38.000Z</time>
      </trkpt>
      <trkpt lat="43.53089" lon="5.51571">
        <ele>256</ele>
        <time>2018-02-20T10:15:39.000Z</time>
      </trkpt>
      <trkpt lat="43.5309" lon="5.51572">
        <ele>256</ele>
        <time>2018-02-20T10:15:40.000Z</time>
      </trkpt>
      <trkpt lat="43.53091" lon="5.51573">
        <ele>257</ele>
        <time>2018-02-20T10:15:41.000Z</time>
      </trkpt>
      <trkpt lat="43.53091" lon="5.51574">
        <ele>257</ele>
        <time>2018-02-20T10:15:42.000Z</time>
      </trkpt>
      <trkpt lat="43.53092" lon="5.51574">
        <ele>257</ele>
        <time>2018-02-20T10:15:43.000Z</time>
      </trkpt>
      <trkpt lat="43.53093" lon="5.51574">
        <ele>257</ele>
        <time>2018-02-20T10:15:44.000Z</time>
      </trkpt>
      <trkpt lat="43.53093" lon="5.51574">
        <ele>257</ele>
        <time>2018-02-20T10:15:45.000Z</time>
      </trkpt>
      <trkpt lat="43.53094" lon="5.51574">
        <ele>257</ele>
        <time>2018-02-20T10:15:46.000Z</time>
      </trkpt>
      <trkpt lat="43.53094" lon="5.51573">
        <ele>258</ele>
        <time>2018-02-20T10:15:47.000Z</time>
      </trkpt>
      <trkpt lat="43.53094" lon="5.51573">
        <ele>258</ele>
        <time>2018-02-20T10:15:48.000Z</time>
      </trkpt>
      <trkpt lat="43.53095" lon="5.51572">
        <ele>258</ele>
        <time>2018-02-20T10:15:49.000Z</time>
      </trkpt>
      <trkpt lat="43.53096" lon="5.51572">
        <ele>258</ele>
        <time>2018-02-20T10:15:50.000Z</time>
      </trkpt>
      <trkpt lat="43.53097" lon="5.51572">
        <ele>259</ele>
        <time>2018-02-20T10:15:51.000Z</time>
      </trkpt>
      <trkpt lat="43.53098" lon="5.51571">
        <ele>259</ele>
        <time>2018-02-20T10:15:52.000Z</time>
      </trkpt>
      <trkpt lat="43.53099" lon="5.51571">
        <ele>259</ele>
        <time>2018-02-20T10:15:53.000Z</time>
      </trkpt>
      <trkpt lat="43.531" lon="5.51571">
        <ele>259</ele>
        <time>2018-02-20T10:15:54.000Z</time>
      </trkpt>
      <trkpt lat="43.53101" lon="5.51571">
        <ele>259</ele>
        <time>2018-02-20T10:15:55.000Z</time>
      </trkpt>
      <trkpt lat="43.53102" lon="5.51572">
        <ele>259</ele>
        <time>2018-02-20T10:15:56.000Z</time>
      </trkpt>
      <trkpt lat="43.53103" lon="5.51573">
        <ele>259</ele>
        <time>2018-02-20T10:15:57.000Z</time>
      </trkpt>
      <trkpt lat="43.53104" lon="5.51574">
        <ele>259</ele>
        <time>2018-02-20T10:15:58.000Z</time>
      </trkpt>
      <trkpt lat="43.53105" lon="5.51574">
        <ele>259</ele>
        <time>2018-02-20T10:15:59.000Z</time>
      </trkpt>
      <trkpt lat="43.53106" lon="5.51574">
        <ele>259</ele>
        <time>2018-02-20T10:16:00.000Z</time>
      </trkpt>
      <trkpt lat="43.53107" lon="5.51574">
        <ele>259</ele>
        <time>2018-02-20T10:16:01.000Z</time>
      </trkpt>
      <trkpt lat="43.53108" lon="5.51574">
        <ele>259</ele>
        <time>2018-02-20T10:16:02.000Z</time>
      </trkpt>
      <trkpt lat="43.53109" lon="5.51573">
        <ele>258</ele>
        <time>2018-02-20T10:16:03.000Z</time>
      </trkpt>
      <trkpt lat="43.5311" lon="5.51573">
        <ele>258</ele>
        <time>2018-02-20T10:16:04.000Z</time>
      </trkpt>
      <trkpt lat="43.53112" lon="5.51573">
        <ele>258</ele>
        <time>2018-02-20T10:16:05.000Z</time>
      </trkpt>
      <trkpt lat="43.53113" lon="5.51573">
        <ele>258</ele>
        <time>2018-02-20T10:16:06.000Z</time>
      </trkpt>
      <trkpt lat="43.53114" lon="5.51574">
        <ele>258</ele>
        <time>2018-02-20T10:16:07.000Z</time>
      </trkpt>
      <trkpt lat="43.53116" lon="5.51574">
        <ele>257</ele>
        <time>2018-02-20T10:16:08.000Z</time>
      </trkpt>
      <trkpt lat="43.53116" lon="5.51575">
        <ele>257</ele>
        <time>2018-02-20T10:16:09.000Z</time>
      </trkpt>
      <trkpt lat="43.53117" lon="5.51575">
        <ele>257</ele>
        <time>2018-02-20T10:16:10.000Z</time>
      </trkpt>
      <trkpt lat="43.53118" lon="5.51575">
        <ele>257</ele>
        <time>2018-02-20T10:16:11.000Z</time>
      </trkpt>
      <trkpt lat="43.53119" lon="5.51576">
        <ele>256</ele>
        <time>2018-02-20T10:16:12.000Z</time>
      </trkpt>
      <trkpt lat="43.5312" lon="5.51576">
        <ele>256</ele>
        <time>2018-02-20T10:16:13.000Z</time>
      </trkpt>
      <trkpt lat="43.53122" lon="5.51577">
        <ele>256</ele>
        <time>2018-02-20T10:16:14.000Z</time>
      </trkpt>
      <trkpt lat="43.53123" lon="5.51577">
        <ele>256</ele>
        <time>2018-02-20T10:16:15.000Z</time>
      </trkpt>
      <trkpt lat="43.53124" lon="5.51578">
        <ele>256</ele>
        <time>2018-02-20T10:16:16.000Z</time>
      </trkpt>
      <trkpt lat="43.53124" lon="5.51579">
        <ele>256</ele>
        <time>2018-02-20T10:16:17.000Z</time>
      </trkpt>
      <trkpt lat="43.53126" lon="5.5158">
        <ele>255</ele>
        <time>2018-02-20T10:16:18.000Z</time>
      </trkpt>
      <trkpt lat="43.53127" lon="5.51581">
        <ele>255</ele>
        <time>2018-02-20T10:16:19.000Z</time>
      </trkpt>
      <trkpt lat="43.53127" lon="5.51581">
        <ele>255</ele>
        <time>2018-02-20T10:16:20.000Z</time>
      </trkpt>
      <trkpt lat="43.53128" lon="5.51582">
        <ele>255</ele>
        <time>2018-02-20T10:16:21.000Z</time>
      </trkpt>
      <trkpt lat="43.5313" lon="5.51583">
        <ele>255</ele>
        <time>2018-02-20T10:16:22.000Z</time>
      </trkpt>
      <trkpt lat="43.53131" lon="5.51583">
        <ele>255</ele>
        <time>2018-02-20T10:16:23.000Z</time>
      </trkpt>
      <trkpt lat="43.53132" lon="5.51584">
        <ele>255</ele>
        <time>2018-02-20T10:16:24.000Z</time>
      </trkpt>
      <trkpt lat="43.53133" lon="5.51584">
        <ele>255</ele>
        <time>2018-02-20T10:16:25.000Z</time>
      </trkpt>
      <trkpt lat="43.53134" lon="5.51585">
        <ele>255</ele>
        <time>2018-02-20T10:16:26.000Z</time>
      </trkpt>
      <trkpt lat="43.53136" lon="5.51585">
        <ele>255</ele>
        <time>2018-02-20T10:16:27.000Z</time>
      </trkpt>
      <trkpt lat="43.53137" lon="5.51585">
        <ele>255</ele>
        <time>2018-02-20T10:16:28.000Z</time>
      </trkpt>
      <trkpt lat="43.53138" lon="5.51586">
        <ele>255</ele>
        <time>2018-02-20T10:16:29.000Z</time>
      </trkpt>
      <trkpt lat="43.53139" lon="5.51586">
        <ele>254</ele>
        <time>2018-02-20T10:16:30.000Z</time>
      </trkpt>
      <trkpt lat="43.5314" lon="5.51587">
        <ele>254</ele>
        <time>2018-02-20T10:16:31.000Z</time>
      </trkpt>
      <trkpt lat="43.53141" lon="5.51587">
        <ele>254</ele>
        <time>2018-02-20T10:16:32.000Z</time>
      </trkpt>
      <trkpt lat="43.53143" lon="5.51587">
        <ele>254</ele>
        <time>2018-02-20T10:16:33.000Z</time>
      </trkpt>
      <trkpt lat="43.53144" lon="5.51588">
        <ele>254</ele>
        <time>2018-02-20T10:16:34.000Z</time>
      </trkpt>
      <trkpt lat="43.53145" lon="5.51588">
        <ele>255</ele>
        <time>2018-02-20T10:16:35.000Z</time>
      </trkpt>
      <trkpt lat="43.53146" lon="5.51588">
        <ele>255</ele>
        <time>2018-02-20T10:16:36.000Z</time>
      </trkpt>
      <trkpt lat="43.53147" lon="5.51588">
        <ele>255</ele>
        <time>2018-02-20T10:16:37.000Z</time>
      </trkpt>
      <trkpt lat="43.53148" lon="5.51588">
        <ele>255</ele>
        <time>2018-02-20T10:16:38.000Z</time>
      </trkpt>
      <trkpt lat="43.53148" lon="5.51588">
        <ele>255</ele>
        <time>2018-02-20T10:16:39.000Z</time>
      </trkpt>
      <trkpt lat="43.53149" lon="5.51588">
        <ele>255</ele>
        <time>2018-02-20T10:16:40.000Z</time>
      </trkpt>
      <trkpt lat="43.53149" lon="5.51588">
        <ele>255</ele>
        <time>2018-02-20T10:16:41.000Z</time>
      </trkpt>
      <trkpt lat="43.53149" lon="5.51588">
        <ele>255</ele>
        <time>2018-02-20T10:16:42.000Z</time>
      </trkpt>
      <trkpt lat="43.53149" lon="5.51588">
        <ele>255</ele>
        <time>2018-02-20T10:16:43.000Z</time>
      </trkpt>
      <trkpt lat="43.5315" lon="5.51588">
        <ele>256</ele>
        <time>2018-02-20T10:16:44.000Z</time>
      </trkpt>
      <trkpt lat="43.5315" lon="5.51587">
        <ele>256</ele>
        <time>2018-02-20T10:16:45.000Z</time>
      </trkpt>
      <trkpt lat="43.53151" lon="5.51587">
        <ele>256</ele>
        <time>2018-02-20T10:16:46.000Z</time>
      </trkpt>
      <trkpt lat="43.53152" lon="5.51586">
        <ele>256</ele>
        <time>2018-02-20T10:16:47.000Z</time>
      </trkpt>
      <trkpt lat="43.53153" lon="5.51586">
        <ele>256</ele>
        <time>2018-02-20T10:16:48.000Z</time>
      </trkpt>
      <trkpt lat="43.53154" lon="5.51587">
        <ele>256</ele>
        <time>2018-02-20T10:16:49.000Z</time>
      </trkpt>
      <trkpt lat="43.53156" lon="5.51587">
        <ele>256</ele>
        <time>2018-02-20T10:16:50.000Z</time>
      </trkpt>
      <trkpt lat="43.53157" lon="5.51587">
        <ele>256</ele>
        <time>2018-02-20T10:16:51.000Z</time>
      </trkpt>
      <trkpt lat="43.53158" lon="5.51586">
        <ele>256</ele>
        <time>2018-02-20T10:16:52.000Z</time>
      </trkpt>
      <trkpt lat="43.53159" lon="5.51586">
        <ele>256</ele>
        <time>2018-02-20T10:16:53.000Z</time>
      </trkpt>
      <trkpt lat="43.53161" lon="5.51586">
        <ele>256</ele>
        <time>2018-02-20T10:16:54.000Z</time>
      </trkpt>
      <trkpt lat="43.53162" lon="5.51586">
        <ele>256</ele>
        <time>2018-02-20T10:16:55.000Z</time>
      </trkpt>
      <trkpt lat="43.53163" lon="5.51587">
        <ele>256</ele>
        <time>2018-02-20T10:16:56.000Z</time>
      </trkpt>
      <trkpt lat="43.53165" lon="5.51587">
        <ele>256</ele>
        <time>2018-02-20T10:16:57.000Z</time>
      </trkpt>
      <trkpt lat="43.53166" lon="5.51587">
        <ele>256</ele>
        <time>2018-02-20T10:16:58.000Z</time>
      </trkpt>
      <trkpt lat="43.53167" lon="5.51587">
        <ele>256</ele>
        <time>2018-02-20T10:16:59.000Z</time>
      </trkpt>
      <trkpt lat="43.53168" lon="5.51588">
        <ele>256</ele>
        <time>2018-02-20T10:17:00.000Z</time>
      </trkpt>
      <trkpt lat="43.53169" lon="5.51588">
        <ele>256</ele>
        <time>2018-02-20T10:17:01.000Z</time>
      </trkpt>
      <trkpt lat="43.5317" lon="5.51588">
        <ele>257</ele>
        <time>2018-02-20T10:17:02.000Z</time>
      </trkpt>
      <trkpt lat="43.53171" lon="5.51589">
        <ele>257</ele>
        <time>2018-02-20T10:17:03.000Z</time>
      </trkpt>
      <trkpt lat="43.53172" lon="5.51589">
        <ele>257</ele>
        <time>2018-02-20T10:17:04.000Z</time>
      </trkpt>
      <trkpt lat="43.53172" lon="5.51589">
        <ele>257</ele>
        <time>2018-02-20T10:17:05.000Z</time>
      </trkpt>
      <trkpt lat="43.53172" lon="5.51589">
        <ele>257</ele>
        <time>2018-02-20T10:17:06.000Z</time>
      </trkpt>
      <trkpt lat="43.53172" lon="5.51589">
        <ele>257</ele>
        <time>2018-02-20T10:17:07.000Z</time>
      </trkpt>
      <trkpt lat="43.53172" lon="5.51589">
        <ele>257</ele>
        <time>2018-02-20T10:17:08.000Z</time>
      </trkpt>
      <trkpt lat="43.53172" lon="5.51589">
        <ele>257</ele>
        <time>2018-02-20T10:17:09.000Z</time>
      </trkpt>
      <trkpt lat="43.53173" lon="5.51589">
        <ele>257</ele>
        <time>2018-02-20T10:17:10.000Z</time>
      </trkpt>
      <trkpt lat="43.53173" lon="5.51589">
        <ele>257</ele>
        <time>2018-02-20T10:17:11.000Z</time>
      </trkpt>
      <trkpt lat="43.53173" lon="5.51589">
        <ele>257</ele>
        <time>2018-02-20T10:17:12.000Z</time>
      </trkpt>
      <trkpt lat="43.53173" lon="5.51589">
        <ele>257</ele>
        <time>2018-02-20T10:17:13.000Z</time>
      </trkpt>
      <trkpt lat="43.53173" lon="5.51589">
        <ele>257</ele>
        <time>2018-02-20T10:17:14.000Z</time>
      </trkpt>
      <trkpt lat="43.53173" lon="5.51589">
        <ele>257</ele>
        <time>2018-02-20T10:17:15.000Z</time>
      </trkpt>
      <trkpt lat="43.53173" lon="5.51589">
        <ele>257</ele>
        <time>2018-02-20T10:17:16.000Z</time>
      </trkpt>
      <trkpt lat="43.53173" lon="5.51589">
        <ele>257</ele>
        <time>2018-02-20T10:17:17.000Z</time>
      </trkpt>
      <trkpt lat="43.53173" lon="5.51589">
        <ele>257</ele>
        <time>2018-02-20T10:17:18.000Z</time>
      </trkpt>
      <trkpt lat="43.53173" lon="5.51589">
        <ele>257</ele>
        <time>2018-02-20T10:17:19.000Z</time>
      </trkpt>
      <trkpt lat="43.53173" lon="5.51589">
        <ele>257</ele>
        <time>2018-02-20T10:17:20.000Z</time>
      </trkpt>
      <trkpt lat="43.53173" lon="5.51589">
        <ele>257</ele>
        <time>2018-02-20T10:17:21.000Z</time>
      </trkpt>
      <trkpt lat="43.53173" lon="5.51589">
        <ele>257</ele>
        <time>2018-02-20T10:17:22.000Z</time>
      </trkpt>
      <trkpt lat="43.53173" lon="5.51589">
        <ele>257</ele>
        <time>2018-02-20T10:17:23.000Z</time>
      </trkpt>
      <trkpt lat="43.53173" lon="5.51589">
        <ele>257</ele>
        <time>2018-02-20T10:17:24.000Z</time>
      </trkpt>
      <trkpt lat="43.53173" lon="5.51589">
        <ele>257</ele>
        <time>2018-02-20T10:17:25.000Z</time>
      </trkpt>
      <trkpt lat="43.53173" lon="5.51589">
        <ele>257</ele>
        <time>2018-02-20T10:17:26.000Z</time>
      </trkpt>
      <trkpt lat="43.53173" lon="5.51589">
        <ele>257</ele>
        <time>2018-02-20T10:17:27.000Z</time>
      </trkpt>
      <trkpt lat="43.53173" lon="5.51589">
        <ele>257</ele>
        <time>2018-02-20T10:17:28.000Z</time>
      </trkpt>
      <trkpt lat="43.53173" lon="5.51589">
        <ele>257</ele>
        <time>2018-02-20T10:17:29.000Z</time>
      </trkpt>
      <trkpt lat="43.53173" lon="5.51589">
        <ele>257</ele>
        <time>2018-02-20T10:17:30.000Z</time>
      </trkpt>
      <trkpt lat="43.53173" lon="5.51589">
        <ele>257</ele>
        <time>2018-02-20T10:17:31.000Z</time>
      </trkpt>
      <trkpt lat="43.53173" lon="5.51589">
        <ele>257</ele>
        <time>2018-02-20T10:17:32.000Z</time>
      </trkpt>
      <trkpt lat="43.53173" lon="5.51589">
        <ele>257</ele>
        <time>2018-02-20T10:17:33.000Z</time>
      </trkpt>
      <trkpt lat="43.53174" lon="5.51589">
        <ele>257</ele>
        <time>2018-02-20T10:17:34.000Z</time>
      </trkpt>
      <trkpt lat="43.53174" lon="5.51589">
        <ele>257</ele>
        <time>2018-02-20T10:17:35.000Z</time>
      </trkpt>
      <trkpt lat="43.53174" lon="5.51589">
        <ele>257</ele>
        <time>2018-02-20T10:17:36.000Z</time>
      </trkpt>
      <trkpt lat="43.53174" lon="5.51589">
        <ele>257</ele>
        <time>2018-02-20T10:17:37.000Z</time>
      </trkpt>
      <trkpt lat="43.53174" lon="5.5159">
        <ele>257</ele>
        <time>2018-02-20T10:17:38.000Z</time>
      </trkpt>
      <trkpt lat="43.53174" lon="5.5159">
        <ele>257</ele>
        <time>2018-02-20T10:17:39.000Z</time>
      </trkpt>
      <trkpt lat="43.53174" lon="5.5159">
        <ele>257</ele>
        <time>2018-02-20T10:17:40.000Z</time>
      </trkpt>
      <trkpt lat="43.53175" lon="5.51591">
        <ele>257</ele>
        <time>2018-02-20T10:17:41.000Z</time>
      </trkpt>
      <trkpt lat="43.53176" lon="5.51591">
        <ele>257</ele>
        <time>2018-02-20T10:17:42.000Z</time>
      </trkpt>
      <trkpt lat="43.53176" lon="5.51592">
        <ele>257</ele>
        <time>2018-02-20T10:17:43.000Z</time>
      </trkpt>
      <trkpt lat="43.53178" lon="5.51592">
        <ele>257</ele>
        <time>2018-02-20T10:17:44.000Z</time>
      </trkpt>
      <trkpt lat="43.53179" lon="5.51593">
        <ele>257</ele>
        <time>2018-02-20T10:17:45.000Z</time>
      </trkpt>
      <trkpt lat="43.5318" lon="5.51594">
        <ele>257</ele>
        <time>2018-02-20T10:17:46.000Z</time>
      </trkpt>
      <trkpt lat="43.53181" lon="5.51595">
        <ele>257</ele>
        <time>2018-02-20T10:17:47.000Z</time>
      </trkpt>
      <trkpt lat="43.53182" lon="5.51596">
        <ele>257</ele>
        <time>2018-02-20T10:17:48.000Z</time>
      </trkpt>
      <trkpt lat="43.53183" lon="5.51596">
        <ele>256</ele>
        <time>2018-02-20T10:17:49.000Z</time>
      </trkpt>
      <trkpt lat="43.53185" lon="5.51597">
        <ele>256</ele>
        <time>2018-02-20T10:17:50.000Z</time>
      </trkpt>
      <trkpt lat="43.53186" lon="5.51597">
        <ele>256</ele>
        <time>2018-02-20T10:17:51.000Z</time>
      </trkpt>
      <trkpt lat="43.53187" lon="5.51597">
        <ele>256</ele>
        <time>2018-02-20T10:17:52.000Z</time>
      </trkpt>
      <trkpt lat="43.53188" lon="5.51597">
        <ele>256</ele>
        <time>2018-02-20T10:17:53.000Z</time>
      </trkpt>
      <trkpt lat="43.53189" lon="5.51597">
        <ele>256</ele>
        <time>2018-02-20T10:17:54.000Z</time>
      </trkpt>
      <trkpt lat="43.5319" lon="5.51597">
        <ele>256</ele>
        <time>2018-02-20T10:17:55.000Z</time>
      </trkpt>
      <trkpt lat="43.53192" lon="5.51597">
        <ele>256</ele>
        <time>2018-02-20T10:17:56.000Z</time>
      </trkpt>
      <trkpt lat="43.53193" lon="5.51596">
        <ele>256</ele>
        <time>2018-02-20T10:17:57.000Z</time>
      </trkpt>
      <trkpt lat="43.53195" lon="5.51596">
        <ele>256</ele>
        <time>2018-02-20T10:17:58.000Z</time>
      </trkpt>
      <trkpt lat="43.53196" lon="5.51596">
        <ele>256</ele>
        <time>2018-02-20T10:17:59.000Z</time>
      </trkpt>
      <trkpt lat="43.53197" lon="5.51596">
        <ele>256</ele>
        <time>2018-02-20T10:18:00.000Z</time>
      </trkpt>
      <trkpt lat="43.53199" lon="5.51596">
        <ele>255</ele>
        <time>2018-02-20T10:18:01.000Z</time>
      </trkpt>
      <trkpt lat="43.532" lon="5.51596">
        <ele>255</ele>
        <time>2018-02-20T10:18:02.000Z</time>
      </trkpt>
      <trkpt lat="43.53201" lon="5.51596">
        <ele>255</ele>
        <time>2018-02-20T10:18:03.000Z</time>
      </trkpt>
      <trkpt lat="43.53202" lon="5.51596">
        <ele>255</ele>
        <time>2018-02-20T10:18:04.000Z</time>
      </trkpt>
      <trkpt lat="43.53204" lon="5.51597">
        <ele>255</ele>
        <time>2018-02-20T10:18:05.000Z</time>
      </trkpt>
      <trkpt lat="43.53205" lon="5.51597">
        <ele>255</ele>
        <time>2018-02-20T10:18:06.000Z</time>
      </trkpt>
      <trkpt lat="43.53206" lon="5.51597">
        <ele>255</ele>
        <time>2018-02-20T10:18:07.000Z</time>
      </trkpt>
      <trkpt lat="43.53207" lon="5.51598">
        <ele>254</ele>
        <time>2018-02-20T10:18:08.000Z</time>
      </trkpt>
      <trkpt lat="43.53209" lon="5.51598">
        <ele>254</ele>
        <time>2018-02-20T10:18:09.000Z</time>
      </trkpt>
      <trkpt lat="43.5321" lon="5.51598">
        <ele>254</ele>
        <time>2018-02-20T10:18:10.000Z</time>
      </trkpt>
      <trkpt lat="43.53211" lon="5.51598">
        <ele>254</ele>
        <time>2018-02-20T10:18:11.000Z</time>
      </trkpt>
      <trkpt lat="43.53213" lon="5.51598">
        <ele>253</ele>
        <time>2018-02-20T10:18:12.000Z</time>
      </trkpt>
      <trkpt lat="43.53214" lon="5.51599">
        <ele>253</ele>
        <time>2018-02-20T10:18:13.000Z</time>
      </trkpt>
      <trkpt lat="43.53216" lon="5.516">
        <ele>253</ele>
        <time>2018-02-20T10:18:14.000Z</time>
      </trkpt>
      <trkpt lat="43.53217" lon="5.51601">
        <ele>253</ele>
        <time>2018-02-20T10:18:15.000Z</time>
      </trkpt>
      <trkpt lat="43.53219" lon="5.51602">
        <ele>252</ele>
        <time>2018-02-20T10:18:16.000Z</time>
      </trkpt>
      <trkpt lat="43.5322" lon="5.51603">
        <ele>252</ele>
        <time>2018-02-20T10:18:17.000Z</time>
      </trkpt>
      <trkpt lat="43.53222" lon="5.51604">
        <ele>252</ele>
        <time>2018-02-20T10:18:18.000Z</time>
      </trkpt>
      <trkpt lat="43.53224" lon="5.51605">
        <ele>252</ele>
        <time>2018-02-20T10:18:19.000Z</time>
      </trkpt>
      <trkpt lat="43.53225" lon="5.51605">
        <ele>252</ele>
        <time>2018-02-20T10:18:20.000Z</time>
      </trkpt>
      <trkpt lat="43.53227" lon="5.51606">
        <ele>252</ele>
        <time>2018-02-20T10:18:21.000Z</time>
      </trkpt>
      <trkpt lat="43.53228" lon="5.51607">
        <ele>252</ele>
        <time>2018-02-20T10:18:22.000Z</time>
      </trkpt>
      <trkpt lat="43.53229" lon="5.51607">
        <ele>252</ele>
        <time>2018-02-20T10:18:23.000Z</time>
      </trkpt>
      <trkpt lat="43.53231" lon="5.51607">
        <ele>252</ele>
        <time>2018-02-20T10:18:24.000Z</time>
      </trkpt>
      <trkpt lat="43.53233" lon="5.51607">
        <ele>252</ele>
        <time>2018-02-20T10:18:25.000Z</time>
      </trkpt>
      <trkpt lat="43.53234" lon="5.51608">
        <ele>252</ele>
        <time>2018-02-20T10:18:26.000Z</time>
      </trkpt>
      <trkpt lat="43.53236" lon="5.51609">
        <ele>252</ele>
        <time>2018-02-20T10:18:27.000Z</time>
      </trkpt>
      <trkpt lat="43.53237" lon="5.5161">
        <ele>252</ele>
        <time>2018-02-20T10:18:28.000Z</time>
      </trkpt>
      <trkpt lat="43.53238" lon="5.51611">
        <ele>252</ele>
        <time>2018-02-20T10:18:29.000Z</time>
      </trkpt>
      <trkpt lat="43.5324" lon="5.51612">
        <ele>252</ele>
        <time>2018-02-20T10:18:30.000Z</time>
      </trkpt>
      <trkpt lat="43.53241" lon="5.51612">
        <ele>252</ele>
        <time>2018-02-20T10:18:31.000Z</time>
      </trkpt>
      <trkpt lat="43.53242" lon="5.51613">
        <ele>252</ele>
        <time>2018-02-20T10:18:32.000Z</time>
      </trkpt>
      <trkpt lat="43.53243" lon="5.51614">
        <ele>252</ele>
        <time>2018-02-20T10:18:33.000Z</time>
      </trkpt>
      <trkpt lat="43.53244" lon="5.51615">
        <ele>252</ele>
        <time>2018-02-20T10:18:34.000Z</time>
      </trkpt>
      <trkpt lat="43.53246" lon="5.51615">
        <ele>252</ele>
        <time>2018-02-20T10:18:35.000Z</time>
      </trkpt>
      <trkpt lat="43.53247" lon="5.51616">
        <ele>252</ele>
        <time>2018-02-20T10:18:36.000Z</time>
      </trkpt>
      <trkpt lat="43.53248" lon="5.51617">
        <ele>251</ele>
        <time>2018-02-20T10:18:37.000Z</time>
      </trkpt>
      <trkpt lat="43.53249" lon="5.51617">
        <ele>251</ele>
        <time>2018-02-20T10:18:38.000Z</time>
      </trkpt>
      <trkpt lat="43.5325" lon="5.51618">
        <ele>251</ele>
        <time>2018-02-20T10:18:39.000Z</time>
      </trkpt>
      <trkpt lat="43.53251" lon="5.51618">
        <ele>251</ele>
        <time>2018-02-20T10:18:40.000Z</time>
      </trkpt>
      <trkpt lat="43.53253" lon="5.51619">
        <ele>251</ele>
        <time>2018-02-20T10:18:41.000Z</time>
      </trkpt>
      <trkpt lat="43.53254" lon="5.5162">
        <ele>251</ele>
        <time>2018-02-20T10:18:42.000Z</time>
      </trkpt>
      <trkpt lat="43.53255" lon="5.51621">
        <ele>251</ele>
        <time>2018-02-20T10:18:43.000Z</time>
      </trkpt>
      <trkpt lat="43.53257" lon="5.51622">
        <ele>251</ele>
        <time>2018-02-20T10:18:44.000Z</time>
      </trkpt>
      <trkpt lat="43.53258" lon="5.51623">
        <ele>251</ele>
        <time>2018-02-20T10:18:45.000Z</time>
      </trkpt>
      <trkpt lat="43.53259" lon="5.51625">
        <ele>251</ele>
        <time>2018-02-20T10:18:46.000Z</time>
      </trkpt>
      <trkpt lat="43.5326" lon="5.51626">
        <ele>251</ele>
        <time>2018-02-20T10:18:47.000Z</time>
      </trkpt>
      <trkpt lat="43.53261" lon="5.51628">
        <ele>250</ele>
        <time>2018-02-20T10:18:48.000Z</time>
      </trkpt>
      <trkpt lat="43.53262" lon="5.51629">
        <ele>250</ele>
        <time>2018-02-20T10:18:49.000Z</time>
      </trkpt>
      <trkpt lat="43.53262" lon="5.5163">
        <ele>250</ele>
        <time>2018-02-20T10:18:50.000Z</time>
      </trkpt>
      <trkpt lat="43.53263" lon="5.51632">
        <ele>250</ele>
        <time>2018-02-20T10:18:51.000Z</time>
      </trkpt>
      <trkpt lat="43.53263" lon="5.51633">
        <ele>250</ele>
        <time>2018-02-20T10:18:52.000Z</time>
      </trkpt>
      <trkpt lat="43.53263" lon="5.51635">
        <ele>250</ele>
        <time>2018-02-20T10:18:53.000Z</time>
      </trkpt>
      <trkpt lat="43.53263" lon="5.51637">
        <ele>250</ele>
        <time>2018-02-20T10:18:54.000Z</time>
      </trkpt>
      <trkpt lat="43.53263" lon="5.51639">
        <ele>250</ele>
        <time>2018-02-20T10:18:55.000Z</time>
      </trkpt>
      <trkpt lat="43.53264" lon="5.51641">
        <ele>249</ele>
        <time>2018-02-20T10:18:56.000Z</time>
      </trkpt>
      <trkpt lat="43.53264" lon="5.51642">
        <ele>249</ele>
        <time>2018-02-20T10:18:57.000Z</time>
      </trkpt>
      <trkpt lat="43.53264" lon="5.51644">
        <ele>249</ele>
        <time>2018-02-20T10:18:58.000Z</time>
      </trkpt>
      <trkpt lat="43.53265" lon="5.51645">
        <ele>249</ele>
        <time>2018-02-20T10:18:59.000Z</time>
      </trkpt>
      <trkpt lat="43.53266" lon="5.51647">
        <ele>249</ele>
        <time>2018-02-20T10:19:00.000Z</time>
      </trkpt>
      <trkpt lat="43.53267" lon="5.51649">
        <ele>249</ele>
        <time>2018-02-20T10:19:01.000Z</time>
      </trkpt>
      <trkpt lat="43.53268" lon="5.5165">
        <ele>249</ele>
        <time>2018-02-20T10:19:02.000Z</time>
      </trkpt>
      <trkpt lat="43.53269" lon="5.51652">
        <ele>249</ele>
        <time>2018-02-20T10:19:03.000Z</time>
      </trkpt>
      <trkpt lat="43.5327" lon="5.51654">
        <ele>249</ele>
        <time>2018-02-20T10:19:04.000Z</time>
      </trkpt>
      <trkpt lat="43.53271" lon="5.51656">
        <ele>249</ele>
        <time>2018-02-20T10:19:05.000Z</time>
      </trkpt>
      <trkpt lat="43.53272" lon="5.51658">
        <ele>249</ele>
        <time>2018-02-20T10:19:06.000Z</time>
      </trkpt>
      <trkpt lat="43.53273" lon="5.51659">
        <ele>249</ele>
        <time>2018-02-20T10:19:07.000Z</time>
      </trkpt>
      <trkpt lat="43.53274" lon="5.51661">
        <ele>249</ele>
        <time>2018-02-20T10:19:08.000Z</time>
      </trkpt>
      <trkpt lat="43.53275" lon="5.51663">
        <ele>249</ele>
        <time>2018-02-20T10:19:09.000Z</time>
      </trkpt>
      <trkpt lat="43.53276" lon="5.51665">
        <ele>249</ele>
        <time>2018-02-20T10:19:10.000Z</time>
      </trkpt>
      <trkpt lat="43.53276" lon="5.51667">
        <ele>249</ele>
        <time>2018-02-20T10:19:11.000Z</time>
      </trkpt>
      <trkpt lat="43.53276" lon="5.51669">
        <ele>249</ele>
        <time>2018-02-20T10:19:12.000Z</time>
      </trkpt>
      <trkpt lat="43.53276" lon="5.51671">
        <ele>249</ele>
        <time>2018-02-20T10:19:13.000Z</time>
      </trkpt>
      <trkpt lat="43.53275" lon="5.51673">
        <ele>249</ele>
        <time>2018-02-20T10:19:14.000Z</time>
      </trkpt>
      <trkpt lat="43.53275" lon="5.51675">
        <ele>248</ele>
        <time>2018-02-20T10:19:15.000Z</time>
      </trkpt>
      <trkpt lat="43.53275" lon="5.51677">
        <ele>248</ele>
        <time>2018-02-20T10:19:16.000Z</time>
      </trkpt>
      <trkpt lat="43.53274" lon="5.51679">
        <ele>248</ele>
        <time>2018-02-20T10:19:17.000Z</time>
      </trkpt>
      <trkpt lat="43.53274" lon="5.51681">
        <ele>248</ele>
        <time>2018-02-20T10:19:18.000Z</time>
      </trkpt>
      <trkpt lat="43.53273" lon="5.51683">
        <ele>248</ele>
        <time>2018-02-20T10:19:19.000Z</time>
      </trkpt>
      <trkpt lat="43.53272" lon="5.51685">
        <ele>248</ele>
        <time>2018-02-20T10:19:20.000Z</time>
      </trkpt>
      <trkpt lat="43.53271" lon="5.51687">
        <ele>248</ele>
        <time>2018-02-20T10:19:21.000Z</time>
      </trkpt>
      <trkpt lat="43.5327" lon="5.51689">
        <ele>248</ele>
        <time>2018-02-20T10:19:22.000Z</time>
      </trkpt>
      <trkpt lat="43.53269" lon="5.5169">
        <ele>248</ele>
        <time>2018-02-20T10:19:23.000Z</time>
      </trkpt>
      <trkpt lat="43.53269" lon="5.51692">
        <ele>248</ele>
        <time>2018-02-20T10:19:24.000Z</time>
      </trkpt>
      <trkpt lat="43.53269" lon="5.51693">
        <ele>248</ele>
        <time>2018-02-20T10:19:25.000Z</time>
      </trkpt>
      <trkpt lat="43.53268" lon="5.51695">
        <ele>248</ele>
        <time>2018-02-20T10:19:26.000Z</time>
      </trkpt>
      <trkpt lat="43.53268" lon="5.51697">
        <ele>249</ele>
        <time>2018-02-20T10:19:27.000Z</time>
      </trkpt>
      <trkpt lat="43.53269" lon="5.51698">
        <ele>249</ele>
        <time>2018-02-20T10:19:28.000Z</time>
      </trkpt>
      <trkpt lat="43.53269" lon="5.517">
        <ele>249</ele>
        <time>2018-02-20T10:19:29.000Z</time>
      </trkpt>
      <trkpt lat="43.53269" lon="5.51702">
        <ele>249</ele>
        <time>2018-02-20T10:19:30.000Z</time>
      </trkpt>
      <trkpt lat="43.53269" lon="5.51704">
        <ele>249</ele>
        <time>2018-02-20T10:19:31.000Z</time>
      </trkpt>
      <trkpt lat="43.53269" lon="5.51705">
        <ele>249</ele>
        <time>2018-02-20T10:19:32.000Z</time>
      </trkpt>
      <trkpt lat="43.53269" lon="5.51707">
        <ele>249</ele>
        <time>2018-02-20T10:19:33.000Z</time>
      </trkpt>
      <trkpt lat="43.53269" lon="5.51709">
        <ele>249</ele>
        <time>2018-02-20T10:19:34.000Z</time>
      </trkpt>
      <trkpt lat="43.53269" lon="5.51711">
        <ele>249</ele>
        <time>2018-02-20T10:19:35.000Z</time>
      </trkpt>
      <trkpt lat="43.53269" lon="5.51713">
        <ele>249</ele>
        <time>2018-02-20T10:19:36.000Z</time>
      </trkpt>
      <trkpt lat="43.53269" lon="5.51715">
        <ele>249</ele>
        <time>2018-02-20T10:19:37.000Z</time>
      </trkpt>
      <trkpt lat="43.53269" lon="5.51716">
        <ele>249</ele>
        <time>2018-02-20T10:19:38.000Z</time>
      </trkpt>
      <trkpt lat="43.53269" lon="5.51718">
        <ele>249</ele>
        <time>2018-02-20T10:19:39.000Z</time>
      </trkpt>
      <trkpt lat="43.53269" lon="5.5172">
        <ele>249</ele>
        <time>2018-02-20T10:19:40.000Z</time>
      </trkpt>
      <trkpt lat="43.53269" lon="5.51722">
        <ele>249</ele>
        <time>2018-02-20T10:19:41.000Z</time>
      </trkpt>
      <trkpt lat="43.53269" lon="5.51724">
        <ele>249</ele>
        <time>2018-02-20T10:19:42.000Z</time>
      </trkpt>
      <trkpt lat="43.53269" lon="5.51726">
        <ele>249</ele>
        <time>2018-02-20T10:19:43.000Z</time>
      </trkpt>
      <trkpt lat="43.53269" lon="5.51728">
        <ele>249</ele>
        <time>2018-02-20T10:19:44.000Z</time>
      </trkpt>
      <trkpt lat="43.53268" lon="5.51731">
        <ele>249</ele>
        <time>2018-02-20T10:19:45.000Z</time>
      </trkpt>
      <trkpt lat="43.53268" lon="5.51732">
        <ele>249</ele>
        <time>2018-02-20T10:19:46.000Z</time>
      </trkpt>
      <trkpt lat="43.53268" lon="5.51735">
        <ele>249</ele>
        <time>2018-02-20T10:19:47.000Z</time>
      </trkpt>
      <trkpt lat="43.53268" lon="5.51737">
        <ele>248</ele>
        <time>2018-02-20T10:19:48.000Z</time>
      </trkpt>
      <trkpt lat="43.53268" lon="5.51739">
        <ele>248</ele>
        <time>2018-02-20T10:19:49.000Z</time>
      </trkpt>
      <trkpt lat="43.53267" lon="5.5174">
        <ele>248</ele>
        <time>2018-02-20T10:19:50.000Z</time>
      </trkpt>
      <trkpt lat="43.53267" lon="5.51742">
        <ele>248</ele>
        <time>2018-02-20T10:19:51.000Z</time>
      </trkpt>
      <trkpt lat="43.53267" lon="5.51743">
        <ele>248</ele>
        <time>2018-02-20T10:19:52.000Z</time>
      </trkpt>
      <trkpt lat="43.53267" lon="5.51745">
        <ele>248</ele>
        <time>2018-02-20T10:19:53.000Z</time>
      </trkpt>
      <trkpt lat="43.53267" lon="5.51747">
        <ele>247</ele>
        <time>2018-02-20T10:19:54.000Z</time>
      </trkpt>
      <trkpt lat="43.53266" lon="5.51749">
        <ele>247</ele>
        <time>2018-02-20T10:19:55.000Z</time>
      </trkpt>
      <trkpt lat="43.53266" lon="5.51751">
        <ele>247</ele>
        <time>2018-02-20T10:19:56.000Z</time>
      </trkpt>
      <trkpt lat="43.53266" lon="5.51753">
        <ele>247</ele>
        <time>2018-02-20T10:19:57.000Z</time>
      </trkpt>
      <trkpt lat="43.53266" lon="5.51754">
        <ele>247</ele>
        <time>2018-02-20T10:19:58.000Z</time>
      </trkpt>
      <trkpt lat="43.53266" lon="5.51756">
        <ele>247</ele>
        <time>2018-02-20T10:19:59.000Z</time>
      </trkpt>
      <trkpt lat="43.53266" lon="5.51758">
        <ele>246</ele>
        <time>2018-02-20T10:20:00.000Z</time>
      </trkpt>
      <trkpt lat="43.53266" lon="5.5176">
        <ele>246</ele>
        <time>2018-02-20T10:20:01.000Z</time>
      </trkpt>
      <trkpt lat="43.53266" lon="5.51762">
        <ele>246</ele>
        <time>2018-02-20T10:20:02.000Z</time>
      </trkpt>
      <trkpt lat="43.53266" lon="5.51763">
        <ele>246</ele>
        <time>2018-02-20T10:20:03.000Z</time>
      </trkpt>
      <trkpt lat="43.53266" lon="5.51765">
        <ele>246</ele>
        <time>2018-02-20T10:20:04.000Z</time>
      </trkpt>
      <trkpt lat="43.53266" lon="5.51766">
        <ele>246</ele>
        <time>2018-02-20T10:20:05.000Z</time>
      </trkpt>
      <trkpt lat="43.53267" lon="5.51767">
        <ele>246</ele>
        <time>2018-02-20T10:20:06.000Z</time>
      </trkpt>
      <trkpt lat="43.53267" lon="5.51768">
        <ele>246</ele>
        <time>2018-02-20T10:20:07.000Z</time>
      </trkpt>
      <trkpt lat="43.53268" lon="5.5177">
        <ele>246</ele>
        <time>2018-02-20T10:20:08.000Z</time>
      </trkpt>
      <trkpt lat="43.53268" lon="5.51771">
        <ele>246</ele>
        <time>2018-02-20T10:20:09.000Z</time>
      </trkpt>
      <trkpt lat="43.53269" lon="5.51772">
        <ele>246</ele>
        <time>2018-02-20T10:20:10.000Z</time>
      </trkpt>
      <trkpt lat="43.53269" lon="5.51774">
        <ele>246</ele>
        <time>2018-02-20T10:20:11.000Z</time>
      </trkpt>
      <trkpt lat="43.53268" lon="5.51776">
        <ele>246</ele>
        <time>2018-02-20T10:20:12.000Z</time>
      </trkpt>
      <trkpt lat="43.53268" lon="5.51777">
        <ele>246</ele>
        <time>2018-02-20T10:20:13.000Z</time>
      </trkpt>
      <trkpt lat="43.53267" lon="5.51778">
        <ele>246</ele>
        <time>2018-02-20T10:20:14.000Z</time>
      </trkpt>
      <trkpt lat="43.53266" lon="5.51779">
        <ele>246</ele>
        <time>2018-02-20T10:20:15.000Z</time>
      </trkpt>
      <trkpt lat="43.53266" lon="5.5178">
        <ele>246</ele>
        <time>2018-02-20T10:20:16.000Z</time>
      </trkpt>
      <trkpt lat="43.53265" lon="5.51781">
        <ele>246</ele>
        <time>2018-02-20T10:20:17.000Z</time>
      </trkpt>
      <trkpt lat="43.53265" lon="5.51782">
        <ele>246</ele>
        <time>2018-02-20T10:20:18.000Z</time>
      </trkpt>
      <trkpt lat="43.53264" lon="5.51784">
        <ele>246</ele>
        <time>2018-02-20T10:20:19.000Z</time>
      </trkpt>
      <trkpt lat="43.53264" lon="5.51785">
        <ele>246</ele>
        <time>2018-02-20T10:20:20.000Z</time>
      </trkpt>
      <trkpt lat="43.53264" lon="5.51787">
        <ele>246</ele>
        <time>2018-02-20T10:20:21.000Z</time>
      </trkpt>
      <trkpt lat="43.53265" lon="5.51789">
        <ele>246</ele>
        <time>2018-02-20T10:20:22.000Z</time>
      </trkpt>
      <trkpt lat="43.53265" lon="5.5179">
        <ele>246</ele>
        <time>2018-02-20T10:20:23.000Z</time>
      </trkpt>
      <trkpt lat="43.53266" lon="5.51791">
        <ele>246</ele>
        <time>2018-02-20T10:20:24.000Z</time>
      </trkpt>
      <trkpt lat="43.53267" lon="5.51793">
        <ele>246</ele>
        <time>2018-02-20T10:20:25.000Z</time>
      </trkpt>
      <trkpt lat="43.53268" lon="5.51794">
        <ele>246</ele>
        <time>2018-02-20T10:20:26.000Z</time>
      </trkpt>
      <trkpt lat="43.53268" lon="5.51795">
        <ele>246</ele>
        <time>2018-02-20T10:20:27.000Z</time>
      </trkpt>
      <trkpt lat="43.53268" lon="5.51796">
        <ele>246</ele>
        <time>2018-02-20T10:20:28.000Z</time>
      </trkpt>
      <trkpt lat="43.53269" lon="5.51797">
        <ele>246</ele>
        <time>2018-02-20T10:20:29.000Z</time>
      </trkpt>
      <trkpt lat="43.53269" lon="5.51799">
        <ele>246</ele>
        <time>2018-02-20T10:20:30.000Z</time>
      </trkpt>
      <trkpt lat="43.53269" lon="5.518">
        <ele>246</ele>
        <time>2018-02-20T10:20:31.000Z</time>
      </trkpt>
      <trkpt lat="43.53269" lon="5.518">
        <ele>246</ele>
        <time>2018-02-20T10:20:32.000Z</time>
      </trkpt>
      <trkpt lat="43.53269" lon="5.51801">
        <ele>246</ele>
        <time>2018-02-20T10:20:33.000Z</time>
      </trkpt>
      <trkpt lat="43.5327" lon="5.51801">
        <ele>246</ele>
        <time>2018-02-20T10:20:34.000Z</time>
      </trkpt>
      <trkpt lat="43.53271" lon="5.51802">
        <ele>246</ele>
        <time>2018-02-20T10:20:35.000Z</time>
      </trkpt>
      <trkpt lat="43.53272" lon="5.51803">
        <ele>246</ele>
        <time>2018-02-20T10:20:36.000Z</time>
      </trkpt>
      <trkpt lat="43.53272" lon="5.51803">
        <ele>246</ele>
        <time>2018-02-20T10:20:37.000Z</time>
      </trkpt>
      <trkpt lat="43.53273" lon="5.51804">
        <ele>246</ele>
        <time>2018-02-20T10:20:38.000Z</time>
      </trkpt>
      <trkpt lat="43.53274" lon="5.51805">
        <ele>246</ele>
        <time>2018-02-20T10:20:39.000Z</time>
      </trkpt>
      <trkpt lat="43.53275" lon="5.51807">
        <ele>246</ele>
        <time>2018-02-20T10:20:40.000Z</time>
      </trkpt>
      <trkpt lat="43.53275" lon="5.51808">
        <ele>246</ele>
        <time>2018-02-20T10:20:41.000Z</time>
      </trkpt>
      <trkpt lat="43.53276" lon="5.51809">
        <ele>246</ele>
        <time>2018-02-20T10:20:42.000Z</time>
      </trkpt>
      <trkpt lat="43.53277" lon="5.5181">
        <ele>246</ele>
        <time>2018-02-20T10:20:43.000Z</time>
      </trkpt>
      <trkpt lat="43.53278" lon="5.51811">
        <ele>246</ele>
        <time>2018-02-20T10:20:44.000Z</time>
      </trkpt>
      <trkpt lat="43.53279" lon="5.51813">
        <ele>246</ele>
        <time>2018-02-20T10:20:45.000Z</time>
      </trkpt>
      <trkpt lat="43.5328" lon="5.51814">
        <ele>246</ele>
        <time>2018-02-20T10:20:46.000Z</time>
      </trkpt>
      <trkpt lat="43.53281" lon="5.51815">
        <ele>246</ele>
        <time>2018-02-20T10:20:47.000Z</time>
      </trkpt>
      <trkpt lat="43.53282" lon="5.51816">
        <ele>246</ele>
        <time>2018-02-20T10:20:48.000Z</time>
      </trkpt>
      <trkpt lat="43.53283" lon="5.51816">
        <ele>246</ele>
        <time>2018-02-20T10:20:49.000Z</time>
      </trkpt>
      <trkpt lat="43.53284" lon="5.51817">
        <ele>246</ele>
        <time>2018-02-20T10:20:50.000Z</time>
      </trkpt>
      <trkpt lat="43.53285" lon="5.51818">
        <ele>246</ele>
        <time>2018-02-20T10:20:51.000Z</time>
      </trkpt>
      <trkpt lat="43.53286" lon="5.51818">
        <ele>246</ele>
        <time>2018-02-20T10:20:52.000Z</time>
      </trkpt>
      <trkpt lat="43.53287" lon="5.51819">
        <ele>246</ele>
        <time>2018-02-20T10:20:53.000Z</time>
      </trkpt>
      <trkpt lat="43.53288" lon="5.5182">
        <ele>246</ele>
        <time>2018-02-20T10:20:54.000Z</time>
      </trkpt>
      <trkpt lat="43.53289" lon="5.5182">
        <ele>246</ele>
        <time>2018-02-20T10:20:55.000Z</time>
      </trkpt>
      <trkpt lat="43.5329" lon="5.5182">
        <ele>246</ele>
        <time>2018-02-20T10:20:56.000Z</time>
      </trkpt>
      <trkpt lat="43.53291" lon="5.51821">
        <ele>246</ele>
        <time>2018-02-20T10:20:57.000Z</time>
      </trkpt>
      <trkpt lat="43.53292" lon="5.51822">
        <ele>246</ele>
        <time>2018-02-20T10:20:58.000Z</time>
      </trkpt>
      <trkpt lat="43.53293" lon="5.51823">
        <ele>246</ele>
        <time>2018-02-20T10:20:59.000Z</time>
      </trkpt>
      <trkpt lat="43.53294" lon="5.51824">
        <ele>246</ele>
        <time>2018-02-20T10:21:00.000Z</time>
      </trkpt>
      <trkpt lat="43.53295" lon="5.51825">
        <ele>246</ele>
        <time>2018-02-20T10:21:01.000Z</time>
      </trkpt>
      <trkpt lat="43.53296" lon="5.51826">
        <ele>246</ele>
        <time>2018-02-20T10:21:02.000Z</time>
      </trkpt>
      <trkpt lat="43.53298" lon="5.51827">
        <ele>246</ele>
        <time>2018-02-20T10:21:03.000Z</time>
      </trkpt>
      <trkpt lat="43.53299" lon="5.51827">
        <ele>246</ele>
        <time>2018-02-20T10:21:04.000Z</time>
      </trkpt>
      <trkpt lat="43.533" lon="5.51828">
        <ele>246</ele>
        <time>2018-02-20T10:21:05.000Z</time>
      </trkpt>
      <trkpt lat="43.53302" lon="5.51829">
        <ele>246</ele>
        <time>2018-02-20T10:21:06.000Z</time>
      </trkpt>
      <trkpt lat="43.53303" lon="5.5183">
        <ele>246</ele>
        <time>2018-02-20T10:21:07.000Z</time>
      </trkpt>
      <trkpt lat="43.53304" lon="5.51831">
        <ele>246</ele>
        <time>2018-02-20T10:21:08.000Z</time>
      </trkpt>
      <trkpt lat="43.53305" lon="5.51832">
        <ele>246</ele>
        <time>2018-02-20T10:21:09.000Z</time>
      </trkpt>
      <trkpt lat="43.53306" lon="5.51833">
        <ele>246</ele>
        <time>2018-02-20T10:21:10.000Z</time>
      </trkpt>
      <trkpt lat="43.53307" lon="5.51835">
        <ele>246</ele>
        <time>2018-02-20T10:21:11.000Z</time>
      </trkpt>
      <trkpt lat="43.53308" lon="5.51836">
        <ele>246</ele>
        <time>2018-02-20T10:21:12.000Z</time>
      </trkpt>
      <trkpt lat="43.53309" lon="5.51837">
        <ele>246</ele>
        <time>2018-02-20T10:21:13.000Z</time>
      </trkpt>
      <trkpt lat="43.5331" lon="5.51838">
        <ele>246</ele>
        <time>2018-02-20T10:21:14.000Z</time>
      </trkpt>
      <trkpt lat="43.5331" lon="5.5184">
        <ele>246</ele>
        <time>2018-02-20T10:21:15.000Z</time>
      </trkpt>
      <trkpt lat="43.5331" lon="5.51841">
        <ele>246</ele>
        <time>2018-02-20T10:21:16.000Z</time>
      </trkpt>
      <trkpt lat="43.5331" lon="5.51842">
        <ele>246</ele>
        <time>2018-02-20T10:21:17.000Z</time>
      </trkpt>
      <trkpt lat="43.5331" lon="5.51843">
        <ele>246</ele>
        <time>2018-02-20T10:21:18.000Z</time>
      </trkpt>
      <trkpt lat="43.5331" lon="5.51843">
        <ele>246</ele>
        <time>2018-02-20T10:21:19.000Z</time>
      </trkpt>
      <trkpt lat="43.5331" lon="5.51843">
        <ele>246</ele>
        <time>2018-02-20T10:21:20.000Z</time>
      </trkpt>
      <trkpt lat="43.5331" lon="5.51843">
        <ele>246</ele>
        <time>2018-02-20T10:21:21.000Z</time>
      </trkpt>
      <trkpt lat="43.5331" lon="5.51843">
        <ele>245</ele>
        <time>2018-02-20T10:21:22.000Z</time>
      </trkpt>
      <trkpt lat="43.53311" lon="5.51844">
        <ele>245</ele>
        <time>2018-02-20T10:21:23.000Z</time>
      </trkpt>
      <trkpt lat="43.53311" lon="5.51845">
        <ele>245</ele>
        <time>2018-02-20T10:21:24.000Z</time>
      </trkpt>
      <trkpt lat="43.53311" lon="5.51846">
        <ele>245</ele>
        <time>2018-02-20T10:21:25.000Z</time>
      </trkpt>
      <trkpt lat="43.53312" lon="5.51847">
        <ele>245</ele>
        <time>2018-02-20T10:21:26.000Z</time>
      </trkpt>
      <trkpt lat="43.53312" lon="5.51849">
        <ele>245</ele>
        <time>2018-02-20T10:21:27.000Z</time>
      </trkpt>
      <trkpt lat="43.53312" lon="5.5185">
        <ele>244</ele>
        <time>2018-02-20T10:21:28.000Z</time>
      </trkpt>
      <trkpt lat="43.53313" lon="5.51852">
        <ele>244</ele>
        <time>2018-02-20T10:21:29.000Z</time>
      </trkpt>
      <trkpt lat="43.53313" lon="5.51854">
        <ele>244</ele>
        <time>2018-02-20T10:21:30.000Z</time>
      </trkpt>
      <trkpt lat="43.53314" lon="5.51856">
        <ele>244</ele>
        <time>2018-02-20T10:21:31.000Z</time>
      </trkpt>
      <trkpt lat="43.53314" lon="5.51857">
        <ele>243</ele>
        <time>2018-02-20T10:21:32.000Z</time>
      </trkpt>
      <trkpt lat="43.53315" lon="5.51859">
        <ele>243</ele>
        <time>2018-02-20T10:21:33.000Z</time>
      </trkpt>
      <trkpt lat="43.53316" lon="5.5186">
        <ele>243</ele>
        <time>2018-02-20T10:21:34.000Z</time>
      </trkpt>
      <trkpt lat="43.53316" lon="5.51862">
        <ele>243</ele>
        <time>2018-02-20T10:21:35.000Z</time>
      </trkpt>
      <trkpt lat="43.53317" lon="5.51863">
        <ele>243</ele>
        <time>2018-02-20T10:21:36.000Z</time>
      </trkpt>
      <trkpt lat="43.53317" lon="5.51865">
        <ele>243</ele>
        <time>2018-02-20T10:21:37.000Z</time>
      </trkpt>
      <trkpt lat="43.53318" lon="5.51866">
        <ele>243</ele>
        <time>2018-02-20T10:21:38.000Z</time>
      </trkpt>
      <trkpt lat="43.53319" lon="5.51868">
        <ele>243</ele>
        <time>2018-02-20T10:21:39.000Z</time>
      </trkpt>
      <trkpt lat="43.53319" lon="5.5187">
        <ele>243</ele>
        <time>2018-02-20T10:21:40.000Z</time>
      </trkpt>
      <trkpt lat="43.5332" lon="5.51871">
        <ele>243</ele>
        <time>2018-02-20T10:21:41.000Z</time>
      </trkpt>
      <trkpt lat="43.5332" lon="5.51872">
        <ele>243</ele>
        <time>2018-02-20T10:21:42.000Z</time>
      </trkpt>
      <trkpt lat="43.53321" lon="5.51874">
        <ele>243</ele>
        <time>2018-02-20T10:21:43.000Z</time>
      </trkpt>
      <trkpt lat="43.53321" lon="5.51875">
        <ele>243</ele>
        <time>2018-02-20T10:21:44.000Z</time>
      </trkpt>
      <trkpt lat="43.53321" lon="5.51877">
        <ele>243</ele>
        <time>2018-02-20T10:21:45.000Z</time>
      </trkpt>
      <trkpt lat="43.53321" lon="5.51878">
        <ele>244</ele>
        <time>2018-02-20T10:21:46.000Z</time>
      </trkpt>
      <trkpt lat="43.53321" lon="5.51879">
        <ele>244</ele>
        <time>2018-02-20T10:21:47.000Z</time>
      </trkpt>
      <trkpt lat="43.53321" lon="5.51881">
        <ele>244</ele>
        <time>2018-02-20T10:21:48.000Z</time>
      </trkpt>
      <trkpt lat="43.53321" lon="5.51883">
        <ele>243</ele>
        <time>2018-02-20T10:21:49.000Z</time>
      </trkpt>
      <trkpt lat="43.5332" lon="5.51885">
        <ele>243</ele>
        <time>2018-02-20T10:21:50.000Z</time>
      </trkpt>
      <trkpt lat="43.5332" lon="5.51887">
        <ele>243</ele>
        <time>2018-02-20T10:21:51.000Z</time>
      </trkpt>
      <trkpt lat="43.5332" lon="5.51888">
        <ele>243</ele>
        <time>2018-02-20T10:21:52.000Z</time>
      </trkpt>
      <trkpt lat="43.5332" lon="5.51889">
        <ele>243</ele>
        <time>2018-02-20T10:21:53.000Z</time>
      </trkpt>
      <trkpt lat="43.5332" lon="5.5189">
        <ele>243</ele>
        <time>2018-02-20T10:21:54.000Z</time>
      </trkpt>
      <trkpt lat="43.5332" lon="5.51892">
        <ele>242</ele>
        <time>2018-02-20T10:21:55.000Z</time>
      </trkpt>
      <trkpt lat="43.5332" lon="5.51894">
        <ele>242</ele>
        <time>2018-02-20T10:21:56.000Z</time>
      </trkpt>
      <trkpt lat="43.53321" lon="5.51896">
        <ele>242</ele>
        <time>2018-02-20T10:21:57.000Z</time>
      </trkpt>
      <trkpt lat="43.53321" lon="5.51897">
        <ele>242</ele>
        <time>2018-02-20T10:21:58.000Z</time>
      </trkpt>
      <trkpt lat="43.53321" lon="5.51899">
        <ele>242</ele>
        <time>2018-02-20T10:21:59.000Z</time>
      </trkpt>
      <trkpt lat="43.53321" lon="5.51901">
        <ele>242</ele>
        <time>2018-02-20T10:22:00.000Z</time>
      </trkpt>
      <trkpt lat="43.53321" lon="5.51902">
        <ele>242</ele>
        <time>2018-02-20T10:22:01.000Z</time>
      </trkpt>
      <trkpt lat="43.53322" lon="5.51904">
        <ele>242</ele>
        <time>2018-02-20T10:22:02.000Z</time>
      </trkpt>
      <trkpt lat="43.53322" lon="5.51906">
        <ele>242</ele>
        <time>2018-02-20T10:22:03.000Z</time>
      </trkpt>
      <trkpt lat="43.53322" lon="5.51908">
        <ele>242</ele>
        <time>2018-02-20T10:22:04.000Z</time>
      </trkpt>
      <trkpt lat="43.53323" lon="5.51909">
        <ele>242</ele>
        <time>2018-02-20T10:22:05.000Z</time>
      </trkpt>
      <trkpt lat="43.53323" lon="5.51911">
        <ele>242</ele>
        <time>2018-02-20T10:22:06.000Z</time>
      </trkpt>
      <trkpt lat="43.53324" lon="5.51913">
        <ele>242</ele>
        <time>2018-02-20T10:22:07.000Z</time>
      </trkpt>
      <trkpt lat="43.53324" lon="5.51914">
        <ele>242</ele>
        <time>2018-02-20T10:22:08.000Z</time>
      </trkpt>
      <trkpt lat="43.53324" lon="5.51915">
        <ele>242</ele>
        <time>2018-02-20T10:22:09.000Z</time>
      </trkpt>
      <trkpt lat="43.53324" lon="5.51917">
        <ele>242</ele>
        <time>2018-02-20T10:22:10.000Z</time>
      </trkpt>
      <trkpt lat="43.53325" lon="5.51918">
        <ele>242</ele>
        <time>2018-02-20T10:22:11.000Z</time>
      </trkpt>
      <trkpt lat="43.53325" lon="5.51919">
        <ele>242</ele>
        <time>2018-02-20T10:22:12.000Z</time>
      </trkpt>
      <trkpt lat="43.53325" lon="5.5192">
        <ele>243</ele>
        <time>2018-02-20T10:22:13.000Z</time>
      </trkpt>
      <trkpt lat="43.53325" lon="5.51922">
        <ele>243</ele>
        <time>2018-02-20T10:22:14.000Z</time>
      </trkpt>
      <trkpt lat="43.53326" lon="5.51923">
        <ele>243</ele>
        <time>2018-02-20T10:22:15.000Z</time>
      </trkpt>
      <trkpt lat="43.53326" lon="5.51924">
        <ele>243</ele>
        <time>2018-02-20T10:22:16.000Z</time>
      </trkpt>
      <trkpt lat="43.53327" lon="5.51925">
        <ele>243</ele>
        <time>2018-02-20T10:22:17.000Z</time>
      </trkpt>
      <trkpt lat="43.53327" lon="5.51927">
        <ele>243</ele>
        <time>2018-02-20T10:22:18.000Z</time>
      </trkpt>
      <trkpt lat="43.53328" lon="5.51928">
        <ele>243</ele>
        <time>2018-02-20T10:22:19.000Z</time>
      </trkpt>
      <trkpt lat="43.53328" lon="5.5193">
        <ele>243</ele>
        <time>2018-02-20T10:22:20.000Z</time>
      </trkpt>
      <trkpt lat="43.53329" lon="5.51931">
        <ele>243</ele>
        <time>2018-02-20T10:22:21.000Z</time>
      </trkpt>
      <trkpt lat="43.53329" lon="5.51932">
        <ele>243</ele>
        <time>2018-02-20T10:22:22.000Z</time>
      </trkpt>
      <trkpt lat="43.5333" lon="5.51934">
        <ele>243</ele>
        <time>2018-02-20T10:22:23.000Z</time>
      </trkpt>
      <trkpt lat="43.5333" lon="5.51935">
        <ele>243</ele>
        <time>2018-02-20T10:22:24.000Z</time>
      </trkpt>
      <trkpt lat="43.5333" lon="5.51936">
        <ele>243</ele>
        <time>2018-02-20T10:22:25.000Z</time>
      </trkpt>
      <trkpt lat="43.53331" lon="5.51937">
        <ele>243</ele>
        <time>2018-02-20T10:22:26.000Z</time>
      </trkpt>
      <trkpt lat="43.53331" lon="5.51939">
        <ele>243</ele>
        <time>2018-02-20T10:22:27.000Z</time>
      </trkpt>
      <trkpt lat="43.53332" lon="5.5194">
        <ele>243</ele>
        <time>2018-02-20T10:22:28.000Z</time>
      </trkpt>
      <trkpt lat="43.53333" lon="5.51941">
        <ele>243</ele>
        <time>2018-02-20T10:22:29.000Z</time>
      </trkpt>
      <trkpt lat="43.53333" lon="5.51943">
        <ele>243</ele>
        <time>2018-02-20T10:22:30.000Z</time>
      </trkpt>
      <trkpt lat="43.53334" lon="5.51944">
        <ele>243</ele>
        <time>2018-02-20T10:22:31.000Z</time>
      </trkpt>
      <trkpt lat="43.53334" lon="5.51945">
        <ele>243</ele>
        <time>2018-02-20T10:22:32.000Z</time>
      </trkpt>
      <trkpt lat="43.53335" lon="5.51947">
        <ele>243</ele>
        <time>2018-02-20T10:22:33.000Z</time>
      </trkpt>
      <trkpt lat="43.53335" lon="5.51948">
        <ele>243</ele>
        <time>2018-02-20T10:22:34.000Z</time>
      </trkpt>
      <trkpt lat="43.53336" lon="5.5195">
        <ele>243</ele>
        <time>2018-02-20T10:22:35.000Z</time>
      </trkpt>
      <trkpt lat="43.53336" lon="5.51951">
        <ele>243</ele>
        <time>2018-02-20T10:22:36.000Z</time>
      </trkpt>
      <trkpt lat="43.53336" lon="5.51952">
        <ele>243</ele>
        <time>2018-02-20T10:22:37.000Z</time>
      </trkpt>
      <trkpt lat="43.53337" lon="5.51953">
        <ele>242</ele>
        <time>2018-02-20T10:22:38.000Z</time>
      </trkpt>
      <trkpt lat="43.53337" lon="5.51954">
        <ele>242</ele>
        <time>2018-02-20T10:22:39.000Z</time>
      </trkpt>
      <trkpt lat="43.53337" lon="5.51955">
        <ele>242</ele>
        <time>2018-02-20T10:22:40.000Z</time>
      </trkpt>
      <trkpt lat="43.53337" lon="5.51956">
        <ele>242</ele>
        <time>2018-02-20T10:22:41.000Z</time>
      </trkpt>
      <trkpt lat="43.53337" lon="5.51956">
        <ele>242</ele>
        <time>2018-02-20T10:22:42.000Z</time>
      </trkpt>
      <trkpt lat="43.53338" lon="5.51957">
        <ele>241</ele>
        <time>2018-02-20T10:22:43.000Z</time>
      </trkpt>
      <trkpt lat="43.53338" lon="5.51958">
        <ele>241</ele>
        <time>2018-02-20T10:22:44.000Z</time>
      </trkpt>
      <trkpt lat="43.53338" lon="5.51959">
        <ele>241</ele>
        <time>2018-02-20T10:22:45.000Z</time>
      </trkpt>
      <trkpt lat="43.53338" lon="5.5196">
        <ele>241</ele>
        <time>2018-02-20T10:22:46.000Z</time>
      </trkpt>
      <trkpt lat="43.53339" lon="5.51962">
        <ele>241</ele>
        <time>2018-02-20T10:22:47.000Z</time>
      </trkpt>
      <trkpt lat="43.53339" lon="5.51963">
        <ele>240</ele>
        <time>2018-02-20T10:22:48.000Z</time>
      </trkpt>
      <trkpt lat="43.5334" lon="5.51964">
        <ele>240</ele>
        <time>2018-02-20T10:22:49.000Z</time>
      </trkpt>
      <trkpt lat="43.5334" lon="5.51966">
        <ele>240</ele>
        <time>2018-02-20T10:22:50.000Z</time>
      </trkpt>
      <trkpt lat="43.5334" lon="5.51967">
        <ele>240</ele>
        <time>2018-02-20T10:22:51.000Z</time>
      </trkpt>
      <trkpt lat="43.5334" lon="5.51968">
        <ele>240</ele>
        <time>2018-02-20T10:22:52.000Z</time>
      </trkpt>
      <trkpt lat="43.5334" lon="5.5197">
        <ele>239</ele>
        <time>2018-02-20T10:22:53.000Z</time>
      </trkpt>
      <trkpt lat="43.5334" lon="5.51971">
        <ele>239</ele>
        <time>2018-02-20T10:22:54.000Z</time>
      </trkpt>
      <trkpt lat="43.5334" lon="5.51973">
        <ele>239</ele>
        <time>2018-02-20T10:22:55.000Z</time>
      </trkpt>
      <trkpt lat="43.5334" lon="5.51974">
        <ele>239</ele>
        <time>2018-02-20T10:22:56.000Z</time>
      </trkpt>
      <trkpt lat="43.5334" lon="5.51976">
        <ele>239</ele>
        <time>2018-02-20T10:22:57.000Z</time>
      </trkpt>
      <trkpt lat="43.5334" lon="5.51978">
        <ele>238</ele>
        <time>2018-02-20T10:22:58.000Z</time>
      </trkpt>
      <trkpt lat="43.53341" lon="5.5198">
        <ele>238</ele>
        <time>2018-02-20T10:22:59.000Z</time>
      </trkpt>
      <trkpt lat="43.53341" lon="5.51982">
        <ele>238</ele>
        <time>2018-02-20T10:23:00.000Z</time>
      </trkpt>
      <trkpt lat="43.53341" lon="5.51983">
        <ele>238</ele>
        <time>2018-02-20T10:23:01.000Z</time>
      </trkpt>
      <trkpt lat="43.5334" lon="5.51985">
        <ele>238</ele>
        <time>2018-02-20T10:23:02.000Z</time>
      </trkpt>
      <trkpt lat="43.5334" lon="5.51987">
        <ele>238</ele>
        <time>2018-02-20T10:23:03.000Z</time>
      </trkpt>
      <trkpt lat="43.5334" lon="5.51988">
        <ele>238</ele>
        <time>2018-02-20T10:23:04.000Z</time>
      </trkpt>
      <trkpt lat="43.5334" lon="5.5199">
        <ele>238</ele>
        <time>2018-02-20T10:23:05.000Z</time>
      </trkpt>
      <trkpt lat="43.5334" lon="5.51992">
        <ele>238</ele>
        <time>2018-02-20T10:23:06.000Z</time>
      </trkpt>
      <trkpt lat="43.5334" lon="5.51994">
        <ele>237</ele>
        <time>2018-02-20T10:23:07.000Z</time>
      </trkpt>
      <trkpt lat="43.5334" lon="5.51995">
        <ele>237</ele>
        <time>2018-02-20T10:23:08.000Z</time>
      </trkpt>
      <trkpt lat="43.5334" lon="5.51996">
        <ele>238</ele>
        <time>2018-02-20T10:23:09.000Z</time>
      </trkpt>
      <trkpt lat="43.53339" lon="5.51998">
        <ele>238</ele>
        <time>2018-02-20T10:23:10.000Z</time>
      </trkpt>
      <trkpt lat="43.53339" lon="5.51999">
        <ele>238</ele>
        <time>2018-02-20T10:23:11.000Z</time>
      </trkpt>
      <trkpt lat="43.53338" lon="5.52001">
        <ele>238</ele>
        <time>2018-02-20T10:23:12.000Z</time>
      </trkpt>
      <trkpt lat="43.53337" lon="5.52002">
        <ele>238</ele>
        <time>2018-02-20T10:23:13.000Z</time>
      </trkpt>
      <trkpt lat="43.53337" lon="5.52003">
        <ele>238</ele>
        <time>2018-02-20T10:23:14.000Z</time>
      </trkpt>
      <trkpt lat="43.53336" lon="5.52004">
        <ele>238</ele>
        <time>2018-02-20T10:23:15.000Z</time>
      </trkpt>
      <trkpt lat="43.53335" lon="5.52005">
        <ele>239</ele>
        <time>2018-02-20T10:23:16.000Z</time>
      </trkpt>
      <trkpt lat="43.53334" lon="5.52006">
        <ele>239</ele>
        <time>2018-02-20T10:23:17.000Z</time>
      </trkpt>
      <trkpt lat="43.53334" lon="5.52007">
        <ele>239</ele>
        <time>2018-02-20T10:23:18.000Z</time>
      </trkpt>
      <trkpt lat="43.53333" lon="5.52007">
        <ele>239</ele>
        <time>2018-02-20T10:23:19.000Z</time>
      </trkpt>
      <trkpt lat="43.53332" lon="5.52008">
        <ele>239</ele>
        <time>2018-02-20T10:23:20.000Z</time>
      </trkpt>
      <trkpt lat="43.53331" lon="5.52008">
        <ele>239</ele>
        <time>2018-02-20T10:23:21.000Z</time>
      </trkpt>
      <trkpt lat="43.5333" lon="5.52009">
        <ele>239</ele>
        <time>2018-02-20T10:23:22.000Z</time>
      </trkpt>
      <trkpt lat="43.53329" lon="5.5201">
        <ele>239</ele>
        <time>2018-02-20T10:23:23.000Z</time>
      </trkpt>
      <trkpt lat="43.53328" lon="5.5201">
        <ele>239</ele>
        <time>2018-02-20T10:23:24.000Z</time>
      </trkpt>
      <trkpt lat="43.53327" lon="5.52011">
        <ele>239</ele>
        <time>2018-02-20T10:23:25.000Z</time>
      </trkpt>
      <trkpt lat="43.53326" lon="5.52012">
        <ele>239</ele>
        <time>2018-02-20T10:23:26.000Z</time>
      </trkpt>
      <trkpt lat="43.53326" lon="5.52013">
        <ele>240</ele>
        <time>2018-02-20T10:23:27.000Z</time>
      </trkpt>
      <trkpt lat="43.53325" lon="5.52014">
        <ele>240</ele>
        <time>2018-02-20T10:23:28.000Z</time>
      </trkpt>
      <trkpt lat="43.53324" lon="5.52015">
        <ele>240</ele>
        <time>2018-02-20T10:23:29.000Z</time>
      </trkpt>
      <trkpt lat="43.53323" lon="5.52016">
        <ele>240</ele>
        <time>2018-02-20T10:23:30.000Z</time>
      </trkpt>
      <trkpt lat="43.53322" lon="5.52017">
        <ele>240</ele>
        <time>2018-02-20T10:23:31.000Z</time>
      </trkpt>
      <trkpt lat="43.53322" lon="5.52018">
        <ele>241</ele>
        <time>2018-02-20T10:23:32.000Z</time>
      </trkpt>
      <trkpt lat="43.53321" lon="5.5202">
        <ele>241</ele>
        <time>2018-02-20T10:23:33.000Z</time>
      </trkpt>
      <trkpt lat="43.5332" lon="5.52021">
        <ele>241</ele>
        <time>2018-02-20T10:23:34.000Z</time>
      </trkpt>
      <trkpt lat="43.5332" lon="5.52022">
        <ele>241</ele>
        <time>2018-02-20T10:23:35.000Z</time>
      </trkpt>
      <trkpt lat="43.53319" lon="5.52023">
        <ele>241</ele>
        <time>2018-02-20T10:23:36.000Z</time>
      </trkpt>
      <trkpt lat="43.53318" lon="5.52024">
        <ele>241</ele>
        <time>2018-02-20T10:23:37.000Z</time>
      </trkpt>
      <trkpt lat="43.53317" lon="5.52025">
        <ele>241</ele>
        <time>2018-02-20T10:23:38.000Z</time>
      </trkpt>
      <trkpt lat="43.53317" lon="5.52025">
        <ele>241</ele>
        <time>2018-02-20T10:23:39.000Z</time>
      </trkpt>
      <trkpt lat="43.53317" lon="5.52025">
        <ele>241</ele>
        <time>2018-02-20T10:23:40.000Z</time>
      </trkpt>
      <trkpt lat="43.53316" lon="5.52026">
        <ele>241</ele>
        <time>2018-02-20T10:23:41.000Z</time>
      </trkpt>
      <trkpt lat="43.53316" lon="5.52027">
        <ele>242</ele>
        <time>2018-02-20T10:23:42.000Z</time>
      </trkpt>
      <trkpt lat="43.53316" lon="5.52028">
        <ele>242</ele>
        <time>2018-02-20T10:23:43.000Z</time>
      </trkpt>
      <trkpt lat="43.53315" lon="5.52029">
        <ele>242</ele>
        <time>2018-02-20T10:23:44.000Z</time>
      </trkpt>
      <trkpt lat="43.53315" lon="5.52031">
        <ele>242</ele>
        <time>2018-02-20T10:23:45.000Z</time>
      </trkpt>
      <trkpt lat="43.53314" lon="5.52032">
        <ele>242</ele>
        <time>2018-02-20T10:23:46.000Z</time>
      </trkpt>
      <trkpt lat="43.53314" lon="5.52034">
        <ele>242</ele>
        <time>2018-02-20T10:23:47.000Z</time>
      </trkpt>
      <trkpt lat="43.53313" lon="5.52035">
        <ele>242</ele>
        <time>2018-02-20T10:23:48.000Z</time>
      </trkpt>
      <trkpt lat="43.53313" lon="5.52036">
        <ele>242</ele>
        <time>2018-02-20T10:23:49.000Z</time>
      </trkpt>
      <trkpt lat="43.53312" lon="5.52038">
        <ele>242</ele>
        <time>2018-02-20T10:23:50.000Z</time>
      </trkpt>
      <trkpt lat="43.53312" lon="5.5204">
        <ele>243</ele>
        <time>2018-02-20T10:23:51.000Z</time>
      </trkpt>
      <trkpt lat="43.53312" lon="5.52042">
        <ele>243</ele>
        <time>2018-02-20T10:23:52.000Z</time>
      </trkpt>
      <trkpt lat="43.53311" lon="5.52044">
        <ele>243</ele>
        <time>2018-02-20T10:23:53.000Z</time>
      </trkpt>
      <trkpt lat="43.53311" lon="5.52045">
        <ele>243</ele>
        <time>2018-02-20T10:23:54.000Z</time>
      </trkpt>
      <trkpt lat="43.5331" lon="5.52046">
        <ele>243</ele>
        <time>2018-02-20T10:23:55.000Z</time>
      </trkpt>
      <trkpt lat="43.53309" lon="5.52046">
        <ele>243</ele>
        <time>2018-02-20T10:23:56.000Z</time>
      </trkpt>
      <trkpt lat="43.53308" lon="5.52047">
        <ele>243</ele>
        <time>2018-02-20T10:23:57.000Z</time>
      </trkpt>
      <trkpt lat="43.53307" lon="5.52048">
        <ele>243</ele>
        <time>2018-02-20T10:23:58.000Z</time>
      </trkpt>
      <trkpt lat="43.53306" lon="5.52049">
        <ele>243</ele>
        <time>2018-02-20T10:23:59.000Z</time>
      </trkpt>
      <trkpt lat="43.53306" lon="5.52051">
        <ele>244</ele>
        <time>2018-02-20T10:24:00.000Z</time>
      </trkpt>
      <trkpt lat="43.53305" lon="5.52052">
        <ele>244</ele>
        <time>2018-02-20T10:24:01.000Z</time>
      </trkpt>
      <trkpt lat="43.53305" lon="5.52054">
        <ele>244</ele>
        <time>2018-02-20T10:24:02.000Z</time>
      </trkpt>
      <trkpt lat="43.53304" lon="5.52055">
        <ele>244</ele>
        <time>2018-02-20T10:24:03.000Z</time>
      </trkpt>
      <trkpt lat="43.53303" lon="5.52057">
        <ele>244</ele>
        <time>2018-02-20T10:24:04.000Z</time>
      </trkpt>
      <trkpt lat="43.53303" lon="5.52058">
        <ele>244</ele>
        <time>2018-02-20T10:24:05.000Z</time>
      </trkpt>
      <trkpt lat="43.53302" lon="5.52059">
        <ele>245</ele>
        <time>2018-02-20T10:24:06.000Z</time>
      </trkpt>
      <trkpt lat="43.53301" lon="5.5206">
        <ele>245</ele>
        <time>2018-02-20T10:24:07.000Z</time>
      </trkpt>
      <trkpt lat="43.533" lon="5.52061">
        <ele>245</ele>
        <time>2018-02-20T10:24:08.000Z</time>
      </trkpt>
      <trkpt lat="43.533" lon="5.52063">
        <ele>245</ele>
        <time>2018-02-20T10:24:09.000Z</time>
      </trkpt>
      <trkpt lat="43.53299" lon="5.52064">
        <ele>245</ele>
        <time>2018-02-20T10:24:10.000Z</time>
      </trkpt>
      <trkpt lat="43.53299" lon="5.52065">
        <ele>245</ele>
        <time>2018-02-20T10:24:11.000Z</time>
      </trkpt>
      <trkpt lat="43.53298" lon="5.52066">
        <ele>245</ele>
        <time>2018-02-20T10:24:12.000Z</time>
      </trkpt>
      <trkpt lat="43.53298" lon="5.52068">
        <ele>245</ele>
        <time>2018-02-20T10:24:13.000Z</time>
      </trkpt>
      <trkpt lat="43.53297" lon="5.52069">
        <ele>245</ele>
        <time>2018-02-20T10:24:14.000Z</time>
      </trkpt>
      <trkpt lat="43.53297" lon="5.5207">
        <ele>245</ele>
        <time>2018-02-20T10:24:15.000Z</time>
      </trkpt>
      <trkpt lat="43.53297" lon="5.52071">
        <ele>245</ele>
        <time>2018-02-20T10:24:16.000Z</time>
      </trkpt>
      <trkpt lat="43.53297" lon="5.52072">
        <ele>245</ele>
        <time>2018-02-20T10:24:17.000Z</time>
      </trkpt>
      <trkpt lat="43.53298" lon="5.52073">
        <ele>245</ele>
        <time>2018-02-20T10:24:18.000Z</time>
      </trkpt>
      <trkpt lat="43.53298" lon="5.52075">
        <ele>245</ele>
        <time>2018-02-20T10:24:19.000Z</time>
      </trkpt>
      <trkpt lat="43.53297" lon="5.52076">
        <ele>245</ele>
        <time>2018-02-20T10:24:20.000Z</time>
      </trkpt>
      <trkpt lat="43.53297" lon="5.52077">
        <ele>245</ele>
        <time>2018-02-20T10:24:21.000Z</time>
      </trkpt>
      <trkpt lat="43.53297" lon="5.52078">
        <ele>245</ele>
        <time>2018-02-20T10:24:22.000Z</time>
      </trkpt>
      <trkpt lat="43.53298" lon="5.52081">
        <ele>245</ele>
        <time>2018-02-20T10:24:23.000Z</time>
      </trkpt>
      <trkpt lat="43.53298" lon="5.52082">
        <ele>245</ele>
        <time>2018-02-20T10:24:24.000Z</time>
      </trkpt>
      <trkpt lat="43.53298" lon="5.52083">
        <ele>245</ele>
        <time>2018-02-20T10:24:25.000Z</time>
      </trkpt>
      <trkpt lat="43.53298" lon="5.52085">
        <ele>245</ele>
        <time>2018-02-20T10:24:26.000Z</time>
      </trkpt>
      <trkpt lat="43.53298" lon="5.52086">
        <ele>246</ele>
        <time>2018-02-20T10:24:27.000Z</time>
      </trkpt>
      <trkpt lat="43.53298" lon="5.52086">
        <ele>246</ele>
        <time>2018-02-20T10:24:28.000Z</time>
      </trkpt>
      <trkpt lat="43.53298" lon="5.52086">
        <ele>246</ele>
        <time>2018-02-20T10:24:29.000Z</time>
      </trkpt>
      <trkpt lat="43.53298" lon="5.52086">
        <ele>246</ele>
        <time>2018-02-20T10:24:30.000Z</time>
      </trkpt>
      <trkpt lat="43.53298" lon="5.52086">
        <ele>246</ele>
        <time>2018-02-20T10:24:31.000Z</time>
      </trkpt>
      <trkpt lat="43.53298" lon="5.52086">
        <ele>246</ele>
        <time>2018-02-20T10:24:32.000Z</time>
      </trkpt>
      <trkpt lat="43.53298" lon="5.52086">
        <ele>246</ele>
        <time>2018-02-20T10:24:33.000Z</time>
      </trkpt>
      <trkpt lat="43.53298" lon="5.52086">
        <ele>246</ele>
        <time>2018-02-20T10:24:34.000Z</time>
      </trkpt>
      <trkpt lat="43.53298" lon="5.52086">
        <ele>246</ele>
        <time>2018-02-20T10:24:35.000Z</time>
      </trkpt>
      <trkpt lat="43.53298" lon="5.52086">
        <ele>246</ele>
        <time>2018-02-20T10:24:36.000Z</time>
      </trkpt>
      <trkpt lat="43.53298" lon="5.52086">
        <ele>246</ele>
        <time>2018-02-20T10:24:37.000Z</time>
      </trkpt>
      <trkpt lat="43.53298" lon="5.52086">
        <ele>246</ele>
        <time>2018-02-20T10:24:38.000Z</time>
      </trkpt>
      <trkpt lat="43.53298" lon="5.52085">
        <ele>246</ele>
        <time>2018-02-20T10:24:39.000Z</time>
      </trkpt>
      <trkpt lat="43.53298" lon="5.52085">
        <ele>246</ele>
        <time>2018-02-20T10:24:40.000Z</time>
      </trkpt>
      <trkpt lat="43.53298" lon="5.52086">
        <ele>246</ele>
        <time>2018-02-20T10:24:41.000Z</time>
      </trkpt>
      <trkpt lat="43.53298" lon="5.52085">
        <ele>246</ele>
        <time>2018-02-20T10:24:42.000Z</time>
      </trkpt>
      <trkpt lat="43.53298" lon="5.52085">
        <ele>247</ele>
        <time>2018-02-20T10:24:43.000Z</time>
      </trkpt>
      <trkpt lat="43.53298" lon="5.52085">
        <ele>246</ele>
        <time>2018-02-20T10:24:44.000Z</time>
      </trkpt>
      <trkpt lat="43.53298" lon="5.52085">
        <ele>246</ele>
        <time>2018-02-20T10:24:45.000Z</time>
      </trkpt>
      <trkpt lat="43.53298" lon="5.52085">
        <ele>246</ele>
        <time>2018-02-20T10:24:46.000Z</time>
      </trkpt>
      <trkpt lat="43.53298" lon="5.52085">
        <ele>246</ele>
        <time>2018-02-20T10:24:47.000Z</time>
      </trkpt>
      <trkpt lat="43.53298" lon="5.52085">
        <ele>246</ele>
        <time>2018-02-20T10:24:48.000Z</time>
      </trkpt>
      <trkpt lat="43.53298" lon="5.52085">
        <ele>246</ele>
        <time>2018-02-20T10:24:49.000Z</time>
      </trkpt>
      <trkpt lat="43.53298" lon="5.52085">
        <ele>247</ele>
        <time>2018-02-20T10:24:50.000Z</time>
      </trkpt>
      <trkpt lat="43.53298" lon="5.52085">
        <ele>247</ele>
        <time>2018-02-20T10:24:51.000Z</time>
      </trkpt>
      <trkpt lat="43.53298" lon="5.52085">
        <ele>247</ele>
        <time>2018-02-20T10:24:52.000Z</time>
      </trkpt>
      <trkpt lat="43.53298" lon="5.52085">
        <ele>247</ele>
        <time>2018-02-20T10:24:53.000Z</time>
      </trkpt>
      <trkpt lat="43.53298" lon="5.52085">
        <ele>247</ele>
        <time>2018-02-20T10:24:54.000Z</time>
      </trkpt>
      <trkpt lat="43.53298" lon="5.52085">
        <ele>247</ele>
        <time>2018-02-20T10:24:55.000Z</time>
      </trkpt>
      <trkpt lat="43.53298" lon="5.52085">
        <ele>247</ele>
        <time>2018-02-20T10:24:56.000Z</time>
      </trkpt>
      <trkpt lat="43.53298" lon="5.52085">
        <ele>247</ele>
        <time>2018-02-20T10:24:57.000Z</time>
      </trkpt>
      <trkpt lat="43.53298" lon="5.52085">
        <ele>247</ele>
        <time>2018-02-20T10:24:58.000Z</time>
      </trkpt>
      <trkpt lat="43.53298" lon="5.52085">
        <ele>247</ele>
        <time>2018-02-20T10:24:59.000Z</time>
      </trkpt>
      <trkpt lat="43.53298" lon="5.52085">
        <ele>247</ele>
        <time>2018-02-20T10:25:00.000Z</time>
      </trkpt>
      <trkpt lat="43.53298" lon="5.52085">
        <ele>247</ele>
        <time>2018-02-20T10:25:01.000Z</time>
      </trkpt>
      <trkpt lat="43.53298" lon="5.52085">
        <ele>247</ele>
        <time>2018-02-20T10:25:02.000Z</time>
      </trkpt>
      <trkpt lat="43.53298" lon="5.52085">
        <ele>247</ele>
        <time>2018-02-20T10:25:03.000Z</time>
      </trkpt>
      <trkpt lat="43.53298" lon="5.52085">
        <ele>247</ele>
        <time>2018-02-20T10:25:04.000Z</time>
      </trkpt>
      <trkpt lat="43.53298" lon="5.52085">
        <ele>247</ele>
        <time>2018-02-20T10:25:05.000Z</time>
      </trkpt>
      <trkpt lat="43.53298" lon="5.52085">
        <ele>247</ele>
        <time>2018-02-20T10:25:06.000Z</time>
      </trkpt>
      <trkpt lat="43.53298" lon="5.52085">
        <ele>247</ele>
        <time>2018-02-20T10:25:07.000Z</time>
      </trkpt>
      <trkpt lat="43.53298" lon="5.52085">
        <ele>247</ele>
        <time>2018-02-20T10:25:08.000Z</time>
      </trkpt>
      <trkpt lat="43.53298" lon="5.52085">
        <ele>247</ele>
        <time>2018-02-20T10:25:09.000Z</time>
      </trkpt>
      <trkpt lat="43.53298" lon="5.52085">
        <ele>247</ele>
        <time>2018-02-20T10:25:10.000Z</time>
      </trkpt>
      <trkpt lat="43.53298" lon="5.52085">
        <ele>247</ele>
        <time>2018-02-20T10:25:11.000Z</time>
      </trkpt>
      <trkpt lat="43.53298" lon="5.52085">
        <ele>247</ele>
        <time>2018-02-20T10:25:12.000Z</time>
      </trkpt>
      <trkpt lat="43.53298" lon="5.52085">
        <ele>247</ele>
        <time>2018-02-20T10:25:13.000Z</time>
      </trkpt>
      <trkpt lat="43.53298" lon="5.52085">
        <ele>247</ele>
        <time>2018-02-20T10:25:14.000Z</time>
      </trkpt>
      <trkpt lat="43.53298" lon="5.52085">
        <ele>247</ele>
        <time>2018-02-20T10:25:15.000Z</time>
      </trkpt>
      <trkpt lat="43.53298" lon="5.52085">
        <ele>247</ele>
        <time>2018-02-20T10:25:16.000Z</time>
      </trkpt>
      <trkpt lat="43.53298" lon="5.52085">
        <ele>247</ele>
        <time>2018-02-20T10:25:17.000Z</time>
      </trkpt>
      <trkpt lat="43.53298" lon="5.52085">
        <ele>247</ele>
        <time>2018-02-20T10:25:18.000Z</time>
      </trkpt>
      <trkpt lat="43.53298" lon="5.52085">
        <ele>247</ele>
        <time>2018-02-20T10:25:19.000Z</time>
      </trkpt>
      <trkpt lat="43.53298" lon="5.52085">
        <ele>247</ele>
        <time>2018-02-20T10:25:20.000Z</time>
      </trkpt>
      <trkpt lat="43.53298" lon="5.52085">
        <ele>247</ele>
        <time>2018-02-20T10:25:21.000Z</time>
      </trkpt>
      <trkpt lat="43.53298" lon="5.52085">
        <ele>247</ele>
        <time>2018-02-20T10:25:22.000Z</time>
      </trkpt>
      <trkpt lat="43.53298" lon="5.52085">
        <ele>247</ele>
        <time>2018-02-20T10:25:23.000Z</time>
      </trkpt>
      <trkpt lat="43.53298" lon="5.52085">
        <ele>247</ele>
        <time>2018-02-20T10:25:24.000Z</time>
      </trkpt>
      <trkpt lat="43.53298" lon="5.52085">
        <ele>247</ele>
        <time>2018-02-20T10:25:25.000Z</time>
      </trkpt>
      <trkpt lat="43.53298" lon="5.52085">
        <ele>247</ele>
        <time>2018-02-20T10:25:26.000Z</time>
      </trkpt>
      <trkpt lat="43.53298" lon="5.52085">
        <ele>247</ele>
        <time>2018-02-20T10:25:27.000Z</time>
      </trkpt>
      <trkpt lat="43.53299" lon="5.52085">
        <ele>247</ele>
        <time>2018-02-20T10:25:28.000Z</time>
      </trkpt>
      <trkpt lat="43.53299" lon="5.52085">
        <ele>247</ele>
        <time>2018-02-20T10:25:29.000Z</time>
      </trkpt>
      <trkpt lat="43.53299" lon="5.52085">
        <ele>247</ele>
        <time>2018-02-20T10:25:30.000Z</time>
      </trkpt>
      <trkpt lat="43.533" lon="5.52084">
        <ele>247</ele>
        <time>2018-02-20T10:25:31.000Z</time>
      </trkpt>
      <trkpt lat="43.533" lon="5.52084">
        <ele>247</ele>
        <time>2018-02-20T10:25:32.000Z</time>
      </trkpt>
      <trkpt lat="43.53301" lon="5.52084">
        <ele>248</ele>
        <time>2018-02-20T10:25:33.000Z</time>
      </trkpt>
      <trkpt lat="43.53302" lon="5.52084">
        <ele>248</ele>
        <time>2018-02-20T10:25:34.000Z</time>
      </trkpt>
      <trkpt lat="43.53302" lon="5.52085">
        <ele>248</ele>
        <time>2018-02-20T10:25:35.000Z</time>
      </trkpt>
      <trkpt lat="43.53303" lon="5.52085">
        <ele>248</ele>
        <time>2018-02-20T10:25:36.000Z</time>
      </trkpt>
      <trkpt lat="43.53303" lon="5.52085">
        <ele>248</ele>
        <time>2018-02-20T10:25:37.000Z</time>
      </trkpt>
      <trkpt lat="43.53303" lon="5.52084">
        <ele>248</ele>
        <time>2018-02-20T10:25:38.000Z</time>
      </trkpt>
      <trkpt lat="43.53304" lon="5.52084">
        <ele>248</ele>
        <time>2018-02-20T10:25:39.000Z</time>
      </trkpt>
      <trkpt lat="43.53305" lon="5.52083">
        <ele>248</ele>
        <time>2018-02-20T10:25:40.000Z</time>
      </trkpt>
      <trkpt lat="43.53305" lon="5.52083">
        <ele>248</ele>
        <time>2018-02-20T10:25:41.000Z</time>
      </trkpt>
      <trkpt lat="43.53306" lon="5.52083">
        <ele>248</ele>
        <time>2018-02-20T10:25:42.000Z</time>
      </trkpt>
      <trkpt lat="43.53306" lon="5.52082">
        <ele>249</ele>
        <time>2018-02-20T10:25:43.000Z</time>
      </trkpt>
      <trkpt lat="43.53307" lon="5.52082">
        <ele>249</ele>
        <time>2018-02-20T10:25:44.000Z</time>
      </trkpt>
      <trkpt lat="43.53308" lon="5.52081">
        <ele>249</ele>
        <time>2018-02-20T10:25:45.000Z</time>
      </trkpt>
      <trkpt lat="43.5331" lon="5.52081">
        <ele>249</ele>
        <time>2018-02-20T10:25:46.000Z</time>
      </trkpt>
      <trkpt lat="43.53311" lon="5.5208">
        <ele>249</ele>
        <time>2018-02-20T10:25:47.000Z</time>
      </trkpt>
      <trkpt lat="43.53312" lon="5.52079">
        <ele>249</ele>
        <time>2018-02-20T10:25:48.000Z</time>
      </trkpt>
      <trkpt lat="43.53313" lon="5.52078">
        <ele>249</ele>
        <time>2018-02-20T10:25:49.000Z</time>
      </trkpt>
      <trkpt lat="43.53315" lon="5.52077">
        <ele>249</ele>
        <time>2018-02-20T10:25:50.000Z</time>
      </trkpt>
      <trkpt lat="43.53316" lon="5.52076">
        <ele>249</ele>
        <time>2018-02-20T10:25:51.000Z</time>
      </trkpt>
      <trkpt lat="43.53318" lon="5.52076">
        <ele>249</ele>
        <time>2018-02-20T10:25:52.000Z</time>
      </trkpt>
      <trkpt lat="43.53319" lon="5.52076">
        <ele>249</ele>
        <time>2018-02-20T10:25:53.000Z</time>
      </trkpt>
      <trkpt lat="43.5332" lon="5.52076">
        <ele>249</ele>
        <time>2018-02-20T10:25:54.000Z</time>
      </trkpt>
      <trkpt lat="43.53321" lon="5.52076">
        <ele>249</ele>
        <time>2018-02-20T10:25:55.000Z</time>
      </trkpt>
      <trkpt lat="43.53321" lon="5.52076">
        <ele>249</ele>
        <time>2018-02-20T10:25:56.000Z</time>
      </trkpt>
      <trkpt lat="43.53322" lon="5.52076">
        <ele>249</ele>
        <time>2018-02-20T10:25:57.000Z</time>
      </trkpt>
      <trkpt lat="43.53322" lon="5.52076">
        <ele>249</ele>
        <time>2018-02-20T10:25:58.000Z</time>
      </trkpt>
      <trkpt lat="43.53322" lon="5.52076">
        <ele>249</ele>
        <time>2018-02-20T10:25:59.000Z</time>
      </trkpt>
      <trkpt lat="43.53322" lon="5.52076">
        <ele>249</ele>
        <time>2018-02-20T10:26:00.000Z</time>
      </trkpt>
      <trkpt lat="43.53322" lon="5.52076">
        <ele>249</ele>
        <time>2018-02-20T10:26:01.000Z</time>
      </trkpt>
      <trkpt lat="43.53322" lon="5.52076">
        <ele>249</ele>
        <time>2018-02-20T10:26:02.000Z</time>
      </trkpt>
      <trkpt lat="43.53322" lon="5.52075">
        <ele>249</ele>
        <time>2018-02-20T10:26:03.000Z</time>
      </trkpt>
      <trkpt lat="43.53322" lon="5.52074">
        <ele>249</ele>
        <time>2018-02-20T10:26:04.000Z</time>
      </trkpt>
      <trkpt lat="43.53322" lon="5.52073">
        <ele>249</ele>
        <time>2018-02-20T10:26:05.000Z</time>
      </trkpt>
      <trkpt lat="43.53322" lon="5.52072">
        <ele>249</ele>
        <time>2018-02-20T10:26:06.000Z</time>
      </trkpt>
      <trkpt lat="43.53322" lon="5.52072">
        <ele>249</ele>
        <time>2018-02-20T10:26:07.000Z</time>
      </trkpt>
      <trkpt lat="43.53323" lon="5.52071">
        <ele>249</ele>
        <time>2018-02-20T10:26:08.000Z</time>
      </trkpt>
      <trkpt lat="43.53324" lon="5.5207">
        <ele>249</ele>
        <time>2018-02-20T10:26:09.000Z</time>
      </trkpt>
      <trkpt lat="43.53324" lon="5.5207">
        <ele>249</ele>
        <time>2018-02-20T10:26:10.000Z</time>
      </trkpt>
      <trkpt lat="43.53325" lon="5.5207">
        <ele>249</ele>
        <time>2018-02-20T10:26:11.000Z</time>
      </trkpt>
      <trkpt lat="43.53326" lon="5.5207">
        <ele>249</ele>
        <time>2018-02-20T10:26:12.000Z</time>
      </trkpt>
      <trkpt lat="43.53326" lon="5.5207">
        <ele>249</ele>
        <time>2018-02-20T10:26:13.000Z</time>
      </trkpt>
      <trkpt lat="43.53327" lon="5.52069">
        <ele>249</ele>
        <time>2018-02-20T10:26:14.000Z</time>
      </trkpt>
      <trkpt lat="43.53328" lon="5.52068">
        <ele>249</ele>
        <time>2018-02-20T10:26:15.000Z</time>
      </trkpt>
      <trkpt lat="43.53328" lon="5.52068">
        <ele>248</ele>
        <time>2018-02-20T10:26:16.000Z</time>
      </trkpt>
      <trkpt lat="43.53329" lon="5.52067">
        <ele>248</ele>
        <time>2018-02-20T10:26:17.000Z</time>
      </trkpt>
      <trkpt lat="43.53329" lon="5.52066">
        <ele>248</ele>
        <time>2018-02-20T10:26:18.000Z</time>
      </trkpt>
      <trkpt lat="43.5333" lon="5.52065">
        <ele>248</ele>
        <time>2018-02-20T10:26:19.000Z</time>
      </trkpt>
      <trkpt lat="43.5333" lon="5.52064">
        <ele>248</ele>
        <time>2018-02-20T10:26:20.000Z</time>
      </trkpt>
      <trkpt lat="43.53331" lon="5.52063">
        <ele>247</ele>
        <time>2018-02-20T10:26:21.000Z</time>
      </trkpt>
      <trkpt lat="43.53331" lon="5.52061">
        <ele>247</ele>
        <time>2018-02-20T10:26:22.000Z</time>
      </trkpt>
      <trkpt lat="43.53332" lon="5.5206">
        <ele>247</ele>
        <time>2018-02-20T10:26:23.000Z</time>
      </trkpt>
      <trkpt lat="43.53332" lon="5.5206">
        <ele>247</ele>
        <time>2018-02-20T10:26:24.000Z</time>
      </trkpt>
      <trkpt lat="43.53332" lon="5.52061">
        <ele>247</ele>
        <time>2018-02-20T10:26:25.000Z</time>
      </trkpt>
      <trkpt lat="43.53332" lon="5.52062">
        <ele>247</ele>
        <time>2018-02-20T10:26:26.000Z</time>
      </trkpt>
      <trkpt lat="43.53332" lon="5.52063">
        <ele>247</ele>
        <time>2018-02-20T10:26:27.000Z</time>
      </trkpt>
      <trkpt lat="43.53333" lon="5.52064">
        <ele>246</ele>
        <time>2018-02-20T10:26:28.000Z</time>
      </trkpt>
      <trkpt lat="43.53333" lon="5.52065">
        <ele>246</ele>
        <time>2018-02-20T10:26:29.000Z</time>
      </trkpt>
      <trkpt lat="43.53333" lon="5.52066">
        <ele>246</ele>
        <time>2018-02-20T10:26:30.000Z</time>
      </trkpt>
      <trkpt lat="43.53333" lon="5.52067">
        <ele>246</ele>
        <time>2018-02-20T10:26:31.000Z</time>
      </trkpt>
      <trkpt lat="43.53334" lon="5.52068">
        <ele>246</ele>
        <time>2018-02-20T10:26:32.000Z</time>
      </trkpt>
      <trkpt lat="43.53334" lon="5.52069">
        <ele>246</ele>
        <time>2018-02-20T10:26:33.000Z</time>
      </trkpt>
      <trkpt lat="43.53334" lon="5.52069">
        <ele>246</ele>
        <time>2018-02-20T10:26:34.000Z</time>
      </trkpt>
      <trkpt lat="43.53334" lon="5.5207">
        <ele>246</ele>
        <time>2018-02-20T10:26:35.000Z</time>
      </trkpt>
      <trkpt lat="43.53335" lon="5.5207">
        <ele>246</ele>
        <time>2018-02-20T10:26:36.000Z</time>
      </trkpt>
      <trkpt lat="43.53335" lon="5.52071">
        <ele>246</ele>
        <time>2018-02-20T10:26:37.000Z</time>
      </trkpt>
      <trkpt lat="43.53335" lon="5.52072">
        <ele>246</ele>
        <time>2018-02-20T10:26:38.000Z</time>
      </trkpt>
      <trkpt lat="43.53336" lon="5.52073">
        <ele>246</ele>
        <time>2018-02-20T10:26:39.000Z</time>
      </trkpt>
      <trkpt lat="43.53336" lon="5.52075">
        <ele>246</ele>
        <time>2018-02-20T10:26:40.000Z</time>
      </trkpt>
      <trkpt lat="43.53336" lon="5.52076">
        <ele>246</ele>
        <time>2018-02-20T10:26:41.000Z</time>
      </trkpt>
      <trkpt lat="43.53337" lon="5.52076">
        <ele>246</ele>
        <time>2018-02-20T10:26:42.000Z</time>
      </trkpt>
      <trkpt lat="43.53337" lon="5.52077">
        <ele>246</ele>
        <time>2018-02-20T10:26:43.000Z</time>
      </trkpt>
      <trkpt lat="43.53338" lon="5.52078">
        <ele>246</ele>
        <time>2018-02-20T10:26:44.000Z</time>
      </trkpt>
      <trkpt lat="43.53338" lon="5.52078">
        <ele>245</ele>
        <time>2018-02-20T10:26:45.000Z</time>
      </trkpt>
      <trkpt lat="43.53339" lon="5.52079">
        <ele>245</ele>
        <time>2018-02-20T10:26:46.000Z</time>
      </trkpt>
      <trkpt lat="43.5334" lon="5.52079">
        <ele>245</ele>
        <time>2018-02-20T10:26:47.000Z</time>
      </trkpt>
      <trkpt lat="43.53341" lon="5.5208">
        <ele>245</ele>
        <time>2018-02-20T10:26:48.000Z</time>
      </trkpt>
      <trkpt lat="43.53341" lon="5.52081">
        <ele>245</ele>
        <time>2018-02-20T10:26:49.000Z</time>
      </trkpt>
      <trkpt lat="43.53342" lon="5.52082">
        <ele>245</ele>
        <time>2018-02-20T10:26:50.000Z</time>
      </trkpt>
      <trkpt lat="43.53342" lon="5.52084">
        <ele>245</ele>
        <time>2018-02-20T10:26:51.000Z</time>
      </trkpt>
      <trkpt lat="43.53343" lon="5.52085">
        <ele>245</ele>
        <time>2018-02-20T10:26:52.000Z</time>
      </trkpt>
      <trkpt lat="43.53344" lon="5.52086">
        <ele>245</ele>
        <time>2018-02-20T10:26:53.000Z</time>
      </trkpt>
      <trkpt lat="43.53345" lon="5.52087">
        <ele>245</ele>
        <time>2018-02-20T10:26:54.000Z</time>
      </trkpt>
      <trkpt lat="43.53345" lon="5.52088">
        <ele>246</ele>
        <time>2018-02-20T10:26:55.000Z</time>
      </trkpt>
      <trkpt lat="43.53346" lon="5.5209">
        <ele>246</ele>
        <time>2018-02-20T10:26:56.000Z</time>
      </trkpt>
      <trkpt lat="43.53347" lon="5.52091">
        <ele>246</ele>
        <time>2018-02-20T10:26:57.000Z</time>
      </trkpt>
      <trkpt lat="43.53348" lon="5.52092">
        <ele>246</ele>
        <time>2018-02-20T10:26:58.000Z</time>
      </trkpt>
      <trkpt lat="43.53348" lon="5.52093">
        <ele>246</ele>
        <time>2018-02-20T10:26:59.000Z</time>
      </trkpt>
      <trkpt lat="43.53348" lon="5.52094">
        <ele>246</ele>
        <time>2018-02-20T10:27:00.000Z</time>
      </trkpt>
      <trkpt lat="43.53349" lon="5.52096">
        <ele>246</ele>
        <time>2018-02-20T10:27:01.000Z</time>
      </trkpt>
      <trkpt lat="43.53349" lon="5.52097">
        <ele>246</ele>
        <time>2018-02-20T10:27:02.000Z</time>
      </trkpt>
      <trkpt lat="43.5335" lon="5.52099">
        <ele>246</ele>
        <time>2018-02-20T10:27:03.000Z</time>
      </trkpt>
      <trkpt lat="43.5335" lon="5.521">
        <ele>246</ele>
        <time>2018-02-20T10:27:04.000Z</time>
      </trkpt>
      <trkpt lat="43.5335" lon="5.52101">
        <ele>246</ele>
        <time>2018-02-20T10:27:05.000Z</time>
      </trkpt>
      <trkpt lat="43.5335" lon="5.52103">
        <ele>246</ele>
        <time>2018-02-20T10:27:06.000Z</time>
      </trkpt>
      <trkpt lat="43.5335" lon="5.52104">
        <ele>246</ele>
        <time>2018-02-20T10:27:07.000Z</time>
      </trkpt>
      <trkpt lat="43.5335" lon="5.52106">
        <ele>247</ele>
        <time>2018-02-20T10:27:08.000Z</time>
      </trkpt>
      <trkpt lat="43.5335" lon="5.52107">
        <ele>247</ele>
        <time>2018-02-20T10:27:09.000Z</time>
      </trkpt>
      <trkpt lat="43.5335" lon="5.52108">
        <ele>247</ele>
        <time>2018-02-20T10:27:10.000Z</time>
      </trkpt>
      <trkpt lat="43.5335" lon="5.52109">
        <ele>247</ele>
        <time>2018-02-20T10:27:11.000Z</time>
      </trkpt>
      <trkpt lat="43.5335" lon="5.52109">
        <ele>247</ele>
        <time>2018-02-20T10:27:12.000Z</time>
      </trkpt>
      <trkpt lat="43.53351" lon="5.52111">
        <ele>247</ele>
        <time>2018-02-20T10:27:13.000Z</time>
      </trkpt>
      <trkpt lat="43.53351" lon="5.52112">
        <ele>247</ele>
        <time>2018-02-20T10:27:14.000Z</time>
      </trkpt>
      <trkpt lat="43.53352" lon="5.52113">
        <ele>247</ele>
        <time>2018-02-20T10:27:15.000Z</time>
      </trkpt>
      <trkpt lat="43.53352" lon="5.52114">
        <ele>247</ele>
        <time>2018-02-20T10:27:16.000Z</time>
      </trkpt>
      <trkpt lat="43.53353" lon="5.52115">
        <ele>247</ele>
        <time>2018-02-20T10:27:17.000Z</time>
      </trkpt>
      <trkpt lat="43.53353" lon="5.52116">
        <ele>247</ele>
        <time>2018-02-20T10:27:18.000Z</time>
      </trkpt>
      <trkpt lat="43.53354" lon="5.52117">
        <ele>247</ele>
        <time>2018-02-20T10:27:19.000Z</time>
      </trkpt>
      <trkpt lat="43.53354" lon="5.52118">
        <ele>246</ele>
        <time>2018-02-20T10:27:20.000Z</time>
      </trkpt>
      <trkpt lat="43.53355" lon="5.52119">
        <ele>246</ele>
        <time>2018-02-20T10:27:21.000Z</time>
      </trkpt>
      <trkpt lat="43.53355" lon="5.5212">
        <ele>246</ele>
        <time>2018-02-20T10:27:22.000Z</time>
      </trkpt>
      <trkpt lat="43.53356" lon="5.52121">
        <ele>246</ele>
        <time>2018-02-20T10:27:23.000Z</time>
      </trkpt>
      <trkpt lat="43.53357" lon="5.52122">
        <ele>246</ele>
        <time>2018-02-20T10:27:24.000Z</time>
      </trkpt>
      <trkpt lat="43.53357" lon="5.52122">
        <ele>246</ele>
        <time>2018-02-20T10:27:25.000Z</time>
      </trkpt>
      <trkpt lat="43.53357" lon="5.52122">
        <ele>246</ele>
        <time>2018-02-20T10:27:26.000Z</time>
      </trkpt>
      <trkpt lat="43.53357" lon="5.52122">
        <ele>246</ele>
        <time>2018-02-20T10:27:27.000Z</time>
      </trkpt>
      <trkpt lat="43.53358" lon="5.52123">
        <ele>246</ele>
        <time>2018-02-20T10:27:28.000Z</time>
      </trkpt>
      <trkpt lat="43.53358" lon="5.52124">
        <ele>246</ele>
        <time>2018-02-20T10:27:29.000Z</time>
      </trkpt>
      <trkpt lat="43.53359" lon="5.52125">
        <ele>246</ele>
        <time>2018-02-20T10:27:30.000Z</time>
      </trkpt>
      <trkpt lat="43.53359" lon="5.52125">
        <ele>246</ele>
        <time>2018-02-20T10:27:31.000Z</time>
      </trkpt>
      <trkpt lat="43.5336" lon="5.52125">
        <ele>246</ele>
        <time>2018-02-20T10:27:32.000Z</time>
      </trkpt>
      <trkpt lat="43.5336" lon="5.52125">
        <ele>246</ele>
        <time>2018-02-20T10:27:33.000Z</time>
      </trkpt>
      <trkpt lat="43.53361" lon="5.52126">
        <ele>246</ele>
        <time>2018-02-20T10:27:34.000Z</time>
      </trkpt>
      <trkpt lat="43.53362" lon="5.52127">
        <ele>246</ele>
        <time>2018-02-20T10:27:35.000Z</time>
      </trkpt>
      <trkpt lat="43.53362" lon="5.52128">
        <ele>246</ele>
        <time>2018-02-20T10:27:36.000Z</time>
      </trkpt>
      <trkpt lat="43.53363" lon="5.5213">
        <ele>246</ele>
        <time>2018-02-20T10:27:37.000Z</time>
      </trkpt>
      <trkpt lat="43.53363" lon="5.52131">
        <ele>246</ele>
        <time>2018-02-20T10:27:38.000Z</time>
      </trkpt>
      <trkpt lat="43.53364" lon="5.52132">
        <ele>246</ele>
        <time>2018-02-20T10:27:39.000Z</time>
      </trkpt>
      <trkpt lat="43.53365" lon="5.52133">
        <ele>246</ele>
        <time>2018-02-20T10:27:40.000Z</time>
      </trkpt>
      <trkpt lat="43.53365" lon="5.52134">
        <ele>246</ele>
        <time>2018-02-20T10:27:41.000Z</time>
      </trkpt>
      <trkpt lat="43.53366" lon="5.52135">
        <ele>246</ele>
        <time>2018-02-20T10:27:42.000Z</time>
      </trkpt>
      <trkpt lat="43.53367" lon="5.52137">
        <ele>246</ele>
        <time>2018-02-20T10:27:43.000Z</time>
      </trkpt>
      <trkpt lat="43.53367" lon="5.52138">
        <ele>246</ele>
        <time>2018-02-20T10:27:44.000Z</time>
      </trkpt>
      <trkpt lat="43.53368" lon="5.52139">
        <ele>246</ele>
        <time>2018-02-20T10:27:45.000Z</time>
      </trkpt>
      <trkpt lat="43.53369" lon="5.5214">
        <ele>246</ele>
        <time>2018-02-20T10:27:46.000Z</time>
      </trkpt>
      <trkpt lat="43.53369" lon="5.52141">
        <ele>246</ele>
        <time>2018-02-20T10:27:47.000Z</time>
      </trkpt>
      <trkpt lat="43.5337" lon="5.52142">
        <ele>246</ele>
        <time>2018-02-20T10:27:48.000Z</time>
      </trkpt>
      <trkpt lat="43.53371" lon="5.52143">
        <ele>246</ele>
        <time>2018-02-20T10:27:49.000Z</time>
      </trkpt>
      <trkpt lat="43.53372" lon="5.52143">
        <ele>246</ele>
        <time>2018-02-20T10:27:50.000Z</time>
      </trkpt>
      <trkpt lat="43.53372" lon="5.52144">
        <ele>246</ele>
        <time>2018-02-20T10:27:51.000Z</time>
      </trkpt>
      <trkpt lat="43.53373" lon="5.52145">
        <ele>246</ele>
        <time>2018-02-20T10:27:52.000Z</time>
      </trkpt>
      <trkpt lat="43.53373" lon="5.52145">
        <ele>246</ele>
        <time>2018-02-20T10:27:53.000Z</time>
      </trkpt>
      <trkpt lat="43.53373" lon="5.52146">
        <ele>246</ele>
        <time>2018-02-20T10:27:54.000Z</time>
      </trkpt>
      <trkpt lat="43.53373" lon="5.52146">
        <ele>246</ele>
        <time>2018-02-20T10:27:55.000Z</time>
      </trkpt>
      <trkpt lat="43.53373" lon="5.52146">
        <ele>246</ele>
        <time>2018-02-20T10:27:56.000Z</time>
      </trkpt>
      <trkpt lat="43.53373" lon="5.52146">
        <ele>246</ele>
        <time>2018-02-20T10:27:57.000Z</time>
      </trkpt>
      <trkpt lat="43.53373" lon="5.52147">
        <ele>246</ele>
        <time>2018-02-20T10:27:58.000Z</time>
      </trkpt>
      <trkpt lat="43.53373" lon="5.52147">
        <ele>246</ele>
        <time>2018-02-20T10:27:59.000Z</time>
      </trkpt>
      <trkpt lat="43.53373" lon="5.52148">
        <ele>246</ele>
        <time>2018-02-20T10:28:00.000Z</time>
      </trkpt>
      <trkpt lat="43.53373" lon="5.52148">
        <ele>246</ele>
        <time>2018-02-20T10:28:01.000Z</time>
      </trkpt>
      <trkpt lat="43.53373" lon="5.52148">
        <ele>246</ele>
        <time>2018-02-20T10:28:02.000Z</time>
      </trkpt>
      <trkpt lat="43.53373" lon="5.52148">
        <ele>246</ele>
        <time>2018-02-20T10:28:03.000Z</time>
      </trkpt>
      <trkpt lat="43.53373" lon="5.52148">
        <ele>246</ele>
        <time>2018-02-20T10:28:04.000Z</time>
      </trkpt>
      <trkpt lat="43.53374" lon="5.52148">
        <ele>246</ele>
        <time>2018-02-20T10:28:05.000Z</time>
      </trkpt>
      <trkpt lat="43.53374" lon="5.52148">
        <ele>246</ele>
        <time>2018-02-20T10:28:06.000Z</time>
      </trkpt>
      <trkpt lat="43.53373" lon="5.52149">
        <ele>246</ele>
        <time>2018-02-20T10:28:07.000Z</time>
      </trkpt>
      <trkpt lat="43.53373" lon="5.52149">
        <ele>246</ele>
        <time>2018-02-20T10:28:08.000Z</time>
      </trkpt>
      <trkpt lat="43.53373" lon="5.5215">
        <ele>246</ele>
        <time>2018-02-20T10:28:09.000Z</time>
      </trkpt>
      <trkpt lat="43.53373" lon="5.5215">
        <ele>246</ele>
        <time>2018-02-20T10:28:10.000Z</time>
      </trkpt>
      <trkpt lat="43.53372" lon="5.52151">
        <ele>246</ele>
        <time>2018-02-20T10:28:11.000Z</time>
      </trkpt>
      <trkpt lat="43.53372" lon="5.52152">
        <ele>246</ele>
        <time>2018-02-20T10:28:12.000Z</time>
      </trkpt>
      <trkpt lat="43.53371" lon="5.52153">
        <ele>246</ele>
        <time>2018-02-20T10:28:13.000Z</time>
      </trkpt>
      <trkpt lat="43.53371" lon="5.52153">
        <ele>246</ele>
        <time>2018-02-20T10:28:14.000Z</time>
      </trkpt>
      <trkpt lat="43.53371" lon="5.52154">
        <ele>246</ele>
        <time>2018-02-20T10:28:15.000Z</time>
      </trkpt>
      <trkpt lat="43.5337" lon="5.52155">
        <ele>246</ele>
        <time>2018-02-20T10:28:16.000Z</time>
      </trkpt>
      <trkpt lat="43.5337" lon="5.52155">
        <ele>246</ele>
        <time>2018-02-20T10:28:17.000Z</time>
      </trkpt>
      <trkpt lat="43.53369" lon="5.52156">
        <ele>246</ele>
        <time>2018-02-20T10:28:18.000Z</time>
      </trkpt>
      <trkpt lat="43.53368" lon="5.52157">
        <ele>246</ele>
        <time>2018-02-20T10:28:19.000Z</time>
      </trkpt>
      <trkpt lat="43.53368" lon="5.52158">
        <ele>246</ele>
        <time>2018-02-20T10:28:20.000Z</time>
      </trkpt>
      <trkpt lat="43.53368" lon="5.52159">
        <ele>246</ele>
        <time>2018-02-20T10:28:21.000Z</time>
      </trkpt>
      <trkpt lat="43.53368" lon="5.52161">
        <ele>246</ele>
        <time>2018-02-20T10:28:22.000Z</time>
      </trkpt>
      <trkpt lat="43.53368" lon="5.52162">
        <ele>246</ele>
        <time>2018-02-20T10:28:23.000Z</time>
      </trkpt>
      <trkpt lat="43.53369" lon="5.52164">
        <ele>246</ele>
        <time>2018-02-20T10:28:24.000Z</time>
      </trkpt>
      <trkpt lat="43.53369" lon="5.52165">
        <ele>245</ele>
        <time>2018-02-20T10:28:25.000Z</time>
      </trkpt>
      <trkpt lat="43.53369" lon="5.52167">
        <ele>245</ele>
        <time>2018-02-20T10:28:26.000Z</time>
      </trkpt>
      <trkpt lat="43.53369" lon="5.52168">
        <ele>245</ele>
        <time>2018-02-20T10:28:27.000Z</time>
      </trkpt>
      <trkpt lat="43.5337" lon="5.5217">
        <ele>245</ele>
        <time>2018-02-20T10:28:28.000Z</time>
      </trkpt>
      <trkpt lat="43.53371" lon="5.52171">
        <ele>245</ele>
        <time>2018-02-20T10:28:29.000Z</time>
      </trkpt>
      <trkpt lat="43.53371" lon="5.52172">
        <ele>245</ele>
        <time>2018-02-20T10:28:30.000Z</time>
      </trkpt>
      <trkpt lat="43.53372" lon="5.52172">
        <ele>245</ele>
        <time>2018-02-20T10:28:31.000Z</time>
      </trkpt>
      <trkpt lat="43.53372" lon="5.52173">
        <ele>245</ele>
        <time>2018-02-20T10:28:32.000Z</time>
      </trkpt>
      <trkpt lat="43.53373" lon="5.52173">
        <ele>245</ele>
        <time>2018-02-20T10:28:33.000Z</time>
      </trkpt>
      <trkpt lat="43.53373" lon="5.52174">
        <ele>245</ele>
        <time>2018-02-20T10:28:34.000Z</time>
      </trkpt>
      <trkpt lat="43.53374" lon="5.52175">
        <ele>245</ele>
        <time>2018-02-20T10:28:35.000Z</time>
      </trkpt>
      <trkpt lat="43.53375" lon="5.52176">
        <ele>245</ele>
        <time>2018-02-20T10:28:36.000Z</time>
      </trkpt>
      <trkpt lat="43.53376" lon="5.52177">
        <ele>245</ele>
        <time>2018-02-20T10:28:37.000Z</time>
      </trkpt>
      <trkpt lat="43.53377" lon="5.52178">
        <ele>245</ele>
        <time>2018-02-20T10:28:38.000Z</time>
      </trkpt>
      <trkpt lat="43.53377" lon="5.52179">
        <ele>245</ele>
        <time>2018-02-20T10:28:39.000Z</time>
      </trkpt>
      <trkpt lat="43.53378" lon="5.5218">
        <ele>245</ele>
        <time>2018-02-20T10:28:40.000Z</time>
      </trkpt>
      <trkpt lat="43.53379" lon="5.52181">
        <ele>245</ele>
        <time>2018-02-20T10:28:41.000Z</time>
      </trkpt>
      <trkpt lat="43.5338" lon="5.52181">
        <ele>245</ele>
        <time>2018-02-20T10:28:42.000Z</time>
      </trkpt>
      <trkpt lat="43.53381" lon="5.52182">
        <ele>245</ele>
        <time>2018-02-20T10:28:43.000Z</time>
      </trkpt>
      <trkpt lat="43.53382" lon="5.52182">
        <ele>245</ele>
        <time>2018-02-20T10:28:44.000Z</time>
      </trkpt>
      <trkpt lat="43.53383" lon="5.52183">
        <ele>245</ele>
        <time>2018-02-20T10:28:45.000Z</time>
      </trkpt>
      <trkpt lat="43.53384" lon="5.52183">
        <ele>245</ele>
        <time>2018-02-20T10:28:46.000Z</time>
      </trkpt>
      <trkpt lat="43.53385" lon="5.52184">
        <ele>245</ele>
        <time>2018-02-20T10:28:47.000Z</time>
      </trkpt>
      <trkpt lat="43.53386" lon="5.52185">
        <ele>245</ele>
        <time>2018-02-20T10:28:48.000Z</time>
      </trkpt>
      <trkpt lat="43.53387" lon="5.52185">
        <ele>245</ele>
        <time>2018-02-20T10:28:49.000Z</time>
      </trkpt>
      <trkpt lat="43.53388" lon="5.52186">
        <ele>246</ele>
        <time>2018-02-20T10:28:50.000Z</time>
      </trkpt>
      <trkpt lat="43.53389" lon="5.52186">
        <ele>246</ele>
        <time>2018-02-20T10:28:51.000Z</time>
      </trkpt>
      <trkpt lat="43.5339" lon="5.52187">
        <ele>246</ele>
        <time>2018-02-20T10:28:52.000Z</time>
      </trkpt>
      <trkpt lat="43.53391" lon="5.52187">
        <ele>246</ele>
        <time>2018-02-20T10:28:53.000Z</time>
      </trkpt>
      <trkpt lat="43.53392" lon="5.52188">
        <ele>246</ele>
        <time>2018-02-20T10:28:54.000Z</time>
      </trkpt>
      <trkpt lat="43.53393" lon="5.52188">
        <ele>247</ele>
        <time>2018-02-20T10:28:55.000Z</time>
      </trkpt>
      <trkpt lat="43.53394" lon="5.52188">
        <ele>247</ele>
        <time>2018-02-20T10:28:56.000Z</time>
      </trkpt>
      <trkpt lat="43.53396" lon="5.52189">
        <ele>247</ele>
        <time>2018-02-20T10:28:57.000Z</time>
      </trkpt>
      <trkpt lat="43.53397" lon="5.5219">
        <ele>247</ele>
        <time>2018-02-20T10:28:58.000Z</time>
      </trkpt>
      <trkpt lat="43.53398" lon="5.52191">
        <ele>247</ele>
        <time>2018-02-20T10:28:59.000Z</time>
      </trkpt>
      <trkpt lat="43.53399" lon="5.52192">
        <ele>247</ele>
        <time>2018-02-20T10:29:00.000Z</time>
      </trkpt>
      <trkpt lat="43.53399" lon="5.52192">
        <ele>247</ele>
        <time>2018-02-20T10:29:01.000Z</time>
      </trkpt>
      <trkpt lat="43.534" lon="5.52193">
        <ele>247</ele>
        <time>2018-02-20T10:29:02.000Z</time>
      </trkpt>
      <trkpt lat="43.53401" lon="5.52194">
        <ele>247</ele>
        <time>2018-02-20T10:29:03.000Z</time>
      </trkpt>
      <trkpt lat="43.53402" lon="5.52196">
        <ele>247</ele>
        <time>2018-02-20T10:29:04.000Z</time>
      </trkpt>
      <trkpt lat="43.53403" lon="5.52197">
        <ele>247</ele>
        <time>2018-02-20T10:29:05.000Z</time>
      </trkpt>
      <trkpt lat="43.53404" lon="5.52198">
        <ele>247</ele>
        <time>2018-02-20T10:29:06.000Z</time>
      </trkpt>
      <trkpt lat="43.53405" lon="5.52199">
        <ele>247</ele>
        <time>2018-02-20T10:29:07.000Z</time>
      </trkpt>
      <trkpt lat="43.53405" lon="5.52199">
        <ele>247</ele>
        <time>2018-02-20T10:29:08.000Z</time>
      </trkpt>
      <trkpt lat="43.53407" lon="5.522">
        <ele>247</ele>
        <time>2018-02-20T10:29:09.000Z</time>
      </trkpt>
      <trkpt lat="43.53408" lon="5.522">
        <ele>247</ele>
        <time>2018-02-20T10:29:10.000Z</time>
      </trkpt>
      <trkpt lat="43.53408" lon="5.52201">
        <ele>247</ele>
        <time>2018-02-20T10:29:11.000Z</time>
      </trkpt>
      <trkpt lat="43.53409" lon="5.52202">
        <ele>247</ele>
        <time>2018-02-20T10:29:12.000Z</time>
      </trkpt>
      <trkpt lat="43.5341" lon="5.52202">
        <ele>246</ele>
        <time>2018-02-20T10:29:13.000Z</time>
      </trkpt>
      <trkpt lat="43.5341" lon="5.52203">
        <ele>246</ele>
        <time>2018-02-20T10:29:14.000Z</time>
      </trkpt>
      <trkpt lat="43.53411" lon="5.52204">
        <ele>246</ele>
        <time>2018-02-20T10:29:15.000Z</time>
      </trkpt>
      <trkpt lat="43.53411" lon="5.52205">
        <ele>246</ele>
        <time>2018-02-20T10:29:16.000Z</time>
      </trkpt>
      <trkpt lat="43.53412" lon="5.52205">
        <ele>246</ele>
        <time>2018-02-20T10:29:17.000Z</time>
      </trkpt>
      <trkpt lat="43.53413" lon="5.52206">
        <ele>246</ele>
        <time>2018-02-20T10:29:18.000Z</time>
      </trkpt>
      <trkpt lat="43.53414" lon="5.52207">
        <ele>246</ele>
        <time>2018-02-20T10:29:19.000Z</time>
      </trkpt>
      <trkpt lat="43.53414" lon="5.52208">
        <ele>246</ele>
        <time>2018-02-20T10:29:20.000Z</time>
      </trkpt>
      <trkpt lat="43.53415" lon="5.52209">
        <ele>246</ele>
        <time>2018-02-20T10:29:21.000Z</time>
      </trkpt>
      <trkpt lat="43.53416" lon="5.52211">
        <ele>246</ele>
        <time>2018-02-20T10:29:22.000Z</time>
      </trkpt>
      <trkpt lat="43.53416" lon="5.52212">
        <ele>246</ele>
        <time>2018-02-20T10:29:23.000Z</time>
      </trkpt>
      <trkpt lat="43.53417" lon="5.52213">
        <ele>246</ele>
        <time>2018-02-20T10:29:24.000Z</time>
      </trkpt>
      <trkpt lat="43.53417" lon="5.52215">
        <ele>246</ele>
        <time>2018-02-20T10:29:25.000Z</time>
      </trkpt>
      <trkpt lat="43.53418" lon="5.52216">
        <ele>246</ele>
        <time>2018-02-20T10:29:26.000Z</time>
      </trkpt>
      <trkpt lat="43.53418" lon="5.52218">
        <ele>245</ele>
        <time>2018-02-20T10:29:27.000Z</time>
      </trkpt>
      <trkpt lat="43.53418" lon="5.5222">
        <ele>245</ele>
        <time>2018-02-20T10:29:28.000Z</time>
      </trkpt>
      <trkpt lat="43.53418" lon="5.52221">
        <ele>245</ele>
        <time>2018-02-20T10:29:29.000Z</time>
      </trkpt>
      <trkpt lat="43.53419" lon="5.52222">
        <ele>245</ele>
        <time>2018-02-20T10:29:30.000Z</time>
      </trkpt>
      <trkpt lat="43.53419" lon="5.52224">
        <ele>245</ele>
        <time>2018-02-20T10:29:31.000Z</time>
      </trkpt>
      <trkpt lat="43.5342" lon="5.52226">
        <ele>244</ele>
        <time>2018-02-20T10:29:32.000Z</time>
      </trkpt>
      <trkpt lat="43.5342" lon="5.52227">
        <ele>244</ele>
        <time>2018-02-20T10:29:33.000Z</time>
      </trkpt>
      <trkpt lat="43.5342" lon="5.52229">
        <ele>244</ele>
        <time>2018-02-20T10:29:34.000Z</time>
      </trkpt>
      <trkpt lat="43.5342" lon="5.5223">
        <ele>244</ele>
        <time>2018-02-20T10:29:35.000Z</time>
      </trkpt>
      <trkpt lat="43.5342" lon="5.52232">
        <ele>244</ele>
        <time>2018-02-20T10:29:36.000Z</time>
      </trkpt>
      <trkpt lat="43.53421" lon="5.52233">
        <ele>243</ele>
        <time>2018-02-20T10:29:37.000Z</time>
      </trkpt>
      <trkpt lat="43.5342" lon="5.52235">
        <ele>243</ele>
        <time>2018-02-20T10:29:38.000Z</time>
      </trkpt>
      <trkpt lat="43.5342" lon="5.52236">
        <ele>243</ele>
        <time>2018-02-20T10:29:39.000Z</time>
      </trkpt>
      <trkpt lat="43.53421" lon="5.52237">
        <ele>243</ele>
        <time>2018-02-20T10:29:40.000Z</time>
      </trkpt>
      <trkpt lat="43.53421" lon="5.52239">
        <ele>243</ele>
        <time>2018-02-20T10:29:41.000Z</time>
      </trkpt>
      <trkpt lat="43.53421" lon="5.5224">
        <ele>242</ele>
        <time>2018-02-20T10:29:42.000Z</time>
      </trkpt>
      <trkpt lat="43.53421" lon="5.52241">
        <ele>242</ele>
        <time>2018-02-20T10:29:43.000Z</time>
      </trkpt>
      <trkpt lat="43.53421" lon="5.52242">
        <ele>242</ele>
        <time>2018-02-20T10:29:44.000Z</time>
      </trkpt>
      <trkpt lat="43.5342" lon="5.52243">
        <ele>242</ele>
        <time>2018-02-20T10:29:45.000Z</time>
      </trkpt>
      <trkpt lat="43.5342" lon="5.52242">
        <ele>242</ele>
        <time>2018-02-20T10:29:46.000Z</time>
      </trkpt>
      <trkpt lat="43.5342" lon="5.52242">
        <ele>242</ele>
        <time>2018-02-20T10:29:47.000Z</time>
      </trkpt>
      <trkpt lat="43.5342" lon="5.52242">
        <ele>242</ele>
        <time>2018-02-20T10:29:48.000Z</time>
      </trkpt>
      <trkpt lat="43.5342" lon="5.52243">
        <ele>242</ele>
        <time>2018-02-20T10:29:49.000Z</time>
      </trkpt>
      <trkpt lat="43.5342" lon="5.52243">
        <ele>242</ele>
        <time>2018-02-20T10:29:50.000Z</time>
      </trkpt>
      <trkpt lat="43.5342" lon="5.52243">
        <ele>242</ele>
        <time>2018-02-20T10:29:51.000Z</time>
      </trkpt>
      <trkpt lat="43.5342" lon="5.52242">
        <ele>242</ele>
        <time>2018-02-20T10:29:52.000Z</time>
      </trkpt>
      <trkpt lat="43.53421" lon="5.52242">
        <ele>242</ele>
        <time>2018-02-20T10:29:53.000Z</time>
      </trkpt>
      <trkpt lat="43.53421" lon="5.52241">
        <ele>241</ele>
        <time>2018-02-20T10:29:54.000Z</time>
      </trkpt>
      <trkpt lat="43.53421" lon="5.52241">
        <ele>241</ele>
        <time>2018-02-20T10:29:55.000Z</time>
      </trkpt>
      <trkpt lat="43.53421" lon="5.5224">
        <ele>241</ele>
        <time>2018-02-20T10:29:56.000Z</time>
      </trkpt>
      <trkpt lat="43.53421" lon="5.5224">
        <ele>241</ele>
        <time>2018-02-20T10:29:57.000Z</time>
      </trkpt>
      <trkpt lat="43.53421" lon="5.5224">
        <ele>241</ele>
        <time>2018-02-20T10:29:58.000Z</time>
      </trkpt>
      <trkpt lat="43.53421" lon="5.52239">
        <ele>241</ele>
        <time>2018-02-20T10:29:59.000Z</time>
      </trkpt>
      <trkpt lat="43.53421" lon="5.52239">
        <ele>241</ele>
        <time>2018-02-20T10:30:00.000Z</time>
      </trkpt>
      <trkpt lat="43.53421" lon="5.52239">
        <ele>241</ele>
        <time>2018-02-20T10:30:01.000Z</time>
      </trkpt>
      <trkpt lat="43.53421" lon="5.52239">
        <ele>241</ele>
        <time>2018-02-20T10:30:02.000Z</time>
      </trkpt>
      <trkpt lat="43.53421" lon="5.52239">
        <ele>241</ele>
        <time>2018-02-20T10:30:03.000Z</time>
      </trkpt>
      <trkpt lat="43.53421" lon="5.52239">
        <ele>241</ele>
        <time>2018-02-20T10:30:04.000Z</time>
      </trkpt>
      <trkpt lat="43.53421" lon="5.52239">
        <ele>241</ele>
        <time>2018-02-20T10:30:05.000Z</time>
      </trkpt>
      <trkpt lat="43.53421" lon="5.52239">
        <ele>241</ele>
        <time>2018-02-20T10:30:06.000Z</time>
      </trkpt>
      <trkpt lat="43.53421" lon="5.52239">
        <ele>241</ele>
        <time>2018-02-20T10:30:07.000Z</time>
      </trkpt>
      <trkpt lat="43.53421" lon="5.52239">
        <ele>241</ele>
        <time>2018-02-20T10:30:08.000Z</time>
      </trkpt>
      <trkpt lat="43.53421" lon="5.52239">
        <ele>241</ele>
        <time>2018-02-20T10:30:09.000Z</time>
      </trkpt>
      <trkpt lat="43.53421" lon="5.52239">
        <ele>241</ele>
        <time>2018-02-20T10:30:10.000Z</time>
      </trkpt>
      <trkpt lat="43.53421" lon="5.52239">
        <ele>241</ele>
        <time>2018-02-20T10:30:11.000Z</time>
      </trkpt>
      <trkpt lat="43.53421" lon="5.52239">
        <ele>241</ele>
        <time>2018-02-20T10:30:12.000Z</time>
      </trkpt>
      <trkpt lat="43.53421" lon="5.52239">
        <ele>241</ele>
        <time>2018-02-20T10:30:13.000Z</time>
      </trkpt>
      <trkpt lat="43.53421" lon="5.52239">
        <ele>241</ele>
        <time>2018-02-20T10:30:14.000Z</time>
      </trkpt>
      <trkpt lat="43.53421" lon="5.52238">
        <ele>241</ele>
        <time>2018-02-20T10:30:15.000Z</time>
      </trkpt>
      <trkpt lat="43.53422" lon="5.52238">
        <ele>241</ele>
        <time>2018-02-20T10:30:16.000Z</time>
      </trkpt>
      <trkpt lat="43.53422" lon="5.52237">
        <ele>241</ele>
        <time>2018-02-20T10:30:17.000Z</time>
      </trkpt>
      <trkpt lat="43.53423" lon="5.52236">
        <ele>242</ele>
        <time>2018-02-20T10:30:18.000Z</time>
      </trkpt>
      <trkpt lat="43.53423" lon="5.52235">
        <ele>242</ele>
        <time>2018-02-20T10:30:19.000Z</time>
      </trkpt>
      <trkpt lat="43.53423" lon="5.52235">
        <ele>242</ele>
        <time>2018-02-20T10:30:20.000Z</time>
      </trkpt>
      <trkpt lat="43.53423" lon="5.52234">
        <ele>242</ele>
        <time>2018-02-20T10:30:21.000Z</time>
      </trkpt>
      <trkpt lat="43.53423" lon="5.52233">
        <ele>242</ele>
        <time>2018-02-20T10:30:22.000Z</time>
      </trkpt>
      <trkpt lat="43.53423" lon="5.52232">
        <ele>242</ele>
        <time>2018-02-20T10:30:23.000Z</time>
      </trkpt>
      <trkpt lat="43.53424" lon="5.52231">
        <ele>242</ele>
        <time>2018-02-20T10:30:24.000Z</time>
      </trkpt>
      <trkpt lat="43.53424" lon="5.52229">
        <ele>242</ele>
        <time>2018-02-20T10:30:25.000Z</time>
      </trkpt>
      <trkpt lat="43.53424" lon="5.52228">
        <ele>242</ele>
        <time>2018-02-20T10:30:26.000Z</time>
      </trkpt>
      <trkpt lat="43.53424" lon="5.52227">
        <ele>242</ele>
        <time>2018-02-20T10:30:27.000Z</time>
      </trkpt>
      <trkpt lat="43.53424" lon="5.52226">
        <ele>242</ele>
        <time>2018-02-20T10:30:28.000Z</time>
      </trkpt>
      <trkpt lat="43.53425" lon="5.52225">
        <ele>242</ele>
        <time>2018-02-20T10:30:29.000Z</time>
      </trkpt>
      <trkpt lat="43.53425" lon="5.52224">
        <ele>242</ele>
        <time>2018-02-20T10:30:30.000Z</time>
      </trkpt>
      <trkpt lat="43.53425" lon="5.52223">
        <ele>242</ele>
        <time>2018-02-20T10:30:31.000Z</time>
      </trkpt>
      <trkpt lat="43.53425" lon="5.52222">
        <ele>242</ele>
        <time>2018-02-20T10:30:32.000Z</time>
      </trkpt>
      <trkpt lat="43.53426" lon="5.52222">
        <ele>242</ele>
        <time>2018-02-20T10:30:33.000Z</time>
      </trkpt>
      <trkpt lat="43.53427" lon="5.52221">
        <ele>242</ele>
        <time>2018-02-20T10:30:34.000Z</time>
      </trkpt>
      <trkpt lat="43.53428" lon="5.52221">
        <ele>242</ele>
        <time>2018-02-20T10:30:35.000Z</time>
      </trkpt>
      <trkpt lat="43.53428" lon="5.5222">
        <ele>242</ele>
        <time>2018-02-20T10:30:36.000Z</time>
      </trkpt>
      <trkpt lat="43.53429" lon="5.5222">
        <ele>243</ele>
        <time>2018-02-20T10:30:37.000Z</time>
      </trkpt>
      <trkpt lat="43.5343" lon="5.52219">
        <ele>243</ele>
        <time>2018-02-20T10:30:38.000Z</time>
      </trkpt>
      <trkpt lat="43.5343" lon="5.52218">
        <ele>243</ele>
        <time>2018-02-20T10:30:39.000Z</time>
      </trkpt>
      <trkpt lat="43.53431" lon="5.52217">
        <ele>243</ele>
        <time>2018-02-20T10:30:40.000Z</time>
      </trkpt>
      <trkpt lat="43.53431" lon="5.52216">
        <ele>244</ele>
        <time>2018-02-20T10:30:41.000Z</time>
      </trkpt>
      <trkpt lat="43.53432" lon="5.52215">
        <ele>244</ele>
        <time>2018-02-20T10:30:42.000Z</time>
      </trkpt>
      <trkpt lat="43.53432" lon="5.52214">
        <ele>244</ele>
        <time>2018-02-20T10:30:43.000Z</time>
      </trkpt>
      <trkpt lat="43.53433" lon="5.52214">
        <ele>244</ele>
        <time>2018-02-20T10:30:44.000Z</time>
      </trkpt>
      <trkpt lat="43.53434" lon="5.52213">
        <ele>245</ele>
        <time>2018-02-20T10:30:45.000Z</time>
      </trkpt>
      <trkpt lat="43.53434" lon="5.52213">
        <ele>245</ele>
        <time>2018-02-20T10:30:46.000Z</time>
      </trkpt>
      <trkpt lat="43.53435" lon="5.52212">
        <ele>245</ele>
        <time>2018-02-20T10:30:47.000Z</time>
      </trkpt>
      <trkpt lat="43.53435" lon="5.52212">
        <ele>245</ele>
        <time>2018-02-20T10:30:48.000Z</time>
      </trkpt>
      <trkpt lat="43.53436" lon="5.52212">
        <ele>245</ele>
        <time>2018-02-20T10:30:49.000Z</time>
      </trkpt>
      <trkpt lat="43.53436" lon="5.52211">
        <ele>245</ele>
        <time>2018-02-20T10:30:50.000Z</time>
      </trkpt>
      <trkpt lat="43.53436" lon="5.52211">
        <ele>246</ele>
        <time>2018-02-20T10:30:51.000Z</time>
      </trkpt>
      <trkpt lat="43.53437" lon="5.52211">
        <ele>246</ele>
        <time>2018-02-20T10:30:52.000Z</time>
      </trkpt>
      <trkpt lat="43.53438" lon="5.52211">
        <ele>246</ele>
        <time>2018-02-20T10:30:53.000Z</time>
      </trkpt>
      <trkpt lat="43.53439" lon="5.52211">
        <ele>246</ele>
        <time>2018-02-20T10:30:54.000Z</time>
      </trkpt>
      <trkpt lat="43.5344" lon="5.52211">
        <ele>246</ele>
        <time>2018-02-20T10:30:55.000Z</time>
      </trkpt>
      <trkpt lat="43.53441" lon="5.52211">
        <ele>246</ele>
        <time>2018-02-20T10:30:56.000Z</time>
      </trkpt>
      <trkpt lat="43.53441" lon="5.52211">
        <ele>246</ele>
        <time>2018-02-20T10:30:57.000Z</time>
      </trkpt>
      <trkpt lat="43.53442" lon="5.52211">
        <ele>246</ele>
        <time>2018-02-20T10:30:58.000Z</time>
      </trkpt>
      <trkpt lat="43.53443" lon="5.52211">
        <ele>246</ele>
        <time>2018-02-20T10:30:59.000Z</time>
      </trkpt>
      <trkpt lat="43.53444" lon="5.52211">
        <ele>246</ele>
        <time>2018-02-20T10:31:00.000Z</time>
      </trkpt>
      <trkpt lat="43.53445" lon="5.5221">
        <ele>246</ele>
        <time>2018-02-20T10:31:01.000Z</time>
      </trkpt>
      <trkpt lat="43.53446" lon="5.5221">
        <ele>247</ele>
        <time>2018-02-20T10:31:02.000Z</time>
      </trkpt>
      <trkpt lat="43.53447" lon="5.5221">
        <ele>247</ele>
        <time>2018-02-20T10:31:03.000Z</time>
      </trkpt>
      <trkpt lat="43.53448" lon="5.5221">
        <ele>247</ele>
        <time>2018-02-20T10:31:04.000Z</time>
      </trkpt>
      <trkpt lat="43.53449" lon="5.5221">
        <ele>247</ele>
        <time>2018-02-20T10:31:05.000Z</time>
      </trkpt>
      <trkpt lat="43.53449" lon="5.52209">
        <ele>247</ele>
        <time>2018-02-20T10:31:06.000Z</time>
      </trkpt>
      <trkpt lat="43.5345" lon="5.52209">
        <ele>247</ele>
        <time>2018-02-20T10:31:07.000Z</time>
      </trkpt>
      <trkpt lat="43.53451" lon="5.52209">
        <ele>247</ele>
        <time>2018-02-20T10:31:08.000Z</time>
      </trkpt>
      <trkpt lat="43.53452" lon="5.52209">
        <ele>247</ele>
        <time>2018-02-20T10:31:09.000Z</time>
      </trkpt>
      <trkpt lat="43.53453" lon="5.52209">
        <ele>246</ele>
        <time>2018-02-20T10:31:10.000Z</time>
      </trkpt>
      <trkpt lat="43.53454" lon="5.52209">
        <ele>246</ele>
        <time>2018-02-20T10:31:11.000Z</time>
      </trkpt>
      <trkpt lat="43.53454" lon="5.52209">
        <ele>246</ele>
        <time>2018-02-20T10:31:12.000Z</time>
      </trkpt>
      <trkpt lat="43.53455" lon="5.52209">
        <ele>246</ele>
        <time>2018-02-20T10:31:13.000Z</time>
      </trkpt>
      <trkpt lat="43.53456" lon="5.52208">
        <ele>246</ele>
        <time>2018-02-20T10:31:14.000Z</time>
      </trkpt>
      <trkpt lat="43.53457" lon="5.52208">
        <ele>246</ele>
        <time>2018-02-20T10:31:15.000Z</time>
      </trkpt>
      <trkpt lat="43.53458" lon="5.52208">
        <ele>247</ele>
        <time>2018-02-20T10:31:16.000Z</time>
      </trkpt>
      <trkpt lat="43.53458" lon="5.52208">
        <ele>247</ele>
        <time>2018-02-20T10:31:17.000Z</time>
      </trkpt>
      <trkpt lat="43.53459" lon="5.52208">
        <ele>247</ele>
        <time>2018-02-20T10:31:18.000Z</time>
      </trkpt>
      <trkpt lat="43.53459" lon="5.52208">
        <ele>246</ele>
        <time>2018-02-20T10:31:19.000Z</time>
      </trkpt>
      <trkpt lat="43.5346" lon="5.52207">
        <ele>246</ele>
        <time>2018-02-20T10:31:20.000Z</time>
      </trkpt>
      <trkpt lat="43.5346" lon="5.52207">
        <ele>246</ele>
        <time>2018-02-20T10:31:21.000Z</time>
      </trkpt>
      <trkpt lat="43.5346" lon="5.52207">
        <ele>246</ele>
        <time>2018-02-20T10:31:22.000Z</time>
      </trkpt>
      <trkpt lat="43.5346" lon="5.52208">
        <ele>246</ele>
        <time>2018-02-20T10:31:23.000Z</time>
      </trkpt>
      <trkpt lat="43.5346" lon="5.52208">
        <ele>246</ele>
        <time>2018-02-20T10:31:24.000Z</time>
      </trkpt>
      <trkpt lat="43.5346" lon="5.52208">
        <ele>246</ele>
        <time>2018-02-20T10:31:25.000Z</time>
      </trkpt>
      <trkpt lat="43.5346" lon="5.52207">
        <ele>246</ele>
        <time>2018-02-20T10:31:26.000Z</time>
      </trkpt>
      <trkpt lat="43.5346" lon="5.52207">
        <ele>246</ele>
        <time>2018-02-20T10:31:27.000Z</time>
      </trkpt>
      <trkpt lat="43.5346" lon="5.52207">
        <ele>246</ele>
        <time>2018-02-20T10:31:28.000Z</time>
      </trkpt>
      <trkpt lat="43.5346" lon="5.52207">
        <ele>246</ele>
        <time>2018-02-20T10:31:29.000Z</time>
      </trkpt>
      <trkpt lat="43.5346" lon="5.52207">
        <ele>246</ele>
        <time>2018-02-20T10:31:30.000Z</time>
      </trkpt>
      <trkpt lat="43.5346" lon="5.52207">
        <ele>246</ele>
        <time>2018-02-20T10:31:31.000Z</time>
      </trkpt>
      <trkpt lat="43.5346" lon="5.52207">
        <ele>246</ele>
        <time>2018-02-20T10:31:32.000Z</time>
      </trkpt>
      <trkpt lat="43.5346" lon="5.52207">
        <ele>246</ele>
        <time>2018-02-20T10:31:33.000Z</time>
      </trkpt>
      <trkpt lat="43.5346" lon="5.52207">
        <ele>246</ele>
        <time>2018-02-20T10:31:34.000Z</time>
      </trkpt>
      <trkpt lat="43.5346" lon="5.52207">
        <ele>246</ele>
        <time>2018-02-20T10:31:35.000Z</time>
      </trkpt>
      <trkpt lat="43.5346" lon="5.52207">
        <ele>246</ele>
        <time>2018-02-20T10:31:36.000Z</time>
      </trkpt>
      <trkpt lat="43.53461" lon="5.52207">
        <ele>246</ele>
        <time>2018-02-20T10:31:37.000Z</time>
      </trkpt>
      <trkpt lat="43.53461" lon="5.52207">
        <ele>246</ele>
        <time>2018-02-20T10:31:38.000Z</time>
      </trkpt>
      <trkpt lat="43.53462" lon="5.52206">
        <ele>246</ele>
        <time>2018-02-20T10:31:39.000Z</time>
      </trkpt>
      <trkpt lat="43.53463" lon="5.52206">
        <ele>246</ele>
        <time>2018-02-20T10:31:40.000Z</time>
      </trkpt>
      <trkpt lat="43.53464" lon="5.52205">
        <ele>245</ele>
        <time>2018-02-20T10:31:41.000Z</time>
      </trkpt>
      <trkpt lat="43.53465" lon="5.52205">
        <ele>245</ele>
        <time>2018-02-20T10:31:42.000Z</time>
      </trkpt>
      <trkpt lat="43.53466" lon="5.52204">
        <ele>246</ele>
        <time>2018-02-20T10:31:43.000Z</time>
      </trkpt>
      <trkpt lat="43.53467" lon="5.52204">
        <ele>246</ele>
        <time>2018-02-20T10:31:44.000Z</time>
      </trkpt>
      <trkpt lat="43.53468" lon="5.52203">
        <ele>245</ele>
        <time>2018-02-20T10:31:45.000Z</time>
      </trkpt>
      <trkpt lat="43.53469" lon="5.52203">
        <ele>245</ele>
        <time>2018-02-20T10:31:46.000Z</time>
      </trkpt>
      <trkpt lat="43.5347" lon="5.52203">
        <ele>245</ele>
        <time>2018-02-20T10:31:47.000Z</time>
      </trkpt>
      <trkpt lat="43.53471" lon="5.52202">
        <ele>245</ele>
        <time>2018-02-20T10:31:48.000Z</time>
      </trkpt>
      <trkpt lat="43.53472" lon="5.52202">
        <ele>245</ele>
        <time>2018-02-20T10:31:49.000Z</time>
      </trkpt>
      <trkpt lat="43.53473" lon="5.52202">
        <ele>245</ele>
        <time>2018-02-20T10:31:50.000Z</time>
      </trkpt>
      <trkpt lat="43.53474" lon="5.52201">
        <ele>245</ele>
        <time>2018-02-20T10:31:51.000Z</time>
      </trkpt>
      <trkpt lat="43.53475" lon="5.52201">
        <ele>245</ele>
        <time>2018-02-20T10:31:52.000Z</time>
      </trkpt>
      <trkpt lat="43.53476" lon="5.522">
        <ele>245</ele>
        <time>2018-02-20T10:31:53.000Z</time>
      </trkpt>
      <trkpt lat="43.53477" lon="5.522">
        <ele>245</ele>
        <time>2018-02-20T10:31:54.000Z</time>
      </trkpt>
      <trkpt lat="43.53478" lon="5.52199">
        <ele>245</ele>
        <time>2018-02-20T10:31:55.000Z</time>
      </trkpt>
      <trkpt lat="43.53479" lon="5.52199">
        <ele>245</ele>
        <time>2018-02-20T10:31:56.000Z</time>
      </trkpt>
      <trkpt lat="43.5348" lon="5.52199">
        <ele>245</ele>
        <time>2018-02-20T10:31:57.000Z</time>
      </trkpt>
      <trkpt lat="43.53481" lon="5.522">
        <ele>245</ele>
        <time>2018-02-20T10:31:58.000Z</time>
      </trkpt>
      <trkpt lat="43.53483" lon="5.52201">
        <ele>245</ele>
        <time>2018-02-20T10:31:59.000Z</time>
      </trkpt>
      <trkpt lat="43.53484" lon="5.52202">
        <ele>245</ele>
        <time>2018-02-20T10:32:00.000Z</time>
      </trkpt>
      <trkpt lat="43.53485" lon="5.52203">
        <ele>245</ele>
        <time>2018-02-20T10:32:01.000Z</time>
      </trkpt>
      <trkpt lat="43.53486" lon="5.52204">
        <ele>245</ele>
        <time>2018-02-20T10:32:02.000Z</time>
      </trkpt>
      <trkpt lat="43.53487" lon="5.52205">
        <ele>244</ele>
        <time>2018-02-20T10:32:03.000Z</time>
      </trkpt>
      <trkpt lat="43.53488" lon="5.52207">
        <ele>244</ele>
        <time>2018-02-20T10:32:04.000Z</time>
      </trkpt>
      <trkpt lat="43.53489" lon="5.52209">
        <ele>244</ele>
        <time>2018-02-20T10:32:05.000Z</time>
      </trkpt>
      <trkpt lat="43.5349" lon="5.5221">
        <ele>244</ele>
        <time>2018-02-20T10:32:06.000Z</time>
      </trkpt>
      <trkpt lat="43.53491" lon="5.52211">
        <ele>244</ele>
        <time>2018-02-20T10:32:07.000Z</time>
      </trkpt>
      <trkpt lat="43.53491" lon="5.52212">
        <ele>244</ele>
        <time>2018-02-20T10:32:08.000Z</time>
      </trkpt>
      <trkpt lat="43.53492" lon="5.52214">
        <ele>244</ele>
        <time>2018-02-20T10:32:09.000Z</time>
      </trkpt>
      <trkpt lat="43.53493" lon="5.52216">
        <ele>244</ele>
        <time>2018-02-20T10:32:10.000Z</time>
      </trkpt>
      <trkpt lat="43.53493" lon="5.52217">
        <ele>244</ele>
        <time>2018-02-20T10:32:11.000Z</time>
      </trkpt>
      <trkpt lat="43.53494" lon="5.52219">
        <ele>244</ele>
        <time>2018-02-20T10:32:12.000Z</time>
      </trkpt>
      <trkpt lat="43.53495" lon="5.5222">
        <ele>244</ele>
        <time>2018-02-20T10:32:13.000Z</time>
      </trkpt>
      <trkpt lat="43.53495" lon="5.52221">
        <ele>244</ele>
        <time>2018-02-20T10:32:14.000Z</time>
      </trkpt>
      <trkpt lat="43.53495" lon="5.52223">
        <ele>244</ele>
        <time>2018-02-20T10:32:15.000Z</time>
      </trkpt>
      <trkpt lat="43.53496" lon="5.52224">
        <ele>244</ele>
        <time>2018-02-20T10:32:16.000Z</time>
      </trkpt>
      <trkpt lat="43.53496" lon="5.52225">
        <ele>244</ele>
        <time>2018-02-20T10:32:17.000Z</time>
      </trkpt>
      <trkpt lat="43.53497" lon="5.52227">
        <ele>244</ele>
        <time>2018-02-20T10:32:18.000Z</time>
      </trkpt>
      <trkpt lat="43.53497" lon="5.52228">
        <ele>244</ele>
        <time>2018-02-20T10:32:19.000Z</time>
      </trkpt>
      <trkpt lat="43.53498" lon="5.52229">
        <ele>244</ele>
        <time>2018-02-20T10:32:20.000Z</time>
      </trkpt>
      <trkpt lat="43.53498" lon="5.52231">
        <ele>244</ele>
        <time>2018-02-20T10:32:21.000Z</time>
      </trkpt>
      <trkpt lat="43.53498" lon="5.52232">
        <ele>244</ele>
        <time>2018-02-20T10:32:22.000Z</time>
      </trkpt>
      <trkpt lat="43.53499" lon="5.52233">
        <ele>244</ele>
        <time>2018-02-20T10:32:23.000Z</time>
      </trkpt>
      <trkpt lat="43.53499" lon="5.52234">
        <ele>245</ele>
        <time>2018-02-20T10:32:24.000Z</time>
      </trkpt>
      <trkpt lat="43.53499" lon="5.52236">
        <ele>245</ele>
        <time>2018-02-20T10:32:25.000Z</time>
      </trkpt>
      <trkpt lat="43.53499" lon="5.52236">
        <ele>245</ele>
        <time>2018-02-20T10:32:26.000Z</time>
      </trkpt>
      <trkpt lat="43.53499" lon="5.52237">
        <ele>245</ele>
        <time>2018-02-20T10:32:27.000Z</time>
      </trkpt>
      <trkpt lat="43.53499" lon="5.52238">
        <ele>245</ele>
        <time>2018-02-20T10:32:28.000Z</time>
      </trkpt>
      <trkpt lat="43.535" lon="5.52239">
        <ele>245</ele>
        <time>2018-02-20T10:32:29.000Z</time>
      </trkpt>
      <trkpt lat="43.535" lon="5.5224">
        <ele>245</ele>
        <time>2018-02-20T10:32:30.000Z</time>
      </trkpt>
      <trkpt lat="43.53501" lon="5.5224">
        <ele>245</ele>
        <time>2018-02-20T10:32:31.000Z</time>
      </trkpt>
      <trkpt lat="43.53502" lon="5.52242">
        <ele>245</ele>
        <time>2018-02-20T10:32:32.000Z</time>
      </trkpt>
      <trkpt lat="43.53503" lon="5.52242">
        <ele>245</ele>
        <time>2018-02-20T10:32:33.000Z</time>
      </trkpt>
      <trkpt lat="43.53504" lon="5.52243">
        <ele>245</ele>
        <time>2018-02-20T10:32:34.000Z</time>
      </trkpt>
      <trkpt lat="43.53505" lon="5.52244">
        <ele>245</ele>
        <time>2018-02-20T10:32:35.000Z</time>
      </trkpt>
      <trkpt lat="43.53505" lon="5.52245">
        <ele>244</ele>
        <time>2018-02-20T10:32:36.000Z</time>
      </trkpt>
      <trkpt lat="43.53506" lon="5.52246">
        <ele>244</ele>
        <time>2018-02-20T10:32:37.000Z</time>
      </trkpt>
      <trkpt lat="43.53506" lon="5.52246">
        <ele>244</ele>
        <time>2018-02-20T10:32:38.000Z</time>
      </trkpt>
      <trkpt lat="43.53508" lon="5.52247">
        <ele>244</ele>
        <time>2018-02-20T10:32:39.000Z</time>
      </trkpt>
      <trkpt lat="43.53509" lon="5.52248">
        <ele>243</ele>
        <time>2018-02-20T10:32:40.000Z</time>
      </trkpt>
      <trkpt lat="43.53509" lon="5.52249">
        <ele>243</ele>
        <time>2018-02-20T10:32:41.000Z</time>
      </trkpt>
      <trkpt lat="43.5351" lon="5.5225">
        <ele>243</ele>
        <time>2018-02-20T10:32:42.000Z</time>
      </trkpt>
      <trkpt lat="43.53511" lon="5.52251">
        <ele>243</ele>
        <time>2018-02-20T10:32:43.000Z</time>
      </trkpt>
      <trkpt lat="43.53512" lon="5.52252">
        <ele>243</ele>
        <time>2018-02-20T10:32:44.000Z</time>
      </trkpt>
      <trkpt lat="43.53513" lon="5.52253">
        <ele>243</ele>
        <time>2018-02-20T10:32:45.000Z</time>
      </trkpt>
      <trkpt lat="43.53514" lon="5.52254">
        <ele>243</ele>
        <time>2018-02-20T10:32:46.000Z</time>
      </trkpt>
      <trkpt lat="43.53514" lon="5.52255">
        <ele>243</ele>
        <time>2018-02-20T10:32:47.000Z</time>
      </trkpt>
      <trkpt lat="43.53515" lon="5.52257">
        <ele>243</ele>
        <time>2018-02-20T10:32:48.000Z</time>
      </trkpt>
      <trkpt lat="43.53516" lon="5.52259">
        <ele>243</ele>
        <time>2018-02-20T10:32:49.000Z</time>
      </trkpt>
      <trkpt lat="43.53516" lon="5.5226">
        <ele>243</ele>
        <time>2018-02-20T10:32:50.000Z</time>
      </trkpt>
      <trkpt lat="43.53517" lon="5.52261">
        <ele>243</ele>
        <time>2018-02-20T10:32:51.000Z</time>
      </trkpt>
      <trkpt lat="43.53517" lon="5.52262">
        <ele>243</ele>
        <time>2018-02-20T10:32:52.000Z</time>
      </trkpt>
      <trkpt lat="43.53517" lon="5.52263">
        <ele>243</ele>
        <time>2018-02-20T10:32:53.000Z</time>
      </trkpt>
      <trkpt lat="43.53518" lon="5.52264">
        <ele>243</ele>
        <time>2018-02-20T10:32:54.000Z</time>
      </trkpt>
      <trkpt lat="43.53518" lon="5.52266">
        <ele>243</ele>
        <time>2018-02-20T10:32:55.000Z</time>
      </trkpt>
      <trkpt lat="43.53518" lon="5.52266">
        <ele>244</ele>
        <time>2018-02-20T10:32:56.000Z</time>
      </trkpt>
      <trkpt lat="43.53519" lon="5.52268">
        <ele>244</ele>
        <time>2018-02-20T10:32:57.000Z</time>
      </trkpt>
      <trkpt lat="43.5352" lon="5.52269">
        <ele>244</ele>
        <time>2018-02-20T10:32:58.000Z</time>
      </trkpt>
      <trkpt lat="43.5352" lon="5.5227">
        <ele>244</ele>
        <time>2018-02-20T10:32:59.000Z</time>
      </trkpt>
      <trkpt lat="43.53521" lon="5.52272">
        <ele>244</ele>
        <time>2018-02-20T10:33:00.000Z</time>
      </trkpt>
      <trkpt lat="43.53521" lon="5.52273">
        <ele>244</ele>
        <time>2018-02-20T10:33:01.000Z</time>
      </trkpt>
      <trkpt lat="43.53521" lon="5.52275">
        <ele>244</ele>
        <time>2018-02-20T10:33:02.000Z</time>
      </trkpt>
      <trkpt lat="43.53521" lon="5.52276">
        <ele>244</ele>
        <time>2018-02-20T10:33:03.000Z</time>
      </trkpt>
      <trkpt lat="43.53521" lon="5.52277">
        <ele>245</ele>
        <time>2018-02-20T10:33:04.000Z</time>
      </trkpt>
      <trkpt lat="43.53521" lon="5.52277">
        <ele>245</ele>
        <time>2018-02-20T10:33:05.000Z</time>
      </trkpt>
      <trkpt lat="43.53521" lon="5.52277">
        <ele>245</ele>
        <time>2018-02-20T10:33:06.000Z</time>
      </trkpt>
      <trkpt lat="43.53521" lon="5.52277">
        <ele>245</ele>
        <time>2018-02-20T10:33:07.000Z</time>
      </trkpt>
      <trkpt lat="43.53522" lon="5.52277">
        <ele>245</ele>
        <time>2018-02-20T10:33:08.000Z</time>
      </trkpt>
      <trkpt lat="43.53522" lon="5.52278">
        <ele>245</ele>
        <time>2018-02-20T10:33:09.000Z</time>
      </trkpt>
      <trkpt lat="43.53522" lon="5.52279">
        <ele>245</ele>
        <time>2018-02-20T10:33:10.000Z</time>
      </trkpt>
      <trkpt lat="43.53523" lon="5.5228">
        <ele>245</ele>
        <time>2018-02-20T10:33:11.000Z</time>
      </trkpt>
      <trkpt lat="43.53523" lon="5.5228">
        <ele>246</ele>
        <time>2018-02-20T10:33:12.000Z</time>
      </trkpt>
      <trkpt lat="43.53524" lon="5.52281">
        <ele>246</ele>
        <time>2018-02-20T10:33:13.000Z</time>
      </trkpt>
      <trkpt lat="43.53524" lon="5.52282">
        <ele>246</ele>
        <time>2018-02-20T10:33:14.000Z</time>
      </trkpt>
      <trkpt lat="43.53525" lon="5.52284">
        <ele>246</ele>
        <time>2018-02-20T10:33:15.000Z</time>
      </trkpt>
      <trkpt lat="43.53526" lon="5.52285">
        <ele>246</ele>
        <time>2018-02-20T10:33:16.000Z</time>
      </trkpt>
      <trkpt lat="43.53526" lon="5.52286">
        <ele>246</ele>
        <time>2018-02-20T10:33:17.000Z</time>
      </trkpt>
      <trkpt lat="43.53527" lon="5.52288">
        <ele>246</ele>
        <time>2018-02-20T10:33:18.000Z</time>
      </trkpt>
      <trkpt lat="43.53527" lon="5.52289">
        <ele>246</ele>
        <time>2018-02-20T10:33:19.000Z</time>
      </trkpt>
      <trkpt lat="43.53527" lon="5.5229">
        <ele>246</ele>
        <time>2018-02-20T10:33:20.000Z</time>
      </trkpt>
      <trkpt lat="43.53527" lon="5.5229">
        <ele>246</ele>
        <time>2018-02-20T10:33:21.000Z</time>
      </trkpt>
      <trkpt lat="43.53527" lon="5.52291">
        <ele>246</ele>
        <time>2018-02-20T10:33:22.000Z</time>
      </trkpt>
      <trkpt lat="43.53527" lon="5.52292">
        <ele>246</ele>
        <time>2018-02-20T10:33:23.000Z</time>
      </trkpt>
      <trkpt lat="43.53527" lon="5.52293">
        <ele>246</ele>
        <time>2018-02-20T10:33:24.000Z</time>
      </trkpt>
      <trkpt lat="43.53528" lon="5.52293">
        <ele>246</ele>
        <time>2018-02-20T10:33:25.000Z</time>
      </trkpt>
      <trkpt lat="43.53528" lon="5.52294">
        <ele>246</ele>
        <time>2018-02-20T10:33:26.000Z</time>
      </trkpt>
      <trkpt lat="43.53529" lon="5.52294">
        <ele>246</ele>
        <time>2018-02-20T10:33:27.000Z</time>
      </trkpt>
      <trkpt lat="43.53529" lon="5.52295">
        <ele>246</ele>
        <time>2018-02-20T10:33:28.000Z</time>
      </trkpt>
      <trkpt lat="43.53529" lon="5.52295">
        <ele>247</ele>
        <time>2018-02-20T10:33:29.000Z</time>
      </trkpt>
      <trkpt lat="43.5353" lon="5.52297">
        <ele>246</ele>
        <time>2018-02-20T10:33:30.000Z</time>
      </trkpt>
      <trkpt lat="43.53531" lon="5.52298">
        <ele>246</ele>
        <time>2018-02-20T10:33:31.000Z</time>
      </trkpt>
      <trkpt lat="43.53532" lon="5.52299">
        <ele>246</ele>
        <time>2018-02-20T10:33:32.000Z</time>
      </trkpt>
      <trkpt lat="43.53532" lon="5.52301">
        <ele>246</ele>
        <time>2018-02-20T10:33:33.000Z</time>
      </trkpt>
      <trkpt lat="43.53533" lon="5.52302">
        <ele>246</ele>
        <time>2018-02-20T10:33:34.000Z</time>
      </trkpt>
      <trkpt lat="43.53534" lon="5.52303">
        <ele>246</ele>
        <time>2018-02-20T10:33:35.000Z</time>
      </trkpt>
      <trkpt lat="43.53534" lon="5.52304">
        <ele>246</ele>
        <time>2018-02-20T10:33:36.000Z</time>
      </trkpt>
      <trkpt lat="43.53535" lon="5.52305">
        <ele>247</ele>
        <time>2018-02-20T10:33:37.000Z</time>
      </trkpt>
      <trkpt lat="43.53535" lon="5.52305">
        <ele>247</ele>
        <time>2018-02-20T10:33:38.000Z</time>
      </trkpt>
      <trkpt lat="43.53535" lon="5.52306">
        <ele>247</ele>
        <time>2018-02-20T10:33:39.000Z</time>
      </trkpt>
      <trkpt lat="43.53536" lon="5.52307">
        <ele>247</ele>
        <time>2018-02-20T10:33:40.000Z</time>
      </trkpt>
      <trkpt lat="43.53536" lon="5.52308">
        <ele>247</ele>
        <time>2018-02-20T10:33:41.000Z</time>
      </trkpt>
      <trkpt lat="43.53536" lon="5.52309">
        <ele>248</ele>
        <time>2018-02-20T10:33:42.000Z</time>
      </trkpt>
      <trkpt lat="43.53536" lon="5.5231">
        <ele>248</ele>
        <time>2018-02-20T10:33:43.000Z</time>
      </trkpt>
      <trkpt lat="43.53536" lon="5.52311">
        <ele>248</ele>
        <time>2018-02-20T10:33:44.000Z</time>
      </trkpt>
      <trkpt lat="43.53536" lon="5.52311">
        <ele>248</ele>
        <time>2018-02-20T10:33:45.000Z</time>
      </trkpt>
      <trkpt lat="43.53536" lon="5.52312">
        <ele>249</ele>
        <time>2018-02-20T10:33:46.000Z</time>
      </trkpt>
      <trkpt lat="43.53536" lon="5.52313">
        <ele>249</ele>
        <time>2018-02-20T10:33:47.000Z</time>
      </trkpt>
      <trkpt lat="43.53536" lon="5.52313">
        <ele>249</ele>
        <time>2018-02-20T10:33:48.000Z</time>
      </trkpt>
      <trkpt lat="43.53535" lon="5.52314">
        <ele>249</ele>
        <time>2018-02-20T10:33:49.000Z</time>
      </trkpt>
      <trkpt lat="43.53535" lon="5.52314">
        <ele>249</ele>
        <time>2018-02-20T10:33:50.000Z</time>
      </trkpt>
      <trkpt lat="43.53535" lon="5.52315">
        <ele>250</ele>
        <time>2018-02-20T10:33:51.000Z</time>
      </trkpt>
      <trkpt lat="43.53535" lon="5.52315">
        <ele>250</ele>
        <time>2018-02-20T10:33:52.000Z</time>
      </trkpt>
      <trkpt lat="43.53535" lon="5.52315">
        <ele>250</ele>
        <time>2018-02-20T10:33:53.000Z</time>
      </trkpt>
      <trkpt lat="43.53535" lon="5.52315">
        <ele>250</ele>
        <time>2018-02-20T10:33:54.000Z</time>
      </trkpt>
      <trkpt lat="43.53535" lon="5.52316">
        <ele>250</ele>
        <time>2018-02-20T10:33:55.000Z</time>
      </trkpt>
      <trkpt lat="43.53536" lon="5.52317">
        <ele>250</ele>
        <time>2018-02-20T10:33:56.000Z</time>
      </trkpt>
      <trkpt lat="43.53536" lon="5.52318">
        <ele>250</ele>
        <time>2018-02-20T10:33:57.000Z</time>
      </trkpt>
      <trkpt lat="43.53537" lon="5.52319">
        <ele>250</ele>
        <time>2018-02-20T10:33:58.000Z</time>
      </trkpt>
      <trkpt lat="43.53537" lon="5.5232">
        <ele>250</ele>
        <time>2018-02-20T10:33:59.000Z</time>
      </trkpt>
      <trkpt lat="43.53537" lon="5.52321">
        <ele>250</ele>
        <time>2018-02-20T10:34:00.000Z</time>
      </trkpt>
      <trkpt lat="43.53537" lon="5.52321">
        <ele>250</ele>
        <time>2018-02-20T10:34:01.000Z</time>
      </trkpt>
      <trkpt lat="43.53537" lon="5.52321">
        <ele>250</ele>
        <time>2018-02-20T10:34:02.000Z</time>
      </trkpt>
      <trkpt lat="43.53537" lon="5.52321">
        <ele>249</ele>
        <time>2018-02-20T10:34:03.000Z</time>
      </trkpt>
      <trkpt lat="43.53537" lon="5.52321">
        <ele>249</ele>
        <time>2018-02-20T10:34:04.000Z</time>
      </trkpt>
      <trkpt lat="43.53537" lon="5.52322">
        <ele>249</ele>
        <time>2018-02-20T10:34:05.000Z</time>
      </trkpt>
      <trkpt lat="43.53537" lon="5.52323">
        <ele>249</ele>
        <time>2018-02-20T10:34:06.000Z</time>
      </trkpt>
      <trkpt lat="43.53537" lon="5.52323">
        <ele>249</ele>
        <time>2018-02-20T10:34:07.000Z</time>
      </trkpt>
      <trkpt lat="43.53538" lon="5.52324">
        <ele>249</ele>
        <time>2018-02-20T10:34:08.000Z</time>
      </trkpt>
      <trkpt lat="43.53538" lon="5.52325">
        <ele>249</ele>
        <time>2018-02-20T10:34:09.000Z</time>
      </trkpt>
      <trkpt lat="43.53538" lon="5.52326">
        <ele>249</ele>
        <time>2018-02-20T10:34:10.000Z</time>
      </trkpt>
      <trkpt lat="43.53538" lon="5.52326">
        <ele>249</ele>
        <time>2018-02-20T10:34:11.000Z</time>
      </trkpt>
      <trkpt lat="43.53538" lon="5.52325">
        <ele>249</ele>
        <time>2018-02-20T10:34:12.000Z</time>
      </trkpt>
      <trkpt lat="43.53538" lon="5.52325">
        <ele>249</ele>
        <time>2018-02-20T10:34:13.000Z</time>
      </trkpt>
      <trkpt lat="43.53538" lon="5.52326">
        <ele>249</ele>
        <time>2018-02-20T10:34:14.000Z</time>
      </trkpt>
      <trkpt lat="43.53539" lon="5.52327">
        <ele>249</ele>
        <time>2018-02-20T10:34:15.000Z</time>
      </trkpt>
      <trkpt lat="43.53539" lon="5.52328">
        <ele>249</ele>
        <time>2018-02-20T10:34:16.000Z</time>
      </trkpt>
      <trkpt lat="43.5354" lon="5.52328">
        <ele>249</ele>
        <time>2018-02-20T10:34:17.000Z</time>
      </trkpt>
      <trkpt lat="43.53541" lon="5.52329">
        <ele>249</ele>
        <time>2018-02-20T10:34:18.000Z</time>
      </trkpt>
      <trkpt lat="43.53541" lon="5.52331">
        <ele>249</ele>
        <time>2018-02-20T10:34:19.000Z</time>
      </trkpt>
      <trkpt lat="43.5354" lon="5.52332">
        <ele>249</ele>
        <time>2018-02-20T10:34:20.000Z</time>
      </trkpt>
      <trkpt lat="43.5354" lon="5.52333">
        <ele>249</ele>
        <time>2018-02-20T10:34:21.000Z</time>
      </trkpt>
      <trkpt lat="43.5354" lon="5.52334">
        <ele>248</ele>
        <time>2018-02-20T10:34:22.000Z</time>
      </trkpt>
      <trkpt lat="43.5354" lon="5.52335">
        <ele>248</ele>
        <time>2018-02-20T10:34:23.000Z</time>
      </trkpt>
      <trkpt lat="43.53539" lon="5.52336">
        <ele>248</ele>
        <time>2018-02-20T10:34:24.000Z</time>
      </trkpt>
      <trkpt lat="43.53539" lon="5.52337">
        <ele>248</ele>
        <time>2018-02-20T10:34:25.000Z</time>
      </trkpt>
      <trkpt lat="43.53539" lon="5.52338">
        <ele>248</ele>
        <time>2018-02-20T10:34:26.000Z</time>
      </trkpt>
      <trkpt lat="43.53539" lon="5.52339">
        <ele>248</ele>
        <time>2018-02-20T10:34:27.000Z</time>
      </trkpt>
      <trkpt lat="43.53539" lon="5.5234">
        <ele>248</ele>
        <time>2018-02-20T10:34:28.000Z</time>
      </trkpt>
      <trkpt lat="43.5354" lon="5.5234">
        <ele>248</ele>
        <time>2018-02-20T10:34:29.000Z</time>
      </trkpt>
      <trkpt lat="43.5354" lon="5.52342">
        <ele>248</ele>
        <time>2018-02-20T10:34:30.000Z</time>
      </trkpt>
      <trkpt lat="43.5354" lon="5.52342">
        <ele>248</ele>
        <time>2018-02-20T10:34:31.000Z</time>
      </trkpt>
      <trkpt lat="43.5354" lon="5.52343">
        <ele>248</ele>
        <time>2018-02-20T10:34:32.000Z</time>
      </trkpt>
      <trkpt lat="43.5354" lon="5.52344">
        <ele>248</ele>
        <time>2018-02-20T10:34:33.000Z</time>
      </trkpt>
      <trkpt lat="43.5354" lon="5.52345">
        <ele>248</ele>
        <time>2018-02-20T10:34:34.000Z</time>
      </trkpt>
      <trkpt lat="43.5354" lon="5.52347">
        <ele>248</ele>
        <time>2018-02-20T10:34:35.000Z</time>
      </trkpt>
      <trkpt lat="43.5354" lon="5.52348">
        <ele>248</ele>
        <time>2018-02-20T10:34:36.000Z</time>
      </trkpt>
      <trkpt lat="43.5354" lon="5.52349">
        <ele>247</ele>
        <time>2018-02-20T10:34:37.000Z</time>
      </trkpt>
      <trkpt lat="43.53541" lon="5.5235">
        <ele>247</ele>
        <time>2018-02-20T10:34:38.000Z</time>
      </trkpt>
      <trkpt lat="43.53541" lon="5.52351">
        <ele>247</ele>
        <time>2018-02-20T10:34:39.000Z</time>
      </trkpt>
      <trkpt lat="43.53541" lon="5.52352">
        <ele>247</ele>
        <time>2018-02-20T10:34:40.000Z</time>
      </trkpt>
      <trkpt lat="43.53542" lon="5.52353">
        <ele>247</ele>
        <time>2018-02-20T10:34:41.000Z</time>
      </trkpt>
      <trkpt lat="43.53542" lon="5.52355">
        <ele>247</ele>
        <time>2018-02-20T10:34:42.000Z</time>
      </trkpt>
      <trkpt lat="43.53543" lon="5.52357">
        <ele>247</ele>
        <time>2018-02-20T10:34:43.000Z</time>
      </trkpt>
      <trkpt lat="43.53543" lon="5.52359">
        <ele>246</ele>
        <time>2018-02-20T10:34:44.000Z</time>
      </trkpt>
      <trkpt lat="43.53543" lon="5.5236">
        <ele>246</ele>
        <time>2018-02-20T10:34:45.000Z</time>
      </trkpt>
      <trkpt lat="43.53543" lon="5.52362">
        <ele>246</ele>
        <time>2018-02-20T10:34:46.000Z</time>
      </trkpt>
      <trkpt lat="43.53542" lon="5.52363">
        <ele>247</ele>
        <time>2018-02-20T10:34:47.000Z</time>
      </trkpt>
      <trkpt lat="43.53542" lon="5.52364">
        <ele>247</ele>
        <time>2018-02-20T10:34:48.000Z</time>
      </trkpt>
      <trkpt lat="43.53541" lon="5.52365">
        <ele>247</ele>
        <time>2018-02-20T10:34:49.000Z</time>
      </trkpt>
      <trkpt lat="43.53541" lon="5.52367">
        <ele>247</ele>
        <time>2018-02-20T10:34:50.000Z</time>
      </trkpt>
      <trkpt lat="43.53541" lon="5.52369">
        <ele>247</ele>
        <time>2018-02-20T10:34:51.000Z</time>
      </trkpt>
      <trkpt lat="43.53541" lon="5.5237">
        <ele>247</ele>
        <time>2018-02-20T10:34:52.000Z</time>
      </trkpt>
      <trkpt lat="43.53541" lon="5.52371">
        <ele>247</ele>
        <time>2018-02-20T10:34:53.000Z</time>
      </trkpt>
      <trkpt lat="43.53541" lon="5.52372">
        <ele>247</ele>
        <time>2018-02-20T10:34:54.000Z</time>
      </trkpt>
      <trkpt lat="43.5354" lon="5.52374">
        <ele>247</ele>
        <time>2018-02-20T10:34:55.000Z</time>
      </trkpt>
      <trkpt lat="43.5354" lon="5.52375">
        <ele>247</ele>
        <time>2018-02-20T10:34:56.000Z</time>
      </trkpt>
      <trkpt lat="43.53539" lon="5.52377">
        <ele>246</ele>
        <time>2018-02-20T10:34:57.000Z</time>
      </trkpt>
      <trkpt lat="43.53539" lon="5.52378">
        <ele>246</ele>
        <time>2018-02-20T10:34:58.000Z</time>
      </trkpt>
      <trkpt lat="43.53539" lon="5.5238">
        <ele>246</ele>
        <time>2018-02-20T10:34:59.000Z</time>
      </trkpt>
      <trkpt lat="43.53539" lon="5.52381">
        <ele>246</ele>
        <time>2018-02-20T10:35:00.000Z</time>
      </trkpt>
      <trkpt lat="43.53539" lon="5.52383">
        <ele>246</ele>
        <time>2018-02-20T10:35:01.000Z</time>
      </trkpt>
      <trkpt lat="43.53539" lon="5.52384">
        <ele>246</ele>
        <time>2018-02-20T10:35:02.000Z</time>
      </trkpt>
      <trkpt lat="43.53539" lon="5.52386">
        <ele>246</ele>
        <time>2018-02-20T10:35:03.000Z</time>
      </trkpt>
      <trkpt lat="43.53539" lon="5.52387">
        <ele>247</ele>
        <time>2018-02-20T10:35:04.000Z</time>
      </trkpt>
      <trkpt lat="43.53539" lon="5.52389">
        <ele>246</ele>
        <time>2018-02-20T10:35:05.000Z</time>
      </trkpt>
      <trkpt lat="43.53538" lon="5.5239">
        <ele>246</ele>
        <time>2018-02-20T10:35:06.000Z</time>
      </trkpt>
      <trkpt lat="43.53538" lon="5.52391">
        <ele>247</ele>
        <time>2018-02-20T10:35:07.000Z</time>
      </trkpt>
      <trkpt lat="43.53538" lon="5.52392">
        <ele>247</ele>
        <time>2018-02-20T10:35:08.000Z</time>
      </trkpt>
      <trkpt lat="43.53538" lon="5.52394">
        <ele>247</ele>
        <time>2018-02-20T10:35:09.000Z</time>
      </trkpt>
      <trkpt lat="43.53539" lon="5.52395">
        <ele>246</ele>
        <time>2018-02-20T10:35:10.000Z</time>
      </trkpt>
      <trkpt lat="43.53539" lon="5.52397">
        <ele>246</ele>
        <time>2018-02-20T10:35:11.000Z</time>
      </trkpt>
      <trkpt lat="43.53539" lon="5.52398">
        <ele>246</ele>
        <time>2018-02-20T10:35:12.000Z</time>
      </trkpt>
      <trkpt lat="43.5354" lon="5.52399">
        <ele>246</ele>
        <time>2018-02-20T10:35:13.000Z</time>
      </trkpt>
      <trkpt lat="43.5354" lon="5.524">
        <ele>246</ele>
        <time>2018-02-20T10:35:14.000Z</time>
      </trkpt>
      <trkpt lat="43.53541" lon="5.52401">
        <ele>246</ele>
        <time>2018-02-20T10:35:15.000Z</time>
      </trkpt>
      <trkpt lat="43.53541" lon="5.52402">
        <ele>246</ele>
        <time>2018-02-20T10:35:16.000Z</time>
      </trkpt>
      <trkpt lat="43.53541" lon="5.52402">
        <ele>245</ele>
        <time>2018-02-20T10:35:17.000Z</time>
      </trkpt>
      <trkpt lat="43.53542" lon="5.52403">
        <ele>245</ele>
        <time>2018-02-20T10:35:18.000Z</time>
      </trkpt>
      <trkpt lat="43.53542" lon="5.52404">
        <ele>245</ele>
        <time>2018-02-20T10:35:19.000Z</time>
      </trkpt>
      <trkpt lat="43.53542" lon="5.52406">
        <ele>245</ele>
        <time>2018-02-20T10:35:20.000Z</time>
      </trkpt>
      <trkpt lat="43.53542" lon="5.52407">
        <ele>245</ele>
        <time>2018-02-20T10:35:21.000Z</time>
      </trkpt>
      <trkpt lat="43.53542" lon="5.52408">
        <ele>245</ele>
        <time>2018-02-20T10:35:22.000Z</time>
      </trkpt>
      <trkpt lat="43.53541" lon="5.52409">
        <ele>245</ele>
        <time>2018-02-20T10:35:23.000Z</time>
      </trkpt>
      <trkpt lat="43.5354" lon="5.5241">
        <ele>245</ele>
        <time>2018-02-20T10:35:24.000Z</time>
      </trkpt>
      <trkpt lat="43.5354" lon="5.52411">
        <ele>245</ele>
        <time>2018-02-20T10:35:25.000Z</time>
      </trkpt>
      <trkpt lat="43.5354" lon="5.52412">
        <ele>244</ele>
        <time>2018-02-20T10:35:26.000Z</time>
      </trkpt>
      <trkpt lat="43.5354" lon="5.52414">
        <ele>244</ele>
        <time>2018-02-20T10:35:27.000Z</time>
      </trkpt>
      <trkpt lat="43.53539" lon="5.52415">
        <ele>244</ele>
        <time>2018-02-20T10:35:28.000Z</time>
      </trkpt>
      <trkpt lat="43.53539" lon="5.52416">
        <ele>244</ele>
        <time>2018-02-20T10:35:29.000Z</time>
      </trkpt>
      <trkpt lat="43.53539" lon="5.52417">
        <ele>244</ele>
        <time>2018-02-20T10:35:30.000Z</time>
      </trkpt>
      <trkpt lat="43.53539" lon="5.52418">
        <ele>244</ele>
        <time>2018-02-20T10:35:31.000Z</time>
      </trkpt>
      <trkpt lat="43.53539" lon="5.52418">
        <ele>244</ele>
        <time>2018-02-20T10:35:32.000Z</time>
      </trkpt>
      <trkpt lat="43.53539" lon="5.52418">
        <ele>244</ele>
        <time>2018-02-20T10:35:33.000Z</time>
      </trkpt>
      <trkpt lat="43.53539" lon="5.52418">
        <ele>244</ele>
        <time>2018-02-20T10:35:34.000Z</time>
      </trkpt>
      <trkpt lat="43.53539" lon="5.52418">
        <ele>244</ele>
        <time>2018-02-20T10:35:35.000Z</time>
      </trkpt>
      <trkpt lat="43.53539" lon="5.52419">
        <ele>244</ele>
        <time>2018-02-20T10:35:36.000Z</time>
      </trkpt>
      <trkpt lat="43.53539" lon="5.52419">
        <ele>244</ele>
        <time>2018-02-20T10:35:37.000Z</time>
      </trkpt>
      <trkpt lat="43.53539" lon="5.5242">
        <ele>244</ele>
        <time>2018-02-20T10:35:38.000Z</time>
      </trkpt>
      <trkpt lat="43.53539" lon="5.52421">
        <ele>244</ele>
        <time>2018-02-20T10:35:39.000Z</time>
      </trkpt>
      <trkpt lat="43.53539" lon="5.52421">
        <ele>244</ele>
        <time>2018-02-20T10:35:40.000Z</time>
      </trkpt>
      <trkpt lat="43.53539" lon="5.52422">
        <ele>244</ele>
        <time>2018-02-20T10:35:41.000Z</time>
      </trkpt>
      <trkpt lat="43.53539" lon="5.52424">
        <ele>244</ele>
        <time>2018-02-20T10:35:42.000Z</time>
      </trkpt>
      <trkpt lat="43.53539" lon="5.52425">
        <ele>244</ele>
        <time>2018-02-20T10:35:43.000Z</time>
      </trkpt>
      <trkpt lat="43.53539" lon="5.52425">
        <ele>244</ele>
        <time>2018-02-20T10:35:44.000Z</time>
      </trkpt>
      <trkpt lat="43.53539" lon="5.52426">
        <ele>244</ele>
        <time>2018-02-20T10:35:45.000Z</time>
      </trkpt>
      <trkpt lat="43.53539" lon="5.52426">
        <ele>244</ele>
        <time>2018-02-20T10:35:46.000Z</time>
      </trkpt>
      <trkpt lat="43.53539" lon="5.52427">
        <ele>244</ele>
        <time>2018-02-20T10:35:47.000Z</time>
      </trkpt>
      <trkpt lat="43.53538" lon="5.52428">
        <ele>244</ele>
        <time>2018-02-20T10:35:48.000Z</time>
      </trkpt>
      <trkpt lat="43.53538" lon="5.52429">
        <ele>244</ele>
        <time>2018-02-20T10:35:49.000Z</time>
      </trkpt>
      <trkpt lat="43.53538" lon="5.52429">
        <ele>244</ele>
        <time>2018-02-20T10:35:50.000Z</time>
      </trkpt>
      <trkpt lat="43.53538" lon="5.5243">
        <ele>244</ele>
        <time>2018-02-20T10:35:51.000Z</time>
      </trkpt>
      <trkpt lat="43.53537" lon="5.52431">
        <ele>244</ele>
        <time>2018-02-20T10:35:52.000Z</time>
      </trkpt>
      <trkpt lat="43.53537" lon="5.52432">
        <ele>244</ele>
        <time>2018-02-20T10:35:53.000Z</time>
      </trkpt>
      <trkpt lat="43.53536" lon="5.52432">
        <ele>244</ele>
        <time>2018-02-20T10:35:54.000Z</time>
      </trkpt>
      <trkpt lat="43.53536" lon="5.52432">
        <ele>244</ele>
        <time>2018-02-20T10:35:55.000Z</time>
      </trkpt>
      <trkpt lat="43.53536" lon="5.52433">
        <ele>244</ele>
        <time>2018-02-20T10:35:56.000Z</time>
      </trkpt>
      <trkpt lat="43.53536" lon="5.52433">
        <ele>244</ele>
        <time>2018-02-20T10:35:57.000Z</time>
      </trkpt>
      <trkpt lat="43.53536" lon="5.52433">
        <ele>244</ele>
        <time>2018-02-20T10:35:58.000Z</time>
      </trkpt>
      <trkpt lat="43.53536" lon="5.52433">
        <ele>244</ele>
        <time>2018-02-20T10:35:59.000Z</time>
      </trkpt>
      <trkpt lat="43.53535" lon="5.52434">
        <ele>244</ele>
        <time>2018-02-20T10:36:00.000Z</time>
      </trkpt>
      <trkpt lat="43.53535" lon="5.52434">
        <ele>244</ele>
        <time>2018-02-20T10:36:01.000Z</time>
      </trkpt>
      <trkpt lat="43.53535" lon="5.52435">
        <ele>244</ele>
        <time>2018-02-20T10:36:02.000Z</time>
      </trkpt>
      <trkpt lat="43.53534" lon="5.52436">
        <ele>244</ele>
        <time>2018-02-20T10:36:03.000Z</time>
      </trkpt>
      <trkpt lat="43.53534" lon="5.52437">
        <ele>244</ele>
        <time>2018-02-20T10:36:04.000Z</time>
      </trkpt>
      <trkpt lat="43.53534" lon="5.52438">
        <ele>244</ele>
        <time>2018-02-20T10:36:05.000Z</time>
      </trkpt>
      <trkpt lat="43.53533" lon="5.52438">
        <ele>244</ele>
        <time>2018-02-20T10:36:06.000Z</time>
      </trkpt>
      <trkpt lat="43.53533" lon="5.52439">
        <ele>244</ele>
        <time>2018-02-20T10:36:07.000Z</time>
      </trkpt>
      <trkpt lat="43.53533" lon="5.5244">
        <ele>244</ele>
        <time>2018-02-20T10:36:08.000Z</time>
      </trkpt>
      <trkpt lat="43.53533" lon="5.5244">
        <ele>244</ele>
        <time>2018-02-20T10:36:09.000Z</time>
      </trkpt>
      <trkpt lat="43.53534" lon="5.52441">
        <ele>244</ele>
        <time>2018-02-20T10:36:10.000Z</time>
      </trkpt>
      <trkpt lat="43.53534" lon="5.52442">
        <ele>244</ele>
        <time>2018-02-20T10:36:11.000Z</time>
      </trkpt>
      <trkpt lat="43.53534" lon="5.52443">
        <ele>244</ele>
        <time>2018-02-20T10:36:12.000Z</time>
      </trkpt>
      <trkpt lat="43.53534" lon="5.52443">
        <ele>244</ele>
        <time>2018-02-20T10:36:13.000Z</time>
      </trkpt>
      <trkpt lat="43.53533" lon="5.52444">
        <ele>244</ele>
        <time>2018-02-20T10:36:14.000Z</time>
      </trkpt>
      <trkpt lat="43.53533" lon="5.52445">
        <ele>244</ele>
        <time>2018-02-20T10:36:15.000Z</time>
      </trkpt>
      <trkpt lat="43.53532" lon="5.52446">
        <ele>244</ele>
        <time>2018-02-20T10:36:16.000Z</time>
      </trkpt>
      <trkpt lat="43.53532" lon="5.52447">
        <ele>244</ele>
        <time>2018-02-20T10:36:17.000Z</time>
      </trkpt>
      <trkpt lat="43.53532" lon="5.52448">
        <ele>243</ele>
        <time>2018-02-20T10:36:18.000Z</time>
      </trkpt>
      <trkpt lat="43.53532" lon="5.52449">
        <ele>243</ele>
        <time>2018-02-20T10:36:19.000Z</time>
      </trkpt>
      <trkpt lat="43.53531" lon="5.52449">
        <ele>243</ele>
        <time>2018-02-20T10:36:20.000Z</time>
      </trkpt>
      <trkpt lat="43.53531" lon="5.5245">
        <ele>243</ele>
        <time>2018-02-20T10:36:21.000Z</time>
      </trkpt>
      <trkpt lat="43.53531" lon="5.52451">
        <ele>243</ele>
        <time>2018-02-20T10:36:22.000Z</time>
      </trkpt>
      <trkpt lat="43.5353" lon="5.52452">
        <ele>243</ele>
        <time>2018-02-20T10:36:23.000Z</time>
      </trkpt>
      <trkpt lat="43.5353" lon="5.52453">
        <ele>243</ele>
        <time>2018-02-20T10:36:24.000Z</time>
      </trkpt>
      <trkpt lat="43.5353" lon="5.52453">
        <ele>243</ele>
        <time>2018-02-20T10:36:25.000Z</time>
      </trkpt>
      <trkpt lat="43.5353" lon="5.52454">
        <ele>243</ele>
        <time>2018-02-20T10:36:26.000Z</time>
      </trkpt>
      <trkpt lat="43.53531" lon="5.52455">
        <ele>243</ele>
        <time>2018-02-20T10:36:27.000Z</time>
      </trkpt>
      <trkpt lat="43.53531" lon="5.52456">
        <ele>243</ele>
        <time>2018-02-20T10:36:28.000Z</time>
      </trkpt>
      <trkpt lat="43.5353" lon="5.52456">
        <ele>243</ele>
        <time>2018-02-20T10:36:29.000Z</time>
      </trkpt>
      <trkpt lat="43.5353" lon="5.52457">
        <ele>243</ele>
        <time>2018-02-20T10:36:30.000Z</time>
      </trkpt>
      <trkpt lat="43.5353" lon="5.52457">
        <ele>243</ele>
        <time>2018-02-20T10:36:31.000Z</time>
      </trkpt>
      <trkpt lat="43.5353" lon="5.52458">
        <ele>243</ele>
        <time>2018-02-20T10:36:32.000Z</time>
      </trkpt>
      <trkpt lat="43.5353" lon="5.52458">
        <ele>243</ele>
        <time>2018-02-20T10:36:33.000Z</time>
      </trkpt>
      <trkpt lat="43.5353" lon="5.52458">
        <ele>243</ele>
        <time>2018-02-20T10:36:34.000Z</time>
      </trkpt>
      <trkpt lat="43.53531" lon="5.52458">
        <ele>243</ele>
        <time>2018-02-20T10:36:35.000Z</time>
      </trkpt>
      <trkpt lat="43.53531" lon="5.52458">
        <ele>243</ele>
        <time>2018-02-20T10:36:36.000Z</time>
      </trkpt>
      <trkpt lat="43.53531" lon="5.52458">
        <ele>243</ele>
        <time>2018-02-20T10:36:37.000Z</time>
      </trkpt>
      <trkpt lat="43.53531" lon="5.52458">
        <ele>243</ele>
        <time>2018-02-20T10:36:38.000Z</time>
      </trkpt>
      <trkpt lat="43.53531" lon="5.52458">
        <ele>242</ele>
        <time>2018-02-20T10:36:39.000Z</time>
      </trkpt>
      <trkpt lat="43.53531" lon="5.52458">
        <ele>242</ele>
        <time>2018-02-20T10:36:40.000Z</time>
      </trkpt>
      <trkpt lat="43.53531" lon="5.52458">
        <ele>242</ele>
        <time>2018-02-20T10:36:41.000Z</time>
      </trkpt>
      <trkpt lat="43.53531" lon="5.52458">
        <ele>243</ele>
        <time>2018-02-20T10:36:42.000Z</time>
      </trkpt>
      <trkpt lat="43.53531" lon="5.52458">
        <ele>243</ele>
        <time>2018-02-20T10:36:43.000Z</time>
      </trkpt>
      <trkpt lat="43.53531" lon="5.52458">
        <ele>243</ele>
        <time>2018-02-20T10:36:44.000Z</time>
      </trkpt>
      <trkpt lat="43.53531" lon="5.52458">
        <ele>243</ele>
        <time>2018-02-20T10:36:45.000Z</time>
      </trkpt>
      <trkpt lat="43.53531" lon="5.52458">
        <ele>243</ele>
        <time>2018-02-20T10:36:46.000Z</time>
      </trkpt>
      <trkpt lat="43.53532" lon="5.52458">
        <ele>243</ele>
        <time>2018-02-20T10:36:47.000Z</time>
      </trkpt>
      <trkpt lat="43.53532" lon="5.52458">
        <ele>243</ele>
        <time>2018-02-20T10:36:48.000Z</time>
      </trkpt>
      <trkpt lat="43.53532" lon="5.52458">
        <ele>243</ele>
        <time>2018-02-20T10:36:49.000Z</time>
      </trkpt>
      <trkpt lat="43.53532" lon="5.52458">
        <ele>243</ele>
        <time>2018-02-20T10:36:50.000Z</time>
      </trkpt>
      <trkpt lat="43.53532" lon="5.52458">
        <ele>243</ele>
        <time>2018-02-20T10:36:51.000Z</time>
      </trkpt>
      <trkpt lat="43.53532" lon="5.52458">
        <ele>243</ele>
        <time>2018-02-20T10:36:52.000Z</time>
      </trkpt>
      <trkpt lat="43.53532" lon="5.52458">
        <ele>243</ele>
        <time>2018-02-20T10:36:53.000Z</time>
      </trkpt>
      <trkpt lat="43.53532" lon="5.52458">
        <ele>243</ele>
        <time>2018-02-20T10:36:54.000Z</time>
      </trkpt>
      <trkpt lat="43.53532" lon="5.52458">
        <ele>243</ele>
        <time>2018-02-20T10:36:55.000Z</time>
      </trkpt>
      <trkpt lat="43.53532" lon="5.52458">
        <ele>242</ele>
        <time>2018-02-20T10:36:56.000Z</time>
      </trkpt>
      <trkpt lat="43.53532" lon="5.52458">
        <ele>242</ele>
        <time>2018-02-20T10:36:57.000Z</time>
      </trkpt>
      <trkpt lat="43.53532" lon="5.52458">
        <ele>242</ele>
        <time>2018-02-20T10:36:58.000Z</time>
      </trkpt>
      <trkpt lat="43.53532" lon="5.52458">
        <ele>242</ele>
        <time>2018-02-20T10:36:59.000Z</time>
      </trkpt>
      <trkpt lat="43.53532" lon="5.52458">
        <ele>242</ele>
        <time>2018-02-20T10:37:00.000Z</time>
      </trkpt>
      <trkpt lat="43.53532" lon="5.52458">
        <ele>242</ele>
        <time>2018-02-20T10:37:01.000Z</time>
      </trkpt>
      <trkpt lat="43.53532" lon="5.52458">
        <ele>242</ele>
        <time>2018-02-20T10:37:02.000Z</time>
      </trkpt>
      <trkpt lat="43.53532" lon="5.52458">
        <ele>242</ele>
        <time>2018-02-20T10:37:03.000Z</time>
      </trkpt>
      <trkpt lat="43.53532" lon="5.52458">
        <ele>242</ele>
        <time>2018-02-20T10:37:04.000Z</time>
      </trkpt>
      <trkpt lat="43.53532" lon="5.52458">
        <ele>242</ele>
        <time>2018-02-20T10:37:05.000Z</time>
      </trkpt>
      <trkpt lat="43.53532" lon="5.52458">
        <ele>242</ele>
        <time>2018-02-20T10:37:06.000Z</time>
      </trkpt>
      <trkpt lat="43.53532" lon="5.52458">
        <ele>242</ele>
        <time>2018-02-20T10:37:07.000Z</time>
      </trkpt>
      <trkpt lat="43.53532" lon="5.52458">
        <ele>242</ele>
        <time>2018-02-20T10:37:08.000Z</time>
      </trkpt>
      <trkpt lat="43.53532" lon="5.52458">
        <ele>242</ele>
        <time>2018-02-20T10:37:09.000Z</time>
      </trkpt>
      <trkpt lat="43.53532" lon="5.52458">
        <ele>242</ele>
        <time>2018-02-20T10:37:10.000Z</time>
      </trkpt>
      <trkpt lat="43.53532" lon="5.52458">
        <ele>242</ele>
        <time>2018-02-20T10:37:11.000Z</time>
      </trkpt>
      <trkpt lat="43.53532" lon="5.52458">
        <ele>242</ele>
        <time>2018-02-20T10:37:12.000Z</time>
      </trkpt>
      <trkpt lat="43.53532" lon="5.52458">
        <ele>242</ele>
        <time>2018-02-20T10:37:13.000Z</time>
      </trkpt>
      <trkpt lat="43.53532" lon="5.52458">
        <ele>242</ele>
        <time>2018-02-20T10:37:14.000Z</time>
      </trkpt>
      <trkpt lat="43.53532" lon="5.52457">
        <ele>242</ele>
        <time>2018-02-20T10:37:15.000Z</time>
      </trkpt>
      <trkpt lat="43.53532" lon="5.52457">
        <ele>242</ele>
        <time>2018-02-20T10:37:16.000Z</time>
      </trkpt>
      <trkpt lat="43.53532" lon="5.52457">
        <ele>242</ele>
        <time>2018-02-20T10:37:17.000Z</time>
      </trkpt>
      <trkpt lat="43.53532" lon="5.52457">
        <ele>242</ele>
        <time>2018-02-20T10:37:18.000Z</time>
      </trkpt>
      <trkpt lat="43.53532" lon="5.52457">
        <ele>242</ele>
        <time>2018-02-20T10:37:19.000Z</time>
      </trkpt>
      <trkpt lat="43.53532" lon="5.52457">
        <ele>242</ele>
        <time>2018-02-20T10:37:20.000Z</time>
      </trkpt>
      <trkpt lat="43.53532" lon="5.52457">
        <ele>242</ele>
        <time>2018-02-20T10:37:21.000Z</time>
      </trkpt>
      <trkpt lat="43.53532" lon="5.52457">
        <ele>242</ele>
        <time>2018-02-20T10:37:22.000Z</time>
      </trkpt>
      <trkpt lat="43.53532" lon="5.52457">
        <ele>242</ele>
        <time>2018-02-20T10:37:23.000Z</time>
      </trkpt>
      <trkpt lat="43.53532" lon="5.52457">
        <ele>242</ele>
        <time>2018-02-20T10:37:24.000Z</time>
      </trkpt>
      <trkpt lat="43.53532" lon="5.52457">
        <ele>242</ele>
        <time>2018-02-20T10:37:25.000Z</time>
      </trkpt>
      <trkpt lat="43.53532" lon="5.52457">
        <ele>242</ele>
        <time>2018-02-20T10:37:26.000Z</time>
      </trkpt>
      <trkpt lat="43.53533" lon="5.52457">
        <ele>242</ele>
        <time>2018-02-20T10:37:27.000Z</time>
      </trkpt>
      <trkpt lat="43.53533" lon="5.52458">
        <ele>242</ele>
        <time>2018-02-20T10:37:28.000Z</time>
      </trkpt>
      <trkpt lat="43.53533" lon="5.52458">
        <ele>242</ele>
        <time>2018-02-20T10:37:29.000Z</time>
      </trkpt>
      <trkpt lat="43.53533" lon="5.52458">
        <ele>242</ele>
        <time>2018-02-20T10:37:30.000Z</time>
      </trkpt>
      <trkpt lat="43.53533" lon="5.52459">
        <ele>242</ele>
        <time>2018-02-20T10:37:31.000Z</time>
      </trkpt>
      <trkpt lat="43.53533" lon="5.5246">
        <ele>242</ele>
        <time>2018-02-20T10:37:32.000Z</time>
      </trkpt>
      <trkpt lat="43.53533" lon="5.5246">
        <ele>242</ele>
        <time>2018-02-20T10:37:33.000Z</time>
      </trkpt>
      <trkpt lat="43.53532" lon="5.52461">
        <ele>242</ele>
        <time>2018-02-20T10:37:34.000Z</time>
      </trkpt>
      <trkpt lat="43.53532" lon="5.52462">
        <ele>242</ele>
        <time>2018-02-20T10:37:35.000Z</time>
      </trkpt>
      <trkpt lat="43.53532" lon="5.52463">
        <ele>241</ele>
        <time>2018-02-20T10:37:36.000Z</time>
      </trkpt>
      <trkpt lat="43.53532" lon="5.52464">
        <ele>241</ele>
        <time>2018-02-20T10:37:37.000Z</time>
      </trkpt>
      <trkpt lat="43.53531" lon="5.52465">
        <ele>241</ele>
        <time>2018-02-20T10:37:38.000Z</time>
      </trkpt>
      <trkpt lat="43.53531" lon="5.52466">
        <ele>241</ele>
        <time>2018-02-20T10:37:39.000Z</time>
      </trkpt>
      <trkpt lat="43.53531" lon="5.52467">
        <ele>241</ele>
        <time>2018-02-20T10:37:40.000Z</time>
      </trkpt>
      <trkpt lat="43.5353" lon="5.52468">
        <ele>241</ele>
        <time>2018-02-20T10:37:41.000Z</time>
      </trkpt>
      <trkpt lat="43.5353" lon="5.52469">
        <ele>242</ele>
        <time>2018-02-20T10:37:42.000Z</time>
      </trkpt>
      <trkpt lat="43.5353" lon="5.5247">
        <ele>242</ele>
        <time>2018-02-20T10:37:43.000Z</time>
      </trkpt>
      <trkpt lat="43.5353" lon="5.52472">
        <ele>242</ele>
        <time>2018-02-20T10:37:44.000Z</time>
      </trkpt>
      <trkpt lat="43.5353" lon="5.52473">
        <ele>242</ele>
        <time>2018-02-20T10:37:45.000Z</time>
      </trkpt>
      <trkpt lat="43.53531" lon="5.52474">
        <ele>242</ele>
        <time>2018-02-20T10:37:46.000Z</time>
      </trkpt>
      <trkpt lat="43.53531" lon="5.52475">
        <ele>242</ele>
        <time>2018-02-20T10:37:47.000Z</time>
      </trkpt>
      <trkpt lat="43.53532" lon="5.52476">
        <ele>242</ele>
        <time>2018-02-20T10:37:48.000Z</time>
      </trkpt>
      <trkpt lat="43.53532" lon="5.52478">
        <ele>242</ele>
        <time>2018-02-20T10:37:49.000Z</time>
      </trkpt>
      <trkpt lat="43.53532" lon="5.52479">
        <ele>242</ele>
        <time>2018-02-20T10:37:50.000Z</time>
      </trkpt>
      <trkpt lat="43.53532" lon="5.52481">
        <ele>242</ele>
        <time>2018-02-20T10:37:51.000Z</time>
      </trkpt>
      <trkpt lat="43.53532" lon="5.52481">
        <ele>242</ele>
        <time>2018-02-20T10:37:52.000Z</time>
      </trkpt>
      <trkpt lat="43.53533" lon="5.52483">
        <ele>242</ele>
        <time>2018-02-20T10:37:53.000Z</time>
      </trkpt>
      <trkpt lat="43.53532" lon="5.52484">
        <ele>242</ele>
        <time>2018-02-20T10:37:54.000Z</time>
      </trkpt>
      <trkpt lat="43.53532" lon="5.52485">
        <ele>243</ele>
        <time>2018-02-20T10:37:55.000Z</time>
      </trkpt>
      <trkpt lat="43.53533" lon="5.52486">
        <ele>243</ele>
        <time>2018-02-20T10:37:56.000Z</time>
      </trkpt>
      <trkpt lat="43.53532" lon="5.52487">
        <ele>243</ele>
        <time>2018-02-20T10:37:57.000Z</time>
      </trkpt>
      <trkpt lat="43.53532" lon="5.52488">
        <ele>243</ele>
        <time>2018-02-20T10:37:58.000Z</time>
      </trkpt>
      <trkpt lat="43.53532" lon="5.52489">
        <ele>243</ele>
        <time>2018-02-20T10:37:59.000Z</time>
      </trkpt>
      <trkpt lat="43.53532" lon="5.5249">
        <ele>243</ele>
        <time>2018-02-20T10:38:00.000Z</time>
      </trkpt>
      <trkpt lat="43.53532" lon="5.5249">
        <ele>243</ele>
        <time>2018-02-20T10:38:01.000Z</time>
      </trkpt>
      <trkpt lat="43.53531" lon="5.5249">
        <ele>243</ele>
        <time>2018-02-20T10:38:02.000Z</time>
      </trkpt>
      <trkpt lat="43.53531" lon="5.5249">
        <ele>243</ele>
        <time>2018-02-20T10:38:03.000Z</time>
      </trkpt>
      <trkpt lat="43.53531" lon="5.5249">
        <ele>243</ele>
        <time>2018-02-20T10:38:04.000Z</time>
      </trkpt>
      <trkpt lat="43.53531" lon="5.5249">
        <ele>243</ele>
        <time>2018-02-20T10:38:05.000Z</time>
      </trkpt>
      <trkpt lat="43.53531" lon="5.5249">
        <ele>243</ele>
        <time>2018-02-20T10:38:06.000Z</time>
      </trkpt>
      <trkpt lat="43.53531" lon="5.5249">
        <ele>243</ele>
        <time>2018-02-20T10:38:07.000Z</time>
      </trkpt>
      <trkpt lat="43.53531" lon="5.5249">
        <ele>243</ele>
        <time>2018-02-20T10:38:08.000Z</time>
      </trkpt>
      <trkpt lat="43.53531" lon="5.5249">
        <ele>243</ele>
        <time>2018-02-20T10:38:09.000Z</time>
      </trkpt>
      <trkpt lat="43.53531" lon="5.5249">
        <ele>243</ele>
        <time>2018-02-20T10:38:10.000Z</time>
      </trkpt>
      <trkpt lat="43.53531" lon="5.5249">
        <ele>243</ele>
        <time>2018-02-20T10:38:11.000Z</time>
      </trkpt>
      <trkpt lat="43.53531" lon="5.5249">
        <ele>243</ele>
        <time>2018-02-20T10:38:12.000Z</time>
      </trkpt>
      <trkpt lat="43.53531" lon="5.5249">
        <ele>243</ele>
        <time>2018-02-20T10:38:13.000Z</time>
      </trkpt>
      <trkpt lat="43.53531" lon="5.5249">
        <ele>243</ele>
        <time>2018-02-20T10:38:14.000Z</time>
      </trkpt>
      <trkpt lat="43.53531" lon="5.5249">
        <ele>243</ele>
        <time>2018-02-20T10:38:15.000Z</time>
      </trkpt>
      <trkpt lat="43.53531" lon="5.5249">
        <ele>243</ele>
        <time>2018-02-20T10:38:16.000Z</time>
      </trkpt>
      <trkpt lat="43.53531" lon="5.5249">
        <ele>243</ele>
        <time>2018-02-20T10:38:17.000Z</time>
      </trkpt>
      <trkpt lat="43.53531" lon="5.5249">
        <ele>243</ele>
        <time>2018-02-20T10:38:18.000Z</time>
      </trkpt>
      <trkpt lat="43.53531" lon="5.5249">
        <ele>243</ele>
        <time>2018-02-20T10:38:19.000Z</time>
      </trkpt>
      <trkpt lat="43.53531" lon="5.5249">
        <ele>243</ele>
        <time>2018-02-20T10:38:20.000Z</time>
      </trkpt>
      <trkpt lat="43.53531" lon="5.5249">
        <ele>243</ele>
        <time>2018-02-20T10:38:21.000Z</time>
      </trkpt>
      <trkpt lat="43.53531" lon="5.5249">
        <ele>243</ele>
        <time>2018-02-20T10:38:22.000Z</time>
      </trkpt>
      <trkpt lat="43.53531" lon="5.5249">
        <ele>243</ele>
        <time>2018-02-20T10:38:23.000Z</time>
      </trkpt>
      <trkpt lat="43.53531" lon="5.5249">
        <ele>243</ele>
        <time>2018-02-20T10:38:24.000Z</time>
      </trkpt>
      <trkpt lat="43.53531" lon="5.52491">
        <ele>243</ele>
        <time>2018-02-20T10:38:25.000Z</time>
      </trkpt>
      <trkpt lat="43.53531" lon="5.52491">
        <ele>243</ele>
        <time>2018-02-20T10:38:26.000Z</time>
      </trkpt>
      <trkpt lat="43.53531" lon="5.52491">
        <ele>243</ele>
        <time>2018-02-20T10:38:27.000Z</time>
      </trkpt>
      <trkpt lat="43.53531" lon="5.52492">
        <ele>243</ele>
        <time>2018-02-20T10:38:28.000Z</time>
      </trkpt>
      <trkpt lat="43.53531" lon="5.52492">
        <ele>243</ele>
        <time>2018-02-20T10:38:29.000Z</time>
      </trkpt>
      <trkpt lat="43.53531" lon="5.52492">
        <ele>243</ele>
        <time>2018-02-20T10:38:30.000Z</time>
      </trkpt>
      <trkpt lat="43.53531" lon="5.52492">
        <ele>243</ele>
        <time>2018-02-20T10:38:31.000Z</time>
      </trkpt>
      <trkpt lat="43.53531" lon="5.52492">
        <ele>243</ele>
        <time>2018-02-20T10:38:32.000Z</time>
      </trkpt>
      <trkpt lat="43.53531" lon="5.52492">
        <ele>243</ele>
        <time>2018-02-20T10:38:33.000Z</time>
      </trkpt>
      <trkpt lat="43.53531" lon="5.52492">
        <ele>243</ele>
        <time>2018-02-20T10:38:34.000Z</time>
      </trkpt>
      <trkpt lat="43.53531" lon="5.52492">
        <ele>244</ele>
        <time>2018-02-20T10:38:35.000Z</time>
      </trkpt>
      <trkpt lat="43.53531" lon="5.52492">
        <ele>244</ele>
        <time>2018-02-20T10:38:36.000Z</time>
      </trkpt>
      <trkpt lat="43.53531" lon="5.52492">
        <ele>244</ele>
        <time>2018-02-20T10:38:37.000Z</time>
      </trkpt>
      <trkpt lat="43.53531" lon="5.52493">
        <ele>244</ele>
        <time>2018-02-20T10:38:38.000Z</time>
      </trkpt>
      <trkpt lat="43.53531" lon="5.52493">
        <ele>244</ele>
        <time>2018-02-20T10:38:39.000Z</time>
      </trkpt>
      <trkpt lat="43.53531" lon="5.52493">
        <ele>244</ele>
        <time>2018-02-20T10:38:40.000Z</time>
      </trkpt>
      <trkpt lat="43.53531" lon="5.52492">
        <ele>244</ele>
        <time>2018-02-20T10:38:41.000Z</time>
      </trkpt>
      <trkpt lat="43.53531" lon="5.52492">
        <ele>244</ele>
        <time>2018-02-20T10:38:42.000Z</time>
      </trkpt>
      <trkpt lat="43.53531" lon="5.52493">
        <ele>244</ele>
        <time>2018-02-20T10:38:43.000Z</time>
      </trkpt>
      <trkpt lat="43.53531" lon="5.52493">
        <ele>244</ele>
        <time>2018-02-20T10:38:44.000Z</time>
      </trkpt>
      <trkpt lat="43.53531" lon="5.52493">
        <ele>244</ele>
        <time>2018-02-20T10:38:45.000Z</time>
      </trkpt>
      <trkpt lat="43.53531" lon="5.52494">
        <ele>244</ele>
        <time>2018-02-20T10:38:46.000Z</time>
      </trkpt>
      <trkpt lat="43.53532" lon="5.52494">
        <ele>244</ele>
        <time>2018-02-20T10:38:47.000Z</time>
      </trkpt>
      <trkpt lat="43.53532" lon="5.52494">
        <ele>244</ele>
        <time>2018-02-20T10:38:48.000Z</time>
      </trkpt>
      <trkpt lat="43.53532" lon="5.52494">
        <ele>244</ele>
        <time>2018-02-20T10:38:49.000Z</time>
      </trkpt>
      <trkpt lat="43.53532" lon="5.52494">
        <ele>244</ele>
        <time>2018-02-20T10:38:50.000Z</time>
      </trkpt>
      <trkpt lat="43.53532" lon="5.52494">
        <ele>243</ele>
        <time>2018-02-20T10:38:51.000Z</time>
      </trkpt>
      <trkpt lat="43.53532" lon="5.52494">
        <ele>243</ele>
        <time>2018-02-20T10:38:52.000Z</time>
      </trkpt>
      <trkpt lat="43.53532" lon="5.52494">
        <ele>243</ele>
        <time>2018-02-20T10:38:53.000Z</time>
      </trkpt>
      <trkpt lat="43.53532" lon="5.52494">
        <ele>243</ele>
        <time>2018-02-20T10:38:54.000Z</time>
      </trkpt>
      <trkpt lat="43.53532" lon="5.52494">
        <ele>243</ele>
        <time>2018-02-20T10:38:55.000Z</time>
      </trkpt>
      <trkpt lat="43.53532" lon="5.52494">
        <ele>243</ele>
        <time>2018-02-20T10:38:56.000Z</time>
      </trkpt>
      <trkpt lat="43.53532" lon="5.52495">
        <ele>244</ele>
        <time>2018-02-20T10:38:57.000Z</time>
      </trkpt>
      <trkpt lat="43.53532" lon="5.52495">
        <ele>244</ele>
        <time>2018-02-20T10:38:58.000Z</time>
      </trkpt>
      <trkpt lat="43.53533" lon="5.52494">
        <ele>244</ele>
        <time>2018-02-20T10:38:59.000Z</time>
      </trkpt>
      <trkpt lat="43.53532" lon="5.52494">
        <ele>244</ele>
        <time>2018-02-20T10:39:00.000Z</time>
      </trkpt>
      <trkpt lat="43.53532" lon="5.52494">
        <ele>244</ele>
        <time>2018-02-20T10:39:01.000Z</time>
      </trkpt>
      <trkpt lat="43.53533" lon="5.52494">
        <ele>244</ele>
        <time>2018-02-20T10:39:02.000Z</time>
      </trkpt>
      <trkpt lat="43.53533" lon="5.52494">
        <ele>244</ele>
        <time>2018-02-20T10:39:03.000Z</time>
      </trkpt>
      <trkpt lat="43.53533" lon="5.52494">
        <ele>244</ele>
        <time>2018-02-20T10:39:04.000Z</time>
      </trkpt>
      <trkpt lat="43.53533" lon="5.52494">
        <ele>244</ele>
        <time>2018-02-20T10:39:05.000Z</time>
      </trkpt>
      <trkpt lat="43.53533" lon="5.52494">
        <ele>244</ele>
        <time>2018-02-20T10:39:06.000Z</time>
      </trkpt>
      <trkpt lat="43.53533" lon="5.52494">
        <ele>244</ele>
        <time>2018-02-20T10:39:07.000Z</time>
      </trkpt>
      <trkpt lat="43.53533" lon="5.52493">
        <ele>244</ele>
        <time>2018-02-20T10:39:08.000Z</time>
      </trkpt>
      <trkpt lat="43.53533" lon="5.52493">
        <ele>244</ele>
        <time>2018-02-20T10:39:09.000Z</time>
      </trkpt>
      <trkpt lat="43.53533" lon="5.52493">
        <ele>244</ele>
        <time>2018-02-20T10:39:10.000Z</time>
      </trkpt>
      <trkpt lat="43.53534" lon="5.52493">
        <ele>244</ele>
        <time>2018-02-20T10:39:11.000Z</time>
      </trkpt>
      <trkpt lat="43.53534" lon="5.52493">
        <ele>244</ele>
        <time>2018-02-20T10:39:12.000Z</time>
      </trkpt>
      <trkpt lat="43.53534" lon="5.52493">
        <ele>244</ele>
        <time>2018-02-20T10:39:13.000Z</time>
      </trkpt>
      <trkpt lat="43.53534" lon="5.52493">
        <ele>245</ele>
        <time>2018-02-20T10:39:14.000Z</time>
      </trkpt>
      <trkpt lat="43.53534" lon="5.52493">
        <ele>245</ele>
        <time>2018-02-20T10:39:15.000Z</time>
      </trkpt>
      <trkpt lat="43.53534" lon="5.52493">
        <ele>245</ele>
        <time>2018-02-20T10:39:16.000Z</time>
      </trkpt>
      <trkpt lat="43.53534" lon="5.52493">
        <ele>245</ele>
        <time>2018-02-20T10:39:17.000Z</time>
      </trkpt>
      <trkpt lat="43.53534" lon="5.52493">
        <ele>245</ele>
        <time>2018-02-20T10:39:18.000Z</time>
      </trkpt>
      <trkpt lat="43.53534" lon="5.52493">
        <ele>245</ele>
        <time>2018-02-20T10:39:19.000Z</time>
      </trkpt>
      <trkpt lat="43.53534" lon="5.52493">
        <ele>245</ele>
        <time>2018-02-20T10:39:20.000Z</time>
      </trkpt>
      <trkpt lat="43.53534" lon="5.52493">
        <ele>245</ele>
        <time>2018-02-20T10:39:21.000Z</time>
      </trkpt>
      <trkpt lat="43.53534" lon="5.52493">
        <ele>245</ele>
        <time>2018-02-20T10:39:22.000Z</time>
      </trkpt>
      <trkpt lat="43.53535" lon="5.52493">
        <ele>245</ele>
        <time>2018-02-20T10:39:23.000Z</time>
      </trkpt>
      <trkpt lat="43.53535" lon="5.52493">
        <ele>244</ele>
        <time>2018-02-20T10:39:24.000Z</time>
      </trkpt>
      <trkpt lat="43.53534" lon="5.52493">
        <ele>244</ele>
        <time>2018-02-20T10:39:25.000Z</time>
      </trkpt>
      <trkpt lat="43.53535" lon="5.52493">
        <ele>244</ele>
        <time>2018-02-20T10:39:26.000Z</time>
      </trkpt>
      <trkpt lat="43.53535" lon="5.52494">
        <ele>245</ele>
        <time>2018-02-20T10:39:27.000Z</time>
      </trkpt>
      <trkpt lat="43.53535" lon="5.52494">
        <ele>245</ele>
        <time>2018-02-20T10:39:28.000Z</time>
      </trkpt>
      <trkpt lat="43.53535" lon="5.52494">
        <ele>245</ele>
        <time>2018-02-20T10:39:29.000Z</time>
      </trkpt>
      <trkpt lat="43.53535" lon="5.52494">
        <ele>245</ele>
        <time>2018-02-20T10:39:30.000Z</time>
      </trkpt>
      <trkpt lat="43.53535" lon="5.52493">
        <ele>245</ele>
        <time>2018-02-20T10:39:31.000Z</time>
      </trkpt>
      <trkpt lat="43.53535" lon="5.52494">
        <ele>245</ele>
        <time>2018-02-20T10:39:32.000Z</time>
      </trkpt>
      <trkpt lat="43.53535" lon="5.52495">
        <ele>245</ele>
        <time>2018-02-20T10:39:33.000Z</time>
      </trkpt>
      <trkpt lat="43.53535" lon="5.52496">
        <ele>245</ele>
        <time>2018-02-20T10:39:34.000Z</time>
      </trkpt>
      <trkpt lat="43.53535" lon="5.52497">
        <ele>245</ele>
        <time>2018-02-20T10:39:35.000Z</time>
      </trkpt>
      <trkpt lat="43.53535" lon="5.52497">
        <ele>245</ele>
        <time>2018-02-20T10:39:36.000Z</time>
      </trkpt>
      <trkpt lat="43.53535" lon="5.52496">
        <ele>245</ele>
        <time>2018-02-20T10:39:37.000Z</time>
      </trkpt>
      <trkpt lat="43.53535" lon="5.52496">
        <ele>244</ele>
        <time>2018-02-20T10:39:38.000Z</time>
      </trkpt>
      <trkpt lat="43.53535" lon="5.52497">
        <ele>244</ele>
        <time>2018-02-20T10:39:39.000Z</time>
      </trkpt>
      <trkpt lat="43.53534" lon="5.52498">
        <ele>244</ele>
        <time>2018-02-20T10:39:40.000Z</time>
      </trkpt>
      <trkpt lat="43.53534" lon="5.52499">
        <ele>244</ele>
        <time>2018-02-20T10:39:41.000Z</time>
      </trkpt>
      <trkpt lat="43.53534" lon="5.525">
        <ele>244</ele>
        <time>2018-02-20T10:39:42.000Z</time>
      </trkpt>
      <trkpt lat="43.53534" lon="5.525">
        <ele>244</ele>
        <time>2018-02-20T10:39:43.000Z</time>
      </trkpt>
      <trkpt lat="43.53533" lon="5.52501">
        <ele>244</ele>
        <time>2018-02-20T10:39:44.000Z</time>
      </trkpt>
      <trkpt lat="43.53533" lon="5.52502">
        <ele>244</ele>
        <time>2018-02-20T10:39:45.000Z</time>
      </trkpt>
      <trkpt lat="43.53534" lon="5.52502">
        <ele>244</ele>
        <time>2018-02-20T10:39:46.000Z</time>
      </trkpt>
      <trkpt lat="43.53534" lon="5.52502">
        <ele>244</ele>
        <time>2018-02-20T10:39:47.000Z</time>
      </trkpt>
      <trkpt lat="43.53533" lon="5.52502">
        <ele>244</ele>
        <time>2018-02-20T10:39:48.000Z</time>
      </trkpt>
      <trkpt lat="43.53533" lon="5.52502">
        <ele>244</ele>
        <time>2018-02-20T10:39:49.000Z</time>
      </trkpt>
      <trkpt lat="43.53533" lon="5.52502">
        <ele>244</ele>
        <time>2018-02-20T10:39:50.000Z</time>
      </trkpt>
      <trkpt lat="43.53533" lon="5.52502">
        <ele>244</ele>
        <time>2018-02-20T10:39:51.000Z</time>
      </trkpt>
      <trkpt lat="43.53533" lon="5.52502">
        <ele>243</ele>
        <time>2018-02-20T10:39:52.000Z</time>
      </trkpt>
      <trkpt lat="43.53533" lon="5.52502">
        <ele>243</ele>
        <time>2018-02-20T10:39:53.000Z</time>
      </trkpt>
      <trkpt lat="43.53533" lon="5.52502">
        <ele>243</ele>
        <time>2018-02-20T10:39:54.000Z</time>
      </trkpt>
      <trkpt lat="43.53533" lon="5.52502">
        <ele>243</ele>
        <time>2018-02-20T10:39:55.000Z</time>
      </trkpt>
      <trkpt lat="43.53534" lon="5.52502">
        <ele>243</ele>
        <time>2018-02-20T10:39:56.000Z</time>
      </trkpt>
      <trkpt lat="43.53534" lon="5.52502">
        <ele>243</ele>
        <time>2018-02-20T10:39:57.000Z</time>
      </trkpt>
      <trkpt lat="43.53534" lon="5.52502">
        <ele>243</ele>
        <time>2018-02-20T10:39:58.000Z</time>
      </trkpt>
      <trkpt lat="43.53533" lon="5.52502">
        <ele>243</ele>
        <time>2018-02-20T10:39:59.000Z</time>
      </trkpt>
      <trkpt lat="43.53533" lon="5.52502">
        <ele>243</ele>
        <time>2018-02-20T10:40:00.000Z</time>
      </trkpt>
      <trkpt lat="43.53533" lon="5.52502">
        <ele>243</ele>
        <time>2018-02-20T10:40:01.000Z</time>
      </trkpt>
      <trkpt lat="43.53533" lon="5.52502">
        <ele>243</ele>
        <time>2018-02-20T10:40:02.000Z</time>
      </trkpt>
      <trkpt lat="43.53533" lon="5.52502">
        <ele>243</ele>
        <time>2018-02-20T10:40:03.000Z</time>
      </trkpt>
      <trkpt lat="43.53533" lon="5.52502">
        <ele>243</ele>
        <time>2018-02-20T10:40:04.000Z</time>
      </trkpt>
      <trkpt lat="43.53533" lon="5.52502">
        <ele>243</ele>
        <time>2018-02-20T10:40:05.000Z</time>
      </trkpt>
      <trkpt lat="43.53533" lon="5.52502">
        <ele>242</ele>
        <time>2018-02-20T10:40:06.000Z</time>
      </trkpt>
      <trkpt lat="43.53533" lon="5.52501">
        <ele>242</ele>
        <time>2018-02-20T10:40:07.000Z</time>
      </trkpt>
      <trkpt lat="43.53533" lon="5.52501">
        <ele>242</ele>
        <time>2018-02-20T10:40:08.000Z</time>
      </trkpt>
      <trkpt lat="43.53534" lon="5.52501">
        <ele>242</ele>
        <time>2018-02-20T10:40:09.000Z</time>
      </trkpt>
      <trkpt lat="43.53533" lon="5.52501">
        <ele>242</ele>
        <time>2018-02-20T10:40:10.000Z</time>
      </trkpt>
      <trkpt lat="43.53533" lon="5.52501">
        <ele>242</ele>
        <time>2018-02-20T10:40:11.000Z</time>
      </trkpt>
      <trkpt lat="43.53533" lon="5.52501">
        <ele>242</ele>
        <time>2018-02-20T10:40:12.000Z</time>
      </trkpt>
      <trkpt lat="43.53534" lon="5.52501">
        <ele>242</ele>
        <time>2018-02-20T10:40:13.000Z</time>
      </trkpt>
      <trkpt lat="43.53534" lon="5.52501">
        <ele>242</ele>
        <time>2018-02-20T10:40:14.000Z</time>
      </trkpt>
      <trkpt lat="43.53534" lon="5.52501">
        <ele>242</ele>
        <time>2018-02-20T10:40:15.000Z</time>
      </trkpt>
      <trkpt lat="43.53534" lon="5.52501">
        <ele>242</ele>
        <time>2018-02-20T10:40:16.000Z</time>
      </trkpt>
      <trkpt lat="43.53534" lon="5.52501">
        <ele>242</ele>
        <time>2018-02-20T10:40:17.000Z</time>
      </trkpt>
      <trkpt lat="43.53534" lon="5.52501">
        <ele>242</ele>
        <time>2018-02-20T10:40:18.000Z</time>
      </trkpt>
      <trkpt lat="43.53534" lon="5.52501">
        <ele>242</ele>
        <time>2018-02-20T10:40:19.000Z</time>
      </trkpt>
      <trkpt lat="43.53534" lon="5.52501">
        <ele>242</ele>
        <time>2018-02-20T10:40:20.000Z</time>
      </trkpt>
      <trkpt lat="43.53534" lon="5.52501">
        <ele>242</ele>
        <time>2018-02-20T10:40:21.000Z</time>
      </trkpt>
      <trkpt lat="43.53534" lon="5.52501">
        <ele>242</ele>
        <time>2018-02-20T10:40:22.000Z</time>
      </trkpt>
      <trkpt lat="43.53534" lon="5.52501">
        <ele>242</ele>
        <time>2018-02-20T10:40:23.000Z</time>
      </trkpt>
      <trkpt lat="43.53534" lon="5.52501">
        <ele>242</ele>
        <time>2018-02-20T10:40:24.000Z</time>
      </trkpt>
      <trkpt lat="43.53534" lon="5.52501">
        <ele>242</ele>
        <time>2018-02-20T10:40:25.000Z</time>
      </trkpt>
      <trkpt lat="43.53534" lon="5.52501">
        <ele>242</ele>
        <time>2018-02-20T10:40:26.000Z</time>
      </trkpt>
      <trkpt lat="43.53534" lon="5.52501">
        <ele>242</ele>
        <time>2018-02-20T10:40:27.000Z</time>
      </trkpt>
      <trkpt lat="43.53534" lon="5.525">
        <ele>242</ele>
        <time>2018-02-20T10:40:28.000Z</time>
      </trkpt>
      <trkpt lat="43.53534" lon="5.52501">
        <ele>242</ele>
        <time>2018-02-20T10:40:29.000Z</time>
      </trkpt>
      <trkpt lat="43.53534" lon="5.52501">
        <ele>242</ele>
        <time>2018-02-20T10:40:30.000Z</time>
      </trkpt>
      <trkpt lat="43.53534" lon="5.52501">
        <ele>242</ele>
        <time>2018-02-20T10:40:31.000Z</time>
      </trkpt>
      <trkpt lat="43.53534" lon="5.52501">
        <ele>242</ele>
        <time>2018-02-20T10:40:32.000Z</time>
      </trkpt>
      <trkpt lat="43.53534" lon="5.52501">
        <ele>242</ele>
        <time>2018-02-20T10:40:33.000Z</time>
      </trkpt>
      <trkpt lat="43.53533" lon="5.52501">
        <ele>242</ele>
        <time>2018-02-20T10:40:34.000Z</time>
      </trkpt>
      <trkpt lat="43.53534" lon="5.52501">
        <ele>242</ele>
        <time>2018-02-20T10:40:35.000Z</time>
      </trkpt>
      <trkpt lat="43.53534" lon="5.52501">
        <ele>242</ele>
        <time>2018-02-20T10:40:36.000Z</time>
      </trkpt>
      <trkpt lat="43.53534" lon="5.52501">
        <ele>242</ele>
        <time>2018-02-20T10:40:37.000Z</time>
      </trkpt>
      <trkpt lat="43.53534" lon="5.52501">
        <ele>241</ele>
        <time>2018-02-20T10:40:38.000Z</time>
      </trkpt>
      <trkpt lat="43.53534" lon="5.525">
        <ele>241</ele>
        <time>2018-02-20T10:40:39.000Z</time>
      </trkpt>
      <trkpt lat="43.53534" lon="5.525">
        <ele>241</ele>
        <time>2018-02-20T10:40:40.000Z</time>
      </trkpt>
      <trkpt lat="43.53534" lon="5.525">
        <ele>241</ele>
        <time>2018-02-20T10:40:41.000Z</time>
      </trkpt>
      <trkpt lat="43.53534" lon="5.525">
        <ele>241</ele>
        <time>2018-02-20T10:40:42.000Z</time>
      </trkpt>
      <trkpt lat="43.53534" lon="5.525">
        <ele>241</ele>
        <time>2018-02-20T10:40:43.000Z</time>
      </trkpt>
      <trkpt lat="43.53535" lon="5.525">
        <ele>241</ele>
        <time>2018-02-20T10:40:44.000Z</time>
      </trkpt>
      <trkpt lat="43.53535" lon="5.52499">
        <ele>241</ele>
        <time>2018-02-20T10:40:45.000Z</time>
      </trkpt>
      <trkpt lat="43.53535" lon="5.525">
        <ele>241</ele>
        <time>2018-02-20T10:40:46.000Z</time>
      </trkpt>
      <trkpt lat="43.53535" lon="5.52499">
        <ele>241</ele>
        <time>2018-02-20T10:40:47.000Z</time>
      </trkpt>
      <trkpt lat="43.53535" lon="5.52499">
        <ele>241</ele>
        <time>2018-02-20T10:40:48.000Z</time>
      </trkpt>
      <trkpt lat="43.53535" lon="5.52499">
        <ele>241</ele>
        <time>2018-02-20T10:40:49.000Z</time>
      </trkpt>
      <trkpt lat="43.53536" lon="5.52499">
        <ele>241</ele>
        <time>2018-02-20T10:40:50.000Z</time>
      </trkpt>
      <trkpt lat="43.53536" lon="5.52499">
        <ele>241</ele>
        <time>2018-02-20T10:40:51.000Z</time>
      </trkpt>
      <trkpt lat="43.53537" lon="5.52499">
        <ele>241</ele>
        <time>2018-02-20T10:40:52.000Z</time>
      </trkpt>
      <trkpt lat="43.53537" lon="5.52499">
        <ele>241</ele>
        <time>2018-02-20T10:40:53.000Z</time>
      </trkpt>
      <trkpt lat="43.53537" lon="5.52499">
        <ele>241</ele>
        <time>2018-02-20T10:40:54.000Z</time>
      </trkpt>
      <trkpt lat="43.53537" lon="5.52499">
        <ele>241</ele>
        <time>2018-02-20T10:40:55.000Z</time>
      </trkpt>
      <trkpt lat="43.53537" lon="5.52499">
        <ele>241</ele>
        <time>2018-02-20T10:40:56.000Z</time>
      </trkpt>
      <trkpt lat="43.53538" lon="5.52499">
        <ele>241</ele>
        <time>2018-02-20T10:40:57.000Z</time>
      </trkpt>
      <trkpt lat="43.53538" lon="5.52498">
        <ele>241</ele>
        <time>2018-02-20T10:40:58.000Z</time>
      </trkpt>
      <trkpt lat="43.53538" lon="5.52499">
        <ele>241</ele>
        <time>2018-02-20T10:40:59.000Z</time>
      </trkpt>
      <trkpt lat="43.53539" lon="5.52498">
        <ele>241</ele>
        <time>2018-02-20T10:41:00.000Z</time>
      </trkpt>
      <trkpt lat="43.53539" lon="5.52498">
        <ele>241</ele>
        <time>2018-02-20T10:41:01.000Z</time>
      </trkpt>
      <trkpt lat="43.53539" lon="5.52498">
        <ele>241</ele>
        <time>2018-02-20T10:41:02.000Z</time>
      </trkpt>
      <trkpt lat="43.53539" lon="5.52498">
        <ele>241</ele>
        <time>2018-02-20T10:41:03.000Z</time>
      </trkpt>
      <trkpt lat="43.53539" lon="5.52498">
        <ele>241</ele>
        <time>2018-02-20T10:41:04.000Z</time>
      </trkpt>
      <trkpt lat="43.53539" lon="5.52497">
        <ele>241</ele>
        <time>2018-02-20T10:41:05.000Z</time>
      </trkpt>
      <trkpt lat="43.53539" lon="5.52497">
        <ele>241</ele>
        <time>2018-02-20T10:41:06.000Z</time>
      </trkpt>
      <trkpt lat="43.53539" lon="5.52497">
        <ele>241</ele>
        <time>2018-02-20T10:41:07.000Z</time>
      </trkpt>
      <trkpt lat="43.53539" lon="5.52497">
        <ele>241</ele>
        <time>2018-02-20T10:41:08.000Z</time>
      </trkpt>
      <trkpt lat="43.53539" lon="5.52497">
        <ele>241</ele>
        <time>2018-02-20T10:41:09.000Z</time>
      </trkpt>
      <trkpt lat="43.53539" lon="5.52497">
        <ele>241</ele>
        <time>2018-02-20T10:41:10.000Z</time>
      </trkpt>
      <trkpt lat="43.53538" lon="5.52496">
        <ele>241</ele>
        <time>2018-02-20T10:41:11.000Z</time>
      </trkpt>
      <trkpt lat="43.53538" lon="5.52496">
        <ele>241</ele>
        <time>2018-02-20T10:41:12.000Z</time>
      </trkpt>
      <trkpt lat="43.53538" lon="5.52496">
        <ele>241</ele>
        <time>2018-02-20T10:41:13.000Z</time>
      </trkpt>
      <trkpt lat="43.53539" lon="5.52496">
        <ele>241</ele>
        <time>2018-02-20T10:41:14.000Z</time>
      </trkpt>
      <trkpt lat="43.53539" lon="5.52495">
        <ele>241</ele>
        <time>2018-02-20T10:41:15.000Z</time>
      </trkpt>
      <trkpt lat="43.53539" lon="5.52495">
        <ele>241</ele>
        <time>2018-02-20T10:41:16.000Z</time>
      </trkpt>
      <trkpt lat="43.53539" lon="5.52494">
        <ele>241</ele>
        <time>2018-02-20T10:41:17.000Z</time>
      </trkpt>
      <trkpt lat="43.53539" lon="5.52494">
        <ele>241</ele>
        <time>2018-02-20T10:41:18.000Z</time>
      </trkpt>
      <trkpt lat="43.53539" lon="5.52494">
        <ele>241</ele>
        <time>2018-02-20T10:41:19.000Z</time>
      </trkpt>
      <trkpt lat="43.53539" lon="5.52493">
        <ele>241</ele>
        <time>2018-02-20T10:41:20.000Z</time>
      </trkpt>
      <trkpt lat="43.53539" lon="5.52493">
        <ele>241</ele>
        <time>2018-02-20T10:41:21.000Z</time>
      </trkpt>
      <trkpt lat="43.5354" lon="5.52492">
        <ele>241</ele>
        <time>2018-02-20T10:41:22.000Z</time>
      </trkpt>
      <trkpt lat="43.5354" lon="5.52491">
        <ele>241</ele>
        <time>2018-02-20T10:41:23.000Z</time>
      </trkpt>
      <trkpt lat="43.53541" lon="5.52491">
        <ele>241</ele>
        <time>2018-02-20T10:41:24.000Z</time>
      </trkpt>
      <trkpt lat="43.53541" lon="5.52491">
        <ele>242</ele>
        <time>2018-02-20T10:41:25.000Z</time>
      </trkpt>
      <trkpt lat="43.53541" lon="5.5249">
        <ele>242</ele>
        <time>2018-02-20T10:41:26.000Z</time>
      </trkpt>
      <trkpt lat="43.53541" lon="5.5249">
        <ele>242</ele>
        <time>2018-02-20T10:41:27.000Z</time>
      </trkpt>
      <trkpt lat="43.53541" lon="5.5249">
        <ele>242</ele>
        <time>2018-02-20T10:41:28.000Z</time>
      </trkpt>
      <trkpt lat="43.53541" lon="5.5249">
        <ele>242</ele>
        <time>2018-02-20T10:41:29.000Z</time>
      </trkpt>
      <trkpt lat="43.53541" lon="5.5249">
        <ele>241</ele>
        <time>2018-02-20T10:41:30.000Z</time>
      </trkpt>
      <trkpt lat="43.53541" lon="5.5249">
        <ele>241</ele>
        <time>2018-02-20T10:41:31.000Z</time>
      </trkpt>
      <trkpt lat="43.53541" lon="5.52489">
        <ele>241</ele>
        <time>2018-02-20T10:41:32.000Z</time>
      </trkpt>
      <trkpt lat="43.53541" lon="5.52488">
        <ele>241</ele>
        <time>2018-02-20T10:41:33.000Z</time>
      </trkpt>
      <trkpt lat="43.53542" lon="5.52488">
        <ele>241</ele>
        <time>2018-02-20T10:41:34.000Z</time>
      </trkpt>
      <trkpt lat="43.53541" lon="5.52487">
        <ele>241</ele>
        <time>2018-02-20T10:41:35.000Z</time>
      </trkpt>
      <trkpt lat="43.53541" lon="5.52485">
        <ele>241</ele>
        <time>2018-02-20T10:41:36.000Z</time>
      </trkpt>
      <trkpt lat="43.53541" lon="5.52484">
        <ele>241</ele>
        <time>2018-02-20T10:41:37.000Z</time>
      </trkpt>
      <trkpt lat="43.53541" lon="5.52483">
        <ele>241</ele>
        <time>2018-02-20T10:41:38.000Z</time>
      </trkpt>
      <trkpt lat="43.53541" lon="5.52482">
        <ele>241</ele>
        <time>2018-02-20T10:41:39.000Z</time>
      </trkpt>
      <trkpt lat="43.53541" lon="5.52481">
        <ele>241</ele>
        <time>2018-02-20T10:41:40.000Z</time>
      </trkpt>
      <trkpt lat="43.53541" lon="5.52481">
        <ele>241</ele>
        <time>2018-02-20T10:41:41.000Z</time>
      </trkpt>
      <trkpt lat="43.53541" lon="5.5248">
        <ele>241</ele>
        <time>2018-02-20T10:41:42.000Z</time>
      </trkpt>
      <trkpt lat="43.53541" lon="5.5248">
        <ele>241</ele>
        <time>2018-02-20T10:41:43.000Z</time>
      </trkpt>
      <trkpt lat="43.53541" lon="5.5248">
        <ele>241</ele>
        <time>2018-02-20T10:41:44.000Z</time>
      </trkpt>
      <trkpt lat="43.53541" lon="5.5248">
        <ele>241</ele>
        <time>2018-02-20T10:41:45.000Z</time>
      </trkpt>
      <trkpt lat="43.53541" lon="5.5248">
        <ele>241</ele>
        <time>2018-02-20T10:41:46.000Z</time>
      </trkpt>
      <trkpt lat="43.53541" lon="5.5248">
        <ele>241</ele>
        <time>2018-02-20T10:41:47.000Z</time>
      </trkpt>
      <trkpt lat="43.53541" lon="5.5248">
        <ele>241</ele>
        <time>2018-02-20T10:41:48.000Z</time>
      </trkpt>
      <trkpt lat="43.53541" lon="5.52479">
        <ele>241</ele>
        <time>2018-02-20T10:41:49.000Z</time>
      </trkpt>
      <trkpt lat="43.53541" lon="5.52479">
        <ele>241</ele>
        <time>2018-02-20T10:41:50.000Z</time>
      </trkpt>
      <trkpt lat="43.53541" lon="5.52478">
        <ele>241</ele>
        <time>2018-02-20T10:41:51.000Z</time>
      </trkpt>
      <trkpt lat="43.53541" lon="5.52477">
        <ele>241</ele>
        <time>2018-02-20T10:41:52.000Z</time>
      </trkpt>
      <trkpt lat="43.53541" lon="5.52476">
        <ele>241</ele>
        <time>2018-02-20T10:41:53.000Z</time>
      </trkpt>
      <trkpt lat="43.53541" lon="5.52476">
        <ele>241</ele>
        <time>2018-02-20T10:41:54.000Z</time>
      </trkpt>
      <trkpt lat="43.53541" lon="5.52475">
        <ele>241</ele>
        <time>2018-02-20T10:41:55.000Z</time>
      </trkpt>
      <trkpt lat="43.53542" lon="5.52474">
        <ele>241</ele>
        <time>2018-02-20T10:41:56.000Z</time>
      </trkpt>
      <trkpt lat="43.53542" lon="5.52474">
        <ele>241</ele>
        <time>2018-02-20T10:41:57.000Z</time>
      </trkpt>
      <trkpt lat="43.53542" lon="5.52473">
        <ele>241</ele>
        <time>2018-02-20T10:41:58.000Z</time>
      </trkpt>
      <trkpt lat="43.53542" lon="5.52472">
        <ele>241</ele>
        <time>2018-02-20T10:41:59.000Z</time>
      </trkpt>
      <trkpt lat="43.53542" lon="5.52471">
        <ele>241</ele>
        <time>2018-02-20T10:42:00.000Z</time>
      </trkpt>
      <trkpt lat="43.53542" lon="5.5247">
        <ele>241</ele>
        <time>2018-02-20T10:42:01.000Z</time>
      </trkpt>
      <trkpt lat="43.53542" lon="5.52469">
        <ele>241</ele>
        <time>2018-02-20T10:42:02.000Z</time>
      </trkpt>
      <trkpt lat="43.53542" lon="5.52469">
        <ele>241</ele>
        <time>2018-02-20T10:42:03.000Z</time>
      </trkpt>
      <trkpt lat="43.53542" lon="5.52468">
        <ele>241</ele>
        <time>2018-02-20T10:42:04.000Z</time>
      </trkpt>
      <trkpt lat="43.53542" lon="5.52468">
        <ele>241</ele>
        <time>2018-02-20T10:42:05.000Z</time>
      </trkpt>
      <trkpt lat="43.53542" lon="5.52467">
        <ele>241</ele>
        <time>2018-02-20T10:42:06.000Z</time>
      </trkpt>
      <trkpt lat="43.53542" lon="5.52467">
        <ele>241</ele>
        <time>2018-02-20T10:42:07.000Z</time>
      </trkpt>
      <trkpt lat="43.53542" lon="5.52466">
        <ele>241</ele>
        <time>2018-02-20T10:42:08.000Z</time>
      </trkpt>
      <trkpt lat="43.53543" lon="5.52466">
        <ele>241</ele>
        <time>2018-02-20T10:42:09.000Z</time>
      </trkpt>
      <trkpt lat="43.53543" lon="5.52465">
        <ele>241</ele>
        <time>2018-02-20T10:42:10.000Z</time>
      </trkpt>
      <trkpt lat="43.53543" lon="5.52463">
        <ele>240</ele>
        <time>2018-02-20T10:42:11.000Z</time>
      </trkpt>
      <trkpt lat="43.53544" lon="5.52462">
        <ele>240</ele>
        <time>2018-02-20T10:42:12.000Z</time>
      </trkpt>
      <trkpt lat="43.53544" lon="5.52461">
        <ele>240</ele>
        <time>2018-02-20T10:42:13.000Z</time>
      </trkpt>
      <trkpt lat="43.53544" lon="5.5246">
        <ele>240</ele>
        <time>2018-02-20T10:42:14.000Z</time>
      </trkpt>
      <trkpt lat="43.53544" lon="5.52459">
        <ele>240</ele>
        <time>2018-02-20T10:42:15.000Z</time>
      </trkpt>
      <trkpt lat="43.53544" lon="5.52458">
        <ele>240</ele>
        <time>2018-02-20T10:42:16.000Z</time>
      </trkpt>
      <trkpt lat="43.53544" lon="5.52456">
        <ele>240</ele>
        <time>2018-02-20T10:42:17.000Z</time>
      </trkpt>
      <trkpt lat="43.53545" lon="5.52456">
        <ele>240</ele>
        <time>2018-02-20T10:42:18.000Z</time>
      </trkpt>
      <trkpt lat="43.53545" lon="5.52455">
        <ele>240</ele>
        <time>2018-02-20T10:42:19.000Z</time>
      </trkpt>
      <trkpt lat="43.53546" lon="5.52454">
        <ele>240</ele>
        <time>2018-02-20T10:42:20.000Z</time>
      </trkpt>
      <trkpt lat="43.53546" lon="5.52454">
        <ele>240</ele>
        <time>2018-02-20T10:42:21.000Z</time>
      </trkpt>
      <trkpt lat="43.53547" lon="5.52454">
        <ele>240</ele>
        <time>2018-02-20T10:42:22.000Z</time>
      </trkpt>
      <trkpt lat="43.53547" lon="5.52454">
        <ele>240</ele>
        <time>2018-02-20T10:42:23.000Z</time>
      </trkpt>
      <trkpt lat="43.53547" lon="5.52453">
        <ele>239</ele>
        <time>2018-02-20T10:42:24.000Z</time>
      </trkpt>
      <trkpt lat="43.53547" lon="5.52453">
        <ele>239</ele>
        <time>2018-02-20T10:42:25.000Z</time>
      </trkpt>
      <trkpt lat="43.53547" lon="5.52453">
        <ele>239</ele>
        <time>2018-02-20T10:42:26.000Z</time>
      </trkpt>
      <trkpt lat="43.53548" lon="5.52453">
        <ele>239</ele>
        <time>2018-02-20T10:42:27.000Z</time>
      </trkpt>
      <trkpt lat="43.53548" lon="5.52453">
        <ele>239</ele>
        <time>2018-02-20T10:42:28.000Z</time>
      </trkpt>
      <trkpt lat="43.53548" lon="5.52453">
        <ele>239</ele>
        <time>2018-02-20T10:42:29.000Z</time>
      </trkpt>
      <trkpt lat="43.53548" lon="5.52453">
        <ele>239</ele>
        <time>2018-02-20T10:42:30.000Z</time>
      </trkpt>
      <trkpt lat="43.53548" lon="5.52453">
        <ele>239</ele>
        <time>2018-02-20T10:42:31.000Z</time>
      </trkpt>
      <trkpt lat="43.53549" lon="5.52453">
        <ele>239</ele>
        <time>2018-02-20T10:42:32.000Z</time>
      </trkpt>
      <trkpt lat="43.53549" lon="5.52453">
        <ele>239</ele>
        <time>2018-02-20T10:42:33.000Z</time>
      </trkpt>
      <trkpt lat="43.53549" lon="5.52453">
        <ele>239</ele>
        <time>2018-02-20T10:42:34.000Z</time>
      </trkpt>
      <trkpt lat="43.53549" lon="5.52453">
        <ele>238</ele>
        <time>2018-02-20T10:42:35.000Z</time>
      </trkpt>
      <trkpt lat="43.5355" lon="5.52453">
        <ele>238</ele>
        <time>2018-02-20T10:42:36.000Z</time>
      </trkpt>
      <trkpt lat="43.5355" lon="5.52452">
        <ele>238</ele>
        <time>2018-02-20T10:42:37.000Z</time>
      </trkpt>
      <trkpt lat="43.5355" lon="5.52451">
        <ele>238</ele>
        <time>2018-02-20T10:42:38.000Z</time>
      </trkpt>
      <trkpt lat="43.53551" lon="5.52451">
        <ele>238</ele>
        <time>2018-02-20T10:42:39.000Z</time>
      </trkpt>
      <trkpt lat="43.53552" lon="5.5245">
        <ele>238</ele>
        <time>2018-02-20T10:42:40.000Z</time>
      </trkpt>
      <trkpt lat="43.53552" lon="5.52449">
        <ele>238</ele>
        <time>2018-02-20T10:42:41.000Z</time>
      </trkpt>
      <trkpt lat="43.53552" lon="5.52449">
        <ele>238</ele>
        <time>2018-02-20T10:42:42.000Z</time>
      </trkpt>
      <trkpt lat="43.53553" lon="5.52448">
        <ele>238</ele>
        <time>2018-02-20T10:42:43.000Z</time>
      </trkpt>
      <trkpt lat="43.53553" lon="5.52448">
        <ele>238</ele>
        <time>2018-02-20T10:42:44.000Z</time>
      </trkpt>
      <trkpt lat="43.53554" lon="5.52447">
        <ele>238</ele>
        <time>2018-02-20T10:42:45.000Z</time>
      </trkpt>
      <trkpt lat="43.53554" lon="5.52446">
        <ele>239</ele>
        <time>2018-02-20T10:42:46.000Z</time>
      </trkpt>
      <trkpt lat="43.53554" lon="5.52444">
        <ele>239</ele>
        <time>2018-02-20T10:42:47.000Z</time>
      </trkpt>
      <trkpt lat="43.53555" lon="5.52443">
        <ele>239</ele>
        <time>2018-02-20T10:42:48.000Z</time>
      </trkpt>
      <trkpt lat="43.53555" lon="5.52442">
        <ele>239</ele>
        <time>2018-02-20T10:42:49.000Z</time>
      </trkpt>
      <trkpt lat="43.53555" lon="5.52441">
        <ele>239</ele>
        <time>2018-02-20T10:42:50.000Z</time>
      </trkpt>
      <trkpt lat="43.53556" lon="5.52441">
        <ele>239</ele>
        <time>2018-02-20T10:42:51.000Z</time>
      </trkpt>
      <trkpt lat="43.53556" lon="5.5244">
        <ele>239</ele>
        <time>2018-02-20T10:42:52.000Z</time>
      </trkpt>
      <trkpt lat="43.53557" lon="5.5244">
        <ele>239</ele>
        <time>2018-02-20T10:42:53.000Z</time>
      </trkpt>
      <trkpt lat="43.53557" lon="5.52439">
        <ele>239</ele>
        <time>2018-02-20T10:42:54.000Z</time>
      </trkpt>
      <trkpt lat="43.53557" lon="5.52439">
        <ele>240</ele>
        <time>2018-02-20T10:42:55.000Z</time>
      </trkpt>
      <trkpt lat="43.53558" lon="5.52438">
        <ele>240</ele>
        <time>2018-02-20T10:42:56.000Z</time>
      </trkpt>
      <trkpt lat="43.53558" lon="5.52438">
        <ele>240</ele>
        <time>2018-02-20T10:42:57.000Z</time>
      </trkpt>
      <trkpt lat="43.53558" lon="5.52437">
        <ele>240</ele>
        <time>2018-02-20T10:42:58.000Z</time>
      </trkpt>
      <trkpt lat="43.53558" lon="5.52437">
        <ele>240</ele>
        <time>2018-02-20T10:42:59.000Z</time>
      </trkpt>
      <trkpt lat="43.53559" lon="5.52437">
        <ele>240</ele>
        <time>2018-02-20T10:43:00.000Z</time>
      </trkpt>
      <trkpt lat="43.53559" lon="5.52436">
        <ele>241</ele>
        <time>2018-02-20T10:43:01.000Z</time>
      </trkpt>
      <trkpt lat="43.53559" lon="5.52436">
        <ele>241</ele>
        <time>2018-02-20T10:43:02.000Z</time>
      </trkpt>
      <trkpt lat="43.53559" lon="5.52436">
        <ele>241</ele>
        <time>2018-02-20T10:43:03.000Z</time>
      </trkpt>
      <trkpt lat="43.53559" lon="5.52436">
        <ele>241</ele>
        <time>2018-02-20T10:43:04.000Z</time>
      </trkpt>
      <trkpt lat="43.5356" lon="5.52436">
        <ele>241</ele>
        <time>2018-02-20T10:43:05.000Z</time>
      </trkpt>
      <trkpt lat="43.5356" lon="5.52436">
        <ele>241</ele>
        <time>2018-02-20T10:43:06.000Z</time>
      </trkpt>
      <trkpt lat="43.5356" lon="5.52437">
        <ele>241</ele>
        <time>2018-02-20T10:43:07.000Z</time>
      </trkpt>
      <trkpt lat="43.5356" lon="5.52437">
        <ele>241</ele>
        <time>2018-02-20T10:43:08.000Z</time>
      </trkpt>
      <trkpt lat="43.53561" lon="5.52437">
        <ele>241</ele>
        <time>2018-02-20T10:43:09.000Z</time>
      </trkpt>
      <trkpt lat="43.53561" lon="5.52436">
        <ele>241</ele>
        <time>2018-02-20T10:43:10.000Z</time>
      </trkpt>
      <trkpt lat="43.53561" lon="5.52435">
        <ele>242</ele>
        <time>2018-02-20T10:43:11.000Z</time>
      </trkpt>
      <trkpt lat="43.53561" lon="5.52435">
        <ele>242</ele>
        <time>2018-02-20T10:43:12.000Z</time>
      </trkpt>
      <trkpt lat="43.53562" lon="5.52434">
        <ele>242</ele>
        <time>2018-02-20T10:43:13.000Z</time>
      </trkpt>
      <trkpt lat="43.53562" lon="5.52434">
        <ele>242</ele>
        <time>2018-02-20T10:43:14.000Z</time>
      </trkpt>
      <trkpt lat="43.53563" lon="5.52434">
        <ele>242</ele>
        <time>2018-02-20T10:43:15.000Z</time>
      </trkpt>
      <trkpt lat="43.53563" lon="5.52434">
        <ele>242</ele>
        <time>2018-02-20T10:43:16.000Z</time>
      </trkpt>
      <trkpt lat="43.53564" lon="5.52435">
        <ele>243</ele>
        <time>2018-02-20T10:43:17.000Z</time>
      </trkpt>
      <trkpt lat="43.53564" lon="5.52435">
        <ele>243</ele>
        <time>2018-02-20T10:43:18.000Z</time>
      </trkpt>
      <trkpt lat="43.53564" lon="5.52436">
        <ele>243</ele>
        <time>2018-02-20T10:43:19.000Z</time>
      </trkpt>
      <trkpt lat="43.53565" lon="5.52436">
        <ele>243</ele>
        <time>2018-02-20T10:43:20.000Z</time>
      </trkpt>
      <trkpt lat="43.53565" lon="5.52436">
        <ele>243</ele>
        <time>2018-02-20T10:43:21.000Z</time>
      </trkpt>
      <trkpt lat="43.53565" lon="5.52437">
        <ele>243</ele>
        <time>2018-02-20T10:43:22.000Z</time>
      </trkpt>
      <trkpt lat="43.53566" lon="5.52437">
        <ele>243</ele>
        <time>2018-02-20T10:43:23.000Z</time>
      </trkpt>
      <trkpt lat="43.53566" lon="5.52436">
        <ele>243</ele>
        <time>2018-02-20T10:43:24.000Z</time>
      </trkpt>
      <trkpt lat="43.53567" lon="5.52436">
        <ele>244</ele>
        <time>2018-02-20T10:43:25.000Z</time>
      </trkpt>
      <trkpt lat="43.53567" lon="5.52436">
        <ele>244</ele>
        <time>2018-02-20T10:43:26.000Z</time>
      </trkpt>
      <trkpt lat="43.53568" lon="5.52436">
        <ele>244</ele>
        <time>2018-02-20T10:43:27.000Z</time>
      </trkpt>
      <trkpt lat="43.53568" lon="5.52436">
        <ele>244</ele>
        <time>2018-02-20T10:43:28.000Z</time>
      </trkpt>
      <trkpt lat="43.53568" lon="5.52436">
        <ele>244</ele>
        <time>2018-02-20T10:43:29.000Z</time>
      </trkpt>
      <trkpt lat="43.53569" lon="5.52436">
        <ele>244</ele>
        <time>2018-02-20T10:43:30.000Z</time>
      </trkpt>
      <trkpt lat="43.53569" lon="5.52436">
        <ele>244</ele>
        <time>2018-02-20T10:43:31.000Z</time>
      </trkpt>
      <trkpt lat="43.53569" lon="5.52435">
        <ele>245</ele>
        <time>2018-02-20T10:43:32.000Z</time>
      </trkpt>
      <trkpt lat="43.53569" lon="5.52435">
        <ele>245</ele>
        <time>2018-02-20T10:43:33.000Z</time>
      </trkpt>
      <trkpt lat="43.53569" lon="5.52435">
        <ele>245</ele>
        <time>2018-02-20T10:43:34.000Z</time>
      </trkpt>
      <trkpt lat="43.53569" lon="5.52435">
        <ele>245</ele>
        <time>2018-02-20T10:43:35.000Z</time>
      </trkpt>
      <trkpt lat="43.53569" lon="5.52435">
        <ele>245</ele>
        <time>2018-02-20T10:43:36.000Z</time>
      </trkpt>
      <trkpt lat="43.53569" lon="5.52435">
        <ele>246</ele>
        <time>2018-02-20T10:43:37.000Z</time>
      </trkpt>
      <trkpt lat="43.5357" lon="5.52434">
        <ele>246</ele>
        <time>2018-02-20T10:43:38.000Z</time>
      </trkpt>
      <trkpt lat="43.5357" lon="5.52434">
        <ele>246</ele>
        <time>2018-02-20T10:43:39.000Z</time>
      </trkpt>
      <trkpt lat="43.5357" lon="5.52434">
        <ele>246</ele>
        <time>2018-02-20T10:43:40.000Z</time>
      </trkpt>
      <trkpt lat="43.53569" lon="5.52434">
        <ele>246</ele>
        <time>2018-02-20T10:43:41.000Z</time>
      </trkpt>
      <trkpt lat="43.5357" lon="5.52434">
        <ele>246</ele>
        <time>2018-02-20T10:43:42.000Z</time>
      </trkpt>
      <trkpt lat="43.5357" lon="5.52434">
        <ele>246</ele>
        <time>2018-02-20T10:43:43.000Z</time>
      </trkpt>
      <trkpt lat="43.5357" lon="5.52434">
        <ele>246</ele>
        <time>2018-02-20T10:43:44.000Z</time>
      </trkpt>
      <trkpt lat="43.5357" lon="5.52433">
        <ele>247</ele>
        <time>2018-02-20T10:43:45.000Z</time>
      </trkpt>
      <trkpt lat="43.5357" lon="5.52433">
        <ele>247</ele>
        <time>2018-02-20T10:43:46.000Z</time>
      </trkpt>
      <trkpt lat="43.5357" lon="5.52433">
        <ele>247</ele>
        <time>2018-02-20T10:43:47.000Z</time>
      </trkpt>
      <trkpt lat="43.5357" lon="5.52433">
        <ele>247</ele>
        <time>2018-02-20T10:43:48.000Z</time>
      </trkpt>
      <trkpt lat="43.53571" lon="5.52432">
        <ele>247</ele>
        <time>2018-02-20T10:43:49.000Z</time>
      </trkpt>
      <trkpt lat="43.53571" lon="5.52431">
        <ele>247</ele>
        <time>2018-02-20T10:43:50.000Z</time>
      </trkpt>
      <trkpt lat="43.53571" lon="5.52431">
        <ele>247</ele>
        <time>2018-02-20T10:43:51.000Z</time>
      </trkpt>
      <trkpt lat="43.53572" lon="5.5243">
        <ele>247</ele>
        <time>2018-02-20T10:43:52.000Z</time>
      </trkpt>
      <trkpt lat="43.53572" lon="5.5243">
        <ele>248</ele>
        <time>2018-02-20T10:43:53.000Z</time>
      </trkpt>
      <trkpt lat="43.53572" lon="5.52429">
        <ele>248</ele>
        <time>2018-02-20T10:43:54.000Z</time>
      </trkpt>
      <trkpt lat="43.53573" lon="5.52429">
        <ele>248</ele>
        <time>2018-02-20T10:43:55.000Z</time>
      </trkpt>
      <trkpt lat="43.53573" lon="5.52428">
        <ele>248</ele>
        <time>2018-02-20T10:43:56.000Z</time>
      </trkpt>
      <trkpt lat="43.53573" lon="5.52427">
        <ele>248</ele>
        <time>2018-02-20T10:43:57.000Z</time>
      </trkpt>
      <trkpt lat="43.53574" lon="5.52426">
        <ele>248</ele>
        <time>2018-02-20T10:43:58.000Z</time>
      </trkpt>
      <trkpt lat="43.53574" lon="5.52426">
        <ele>248</ele>
        <time>2018-02-20T10:43:59.000Z</time>
      </trkpt>
      <trkpt lat="43.53575" lon="5.52425">
        <ele>248</ele>
        <time>2018-02-20T10:44:00.000Z</time>
      </trkpt>
      <trkpt lat="43.53576" lon="5.52424">
        <ele>248</ele>
        <time>2018-02-20T10:44:01.000Z</time>
      </trkpt>
      <trkpt lat="43.53576" lon="5.52423">
        <ele>248</ele>
        <time>2018-02-20T10:44:02.000Z</time>
      </trkpt>
      <trkpt lat="43.53577" lon="5.52422">
        <ele>248</ele>
        <time>2018-02-20T10:44:03.000Z</time>
      </trkpt>
      <trkpt lat="43.53577" lon="5.52422">
        <ele>248</ele>
        <time>2018-02-20T10:44:04.000Z</time>
      </trkpt>
      <trkpt lat="43.53578" lon="5.52421">
        <ele>248</ele>
        <time>2018-02-20T10:44:05.000Z</time>
      </trkpt>
      <trkpt lat="43.53578" lon="5.5242">
        <ele>248</ele>
        <time>2018-02-20T10:44:06.000Z</time>
      </trkpt>
      <trkpt lat="43.53579" lon="5.52419">
        <ele>248</ele>
        <time>2018-02-20T10:44:07.000Z</time>
      </trkpt>
      <trkpt lat="43.53579" lon="5.52418">
        <ele>248</ele>
        <time>2018-02-20T10:44:08.000Z</time>
      </trkpt>
      <trkpt lat="43.5358" lon="5.52417">
        <ele>248</ele>
        <time>2018-02-20T10:44:09.000Z</time>
      </trkpt>
      <trkpt lat="43.5358" lon="5.52417">
        <ele>248</ele>
        <time>2018-02-20T10:44:10.000Z</time>
      </trkpt>
      <trkpt lat="43.53581" lon="5.52416">
        <ele>249</ele>
        <time>2018-02-20T10:44:11.000Z</time>
      </trkpt>
      <trkpt lat="43.53581" lon="5.52415">
        <ele>249</ele>
        <time>2018-02-20T10:44:12.000Z</time>
      </trkpt>
      <trkpt lat="43.53582" lon="5.52415">
        <ele>249</ele>
        <time>2018-02-20T10:44:13.000Z</time>
      </trkpt>
      <trkpt lat="43.53583" lon="5.52414">
        <ele>249</ele>
        <time>2018-02-20T10:44:14.000Z</time>
      </trkpt>
      <trkpt lat="43.53584" lon="5.52413">
        <ele>249</ele>
        <time>2018-02-20T10:44:15.000Z</time>
      </trkpt>
      <trkpt lat="43.53584" lon="5.52413">
        <ele>249</ele>
        <time>2018-02-20T10:44:16.000Z</time>
      </trkpt>
      <trkpt lat="43.53585" lon="5.52411">
        <ele>249</ele>
        <time>2018-02-20T10:44:17.000Z</time>
      </trkpt>
      <trkpt lat="43.53586" lon="5.52411">
        <ele>249</ele>
        <time>2018-02-20T10:44:18.000Z</time>
      </trkpt>
      <trkpt lat="43.53587" lon="5.5241">
        <ele>249</ele>
        <time>2018-02-20T10:44:19.000Z</time>
      </trkpt>
      <trkpt lat="43.53588" lon="5.5241">
        <ele>249</ele>
        <time>2018-02-20T10:44:20.000Z</time>
      </trkpt>
      <trkpt lat="43.53588" lon="5.5241">
        <ele>250</ele>
        <time>2018-02-20T10:44:21.000Z</time>
      </trkpt>
      <trkpt lat="43.53588" lon="5.52409">
        <ele>250</ele>
        <time>2018-02-20T10:44:22.000Z</time>
      </trkpt>
      <trkpt lat="43.53588" lon="5.52409">
        <ele>250</ele>
        <time>2018-02-20T10:44:23.000Z</time>
      </trkpt>
      <trkpt lat="43.53588" lon="5.52409">
        <ele>250</ele>
        <time>2018-02-20T10:44:24.000Z</time>
      </trkpt>
      <trkpt lat="43.53588" lon="5.52409">
        <ele>250</ele>
        <time>2018-02-20T10:44:25.000Z</time>
      </trkpt>
      <trkpt lat="43.53588" lon="5.52409">
        <ele>250</ele>
        <time>2018-02-20T10:44:26.000Z</time>
      </trkpt>
      <trkpt lat="43.53589" lon="5.52409">
        <ele>249</ele>
        <time>2018-02-20T10:44:27.000Z</time>
      </trkpt>
      <trkpt lat="43.53589" lon="5.52409">
        <ele>249</ele>
        <time>2018-02-20T10:44:28.000Z</time>
      </trkpt>
      <trkpt lat="43.53589" lon="5.52409">
        <ele>249</ele>
        <time>2018-02-20T10:44:29.000Z</time>
      </trkpt>
      <trkpt lat="43.53589" lon="5.52409">
        <ele>249</ele>
        <time>2018-02-20T10:44:30.000Z</time>
      </trkpt>
      <trkpt lat="43.53589" lon="5.5241">
        <ele>249</ele>
        <time>2018-02-20T10:44:31.000Z</time>
      </trkpt>
      <trkpt lat="43.53589" lon="5.5241">
        <ele>249</ele>
        <time>2018-02-20T10:44:32.000Z</time>
      </trkpt>
      <trkpt lat="43.53589" lon="5.5241">
        <ele>249</ele>
        <time>2018-02-20T10:44:33.000Z</time>
      </trkpt>
      <trkpt lat="43.53589" lon="5.5241">
        <ele>249</ele>
        <time>2018-02-20T10:44:34.000Z</time>
      </trkpt>
      <trkpt lat="43.53589" lon="5.5241">
        <ele>249</ele>
        <time>2018-02-20T10:44:35.000Z</time>
      </trkpt>
      <trkpt lat="43.53589" lon="5.52409">
        <ele>249</ele>
        <time>2018-02-20T10:44:36.000Z</time>
      </trkpt>
      <trkpt lat="43.53589" lon="5.52409">
        <ele>249</ele>
        <time>2018-02-20T10:44:37.000Z</time>
      </trkpt>
      <trkpt lat="43.53589" lon="5.52409">
        <ele>249</ele>
        <time>2018-02-20T10:44:38.000Z</time>
      </trkpt>
      <trkpt lat="43.53589" lon="5.52409">
        <ele>249</ele>
        <time>2018-02-20T10:44:39.000Z</time>
      </trkpt>
      <trkpt lat="43.5359" lon="5.52409">
        <ele>249</ele>
        <time>2018-02-20T10:44:40.000Z</time>
      </trkpt>
      <trkpt lat="43.5359" lon="5.52409">
        <ele>249</ele>
        <time>2018-02-20T10:44:41.000Z</time>
      </trkpt>
      <trkpt lat="43.5359" lon="5.52409">
        <ele>249</ele>
        <time>2018-02-20T10:44:42.000Z</time>
      </trkpt>
      <trkpt lat="43.5359" lon="5.52409">
        <ele>249</ele>
        <time>2018-02-20T10:44:43.000Z</time>
      </trkpt>
      <trkpt lat="43.5359" lon="5.52409">
        <ele>249</ele>
        <time>2018-02-20T10:44:44.000Z</time>
      </trkpt>
      <trkpt lat="43.5359" lon="5.52409">
        <ele>249</ele>
        <time>2018-02-20T10:44:45.000Z</time>
      </trkpt>
      <trkpt lat="43.5359" lon="5.52409">
        <ele>249</ele>
        <time>2018-02-20T10:44:46.000Z</time>
      </trkpt>
      <trkpt lat="43.5359" lon="5.52409">
        <ele>249</ele>
        <time>2018-02-20T10:44:47.000Z</time>
      </trkpt>
      <trkpt lat="43.5359" lon="5.52409">
        <ele>249</ele>
        <time>2018-02-20T10:44:48.000Z</time>
      </trkpt>
      <trkpt lat="43.5359" lon="5.52409">
        <ele>249</ele>
        <time>2018-02-20T10:44:49.000Z</time>
      </trkpt>
      <trkpt lat="43.5359" lon="5.52409">
        <ele>249</ele>
        <time>2018-02-20T10:44:50.000Z</time>
      </trkpt>
      <trkpt lat="43.5359" lon="5.52409">
        <ele>249</ele>
        <time>2018-02-20T10:44:51.000Z</time>
      </trkpt>
      <trkpt lat="43.5359" lon="5.5241">
        <ele>249</ele>
        <time>2018-02-20T10:44:52.000Z</time>
      </trkpt>
      <trkpt lat="43.5359" lon="5.5241">
        <ele>249</ele>
        <time>2018-02-20T10:44:53.000Z</time>
      </trkpt>
      <trkpt lat="43.5359" lon="5.5241">
        <ele>249</ele>
        <time>2018-02-20T10:44:54.000Z</time>
      </trkpt>
      <trkpt lat="43.5359" lon="5.5241">
        <ele>249</ele>
        <time>2018-02-20T10:44:55.000Z</time>
      </trkpt>
      <trkpt lat="43.5359" lon="5.5241">
        <ele>249</ele>
        <time>2018-02-20T10:44:56.000Z</time>
      </trkpt>
      <trkpt lat="43.5359" lon="5.5241">
        <ele>249</ele>
        <time>2018-02-20T10:44:57.000Z</time>
      </trkpt>
      <trkpt lat="43.5359" lon="5.5241">
        <ele>249</ele>
        <time>2018-02-20T10:44:58.000Z</time>
      </trkpt>
      <trkpt lat="43.5359" lon="5.5241">
        <ele>249</ele>
        <time>2018-02-20T10:44:59.000Z</time>
      </trkpt>
      <trkpt lat="43.5359" lon="5.5241">
        <ele>249</ele>
        <time>2018-02-20T10:45:00.000Z</time>
      </trkpt>
      <trkpt lat="43.5359" lon="5.5241">
        <ele>249</ele>
        <time>2018-02-20T10:45:01.000Z</time>
      </trkpt>
      <trkpt lat="43.5359" lon="5.5241">
        <ele>249</ele>
        <time>2018-02-20T10:45:02.000Z</time>
      </trkpt>
      <trkpt lat="43.5359" lon="5.5241">
        <ele>249</ele>
        <time>2018-02-20T10:45:03.000Z</time>
      </trkpt>
      <trkpt lat="43.5359" lon="5.5241">
        <ele>249</ele>
        <time>2018-02-20T10:45:04.000Z</time>
      </trkpt>
      <trkpt lat="43.5359" lon="5.5241">
        <ele>249</ele>
        <time>2018-02-20T10:45:05.000Z</time>
      </trkpt>
      <trkpt lat="43.5359" lon="5.5241">
        <ele>249</ele>
        <time>2018-02-20T10:45:06.000Z</time>
      </trkpt>
      <trkpt lat="43.5359" lon="5.5241">
        <ele>249</ele>
        <time>2018-02-20T10:45:07.000Z</time>
      </trkpt>
      <trkpt lat="43.5359" lon="5.5241">
        <ele>249</ele>
        <time>2018-02-20T10:45:08.000Z</time>
      </trkpt>
      <trkpt lat="43.5359" lon="5.5241">
        <ele>249</ele>
        <time>2018-02-20T10:45:09.000Z</time>
      </trkpt>
      <trkpt lat="43.5359" lon="5.5241">
        <ele>249</ele>
        <time>2018-02-20T10:45:10.000Z</time>
      </trkpt>
      <trkpt lat="43.5359" lon="5.5241">
        <ele>249</ele>
        <time>2018-02-20T10:45:11.000Z</time>
      </trkpt>
      <trkpt lat="43.5359" lon="5.5241">
        <ele>249</ele>
        <time>2018-02-20T10:45:12.000Z</time>
      </trkpt>
      <trkpt lat="43.5359" lon="5.5241">
        <ele>249</ele>
        <time>2018-02-20T10:45:13.000Z</time>
      </trkpt>
      <trkpt lat="43.5359" lon="5.5241">
        <ele>249</ele>
        <time>2018-02-20T10:45:14.000Z</time>
      </trkpt>
      <trkpt lat="43.5359" lon="5.5241">
        <ele>249</ele>
        <time>2018-02-20T10:45:15.000Z</time>
      </trkpt>
      <trkpt lat="43.5359" lon="5.5241">
        <ele>249</ele>
        <time>2018-02-20T10:45:16.000Z</time>
      </trkpt>
      <trkpt lat="43.5359" lon="5.5241">
        <ele>249</ele>
        <time>2018-02-20T10:45:17.000Z</time>
      </trkpt>
      <trkpt lat="43.5359" lon="5.5241">
        <ele>248</ele>
        <time>2018-02-20T10:45:18.000Z</time>
      </trkpt>
      <trkpt lat="43.5359" lon="5.5241">
        <ele>248</ele>
        <time>2018-02-20T10:45:19.000Z</time>
      </trkpt>
      <trkpt lat="43.5359" lon="5.5241">
        <ele>248</ele>
        <time>2018-02-20T10:45:20.000Z</time>
      </trkpt>
      <trkpt lat="43.5359" lon="5.5241">
        <ele>248</ele>
        <time>2018-02-20T10:45:21.000Z</time>
      </trkpt>
      <trkpt lat="43.5359" lon="5.5241">
        <ele>248</ele>
        <time>2018-02-20T10:45:22.000Z</time>
      </trkpt>
      <trkpt lat="43.5359" lon="5.5241">
        <ele>248</ele>
        <time>2018-02-20T10:45:23.000Z</time>
      </trkpt>
      <trkpt lat="43.5359" lon="5.5241">
        <ele>248</ele>
        <time>2018-02-20T10:45:24.000Z</time>
      </trkpt>
      <trkpt lat="43.5359" lon="5.5241">
        <ele>248</ele>
        <time>2018-02-20T10:45:25.000Z</time>
      </trkpt>
      <trkpt lat="43.5359" lon="5.5241">
        <ele>248</ele>
        <time>2018-02-20T10:45:26.000Z</time>
      </trkpt>
      <trkpt lat="43.5359" lon="5.5241">
        <ele>248</ele>
        <time>2018-02-20T10:45:27.000Z</time>
      </trkpt>
      <trkpt lat="43.5359" lon="5.5241">
        <ele>248</ele>
        <time>2018-02-20T10:45:28.000Z</time>
      </trkpt>
      <trkpt lat="43.5359" lon="5.5241">
        <ele>248</ele>
        <time>2018-02-20T10:45:29.000Z</time>
      </trkpt>
      <trkpt lat="43.5359" lon="5.5241">
        <ele>248</ele>
        <time>2018-02-20T10:45:30.000Z</time>
      </trkpt>
      <trkpt lat="43.5359" lon="5.5241">
        <ele>248</ele>
        <time>2018-02-20T10:45:31.000Z</time>
      </trkpt>
      <trkpt lat="43.53591" lon="5.52409">
        <ele>249</ele>
        <time>2018-02-20T10:45:32.000Z</time>
      </trkpt>
      <trkpt lat="43.53592" lon="5.52409">
        <ele>249</ele>
        <time>2018-02-20T10:45:33.000Z</time>
      </trkpt>
      <trkpt lat="43.53592" lon="5.52409">
        <ele>249</ele>
        <time>2018-02-20T10:45:34.000Z</time>
      </trkpt>
      <trkpt lat="43.53593" lon="5.52409">
        <ele>249</ele>
        <time>2018-02-20T10:45:35.000Z</time>
      </trkpt>
      <trkpt lat="43.53593" lon="5.52409">
        <ele>249</ele>
        <time>2018-02-20T10:45:36.000Z</time>
      </trkpt>
      <trkpt lat="43.53594" lon="5.52408">
        <ele>249</ele>
        <time>2018-02-20T10:45:37.000Z</time>
      </trkpt>
      <trkpt lat="43.53595" lon="5.52408">
        <ele>249</ele>
        <time>2018-02-20T10:45:38.000Z</time>
      </trkpt>
      <trkpt lat="43.53596" lon="5.52408">
        <ele>249</ele>
        <time>2018-02-20T10:45:39.000Z</time>
      </trkpt>
      <trkpt lat="43.53597" lon="5.52408">
        <ele>249</ele>
        <time>2018-02-20T10:45:40.000Z</time>
      </trkpt>
      <trkpt lat="43.53599" lon="5.52407">
        <ele>249</ele>
        <time>2018-02-20T10:45:41.000Z</time>
      </trkpt>
      <trkpt lat="43.536" lon="5.52407">
        <ele>249</ele>
        <time>2018-02-20T10:45:42.000Z</time>
      </trkpt>
      <trkpt lat="43.53601" lon="5.52407">
        <ele>249</ele>
        <time>2018-02-20T10:45:43.000Z</time>
      </trkpt>
      <trkpt lat="43.53602" lon="5.52407">
        <ele>249</ele>
        <time>2018-02-20T10:45:44.000Z</time>
      </trkpt>
      <trkpt lat="43.53603" lon="5.52407">
        <ele>249</ele>
        <time>2018-02-20T10:45:45.000Z</time>
      </trkpt>
      <trkpt lat="43.53604" lon="5.52407">
        <ele>249</ele>
        <time>2018-02-20T10:45:46.000Z</time>
      </trkpt>
      <trkpt lat="43.53606" lon="5.52408">
        <ele>249</ele>
        <time>2018-02-20T10:45:47.000Z</time>
      </trkpt>
      <trkpt lat="43.53607" lon="5.52408">
        <ele>249</ele>
        <time>2018-02-20T10:45:48.000Z</time>
      </trkpt>
      <trkpt lat="43.53609" lon="5.52408">
        <ele>249</ele>
        <time>2018-02-20T10:45:49.000Z</time>
      </trkpt>
      <trkpt lat="43.5361" lon="5.52408">
        <ele>250</ele>
        <time>2018-02-20T10:45:50.000Z</time>
      </trkpt>
      <trkpt lat="43.53611" lon="5.52408">
        <ele>250</ele>
        <time>2018-02-20T10:45:51.000Z</time>
      </trkpt>
      <trkpt lat="43.53613" lon="5.52408">
        <ele>250</ele>
        <time>2018-02-20T10:45:52.000Z</time>
      </trkpt>
      <trkpt lat="43.53614" lon="5.52409">
        <ele>250</ele>
        <time>2018-02-20T10:45:53.000Z</time>
      </trkpt>
      <trkpt lat="43.53615" lon="5.52408">
        <ele>250</ele>
        <time>2018-02-20T10:45:54.000Z</time>
      </trkpt>
      <trkpt lat="43.53616" lon="5.52408">
        <ele>250</ele>
        <time>2018-02-20T10:45:55.000Z</time>
      </trkpt>
      <trkpt lat="43.53618" lon="5.52407">
        <ele>250</ele>
        <time>2018-02-20T10:45:56.000Z</time>
      </trkpt>
      <trkpt lat="43.53619" lon="5.52406">
        <ele>250</ele>
        <time>2018-02-20T10:45:57.000Z</time>
      </trkpt>
      <trkpt lat="43.5362" lon="5.52406">
        <ele>251</ele>
        <time>2018-02-20T10:45:58.000Z</time>
      </trkpt>
      <trkpt lat="43.53622" lon="5.52405">
        <ele>251</ele>
        <time>2018-02-20T10:45:59.000Z</time>
      </trkpt>
      <trkpt lat="43.53623" lon="5.52405">
        <ele>251</ele>
        <time>2018-02-20T10:46:00.000Z</time>
      </trkpt>
      <trkpt lat="43.53624" lon="5.52404">
        <ele>251</ele>
        <time>2018-02-20T10:46:01.000Z</time>
      </trkpt>
      <trkpt lat="43.53625" lon="5.52404">
        <ele>251</ele>
        <time>2018-02-20T10:46:02.000Z</time>
      </trkpt>
      <trkpt lat="43.53626" lon="5.52404">
        <ele>251</ele>
        <time>2018-02-20T10:46:03.000Z</time>
      </trkpt>
      <trkpt lat="43.53627" lon="5.52403">
        <ele>251</ele>
        <time>2018-02-20T10:46:04.000Z</time>
      </trkpt>
      <trkpt lat="43.53628" lon="5.52403">
        <ele>251</ele>
        <time>2018-02-20T10:46:05.000Z</time>
      </trkpt>
      <trkpt lat="43.53629" lon="5.52402">
        <ele>251</ele>
        <time>2018-02-20T10:46:06.000Z</time>
      </trkpt>
      <trkpt lat="43.5363" lon="5.52401">
        <ele>251</ele>
        <time>2018-02-20T10:46:07.000Z</time>
      </trkpt>
      <trkpt lat="43.53632" lon="5.52401">
        <ele>251</ele>
        <time>2018-02-20T10:46:08.000Z</time>
      </trkpt>
      <trkpt lat="43.53633" lon="5.52401">
        <ele>251</ele>
        <time>2018-02-20T10:46:09.000Z</time>
      </trkpt>
      <trkpt lat="43.53634" lon="5.52401">
        <ele>251</ele>
        <time>2018-02-20T10:46:10.000Z</time>
      </trkpt>
      <trkpt lat="43.53634" lon="5.52401">
        <ele>251</ele>
        <time>2018-02-20T10:46:11.000Z</time>
      </trkpt>
      <trkpt lat="43.53635" lon="5.52401">
        <ele>251</ele>
        <time>2018-02-20T10:46:12.000Z</time>
      </trkpt>
      <trkpt lat="43.53636" lon="5.524">
        <ele>251</ele>
        <time>2018-02-20T10:46:13.000Z</time>
      </trkpt>
      <trkpt lat="43.53637" lon="5.52401">
        <ele>251</ele>
        <time>2018-02-20T10:46:14.000Z</time>
      </trkpt>
      <trkpt lat="43.53637" lon="5.52401">
        <ele>251</ele>
        <time>2018-02-20T10:46:15.000Z</time>
      </trkpt>
      <trkpt lat="43.53637" lon="5.52401">
        <ele>251</ele>
        <time>2018-02-20T10:46:16.000Z</time>
      </trkpt>
      <trkpt lat="43.53637" lon="5.52401">
        <ele>252</ele>
        <time>2018-02-20T10:46:17.000Z</time>
      </trkpt>
      <trkpt lat="43.53637" lon="5.52401">
        <ele>252</ele>
        <time>2018-02-20T10:46:18.000Z</time>
      </trkpt>
      <trkpt lat="43.53637" lon="5.52401">
        <ele>252</ele>
        <time>2018-02-20T10:46:19.000Z</time>
      </trkpt>
      <trkpt lat="43.53637" lon="5.524">
        <ele>252</ele>
        <time>2018-02-20T10:46:20.000Z</time>
      </trkpt>
      <trkpt lat="43.53637" lon="5.524">
        <ele>252</ele>
        <time>2018-02-20T10:46:21.000Z</time>
      </trkpt>
      <trkpt lat="43.53637" lon="5.524">
        <ele>252</ele>
        <time>2018-02-20T10:46:22.000Z</time>
      </trkpt>
      <trkpt lat="43.53638" lon="5.524">
        <ele>252</ele>
        <time>2018-02-20T10:46:23.000Z</time>
      </trkpt>
      <trkpt lat="43.53639" lon="5.524">
        <ele>252</ele>
        <time>2018-02-20T10:46:24.000Z</time>
      </trkpt>
      <trkpt lat="43.5364" lon="5.524">
        <ele>252</ele>
        <time>2018-02-20T10:46:25.000Z</time>
      </trkpt>
      <trkpt lat="43.5364" lon="5.52399">
        <ele>252</ele>
        <time>2018-02-20T10:46:26.000Z</time>
      </trkpt>
      <trkpt lat="43.53641" lon="5.52399">
        <ele>252</ele>
        <time>2018-02-20T10:46:27.000Z</time>
      </trkpt>
      <trkpt lat="43.53642" lon="5.52399">
        <ele>252</ele>
        <time>2018-02-20T10:46:28.000Z</time>
      </trkpt>
      <trkpt lat="43.53642" lon="5.52399">
        <ele>252</ele>
        <time>2018-02-20T10:46:29.000Z</time>
      </trkpt>
      <trkpt lat="43.53643" lon="5.52398">
        <ele>252</ele>
        <time>2018-02-20T10:46:30.000Z</time>
      </trkpt>
      <trkpt lat="43.53644" lon="5.52398">
        <ele>252</ele>
        <time>2018-02-20T10:46:31.000Z</time>
      </trkpt>
      <trkpt lat="43.53644" lon="5.52398">
        <ele>252</ele>
        <time>2018-02-20T10:46:32.000Z</time>
      </trkpt>
      <trkpt lat="43.53645" lon="5.52398">
        <ele>253</ele>
        <time>2018-02-20T10:46:33.000Z</time>
      </trkpt>
      <trkpt lat="43.53645" lon="5.52398">
        <ele>253</ele>
        <time>2018-02-20T10:46:34.000Z</time>
      </trkpt>
      <trkpt lat="43.53645" lon="5.52397">
        <ele>253</ele>
        <time>2018-02-20T10:46:35.000Z</time>
      </trkpt>
      <trkpt lat="43.53645" lon="5.52397">
        <ele>253</ele>
        <time>2018-02-20T10:46:36.000Z</time>
      </trkpt>
      <trkpt lat="43.53645" lon="5.52396">
        <ele>253</ele>
        <time>2018-02-20T10:46:37.000Z</time>
      </trkpt>
      <trkpt lat="43.53645" lon="5.52395">
        <ele>253</ele>
        <time>2018-02-20T10:46:38.000Z</time>
      </trkpt>
      <trkpt lat="43.53646" lon="5.52394">
        <ele>253</ele>
        <time>2018-02-20T10:46:39.000Z</time>
      </trkpt>
      <trkpt lat="43.53646" lon="5.52394">
        <ele>254</ele>
        <time>2018-02-20T10:46:40.000Z</time>
      </trkpt>
      <trkpt lat="43.53646" lon="5.52393">
        <ele>254</ele>
        <time>2018-02-20T10:46:41.000Z</time>
      </trkpt>
      <trkpt lat="43.53646" lon="5.52393">
        <ele>254</ele>
        <time>2018-02-20T10:46:42.000Z</time>
      </trkpt>
      <trkpt lat="43.53646" lon="5.52392">
        <ele>254</ele>
        <time>2018-02-20T10:46:43.000Z</time>
      </trkpt>
      <trkpt lat="43.53646" lon="5.52392">
        <ele>254</ele>
        <time>2018-02-20T10:46:44.000Z</time>
      </trkpt>
      <trkpt lat="43.53646" lon="5.52392">
        <ele>254</ele>
        <time>2018-02-20T10:46:45.000Z</time>
      </trkpt>
      <trkpt lat="43.53646" lon="5.52392">
        <ele>255</ele>
        <time>2018-02-20T10:46:46.000Z</time>
      </trkpt>
      <trkpt lat="43.53646" lon="5.52392">
        <ele>255</ele>
        <time>2018-02-20T10:46:47.000Z</time>
      </trkpt>
      <trkpt lat="43.53646" lon="5.52392">
        <ele>255</ele>
        <time>2018-02-20T10:46:48.000Z</time>
      </trkpt>
      <trkpt lat="43.53647" lon="5.52391">
        <ele>255</ele>
        <time>2018-02-20T10:46:49.000Z</time>
      </trkpt>
      <trkpt lat="43.53647" lon="5.52391">
        <ele>255</ele>
        <time>2018-02-20T10:46:50.000Z</time>
      </trkpt>
      <trkpt lat="43.53647" lon="5.52391">
        <ele>255</ele>
        <time>2018-02-20T10:46:51.000Z</time>
      </trkpt>
      <trkpt lat="43.53647" lon="5.52391">
        <ele>255</ele>
        <time>2018-02-20T10:46:52.000Z</time>
      </trkpt>
      <trkpt lat="43.53647" lon="5.5239">
        <ele>255</ele>
        <time>2018-02-20T10:46:53.000Z</time>
      </trkpt>
      <trkpt lat="43.53647" lon="5.5239">
        <ele>255</ele>
        <time>2018-02-20T10:46:54.000Z</time>
      </trkpt>
      <trkpt lat="43.53647" lon="5.52389">
        <ele>255</ele>
        <time>2018-02-20T10:46:55.000Z</time>
      </trkpt>
      <trkpt lat="43.53647" lon="5.52389">
        <ele>255</ele>
        <time>2018-02-20T10:46:56.000Z</time>
      </trkpt>
      <trkpt lat="43.53647" lon="5.52389">
        <ele>255</ele>
        <time>2018-02-20T10:46:57.000Z</time>
      </trkpt>
      <trkpt lat="43.53647" lon="5.52388">
        <ele>255</ele>
        <time>2018-02-20T10:46:58.000Z</time>
      </trkpt>
      <trkpt lat="43.53647" lon="5.52388">
        <ele>255</ele>
        <time>2018-02-20T10:46:59.000Z</time>
      </trkpt>
      <trkpt lat="43.53647" lon="5.52388">
        <ele>255</ele>
        <time>2018-02-20T10:47:00.000Z</time>
      </trkpt>
      <trkpt lat="43.53647" lon="5.52388">
        <ele>256</ele>
        <time>2018-02-20T10:47:01.000Z</time>
      </trkpt>
      <trkpt lat="43.53647" lon="5.52387">
        <ele>256</ele>
        <time>2018-02-20T10:47:02.000Z</time>
      </trkpt>
      <trkpt lat="43.53647" lon="5.52386">
        <ele>256</ele>
        <time>2018-02-20T10:47:03.000Z</time>
      </trkpt>
      <trkpt lat="43.53646" lon="5.52386">
        <ele>256</ele>
        <time>2018-02-20T10:47:04.000Z</time>
      </trkpt>
      <trkpt lat="43.53646" lon="5.52385">
        <ele>256</ele>
        <time>2018-02-20T10:47:05.000Z</time>
      </trkpt>
      <trkpt lat="43.53645" lon="5.52385">
        <ele>256</ele>
        <time>2018-02-20T10:47:06.000Z</time>
      </trkpt>
      <trkpt lat="43.53645" lon="5.52385">
        <ele>256</ele>
        <time>2018-02-20T10:47:07.000Z</time>
      </trkpt>
      <trkpt lat="43.53645" lon="5.52384">
        <ele>257</ele>
        <time>2018-02-20T10:47:08.000Z</time>
      </trkpt>
      <trkpt lat="43.53645" lon="5.52384">
        <ele>257</ele>
        <time>2018-02-20T10:47:09.000Z</time>
      </trkpt>
      <trkpt lat="43.53645" lon="5.52383">
        <ele>257</ele>
        <time>2018-02-20T10:47:10.000Z</time>
      </trkpt>
      <trkpt lat="43.53645" lon="5.52383">
        <ele>257</ele>
        <time>2018-02-20T10:47:11.000Z</time>
      </trkpt>
      <trkpt lat="43.53645" lon="5.52382">
        <ele>257</ele>
        <time>2018-02-20T10:47:12.000Z</time>
      </trkpt>
      <trkpt lat="43.53644" lon="5.52382">
        <ele>257</ele>
        <time>2018-02-20T10:47:13.000Z</time>
      </trkpt>
      <trkpt lat="43.53645" lon="5.52381">
        <ele>258</ele>
        <time>2018-02-20T10:47:14.000Z</time>
      </trkpt>
      <trkpt lat="43.53645" lon="5.52381">
        <ele>258</ele>
        <time>2018-02-20T10:47:15.000Z</time>
      </trkpt>
      <trkpt lat="43.53645" lon="5.5238">
        <ele>258</ele>
        <time>2018-02-20T10:47:16.000Z</time>
      </trkpt>
      <trkpt lat="43.53644" lon="5.5238">
        <ele>258</ele>
        <time>2018-02-20T10:47:17.000Z</time>
      </trkpt>
      <trkpt lat="43.53644" lon="5.52379">
        <ele>258</ele>
        <time>2018-02-20T10:47:18.000Z</time>
      </trkpt>
      <trkpt lat="43.53643" lon="5.52378">
        <ele>259</ele>
        <time>2018-02-20T10:47:19.000Z</time>
      </trkpt>
      <trkpt lat="43.53643" lon="5.52378">
        <ele>259</ele>
        <time>2018-02-20T10:47:20.000Z</time>
      </trkpt>
      <trkpt lat="43.53643" lon="5.52377">
        <ele>259</ele>
        <time>2018-02-20T10:47:21.000Z</time>
      </trkpt>
      <trkpt lat="43.53642" lon="5.52377">
        <ele>260</ele>
        <time>2018-02-20T10:47:22.000Z</time>
      </trkpt>
      <trkpt lat="43.53641" lon="5.52376">
        <ele>260</ele>
        <time>2018-02-20T10:47:23.000Z</time>
      </trkpt>
      <trkpt lat="43.5364" lon="5.52375">
        <ele>260</ele>
        <time>2018-02-20T10:47:24.000Z</time>
      </trkpt>
      <trkpt lat="43.5364" lon="5.52374">
        <ele>260</ele>
        <time>2018-02-20T10:47:25.000Z</time>
      </trkpt>
      <trkpt lat="43.53639" lon="5.52374">
        <ele>261</ele>
        <time>2018-02-20T10:47:26.000Z</time>
      </trkpt>
      <trkpt lat="43.53639" lon="5.52373">
        <ele>261</ele>
        <time>2018-02-20T10:47:27.000Z</time>
      </trkpt>
      <trkpt lat="43.53639" lon="5.52372">
        <ele>261</ele>
        <time>2018-02-20T10:47:28.000Z</time>
      </trkpt>
      <trkpt lat="43.53638" lon="5.52372">
        <ele>261</ele>
        <time>2018-02-20T10:47:29.000Z</time>
      </trkpt>
      <trkpt lat="43.53638" lon="5.52372">
        <ele>261</ele>
        <time>2018-02-20T10:47:30.000Z</time>
      </trkpt>
      <trkpt lat="43.53638" lon="5.52372">
        <ele>261</ele>
        <time>2018-02-20T10:47:31.000Z</time>
      </trkpt>
      <trkpt lat="43.53638" lon="5.52372">
        <ele>261</ele>
        <time>2018-02-20T10:47:32.000Z</time>
      </trkpt>
      <trkpt lat="43.53638" lon="5.52372">
        <ele>261</ele>
        <time>2018-02-20T10:47:33.000Z</time>
      </trkpt>
      <trkpt lat="43.53639" lon="5.52372">
        <ele>261</ele>
        <time>2018-02-20T10:47:34.000Z</time>
      </trkpt>
      <trkpt lat="43.53639" lon="5.52372">
        <ele>262</ele>
        <time>2018-02-20T10:47:35.000Z</time>
      </trkpt>
      <trkpt lat="43.53639" lon="5.52372">
        <ele>262</ele>
        <time>2018-02-20T10:47:36.000Z</time>
      </trkpt>
      <trkpt lat="43.53639" lon="5.52372">
        <ele>262</ele>
        <time>2018-02-20T10:47:37.000Z</time>
      </trkpt>
      <trkpt lat="43.53639" lon="5.52372">
        <ele>262</ele>
        <time>2018-02-20T10:47:38.000Z</time>
      </trkpt>
      <trkpt lat="43.53639" lon="5.52372">
        <ele>262</ele>
        <time>2018-02-20T10:47:39.000Z</time>
      </trkpt>
      <trkpt lat="43.53639" lon="5.52372">
        <ele>262</ele>
        <time>2018-02-20T10:47:40.000Z</time>
      </trkpt>
      <trkpt lat="43.53639" lon="5.52372">
        <ele>262</ele>
        <time>2018-02-20T10:47:41.000Z</time>
      </trkpt>
      <trkpt lat="43.53639" lon="5.52372">
        <ele>262</ele>
        <time>2018-02-20T10:47:42.000Z</time>
      </trkpt>
      <trkpt lat="43.53639" lon="5.52372">
        <ele>262</ele>
        <time>2018-02-20T10:47:43.000Z</time>
      </trkpt>
      <trkpt lat="43.53638" lon="5.52371">
        <ele>262</ele>
        <time>2018-02-20T10:47:44.000Z</time>
      </trkpt>
      <trkpt lat="43.53637" lon="5.5237">
        <ele>262</ele>
        <time>2018-02-20T10:47:45.000Z</time>
      </trkpt>
      <trkpt lat="43.53637" lon="5.52369">
        <ele>263</ele>
        <time>2018-02-20T10:47:46.000Z</time>
      </trkpt>
      <trkpt lat="43.53636" lon="5.52368">
        <ele>263</ele>
        <time>2018-02-20T10:47:47.000Z</time>
      </trkpt>
      <trkpt lat="43.53636" lon="5.52368">
        <ele>263</ele>
        <time>2018-02-20T10:47:48.000Z</time>
      </trkpt>
      <trkpt lat="43.53635" lon="5.52367">
        <ele>263</ele>
        <time>2018-02-20T10:47:49.000Z</time>
      </trkpt>
      <trkpt lat="43.53635" lon="5.52366">
        <ele>263</ele>
        <time>2018-02-20T10:47:50.000Z</time>
      </trkpt>
      <trkpt lat="43.53635" lon="5.52365">
        <ele>263</ele>
        <time>2018-02-20T10:47:51.000Z</time>
      </trkpt>
      <trkpt lat="43.53635" lon="5.52364">
        <ele>263</ele>
        <time>2018-02-20T10:47:52.000Z</time>
      </trkpt>
      <trkpt lat="43.53635" lon="5.52364">
        <ele>264</ele>
        <time>2018-02-20T10:47:53.000Z</time>
      </trkpt>
      <trkpt lat="43.53635" lon="5.52363">
        <ele>264</ele>
        <time>2018-02-20T10:47:54.000Z</time>
      </trkpt>
      <trkpt lat="43.53634" lon="5.52363">
        <ele>264</ele>
        <time>2018-02-20T10:47:55.000Z</time>
      </trkpt>
      <trkpt lat="43.53634" lon="5.52362">
        <ele>264</ele>
        <time>2018-02-20T10:47:56.000Z</time>
      </trkpt>
      <trkpt lat="43.53633" lon="5.52362">
        <ele>264</ele>
        <time>2018-02-20T10:47:57.000Z</time>
      </trkpt>
      <trkpt lat="43.53633" lon="5.52361">
        <ele>264</ele>
        <time>2018-02-20T10:47:58.000Z</time>
      </trkpt>
      <trkpt lat="43.53633" lon="5.5236">
        <ele>264</ele>
        <time>2018-02-20T10:47:59.000Z</time>
      </trkpt>
      <trkpt lat="43.53632" lon="5.52359">
        <ele>264</ele>
        <time>2018-02-20T10:48:00.000Z</time>
      </trkpt>
      <trkpt lat="43.53632" lon="5.52358">
        <ele>264</ele>
        <time>2018-02-20T10:48:01.000Z</time>
      </trkpt>
      <trkpt lat="43.53632" lon="5.52357">
        <ele>263</ele>
        <time>2018-02-20T10:48:02.000Z</time>
      </trkpt>
      <trkpt lat="43.53632" lon="5.52356">
        <ele>263</ele>
        <time>2018-02-20T10:48:03.000Z</time>
      </trkpt>
      <trkpt lat="43.53632" lon="5.52356">
        <ele>263</ele>
        <time>2018-02-20T10:48:04.000Z</time>
      </trkpt>
      <trkpt lat="43.53632" lon="5.52355">
        <ele>263</ele>
        <time>2018-02-20T10:48:05.000Z</time>
      </trkpt>
      <trkpt lat="43.53631" lon="5.52354">
        <ele>263</ele>
        <time>2018-02-20T10:48:06.000Z</time>
      </trkpt>
      <trkpt lat="43.53631" lon="5.52353">
        <ele>263</ele>
        <time>2018-02-20T10:48:07.000Z</time>
      </trkpt>
      <trkpt lat="43.53631" lon="5.52353">
        <ele>263</ele>
        <time>2018-02-20T10:48:08.000Z</time>
      </trkpt>
      <trkpt lat="43.53631" lon="5.52352">
        <ele>264</ele>
        <time>2018-02-20T10:48:09.000Z</time>
      </trkpt>
      <trkpt lat="43.53631" lon="5.52351">
        <ele>264</ele>
        <time>2018-02-20T10:48:10.000Z</time>
      </trkpt>
      <trkpt lat="43.53632" lon="5.52351">
        <ele>264</ele>
        <time>2018-02-20T10:48:11.000Z</time>
      </trkpt>
      <trkpt lat="43.53632" lon="5.5235">
        <ele>264</ele>
        <time>2018-02-20T10:48:12.000Z</time>
      </trkpt>
      <trkpt lat="43.53632" lon="5.52349">
        <ele>264</ele>
        <time>2018-02-20T10:48:13.000Z</time>
      </trkpt>
      <trkpt lat="43.53632" lon="5.52349">
        <ele>264</ele>
        <time>2018-02-20T10:48:14.000Z</time>
      </trkpt>
      <trkpt lat="43.53633" lon="5.52348">
        <ele>264</ele>
        <time>2018-02-20T10:48:15.000Z</time>
      </trkpt>
      <trkpt lat="43.53633" lon="5.52347">
        <ele>264</ele>
        <time>2018-02-20T10:48:16.000Z</time>
      </trkpt>
      <trkpt lat="43.53633" lon="5.52347">
        <ele>264</ele>
        <time>2018-02-20T10:48:17.000Z</time>
      </trkpt>
      <trkpt lat="43.53633" lon="5.52347">
        <ele>264</ele>
        <time>2018-02-20T10:48:18.000Z</time>
      </trkpt>
      <trkpt lat="43.53633" lon="5.52347">
        <ele>264</ele>
        <time>2018-02-20T10:48:19.000Z</time>
      </trkpt>
      <trkpt lat="43.53633" lon="5.52347">
        <ele>264</ele>
        <time>2018-02-20T10:48:20.000Z</time>
      </trkpt>
      <trkpt lat="43.53633" lon="5.52347">
        <ele>264</ele>
        <time>2018-02-20T10:48:21.000Z</time>
      </trkpt>
      <trkpt lat="43.53633" lon="5.52346">
        <ele>264</ele>
        <time>2018-02-20T10:48:22.000Z</time>
      </trkpt>
      <trkpt lat="43.53633" lon="5.52346">
        <ele>264</ele>
        <time>2018-02-20T10:48:23.000Z</time>
      </trkpt>
      <trkpt lat="43.53632" lon="5.52346">
        <ele>264</ele>
        <time>2018-02-20T10:48:24.000Z</time>
      </trkpt>
      <trkpt lat="43.53632" lon="5.52346">
        <ele>264</ele>
        <time>2018-02-20T10:48:25.000Z</time>
      </trkpt>
      <trkpt lat="43.53632" lon="5.52346">
        <ele>264</ele>
        <time>2018-02-20T10:48:26.000Z</time>
      </trkpt>
      <trkpt lat="43.53632" lon="5.52346">
        <ele>264</ele>
        <time>2018-02-20T10:48:27.000Z</time>
      </trkpt>
      <trkpt lat="43.53632" lon="5.52346">
        <ele>264</ele>
        <time>2018-02-20T10:48:28.000Z</time>
      </trkpt>
      <trkpt lat="43.53632" lon="5.52346">
        <ele>264</ele>
        <time>2018-02-20T10:48:29.000Z</time>
      </trkpt>
      <trkpt lat="43.53632" lon="5.52346">
        <ele>264</ele>
        <time>2018-02-20T10:48:30.000Z</time>
      </trkpt>
      <trkpt lat="43.53632" lon="5.52346">
        <ele>264</ele>
        <time>2018-02-20T10:48:31.000Z</time>
      </trkpt>
      <trkpt lat="43.53632" lon="5.52346">
        <ele>264</ele>
        <time>2018-02-20T10:48:32.000Z</time>
      </trkpt>
      <trkpt lat="43.53632" lon="5.52346">
        <ele>264</ele>
        <time>2018-02-20T10:48:33.000Z</time>
      </trkpt>
      <trkpt lat="43.53632" lon="5.52346">
        <ele>264</ele>
        <time>2018-02-20T10:48:34.000Z</time>
      </trkpt>
      <trkpt lat="43.53632" lon="5.52346">
        <ele>264</ele>
        <time>2018-02-20T10:48:35.000Z</time>
      </trkpt>
      <trkpt lat="43.53632" lon="5.52346">
        <ele>264</ele>
        <time>2018-02-20T10:48:36.000Z</time>
      </trkpt>
      <trkpt lat="43.53632" lon="5.52346">
        <ele>264</ele>
        <time>2018-02-20T10:48:37.000Z</time>
      </trkpt>
      <trkpt lat="43.53632" lon="5.52346">
        <ele>264</ele>
        <time>2018-02-20T10:48:38.000Z</time>
      </trkpt>
      <trkpt lat="43.53632" lon="5.52346">
        <ele>264</ele>
        <time>2018-02-20T10:48:39.000Z</time>
      </trkpt>
      <trkpt lat="43.53632" lon="5.52346">
        <ele>264</ele>
        <time>2018-02-20T10:48:40.000Z</time>
      </trkpt>
      <trkpt lat="43.53632" lon="5.52346">
        <ele>264</ele>
        <time>2018-02-20T10:48:41.000Z</time>
      </trkpt>
      <trkpt lat="43.53632" lon="5.52346">
        <ele>263</ele>
        <time>2018-02-20T10:48:42.000Z</time>
      </trkpt>
      <trkpt lat="43.53632" lon="5.52346">
        <ele>263</ele>
        <time>2018-02-20T10:48:43.000Z</time>
      </trkpt>
      <trkpt lat="43.53632" lon="5.52346">
        <ele>263</ele>
        <time>2018-02-20T10:48:44.000Z</time>
      </trkpt>
      <trkpt lat="43.53632" lon="5.52346">
        <ele>263</ele>
        <time>2018-02-20T10:48:45.000Z</time>
      </trkpt>
      <trkpt lat="43.53632" lon="5.52346">
        <ele>263</ele>
        <time>2018-02-20T10:48:46.000Z</time>
      </trkpt>
      <trkpt lat="43.53632" lon="5.52346">
        <ele>263</ele>
        <time>2018-02-20T10:48:47.000Z</time>
      </trkpt>
      <trkpt lat="43.53632" lon="5.52346">
        <ele>263</ele>
        <time>2018-02-20T10:48:48.000Z</time>
      </trkpt>
      <trkpt lat="43.53632" lon="5.52346">
        <ele>263</ele>
        <time>2018-02-20T10:48:49.000Z</time>
      </trkpt>
      <trkpt lat="43.53632" lon="5.52346">
        <ele>263</ele>
        <time>2018-02-20T10:48:50.000Z</time>
      </trkpt>
      <trkpt lat="43.53631" lon="5.52346">
        <ele>263</ele>
        <time>2018-02-20T10:48:51.000Z</time>
      </trkpt>
      <trkpt lat="43.53631" lon="5.52345">
        <ele>263</ele>
        <time>2018-02-20T10:48:52.000Z</time>
      </trkpt>
      <trkpt lat="43.53631" lon="5.52345">
        <ele>263</ele>
        <time>2018-02-20T10:48:53.000Z</time>
      </trkpt>
      <trkpt lat="43.53631" lon="5.52345">
        <ele>263</ele>
        <time>2018-02-20T10:48:54.000Z</time>
      </trkpt>
      <trkpt lat="43.53631" lon="5.52345">
        <ele>263</ele>
        <time>2018-02-20T10:48:55.000Z</time>
      </trkpt>
      <trkpt lat="43.53631" lon="5.52345">
        <ele>263</ele>
        <time>2018-02-20T10:48:56.000Z</time>
      </trkpt>
      <trkpt lat="43.53631" lon="5.52345">
        <ele>263</ele>
        <time>2018-02-20T10:48:57.000Z</time>
      </trkpt>
      <trkpt lat="43.53631" lon="5.52345">
        <ele>263</ele>
        <time>2018-02-20T10:48:58.000Z</time>
      </trkpt>
      <trkpt lat="43.53632" lon="5.52345">
        <ele>263</ele>
        <time>2018-02-20T10:48:59.000Z</time>
      </trkpt>
      <trkpt lat="43.53632" lon="5.52345">
        <ele>263</ele>
        <time>2018-02-20T10:49:00.000Z</time>
      </trkpt>
      <trkpt lat="43.53632" lon="5.52345">
        <ele>263</ele>
        <time>2018-02-20T10:49:01.000Z</time>
      </trkpt>
      <trkpt lat="43.53632" lon="5.52345">
        <ele>263</ele>
        <time>2018-02-20T10:49:02.000Z</time>
      </trkpt>
      <trkpt lat="43.53632" lon="5.52345">
        <ele>263</ele>
        <time>2018-02-20T10:49:03.000Z</time>
      </trkpt>
      <trkpt lat="43.53632" lon="5.52345">
        <ele>263</ele>
        <time>2018-02-20T10:49:04.000Z</time>
      </trkpt>
      <trkpt lat="43.53632" lon="5.52345">
        <ele>263</ele>
        <time>2018-02-20T10:49:05.000Z</time>
      </trkpt>
      <trkpt lat="43.53632" lon="5.52345">
        <ele>263</ele>
        <time>2018-02-20T10:49:06.000Z</time>
      </trkpt>
      <trkpt lat="43.53632" lon="5.52345">
        <ele>263</ele>
        <time>2018-02-20T10:49:07.000Z</time>
      </trkpt>
      <trkpt lat="43.53632" lon="5.52345">
        <ele>263</ele>
        <time>2018-02-20T10:49:08.000Z</time>
      </trkpt>
      <trkpt lat="43.53632" lon="5.52345">
        <ele>263</ele>
        <time>2018-02-20T10:49:09.000Z</time>
      </trkpt>
      <trkpt lat="43.53632" lon="5.52345">
        <ele>263</ele>
        <time>2018-02-20T10:49:10.000Z</time>
      </trkpt>
      <trkpt lat="43.53632" lon="5.52345">
        <ele>263</ele>
        <time>2018-02-20T10:49:11.000Z</time>
      </trkpt>
      <trkpt lat="43.53633" lon="5.52344">
        <ele>263</ele>
        <time>2018-02-20T10:49:12.000Z</time>
      </trkpt>
      <trkpt lat="43.53633" lon="5.52344">
        <ele>263</ele>
        <time>2018-02-20T10:49:13.000Z</time>
      </trkpt>
      <trkpt lat="43.53633" lon="5.52343">
        <ele>264</ele>
        <time>2018-02-20T10:49:14.000Z</time>
      </trkpt>
      <trkpt lat="43.53633" lon="5.52343">
        <ele>264</ele>
        <time>2018-02-20T10:49:15.000Z</time>
      </trkpt>
      <trkpt lat="43.53633" lon="5.52342">
        <ele>264</ele>
        <time>2018-02-20T10:49:16.000Z</time>
      </trkpt>
      <trkpt lat="43.53633" lon="5.52341">
        <ele>264</ele>
        <time>2018-02-20T10:49:17.000Z</time>
      </trkpt>
      <trkpt lat="43.53634" lon="5.5234">
        <ele>264</ele>
        <time>2018-02-20T10:49:18.000Z</time>
      </trkpt>
      <trkpt lat="43.53634" lon="5.52338">
        <ele>264</ele>
        <time>2018-02-20T10:49:19.000Z</time>
      </trkpt>
      <trkpt lat="43.53634" lon="5.52337">
        <ele>264</ele>
        <time>2018-02-20T10:49:20.000Z</time>
      </trkpt>
      <trkpt lat="43.53634" lon="5.52336">
        <ele>264</ele>
        <time>2018-02-20T10:49:21.000Z</time>
      </trkpt>
      <trkpt lat="43.53635" lon="5.52334">
        <ele>265</ele>
        <time>2018-02-20T10:49:22.000Z</time>
      </trkpt>
      <trkpt lat="43.53635" lon="5.52333">
        <ele>265</ele>
        <time>2018-02-20T10:49:23.000Z</time>
      </trkpt>
      <trkpt lat="43.53635" lon="5.52332">
        <ele>265</ele>
        <time>2018-02-20T10:49:24.000Z</time>
      </trkpt>
      <trkpt lat="43.53634" lon="5.5233">
        <ele>265</ele>
        <time>2018-02-20T10:49:25.000Z</time>
      </trkpt>
      <trkpt lat="43.53634" lon="5.52329">
        <ele>265</ele>
        <time>2018-02-20T10:49:26.000Z</time>
      </trkpt>
      <trkpt lat="43.53634" lon="5.52328">
        <ele>265</ele>
        <time>2018-02-20T10:49:27.000Z</time>
      </trkpt>
      <trkpt lat="43.53633" lon="5.52328">
        <ele>265</ele>
        <time>2018-02-20T10:49:28.000Z</time>
      </trkpt>
      <trkpt lat="43.53633" lon="5.52327">
        <ele>265</ele>
        <time>2018-02-20T10:49:29.000Z</time>
      </trkpt>
      <trkpt lat="43.53632" lon="5.52326">
        <ele>265</ele>
        <time>2018-02-20T10:49:30.000Z</time>
      </trkpt>
      <trkpt lat="43.53632" lon="5.52325">
        <ele>265</ele>
        <time>2018-02-20T10:49:31.000Z</time>
      </trkpt>
      <trkpt lat="43.53631" lon="5.52324">
        <ele>265</ele>
        <time>2018-02-20T10:49:32.000Z</time>
      </trkpt>
      <trkpt lat="43.53631" lon="5.52323">
        <ele>265</ele>
        <time>2018-02-20T10:49:33.000Z</time>
      </trkpt>
      <trkpt lat="43.5363" lon="5.52321">
        <ele>265</ele>
        <time>2018-02-20T10:49:34.000Z</time>
      </trkpt>
      <trkpt lat="43.53629" lon="5.5232">
        <ele>265</ele>
        <time>2018-02-20T10:49:35.000Z</time>
      </trkpt>
      <trkpt lat="43.53628" lon="5.52319">
        <ele>265</ele>
        <time>2018-02-20T10:49:36.000Z</time>
      </trkpt>
      <trkpt lat="43.53628" lon="5.52319">
        <ele>265</ele>
        <time>2018-02-20T10:49:37.000Z</time>
      </trkpt>
      <trkpt lat="43.53627" lon="5.52318">
        <ele>265</ele>
        <time>2018-02-20T10:49:38.000Z</time>
      </trkpt>
      <trkpt lat="43.53626" lon="5.52317">
        <ele>265</ele>
        <time>2018-02-20T10:49:39.000Z</time>
      </trkpt>
      <trkpt lat="43.53625" lon="5.52316">
        <ele>265</ele>
        <time>2018-02-20T10:49:40.000Z</time>
      </trkpt>
      <trkpt lat="43.53624" lon="5.52315">
        <ele>265</ele>
        <time>2018-02-20T10:49:41.000Z</time>
      </trkpt>
      <trkpt lat="43.53624" lon="5.52314">
        <ele>265</ele>
        <time>2018-02-20T10:49:42.000Z</time>
      </trkpt>
      <trkpt lat="43.53623" lon="5.52313">
        <ele>265</ele>
        <time>2018-02-20T10:49:43.000Z</time>
      </trkpt>
      <trkpt lat="43.53622" lon="5.52312">
        <ele>265</ele>
        <time>2018-02-20T10:49:44.000Z</time>
      </trkpt>
      <trkpt lat="43.53621" lon="5.52312">
        <ele>265</ele>
        <time>2018-02-20T10:49:45.000Z</time>
      </trkpt>
      <trkpt lat="43.5362" lon="5.52311">
        <ele>265</ele>
        <time>2018-02-20T10:49:46.000Z</time>
      </trkpt>
      <trkpt lat="43.53619" lon="5.5231">
        <ele>265</ele>
        <time>2018-02-20T10:49:47.000Z</time>
      </trkpt>
      <trkpt lat="43.53618" lon="5.5231">
        <ele>265</ele>
        <time>2018-02-20T10:49:48.000Z</time>
      </trkpt>
      <trkpt lat="43.53618" lon="5.52309">
        <ele>265</ele>
        <time>2018-02-20T10:49:49.000Z</time>
      </trkpt>
      <trkpt lat="43.53617" lon="5.52308">
        <ele>265</ele>
        <time>2018-02-20T10:49:50.000Z</time>
      </trkpt>
      <trkpt lat="43.53617" lon="5.52308">
        <ele>265</ele>
        <time>2018-02-20T10:49:51.000Z</time>
      </trkpt>
      <trkpt lat="43.53617" lon="5.52308">
        <ele>265</ele>
        <time>2018-02-20T10:49:52.000Z</time>
      </trkpt>
      <trkpt lat="43.53617" lon="5.52308">
        <ele>265</ele>
        <time>2018-02-20T10:49:53.000Z</time>
      </trkpt>
      <trkpt lat="43.53617" lon="5.52308">
        <ele>265</ele>
        <time>2018-02-20T10:49:54.000Z</time>
      </trkpt>
      <trkpt lat="43.53617" lon="5.52308">
        <ele>265</ele>
        <time>2018-02-20T10:49:55.000Z</time>
      </trkpt>
      <trkpt lat="43.53617" lon="5.52308">
        <ele>265</ele>
        <time>2018-02-20T10:49:56.000Z</time>
      </trkpt>
      <trkpt lat="43.53617" lon="5.52308">
        <ele>265</ele>
        <time>2018-02-20T10:49:57.000Z</time>
      </trkpt>
      <trkpt lat="43.53617" lon="5.52308">
        <ele>265</ele>
        <time>2018-02-20T10:49:58.000Z</time>
      </trkpt>
      <trkpt lat="43.53617" lon="5.52308">
        <ele>265</ele>
        <time>2018-02-20T10:49:59.000Z</time>
      </trkpt>
      <trkpt lat="43.53617" lon="5.52308">
        <ele>265</ele>
        <time>2018-02-20T10:50:00.000Z</time>
      </trkpt>
      <trkpt lat="43.53617" lon="5.52308">
        <ele>265</ele>
        <time>2018-02-20T10:50:01.000Z</time>
      </trkpt>
      <trkpt lat="43.53617" lon="5.52308">
        <ele>265</ele>
        <time>2018-02-20T10:50:02.000Z</time>
      </trkpt>
      <trkpt lat="43.53616" lon="5.52308">
        <ele>265</ele>
        <time>2018-02-20T10:50:03.000Z</time>
      </trkpt>
      <trkpt lat="43.53616" lon="5.52308">
        <ele>265</ele>
        <time>2018-02-20T10:50:04.000Z</time>
      </trkpt>
      <trkpt lat="43.53616" lon="5.52308">
        <ele>265</ele>
        <time>2018-02-20T10:50:05.000Z</time>
      </trkpt>
      <trkpt lat="43.53616" lon="5.52308">
        <ele>264</ele>
        <time>2018-02-20T10:50:06.000Z</time>
      </trkpt>
      <trkpt lat="43.53616" lon="5.52308">
        <ele>264</ele>
        <time>2018-02-20T10:50:07.000Z</time>
      </trkpt>
      <trkpt lat="43.53616" lon="5.52308">
        <ele>264</ele>
        <time>2018-02-20T10:50:08.000Z</time>
      </trkpt>
      <trkpt lat="43.53616" lon="5.52308">
        <ele>264</ele>
        <time>2018-02-20T10:50:09.000Z</time>
      </trkpt>
      <trkpt lat="43.53616" lon="5.52308">
        <ele>264</ele>
        <time>2018-02-20T10:50:10.000Z</time>
      </trkpt>
      <trkpt lat="43.53616" lon="5.52308">
        <ele>264</ele>
        <time>2018-02-20T10:50:11.000Z</time>
      </trkpt>
      <trkpt lat="43.53616" lon="5.52307">
        <ele>264</ele>
        <time>2018-02-20T10:50:12.000Z</time>
      </trkpt>
      <trkpt lat="43.53616" lon="5.52307">
        <ele>264</ele>
        <time>2018-02-20T10:50:13.000Z</time>
      </trkpt>
      <trkpt lat="43.53616" lon="5.52307">
        <ele>264</ele>
        <time>2018-02-20T10:50:14.000Z</time>
      </trkpt>
      <trkpt lat="43.53616" lon="5.52307">
        <ele>265</ele>
        <time>2018-02-20T10:50:15.000Z</time>
      </trkpt>
      <trkpt lat="43.53616" lon="5.52307">
        <ele>265</ele>
        <time>2018-02-20T10:50:16.000Z</time>
      </trkpt>
      <trkpt lat="43.53616" lon="5.52307">
        <ele>265</ele>
        <time>2018-02-20T10:50:17.000Z</time>
      </trkpt>
      <trkpt lat="43.53616" lon="5.52307">
        <ele>265</ele>
        <time>2018-02-20T10:50:18.000Z</time>
      </trkpt>
      <trkpt lat="43.53616" lon="5.52307">
        <ele>265</ele>
        <time>2018-02-20T10:50:19.000Z</time>
      </trkpt>
      <trkpt lat="43.53616" lon="5.52307">
        <ele>265</ele>
        <time>2018-02-20T10:50:20.000Z</time>
      </trkpt>
      <trkpt lat="43.53616" lon="5.52307">
        <ele>265</ele>
        <time>2018-02-20T10:50:21.000Z</time>
      </trkpt>
      <trkpt lat="43.53616" lon="5.52307">
        <ele>265</ele>
        <time>2018-02-20T10:50:22.000Z</time>
      </trkpt>
      <trkpt lat="43.53615" lon="5.52307">
        <ele>265</ele>
        <time>2018-02-20T10:50:23.000Z</time>
      </trkpt>
      <trkpt lat="43.53615" lon="5.52307">
        <ele>265</ele>
        <time>2018-02-20T10:50:24.000Z</time>
      </trkpt>
      <trkpt lat="43.53615" lon="5.52307">
        <ele>265</ele>
        <time>2018-02-20T10:50:25.000Z</time>
      </trkpt>
      <trkpt lat="43.53615" lon="5.52307">
        <ele>265</ele>
        <time>2018-02-20T10:50:26.000Z</time>
      </trkpt>
      <trkpt lat="43.53615" lon="5.52307">
        <ele>265</ele>
        <time>2018-02-20T10:50:27.000Z</time>
      </trkpt>
      <trkpt lat="43.53615" lon="5.52307">
        <ele>265</ele>
        <time>2018-02-20T10:50:28.000Z</time>
      </trkpt>
      <trkpt lat="43.53615" lon="5.52307">
        <ele>265</ele>
        <time>2018-02-20T10:50:29.000Z</time>
      </trkpt>
      <trkpt lat="43.53615" lon="5.52307">
        <ele>265</ele>
        <time>2018-02-20T10:50:30.000Z</time>
      </trkpt>
      <trkpt lat="43.53615" lon="5.52307">
        <ele>265</ele>
        <time>2018-02-20T10:50:31.000Z</time>
      </trkpt>
      <trkpt lat="43.53615" lon="5.52307">
        <ele>265</ele>
        <time>2018-02-20T10:50:32.000Z</time>
      </trkpt>
      <trkpt lat="43.53615" lon="5.52306">
        <ele>265</ele>
        <time>2018-02-20T10:50:33.000Z</time>
      </trkpt>
      <trkpt lat="43.53615" lon="5.52306">
        <ele>265</ele>
        <time>2018-02-20T10:50:34.000Z</time>
      </trkpt>
      <trkpt lat="43.53615" lon="5.52306">
        <ele>265</ele>
        <time>2018-02-20T10:50:35.000Z</time>
      </trkpt>
      <trkpt lat="43.53615" lon="5.52306">
        <ele>265</ele>
        <time>2018-02-20T10:50:36.000Z</time>
      </trkpt>
      <trkpt lat="43.53615" lon="5.52306">
        <ele>265</ele>
        <time>2018-02-20T10:50:37.000Z</time>
      </trkpt>
      <trkpt lat="43.53615" lon="5.52306">
        <ele>265</ele>
        <time>2018-02-20T10:50:38.000Z</time>
      </trkpt>
      <trkpt lat="43.53615" lon="5.52306">
        <ele>265</ele>
        <time>2018-02-20T10:50:39.000Z</time>
      </trkpt>
      <trkpt lat="43.53615" lon="5.52306">
        <ele>265</ele>
        <time>2018-02-20T10:50:40.000Z</time>
      </trkpt>
      <trkpt lat="43.53615" lon="5.52306">
        <ele>265</ele>
        <time>2018-02-20T10:50:41.000Z</time>
      </trkpt>
      <trkpt lat="43.53615" lon="5.52306">
        <ele>265</ele>
        <time>2018-02-20T10:50:42.000Z</time>
      </trkpt>
      <trkpt lat="43.53615" lon="5.52306">
        <ele>265</ele>
        <time>2018-02-20T10:50:43.000Z</time>
      </trkpt>
      <trkpt lat="43.53615" lon="5.52306">
        <ele>265</ele>
        <time>2018-02-20T10:50:44.000Z</time>
      </trkpt>
      <trkpt lat="43.53615" lon="5.52306">
        <ele>265</ele>
        <time>2018-02-20T10:50:45.000Z</time>
      </trkpt>
      <trkpt lat="43.53614" lon="5.52306">
        <ele>265</ele>
        <time>2018-02-20T10:50:46.000Z</time>
      </trkpt>
      <trkpt lat="43.53614" lon="5.52306">
        <ele>265</ele>
        <time>2018-02-20T10:50:47.000Z</time>
      </trkpt>
      <trkpt lat="43.53614" lon="5.52306">
        <ele>265</ele>
        <time>2018-02-20T10:50:48.000Z</time>
      </trkpt>
      <trkpt lat="43.53614" lon="5.52305">
        <ele>265</ele>
        <time>2018-02-20T10:50:49.000Z</time>
      </trkpt>
      <trkpt lat="43.53614" lon="5.52305">
        <ele>265</ele>
        <time>2018-02-20T10:50:50.000Z</time>
      </trkpt>
      <trkpt lat="43.53614" lon="5.52305">
        <ele>265</ele>
        <time>2018-02-20T10:50:51.000Z</time>
      </trkpt>
      <trkpt lat="43.53614" lon="5.52305">
        <ele>265</ele>
        <time>2018-02-20T10:50:52.000Z</time>
      </trkpt>
      <trkpt lat="43.53614" lon="5.52305">
        <ele>265</ele>
        <time>2018-02-20T10:50:53.000Z</time>
      </trkpt>
      <trkpt lat="43.53614" lon="5.52306">
        <ele>265</ele>
        <time>2018-02-20T10:50:54.000Z</time>
      </trkpt>
      <trkpt lat="43.53614" lon="5.52306">
        <ele>265</ele>
        <time>2018-02-20T10:50:55.000Z</time>
      </trkpt>
      <trkpt lat="43.53614" lon="5.52306">
        <ele>265</ele>
        <time>2018-02-20T10:50:56.000Z</time>
      </trkpt>
      <trkpt lat="43.53614" lon="5.52306">
        <ele>265</ele>
        <time>2018-02-20T10:50:57.000Z</time>
      </trkpt>
      <trkpt lat="43.53614" lon="5.52306">
        <ele>265</ele>
        <time>2018-02-20T10:50:58.000Z</time>
      </trkpt>
      <trkpt lat="43.53614" lon="5.52306">
        <ele>265</ele>
        <time>2018-02-20T10:50:59.000Z</time>
      </trkpt>
      <trkpt lat="43.53614" lon="5.52306">
        <ele>265</ele>
        <time>2018-02-20T10:51:00.000Z</time>
      </trkpt>
      <trkpt lat="43.53615" lon="5.52306">
        <ele>265</ele>
        <time>2018-02-20T10:51:01.000Z</time>
      </trkpt>
      <trkpt lat="43.53615" lon="5.52306">
        <ele>265</ele>
        <time>2018-02-20T10:51:02.000Z</time>
      </trkpt>
      <trkpt lat="43.53614" lon="5.52306">
        <ele>264</ele>
        <time>2018-02-20T10:51:03.000Z</time>
      </trkpt>
      <trkpt lat="43.53614" lon="5.52306">
        <ele>265</ele>
        <time>2018-02-20T10:51:04.000Z</time>
      </trkpt>
      <trkpt lat="43.53614" lon="5.52306">
        <ele>265</ele>
        <time>2018-02-20T10:51:05.000Z</time>
      </trkpt>
      <trkpt lat="43.53614" lon="5.52306">
        <ele>264</ele>
        <time>2018-02-20T10:51:06.000Z</time>
      </trkpt>
      <trkpt lat="43.53614" lon="5.52305">
        <ele>264</ele>
        <time>2018-02-20T10:51:07.000Z</time>
      </trkpt>
      <trkpt lat="43.53613" lon="5.52305">
        <ele>264</ele>
        <time>2018-02-20T10:51:08.000Z</time>
      </trkpt>
      <trkpt lat="43.53613" lon="5.52305">
        <ele>264</ele>
        <time>2018-02-20T10:51:09.000Z</time>
      </trkpt>
      <trkpt lat="43.53613" lon="5.52305">
        <ele>264</ele>
        <time>2018-02-20T10:51:10.000Z</time>
      </trkpt>
      <trkpt lat="43.53613" lon="5.52305">
        <ele>264</ele>
        <time>2018-02-20T10:51:11.000Z</time>
      </trkpt>
      <trkpt lat="43.53613" lon="5.52305">
        <ele>264</ele>
        <time>2018-02-20T10:51:12.000Z</time>
      </trkpt>
      <trkpt lat="43.53613" lon="5.52305">
        <ele>264</ele>
        <time>2018-02-20T10:51:13.000Z</time>
      </trkpt>
      <trkpt lat="43.53613" lon="5.52305">
        <ele>264</ele>
        <time>2018-02-20T10:51:14.000Z</time>
      </trkpt>
      <trkpt lat="43.53614" lon="5.52305">
        <ele>264</ele>
        <time>2018-02-20T10:51:15.000Z</time>
      </trkpt>
      <trkpt lat="43.53614" lon="5.52305">
        <ele>264</ele>
        <time>2018-02-20T10:51:16.000Z</time>
      </trkpt>
      <trkpt lat="43.53614" lon="5.52305">
        <ele>264</ele>
        <time>2018-02-20T10:51:17.000Z</time>
      </trkpt>
      <trkpt lat="43.53614" lon="5.52305">
        <ele>264</ele>
        <time>2018-02-20T10:51:18.000Z</time>
      </trkpt>
      <trkpt lat="43.53614" lon="5.52305">
        <ele>264</ele>
        <time>2018-02-20T10:51:19.000Z</time>
      </trkpt>
      <trkpt lat="43.53614" lon="5.52305">
        <ele>264</ele>
        <time>2018-02-20T10:51:20.000Z</time>
      </trkpt>
      <trkpt lat="43.53614" lon="5.52305">
        <ele>264</ele>
        <time>2018-02-20T10:51:21.000Z</time>
      </trkpt>
      <trkpt lat="43.53614" lon="5.52305">
        <ele>264</ele>
        <time>2018-02-20T10:51:22.000Z</time>
      </trkpt>
      <trkpt lat="43.53614" lon="5.52305">
        <ele>264</ele>
        <time>2018-02-20T10:51:23.000Z</time>
      </trkpt>
      <trkpt lat="43.53614" lon="5.52305">
        <ele>264</ele>
        <time>2018-02-20T10:51:24.000Z</time>
      </trkpt>
      <trkpt lat="43.53614" lon="5.52305">
        <ele>264</ele>
        <time>2018-02-20T10:51:25.000Z</time>
      </trkpt>
      <trkpt lat="43.53614" lon="5.52304">
        <ele>264</ele>
        <time>2018-02-20T10:51:26.000Z</time>
      </trkpt>
      <trkpt lat="43.53614" lon="5.52304">
        <ele>264</ele>
        <time>2018-02-20T10:51:27.000Z</time>
      </trkpt>
      <trkpt lat="43.53614" lon="5.52304">
        <ele>264</ele>
        <time>2018-02-20T10:51:28.000Z</time>
      </trkpt>
      <trkpt lat="43.53614" lon="5.52304">
        <ele>264</ele>
        <time>2018-02-20T10:51:29.000Z</time>
      </trkpt>
      <trkpt lat="43.53614" lon="5.52304">
        <ele>264</ele>
        <time>2018-02-20T10:51:30.000Z</time>
      </trkpt>
      <trkpt lat="43.53614" lon="5.52304">
        <ele>264</ele>
        <time>2018-02-20T10:51:31.000Z</time>
      </trkpt>
      <trkpt lat="43.53614" lon="5.52304">
        <ele>264</ele>
        <time>2018-02-20T10:51:32.000Z</time>
      </trkpt>
      <trkpt lat="43.53614" lon="5.52305">
        <ele>264</ele>
        <time>2018-02-20T10:51:33.000Z</time>
      </trkpt>
      <trkpt lat="43.53614" lon="5.52305">
        <ele>264</ele>
        <time>2018-02-20T10:51:34.000Z</time>
      </trkpt>
      <trkpt lat="43.53615" lon="5.52305">
        <ele>264</ele>
        <time>2018-02-20T10:51:35.000Z</time>
      </trkpt>
      <trkpt lat="43.53614" lon="5.52305">
        <ele>264</ele>
        <time>2018-02-20T10:51:36.000Z</time>
      </trkpt>
      <trkpt lat="43.53614" lon="5.52305">
        <ele>264</ele>
        <time>2018-02-20T10:51:37.000Z</time>
      </trkpt>
      <trkpt lat="43.53614" lon="5.52305">
        <ele>264</ele>
        <time>2018-02-20T10:51:38.000Z</time>
      </trkpt>
      <trkpt lat="43.53615" lon="5.52305">
        <ele>264</ele>
        <time>2018-02-20T10:51:39.000Z</time>
      </trkpt>
      <trkpt lat="43.53615" lon="5.52305">
        <ele>264</ele>
        <time>2018-02-20T10:51:40.000Z</time>
      </trkpt>
      <trkpt lat="43.53615" lon="5.52304">
        <ele>264</ele>
        <time>2018-02-20T10:51:41.000Z</time>
      </trkpt>
      <trkpt lat="43.53616" lon="5.52304">
        <ele>264</ele>
        <time>2018-02-20T10:51:42.000Z</time>
      </trkpt>
      <trkpt lat="43.53616" lon="5.52303">
        <ele>264</ele>
        <time>2018-02-20T10:51:43.000Z</time>
      </trkpt>
      <trkpt lat="43.53617" lon="5.52302">
        <ele>264</ele>
        <time>2018-02-20T10:51:44.000Z</time>
      </trkpt>
      <trkpt lat="43.53618" lon="5.52302">
        <ele>264</ele>
        <time>2018-02-20T10:51:45.000Z</time>
      </trkpt>
      <trkpt lat="43.53618" lon="5.52301">
        <ele>264</ele>
        <time>2018-02-20T10:51:46.000Z</time>
      </trkpt>
      <trkpt lat="43.53619" lon="5.52301">
        <ele>264</ele>
        <time>2018-02-20T10:51:47.000Z</time>
      </trkpt>
      <trkpt lat="43.53619" lon="5.523">
        <ele>265</ele>
        <time>2018-02-20T10:51:48.000Z</time>
      </trkpt>
      <trkpt lat="43.5362" lon="5.523">
        <ele>265</ele>
        <time>2018-02-20T10:51:49.000Z</time>
      </trkpt>
      <trkpt lat="43.5362" lon="5.52299">
        <ele>265</ele>
        <time>2018-02-20T10:51:50.000Z</time>
      </trkpt>
      <trkpt lat="43.5362" lon="5.52299">
        <ele>265</ele>
        <time>2018-02-20T10:51:51.000Z</time>
      </trkpt>
      <trkpt lat="43.5362" lon="5.52298">
        <ele>265</ele>
        <time>2018-02-20T10:51:52.000Z</time>
      </trkpt>
      <trkpt lat="43.5362" lon="5.52298">
        <ele>265</ele>
        <time>2018-02-20T10:51:53.000Z</time>
      </trkpt>
      <trkpt lat="43.5362" lon="5.52298">
        <ele>265</ele>
        <time>2018-02-20T10:51:54.000Z</time>
      </trkpt>
      <trkpt lat="43.53619" lon="5.52297">
        <ele>265</ele>
        <time>2018-02-20T10:51:55.000Z</time>
      </trkpt>
      <trkpt lat="43.53619" lon="5.52297">
        <ele>265</ele>
        <time>2018-02-20T10:51:56.000Z</time>
      </trkpt>
      <trkpt lat="43.53619" lon="5.52296">
        <ele>265</ele>
        <time>2018-02-20T10:51:57.000Z</time>
      </trkpt>
      <trkpt lat="43.53618" lon="5.52296">
        <ele>265</ele>
        <time>2018-02-20T10:51:58.000Z</time>
      </trkpt>
      <trkpt lat="43.53618" lon="5.52294">
        <ele>265</ele>
        <time>2018-02-20T10:51:59.000Z</time>
      </trkpt>
      <trkpt lat="43.53618" lon="5.52293">
        <ele>265</ele>
        <time>2018-02-20T10:52:00.000Z</time>
      </trkpt>
      <trkpt lat="43.53618" lon="5.52293">
        <ele>265</ele>
        <time>2018-02-20T10:52:01.000Z</time>
      </trkpt>
      <trkpt lat="43.53618" lon="5.52292">
        <ele>265</ele>
        <time>2018-02-20T10:52:02.000Z</time>
      </trkpt>
      <trkpt lat="43.53618" lon="5.52291">
        <ele>265</ele>
        <time>2018-02-20T10:52:03.000Z</time>
      </trkpt>
      <trkpt lat="43.53618" lon="5.52289">
        <ele>265</ele>
        <time>2018-02-20T10:52:04.000Z</time>
      </trkpt>
      <trkpt lat="43.53618" lon="5.52287">
        <ele>265</ele>
        <time>2018-02-20T10:52:05.000Z</time>
      </trkpt>
      <trkpt lat="43.53619" lon="5.52285">
        <ele>265</ele>
        <time>2018-02-20T10:52:06.000Z</time>
      </trkpt>
      <trkpt lat="43.53619" lon="5.52285">
        <ele>265</ele>
        <time>2018-02-20T10:52:07.000Z</time>
      </trkpt>
      <trkpt lat="43.53619" lon="5.52284">
        <ele>265</ele>
        <time>2018-02-20T10:52:08.000Z</time>
      </trkpt>
      <trkpt lat="43.53619" lon="5.52283">
        <ele>265</ele>
        <time>2018-02-20T10:52:09.000Z</time>
      </trkpt>
      <trkpt lat="43.5362" lon="5.52282">
        <ele>265</ele>
        <time>2018-02-20T10:52:10.000Z</time>
      </trkpt>
      <trkpt lat="43.5362" lon="5.52281">
        <ele>266</ele>
        <time>2018-02-20T10:52:11.000Z</time>
      </trkpt>
      <trkpt lat="43.53621" lon="5.52279">
        <ele>266</ele>
        <time>2018-02-20T10:52:12.000Z</time>
      </trkpt>
      <trkpt lat="43.53621" lon="5.52278">
        <ele>266</ele>
        <time>2018-02-20T10:52:13.000Z</time>
      </trkpt>
      <trkpt lat="43.53622" lon="5.52277">
        <ele>266</ele>
        <time>2018-02-20T10:52:14.000Z</time>
      </trkpt>
      <trkpt lat="43.53622" lon="5.52277">
        <ele>266</ele>
        <time>2018-02-20T10:52:15.000Z</time>
      </trkpt>
      <trkpt lat="43.53622" lon="5.52277">
        <ele>266</ele>
        <time>2018-02-20T10:52:16.000Z</time>
      </trkpt>
      <trkpt lat="43.53622" lon="5.52277">
        <ele>266</ele>
        <time>2018-02-20T10:52:17.000Z</time>
      </trkpt>
      <trkpt lat="43.53623" lon="5.52276">
        <ele>266</ele>
        <time>2018-02-20T10:52:18.000Z</time>
      </trkpt>
      <trkpt lat="43.53623" lon="5.52276">
        <ele>266</ele>
        <time>2018-02-20T10:52:19.000Z</time>
      </trkpt>
      <trkpt lat="43.53624" lon="5.52275">
        <ele>266</ele>
        <time>2018-02-20T10:52:20.000Z</time>
      </trkpt>
      <trkpt lat="43.53625" lon="5.52274">
        <ele>266</ele>
        <time>2018-02-20T10:52:21.000Z</time>
      </trkpt>
      <trkpt lat="43.53626" lon="5.52273">
        <ele>266</ele>
        <time>2018-02-20T10:52:22.000Z</time>
      </trkpt>
      <trkpt lat="43.53627" lon="5.52273">
        <ele>266</ele>
        <time>2018-02-20T10:52:23.000Z</time>
      </trkpt>
      <trkpt lat="43.53628" lon="5.52273">
        <ele>266</ele>
        <time>2018-02-20T10:52:24.000Z</time>
      </trkpt>
      <trkpt lat="43.53628" lon="5.52272">
        <ele>266</ele>
        <time>2018-02-20T10:52:25.000Z</time>
      </trkpt>
      <trkpt lat="43.53629" lon="5.52272">
        <ele>266</ele>
        <time>2018-02-20T10:52:26.000Z</time>
      </trkpt>
      <trkpt lat="43.5363" lon="5.52272">
        <ele>267</ele>
        <time>2018-02-20T10:52:27.000Z</time>
      </trkpt>
      <trkpt lat="43.5363" lon="5.52271">
        <ele>267</ele>
        <time>2018-02-20T10:52:28.000Z</time>
      </trkpt>
      <trkpt lat="43.53631" lon="5.5227">
        <ele>267</ele>
        <time>2018-02-20T10:52:29.000Z</time>
      </trkpt>
      <trkpt lat="43.53631" lon="5.5227">
        <ele>267</ele>
        <time>2018-02-20T10:52:30.000Z</time>
      </trkpt>
      <trkpt lat="43.53631" lon="5.52269">
        <ele>267</ele>
        <time>2018-02-20T10:52:31.000Z</time>
      </trkpt>
      <trkpt lat="43.53632" lon="5.52268">
        <ele>267</ele>
        <time>2018-02-20T10:52:32.000Z</time>
      </trkpt>
      <trkpt lat="43.53632" lon="5.52267">
        <ele>267</ele>
        <time>2018-02-20T10:52:33.000Z</time>
      </trkpt>
      <trkpt lat="43.53632" lon="5.52266">
        <ele>267</ele>
        <time>2018-02-20T10:52:34.000Z</time>
      </trkpt>
      <trkpt lat="43.53632" lon="5.52266">
        <ele>267</ele>
        <time>2018-02-20T10:52:35.000Z</time>
      </trkpt>
      <trkpt lat="43.53632" lon="5.52265">
        <ele>267</ele>
        <time>2018-02-20T10:52:36.000Z</time>
      </trkpt>
      <trkpt lat="43.53633" lon="5.52264">
        <ele>267</ele>
        <time>2018-02-20T10:52:37.000Z</time>
      </trkpt>
      <trkpt lat="43.53633" lon="5.52263">
        <ele>268</ele>
        <time>2018-02-20T10:52:38.000Z</time>
      </trkpt>
      <trkpt lat="43.53633" lon="5.52262">
        <ele>268</ele>
        <time>2018-02-20T10:52:39.000Z</time>
      </trkpt>
      <trkpt lat="43.53633" lon="5.52261">
        <ele>268</ele>
        <time>2018-02-20T10:52:40.000Z</time>
      </trkpt>
      <trkpt lat="43.53633" lon="5.52261">
        <ele>268</ele>
        <time>2018-02-20T10:52:41.000Z</time>
      </trkpt>
      <trkpt lat="43.53634" lon="5.5226">
        <ele>268</ele>
        <time>2018-02-20T10:52:42.000Z</time>
      </trkpt>
      <trkpt lat="43.53634" lon="5.52259">
        <ele>269</ele>
        <time>2018-02-20T10:52:43.000Z</time>
      </trkpt>
      <trkpt lat="43.53634" lon="5.52259">
        <ele>269</ele>
        <time>2018-02-20T10:52:44.000Z</time>
      </trkpt>
      <trkpt lat="43.53634" lon="5.52258">
        <ele>269</ele>
        <time>2018-02-20T10:52:45.000Z</time>
      </trkpt>
      <trkpt lat="43.53634" lon="5.52257">
        <ele>269</ele>
        <time>2018-02-20T10:52:46.000Z</time>
      </trkpt>
      <trkpt lat="43.53635" lon="5.52257">
        <ele>269</ele>
        <time>2018-02-20T10:52:47.000Z</time>
      </trkpt>
      <trkpt lat="43.53635" lon="5.52257">
        <ele>269</ele>
        <time>2018-02-20T10:52:48.000Z</time>
      </trkpt>
      <trkpt lat="43.53635" lon="5.52256">
        <ele>269</ele>
        <time>2018-02-20T10:52:49.000Z</time>
      </trkpt>
      <trkpt lat="43.53636" lon="5.52256">
        <ele>270</ele>
        <time>2018-02-20T10:52:50.000Z</time>
      </trkpt>
      <trkpt lat="43.53636" lon="5.52256">
        <ele>270</ele>
        <time>2018-02-20T10:52:51.000Z</time>
      </trkpt>
      <trkpt lat="43.53637" lon="5.52256">
        <ele>270</ele>
        <time>2018-02-20T10:52:52.000Z</time>
      </trkpt>
      <trkpt lat="43.53637" lon="5.52255">
        <ele>270</ele>
        <time>2018-02-20T10:52:53.000Z</time>
      </trkpt>
      <trkpt lat="43.53638" lon="5.52255">
        <ele>271</ele>
        <time>2018-02-20T10:52:54.000Z</time>
      </trkpt>
      <trkpt lat="43.53638" lon="5.52255">
        <ele>271</ele>
        <time>2018-02-20T10:52:55.000Z</time>
      </trkpt>
      <trkpt lat="43.53638" lon="5.52254">
        <ele>271</ele>
        <time>2018-02-20T10:52:56.000Z</time>
      </trkpt>
      <trkpt lat="43.53638" lon="5.52254">
        <ele>271</ele>
        <time>2018-02-20T10:52:57.000Z</time>
      </trkpt>
      <trkpt lat="43.53638" lon="5.52254">
        <ele>271</ele>
        <time>2018-02-20T10:52:58.000Z</time>
      </trkpt>
      <trkpt lat="43.53638" lon="5.52254">
        <ele>272</ele>
        <time>2018-02-20T10:52:59.000Z</time>
      </trkpt>
      <trkpt lat="43.53638" lon="5.52254">
        <ele>272</ele>
        <time>2018-02-20T10:53:00.000Z</time>
      </trkpt>
      <trkpt lat="43.53638" lon="5.52254">
        <ele>272</ele>
        <time>2018-02-20T10:53:01.000Z</time>
      </trkpt>
      <trkpt lat="43.53638" lon="5.52254">
        <ele>272</ele>
        <time>2018-02-20T10:53:02.000Z</time>
      </trkpt>
      <trkpt lat="43.53638" lon="5.52254">
        <ele>272</ele>
        <time>2018-02-20T10:53:03.000Z</time>
      </trkpt>
      <trkpt lat="43.53638" lon="5.52254">
        <ele>272</ele>
        <time>2018-02-20T10:53:04.000Z</time>
      </trkpt>
      <trkpt lat="43.53638" lon="5.52253">
        <ele>272</ele>
        <time>2018-02-20T10:53:05.000Z</time>
      </trkpt>
      <trkpt lat="43.53639" lon="5.52253">
        <ele>272</ele>
        <time>2018-02-20T10:53:06.000Z</time>
      </trkpt>
      <trkpt lat="43.53638" lon="5.52253">
        <ele>272</ele>
        <time>2018-02-20T10:53:07.000Z</time>
      </trkpt>
      <trkpt lat="43.53638" lon="5.52253">
        <ele>272</ele>
        <time>2018-02-20T10:53:08.000Z</time>
      </trkpt>
      <trkpt lat="43.53639" lon="5.52252">
        <ele>273</ele>
        <time>2018-02-20T10:53:09.000Z</time>
      </trkpt>
      <trkpt lat="43.53639" lon="5.52252">
        <ele>273</ele>
        <time>2018-02-20T10:53:10.000Z</time>
      </trkpt>
      <trkpt lat="43.53639" lon="5.52252">
        <ele>273</ele>
        <time>2018-02-20T10:53:11.000Z</time>
      </trkpt>
      <trkpt lat="43.53639" lon="5.52252">
        <ele>273</ele>
        <time>2018-02-20T10:53:12.000Z</time>
      </trkpt>
      <trkpt lat="43.53639" lon="5.52251">
        <ele>273</ele>
        <time>2018-02-20T10:53:13.000Z</time>
      </trkpt>
      <trkpt lat="43.53639" lon="5.52251">
        <ele>273</ele>
        <time>2018-02-20T10:53:14.000Z</time>
      </trkpt>
      <trkpt lat="43.5364" lon="5.52251">
        <ele>273</ele>
        <time>2018-02-20T10:53:15.000Z</time>
      </trkpt>
      <trkpt lat="43.5364" lon="5.52251">
        <ele>273</ele>
        <time>2018-02-20T10:53:16.000Z</time>
      </trkpt>
      <trkpt lat="43.53641" lon="5.52251">
        <ele>273</ele>
        <time>2018-02-20T10:53:17.000Z</time>
      </trkpt>
      <trkpt lat="43.53641" lon="5.52252">
        <ele>274</ele>
        <time>2018-02-20T10:53:18.000Z</time>
      </trkpt>
      <trkpt lat="43.53642" lon="5.52252">
        <ele>274</ele>
        <time>2018-02-20T10:53:19.000Z</time>
      </trkpt>
      <trkpt lat="43.53642" lon="5.52252">
        <ele>274</ele>
        <time>2018-02-20T10:53:20.000Z</time>
      </trkpt>
      <trkpt lat="43.53642" lon="5.52252">
        <ele>274</ele>
        <time>2018-02-20T10:53:21.000Z</time>
      </trkpt>
      <trkpt lat="43.53642" lon="5.52252">
        <ele>274</ele>
        <time>2018-02-20T10:53:22.000Z</time>
      </trkpt>
      <trkpt lat="43.53642" lon="5.52252">
        <ele>274</ele>
        <time>2018-02-20T10:53:23.000Z</time>
      </trkpt>
      <trkpt lat="43.53642" lon="5.52251">
        <ele>274</ele>
        <time>2018-02-20T10:53:24.000Z</time>
      </trkpt>
      <trkpt lat="43.53642" lon="5.5225">
        <ele>274</ele>
        <time>2018-02-20T10:53:25.000Z</time>
      </trkpt>
      <trkpt lat="43.53642" lon="5.5225">
        <ele>274</ele>
        <time>2018-02-20T10:53:26.000Z</time>
      </trkpt>
      <trkpt lat="43.53642" lon="5.52249">
        <ele>274</ele>
        <time>2018-02-20T10:53:27.000Z</time>
      </trkpt>
      <trkpt lat="43.53642" lon="5.52248">
        <ele>274</ele>
        <time>2018-02-20T10:53:28.000Z</time>
      </trkpt>
      <trkpt lat="43.53642" lon="5.52247">
        <ele>274</ele>
        <time>2018-02-20T10:53:29.000Z</time>
      </trkpt>
      <trkpt lat="43.53642" lon="5.52246">
        <ele>274</ele>
        <time>2018-02-20T10:53:30.000Z</time>
      </trkpt>
      <trkpt lat="43.53642" lon="5.52246">
        <ele>275</ele>
        <time>2018-02-20T10:53:31.000Z</time>
      </trkpt>
      <trkpt lat="43.53642" lon="5.52245">
        <ele>275</ele>
        <time>2018-02-20T10:53:32.000Z</time>
      </trkpt>
      <trkpt lat="43.53642" lon="5.52244">
        <ele>275</ele>
        <time>2018-02-20T10:53:33.000Z</time>
      </trkpt>
      <trkpt lat="43.53641" lon="5.52243">
        <ele>275</ele>
        <time>2018-02-20T10:53:34.000Z</time>
      </trkpt>
      <trkpt lat="43.53641" lon="5.52242">
        <ele>275</ele>
        <time>2018-02-20T10:53:35.000Z</time>
      </trkpt>
      <trkpt lat="43.53642" lon="5.52241">
        <ele>275</ele>
        <time>2018-02-20T10:53:36.000Z</time>
      </trkpt>
      <trkpt lat="43.53642" lon="5.52241">
        <ele>275</ele>
        <time>2018-02-20T10:53:37.000Z</time>
      </trkpt>
      <trkpt lat="43.53642" lon="5.52241">
        <ele>275</ele>
        <time>2018-02-20T10:53:38.000Z</time>
      </trkpt>
      <trkpt lat="43.53642" lon="5.52241">
        <ele>275</ele>
        <time>2018-02-20T10:53:39.000Z</time>
      </trkpt>
      <trkpt lat="43.53642" lon="5.52241">
        <ele>275</ele>
        <time>2018-02-20T10:53:40.000Z</time>
      </trkpt>
      <trkpt lat="43.53642" lon="5.5224">
        <ele>275</ele>
        <time>2018-02-20T10:53:41.000Z</time>
      </trkpt>
      <trkpt lat="43.53641" lon="5.5224">
        <ele>275</ele>
        <time>2018-02-20T10:53:42.000Z</time>
      </trkpt>
      <trkpt lat="43.53641" lon="5.52239">
        <ele>275</ele>
        <time>2018-02-20T10:53:43.000Z</time>
      </trkpt>
      <trkpt lat="43.53641" lon="5.52238">
        <ele>275</ele>
        <time>2018-02-20T10:53:44.000Z</time>
      </trkpt>
      <trkpt lat="43.53641" lon="5.52237">
        <ele>275</ele>
        <time>2018-02-20T10:53:45.000Z</time>
      </trkpt>
      <trkpt lat="43.53641" lon="5.52236">
        <ele>275</ele>
        <time>2018-02-20T10:53:46.000Z</time>
      </trkpt>
      <trkpt lat="43.5364" lon="5.52236">
        <ele>275</ele>
        <time>2018-02-20T10:53:47.000Z</time>
      </trkpt>
      <trkpt lat="43.5364" lon="5.52234">
        <ele>275</ele>
        <time>2018-02-20T10:53:48.000Z</time>
      </trkpt>
      <trkpt lat="43.5364" lon="5.52234">
        <ele>275</ele>
        <time>2018-02-20T10:53:49.000Z</time>
      </trkpt>
      <trkpt lat="43.5364" lon="5.52232">
        <ele>275</ele>
        <time>2018-02-20T10:53:50.000Z</time>
      </trkpt>
      <trkpt lat="43.5364" lon="5.52231">
        <ele>275</ele>
        <time>2018-02-20T10:53:51.000Z</time>
      </trkpt>
      <trkpt lat="43.5364" lon="5.52231">
        <ele>275</ele>
        <time>2018-02-20T10:53:52.000Z</time>
      </trkpt>
      <trkpt lat="43.5364" lon="5.5223">
        <ele>276</ele>
        <time>2018-02-20T10:53:53.000Z</time>
      </trkpt>
      <trkpt lat="43.53639" lon="5.52229">
        <ele>276</ele>
        <time>2018-02-20T10:53:54.000Z</time>
      </trkpt>
      <trkpt lat="43.53639" lon="5.52228">
        <ele>276</ele>
        <time>2018-02-20T10:53:55.000Z</time>
      </trkpt>
      <trkpt lat="43.5364" lon="5.52228">
        <ele>276</ele>
        <time>2018-02-20T10:53:56.000Z</time>
      </trkpt>
      <trkpt lat="43.5364" lon="5.52227">
        <ele>276</ele>
        <time>2018-02-20T10:53:57.000Z</time>
      </trkpt>
      <trkpt lat="43.5364" lon="5.52227">
        <ele>276</ele>
        <time>2018-02-20T10:53:58.000Z</time>
      </trkpt>
      <trkpt lat="43.5364" lon="5.52227">
        <ele>276</ele>
        <time>2018-02-20T10:53:59.000Z</time>
      </trkpt>
      <trkpt lat="43.53641" lon="5.52227">
        <ele>276</ele>
        <time>2018-02-20T10:54:00.000Z</time>
      </trkpt>
      <trkpt lat="43.53641" lon="5.52227">
        <ele>276</ele>
        <time>2018-02-20T10:54:01.000Z</time>
      </trkpt>
      <trkpt lat="43.53641" lon="5.52227">
        <ele>276</ele>
        <time>2018-02-20T10:54:02.000Z</time>
      </trkpt>
      <trkpt lat="43.53641" lon="5.52227">
        <ele>276</ele>
        <time>2018-02-20T10:54:03.000Z</time>
      </trkpt>
      <trkpt lat="43.53641" lon="5.52226">
        <ele>276</ele>
        <time>2018-02-20T10:54:04.000Z</time>
      </trkpt>
      <trkpt lat="43.53641" lon="5.52226">
        <ele>276</ele>
        <time>2018-02-20T10:54:05.000Z</time>
      </trkpt>
      <trkpt lat="43.53641" lon="5.52225">
        <ele>276</ele>
        <time>2018-02-20T10:54:06.000Z</time>
      </trkpt>
      <trkpt lat="43.53641" lon="5.52224">
        <ele>276</ele>
        <time>2018-02-20T10:54:07.000Z</time>
      </trkpt>
      <trkpt lat="43.53641" lon="5.52224">
        <ele>277</ele>
        <time>2018-02-20T10:54:08.000Z</time>
      </trkpt>
      <trkpt lat="43.53641" lon="5.52223">
        <ele>277</ele>
        <time>2018-02-20T10:54:09.000Z</time>
      </trkpt>
      <trkpt lat="43.53641" lon="5.52223">
        <ele>277</ele>
        <time>2018-02-20T10:54:10.000Z</time>
      </trkpt>
      <trkpt lat="43.53641" lon="5.52222">
        <ele>277</ele>
        <time>2018-02-20T10:54:11.000Z</time>
      </trkpt>
      <trkpt lat="43.53641" lon="5.52221">
        <ele>277</ele>
        <time>2018-02-20T10:54:12.000Z</time>
      </trkpt>
      <trkpt lat="43.53641" lon="5.5222">
        <ele>277</ele>
        <time>2018-02-20T10:54:13.000Z</time>
      </trkpt>
      <trkpt lat="43.53641" lon="5.5222">
        <ele>277</ele>
        <time>2018-02-20T10:54:14.000Z</time>
      </trkpt>
      <trkpt lat="43.53641" lon="5.52219">
        <ele>277</ele>
        <time>2018-02-20T10:54:15.000Z</time>
      </trkpt>
      <trkpt lat="43.53641" lon="5.52219">
        <ele>277</ele>
        <time>2018-02-20T10:54:16.000Z</time>
      </trkpt>
      <trkpt lat="43.53641" lon="5.52218">
        <ele>277</ele>
        <time>2018-02-20T10:54:17.000Z</time>
      </trkpt>
      <trkpt lat="43.53642" lon="5.52218">
        <ele>277</ele>
        <time>2018-02-20T10:54:18.000Z</time>
      </trkpt>
      <trkpt lat="43.53642" lon="5.52218">
        <ele>277</ele>
        <time>2018-02-20T10:54:19.000Z</time>
      </trkpt>
      <trkpt lat="43.53642" lon="5.52217">
        <ele>277</ele>
        <time>2018-02-20T10:54:20.000Z</time>
      </trkpt>
      <trkpt lat="43.53642" lon="5.52216">
        <ele>277</ele>
        <time>2018-02-20T10:54:21.000Z</time>
      </trkpt>
      <trkpt lat="43.53643" lon="5.52215">
        <ele>277</ele>
        <time>2018-02-20T10:54:22.000Z</time>
      </trkpt>
      <trkpt lat="43.53643" lon="5.52216">
        <ele>277</ele>
        <time>2018-02-20T10:54:23.000Z</time>
      </trkpt>
      <trkpt lat="43.53644" lon="5.52216">
        <ele>277</ele>
        <time>2018-02-20T10:54:24.000Z</time>
      </trkpt>
      <trkpt lat="43.53644" lon="5.52216">
        <ele>277</ele>
        <time>2018-02-20T10:54:25.000Z</time>
      </trkpt>
      <trkpt lat="43.53645" lon="5.52217">
        <ele>277</ele>
        <time>2018-02-20T10:54:26.000Z</time>
      </trkpt>
      <trkpt lat="43.53645" lon="5.52218">
        <ele>278</ele>
        <time>2018-02-20T10:54:27.000Z</time>
      </trkpt>
      <trkpt lat="43.53646" lon="5.52219">
        <ele>278</ele>
        <time>2018-02-20T10:54:28.000Z</time>
      </trkpt>
      <trkpt lat="43.53646" lon="5.52219">
        <ele>278</ele>
        <time>2018-02-20T10:54:29.000Z</time>
      </trkpt>
      <trkpt lat="43.53647" lon="5.5222">
        <ele>278</ele>
        <time>2018-02-20T10:54:30.000Z</time>
      </trkpt>
      <trkpt lat="43.53647" lon="5.5222">
        <ele>278</ele>
        <time>2018-02-20T10:54:31.000Z</time>
      </trkpt>
      <trkpt lat="43.53648" lon="5.52221">
        <ele>278</ele>
        <time>2018-02-20T10:54:32.000Z</time>
      </trkpt>
      <trkpt lat="43.53648" lon="5.52221">
        <ele>279</ele>
        <time>2018-02-20T10:54:33.000Z</time>
      </trkpt>
      <trkpt lat="43.53649" lon="5.52222">
        <ele>279</ele>
        <time>2018-02-20T10:54:34.000Z</time>
      </trkpt>
      <trkpt lat="43.53649" lon="5.52222">
        <ele>279</ele>
        <time>2018-02-20T10:54:35.000Z</time>
      </trkpt>
      <trkpt lat="43.53649" lon="5.52222">
        <ele>279</ele>
        <time>2018-02-20T10:54:36.000Z</time>
      </trkpt>
      <trkpt lat="43.53649" lon="5.52222">
        <ele>279</ele>
        <time>2018-02-20T10:54:37.000Z</time>
      </trkpt>
      <trkpt lat="43.53649" lon="5.52221">
        <ele>279</ele>
        <time>2018-02-20T10:54:38.000Z</time>
      </trkpt>
      <trkpt lat="43.53649" lon="5.52221">
        <ele>279</ele>
        <time>2018-02-20T10:54:39.000Z</time>
      </trkpt>
      <trkpt lat="43.5365" lon="5.5222">
        <ele>279</ele>
        <time>2018-02-20T10:54:40.000Z</time>
      </trkpt>
      <trkpt lat="43.5365" lon="5.52219">
        <ele>280</ele>
        <time>2018-02-20T10:54:41.000Z</time>
      </trkpt>
      <trkpt lat="43.53651" lon="5.52219">
        <ele>280</ele>
        <time>2018-02-20T10:54:42.000Z</time>
      </trkpt>
      <trkpt lat="43.53651" lon="5.52218">
        <ele>280</ele>
        <time>2018-02-20T10:54:43.000Z</time>
      </trkpt>
      <trkpt lat="43.53651" lon="5.52217">
        <ele>280</ele>
        <time>2018-02-20T10:54:44.000Z</time>
      </trkpt>
      <trkpt lat="43.53652" lon="5.52216">
        <ele>280</ele>
        <time>2018-02-20T10:54:45.000Z</time>
      </trkpt>
      <trkpt lat="43.53652" lon="5.52215">
        <ele>280</ele>
        <time>2018-02-20T10:54:46.000Z</time>
      </trkpt>
      <trkpt lat="43.53652" lon="5.52214">
        <ele>280</ele>
        <time>2018-02-20T10:54:47.000Z</time>
      </trkpt>
      <trkpt lat="43.53652" lon="5.52213">
        <ele>281</ele>
        <time>2018-02-20T10:54:48.000Z</time>
      </trkpt>
      <trkpt lat="43.53652" lon="5.52212">
        <ele>281</ele>
        <time>2018-02-20T10:54:49.000Z</time>
      </trkpt>
      <trkpt lat="43.53652" lon="5.52211">
        <ele>281</ele>
        <time>2018-02-20T10:54:50.000Z</time>
      </trkpt>
      <trkpt lat="43.53652" lon="5.5221">
        <ele>281</ele>
        <time>2018-02-20T10:54:51.000Z</time>
      </trkpt>
      <trkpt lat="43.53652" lon="5.52209">
        <ele>281</ele>
        <time>2018-02-20T10:54:52.000Z</time>
      </trkpt>
      <trkpt lat="43.53652" lon="5.52208">
        <ele>281</ele>
        <time>2018-02-20T10:54:53.000Z</time>
      </trkpt>
      <trkpt lat="43.53652" lon="5.52207">
        <ele>281</ele>
        <time>2018-02-20T10:54:54.000Z</time>
      </trkpt>
      <trkpt lat="43.53653" lon="5.52206">
        <ele>282</ele>
        <time>2018-02-20T10:54:55.000Z</time>
      </trkpt>
      <trkpt lat="43.53653" lon="5.52205">
        <ele>282</ele>
        <time>2018-02-20T10:54:56.000Z</time>
      </trkpt>
      <trkpt lat="43.53653" lon="5.52204">
        <ele>282</ele>
        <time>2018-02-20T10:54:57.000Z</time>
      </trkpt>
      <trkpt lat="43.53653" lon="5.52203">
        <ele>282</ele>
        <time>2018-02-20T10:54:58.000Z</time>
      </trkpt>
      <trkpt lat="43.53653" lon="5.52202">
        <ele>282</ele>
        <time>2018-02-20T10:54:59.000Z</time>
      </trkpt>
      <trkpt lat="43.53653" lon="5.52201">
        <ele>282</ele>
        <time>2018-02-20T10:55:00.000Z</time>
      </trkpt>
      <trkpt lat="43.53653" lon="5.522">
        <ele>282</ele>
        <time>2018-02-20T10:55:01.000Z</time>
      </trkpt>
      <trkpt lat="43.53653" lon="5.52199">
        <ele>282</ele>
        <time>2018-02-20T10:55:02.000Z</time>
      </trkpt>
      <trkpt lat="43.53653" lon="5.52198">
        <ele>282</ele>
        <time>2018-02-20T10:55:03.000Z</time>
      </trkpt>
      <trkpt lat="43.53653" lon="5.52197">
        <ele>282</ele>
        <time>2018-02-20T10:55:04.000Z</time>
      </trkpt>
      <trkpt lat="43.53653" lon="5.52196">
        <ele>282</ele>
        <time>2018-02-20T10:55:05.000Z</time>
      </trkpt>
      <trkpt lat="43.53653" lon="5.52195">
        <ele>282</ele>
        <time>2018-02-20T10:55:06.000Z</time>
      </trkpt>
      <trkpt lat="43.53653" lon="5.52194">
        <ele>282</ele>
        <time>2018-02-20T10:55:07.000Z</time>
      </trkpt>
      <trkpt lat="43.53653" lon="5.52193">
        <ele>282</ele>
        <time>2018-02-20T10:55:08.000Z</time>
      </trkpt>
      <trkpt lat="43.53653" lon="5.52192">
        <ele>282</ele>
        <time>2018-02-20T10:55:09.000Z</time>
      </trkpt>
      <trkpt lat="43.53653" lon="5.52191">
        <ele>283</ele>
        <time>2018-02-20T10:55:10.000Z</time>
      </trkpt>
      <trkpt lat="43.53653" lon="5.5219">
        <ele>283</ele>
        <time>2018-02-20T10:55:11.000Z</time>
      </trkpt>
      <trkpt lat="43.53652" lon="5.52189">
        <ele>283</ele>
        <time>2018-02-20T10:55:12.000Z</time>
      </trkpt>
      <trkpt lat="43.53652" lon="5.52189">
        <ele>283</ele>
        <time>2018-02-20T10:55:13.000Z</time>
      </trkpt>
      <trkpt lat="43.53652" lon="5.52189">
        <ele>283</ele>
        <time>2018-02-20T10:55:14.000Z</time>
      </trkpt>
      <trkpt lat="43.53652" lon="5.52189">
        <ele>283</ele>
        <time>2018-02-20T10:55:15.000Z</time>
      </trkpt>
      <trkpt lat="43.53652" lon="5.52188">
        <ele>283</ele>
        <time>2018-02-20T10:55:16.000Z</time>
      </trkpt>
      <trkpt lat="43.53652" lon="5.52188">
        <ele>283</ele>
        <time>2018-02-20T10:55:17.000Z</time>
      </trkpt>
      <trkpt lat="43.53652" lon="5.52188">
        <ele>283</ele>
        <time>2018-02-20T10:55:18.000Z</time>
      </trkpt>
      <trkpt lat="43.53652" lon="5.52187">
        <ele>283</ele>
        <time>2018-02-20T10:55:19.000Z</time>
      </trkpt>
      <trkpt lat="43.53652" lon="5.52186">
        <ele>283</ele>
        <time>2018-02-20T10:55:20.000Z</time>
      </trkpt>
      <trkpt lat="43.53652" lon="5.52185">
        <ele>283</ele>
        <time>2018-02-20T10:55:21.000Z</time>
      </trkpt>
      <trkpt lat="43.53652" lon="5.52183">
        <ele>283</ele>
        <time>2018-02-20T10:55:22.000Z</time>
      </trkpt>
      <trkpt lat="43.53652" lon="5.52182">
        <ele>283</ele>
        <time>2018-02-20T10:55:23.000Z</time>
      </trkpt>
      <trkpt lat="43.53651" lon="5.52181">
        <ele>283</ele>
        <time>2018-02-20T10:55:24.000Z</time>
      </trkpt>
      <trkpt lat="43.53651" lon="5.5218">
        <ele>283</ele>
        <time>2018-02-20T10:55:25.000Z</time>
      </trkpt>
      <trkpt lat="43.5365" lon="5.52178">
        <ele>283</ele>
        <time>2018-02-20T10:55:26.000Z</time>
      </trkpt>
      <trkpt lat="43.53649" lon="5.52177">
        <ele>283</ele>
        <time>2018-02-20T10:55:27.000Z</time>
      </trkpt>
      <trkpt lat="43.53648" lon="5.52176">
        <ele>283</ele>
        <time>2018-02-20T10:55:28.000Z</time>
      </trkpt>
      <trkpt lat="43.53647" lon="5.52175">
        <ele>283</ele>
        <time>2018-02-20T10:55:29.000Z</time>
      </trkpt>
      <trkpt lat="43.53647" lon="5.52174">
        <ele>283</ele>
        <time>2018-02-20T10:55:30.000Z</time>
      </trkpt>
      <trkpt lat="43.53646" lon="5.52173">
        <ele>283</ele>
        <time>2018-02-20T10:55:31.000Z</time>
      </trkpt>
      <trkpt lat="43.53645" lon="5.52171">
        <ele>283</ele>
        <time>2018-02-20T10:55:32.000Z</time>
      </trkpt>
      <trkpt lat="43.53644" lon="5.5217">
        <ele>283</ele>
        <time>2018-02-20T10:55:33.000Z</time>
      </trkpt>
      <trkpt lat="43.53643" lon="5.5217">
        <ele>283</ele>
        <time>2018-02-20T10:55:34.000Z</time>
      </trkpt>
      <trkpt lat="43.53642" lon="5.52169">
        <ele>283</ele>
        <time>2018-02-20T10:55:35.000Z</time>
      </trkpt>
      <trkpt lat="43.53641" lon="5.52169">
        <ele>283</ele>
        <time>2018-02-20T10:55:36.000Z</time>
      </trkpt>
      <trkpt lat="43.53641" lon="5.52169">
        <ele>283</ele>
        <time>2018-02-20T10:55:37.000Z</time>
      </trkpt>
      <trkpt lat="43.5364" lon="5.52168">
        <ele>283</ele>
        <time>2018-02-20T10:55:38.000Z</time>
      </trkpt>
      <trkpt lat="43.5364" lon="5.52168">
        <ele>283</ele>
        <time>2018-02-20T10:55:39.000Z</time>
      </trkpt>
      <trkpt lat="43.5364" lon="5.52168">
        <ele>283</ele>
        <time>2018-02-20T10:55:40.000Z</time>
      </trkpt>
      <trkpt lat="43.53639" lon="5.52169">
        <ele>283</ele>
        <time>2018-02-20T10:55:41.000Z</time>
      </trkpt>
      <trkpt lat="43.53639" lon="5.52169">
        <ele>283</ele>
        <time>2018-02-20T10:55:42.000Z</time>
      </trkpt>
      <trkpt lat="43.53638" lon="5.52169">
        <ele>283</ele>
        <time>2018-02-20T10:55:43.000Z</time>
      </trkpt>
      <trkpt lat="43.53637" lon="5.52169">
        <ele>283</ele>
        <time>2018-02-20T10:55:44.000Z</time>
      </trkpt>
      <trkpt lat="43.53636" lon="5.52169">
        <ele>283</ele>
        <time>2018-02-20T10:55:45.000Z</time>
      </trkpt>
      <trkpt lat="43.53636" lon="5.52169">
        <ele>283</ele>
        <time>2018-02-20T10:55:46.000Z</time>
      </trkpt>
      <trkpt lat="43.53636" lon="5.52169">
        <ele>283</ele>
        <time>2018-02-20T10:55:47.000Z</time>
      </trkpt>
      <trkpt lat="43.53636" lon="5.52169">
        <ele>283</ele>
        <time>2018-02-20T10:55:48.000Z</time>
      </trkpt>
      <trkpt lat="43.53636" lon="5.52169">
        <ele>283</ele>
        <time>2018-02-20T10:55:49.000Z</time>
      </trkpt>
      <trkpt lat="43.53636" lon="5.52169">
        <ele>283</ele>
        <time>2018-02-20T10:55:50.000Z</time>
      </trkpt>
      <trkpt lat="43.53636" lon="5.52169">
        <ele>283</ele>
        <time>2018-02-20T10:55:51.000Z</time>
      </trkpt>
      <trkpt lat="43.53636" lon="5.52169">
        <ele>283</ele>
        <time>2018-02-20T10:55:52.000Z</time>
      </trkpt>
      <trkpt lat="43.53636" lon="5.52169">
        <ele>283</ele>
        <time>2018-02-20T10:55:53.000Z</time>
      </trkpt>
      <trkpt lat="43.53636" lon="5.52169">
        <ele>283</ele>
        <time>2018-02-20T10:55:54.000Z</time>
      </trkpt>
      <trkpt lat="43.53636" lon="5.52169">
        <ele>283</ele>
        <time>2018-02-20T10:55:55.000Z</time>
      </trkpt>
      <trkpt lat="43.53636" lon="5.52169">
        <ele>283</ele>
        <time>2018-02-20T10:55:56.000Z</time>
      </trkpt>
      <trkpt lat="43.53636" lon="5.52169">
        <ele>283</ele>
        <time>2018-02-20T10:55:57.000Z</time>
      </trkpt>
      <trkpt lat="43.53636" lon="5.52169">
        <ele>283</ele>
        <time>2018-02-20T10:55:58.000Z</time>
      </trkpt>
      <trkpt lat="43.53636" lon="5.52169">
        <ele>283</ele>
        <time>2018-02-20T10:55:59.000Z</time>
      </trkpt>
      <trkpt lat="43.53636" lon="5.52169">
        <ele>283</ele>
        <time>2018-02-20T10:56:00.000Z</time>
      </trkpt>
      <trkpt lat="43.53636" lon="5.52169">
        <ele>283</ele>
        <time>2018-02-20T10:56:01.000Z</time>
      </trkpt>
      <trkpt lat="43.53636" lon="5.52169">
        <ele>283</ele>
        <time>2018-02-20T10:56:02.000Z</time>
      </trkpt>
      <trkpt lat="43.53636" lon="5.52169">
        <ele>283</ele>
        <time>2018-02-20T10:56:03.000Z</time>
      </trkpt>
      <trkpt lat="43.53636" lon="5.52169">
        <ele>283</ele>
        <time>2018-02-20T10:56:04.000Z</time>
      </trkpt>
      <trkpt lat="43.53635" lon="5.52169">
        <ele>283</ele>
        <time>2018-02-20T10:56:05.000Z</time>
      </trkpt>
      <trkpt lat="43.53635" lon="5.5217">
        <ele>283</ele>
        <time>2018-02-20T10:56:06.000Z</time>
      </trkpt>
      <trkpt lat="43.53634" lon="5.52169">
        <ele>283</ele>
        <time>2018-02-20T10:56:07.000Z</time>
      </trkpt>
      <trkpt lat="43.53633" lon="5.5217">
        <ele>283</ele>
        <time>2018-02-20T10:56:08.000Z</time>
      </trkpt>
      <trkpt lat="43.53632" lon="5.52169">
        <ele>283</ele>
        <time>2018-02-20T10:56:09.000Z</time>
      </trkpt>
      <trkpt lat="43.53631" lon="5.52169">
        <ele>283</ele>
        <time>2018-02-20T10:56:10.000Z</time>
      </trkpt>
      <trkpt lat="43.5363" lon="5.52169">
        <ele>283</ele>
        <time>2018-02-20T10:56:11.000Z</time>
      </trkpt>
      <trkpt lat="43.53629" lon="5.5217">
        <ele>283</ele>
        <time>2018-02-20T10:56:12.000Z</time>
      </trkpt>
      <trkpt lat="43.53628" lon="5.5217">
        <ele>283</ele>
        <time>2018-02-20T10:56:13.000Z</time>
      </trkpt>
      <trkpt lat="43.53627" lon="5.5217">
        <ele>283</ele>
        <time>2018-02-20T10:56:14.000Z</time>
      </trkpt>
      <trkpt lat="43.53626" lon="5.5217">
        <ele>283</ele>
        <time>2018-02-20T10:56:15.000Z</time>
      </trkpt>
      <trkpt lat="43.53625" lon="5.52169">
        <ele>283</ele>
        <time>2018-02-20T10:56:16.000Z</time>
      </trkpt>
      <trkpt lat="43.53625" lon="5.52169">
        <ele>282</ele>
        <time>2018-02-20T10:56:17.000Z</time>
      </trkpt>
      <trkpt lat="43.53625" lon="5.52169">
        <ele>282</ele>
        <time>2018-02-20T10:56:18.000Z</time>
      </trkpt>
      <trkpt lat="43.53625" lon="5.52169">
        <ele>282</ele>
        <time>2018-02-20T10:56:19.000Z</time>
      </trkpt>
      <trkpt lat="43.53625" lon="5.52169">
        <ele>282</ele>
        <time>2018-02-20T10:56:20.000Z</time>
      </trkpt>
      <trkpt lat="43.53625" lon="5.52169">
        <ele>282</ele>
        <time>2018-02-20T10:56:21.000Z</time>
      </trkpt>
      <trkpt lat="43.53624" lon="5.52169">
        <ele>282</ele>
        <time>2018-02-20T10:56:22.000Z</time>
      </trkpt>
      <trkpt lat="43.53624" lon="5.52169">
        <ele>282</ele>
        <time>2018-02-20T10:56:23.000Z</time>
      </trkpt>
      <trkpt lat="43.53623" lon="5.52169">
        <ele>282</ele>
        <time>2018-02-20T10:56:24.000Z</time>
      </trkpt>
      <trkpt lat="43.53622" lon="5.52168">
        <ele>282</ele>
        <time>2018-02-20T10:56:25.000Z</time>
      </trkpt>
      <trkpt lat="43.53621" lon="5.52168">
        <ele>281</ele>
        <time>2018-02-20T10:56:26.000Z</time>
      </trkpt>
      <trkpt lat="43.5362" lon="5.52167">
        <ele>281</ele>
        <time>2018-02-20T10:56:27.000Z</time>
      </trkpt>
      <trkpt lat="43.53619" lon="5.52167">
        <ele>281</ele>
        <time>2018-02-20T10:56:28.000Z</time>
      </trkpt>
      <trkpt lat="43.53619" lon="5.52167">
        <ele>281</ele>
        <time>2018-02-20T10:56:29.000Z</time>
      </trkpt>
      <trkpt lat="43.53618" lon="5.52167">
        <ele>281</ele>
        <time>2018-02-20T10:56:30.000Z</time>
      </trkpt>
      <trkpt lat="43.53618" lon="5.52167">
        <ele>281</ele>
        <time>2018-02-20T10:56:31.000Z</time>
      </trkpt>
      <trkpt lat="43.53618" lon="5.52167">
        <ele>281</ele>
        <time>2018-02-20T10:56:32.000Z</time>
      </trkpt>
      <trkpt lat="43.53618" lon="5.52167">
        <ele>281</ele>
        <time>2018-02-20T10:56:33.000Z</time>
      </trkpt>
      <trkpt lat="43.53618" lon="5.52166">
        <ele>281</ele>
        <time>2018-02-20T10:56:34.000Z</time>
      </trkpt>
      <trkpt lat="43.53617" lon="5.52166">
        <ele>281</ele>
        <time>2018-02-20T10:56:35.000Z</time>
      </trkpt>
      <trkpt lat="43.53616" lon="5.52165">
        <ele>281</ele>
        <time>2018-02-20T10:56:36.000Z</time>
      </trkpt>
      <trkpt lat="43.53615" lon="5.52164">
        <ele>281</ele>
        <time>2018-02-20T10:56:37.000Z</time>
      </trkpt>
      <trkpt lat="43.53613" lon="5.52163">
        <ele>281</ele>
        <time>2018-02-20T10:56:38.000Z</time>
      </trkpt>
      <trkpt lat="43.53612" lon="5.52163">
        <ele>281</ele>
        <time>2018-02-20T10:56:39.000Z</time>
      </trkpt>
      <trkpt lat="43.53611" lon="5.52162">
        <ele>281</ele>
        <time>2018-02-20T10:56:40.000Z</time>
      </trkpt>
      <trkpt lat="43.5361" lon="5.52162">
        <ele>281</ele>
        <time>2018-02-20T10:56:41.000Z</time>
      </trkpt>
      <trkpt lat="43.5361" lon="5.52161">
        <ele>281</ele>
        <time>2018-02-20T10:56:42.000Z</time>
      </trkpt>
      <trkpt lat="43.53609" lon="5.5216">
        <ele>281</ele>
        <time>2018-02-20T10:56:43.000Z</time>
      </trkpt>
      <trkpt lat="43.53608" lon="5.5216">
        <ele>281</ele>
        <time>2018-02-20T10:56:44.000Z</time>
      </trkpt>
      <trkpt lat="43.53607" lon="5.52159">
        <ele>280</ele>
        <time>2018-02-20T10:56:45.000Z</time>
      </trkpt>
      <trkpt lat="43.53606" lon="5.52159">
        <ele>280</ele>
        <time>2018-02-20T10:56:46.000Z</time>
      </trkpt>
      <trkpt lat="43.53605" lon="5.52158">
        <ele>280</ele>
        <time>2018-02-20T10:56:47.000Z</time>
      </trkpt>
      <trkpt lat="43.53604" lon="5.52158">
        <ele>280</ele>
        <time>2018-02-20T10:56:48.000Z</time>
      </trkpt>
      <trkpt lat="43.53603" lon="5.52157">
        <ele>280</ele>
        <time>2018-02-20T10:56:49.000Z</time>
      </trkpt>
      <trkpt lat="43.53602" lon="5.52156">
        <ele>279</ele>
        <time>2018-02-20T10:56:50.000Z</time>
      </trkpt>
      <trkpt lat="43.53601" lon="5.52156">
        <ele>279</ele>
        <time>2018-02-20T10:56:51.000Z</time>
      </trkpt>
      <trkpt lat="43.536" lon="5.52155">
        <ele>279</ele>
        <time>2018-02-20T10:56:52.000Z</time>
      </trkpt>
      <trkpt lat="43.53599" lon="5.52154">
        <ele>279</ele>
        <time>2018-02-20T10:56:53.000Z</time>
      </trkpt>
      <trkpt lat="43.53598" lon="5.52154">
        <ele>279</ele>
        <time>2018-02-20T10:56:54.000Z</time>
      </trkpt>
      <trkpt lat="43.53598" lon="5.52153">
        <ele>279</ele>
        <time>2018-02-20T10:56:55.000Z</time>
      </trkpt>
      <trkpt lat="43.53597" lon="5.52152">
        <ele>279</ele>
        <time>2018-02-20T10:56:56.000Z</time>
      </trkpt>
      <trkpt lat="43.53596" lon="5.52152">
        <ele>279</ele>
        <time>2018-02-20T10:56:57.000Z</time>
      </trkpt>
      <trkpt lat="43.53595" lon="5.52151">
        <ele>279</ele>
        <time>2018-02-20T10:56:58.000Z</time>
      </trkpt>
      <trkpt lat="43.53594" lon="5.52151">
        <ele>279</ele>
        <time>2018-02-20T10:56:59.000Z</time>
      </trkpt>
      <trkpt lat="43.53593" lon="5.5215">
        <ele>278</ele>
        <time>2018-02-20T10:57:00.000Z</time>
      </trkpt>
      <trkpt lat="43.53592" lon="5.52149">
        <ele>278</ele>
        <time>2018-02-20T10:57:01.000Z</time>
      </trkpt>
      <trkpt lat="43.53591" lon="5.52148">
        <ele>278</ele>
        <time>2018-02-20T10:57:02.000Z</time>
      </trkpt>
      <trkpt lat="43.5359" lon="5.52147">
        <ele>278</ele>
        <time>2018-02-20T10:57:03.000Z</time>
      </trkpt>
      <trkpt lat="43.53589" lon="5.52146">
        <ele>278</ele>
        <time>2018-02-20T10:57:04.000Z</time>
      </trkpt>
      <trkpt lat="43.53588" lon="5.52144">
        <ele>278</ele>
        <time>2018-02-20T10:57:05.000Z</time>
      </trkpt>
      <trkpt lat="43.53587" lon="5.52143">
        <ele>278</ele>
        <time>2018-02-20T10:57:06.000Z</time>
      </trkpt>
      <trkpt lat="43.53586" lon="5.52142">
        <ele>278</ele>
        <time>2018-02-20T10:57:07.000Z</time>
      </trkpt>
      <trkpt lat="43.53585" lon="5.52141">
        <ele>278</ele>
        <time>2018-02-20T10:57:08.000Z</time>
      </trkpt>
      <trkpt lat="43.53584" lon="5.5214">
        <ele>278</ele>
        <time>2018-02-20T10:57:09.000Z</time>
      </trkpt>
      <trkpt lat="43.53583" lon="5.52139">
        <ele>277</ele>
        <time>2018-02-20T10:57:10.000Z</time>
      </trkpt>
      <trkpt lat="43.53582" lon="5.52138">
        <ele>277</ele>
        <time>2018-02-20T10:57:11.000Z</time>
      </trkpt>
      <trkpt lat="43.53581" lon="5.52136">
        <ele>277</ele>
        <time>2018-02-20T10:57:12.000Z</time>
      </trkpt>
      <trkpt lat="43.5358" lon="5.52135">
        <ele>277</ele>
        <time>2018-02-20T10:57:13.000Z</time>
      </trkpt>
      <trkpt lat="43.5358" lon="5.52133">
        <ele>277</ele>
        <time>2018-02-20T10:57:14.000Z</time>
      </trkpt>
      <trkpt lat="43.53579" lon="5.52132">
        <ele>276</ele>
        <time>2018-02-20T10:57:15.000Z</time>
      </trkpt>
      <trkpt lat="43.53578" lon="5.52131">
        <ele>276</ele>
        <time>2018-02-20T10:57:16.000Z</time>
      </trkpt>
      <trkpt lat="43.53577" lon="5.52129">
        <ele>276</ele>
        <time>2018-02-20T10:57:17.000Z</time>
      </trkpt>
      <trkpt lat="43.53576" lon="5.52128">
        <ele>276</ele>
        <time>2018-02-20T10:57:18.000Z</time>
      </trkpt>
      <trkpt lat="43.53575" lon="5.52127">
        <ele>276</ele>
        <time>2018-02-20T10:57:19.000Z</time>
      </trkpt>
      <trkpt lat="43.53574" lon="5.52126">
        <ele>276</ele>
        <time>2018-02-20T10:57:20.000Z</time>
      </trkpt>
      <trkpt lat="43.53573" lon="5.52125">
        <ele>275</ele>
        <time>2018-02-20T10:57:21.000Z</time>
      </trkpt>
      <trkpt lat="43.53572" lon="5.52124">
        <ele>275</ele>
        <time>2018-02-20T10:57:22.000Z</time>
      </trkpt>
      <trkpt lat="43.53572" lon="5.52124">
        <ele>275</ele>
        <time>2018-02-20T10:57:23.000Z</time>
      </trkpt>
      <trkpt lat="43.53571" lon="5.52123">
        <ele>275</ele>
        <time>2018-02-20T10:57:24.000Z</time>
      </trkpt>
      <trkpt lat="43.5357" lon="5.52122">
        <ele>275</ele>
        <time>2018-02-20T10:57:25.000Z</time>
      </trkpt>
      <trkpt lat="43.53569" lon="5.52121">
        <ele>274</ele>
        <time>2018-02-20T10:57:26.000Z</time>
      </trkpt>
      <trkpt lat="43.53568" lon="5.52119">
        <ele>274</ele>
        <time>2018-02-20T10:57:27.000Z</time>
      </trkpt>
      <trkpt lat="43.53568" lon="5.52118">
        <ele>274</ele>
        <time>2018-02-20T10:57:28.000Z</time>
      </trkpt>
      <trkpt lat="43.53567" lon="5.52117">
        <ele>274</ele>
        <time>2018-02-20T10:57:29.000Z</time>
      </trkpt>
      <trkpt lat="43.53567" lon="5.52116">
        <ele>274</ele>
        <time>2018-02-20T10:57:30.000Z</time>
      </trkpt>
      <trkpt lat="43.53566" lon="5.52115">
        <ele>274</ele>
        <time>2018-02-20T10:57:31.000Z</time>
      </trkpt>
      <trkpt lat="43.53565" lon="5.52115">
        <ele>273</ele>
        <time>2018-02-20T10:57:32.000Z</time>
      </trkpt>
      <trkpt lat="43.53564" lon="5.52114">
        <ele>273</ele>
        <time>2018-02-20T10:57:33.000Z</time>
      </trkpt>
      <trkpt lat="43.53563" lon="5.52113">
        <ele>273</ele>
        <time>2018-02-20T10:57:34.000Z</time>
      </trkpt>
      <trkpt lat="43.53563" lon="5.52113">
        <ele>273</ele>
        <time>2018-02-20T10:57:35.000Z</time>
      </trkpt>
      <trkpt lat="43.53562" lon="5.52112">
        <ele>273</ele>
        <time>2018-02-20T10:57:36.000Z</time>
      </trkpt>
      <trkpt lat="43.53561" lon="5.52111">
        <ele>273</ele>
        <time>2018-02-20T10:57:37.000Z</time>
      </trkpt>
      <trkpt lat="43.53561" lon="5.5211">
        <ele>273</ele>
        <time>2018-02-20T10:57:38.000Z</time>
      </trkpt>
      <trkpt lat="43.5356" lon="5.5211">
        <ele>273</ele>
        <time>2018-02-20T10:57:39.000Z</time>
      </trkpt>
      <trkpt lat="43.5356" lon="5.52109">
        <ele>273</ele>
        <time>2018-02-20T10:57:40.000Z</time>
      </trkpt>
      <trkpt lat="43.53559" lon="5.52108">
        <ele>273</ele>
        <time>2018-02-20T10:57:41.000Z</time>
      </trkpt>
      <trkpt lat="43.53559" lon="5.52107">
        <ele>273</ele>
        <time>2018-02-20T10:57:42.000Z</time>
      </trkpt>
      <trkpt lat="43.53558" lon="5.52106">
        <ele>272</ele>
        <time>2018-02-20T10:57:43.000Z</time>
      </trkpt>
      <trkpt lat="43.53558" lon="5.52105">
        <ele>272</ele>
        <time>2018-02-20T10:57:44.000Z</time>
      </trkpt>
      <trkpt lat="43.53558" lon="5.52104">
        <ele>272</ele>
        <time>2018-02-20T10:57:45.000Z</time>
      </trkpt>
      <trkpt lat="43.53558" lon="5.52103">
        <ele>272</ele>
        <time>2018-02-20T10:57:46.000Z</time>
      </trkpt>
      <trkpt lat="43.53557" lon="5.52102">
        <ele>272</ele>
        <time>2018-02-20T10:57:47.000Z</time>
      </trkpt>
      <trkpt lat="43.53556" lon="5.52101">
        <ele>272</ele>
        <time>2018-02-20T10:57:48.000Z</time>
      </trkpt>
      <trkpt lat="43.53556" lon="5.521">
        <ele>271</ele>
        <time>2018-02-20T10:57:49.000Z</time>
      </trkpt>
      <trkpt lat="43.53555" lon="5.52099">
        <ele>271</ele>
        <time>2018-02-20T10:57:50.000Z</time>
      </trkpt>
      <trkpt lat="43.53554" lon="5.52098">
        <ele>271</ele>
        <time>2018-02-20T10:57:51.000Z</time>
      </trkpt>
      <trkpt lat="43.53553" lon="5.52097">
        <ele>271</ele>
        <time>2018-02-20T10:57:52.000Z</time>
      </trkpt>
      <trkpt lat="43.53552" lon="5.52095">
        <ele>271</ele>
        <time>2018-02-20T10:57:53.000Z</time>
      </trkpt>
      <trkpt lat="43.53552" lon="5.52094">
        <ele>271</ele>
        <time>2018-02-20T10:57:54.000Z</time>
      </trkpt>
      <trkpt lat="43.53551" lon="5.52093">
        <ele>270</ele>
        <time>2018-02-20T10:57:55.000Z</time>
      </trkpt>
      <trkpt lat="43.5355" lon="5.52093">
        <ele>270</ele>
        <time>2018-02-20T10:57:56.000Z</time>
      </trkpt>
      <trkpt lat="43.53549" lon="5.52092">
        <ele>270</ele>
        <time>2018-02-20T10:57:57.000Z</time>
      </trkpt>
      <trkpt lat="43.53548" lon="5.52092">
        <ele>270</ele>
        <time>2018-02-20T10:57:58.000Z</time>
      </trkpt>
      <trkpt lat="43.53547" lon="5.52092">
        <ele>270</ele>
        <time>2018-02-20T10:57:59.000Z</time>
      </trkpt>
      <trkpt lat="43.53546" lon="5.52091">
        <ele>270</ele>
        <time>2018-02-20T10:58:00.000Z</time>
      </trkpt>
      <trkpt lat="43.53544" lon="5.52091">
        <ele>269</ele>
        <time>2018-02-20T10:58:01.000Z</time>
      </trkpt>
      <trkpt lat="43.53543" lon="5.5209">
        <ele>269</ele>
        <time>2018-02-20T10:58:02.000Z</time>
      </trkpt>
      <trkpt lat="43.53542" lon="5.5209">
        <ele>269</ele>
        <time>2018-02-20T10:58:03.000Z</time>
      </trkpt>
      <trkpt lat="43.53541" lon="5.52089">
        <ele>269</ele>
        <time>2018-02-20T10:58:04.000Z</time>
      </trkpt>
      <trkpt lat="43.5354" lon="5.52089">
        <ele>269</ele>
        <time>2018-02-20T10:58:05.000Z</time>
      </trkpt>
      <trkpt lat="43.53539" lon="5.52088">
        <ele>268</ele>
        <time>2018-02-20T10:58:06.000Z</time>
      </trkpt>
      <trkpt lat="43.53537" lon="5.52088">
        <ele>268</ele>
        <time>2018-02-20T10:58:07.000Z</time>
      </trkpt>
      <trkpt lat="43.53536" lon="5.52088">
        <ele>268</ele>
        <time>2018-02-20T10:58:08.000Z</time>
      </trkpt>
      <trkpt lat="43.53535" lon="5.52088">
        <ele>268</ele>
        <time>2018-02-20T10:58:09.000Z</time>
      </trkpt>
      <trkpt lat="43.53534" lon="5.52088">
        <ele>268</ele>
        <time>2018-02-20T10:58:10.000Z</time>
      </trkpt>
      <trkpt lat="43.53532" lon="5.52088">
        <ele>267</ele>
        <time>2018-02-20T10:58:11.000Z</time>
      </trkpt>
      <trkpt lat="43.53531" lon="5.52088">
        <ele>267</ele>
        <time>2018-02-20T10:58:12.000Z</time>
      </trkpt>
      <trkpt lat="43.5353" lon="5.52088">
        <ele>267</ele>
        <time>2018-02-20T10:58:13.000Z</time>
      </trkpt>
      <trkpt lat="43.53528" lon="5.52089">
        <ele>267</ele>
        <time>2018-02-20T10:58:14.000Z</time>
      </trkpt>
      <trkpt lat="43.53527" lon="5.52089">
        <ele>266</ele>
        <time>2018-02-20T10:58:15.000Z</time>
      </trkpt>
      <trkpt lat="43.53526" lon="5.52089">
        <ele>266</ele>
        <time>2018-02-20T10:58:16.000Z</time>
      </trkpt>
      <trkpt lat="43.53525" lon="5.52089">
        <ele>266</ele>
        <time>2018-02-20T10:58:17.000Z</time>
      </trkpt>
      <trkpt lat="43.53524" lon="5.52089">
        <ele>266</ele>
        <time>2018-02-20T10:58:18.000Z</time>
      </trkpt>
      <trkpt lat="43.53522" lon="5.5209">
        <ele>266</ele>
        <time>2018-02-20T10:58:19.000Z</time>
      </trkpt>
      <trkpt lat="43.53521" lon="5.5209">
        <ele>266</ele>
        <time>2018-02-20T10:58:20.000Z</time>
      </trkpt>
      <trkpt lat="43.53519" lon="5.52091">
        <ele>266</ele>
        <time>2018-02-20T10:58:21.000Z</time>
      </trkpt>
      <trkpt lat="43.53518" lon="5.52091">
        <ele>266</ele>
        <time>2018-02-20T10:58:22.000Z</time>
      </trkpt>
      <trkpt lat="43.53517" lon="5.52091">
        <ele>265</ele>
        <time>2018-02-20T10:58:23.000Z</time>
      </trkpt>
      <trkpt lat="43.53516" lon="5.52091">
        <ele>265</ele>
        <time>2018-02-20T10:58:24.000Z</time>
      </trkpt>
      <trkpt lat="43.53515" lon="5.52091">
        <ele>265</ele>
        <time>2018-02-20T10:58:25.000Z</time>
      </trkpt>
      <trkpt lat="43.53513" lon="5.52091">
        <ele>265</ele>
        <time>2018-02-20T10:58:26.000Z</time>
      </trkpt>
      <trkpt lat="43.53512" lon="5.52091">
        <ele>265</ele>
        <time>2018-02-20T10:58:27.000Z</time>
      </trkpt>
      <trkpt lat="43.53511" lon="5.5209">
        <ele>264</ele>
        <time>2018-02-20T10:58:28.000Z</time>
      </trkpt>
      <trkpt lat="43.5351" lon="5.5209">
        <ele>264</ele>
        <time>2018-02-20T10:58:29.000Z</time>
      </trkpt>
      <trkpt lat="43.53509" lon="5.5209">
        <ele>264</ele>
        <time>2018-02-20T10:58:30.000Z</time>
      </trkpt>
      <trkpt lat="43.53508" lon="5.52089">
        <ele>264</ele>
        <time>2018-02-20T10:58:31.000Z</time>
      </trkpt>
      <trkpt lat="43.53507" lon="5.52089">
        <ele>264</ele>
        <time>2018-02-20T10:58:32.000Z</time>
      </trkpt>
      <trkpt lat="43.53506" lon="5.52089">
        <ele>264</ele>
        <time>2018-02-20T10:58:33.000Z</time>
      </trkpt>
      <trkpt lat="43.53505" lon="5.52089">
        <ele>264</ele>
        <time>2018-02-20T10:58:34.000Z</time>
      </trkpt>
      <trkpt lat="43.53504" lon="5.52089">
        <ele>263</ele>
        <time>2018-02-20T10:58:35.000Z</time>
      </trkpt>
      <trkpt lat="43.53503" lon="5.52088">
        <ele>263</ele>
        <time>2018-02-20T10:58:36.000Z</time>
      </trkpt>
      <trkpt lat="43.53503" lon="5.52088">
        <ele>263</ele>
        <time>2018-02-20T10:58:37.000Z</time>
      </trkpt>
      <trkpt lat="43.53503" lon="5.52089">
        <ele>263</ele>
        <time>2018-02-20T10:58:38.000Z</time>
      </trkpt>
      <trkpt lat="43.53503" lon="5.52088">
        <ele>263</ele>
        <time>2018-02-20T10:58:39.000Z</time>
      </trkpt>
      <trkpt lat="43.53503" lon="5.52088">
        <ele>263</ele>
        <time>2018-02-20T10:58:40.000Z</time>
      </trkpt>
      <trkpt lat="43.53503" lon="5.52088">
        <ele>263</ele>
        <time>2018-02-20T10:58:41.000Z</time>
      </trkpt>
      <trkpt lat="43.53503" lon="5.52088">
        <ele>263</ele>
        <time>2018-02-20T10:58:42.000Z</time>
      </trkpt>
      <trkpt lat="43.53503" lon="5.52088">
        <ele>263</ele>
        <time>2018-02-20T10:58:43.000Z</time>
      </trkpt>
      <trkpt lat="43.53503" lon="5.52089">
        <ele>263</ele>
        <time>2018-02-20T10:58:44.000Z</time>
      </trkpt>
      <trkpt lat="43.53503" lon="5.52088">
        <ele>263</ele>
        <time>2018-02-20T10:58:45.000Z</time>
      </trkpt>
      <trkpt lat="43.53502" lon="5.52088">
        <ele>263</ele>
        <time>2018-02-20T10:58:46.000Z</time>
      </trkpt>
      <trkpt lat="43.53502" lon="5.52088">
        <ele>263</ele>
        <time>2018-02-20T10:58:47.000Z</time>
      </trkpt>
      <trkpt lat="43.53502" lon="5.52088">
        <ele>263</ele>
        <time>2018-02-20T10:58:48.000Z</time>
      </trkpt>
      <trkpt lat="43.53502" lon="5.52088">
        <ele>262</ele>
        <time>2018-02-20T10:58:49.000Z</time>
      </trkpt>
      <trkpt lat="43.53502" lon="5.52088">
        <ele>262</ele>
        <time>2018-02-20T10:58:50.000Z</time>
      </trkpt>
      <trkpt lat="43.53502" lon="5.52088">
        <ele>262</ele>
        <time>2018-02-20T10:58:51.000Z</time>
      </trkpt>
      <trkpt lat="43.53502" lon="5.52088">
        <ele>262</ele>
        <time>2018-02-20T10:58:52.000Z</time>
      </trkpt>
      <trkpt lat="43.53502" lon="5.52088">
        <ele>262</ele>
        <time>2018-02-20T10:58:53.000Z</time>
      </trkpt>
      <trkpt lat="43.53502" lon="5.52088">
        <ele>262</ele>
        <time>2018-02-20T10:58:54.000Z</time>
      </trkpt>
      <trkpt lat="43.53502" lon="5.52088">
        <ele>262</ele>
        <time>2018-02-20T10:58:55.000Z</time>
      </trkpt>
      <trkpt lat="43.53502" lon="5.52088">
        <ele>262</ele>
        <time>2018-02-20T10:58:56.000Z</time>
      </trkpt>
      <trkpt lat="43.53502" lon="5.52088">
        <ele>262</ele>
        <time>2018-02-20T10:58:57.000Z</time>
      </trkpt>
      <trkpt lat="43.53502" lon="5.52088">
        <ele>262</ele>
        <time>2018-02-20T10:58:58.000Z</time>
      </trkpt>
      <trkpt lat="43.53502" lon="5.52088">
        <ele>262</ele>
        <time>2018-02-20T10:58:59.000Z</time>
      </trkpt>
      <trkpt lat="43.53502" lon="5.52088">
        <ele>262</ele>
        <time>2018-02-20T10:59:00.000Z</time>
      </trkpt>
      <trkpt lat="43.53501" lon="5.52088">
        <ele>262</ele>
        <time>2018-02-20T10:59:01.000Z</time>
      </trkpt>
      <trkpt lat="43.53501" lon="5.52088">
        <ele>262</ele>
        <time>2018-02-20T10:59:02.000Z</time>
      </trkpt>
      <trkpt lat="43.53501" lon="5.52088">
        <ele>262</ele>
        <time>2018-02-20T10:59:03.000Z</time>
      </trkpt>
      <trkpt lat="43.53501" lon="5.52089">
        <ele>262</ele>
        <time>2018-02-20T10:59:04.000Z</time>
      </trkpt>
      <trkpt lat="43.53501" lon="5.52089">
        <ele>262</ele>
        <time>2018-02-20T10:59:05.000Z</time>
      </trkpt>
      <trkpt lat="43.53501" lon="5.52088">
        <ele>262</ele>
        <time>2018-02-20T10:59:06.000Z</time>
      </trkpt>
      <trkpt lat="43.535" lon="5.52087">
        <ele>262</ele>
        <time>2018-02-20T10:59:07.000Z</time>
      </trkpt>
      <trkpt lat="43.53499" lon="5.52087">
        <ele>262</ele>
        <time>2018-02-20T10:59:08.000Z</time>
      </trkpt>
      <trkpt lat="43.53499" lon="5.52086">
        <ele>262</ele>
        <time>2018-02-20T10:59:09.000Z</time>
      </trkpt>
      <trkpt lat="43.53498" lon="5.52085">
        <ele>262</ele>
        <time>2018-02-20T10:59:10.000Z</time>
      </trkpt>
      <trkpt lat="43.53497" lon="5.52085">
        <ele>262</ele>
        <time>2018-02-20T10:59:11.000Z</time>
      </trkpt>
      <trkpt lat="43.53496" lon="5.52084">
        <ele>262</ele>
        <time>2018-02-20T10:59:12.000Z</time>
      </trkpt>
      <trkpt lat="43.53495" lon="5.52084">
        <ele>262</ele>
        <time>2018-02-20T10:59:13.000Z</time>
      </trkpt>
      <trkpt lat="43.53494" lon="5.52083">
        <ele>262</ele>
        <time>2018-02-20T10:59:14.000Z</time>
      </trkpt>
      <trkpt lat="43.53494" lon="5.52082">
        <ele>262</ele>
        <time>2018-02-20T10:59:15.000Z</time>
      </trkpt>
      <trkpt lat="43.53493" lon="5.52081">
        <ele>262</ele>
        <time>2018-02-20T10:59:16.000Z</time>
      </trkpt>
      <trkpt lat="43.53492" lon="5.5208">
        <ele>262</ele>
        <time>2018-02-20T10:59:17.000Z</time>
      </trkpt>
      <trkpt lat="43.53491" lon="5.52079">
        <ele>262</ele>
        <time>2018-02-20T10:59:18.000Z</time>
      </trkpt>
      <trkpt lat="43.53489" lon="5.52078">
        <ele>262</ele>
        <time>2018-02-20T10:59:19.000Z</time>
      </trkpt>
      <trkpt lat="43.53488" lon="5.52077">
        <ele>261</ele>
        <time>2018-02-20T10:59:20.000Z</time>
      </trkpt>
      <trkpt lat="43.53487" lon="5.52077">
        <ele>261</ele>
        <time>2018-02-20T10:59:21.000Z</time>
      </trkpt>
      <trkpt lat="43.53486" lon="5.52076">
        <ele>261</ele>
        <time>2018-02-20T10:59:22.000Z</time>
      </trkpt>
      <trkpt lat="43.53485" lon="5.52075">
        <ele>261</ele>
        <time>2018-02-20T10:59:23.000Z</time>
      </trkpt>
      <trkpt lat="43.53484" lon="5.52074">
        <ele>261</ele>
        <time>2018-02-20T10:59:24.000Z</time>
      </trkpt>
      <trkpt lat="43.53483" lon="5.52073">
        <ele>261</ele>
        <time>2018-02-20T10:59:25.000Z</time>
      </trkpt>
      <trkpt lat="43.53482" lon="5.52072">
        <ele>261</ele>
        <time>2018-02-20T10:59:26.000Z</time>
      </trkpt>
      <trkpt lat="43.53481" lon="5.52071">
        <ele>261</ele>
        <time>2018-02-20T10:59:27.000Z</time>
      </trkpt>
      <trkpt lat="43.5348" lon="5.5207">
        <ele>261</ele>
        <time>2018-02-20T10:59:28.000Z</time>
      </trkpt>
      <trkpt lat="43.53479" lon="5.52069">
        <ele>261</ele>
        <time>2018-02-20T10:59:29.000Z</time>
      </trkpt>
      <trkpt lat="43.53478" lon="5.52068">
        <ele>261</ele>
        <time>2018-02-20T10:59:30.000Z</time>
      </trkpt>
      <trkpt lat="43.53478" lon="5.52068">
        <ele>261</ele>
        <time>2018-02-20T10:59:31.000Z</time>
      </trkpt>
      <trkpt lat="43.53477" lon="5.52067">
        <ele>261</ele>
        <time>2018-02-20T10:59:32.000Z</time>
      </trkpt>
      <trkpt lat="43.53476" lon="5.52066">
        <ele>262</ele>
        <time>2018-02-20T10:59:33.000Z</time>
      </trkpt>
      <trkpt lat="43.53475" lon="5.52065">
        <ele>261</ele>
        <time>2018-02-20T10:59:34.000Z</time>
      </trkpt>
      <trkpt lat="43.53474" lon="5.52064">
        <ele>261</ele>
        <time>2018-02-20T10:59:35.000Z</time>
      </trkpt>
      <trkpt lat="43.53473" lon="5.52063">
        <ele>261</ele>
        <time>2018-02-20T10:59:36.000Z</time>
      </trkpt>
      <trkpt lat="43.53472" lon="5.52062">
        <ele>261</ele>
        <time>2018-02-20T10:59:37.000Z</time>
      </trkpt>
      <trkpt lat="43.53472" lon="5.52062">
        <ele>261</ele>
        <time>2018-02-20T10:59:38.000Z</time>
      </trkpt>
      <trkpt lat="43.53471" lon="5.52061">
        <ele>262</ele>
        <time>2018-02-20T10:59:39.000Z</time>
      </trkpt>
      <trkpt lat="43.5347" lon="5.5206">
        <ele>262</ele>
        <time>2018-02-20T10:59:40.000Z</time>
      </trkpt>
      <trkpt lat="43.5347" lon="5.52059">
        <ele>262</ele>
        <time>2018-02-20T10:59:41.000Z</time>
      </trkpt>
      <trkpt lat="43.53469" lon="5.52058">
        <ele>262</ele>
        <time>2018-02-20T10:59:42.000Z</time>
      </trkpt>
      <trkpt lat="43.53468" lon="5.52057">
        <ele>262</ele>
        <time>2018-02-20T10:59:43.000Z</time>
      </trkpt>
      <trkpt lat="43.53468" lon="5.52057">
        <ele>262</ele>
        <time>2018-02-20T10:59:44.000Z</time>
      </trkpt>
      <trkpt lat="43.53467" lon="5.52056">
        <ele>263</ele>
        <time>2018-02-20T10:59:45.000Z</time>
      </trkpt>
      <trkpt lat="43.53467" lon="5.52055">
        <ele>263</ele>
        <time>2018-02-20T10:59:46.000Z</time>
      </trkpt>
      <trkpt lat="43.53466" lon="5.52054">
        <ele>263</ele>
        <time>2018-02-20T10:59:47.000Z</time>
      </trkpt>
      <trkpt lat="43.53465" lon="5.52053">
        <ele>263</ele>
        <time>2018-02-20T10:59:48.000Z</time>
      </trkpt>
      <trkpt lat="43.53465" lon="5.52053">
        <ele>263</ele>
        <time>2018-02-20T10:59:49.000Z</time>
      </trkpt>
      <trkpt lat="43.53464" lon="5.52052">
        <ele>263</ele>
        <time>2018-02-20T10:59:50.000Z</time>
      </trkpt>
      <trkpt lat="43.53463" lon="5.52051">
        <ele>264</ele>
        <time>2018-02-20T10:59:51.000Z</time>
      </trkpt>
      <trkpt lat="43.53462" lon="5.5205">
        <ele>264</ele>
        <time>2018-02-20T10:59:52.000Z</time>
      </trkpt>
      <trkpt lat="43.53461" lon="5.52049">
        <ele>264</ele>
        <time>2018-02-20T10:59:53.000Z</time>
      </trkpt>
      <trkpt lat="43.53461" lon="5.52048">
        <ele>264</ele>
        <time>2018-02-20T10:59:54.000Z</time>
      </trkpt>
      <trkpt lat="43.5346" lon="5.52047">
        <ele>264</ele>
        <time>2018-02-20T10:59:55.000Z</time>
      </trkpt>
      <trkpt lat="43.5346" lon="5.52046">
        <ele>264</ele>
        <time>2018-02-20T10:59:56.000Z</time>
      </trkpt>
      <trkpt lat="43.5346" lon="5.52045">
        <ele>264</ele>
        <time>2018-02-20T10:59:57.000Z</time>
      </trkpt>
      <trkpt lat="43.53459" lon="5.52044">
        <ele>264</ele>
        <time>2018-02-20T10:59:58.000Z</time>
      </trkpt>
      <trkpt lat="43.53459" lon="5.52043">
        <ele>265</ele>
        <time>2018-02-20T10:59:59.000Z</time>
      </trkpt>
      <trkpt lat="43.53459" lon="5.52042">
        <ele>265</ele>
        <time>2018-02-20T11:00:00.000Z</time>
      </trkpt>
      <trkpt lat="43.53458" lon="5.52041">
        <ele>265</ele>
        <time>2018-02-20T11:00:01.000Z</time>
      </trkpt>
      <trkpt lat="43.53458" lon="5.52039">
        <ele>265</ele>
        <time>2018-02-20T11:00:02.000Z</time>
      </trkpt>
      <trkpt lat="43.53458" lon="5.52038">
        <ele>265</ele>
        <time>2018-02-20T11:00:03.000Z</time>
      </trkpt>
      <trkpt lat="43.53458" lon="5.52037">
        <ele>265</ele>
        <time>2018-02-20T11:00:04.000Z</time>
      </trkpt>
      <trkpt lat="43.53458" lon="5.52036">
        <ele>265</ele>
        <time>2018-02-20T11:00:05.000Z</time>
      </trkpt>
      <trkpt lat="43.53459" lon="5.52035">
        <ele>265</ele>
        <time>2018-02-20T11:00:06.000Z</time>
      </trkpt>
      <trkpt lat="43.53459" lon="5.52035">
        <ele>265</ele>
        <time>2018-02-20T11:00:07.000Z</time>
      </trkpt>
      <trkpt lat="43.53459" lon="5.52034">
        <ele>266</ele>
        <time>2018-02-20T11:00:08.000Z</time>
      </trkpt>
      <trkpt lat="43.5346" lon="5.52033">
        <ele>266</ele>
        <time>2018-02-20T11:00:09.000Z</time>
      </trkpt>
      <trkpt lat="43.5346" lon="5.52032">
        <ele>266</ele>
        <time>2018-02-20T11:00:10.000Z</time>
      </trkpt>
      <trkpt lat="43.53461" lon="5.52032">
        <ele>266</ele>
        <time>2018-02-20T11:00:11.000Z</time>
      </trkpt>
      <trkpt lat="43.53462" lon="5.52032">
        <ele>266</ele>
        <time>2018-02-20T11:00:12.000Z</time>
      </trkpt>
      <trkpt lat="43.53462" lon="5.52031">
        <ele>266</ele>
        <time>2018-02-20T11:00:13.000Z</time>
      </trkpt>
      <trkpt lat="43.53463" lon="5.52031">
        <ele>266</ele>
        <time>2018-02-20T11:00:14.000Z</time>
      </trkpt>
      <trkpt lat="43.53464" lon="5.5203">
        <ele>266</ele>
        <time>2018-02-20T11:00:15.000Z</time>
      </trkpt>
      <trkpt lat="43.53465" lon="5.5203">
        <ele>266</ele>
        <time>2018-02-20T11:00:16.000Z</time>
      </trkpt>
      <trkpt lat="43.53466" lon="5.5203">
        <ele>267</ele>
        <time>2018-02-20T11:00:17.000Z</time>
      </trkpt>
      <trkpt lat="43.53466" lon="5.5203">
        <ele>267</ele>
        <time>2018-02-20T11:00:18.000Z</time>
      </trkpt>
      <trkpt lat="43.53467" lon="5.52029">
        <ele>267</ele>
        <time>2018-02-20T11:00:19.000Z</time>
      </trkpt>
      <trkpt lat="43.53467" lon="5.52029">
        <ele>267</ele>
        <time>2018-02-20T11:00:20.000Z</time>
      </trkpt>
      <trkpt lat="43.53468" lon="5.52029">
        <ele>267</ele>
        <time>2018-02-20T11:00:21.000Z</time>
      </trkpt>
      <trkpt lat="43.53469" lon="5.52028">
        <ele>267</ele>
        <time>2018-02-20T11:00:22.000Z</time>
      </trkpt>
      <trkpt lat="43.5347" lon="5.52028">
        <ele>267</ele>
        <time>2018-02-20T11:00:23.000Z</time>
      </trkpt>
      <trkpt lat="43.53471" lon="5.52028">
        <ele>267</ele>
        <time>2018-02-20T11:00:24.000Z</time>
      </trkpt>
      <trkpt lat="43.53472" lon="5.52028">
        <ele>267</ele>
        <time>2018-02-20T11:00:25.000Z</time>
      </trkpt>
      <trkpt lat="43.53472" lon="5.52029">
        <ele>267</ele>
        <time>2018-02-20T11:00:26.000Z</time>
      </trkpt>
      <trkpt lat="43.53473" lon="5.52029">
        <ele>268</ele>
        <time>2018-02-20T11:00:27.000Z</time>
      </trkpt>
      <trkpt lat="43.53474" lon="5.52029">
        <ele>268</ele>
        <time>2018-02-20T11:00:28.000Z</time>
      </trkpt>
      <trkpt lat="43.53475" lon="5.52029">
        <ele>268</ele>
        <time>2018-02-20T11:00:29.000Z</time>
      </trkpt>
      <trkpt lat="43.53476" lon="5.5203">
        <ele>268</ele>
        <time>2018-02-20T11:00:30.000Z</time>
      </trkpt>
      <trkpt lat="43.53476" lon="5.5203">
        <ele>268</ele>
        <time>2018-02-20T11:00:31.000Z</time>
      </trkpt>
      <trkpt lat="43.53477" lon="5.52031">
        <ele>268</ele>
        <time>2018-02-20T11:00:32.000Z</time>
      </trkpt>
      <trkpt lat="43.53478" lon="5.52031">
        <ele>268</ele>
        <time>2018-02-20T11:00:33.000Z</time>
      </trkpt>
      <trkpt lat="43.53479" lon="5.52031">
        <ele>269</ele>
        <time>2018-02-20T11:00:34.000Z</time>
      </trkpt>
      <trkpt lat="43.53479" lon="5.52031">
        <ele>269</ele>
        <time>2018-02-20T11:00:35.000Z</time>
      </trkpt>
      <trkpt lat="43.5348" lon="5.52032">
        <ele>269</ele>
        <time>2018-02-20T11:00:36.000Z</time>
      </trkpt>
      <trkpt lat="43.53481" lon="5.52032">
        <ele>269</ele>
        <time>2018-02-20T11:00:37.000Z</time>
      </trkpt>
      <trkpt lat="43.53482" lon="5.52032">
        <ele>269</ele>
        <time>2018-02-20T11:00:38.000Z</time>
      </trkpt>
      <trkpt lat="43.53483" lon="5.52032">
        <ele>269</ele>
        <time>2018-02-20T11:00:39.000Z</time>
      </trkpt>
      <trkpt lat="43.53483" lon="5.52033">
        <ele>270</ele>
        <time>2018-02-20T11:00:40.000Z</time>
      </trkpt>
      <trkpt lat="43.53484" lon="5.52033">
        <ele>270</ele>
        <time>2018-02-20T11:00:41.000Z</time>
      </trkpt>
      <trkpt lat="43.53485" lon="5.52034">
        <ele>270</ele>
        <time>2018-02-20T11:00:42.000Z</time>
      </trkpt>
      <trkpt lat="43.53486" lon="5.52034">
        <ele>270</ele>
        <time>2018-02-20T11:00:43.000Z</time>
      </trkpt>
      <trkpt lat="43.53487" lon="5.52034">
        <ele>270</ele>
        <time>2018-02-20T11:00:44.000Z</time>
      </trkpt>
      <trkpt lat="43.53487" lon="5.52034">
        <ele>270</ele>
        <time>2018-02-20T11:00:45.000Z</time>
      </trkpt>
      <trkpt lat="43.53488" lon="5.52034">
        <ele>271</ele>
        <time>2018-02-20T11:00:46.000Z</time>
      </trkpt>
      <trkpt lat="43.53489" lon="5.52034">
        <ele>271</ele>
        <time>2018-02-20T11:00:47.000Z</time>
      </trkpt>
      <trkpt lat="43.53489" lon="5.52034">
        <ele>271</ele>
        <time>2018-02-20T11:00:48.000Z</time>
      </trkpt>
      <trkpt lat="43.5349" lon="5.52035">
        <ele>271</ele>
        <time>2018-02-20T11:00:49.000Z</time>
      </trkpt>
      <trkpt lat="43.53491" lon="5.52035">
        <ele>271</ele>
        <time>2018-02-20T11:00:50.000Z</time>
      </trkpt>
      <trkpt lat="43.53491" lon="5.52035">
        <ele>271</ele>
        <time>2018-02-20T11:00:51.000Z</time>
      </trkpt>
      <trkpt lat="43.53492" lon="5.52036">
        <ele>271</ele>
        <time>2018-02-20T11:00:52.000Z</time>
      </trkpt>
      <trkpt lat="43.53493" lon="5.52036">
        <ele>272</ele>
        <time>2018-02-20T11:00:53.000Z</time>
      </trkpt>
      <trkpt lat="43.53494" lon="5.52036">
        <ele>272</ele>
        <time>2018-02-20T11:00:54.000Z</time>
      </trkpt>
      <trkpt lat="43.53494" lon="5.52037">
        <ele>272</ele>
        <time>2018-02-20T11:00:55.000Z</time>
      </trkpt>
      <trkpt lat="43.53495" lon="5.52037">
        <ele>272</ele>
        <time>2018-02-20T11:00:56.000Z</time>
      </trkpt>
      <trkpt lat="43.53496" lon="5.52038">
        <ele>272</ele>
        <time>2018-02-20T11:00:57.000Z</time>
      </trkpt>
      <trkpt lat="43.53497" lon="5.52038">
        <ele>272</ele>
        <time>2018-02-20T11:00:58.000Z</time>
      </trkpt>
      <trkpt lat="43.53498" lon="5.52038">
        <ele>272</ele>
        <time>2018-02-20T11:00:59.000Z</time>
      </trkpt>
      <trkpt lat="43.53498" lon="5.52038">
        <ele>273</ele>
        <time>2018-02-20T11:01:00.000Z</time>
      </trkpt>
      <trkpt lat="43.53499" lon="5.52038">
        <ele>273</ele>
        <time>2018-02-20T11:01:01.000Z</time>
      </trkpt>
      <trkpt lat="43.535" lon="5.52038">
        <ele>273</ele>
        <time>2018-02-20T11:01:02.000Z</time>
      </trkpt>
      <trkpt lat="43.535" lon="5.52037">
        <ele>273</ele>
        <time>2018-02-20T11:01:03.000Z</time>
      </trkpt>
      <trkpt lat="43.53501" lon="5.52037">
        <ele>273</ele>
        <time>2018-02-20T11:01:04.000Z</time>
      </trkpt>
      <trkpt lat="43.53501" lon="5.52036">
        <ele>273</ele>
        <time>2018-02-20T11:01:05.000Z</time>
      </trkpt>
      <trkpt lat="43.53502" lon="5.52035">
        <ele>273</ele>
        <time>2018-02-20T11:01:06.000Z</time>
      </trkpt>
      <trkpt lat="43.53503" lon="5.52035">
        <ele>274</ele>
        <time>2018-02-20T11:01:07.000Z</time>
      </trkpt>
      <trkpt lat="43.53504" lon="5.52035">
        <ele>274</ele>
        <time>2018-02-20T11:01:08.000Z</time>
      </trkpt>
      <trkpt lat="43.53504" lon="5.52034">
        <ele>274</ele>
        <time>2018-02-20T11:01:09.000Z</time>
      </trkpt>
      <trkpt lat="43.53505" lon="5.52034">
        <ele>274</ele>
        <time>2018-02-20T11:01:10.000Z</time>
      </trkpt>
      <trkpt lat="43.53506" lon="5.52034">
        <ele>274</ele>
        <time>2018-02-20T11:01:11.000Z</time>
      </trkpt>
      <trkpt lat="43.53507" lon="5.52034">
        <ele>274</ele>
        <time>2018-02-20T11:01:12.000Z</time>
      </trkpt>
      <trkpt lat="43.53508" lon="5.52033">
        <ele>274</ele>
        <time>2018-02-20T11:01:13.000Z</time>
      </trkpt>
      <trkpt lat="43.53508" lon="5.52033">
        <ele>274</ele>
        <time>2018-02-20T11:01:14.000Z</time>
      </trkpt>
      <trkpt lat="43.53509" lon="5.52032">
        <ele>274</ele>
        <time>2018-02-20T11:01:15.000Z</time>
      </trkpt>
      <trkpt lat="43.5351" lon="5.52031">
        <ele>274</ele>
        <time>2018-02-20T11:01:16.000Z</time>
      </trkpt>
      <trkpt lat="43.53511" lon="5.52031">
        <ele>274</ele>
        <time>2018-02-20T11:01:17.000Z</time>
      </trkpt>
      <trkpt lat="43.53512" lon="5.5203">
        <ele>275</ele>
        <time>2018-02-20T11:01:18.000Z</time>
      </trkpt>
      <trkpt lat="43.53513" lon="5.5203">
        <ele>275</ele>
        <time>2018-02-20T11:01:19.000Z</time>
      </trkpt>
      <trkpt lat="43.53514" lon="5.5203">
        <ele>275</ele>
        <time>2018-02-20T11:01:20.000Z</time>
      </trkpt>
      <trkpt lat="43.53515" lon="5.5203">
        <ele>275</ele>
        <time>2018-02-20T11:01:21.000Z</time>
      </trkpt>
      <trkpt lat="43.53516" lon="5.5203">
        <ele>275</ele>
        <time>2018-02-20T11:01:22.000Z</time>
      </trkpt>
      <trkpt lat="43.53517" lon="5.52029">
        <ele>275</ele>
        <time>2018-02-20T11:01:23.000Z</time>
      </trkpt>
      <trkpt lat="43.53518" lon="5.52029">
        <ele>275</ele>
        <time>2018-02-20T11:01:24.000Z</time>
      </trkpt>
      <trkpt lat="43.53518" lon="5.52029">
        <ele>275</ele>
        <time>2018-02-20T11:01:25.000Z</time>
      </trkpt>
      <trkpt lat="43.53519" lon="5.52028">
        <ele>275</ele>
        <time>2018-02-20T11:01:26.000Z</time>
      </trkpt>
      <trkpt lat="43.5352" lon="5.52028">
        <ele>275</ele>
        <time>2018-02-20T11:01:27.000Z</time>
      </trkpt>
      <trkpt lat="43.53521" lon="5.52028">
        <ele>275</ele>
        <time>2018-02-20T11:01:28.000Z</time>
      </trkpt>
      <trkpt lat="43.53522" lon="5.52028">
        <ele>275</ele>
        <time>2018-02-20T11:01:29.000Z</time>
      </trkpt>
      <trkpt lat="43.53523" lon="5.52028">
        <ele>275</ele>
        <time>2018-02-20T11:01:30.000Z</time>
      </trkpt>
      <trkpt lat="43.53524" lon="5.52028">
        <ele>275</ele>
        <time>2018-02-20T11:01:31.000Z</time>
      </trkpt>
      <trkpt lat="43.53526" lon="5.52028">
        <ele>276</ele>
        <time>2018-02-20T11:01:32.000Z</time>
      </trkpt>
      <trkpt lat="43.53527" lon="5.52028">
        <ele>276</ele>
        <time>2018-02-20T11:01:33.000Z</time>
      </trkpt>
      <trkpt lat="43.53528" lon="5.52027">
        <ele>276</ele>
        <time>2018-02-20T11:01:34.000Z</time>
      </trkpt>
      <trkpt lat="43.53529" lon="5.52027">
        <ele>276</ele>
        <time>2018-02-20T11:01:35.000Z</time>
      </trkpt>
      <trkpt lat="43.5353" lon="5.52026">
        <ele>276</ele>
        <time>2018-02-20T11:01:36.000Z</time>
      </trkpt>
      <trkpt lat="43.53531" lon="5.52026">
        <ele>276</ele>
        <time>2018-02-20T11:01:37.000Z</time>
      </trkpt>
      <trkpt lat="43.53532" lon="5.52026">
        <ele>276</ele>
        <time>2018-02-20T11:01:38.000Z</time>
      </trkpt>
      <trkpt lat="43.53533" lon="5.52026">
        <ele>276</ele>
        <time>2018-02-20T11:01:39.000Z</time>
      </trkpt>
      <trkpt lat="43.53533" lon="5.52025">
        <ele>276</ele>
        <time>2018-02-20T11:01:40.000Z</time>
      </trkpt>
      <trkpt lat="43.53534" lon="5.52025">
        <ele>276</ele>
        <time>2018-02-20T11:01:41.000Z</time>
      </trkpt>
      <trkpt lat="43.53535" lon="5.52025">
        <ele>276</ele>
        <time>2018-02-20T11:01:42.000Z</time>
      </trkpt>
      <trkpt lat="43.53536" lon="5.52024">
        <ele>276</ele>
        <time>2018-02-20T11:01:43.000Z</time>
      </trkpt>
      <trkpt lat="43.53537" lon="5.52024">
        <ele>277</ele>
        <time>2018-02-20T11:01:44.000Z</time>
      </trkpt>
      <trkpt lat="43.53538" lon="5.52024">
        <ele>277</ele>
        <time>2018-02-20T11:01:45.000Z</time>
      </trkpt>
      <trkpt lat="43.53539" lon="5.52024">
        <ele>277</ele>
        <time>2018-02-20T11:01:46.000Z</time>
      </trkpt>
      <trkpt lat="43.5354" lon="5.52024">
        <ele>277</ele>
        <time>2018-02-20T11:01:47.000Z</time>
      </trkpt>
      <trkpt lat="43.53541" lon="5.52023">
        <ele>277</ele>
        <time>2018-02-20T11:01:48.000Z</time>
      </trkpt>
      <trkpt lat="43.53542" lon="5.52023">
        <ele>277</ele>
        <time>2018-02-20T11:01:49.000Z</time>
      </trkpt>
      <trkpt lat="43.53543" lon="5.52023">
        <ele>277</ele>
        <time>2018-02-20T11:01:50.000Z</time>
      </trkpt>
      <trkpt lat="43.53544" lon="5.52022">
        <ele>277</ele>
        <time>2018-02-20T11:01:51.000Z</time>
      </trkpt>
      <trkpt lat="43.53545" lon="5.52022">
        <ele>277</ele>
        <time>2018-02-20T11:01:52.000Z</time>
      </trkpt>
      <trkpt lat="43.53546" lon="5.52022">
        <ele>277</ele>
        <time>2018-02-20T11:01:53.000Z</time>
      </trkpt>
      <trkpt lat="43.53547" lon="5.52022">
        <ele>277</ele>
        <time>2018-02-20T11:01:54.000Z</time>
      </trkpt>
      <trkpt lat="43.53548" lon="5.52022">
        <ele>277</ele>
        <time>2018-02-20T11:01:55.000Z</time>
      </trkpt>
      <trkpt lat="43.53549" lon="5.52022">
        <ele>277</ele>
        <time>2018-02-20T11:01:56.000Z</time>
      </trkpt>
      <trkpt lat="43.5355" lon="5.52022">
        <ele>277</ele>
        <time>2018-02-20T11:01:57.000Z</time>
      </trkpt>
      <trkpt lat="43.53551" lon="5.52021">
        <ele>277</ele>
        <time>2018-02-20T11:01:58.000Z</time>
      </trkpt>
      <trkpt lat="43.53551" lon="5.52021">
        <ele>277</ele>
        <time>2018-02-20T11:01:59.000Z</time>
      </trkpt>
      <trkpt lat="43.53552" lon="5.52021">
        <ele>277</ele>
        <time>2018-02-20T11:02:00.000Z</time>
      </trkpt>
      <trkpt lat="43.53553" lon="5.52021">
        <ele>277</ele>
        <time>2018-02-20T11:02:01.000Z</time>
      </trkpt>
      <trkpt lat="43.53554" lon="5.5202">
        <ele>277</ele>
        <time>2018-02-20T11:02:02.000Z</time>
      </trkpt>
      <trkpt lat="43.53555" lon="5.5202">
        <ele>277</ele>
        <time>2018-02-20T11:02:03.000Z</time>
      </trkpt>
      <trkpt lat="43.53556" lon="5.5202">
        <ele>278</ele>
        <time>2018-02-20T11:02:04.000Z</time>
      </trkpt>
      <trkpt lat="43.53557" lon="5.52019">
        <ele>278</ele>
        <time>2018-02-20T11:02:05.000Z</time>
      </trkpt>
      <trkpt lat="43.53558" lon="5.52019">
        <ele>278</ele>
        <time>2018-02-20T11:02:06.000Z</time>
      </trkpt>
      <trkpt lat="43.53559" lon="5.52019">
        <ele>278</ele>
        <time>2018-02-20T11:02:07.000Z</time>
      </trkpt>
      <trkpt lat="43.5356" lon="5.52019">
        <ele>278</ele>
        <time>2018-02-20T11:02:08.000Z</time>
      </trkpt>
      <trkpt lat="43.53561" lon="5.5202">
        <ele>278</ele>
        <time>2018-02-20T11:02:09.000Z</time>
      </trkpt>
      <trkpt lat="43.53562" lon="5.52019">
        <ele>278</ele>
        <time>2018-02-20T11:02:10.000Z</time>
      </trkpt>
      <trkpt lat="43.53563" lon="5.52019">
        <ele>278</ele>
        <time>2018-02-20T11:02:11.000Z</time>
      </trkpt>
      <trkpt lat="43.53564" lon="5.52019">
        <ele>278</ele>
        <time>2018-02-20T11:02:12.000Z</time>
      </trkpt>
      <trkpt lat="43.53565" lon="5.52018">
        <ele>278</ele>
        <time>2018-02-20T11:02:13.000Z</time>
      </trkpt>
      <trkpt lat="43.53566" lon="5.52018">
        <ele>278</ele>
        <time>2018-02-20T11:02:14.000Z</time>
      </trkpt>
      <trkpt lat="43.53567" lon="5.52019">
        <ele>278</ele>
        <time>2018-02-20T11:02:15.000Z</time>
      </trkpt>
      <trkpt lat="43.53568" lon="5.52019">
        <ele>278</ele>
        <time>2018-02-20T11:02:16.000Z</time>
      </trkpt>
      <trkpt lat="43.53569" lon="5.52019">
        <ele>278</ele>
        <time>2018-02-20T11:02:17.000Z</time>
      </trkpt>
      <trkpt lat="43.5357" lon="5.52019">
        <ele>278</ele>
        <time>2018-02-20T11:02:18.000Z</time>
      </trkpt>
      <trkpt lat="43.53571" lon="5.52019">
        <ele>278</ele>
        <time>2018-02-20T11:02:19.000Z</time>
      </trkpt>
      <trkpt lat="43.53573" lon="5.52019">
        <ele>278</ele>
        <time>2018-02-20T11:02:20.000Z</time>
      </trkpt>
      <trkpt lat="43.53573" lon="5.52019">
        <ele>278</ele>
        <time>2018-02-20T11:02:21.000Z</time>
      </trkpt>
      <trkpt lat="43.53574" lon="5.52018">
        <ele>279</ele>
        <time>2018-02-20T11:02:22.000Z</time>
      </trkpt>
      <trkpt lat="43.53575" lon="5.52018">
        <ele>279</ele>
        <time>2018-02-20T11:02:23.000Z</time>
      </trkpt>
      <trkpt lat="43.53576" lon="5.52018">
        <ele>279</ele>
        <time>2018-02-20T11:02:24.000Z</time>
      </trkpt>
      <trkpt lat="43.53577" lon="5.52018">
        <ele>279</ele>
        <time>2018-02-20T11:02:25.000Z</time>
      </trkpt>
      <trkpt lat="43.53578" lon="5.52018">
        <ele>279</ele>
        <time>2018-02-20T11:02:26.000Z</time>
      </trkpt>
      <trkpt lat="43.53579" lon="5.52018">
        <ele>279</ele>
        <time>2018-02-20T11:02:27.000Z</time>
      </trkpt>
      <trkpt lat="43.53579" lon="5.52018">
        <ele>279</ele>
        <time>2018-02-20T11:02:28.000Z</time>
      </trkpt>
      <trkpt lat="43.5358" lon="5.52018">
        <ele>279</ele>
        <time>2018-02-20T11:02:29.000Z</time>
      </trkpt>
      <trkpt lat="43.53581" lon="5.52018">
        <ele>279</ele>
        <time>2018-02-20T11:02:30.000Z</time>
      </trkpt>
      <trkpt lat="43.53582" lon="5.52017">
        <ele>279</ele>
        <time>2018-02-20T11:02:31.000Z</time>
      </trkpt>
      <trkpt lat="43.53584" lon="5.52017">
        <ele>279</ele>
        <time>2018-02-20T11:02:32.000Z</time>
      </trkpt>
      <trkpt lat="43.53585" lon="5.52018">
        <ele>279</ele>
        <time>2018-02-20T11:02:33.000Z</time>
      </trkpt>
      <trkpt lat="43.53586" lon="5.52018">
        <ele>279</ele>
        <time>2018-02-20T11:02:34.000Z</time>
      </trkpt>
      <trkpt lat="43.53586" lon="5.52018">
        <ele>279</ele>
        <time>2018-02-20T11:02:35.000Z</time>
      </trkpt>
      <trkpt lat="43.53587" lon="5.52019">
        <ele>279</ele>
        <time>2018-02-20T11:02:36.000Z</time>
      </trkpt>
      <trkpt lat="43.53588" lon="5.52019">
        <ele>279</ele>
        <time>2018-02-20T11:02:37.000Z</time>
      </trkpt>
      <trkpt lat="43.53589" lon="5.52019">
        <ele>279</ele>
        <time>2018-02-20T11:02:38.000Z</time>
      </trkpt>
      <trkpt lat="43.5359" lon="5.52019">
        <ele>279</ele>
        <time>2018-02-20T11:02:39.000Z</time>
      </trkpt>
      <trkpt lat="43.53591" lon="5.52019">
        <ele>279</ele>
        <time>2018-02-20T11:02:40.000Z</time>
      </trkpt>
      <trkpt lat="43.53592" lon="5.52019">
        <ele>279</ele>
        <time>2018-02-20T11:02:41.000Z</time>
      </trkpt>
      <trkpt lat="43.53593" lon="5.52019">
        <ele>279</ele>
        <time>2018-02-20T11:02:42.000Z</time>
      </trkpt>
      <trkpt lat="43.53594" lon="5.52019">
        <ele>279</ele>
        <time>2018-02-20T11:02:43.000Z</time>
      </trkpt>
      <trkpt lat="43.53595" lon="5.52019">
        <ele>279</ele>
        <time>2018-02-20T11:02:44.000Z</time>
      </trkpt>
      <trkpt lat="43.53596" lon="5.52019">
        <ele>279</ele>
        <time>2018-02-20T11:02:45.000Z</time>
      </trkpt>
      <trkpt lat="43.53597" lon="5.52019">
        <ele>280</ele>
        <time>2018-02-20T11:02:46.000Z</time>
      </trkpt>
      <trkpt lat="43.53598" lon="5.52019">
        <ele>280</ele>
        <time>2018-02-20T11:02:47.000Z</time>
      </trkpt>
      <trkpt lat="43.53598" lon="5.52019">
        <ele>280</ele>
        <time>2018-02-20T11:02:48.000Z</time>
      </trkpt>
      <trkpt lat="43.53599" lon="5.52019">
        <ele>279</ele>
        <time>2018-02-20T11:02:49.000Z</time>
      </trkpt>
      <trkpt lat="43.53599" lon="5.52019">
        <ele>279</ele>
        <time>2018-02-20T11:02:50.000Z</time>
      </trkpt>
      <trkpt lat="43.536" lon="5.5202">
        <ele>279</ele>
        <time>2018-02-20T11:02:51.000Z</time>
      </trkpt>
      <trkpt lat="43.53601" lon="5.5202">
        <ele>280</ele>
        <time>2018-02-20T11:02:52.000Z</time>
      </trkpt>
      <trkpt lat="43.53602" lon="5.5202">
        <ele>280</ele>
        <time>2018-02-20T11:02:53.000Z</time>
      </trkpt>
      <trkpt lat="43.53603" lon="5.5202">
        <ele>280</ele>
        <time>2018-02-20T11:02:54.000Z</time>
      </trkpt>
      <trkpt lat="43.53604" lon="5.52021">
        <ele>280</ele>
        <time>2018-02-20T11:02:55.000Z</time>
      </trkpt>
      <trkpt lat="43.53605" lon="5.52021">
        <ele>280</ele>
        <time>2018-02-20T11:02:56.000Z</time>
      </trkpt>
      <trkpt lat="43.53606" lon="5.52021">
        <ele>280</ele>
        <time>2018-02-20T11:02:57.000Z</time>
      </trkpt>
      <trkpt lat="43.53607" lon="5.52021">
        <ele>280</ele>
        <time>2018-02-20T11:02:58.000Z</time>
      </trkpt>
      <trkpt lat="43.53608" lon="5.52022">
        <ele>280</ele>
        <time>2018-02-20T11:02:59.000Z</time>
      </trkpt>
      <trkpt lat="43.53609" lon="5.52022">
        <ele>280</ele>
        <time>2018-02-20T11:03:00.000Z</time>
      </trkpt>
      <trkpt lat="43.5361" lon="5.52022">
        <ele>280</ele>
        <time>2018-02-20T11:03:01.000Z</time>
      </trkpt>
      <trkpt lat="43.53611" lon="5.52022">
        <ele>280</ele>
        <time>2018-02-20T11:03:02.000Z</time>
      </trkpt>
      <trkpt lat="43.53612" lon="5.52022">
        <ele>280</ele>
        <time>2018-02-20T11:03:03.000Z</time>
      </trkpt>
      <trkpt lat="43.53613" lon="5.52022">
        <ele>280</ele>
        <time>2018-02-20T11:03:04.000Z</time>
      </trkpt>
      <trkpt lat="43.53614" lon="5.52022">
        <ele>280</ele>
        <time>2018-02-20T11:03:05.000Z</time>
      </trkpt>
      <trkpt lat="43.53615" lon="5.52022">
        <ele>280</ele>
        <time>2018-02-20T11:03:06.000Z</time>
      </trkpt>
      <trkpt lat="43.53616" lon="5.52022">
        <ele>280</ele>
        <time>2018-02-20T11:03:07.000Z</time>
      </trkpt>
      <trkpt lat="43.53617" lon="5.52023">
        <ele>280</ele>
        <time>2018-02-20T11:03:08.000Z</time>
      </trkpt>
      <trkpt lat="43.53618" lon="5.52023">
        <ele>280</ele>
        <time>2018-02-20T11:03:09.000Z</time>
      </trkpt>
      <trkpt lat="43.53618" lon="5.52023">
        <ele>280</ele>
        <time>2018-02-20T11:03:10.000Z</time>
      </trkpt>
      <trkpt lat="43.53619" lon="5.52024">
        <ele>280</ele>
        <time>2018-02-20T11:03:11.000Z</time>
      </trkpt>
      <trkpt lat="43.53619" lon="5.52024">
        <ele>280</ele>
        <time>2018-02-20T11:03:12.000Z</time>
      </trkpt>
      <trkpt lat="43.5362" lon="5.52025">
        <ele>280</ele>
        <time>2018-02-20T11:03:13.000Z</time>
      </trkpt>
      <trkpt lat="43.53621" lon="5.52025">
        <ele>280</ele>
        <time>2018-02-20T11:03:14.000Z</time>
      </trkpt>
      <trkpt lat="43.53622" lon="5.52025">
        <ele>280</ele>
        <time>2018-02-20T11:03:15.000Z</time>
      </trkpt>
      <trkpt lat="43.53623" lon="5.52025">
        <ele>281</ele>
        <time>2018-02-20T11:03:16.000Z</time>
      </trkpt>
      <trkpt lat="43.53624" lon="5.52026">
        <ele>281</ele>
        <time>2018-02-20T11:03:17.000Z</time>
      </trkpt>
      <trkpt lat="43.53624" lon="5.52026">
        <ele>281</ele>
        <time>2018-02-20T11:03:18.000Z</time>
      </trkpt>
      <trkpt lat="43.53624" lon="5.52026">
        <ele>281</ele>
        <time>2018-02-20T11:03:19.000Z</time>
      </trkpt>
      <trkpt lat="43.53624" lon="5.52026">
        <ele>281</ele>
        <time>2018-02-20T11:03:20.000Z</time>
      </trkpt>
      <trkpt lat="43.53625" lon="5.52026">
        <ele>281</ele>
        <time>2018-02-20T11:03:21.000Z</time>
      </trkpt>
      <trkpt lat="43.53625" lon="5.52026">
        <ele>281</ele>
        <time>2018-02-20T11:03:22.000Z</time>
      </trkpt>
      <trkpt lat="43.53625" lon="5.52026">
        <ele>281</ele>
        <time>2018-02-20T11:03:23.000Z</time>
      </trkpt>
      <trkpt lat="43.53625" lon="5.52026">
        <ele>281</ele>
        <time>2018-02-20T11:03:24.000Z</time>
      </trkpt>
      <trkpt lat="43.53625" lon="5.52026">
        <ele>281</ele>
        <time>2018-02-20T11:03:25.000Z</time>
      </trkpt>
      <trkpt lat="43.53625" lon="5.52026">
        <ele>281</ele>
        <time>2018-02-20T11:03:26.000Z</time>
      </trkpt>
      <trkpt lat="43.53625" lon="5.52026">
        <ele>281</ele>
        <time>2018-02-20T11:03:27.000Z</time>
      </trkpt>
      <trkpt lat="43.53625" lon="5.52026">
        <ele>281</ele>
        <time>2018-02-20T11:03:28.000Z</time>
      </trkpt>
      <trkpt lat="43.53625" lon="5.52026">
        <ele>281</ele>
        <time>2018-02-20T11:03:29.000Z</time>
      </trkpt>
      <trkpt lat="43.53625" lon="5.52026">
        <ele>281</ele>
        <time>2018-02-20T11:03:30.000Z</time>
      </trkpt>
      <trkpt lat="43.53625" lon="5.52026">
        <ele>281</ele>
        <time>2018-02-20T11:03:31.000Z</time>
      </trkpt>
      <trkpt lat="43.53625" lon="5.52026">
        <ele>281</ele>
        <time>2018-02-20T11:03:32.000Z</time>
      </trkpt>
      <trkpt lat="43.53625" lon="5.52026">
        <ele>281</ele>
        <time>2018-02-20T11:03:33.000Z</time>
      </trkpt>
      <trkpt lat="43.53625" lon="5.52026">
        <ele>281</ele>
        <time>2018-02-20T11:03:34.000Z</time>
      </trkpt>
      <trkpt lat="43.53625" lon="5.52026">
        <ele>281</ele>
        <time>2018-02-20T11:03:35.000Z</time>
      </trkpt>
      <trkpt lat="43.53625" lon="5.52026">
        <ele>281</ele>
        <time>2018-02-20T11:03:36.000Z</time>
      </trkpt>
      <trkpt lat="43.53625" lon="5.52026">
        <ele>281</ele>
        <time>2018-02-20T11:03:37.000Z</time>
      </trkpt>
      <trkpt lat="43.53625" lon="5.52026">
        <ele>281</ele>
        <time>2018-02-20T11:03:38.000Z</time>
      </trkpt>
      <trkpt lat="43.53625" lon="5.52026">
        <ele>281</ele>
        <time>2018-02-20T11:03:39.000Z</time>
      </trkpt>
      <trkpt lat="43.53625" lon="5.52026">
        <ele>281</ele>
        <time>2018-02-20T11:03:40.000Z</time>
      </trkpt>
      <trkpt lat="43.53625" lon="5.52026">
        <ele>281</ele>
        <time>2018-02-20T11:03:41.000Z</time>
      </trkpt>
      <trkpt lat="43.53625" lon="5.52026">
        <ele>281</ele>
        <time>2018-02-20T11:03:42.000Z</time>
      </trkpt>
      <trkpt lat="43.53625" lon="5.52026">
        <ele>281</ele>
        <time>2018-02-20T11:03:43.000Z</time>
      </trkpt>
      <trkpt lat="43.53625" lon="5.52026">
        <ele>281</ele>
        <time>2018-02-20T11:03:44.000Z</time>
      </trkpt>
      <trkpt lat="43.53625" lon="5.52026">
        <ele>281</ele>
        <time>2018-02-20T11:03:45.000Z</time>
      </trkpt>
      <trkpt lat="43.53625" lon="5.52026">
        <ele>281</ele>
        <time>2018-02-20T11:03:46.000Z</time>
      </trkpt>
      <trkpt lat="43.53625" lon="5.52026">
        <ele>281</ele>
        <time>2018-02-20T11:03:47.000Z</time>
      </trkpt>
      <trkpt lat="43.53625" lon="5.52026">
        <ele>281</ele>
        <time>2018-02-20T11:03:48.000Z</time>
      </trkpt>
      <trkpt lat="43.53625" lon="5.52026">
        <ele>281</ele>
        <time>2018-02-20T11:03:49.000Z</time>
      </trkpt>
      <trkpt lat="43.53625" lon="5.52026">
        <ele>281</ele>
        <time>2018-02-20T11:03:50.000Z</time>
      </trkpt>
      <trkpt lat="43.53625" lon="5.52026">
        <ele>281</ele>
        <time>2018-02-20T11:03:51.000Z</time>
      </trkpt>
      <trkpt lat="43.53625" lon="5.52026">
        <ele>281</ele>
        <time>2018-02-20T11:03:52.000Z</time>
      </trkpt>
      <trkpt lat="43.53625" lon="5.52026">
        <ele>281</ele>
        <time>2018-02-20T11:03:53.000Z</time>
      </trkpt>
      <trkpt lat="43.53625" lon="5.52026">
        <ele>281</ele>
        <time>2018-02-20T11:03:54.000Z</time>
      </trkpt>
      <trkpt lat="43.53626" lon="5.52026">
        <ele>281</ele>
        <time>2018-02-20T11:03:55.000Z</time>
      </trkpt>
      <trkpt lat="43.53626" lon="5.52026">
        <ele>281</ele>
        <time>2018-02-20T11:03:56.000Z</time>
      </trkpt>
      <trkpt lat="43.53626" lon="5.52026">
        <ele>281</ele>
        <time>2018-02-20T11:03:57.000Z</time>
      </trkpt>
      <trkpt lat="43.53626" lon="5.52026">
        <ele>281</ele>
        <time>2018-02-20T11:03:58.000Z</time>
      </trkpt>
      <trkpt lat="43.53626" lon="5.52026">
        <ele>282</ele>
        <time>2018-02-20T11:03:59.000Z</time>
      </trkpt>
      <trkpt lat="43.53626" lon="5.52026">
        <ele>282</ele>
        <time>2018-02-20T11:04:00.000Z</time>
      </trkpt>
      <trkpt lat="43.53626" lon="5.52026">
        <ele>282</ele>
        <time>2018-02-20T11:04:01.000Z</time>
      </trkpt>
      <trkpt lat="43.53626" lon="5.52026">
        <ele>282</ele>
        <time>2018-02-20T11:04:02.000Z</time>
      </trkpt>
      <trkpt lat="43.53626" lon="5.52026">
        <ele>282</ele>
        <time>2018-02-20T11:04:03.000Z</time>
      </trkpt>
      <trkpt lat="43.53626" lon="5.52026">
        <ele>282</ele>
        <time>2018-02-20T11:04:04.000Z</time>
      </trkpt>
      <trkpt lat="43.53626" lon="5.52026">
        <ele>282</ele>
        <time>2018-02-20T11:04:05.000Z</time>
      </trkpt>
      <trkpt lat="43.53626" lon="5.52026">
        <ele>282</ele>
        <time>2018-02-20T11:04:06.000Z</time>
      </trkpt>
      <trkpt lat="43.53626" lon="5.52026">
        <ele>282</ele>
        <time>2018-02-20T11:04:07.000Z</time>
      </trkpt>
      <trkpt lat="43.53625" lon="5.52026">
        <ele>282</ele>
        <time>2018-02-20T11:04:08.000Z</time>
      </trkpt>
      <trkpt lat="43.53626" lon="5.52026">
        <ele>282</ele>
        <time>2018-02-20T11:04:09.000Z</time>
      </trkpt>
      <trkpt lat="43.53627" lon="5.52026">
        <ele>282</ele>
        <time>2018-02-20T11:04:10.000Z</time>
      </trkpt>
      <trkpt lat="43.53627" lon="5.52026">
        <ele>282</ele>
        <time>2018-02-20T11:04:11.000Z</time>
      </trkpt>
      <trkpt lat="43.53628" lon="5.52026">
        <ele>282</ele>
        <time>2018-02-20T11:04:12.000Z</time>
      </trkpt>
      <trkpt lat="43.53629" lon="5.52026">
        <ele>282</ele>
        <time>2018-02-20T11:04:13.000Z</time>
      </trkpt>
      <trkpt lat="43.5363" lon="5.52026">
        <ele>282</ele>
        <time>2018-02-20T11:04:14.000Z</time>
      </trkpt>
      <trkpt lat="43.53631" lon="5.52025">
        <ele>282</ele>
        <time>2018-02-20T11:04:15.000Z</time>
      </trkpt>
      <trkpt lat="43.53632" lon="5.52025">
        <ele>282</ele>
        <time>2018-02-20T11:04:16.000Z</time>
      </trkpt>
      <trkpt lat="43.53633" lon="5.52025">
        <ele>282</ele>
        <time>2018-02-20T11:04:17.000Z</time>
      </trkpt>
      <trkpt lat="43.53634" lon="5.52025">
        <ele>282</ele>
        <time>2018-02-20T11:04:18.000Z</time>
      </trkpt>
      <trkpt lat="43.53634" lon="5.52025">
        <ele>282</ele>
        <time>2018-02-20T11:04:19.000Z</time>
      </trkpt>
      <trkpt lat="43.53635" lon="5.52025">
        <ele>283</ele>
        <time>2018-02-20T11:04:20.000Z</time>
      </trkpt>
      <trkpt lat="43.53636" lon="5.52024">
        <ele>283</ele>
        <time>2018-02-20T11:04:21.000Z</time>
      </trkpt>
      <trkpt lat="43.53637" lon="5.52024">
        <ele>283</ele>
        <time>2018-02-20T11:04:22.000Z</time>
      </trkpt>
      <trkpt lat="43.53638" lon="5.52024">
        <ele>283</ele>
        <time>2018-02-20T11:04:23.000Z</time>
      </trkpt>
      <trkpt lat="43.53639" lon="5.52024">
        <ele>283</ele>
        <time>2018-02-20T11:04:24.000Z</time>
      </trkpt>
      <trkpt lat="43.5364" lon="5.52025">
        <ele>283</ele>
        <time>2018-02-20T11:04:25.000Z</time>
      </trkpt>
      <trkpt lat="43.53641" lon="5.52025">
        <ele>283</ele>
        <time>2018-02-20T11:04:26.000Z</time>
      </trkpt>
      <trkpt lat="43.53642" lon="5.52026">
        <ele>283</ele>
        <time>2018-02-20T11:04:27.000Z</time>
      </trkpt>
      <trkpt lat="43.53642" lon="5.52026">
        <ele>283</ele>
        <time>2018-02-20T11:04:28.000Z</time>
      </trkpt>
      <trkpt lat="43.53643" lon="5.52026">
        <ele>284</ele>
        <time>2018-02-20T11:04:29.000Z</time>
      </trkpt>
      <trkpt lat="43.53644" lon="5.52026">
        <ele>284</ele>
        <time>2018-02-20T11:04:30.000Z</time>
      </trkpt>
      <trkpt lat="43.53645" lon="5.52026">
        <ele>284</ele>
        <time>2018-02-20T11:04:31.000Z</time>
      </trkpt>
      <trkpt lat="43.53646" lon="5.52026">
        <ele>284</ele>
        <time>2018-02-20T11:04:32.000Z</time>
      </trkpt>
      <trkpt lat="43.53646" lon="5.52026">
        <ele>284</ele>
        <time>2018-02-20T11:04:33.000Z</time>
      </trkpt>
      <trkpt lat="43.53647" lon="5.52026">
        <ele>285</ele>
        <time>2018-02-20T11:04:34.000Z</time>
      </trkpt>
      <trkpt lat="43.53648" lon="5.52026">
        <ele>285</ele>
        <time>2018-02-20T11:04:35.000Z</time>
      </trkpt>
      <trkpt lat="43.53649" lon="5.52026">
        <ele>285</ele>
        <time>2018-02-20T11:04:36.000Z</time>
      </trkpt>
      <trkpt lat="43.5365" lon="5.52026">
        <ele>285</ele>
        <time>2018-02-20T11:04:37.000Z</time>
      </trkpt>
      <trkpt lat="43.5365" lon="5.52026">
        <ele>286</ele>
        <time>2018-02-20T11:04:38.000Z</time>
      </trkpt>
      <trkpt lat="43.53651" lon="5.52026">
        <ele>286</ele>
        <time>2018-02-20T11:04:39.000Z</time>
      </trkpt>
      <trkpt lat="43.53652" lon="5.52026">
        <ele>286</ele>
        <time>2018-02-20T11:04:40.000Z</time>
      </trkpt>
      <trkpt lat="43.53653" lon="5.52025">
        <ele>286</ele>
        <time>2018-02-20T11:04:41.000Z</time>
      </trkpt>
      <trkpt lat="43.53654" lon="5.52026">
        <ele>287</ele>
        <time>2018-02-20T11:04:42.000Z</time>
      </trkpt>
      <trkpt lat="43.53655" lon="5.52026">
        <ele>287</ele>
        <time>2018-02-20T11:04:43.000Z</time>
      </trkpt>
      <trkpt lat="43.53655" lon="5.52026">
        <ele>287</ele>
        <time>2018-02-20T11:04:44.000Z</time>
      </trkpt>
      <trkpt lat="43.53656" lon="5.52026">
        <ele>287</ele>
        <time>2018-02-20T11:04:45.000Z</time>
      </trkpt>
      <trkpt lat="43.53657" lon="5.52026">
        <ele>288</ele>
        <time>2018-02-20T11:04:46.000Z</time>
      </trkpt>
      <trkpt lat="43.53658" lon="5.52026">
        <ele>288</ele>
        <time>2018-02-20T11:04:47.000Z</time>
      </trkpt>
      <trkpt lat="43.53658" lon="5.52026">
        <ele>288</ele>
        <time>2018-02-20T11:04:48.000Z</time>
      </trkpt>
      <trkpt lat="43.53659" lon="5.52027">
        <ele>288</ele>
        <time>2018-02-20T11:04:49.000Z</time>
      </trkpt>
      <trkpt lat="43.5366" lon="5.52027">
        <ele>288</ele>
        <time>2018-02-20T11:04:50.000Z</time>
      </trkpt>
      <trkpt lat="43.53661" lon="5.52027">
        <ele>289</ele>
        <time>2018-02-20T11:04:51.000Z</time>
      </trkpt>
      <trkpt lat="43.53661" lon="5.52028">
        <ele>289</ele>
        <time>2018-02-20T11:04:52.000Z</time>
      </trkpt>
      <trkpt lat="43.53662" lon="5.52028">
        <ele>289</ele>
        <time>2018-02-20T11:04:53.000Z</time>
      </trkpt>
      <trkpt lat="43.53662" lon="5.52028">
        <ele>289</ele>
        <time>2018-02-20T11:04:54.000Z</time>
      </trkpt>
      <trkpt lat="43.53663" lon="5.52028">
        <ele>289</ele>
        <time>2018-02-20T11:04:55.000Z</time>
      </trkpt>
      <trkpt lat="43.53663" lon="5.52028">
        <ele>290</ele>
        <time>2018-02-20T11:04:56.000Z</time>
      </trkpt>
      <trkpt lat="43.53664" lon="5.52029">
        <ele>290</ele>
        <time>2018-02-20T11:04:57.000Z</time>
      </trkpt>
      <trkpt lat="43.53665" lon="5.52029">
        <ele>290</ele>
        <time>2018-02-20T11:04:58.000Z</time>
      </trkpt>
      <trkpt lat="43.53665" lon="5.52029">
        <ele>290</ele>
        <time>2018-02-20T11:04:59.000Z</time>
      </trkpt>
      <trkpt lat="43.53666" lon="5.5203">
        <ele>290</ele>
        <time>2018-02-20T11:05:00.000Z</time>
      </trkpt>
      <trkpt lat="43.53666" lon="5.5203">
        <ele>291</ele>
        <time>2018-02-20T11:05:01.000Z</time>
      </trkpt>
      <trkpt lat="43.53667" lon="5.5203">
        <ele>291</ele>
        <time>2018-02-20T11:05:02.000Z</time>
      </trkpt>
      <trkpt lat="43.53668" lon="5.5203">
        <ele>291</ele>
        <time>2018-02-20T11:05:03.000Z</time>
      </trkpt>
      <trkpt lat="43.53668" lon="5.5203">
        <ele>291</ele>
        <time>2018-02-20T11:05:04.000Z</time>
      </trkpt>
      <trkpt lat="43.53668" lon="5.52031">
        <ele>291</ele>
        <time>2018-02-20T11:05:05.000Z</time>
      </trkpt>
      <trkpt lat="43.53669" lon="5.52031">
        <ele>292</ele>
        <time>2018-02-20T11:05:06.000Z</time>
      </trkpt>
      <trkpt lat="43.5367" lon="5.52031">
        <ele>292</ele>
        <time>2018-02-20T11:05:07.000Z</time>
      </trkpt>
      <trkpt lat="43.5367" lon="5.52032">
        <ele>292</ele>
        <time>2018-02-20T11:05:08.000Z</time>
      </trkpt>
      <trkpt lat="43.53671" lon="5.52032">
        <ele>292</ele>
        <time>2018-02-20T11:05:09.000Z</time>
      </trkpt>
      <trkpt lat="43.53671" lon="5.52032">
        <ele>292</ele>
        <time>2018-02-20T11:05:10.000Z</time>
      </trkpt>
      <trkpt lat="43.53672" lon="5.52033">
        <ele>292</ele>
        <time>2018-02-20T11:05:11.000Z</time>
      </trkpt>
      <trkpt lat="43.53672" lon="5.52033">
        <ele>293</ele>
        <time>2018-02-20T11:05:12.000Z</time>
      </trkpt>
      <trkpt lat="43.53673" lon="5.52033">
        <ele>293</ele>
        <time>2018-02-20T11:05:13.000Z</time>
      </trkpt>
      <trkpt lat="43.53673" lon="5.52034">
        <ele>293</ele>
        <time>2018-02-20T11:05:14.000Z</time>
      </trkpt>
      <trkpt lat="43.53674" lon="5.52034">
        <ele>293</ele>
        <time>2018-02-20T11:05:15.000Z</time>
      </trkpt>
      <trkpt lat="43.53674" lon="5.52034">
        <ele>293</ele>
        <time>2018-02-20T11:05:16.000Z</time>
      </trkpt>
      <trkpt lat="43.53675" lon="5.52035">
        <ele>294</ele>
        <time>2018-02-20T11:05:17.000Z</time>
      </trkpt>
      <trkpt lat="43.53675" lon="5.52035">
        <ele>294</ele>
        <time>2018-02-20T11:05:18.000Z</time>
      </trkpt>
      <trkpt lat="43.53675" lon="5.52036">
        <ele>294</ele>
        <time>2018-02-20T11:05:19.000Z</time>
      </trkpt>
      <trkpt lat="43.53676" lon="5.52036">
        <ele>294</ele>
        <time>2018-02-20T11:05:20.000Z</time>
      </trkpt>
      <trkpt lat="43.53676" lon="5.52037">
        <ele>295</ele>
        <time>2018-02-20T11:05:21.000Z</time>
      </trkpt>
      <trkpt lat="43.53677" lon="5.52037">
        <ele>295</ele>
        <time>2018-02-20T11:05:22.000Z</time>
      </trkpt>
      <trkpt lat="43.53677" lon="5.52037">
        <ele>295</ele>
        <time>2018-02-20T11:05:23.000Z</time>
      </trkpt>
      <trkpt lat="43.53678" lon="5.52038">
        <ele>295</ele>
        <time>2018-02-20T11:05:24.000Z</time>
      </trkpt>
      <trkpt lat="43.53678" lon="5.52038">
        <ele>296</ele>
        <time>2018-02-20T11:05:25.000Z</time>
      </trkpt>
      <trkpt lat="43.53679" lon="5.52038">
        <ele>296</ele>
        <time>2018-02-20T11:05:26.000Z</time>
      </trkpt>
      <trkpt lat="43.53679" lon="5.52039">
        <ele>296</ele>
        <time>2018-02-20T11:05:27.000Z</time>
      </trkpt>
      <trkpt lat="43.53679" lon="5.52039">
        <ele>296</ele>
        <time>2018-02-20T11:05:28.000Z</time>
      </trkpt>
      <trkpt lat="43.53679" lon="5.52039">
        <ele>296</ele>
        <time>2018-02-20T11:05:29.000Z</time>
      </trkpt>
      <trkpt lat="43.53679" lon="5.52039">
        <ele>297</ele>
        <time>2018-02-20T11:05:30.000Z</time>
      </trkpt>
      <trkpt lat="43.5368" lon="5.52039">
        <ele>297</ele>
        <time>2018-02-20T11:05:31.000Z</time>
      </trkpt>
      <trkpt lat="43.5368" lon="5.52039">
        <ele>297</ele>
        <time>2018-02-20T11:05:32.000Z</time>
      </trkpt>
      <trkpt lat="43.5368" lon="5.52039">
        <ele>297</ele>
        <time>2018-02-20T11:05:33.000Z</time>
      </trkpt>
      <trkpt lat="43.5368" lon="5.52039">
        <ele>297</ele>
        <time>2018-02-20T11:05:34.000Z</time>
      </trkpt>
      <trkpt lat="43.5368" lon="5.52039">
        <ele>297</ele>
        <time>2018-02-20T11:05:35.000Z</time>
      </trkpt>
      <trkpt lat="43.5368" lon="5.52039">
        <ele>297</ele>
        <time>2018-02-20T11:05:36.000Z</time>
      </trkpt>
      <trkpt lat="43.5368" lon="5.52039">
        <ele>297</ele>
        <time>2018-02-20T11:05:37.000Z</time>
      </trkpt>
      <trkpt lat="43.5368" lon="5.52039">
        <ele>297</ele>
        <time>2018-02-20T11:05:38.000Z</time>
      </trkpt>
      <trkpt lat="43.53681" lon="5.5204">
        <ele>297</ele>
        <time>2018-02-20T11:05:39.000Z</time>
      </trkpt>
      <trkpt lat="43.53681" lon="5.5204">
        <ele>297</ele>
        <time>2018-02-20T11:05:40.000Z</time>
      </trkpt>
      <trkpt lat="43.53682" lon="5.5204">
        <ele>297</ele>
        <time>2018-02-20T11:05:41.000Z</time>
      </trkpt>
      <trkpt lat="43.53682" lon="5.5204">
        <ele>297</ele>
        <time>2018-02-20T11:05:42.000Z</time>
      </trkpt>
      <trkpt lat="43.53683" lon="5.5204">
        <ele>297</ele>
        <time>2018-02-20T11:05:43.000Z</time>
      </trkpt>
      <trkpt lat="43.53683" lon="5.52041">
        <ele>298</ele>
        <time>2018-02-20T11:05:44.000Z</time>
      </trkpt>
      <trkpt lat="43.53683" lon="5.52042">
        <ele>298</ele>
        <time>2018-02-20T11:05:45.000Z</time>
      </trkpt>
      <trkpt lat="43.53684" lon="5.52042">
        <ele>298</ele>
        <time>2018-02-20T11:05:46.000Z</time>
      </trkpt>
      <trkpt lat="43.53684" lon="5.52043">
        <ele>298</ele>
        <time>2018-02-20T11:05:47.000Z</time>
      </trkpt>
      <trkpt lat="43.53684" lon="5.52043">
        <ele>298</ele>
        <time>2018-02-20T11:05:48.000Z</time>
      </trkpt>
      <trkpt lat="43.53685" lon="5.52044">
        <ele>299</ele>
        <time>2018-02-20T11:05:49.000Z</time>
      </trkpt>
      <trkpt lat="43.53685" lon="5.52044">
        <ele>299</ele>
        <time>2018-02-20T11:05:50.000Z</time>
      </trkpt>
      <trkpt lat="43.53686" lon="5.52044">
        <ele>299</ele>
        <time>2018-02-20T11:05:51.000Z</time>
      </trkpt>
      <trkpt lat="43.53686" lon="5.52044">
        <ele>299</ele>
        <time>2018-02-20T11:05:52.000Z</time>
      </trkpt>
      <trkpt lat="43.53687" lon="5.52044">
        <ele>299</ele>
        <time>2018-02-20T11:05:53.000Z</time>
      </trkpt>
      <trkpt lat="43.53687" lon="5.52045">
        <ele>299</ele>
        <time>2018-02-20T11:05:54.000Z</time>
      </trkpt>
      <trkpt lat="43.53688" lon="5.52045">
        <ele>300</ele>
        <time>2018-02-20T11:05:55.000Z</time>
      </trkpt>
      <trkpt lat="43.53688" lon="5.52045">
        <ele>300</ele>
        <time>2018-02-20T11:05:56.000Z</time>
      </trkpt>
      <trkpt lat="43.53689" lon="5.52046">
        <ele>300</ele>
        <time>2018-02-20T11:05:57.000Z</time>
      </trkpt>
      <trkpt lat="43.5369" lon="5.52046">
        <ele>300</ele>
        <time>2018-02-20T11:05:58.000Z</time>
      </trkpt>
      <trkpt lat="43.5369" lon="5.52047">
        <ele>300</ele>
        <time>2018-02-20T11:05:59.000Z</time>
      </trkpt>
      <trkpt lat="43.5369" lon="5.52047">
        <ele>301</ele>
        <time>2018-02-20T11:06:00.000Z</time>
      </trkpt>
      <trkpt lat="43.53691" lon="5.52048">
        <ele>301</ele>
        <time>2018-02-20T11:06:01.000Z</time>
      </trkpt>
      <trkpt lat="43.53692" lon="5.52048">
        <ele>301</ele>
        <time>2018-02-20T11:06:02.000Z</time>
      </trkpt>
      <trkpt lat="43.53692" lon="5.52049">
        <ele>301</ele>
        <time>2018-02-20T11:06:03.000Z</time>
      </trkpt>
      <trkpt lat="43.53692" lon="5.52049">
        <ele>301</ele>
        <time>2018-02-20T11:06:04.000Z</time>
      </trkpt>
      <trkpt lat="43.53693" lon="5.52049">
        <ele>301</ele>
        <time>2018-02-20T11:06:05.000Z</time>
      </trkpt>
      <trkpt lat="43.53693" lon="5.5205">
        <ele>301</ele>
        <time>2018-02-20T11:06:06.000Z</time>
      </trkpt>
      <trkpt lat="43.53694" lon="5.5205">
        <ele>302</ele>
        <time>2018-02-20T11:06:07.000Z</time>
      </trkpt>
      <trkpt lat="43.53694" lon="5.5205">
        <ele>302</ele>
        <time>2018-02-20T11:06:08.000Z</time>
      </trkpt>
      <trkpt lat="43.53695" lon="5.52051">
        <ele>302</ele>
        <time>2018-02-20T11:06:09.000Z</time>
      </trkpt>
      <trkpt lat="43.53695" lon="5.52051">
        <ele>302</ele>
        <time>2018-02-20T11:06:10.000Z</time>
      </trkpt>
      <trkpt lat="43.53696" lon="5.52051">
        <ele>302</ele>
        <time>2018-02-20T11:06:11.000Z</time>
      </trkpt>
      <trkpt lat="43.53696" lon="5.52052">
        <ele>302</ele>
        <time>2018-02-20T11:06:12.000Z</time>
      </trkpt>
      <trkpt lat="43.53697" lon="5.52052">
        <ele>302</ele>
        <time>2018-02-20T11:06:13.000Z</time>
      </trkpt>
      <trkpt lat="43.53697" lon="5.52052">
        <ele>302</ele>
        <time>2018-02-20T11:06:14.000Z</time>
      </trkpt>
      <trkpt lat="43.53698" lon="5.52053">
        <ele>303</ele>
        <time>2018-02-20T11:06:15.000Z</time>
      </trkpt>
      <trkpt lat="43.53698" lon="5.52053">
        <ele>303</ele>
        <time>2018-02-20T11:06:16.000Z</time>
      </trkpt>
      <trkpt lat="43.53699" lon="5.52053">
        <ele>303</ele>
        <time>2018-02-20T11:06:17.000Z</time>
      </trkpt>
      <trkpt lat="43.53699" lon="5.52053">
        <ele>303</ele>
        <time>2018-02-20T11:06:18.000Z</time>
      </trkpt>
      <trkpt lat="43.53699" lon="5.52053">
        <ele>303</ele>
        <time>2018-02-20T11:06:19.000Z</time>
      </trkpt>
      <trkpt lat="43.537" lon="5.52053">
        <ele>303</ele>
        <time>2018-02-20T11:06:20.000Z</time>
      </trkpt>
      <trkpt lat="43.537" lon="5.52054">
        <ele>303</ele>
        <time>2018-02-20T11:06:21.000Z</time>
      </trkpt>
      <trkpt lat="43.53701" lon="5.52054">
        <ele>303</ele>
        <time>2018-02-20T11:06:22.000Z</time>
      </trkpt>
      <trkpt lat="43.53701" lon="5.52054">
        <ele>303</ele>
        <time>2018-02-20T11:06:23.000Z</time>
      </trkpt>
      <trkpt lat="43.53701" lon="5.52054">
        <ele>303</ele>
        <time>2018-02-20T11:06:24.000Z</time>
      </trkpt>
      <trkpt lat="43.53702" lon="5.52055">
        <ele>303</ele>
        <time>2018-02-20T11:06:25.000Z</time>
      </trkpt>
      <trkpt lat="43.53702" lon="5.52055">
        <ele>303</ele>
        <time>2018-02-20T11:06:26.000Z</time>
      </trkpt>
      <trkpt lat="43.53703" lon="5.52055">
        <ele>303</ele>
        <time>2018-02-20T11:06:27.000Z</time>
      </trkpt>
      <trkpt lat="43.53703" lon="5.52055">
        <ele>303</ele>
        <time>2018-02-20T11:06:28.000Z</time>
      </trkpt>
      <trkpt lat="43.53703" lon="5.52056">
        <ele>303</ele>
        <time>2018-02-20T11:06:29.000Z</time>
      </trkpt>
      <trkpt lat="43.53704" lon="5.52056">
        <ele>303</ele>
        <time>2018-02-20T11:06:30.000Z</time>
      </trkpt>
      <trkpt lat="43.53705" lon="5.52056">
        <ele>303</ele>
        <time>2018-02-20T11:06:31.000Z</time>
      </trkpt>
      <trkpt lat="43.53705" lon="5.52056">
        <ele>303</ele>
        <time>2018-02-20T11:06:32.000Z</time>
      </trkpt>
      <trkpt lat="43.53705" lon="5.52057">
        <ele>304</ele>
        <time>2018-02-20T11:06:33.000Z</time>
      </trkpt>
      <trkpt lat="43.53706" lon="5.52057">
        <ele>304</ele>
        <time>2018-02-20T11:06:34.000Z</time>
      </trkpt>
      <trkpt lat="43.53707" lon="5.52057">
        <ele>304</ele>
        <time>2018-02-20T11:06:35.000Z</time>
      </trkpt>
      <trkpt lat="43.53707" lon="5.52058">
        <ele>304</ele>
        <time>2018-02-20T11:06:36.000Z</time>
      </trkpt>
      <trkpt lat="43.53708" lon="5.52058">
        <ele>304</ele>
        <time>2018-02-20T11:06:37.000Z</time>
      </trkpt>
      <trkpt lat="43.53708" lon="5.52058">
        <ele>305</ele>
        <time>2018-02-20T11:06:38.000Z</time>
      </trkpt>
      <trkpt lat="43.53709" lon="5.52059">
        <ele>305</ele>
        <time>2018-02-20T11:06:39.000Z</time>
      </trkpt>
      <trkpt lat="43.5371" lon="5.5206">
        <ele>305</ele>
        <time>2018-02-20T11:06:40.000Z</time>
      </trkpt>
      <trkpt lat="43.5371" lon="5.5206">
        <ele>305</ele>
        <time>2018-02-20T11:06:41.000Z</time>
      </trkpt>
      <trkpt lat="43.53711" lon="5.5206">
        <ele>306</ele>
        <time>2018-02-20T11:06:42.000Z</time>
      </trkpt>
      <trkpt lat="43.53711" lon="5.5206">
        <ele>306</ele>
        <time>2018-02-20T11:06:43.000Z</time>
      </trkpt>
      <trkpt lat="43.53712" lon="5.5206">
        <ele>306</ele>
        <time>2018-02-20T11:06:44.000Z</time>
      </trkpt>
      <trkpt lat="43.53713" lon="5.5206">
        <ele>306</ele>
        <time>2018-02-20T11:06:45.000Z</time>
      </trkpt>
      <trkpt lat="43.53713" lon="5.52059">
        <ele>306</ele>
        <time>2018-02-20T11:06:46.000Z</time>
      </trkpt>
      <trkpt lat="43.53714" lon="5.52059">
        <ele>306</ele>
        <time>2018-02-20T11:06:47.000Z</time>
      </trkpt>
      <trkpt lat="43.53714" lon="5.52059">
        <ele>306</ele>
        <time>2018-02-20T11:06:48.000Z</time>
      </trkpt>
      <trkpt lat="43.53715" lon="5.5206">
        <ele>307</ele>
        <time>2018-02-20T11:06:49.000Z</time>
      </trkpt>
      <trkpt lat="43.53716" lon="5.5206">
        <ele>307</ele>
        <time>2018-02-20T11:06:50.000Z</time>
      </trkpt>
      <trkpt lat="43.53716" lon="5.5206">
        <ele>307</ele>
        <time>2018-02-20T11:06:51.000Z</time>
      </trkpt>
      <trkpt lat="43.53717" lon="5.52061">
        <ele>307</ele>
        <time>2018-02-20T11:06:52.000Z</time>
      </trkpt>
      <trkpt lat="43.53717" lon="5.52061">
        <ele>307</ele>
        <time>2018-02-20T11:06:53.000Z</time>
      </trkpt>
      <trkpt lat="43.53718" lon="5.52061">
        <ele>307</ele>
        <time>2018-02-20T11:06:54.000Z</time>
      </trkpt>
      <trkpt lat="43.53718" lon="5.52061">
        <ele>307</ele>
        <time>2018-02-20T11:06:55.000Z</time>
      </trkpt>
      <trkpt lat="43.53719" lon="5.52061">
        <ele>308</ele>
        <time>2018-02-20T11:06:56.000Z</time>
      </trkpt>
      <trkpt lat="43.53719" lon="5.52062">
        <ele>308</ele>
        <time>2018-02-20T11:06:57.000Z</time>
      </trkpt>
      <trkpt lat="43.5372" lon="5.52062">
        <ele>308</ele>
        <time>2018-02-20T11:06:58.000Z</time>
      </trkpt>
      <trkpt lat="43.53721" lon="5.52062">
        <ele>308</ele>
        <time>2018-02-20T11:06:59.000Z</time>
      </trkpt>
      <trkpt lat="43.53721" lon="5.52063">
        <ele>308</ele>
        <time>2018-02-20T11:07:00.000Z</time>
      </trkpt>
      <trkpt lat="43.53722" lon="5.52063">
        <ele>308</ele>
        <time>2018-02-20T11:07:01.000Z</time>
      </trkpt>
      <trkpt lat="43.53722" lon="5.52064">
        <ele>308</ele>
        <time>2018-02-20T11:07:02.000Z</time>
      </trkpt>
      <trkpt lat="43.53723" lon="5.52064">
        <ele>308</ele>
        <time>2018-02-20T11:07:03.000Z</time>
      </trkpt>
      <trkpt lat="43.53724" lon="5.52064">
        <ele>308</ele>
        <time>2018-02-20T11:07:04.000Z</time>
      </trkpt>
      <trkpt lat="43.53724" lon="5.52064">
        <ele>309</ele>
        <time>2018-02-20T11:07:05.000Z</time>
      </trkpt>
      <trkpt lat="43.53725" lon="5.52065">
        <ele>309</ele>
        <time>2018-02-20T11:07:06.000Z</time>
      </trkpt>
      <trkpt lat="43.53726" lon="5.52065">
        <ele>309</ele>
        <time>2018-02-20T11:07:07.000Z</time>
      </trkpt>
      <trkpt lat="43.53726" lon="5.52066">
        <ele>309</ele>
        <time>2018-02-20T11:07:08.000Z</time>
      </trkpt>
      <trkpt lat="43.53727" lon="5.52066">
        <ele>309</ele>
        <time>2018-02-20T11:07:09.000Z</time>
      </trkpt>
      <trkpt lat="43.53728" lon="5.52066">
        <ele>309</ele>
        <time>2018-02-20T11:07:10.000Z</time>
      </trkpt>
      <trkpt lat="43.53728" lon="5.52066">
        <ele>309</ele>
        <time>2018-02-20T11:07:11.000Z</time>
      </trkpt>
      <trkpt lat="43.53729" lon="5.52066">
        <ele>310</ele>
        <time>2018-02-20T11:07:12.000Z</time>
      </trkpt>
      <trkpt lat="43.5373" lon="5.52067">
        <ele>310</ele>
        <time>2018-02-20T11:07:13.000Z</time>
      </trkpt>
      <trkpt lat="43.53731" lon="5.52067">
        <ele>310</ele>
        <time>2018-02-20T11:07:14.000Z</time>
      </trkpt>
      <trkpt lat="43.53731" lon="5.52068">
        <ele>310</ele>
        <time>2018-02-20T11:07:15.000Z</time>
      </trkpt>
      <trkpt lat="43.53732" lon="5.52068">
        <ele>310</ele>
        <time>2018-02-20T11:07:16.000Z</time>
      </trkpt>
      <trkpt lat="43.53733" lon="5.52069">
        <ele>310</ele>
        <time>2018-02-20T11:07:17.000Z</time>
      </trkpt>
      <trkpt lat="43.53733" lon="5.52069">
        <ele>310</ele>
        <time>2018-02-20T11:07:18.000Z</time>
      </trkpt>
      <trkpt lat="43.53734" lon="5.52069">
        <ele>311</ele>
        <time>2018-02-20T11:07:19.000Z</time>
      </trkpt>
      <trkpt lat="43.53735" lon="5.52069">
        <ele>311</ele>
        <time>2018-02-20T11:07:20.000Z</time>
      </trkpt>
      <trkpt lat="43.53736" lon="5.5207">
        <ele>311</ele>
        <time>2018-02-20T11:07:21.000Z</time>
      </trkpt>
      <trkpt lat="43.53736" lon="5.5207">
        <ele>311</ele>
        <time>2018-02-20T11:07:22.000Z</time>
      </trkpt>
      <trkpt lat="43.53737" lon="5.5207">
        <ele>311</ele>
        <time>2018-02-20T11:07:23.000Z</time>
      </trkpt>
      <trkpt lat="43.53737" lon="5.52071">
        <ele>312</ele>
        <time>2018-02-20T11:07:24.000Z</time>
      </trkpt>
      <trkpt lat="43.53738" lon="5.52071">
        <ele>312</ele>
        <time>2018-02-20T11:07:25.000Z</time>
      </trkpt>
      <trkpt lat="43.53738" lon="5.52071">
        <ele>312</ele>
        <time>2018-02-20T11:07:26.000Z</time>
      </trkpt>
      <trkpt lat="43.53739" lon="5.52072">
        <ele>312</ele>
        <time>2018-02-20T11:07:27.000Z</time>
      </trkpt>
      <trkpt lat="43.5374" lon="5.52073">
        <ele>312</ele>
        <time>2018-02-20T11:07:28.000Z</time>
      </trkpt>
      <trkpt lat="43.5374" lon="5.52073">
        <ele>312</ele>
        <time>2018-02-20T11:07:29.000Z</time>
      </trkpt>
      <trkpt lat="43.5374" lon="5.52073">
        <ele>313</ele>
        <time>2018-02-20T11:07:30.000Z</time>
      </trkpt>
      <trkpt lat="43.53741" lon="5.52073">
        <ele>313</ele>
        <time>2018-02-20T11:07:31.000Z</time>
      </trkpt>
      <trkpt lat="43.53742" lon="5.52073">
        <ele>313</ele>
        <time>2018-02-20T11:07:32.000Z</time>
      </trkpt>
      <trkpt lat="43.53742" lon="5.52074">
        <ele>313</ele>
        <time>2018-02-20T11:07:33.000Z</time>
      </trkpt>
      <trkpt lat="43.53742" lon="5.52074">
        <ele>313</ele>
        <time>2018-02-20T11:07:34.000Z</time>
      </trkpt>
      <trkpt lat="43.53743" lon="5.52073">
        <ele>313</ele>
        <time>2018-02-20T11:07:35.000Z</time>
      </trkpt>
      <trkpt lat="43.53744" lon="5.52074">
        <ele>314</ele>
        <time>2018-02-20T11:07:36.000Z</time>
      </trkpt>
      <trkpt lat="43.53744" lon="5.52074">
        <ele>314</ele>
        <time>2018-02-20T11:07:37.000Z</time>
      </trkpt>
      <trkpt lat="43.53745" lon="5.52074">
        <ele>314</ele>
        <time>2018-02-20T11:07:38.000Z</time>
      </trkpt>
      <trkpt lat="43.53745" lon="5.52075">
        <ele>314</ele>
        <time>2018-02-20T11:07:39.000Z</time>
      </trkpt>
      <trkpt lat="43.53746" lon="5.52075">
        <ele>314</ele>
        <time>2018-02-20T11:07:40.000Z</time>
      </trkpt>
      <trkpt lat="43.53746" lon="5.52075">
        <ele>314</ele>
        <time>2018-02-20T11:07:41.000Z</time>
      </trkpt>
      <trkpt lat="43.53747" lon="5.52075">
        <ele>315</ele>
        <time>2018-02-20T11:07:42.000Z</time>
      </trkpt>
      <trkpt lat="43.53748" lon="5.52076">
        <ele>315</ele>
        <time>2018-02-20T11:07:43.000Z</time>
      </trkpt>
      <trkpt lat="43.53748" lon="5.52076">
        <ele>315</ele>
        <time>2018-02-20T11:07:44.000Z</time>
      </trkpt>
      <trkpt lat="43.53749" lon="5.52076">
        <ele>315</ele>
        <time>2018-02-20T11:07:45.000Z</time>
      </trkpt>
      <trkpt lat="43.5375" lon="5.52076">
        <ele>315</ele>
        <time>2018-02-20T11:07:46.000Z</time>
      </trkpt>
      <trkpt lat="43.5375" lon="5.52077">
        <ele>316</ele>
        <time>2018-02-20T11:07:47.000Z</time>
      </trkpt>
      <trkpt lat="43.53751" lon="5.52077">
        <ele>316</ele>
        <time>2018-02-20T11:07:48.000Z</time>
      </trkpt>
      <trkpt lat="43.53751" lon="5.52077">
        <ele>316</ele>
        <time>2018-02-20T11:07:49.000Z</time>
      </trkpt>
      <trkpt lat="43.53752" lon="5.52078">
        <ele>316</ele>
        <time>2018-02-20T11:07:50.000Z</time>
      </trkpt>
      <trkpt lat="43.53752" lon="5.52078">
        <ele>316</ele>
        <time>2018-02-20T11:07:51.000Z</time>
      </trkpt>
      <trkpt lat="43.53753" lon="5.52078">
        <ele>316</ele>
        <time>2018-02-20T11:07:52.000Z</time>
      </trkpt>
      <trkpt lat="43.53754" lon="5.52078">
        <ele>317</ele>
        <time>2018-02-20T11:07:53.000Z</time>
      </trkpt>
      <trkpt lat="43.53755" lon="5.52078">
        <ele>317</ele>
        <time>2018-02-20T11:07:54.000Z</time>
      </trkpt>
      <trkpt lat="43.53755" lon="5.52078">
        <ele>317</ele>
        <time>2018-02-20T11:07:55.000Z</time>
      </trkpt>
      <trkpt lat="43.53756" lon="5.52078">
        <ele>317</ele>
        <time>2018-02-20T11:07:56.000Z</time>
      </trkpt>
      <trkpt lat="43.53756" lon="5.52078">
        <ele>317</ele>
        <time>2018-02-20T11:07:57.000Z</time>
      </trkpt>
      <trkpt lat="43.53757" lon="5.52078">
        <ele>317</ele>
        <time>2018-02-20T11:07:58.000Z</time>
      </trkpt>
      <trkpt lat="43.53758" lon="5.52079">
        <ele>317</ele>
        <time>2018-02-20T11:07:59.000Z</time>
      </trkpt>
      <trkpt lat="43.53758" lon="5.52079">
        <ele>318</ele>
        <time>2018-02-20T11:08:00.000Z</time>
      </trkpt>
      <trkpt lat="43.53759" lon="5.52079">
        <ele>318</ele>
        <time>2018-02-20T11:08:01.000Z</time>
      </trkpt>
      <trkpt lat="43.53759" lon="5.5208">
        <ele>318</ele>
        <time>2018-02-20T11:08:02.000Z</time>
      </trkpt>
      <trkpt lat="43.5376" lon="5.5208">
        <ele>318</ele>
        <time>2018-02-20T11:08:03.000Z</time>
      </trkpt>
      <trkpt lat="43.53761" lon="5.52081">
        <ele>318</ele>
        <time>2018-02-20T11:08:04.000Z</time>
      </trkpt>
      <trkpt lat="43.53761" lon="5.52081">
        <ele>318</ele>
        <time>2018-02-20T11:08:05.000Z</time>
      </trkpt>
      <trkpt lat="43.53761" lon="5.52081">
        <ele>318</ele>
        <time>2018-02-20T11:08:06.000Z</time>
      </trkpt>
      <trkpt lat="43.53762" lon="5.52081">
        <ele>318</ele>
        <time>2018-02-20T11:08:07.000Z</time>
      </trkpt>
      <trkpt lat="43.53762" lon="5.52082">
        <ele>319</ele>
        <time>2018-02-20T11:08:08.000Z</time>
      </trkpt>
      <trkpt lat="43.53763" lon="5.52082">
        <ele>319</ele>
        <time>2018-02-20T11:08:09.000Z</time>
      </trkpt>
      <trkpt lat="43.53763" lon="5.52082">
        <ele>319</ele>
        <time>2018-02-20T11:08:10.000Z</time>
      </trkpt>
      <trkpt lat="43.53764" lon="5.52082">
        <ele>319</ele>
        <time>2018-02-20T11:08:11.000Z</time>
      </trkpt>
      <trkpt lat="43.53765" lon="5.52082">
        <ele>319</ele>
        <time>2018-02-20T11:08:12.000Z</time>
      </trkpt>
      <trkpt lat="43.53766" lon="5.52083">
        <ele>319</ele>
        <time>2018-02-20T11:08:13.000Z</time>
      </trkpt>
      <trkpt lat="43.53766" lon="5.52083">
        <ele>319</ele>
        <time>2018-02-20T11:08:14.000Z</time>
      </trkpt>
      <trkpt lat="43.53767" lon="5.52083">
        <ele>319</ele>
        <time>2018-02-20T11:08:15.000Z</time>
      </trkpt>
      <trkpt lat="43.53767" lon="5.52083">
        <ele>320</ele>
        <time>2018-02-20T11:08:16.000Z</time>
      </trkpt>
      <trkpt lat="43.53767" lon="5.52083">
        <ele>320</ele>
        <time>2018-02-20T11:08:17.000Z</time>
      </trkpt>
      <trkpt lat="43.53767" lon="5.52083">
        <ele>320</ele>
        <time>2018-02-20T11:08:18.000Z</time>
      </trkpt>
      <trkpt lat="43.53767" lon="5.52083">
        <ele>320</ele>
        <time>2018-02-20T11:08:19.000Z</time>
      </trkpt>
      <trkpt lat="43.53768" lon="5.52083">
        <ele>320</ele>
        <time>2018-02-20T11:08:20.000Z</time>
      </trkpt>
      <trkpt lat="43.53768" lon="5.52083">
        <ele>320</ele>
        <time>2018-02-20T11:08:21.000Z</time>
      </trkpt>
      <trkpt lat="43.53768" lon="5.52083">
        <ele>320</ele>
        <time>2018-02-20T11:08:22.000Z</time>
      </trkpt>
      <trkpt lat="43.53768" lon="5.52083">
        <ele>320</ele>
        <time>2018-02-20T11:08:23.000Z</time>
      </trkpt>
      <trkpt lat="43.53768" lon="5.52083">
        <ele>320</ele>
        <time>2018-02-20T11:08:24.000Z</time>
      </trkpt>
      <trkpt lat="43.53768" lon="5.52083">
        <ele>320</ele>
        <time>2018-02-20T11:08:25.000Z</time>
      </trkpt>
      <trkpt lat="43.53768" lon="5.52083">
        <ele>320</ele>
        <time>2018-02-20T11:08:26.000Z</time>
      </trkpt>
      <trkpt lat="43.53768" lon="5.52083">
        <ele>320</ele>
        <time>2018-02-20T11:08:27.000Z</time>
      </trkpt>
      <trkpt lat="43.53768" lon="5.52083">
        <ele>320</ele>
        <time>2018-02-20T11:08:28.000Z</time>
      </trkpt>
      <trkpt lat="43.53768" lon="5.52083">
        <ele>320</ele>
        <time>2018-02-20T11:08:29.000Z</time>
      </trkpt>
      <trkpt lat="43.53768" lon="5.52083">
        <ele>320</ele>
        <time>2018-02-20T11:08:30.000Z</time>
      </trkpt>
      <trkpt lat="43.53768" lon="5.52083">
        <ele>320</ele>
        <time>2018-02-20T11:08:31.000Z</time>
      </trkpt>
      <trkpt lat="43.53768" lon="5.52083">
        <ele>320</ele>
        <time>2018-02-20T11:08:32.000Z</time>
      </trkpt>
      <trkpt lat="43.53768" lon="5.52083">
        <ele>320</ele>
        <time>2018-02-20T11:08:33.000Z</time>
      </trkpt>
      <trkpt lat="43.53768" lon="5.52083">
        <ele>320</ele>
        <time>2018-02-20T11:08:34.000Z</time>
      </trkpt>
      <trkpt lat="43.53768" lon="5.52083">
        <ele>320</ele>
        <time>2018-02-20T11:08:35.000Z</time>
      </trkpt>
      <trkpt lat="43.53768" lon="5.52083">
        <ele>320</ele>
        <time>2018-02-20T11:08:36.000Z</time>
      </trkpt>
      <trkpt lat="43.53768" lon="5.52083">
        <ele>320</ele>
        <time>2018-02-20T11:08:37.000Z</time>
      </trkpt>
      <trkpt lat="43.53768" lon="5.52082">
        <ele>321</ele>
        <time>2018-02-20T11:08:38.000Z</time>
      </trkpt>
      <trkpt lat="43.53768" lon="5.52082">
        <ele>321</ele>
        <time>2018-02-20T11:08:39.000Z</time>
      </trkpt>
      <trkpt lat="43.53768" lon="5.52082">
        <ele>321</ele>
        <time>2018-02-20T11:08:40.000Z</time>
      </trkpt>
      <trkpt lat="43.53768" lon="5.52082">
        <ele>321</ele>
        <time>2018-02-20T11:08:41.000Z</time>
      </trkpt>
      <trkpt lat="43.53768" lon="5.52083">
        <ele>321</ele>
        <time>2018-02-20T11:08:42.000Z</time>
      </trkpt>
      <trkpt lat="43.53768" lon="5.52083">
        <ele>321</ele>
        <time>2018-02-20T11:08:43.000Z</time>
      </trkpt>
      <trkpt lat="43.53768" lon="5.52083">
        <ele>321</ele>
        <time>2018-02-20T11:08:44.000Z</time>
      </trkpt>
      <trkpt lat="43.53768" lon="5.52083">
        <ele>321</ele>
        <time>2018-02-20T11:08:45.000Z</time>
      </trkpt>
      <trkpt lat="43.53768" lon="5.52083">
        <ele>321</ele>
        <time>2018-02-20T11:08:46.000Z</time>
      </trkpt>
      <trkpt lat="43.53768" lon="5.52083">
        <ele>321</ele>
        <time>2018-02-20T11:08:47.000Z</time>
      </trkpt>
      <trkpt lat="43.53768" lon="5.52083">
        <ele>321</ele>
        <time>2018-02-20T11:08:48.000Z</time>
      </trkpt>
      <trkpt lat="43.53768" lon="5.52082">
        <ele>321</ele>
        <time>2018-02-20T11:08:49.000Z</time>
      </trkpt>
      <trkpt lat="43.53768" lon="5.52082">
        <ele>321</ele>
        <time>2018-02-20T11:08:50.000Z</time>
      </trkpt>
      <trkpt lat="43.53769" lon="5.52083">
        <ele>321</ele>
        <time>2018-02-20T11:08:51.000Z</time>
      </trkpt>
      <trkpt lat="43.53769" lon="5.52083">
        <ele>321</ele>
        <time>2018-02-20T11:08:52.000Z</time>
      </trkpt>
      <trkpt lat="43.5377" lon="5.52082">
        <ele>321</ele>
        <time>2018-02-20T11:08:53.000Z</time>
      </trkpt>
      <trkpt lat="43.53771" lon="5.52082">
        <ele>321</ele>
        <time>2018-02-20T11:08:54.000Z</time>
      </trkpt>
      <trkpt lat="43.53771" lon="5.52082">
        <ele>321</ele>
        <time>2018-02-20T11:08:55.000Z</time>
      </trkpt>
      <trkpt lat="43.53772" lon="5.52082">
        <ele>321</ele>
        <time>2018-02-20T11:08:56.000Z</time>
      </trkpt>
      <trkpt lat="43.53772" lon="5.52082">
        <ele>322</ele>
        <time>2018-02-20T11:08:57.000Z</time>
      </trkpt>
      <trkpt lat="43.53773" lon="5.52081">
        <ele>322</ele>
        <time>2018-02-20T11:08:58.000Z</time>
      </trkpt>
      <trkpt lat="43.53774" lon="5.5208">
        <ele>322</ele>
        <time>2018-02-20T11:08:59.000Z</time>
      </trkpt>
      <trkpt lat="43.53775" lon="5.52081">
        <ele>322</ele>
        <time>2018-02-20T11:09:00.000Z</time>
      </trkpt>
      <trkpt lat="43.53775" lon="5.52081">
        <ele>322</ele>
        <time>2018-02-20T11:09:01.000Z</time>
      </trkpt>
      <trkpt lat="43.53776" lon="5.52081">
        <ele>322</ele>
        <time>2018-02-20T11:09:02.000Z</time>
      </trkpt>
      <trkpt lat="43.53777" lon="5.52081">
        <ele>322</ele>
        <time>2018-02-20T11:09:03.000Z</time>
      </trkpt>
      <trkpt lat="43.53777" lon="5.52081">
        <ele>323</ele>
        <time>2018-02-20T11:09:04.000Z</time>
      </trkpt>
      <trkpt lat="43.53778" lon="5.5208">
        <ele>323</ele>
        <time>2018-02-20T11:09:05.000Z</time>
      </trkpt>
      <trkpt lat="43.53779" lon="5.5208">
        <ele>323</ele>
        <time>2018-02-20T11:09:06.000Z</time>
      </trkpt>
      <trkpt lat="43.5378" lon="5.5208">
        <ele>323</ele>
        <time>2018-02-20T11:09:07.000Z</time>
      </trkpt>
      <trkpt lat="43.5378" lon="5.5208">
        <ele>323</ele>
        <time>2018-02-20T11:09:08.000Z</time>
      </trkpt>
      <trkpt lat="43.53781" lon="5.5208">
        <ele>323</ele>
        <time>2018-02-20T11:09:09.000Z</time>
      </trkpt>
      <trkpt lat="43.53782" lon="5.5208">
        <ele>323</ele>
        <time>2018-02-20T11:09:10.000Z</time>
      </trkpt>
      <trkpt lat="43.53782" lon="5.52081">
        <ele>324</ele>
        <time>2018-02-20T11:09:11.000Z</time>
      </trkpt>
      <trkpt lat="43.53783" lon="5.52081">
        <ele>324</ele>
        <time>2018-02-20T11:09:12.000Z</time>
      </trkpt>
      <trkpt lat="43.53784" lon="5.52082">
        <ele>324</ele>
        <time>2018-02-20T11:09:13.000Z</time>
      </trkpt>
      <trkpt lat="43.53784" lon="5.52082">
        <ele>324</ele>
        <time>2018-02-20T11:09:14.000Z</time>
      </trkpt>
      <trkpt lat="43.53785" lon="5.52082">
        <ele>324</ele>
        <time>2018-02-20T11:09:15.000Z</time>
      </trkpt>
      <trkpt lat="43.53786" lon="5.52082">
        <ele>324</ele>
        <time>2018-02-20T11:09:16.000Z</time>
      </trkpt>
      <trkpt lat="43.53787" lon="5.52082">
        <ele>325</ele>
        <time>2018-02-20T11:09:17.000Z</time>
      </trkpt>
      <trkpt lat="43.53787" lon="5.52082">
        <ele>325</ele>
        <time>2018-02-20T11:09:18.000Z</time>
      </trkpt>
      <trkpt lat="43.53788" lon="5.52082">
        <ele>325</ele>
        <time>2018-02-20T11:09:19.000Z</time>
      </trkpt>
      <trkpt lat="43.53788" lon="5.52083">
        <ele>325</ele>
        <time>2018-02-20T11:09:20.000Z</time>
      </trkpt>
      <trkpt lat="43.53789" lon="5.52083">
        <ele>325</ele>
        <time>2018-02-20T11:09:21.000Z</time>
      </trkpt>
      <trkpt lat="43.53789" lon="5.52084">
        <ele>325</ele>
        <time>2018-02-20T11:09:22.000Z</time>
      </trkpt>
      <trkpt lat="43.5379" lon="5.52085">
        <ele>325</ele>
        <time>2018-02-20T11:09:23.000Z</time>
      </trkpt>
      <trkpt lat="43.53791" lon="5.52085">
        <ele>325</ele>
        <time>2018-02-20T11:09:24.000Z</time>
      </trkpt>
      <trkpt lat="43.53791" lon="5.52086">
        <ele>326</ele>
        <time>2018-02-20T11:09:25.000Z</time>
      </trkpt>
      <trkpt lat="43.53791" lon="5.52086">
        <ele>326</ele>
        <time>2018-02-20T11:09:26.000Z</time>
      </trkpt>
      <trkpt lat="43.53792" lon="5.52087">
        <ele>326</ele>
        <time>2018-02-20T11:09:27.000Z</time>
      </trkpt>
      <trkpt lat="43.53793" lon="5.52088">
        <ele>326</ele>
        <time>2018-02-20T11:09:28.000Z</time>
      </trkpt>
      <trkpt lat="43.53793" lon="5.52089">
        <ele>326</ele>
        <time>2018-02-20T11:09:29.000Z</time>
      </trkpt>
      <trkpt lat="43.53793" lon="5.52089">
        <ele>326</ele>
        <time>2018-02-20T11:09:30.000Z</time>
      </trkpt>
      <trkpt lat="43.53794" lon="5.5209">
        <ele>326</ele>
        <time>2018-02-20T11:09:31.000Z</time>
      </trkpt>
      <trkpt lat="43.53794" lon="5.52091">
        <ele>327</ele>
        <time>2018-02-20T11:09:32.000Z</time>
      </trkpt>
      <trkpt lat="43.53795" lon="5.52091">
        <ele>327</ele>
        <time>2018-02-20T11:09:33.000Z</time>
      </trkpt>
      <trkpt lat="43.53795" lon="5.52092">
        <ele>327</ele>
        <time>2018-02-20T11:09:34.000Z</time>
      </trkpt>
      <trkpt lat="43.53796" lon="5.52093">
        <ele>327</ele>
        <time>2018-02-20T11:09:35.000Z</time>
      </trkpt>
      <trkpt lat="43.53796" lon="5.52094">
        <ele>327</ele>
        <time>2018-02-20T11:09:36.000Z</time>
      </trkpt>
      <trkpt lat="43.53797" lon="5.52095">
        <ele>327</ele>
        <time>2018-02-20T11:09:37.000Z</time>
      </trkpt>
      <trkpt lat="43.53798" lon="5.52095">
        <ele>327</ele>
        <time>2018-02-20T11:09:38.000Z</time>
      </trkpt>
      <trkpt lat="43.53798" lon="5.52096">
        <ele>328</ele>
        <time>2018-02-20T11:09:39.000Z</time>
      </trkpt>
      <trkpt lat="43.53798" lon="5.52097">
        <ele>328</ele>
        <time>2018-02-20T11:09:40.000Z</time>
      </trkpt>
      <trkpt lat="43.53798" lon="5.52098">
        <ele>328</ele>
        <time>2018-02-20T11:09:41.000Z</time>
      </trkpt>
      <trkpt lat="43.53799" lon="5.52099">
        <ele>328</ele>
        <time>2018-02-20T11:09:42.000Z</time>
      </trkpt>
      <trkpt lat="43.53799" lon="5.521">
        <ele>328</ele>
        <time>2018-02-20T11:09:43.000Z</time>
      </trkpt>
      <trkpt lat="43.53799" lon="5.52101">
        <ele>328</ele>
        <time>2018-02-20T11:09:44.000Z</time>
      </trkpt>
      <trkpt lat="43.53799" lon="5.52102">
        <ele>328</ele>
        <time>2018-02-20T11:09:45.000Z</time>
      </trkpt>
      <trkpt lat="43.53799" lon="5.52103">
        <ele>328</ele>
        <time>2018-02-20T11:09:46.000Z</time>
      </trkpt>
      <trkpt lat="43.53798" lon="5.52104">
        <ele>329</ele>
        <time>2018-02-20T11:09:47.000Z</time>
      </trkpt>
      <trkpt lat="43.53798" lon="5.52105">
        <ele>329</ele>
        <time>2018-02-20T11:09:48.000Z</time>
      </trkpt>
      <trkpt lat="43.53798" lon="5.52106">
        <ele>329</ele>
        <time>2018-02-20T11:09:49.000Z</time>
      </trkpt>
      <trkpt lat="43.53798" lon="5.52106">
        <ele>329</ele>
        <time>2018-02-20T11:09:50.000Z</time>
      </trkpt>
      <trkpt lat="43.53798" lon="5.52107">
        <ele>329</ele>
        <time>2018-02-20T11:09:51.000Z</time>
      </trkpt>
      <trkpt lat="43.53798" lon="5.52108">
        <ele>329</ele>
        <time>2018-02-20T11:09:52.000Z</time>
      </trkpt>
      <trkpt lat="43.53798" lon="5.52109">
        <ele>330</ele>
        <time>2018-02-20T11:09:53.000Z</time>
      </trkpt>
      <trkpt lat="43.53798" lon="5.5211">
        <ele>330</ele>
        <time>2018-02-20T11:09:54.000Z</time>
      </trkpt>
      <trkpt lat="43.53798" lon="5.5211">
        <ele>330</ele>
        <time>2018-02-20T11:09:55.000Z</time>
      </trkpt>
      <trkpt lat="43.53798" lon="5.52111">
        <ele>331</ele>
        <time>2018-02-20T11:09:56.000Z</time>
      </trkpt>
      <trkpt lat="43.53798" lon="5.52112">
        <ele>331</ele>
        <time>2018-02-20T11:09:57.000Z</time>
      </trkpt>
      <trkpt lat="43.53798" lon="5.52113">
        <ele>331</ele>
        <time>2018-02-20T11:09:58.000Z</time>
      </trkpt>
      <trkpt lat="43.53799" lon="5.52113">
        <ele>331</ele>
        <time>2018-02-20T11:09:59.000Z</time>
      </trkpt>
      <trkpt lat="43.538" lon="5.52114">
        <ele>331</ele>
        <time>2018-02-20T11:10:00.000Z</time>
      </trkpt>
      <trkpt lat="43.538" lon="5.52114">
        <ele>332</ele>
        <time>2018-02-20T11:10:01.000Z</time>
      </trkpt>
      <trkpt lat="43.538" lon="5.52115">
        <ele>332</ele>
        <time>2018-02-20T11:10:02.000Z</time>
      </trkpt>
      <trkpt lat="43.538" lon="5.52115">
        <ele>332</ele>
        <time>2018-02-20T11:10:03.000Z</time>
      </trkpt>
      <trkpt lat="43.538" lon="5.52115">
        <ele>332</ele>
        <time>2018-02-20T11:10:04.000Z</time>
      </trkpt>
      <trkpt lat="43.538" lon="5.52115">
        <ele>332</ele>
        <time>2018-02-20T11:10:05.000Z</time>
      </trkpt>
      <trkpt lat="43.538" lon="5.52115">
        <ele>332</ele>
        <time>2018-02-20T11:10:06.000Z</time>
      </trkpt>
      <trkpt lat="43.538" lon="5.52115">
        <ele>332</ele>
        <time>2018-02-20T11:10:07.000Z</time>
      </trkpt>
      <trkpt lat="43.538" lon="5.52115">
        <ele>332</ele>
        <time>2018-02-20T11:10:08.000Z</time>
      </trkpt>
      <trkpt lat="43.538" lon="5.52116">
        <ele>332</ele>
        <time>2018-02-20T11:10:09.000Z</time>
      </trkpt>
      <trkpt lat="43.538" lon="5.52117">
        <ele>332</ele>
        <time>2018-02-20T11:10:10.000Z</time>
      </trkpt>
      <trkpt lat="43.538" lon="5.52118">
        <ele>332</ele>
        <time>2018-02-20T11:10:11.000Z</time>
      </trkpt>
      <trkpt lat="43.538" lon="5.52119">
        <ele>333</ele>
        <time>2018-02-20T11:10:12.000Z</time>
      </trkpt>
      <trkpt lat="43.538" lon="5.5212">
        <ele>333</ele>
        <time>2018-02-20T11:10:13.000Z</time>
      </trkpt>
      <trkpt lat="43.538" lon="5.52121">
        <ele>333</ele>
        <time>2018-02-20T11:10:14.000Z</time>
      </trkpt>
      <trkpt lat="43.538" lon="5.52122">
        <ele>333</ele>
        <time>2018-02-20T11:10:15.000Z</time>
      </trkpt>
      <trkpt lat="43.538" lon="5.52123">
        <ele>333</ele>
        <time>2018-02-20T11:10:16.000Z</time>
      </trkpt>
      <trkpt lat="43.538" lon="5.52124">
        <ele>333</ele>
        <time>2018-02-20T11:10:17.000Z</time>
      </trkpt>
      <trkpt lat="43.53799" lon="5.52125">
        <ele>333</ele>
        <time>2018-02-20T11:10:18.000Z</time>
      </trkpt>
      <trkpt lat="43.53799" lon="5.52126">
        <ele>333</ele>
        <time>2018-02-20T11:10:19.000Z</time>
      </trkpt>
      <trkpt lat="43.53799" lon="5.52127">
        <ele>334</ele>
        <time>2018-02-20T11:10:20.000Z</time>
      </trkpt>
      <trkpt lat="43.53798" lon="5.52128">
        <ele>334</ele>
        <time>2018-02-20T11:10:21.000Z</time>
      </trkpt>
      <trkpt lat="43.53798" lon="5.52129">
        <ele>334</ele>
        <time>2018-02-20T11:10:22.000Z</time>
      </trkpt>
      <trkpt lat="43.53798" lon="5.5213">
        <ele>334</ele>
        <time>2018-02-20T11:10:23.000Z</time>
      </trkpt>
      <trkpt lat="43.53798" lon="5.52131">
        <ele>334</ele>
        <time>2018-02-20T11:10:24.000Z</time>
      </trkpt>
      <trkpt lat="43.53797" lon="5.52132">
        <ele>334</ele>
        <time>2018-02-20T11:10:25.000Z</time>
      </trkpt>
      <trkpt lat="43.53797" lon="5.52133">
        <ele>334</ele>
        <time>2018-02-20T11:10:26.000Z</time>
      </trkpt>
      <trkpt lat="43.53797" lon="5.52134">
        <ele>334</ele>
        <time>2018-02-20T11:10:27.000Z</time>
      </trkpt>
      <trkpt lat="43.53797" lon="5.52135">
        <ele>335</ele>
        <time>2018-02-20T11:10:28.000Z</time>
      </trkpt>
      <trkpt lat="43.53797" lon="5.52136">
        <ele>335</ele>
        <time>2018-02-20T11:10:29.000Z</time>
      </trkpt>
      <trkpt lat="43.53796" lon="5.52137">
        <ele>335</ele>
        <time>2018-02-20T11:10:30.000Z</time>
      </trkpt>
      <trkpt lat="43.53796" lon="5.52138">
        <ele>335</ele>
        <time>2018-02-20T11:10:31.000Z</time>
      </trkpt>
      <trkpt lat="43.53795" lon="5.52139">
        <ele>335</ele>
        <time>2018-02-20T11:10:32.000Z</time>
      </trkpt>
      <trkpt lat="43.53794" lon="5.52139">
        <ele>335</ele>
        <time>2018-02-20T11:10:33.000Z</time>
      </trkpt>
      <trkpt lat="43.53794" lon="5.5214">
        <ele>335</ele>
        <time>2018-02-20T11:10:34.000Z</time>
      </trkpt>
      <trkpt lat="43.53794" lon="5.52141">
        <ele>335</ele>
        <time>2018-02-20T11:10:35.000Z</time>
      </trkpt>
      <trkpt lat="43.53793" lon="5.52142">
        <ele>335</ele>
        <time>2018-02-20T11:10:36.000Z</time>
      </trkpt>
      <trkpt lat="43.53793" lon="5.52143">
        <ele>336</ele>
        <time>2018-02-20T11:10:37.000Z</time>
      </trkpt>
      <trkpt lat="43.53793" lon="5.52143">
        <ele>336</ele>
        <time>2018-02-20T11:10:38.000Z</time>
      </trkpt>
      <trkpt lat="43.53793" lon="5.52143">
        <ele>336</ele>
        <time>2018-02-20T11:10:39.000Z</time>
      </trkpt>
      <trkpt lat="43.53793" lon="5.52143">
        <ele>336</ele>
        <time>2018-02-20T11:10:40.000Z</time>
      </trkpt>
      <trkpt lat="43.53793" lon="5.52143">
        <ele>336</ele>
        <time>2018-02-20T11:10:41.000Z</time>
      </trkpt>
      <trkpt lat="43.53793" lon="5.52143">
        <ele>336</ele>
        <time>2018-02-20T11:10:42.000Z</time>
      </trkpt>
      <trkpt lat="43.53793" lon="5.52143">
        <ele>336</ele>
        <time>2018-02-20T11:10:43.000Z</time>
      </trkpt>
      <trkpt lat="43.53793" lon="5.52143">
        <ele>336</ele>
        <time>2018-02-20T11:10:44.000Z</time>
      </trkpt>
      <trkpt lat="43.53793" lon="5.52143">
        <ele>336</ele>
        <time>2018-02-20T11:10:45.000Z</time>
      </trkpt>
      <trkpt lat="43.53793" lon="5.52143">
        <ele>336</ele>
        <time>2018-02-20T11:10:46.000Z</time>
      </trkpt>
      <trkpt lat="43.53793" lon="5.52143">
        <ele>336</ele>
        <time>2018-02-20T11:10:47.000Z</time>
      </trkpt>
      <trkpt lat="43.53793" lon="5.52143">
        <ele>337</ele>
        <time>2018-02-20T11:10:48.000Z</time>
      </trkpt>
      <trkpt lat="43.53793" lon="5.52143">
        <ele>337</ele>
        <time>2018-02-20T11:10:49.000Z</time>
      </trkpt>
      <trkpt lat="43.53793" lon="5.52143">
        <ele>337</ele>
        <time>2018-02-20T11:10:50.000Z</time>
      </trkpt>
      <trkpt lat="43.53793" lon="5.52143">
        <ele>337</ele>
        <time>2018-02-20T11:10:51.000Z</time>
      </trkpt>
      <trkpt lat="43.53793" lon="5.52143">
        <ele>337</ele>
        <time>2018-02-20T11:10:52.000Z</time>
      </trkpt>
      <trkpt lat="43.53793" lon="5.52143">
        <ele>337</ele>
        <time>2018-02-20T11:10:53.000Z</time>
      </trkpt>
      <trkpt lat="43.53793" lon="5.52143">
        <ele>337</ele>
        <time>2018-02-20T11:10:54.000Z</time>
      </trkpt>
      <trkpt lat="43.53793" lon="5.52143">
        <ele>337</ele>
        <time>2018-02-20T11:10:55.000Z</time>
      </trkpt>
      <trkpt lat="43.53793" lon="5.52143">
        <ele>337</ele>
        <time>2018-02-20T11:10:56.000Z</time>
      </trkpt>
      <trkpt lat="43.53793" lon="5.52143">
        <ele>337</ele>
        <time>2018-02-20T11:10:57.000Z</time>
      </trkpt>
      <trkpt lat="43.53793" lon="5.52143">
        <ele>337</ele>
        <time>2018-02-20T11:10:58.000Z</time>
      </trkpt>
      <trkpt lat="43.53793" lon="5.52144">
        <ele>337</ele>
        <time>2018-02-20T11:10:59.000Z</time>
      </trkpt>
      <trkpt lat="43.53793" lon="5.52145">
        <ele>337</ele>
        <time>2018-02-20T11:11:00.000Z</time>
      </trkpt>
      <trkpt lat="43.53793" lon="5.52146">
        <ele>337</ele>
        <time>2018-02-20T11:11:01.000Z</time>
      </trkpt>
      <trkpt lat="43.53793" lon="5.52147">
        <ele>337</ele>
        <time>2018-02-20T11:11:02.000Z</time>
      </trkpt>
      <trkpt lat="43.53793" lon="5.52148">
        <ele>337</ele>
        <time>2018-02-20T11:11:03.000Z</time>
      </trkpt>
      <trkpt lat="43.53793" lon="5.52149">
        <ele>337</ele>
        <time>2018-02-20T11:11:04.000Z</time>
      </trkpt>
      <trkpt lat="43.53793" lon="5.5215">
        <ele>337</ele>
        <time>2018-02-20T11:11:05.000Z</time>
      </trkpt>
      <trkpt lat="43.53792" lon="5.52152">
        <ele>337</ele>
        <time>2018-02-20T11:11:06.000Z</time>
      </trkpt>
      <trkpt lat="43.53793" lon="5.52153">
        <ele>337</ele>
        <time>2018-02-20T11:11:07.000Z</time>
      </trkpt>
      <trkpt lat="43.53793" lon="5.52154">
        <ele>337</ele>
        <time>2018-02-20T11:11:08.000Z</time>
      </trkpt>
      <trkpt lat="43.53793" lon="5.52155">
        <ele>338</ele>
        <time>2018-02-20T11:11:09.000Z</time>
      </trkpt>
      <trkpt lat="43.53794" lon="5.52156">
        <ele>338</ele>
        <time>2018-02-20T11:11:10.000Z</time>
      </trkpt>
      <trkpt lat="43.53794" lon="5.52157">
        <ele>338</ele>
        <time>2018-02-20T11:11:11.000Z</time>
      </trkpt>
      <trkpt lat="43.53794" lon="5.52158">
        <ele>338</ele>
        <time>2018-02-20T11:11:12.000Z</time>
      </trkpt>
      <trkpt lat="43.53795" lon="5.52159">
        <ele>338</ele>
        <time>2018-02-20T11:11:13.000Z</time>
      </trkpt>
      <trkpt lat="43.53795" lon="5.52161">
        <ele>338</ele>
        <time>2018-02-20T11:11:14.000Z</time>
      </trkpt>
      <trkpt lat="43.53795" lon="5.52162">
        <ele>338</ele>
        <time>2018-02-20T11:11:15.000Z</time>
      </trkpt>
      <trkpt lat="43.53795" lon="5.52163">
        <ele>338</ele>
        <time>2018-02-20T11:11:16.000Z</time>
      </trkpt>
      <trkpt lat="43.53795" lon="5.52164">
        <ele>338</ele>
        <time>2018-02-20T11:11:17.000Z</time>
      </trkpt>
      <trkpt lat="43.53795" lon="5.52166">
        <ele>338</ele>
        <time>2018-02-20T11:11:18.000Z</time>
      </trkpt>
      <trkpt lat="43.53795" lon="5.52167">
        <ele>339</ele>
        <time>2018-02-20T11:11:19.000Z</time>
      </trkpt>
      <trkpt lat="43.53795" lon="5.52168">
        <ele>339</ele>
        <time>2018-02-20T11:11:20.000Z</time>
      </trkpt>
      <trkpt lat="43.53795" lon="5.52169">
        <ele>339</ele>
        <time>2018-02-20T11:11:21.000Z</time>
      </trkpt>
      <trkpt lat="43.53795" lon="5.5217">
        <ele>339</ele>
        <time>2018-02-20T11:11:22.000Z</time>
      </trkpt>
      <trkpt lat="43.53795" lon="5.52171">
        <ele>339</ele>
        <time>2018-02-20T11:11:23.000Z</time>
      </trkpt>
      <trkpt lat="43.53795" lon="5.52173">
        <ele>339</ele>
        <time>2018-02-20T11:11:24.000Z</time>
      </trkpt>
      <trkpt lat="43.53795" lon="5.52174">
        <ele>339</ele>
        <time>2018-02-20T11:11:25.000Z</time>
      </trkpt>
      <trkpt lat="43.53795" lon="5.52175">
        <ele>339</ele>
        <time>2018-02-20T11:11:26.000Z</time>
      </trkpt>
      <trkpt lat="43.53795" lon="5.52176">
        <ele>339</ele>
        <time>2018-02-20T11:11:27.000Z</time>
      </trkpt>
      <trkpt lat="43.53795" lon="5.52177">
        <ele>339</ele>
        <time>2018-02-20T11:11:28.000Z</time>
      </trkpt>
      <trkpt lat="43.53795" lon="5.52178">
        <ele>339</ele>
        <time>2018-02-20T11:11:29.000Z</time>
      </trkpt>
      <trkpt lat="43.53795" lon="5.52179">
        <ele>339</ele>
        <time>2018-02-20T11:11:30.000Z</time>
      </trkpt>
      <trkpt lat="43.53795" lon="5.52181">
        <ele>339</ele>
        <time>2018-02-20T11:11:31.000Z</time>
      </trkpt>
      <trkpt lat="43.53795" lon="5.52182">
        <ele>339</ele>
        <time>2018-02-20T11:11:32.000Z</time>
      </trkpt>
      <trkpt lat="43.53795" lon="5.52183">
        <ele>339</ele>
        <time>2018-02-20T11:11:33.000Z</time>
      </trkpt>
      <trkpt lat="43.53796" lon="5.52183">
        <ele>339</ele>
        <time>2018-02-20T11:11:34.000Z</time>
      </trkpt>
      <trkpt lat="43.53796" lon="5.52185">
        <ele>339</ele>
        <time>2018-02-20T11:11:35.000Z</time>
      </trkpt>
      <trkpt lat="43.53796" lon="5.52185">
        <ele>340</ele>
        <time>2018-02-20T11:11:36.000Z</time>
      </trkpt>
      <trkpt lat="43.53796" lon="5.52186">
        <ele>340</ele>
        <time>2018-02-20T11:11:37.000Z</time>
      </trkpt>
      <trkpt lat="43.53797" lon="5.52187">
        <ele>340</ele>
        <time>2018-02-20T11:11:38.000Z</time>
      </trkpt>
      <trkpt lat="43.53797" lon="5.52188">
        <ele>340</ele>
        <time>2018-02-20T11:11:39.000Z</time>
      </trkpt>
      <trkpt lat="43.53797" lon="5.52189">
        <ele>340</ele>
        <time>2018-02-20T11:11:40.000Z</time>
      </trkpt>
      <trkpt lat="43.53797" lon="5.5219">
        <ele>340</ele>
        <time>2018-02-20T11:11:41.000Z</time>
      </trkpt>
      <trkpt lat="43.53798" lon="5.52191">
        <ele>340</ele>
        <time>2018-02-20T11:11:42.000Z</time>
      </trkpt>
      <trkpt lat="43.53798" lon="5.52192">
        <ele>340</ele>
        <time>2018-02-20T11:11:43.000Z</time>
      </trkpt>
      <trkpt lat="43.53798" lon="5.52193">
        <ele>340</ele>
        <time>2018-02-20T11:11:44.000Z</time>
      </trkpt>
      <trkpt lat="43.53799" lon="5.52194">
        <ele>340</ele>
        <time>2018-02-20T11:11:45.000Z</time>
      </trkpt>
      <trkpt lat="43.538" lon="5.52195">
        <ele>340</ele>
        <time>2018-02-20T11:11:46.000Z</time>
      </trkpt>
      <trkpt lat="43.53801" lon="5.52196">
        <ele>340</ele>
        <time>2018-02-20T11:11:47.000Z</time>
      </trkpt>
      <trkpt lat="43.53801" lon="5.52197">
        <ele>340</ele>
        <time>2018-02-20T11:11:48.000Z</time>
      </trkpt>
      <trkpt lat="43.53802" lon="5.52198">
        <ele>340</ele>
        <time>2018-02-20T11:11:49.000Z</time>
      </trkpt>
      <trkpt lat="43.53802" lon="5.52199">
        <ele>340</ele>
        <time>2018-02-20T11:11:50.000Z</time>
      </trkpt>
      <trkpt lat="43.53803" lon="5.52201">
        <ele>340</ele>
        <time>2018-02-20T11:11:51.000Z</time>
      </trkpt>
      <trkpt lat="43.53803" lon="5.52202">
        <ele>340</ele>
        <time>2018-02-20T11:11:52.000Z</time>
      </trkpt>
      <trkpt lat="43.53803" lon="5.52203">
        <ele>340</ele>
        <time>2018-02-20T11:11:53.000Z</time>
      </trkpt>
      <trkpt lat="43.53804" lon="5.52204">
        <ele>340</ele>
        <time>2018-02-20T11:11:54.000Z</time>
      </trkpt>
      <trkpt lat="43.53805" lon="5.52206">
        <ele>340</ele>
        <time>2018-02-20T11:11:55.000Z</time>
      </trkpt>
      <trkpt lat="43.53805" lon="5.52207">
        <ele>340</ele>
        <time>2018-02-20T11:11:56.000Z</time>
      </trkpt>
      <trkpt lat="43.53805" lon="5.52208">
        <ele>340</ele>
        <time>2018-02-20T11:11:57.000Z</time>
      </trkpt>
      <trkpt lat="43.53806" lon="5.5221">
        <ele>340</ele>
        <time>2018-02-20T11:11:58.000Z</time>
      </trkpt>
      <trkpt lat="43.53806" lon="5.52211">
        <ele>340</ele>
        <time>2018-02-20T11:11:59.000Z</time>
      </trkpt>
      <trkpt lat="43.53806" lon="5.52212">
        <ele>340</ele>
        <time>2018-02-20T11:12:00.000Z</time>
      </trkpt>
      <trkpt lat="43.53806" lon="5.52214">
        <ele>340</ele>
        <time>2018-02-20T11:12:01.000Z</time>
      </trkpt>
      <trkpt lat="43.53807" lon="5.52215">
        <ele>340</ele>
        <time>2018-02-20T11:12:02.000Z</time>
      </trkpt>
      <trkpt lat="43.53807" lon="5.52216">
        <ele>340</ele>
        <time>2018-02-20T11:12:03.000Z</time>
      </trkpt>
      <trkpt lat="43.53808" lon="5.52217">
        <ele>340</ele>
        <time>2018-02-20T11:12:04.000Z</time>
      </trkpt>
      <trkpt lat="43.53808" lon="5.52219">
        <ele>340</ele>
        <time>2018-02-20T11:12:05.000Z</time>
      </trkpt>
      <trkpt lat="43.53809" lon="5.5222">
        <ele>340</ele>
        <time>2018-02-20T11:12:06.000Z</time>
      </trkpt>
      <trkpt lat="43.53809" lon="5.52221">
        <ele>340</ele>
        <time>2018-02-20T11:12:07.000Z</time>
      </trkpt>
      <trkpt lat="43.5381" lon="5.52223">
        <ele>340</ele>
        <time>2018-02-20T11:12:08.000Z</time>
      </trkpt>
      <trkpt lat="43.5381" lon="5.52224">
        <ele>340</ele>
        <time>2018-02-20T11:12:09.000Z</time>
      </trkpt>
      <trkpt lat="43.53811" lon="5.52225">
        <ele>340</ele>
        <time>2018-02-20T11:12:10.000Z</time>
      </trkpt>
      <trkpt lat="43.53811" lon="5.52227">
        <ele>340</ele>
        <time>2018-02-20T11:12:11.000Z</time>
      </trkpt>
      <trkpt lat="43.53812" lon="5.52228">
        <ele>340</ele>
        <time>2018-02-20T11:12:12.000Z</time>
      </trkpt>
      <trkpt lat="43.53812" lon="5.52229">
        <ele>340</ele>
        <time>2018-02-20T11:12:13.000Z</time>
      </trkpt>
      <trkpt lat="43.53813" lon="5.5223">
        <ele>340</ele>
        <time>2018-02-20T11:12:14.000Z</time>
      </trkpt>
      <trkpt lat="43.53813" lon="5.52231">
        <ele>340</ele>
        <time>2018-02-20T11:12:15.000Z</time>
      </trkpt>
      <trkpt lat="43.53814" lon="5.52232">
        <ele>340</ele>
        <time>2018-02-20T11:12:16.000Z</time>
      </trkpt>
      <trkpt lat="43.53815" lon="5.52233">
        <ele>340</ele>
        <time>2018-02-20T11:12:17.000Z</time>
      </trkpt>
      <trkpt lat="43.53815" lon="5.52234">
        <ele>340</ele>
        <time>2018-02-20T11:12:18.000Z</time>
      </trkpt>
      <trkpt lat="43.53816" lon="5.52236">
        <ele>340</ele>
        <time>2018-02-20T11:12:19.000Z</time>
      </trkpt>
      <trkpt lat="43.53816" lon="5.52237">
        <ele>340</ele>
        <time>2018-02-20T11:12:20.000Z</time>
      </trkpt>
      <trkpt lat="43.53817" lon="5.52238">
        <ele>340</ele>
        <time>2018-02-20T11:12:21.000Z</time>
      </trkpt>
      <trkpt lat="43.53817" lon="5.52239">
        <ele>340</ele>
        <time>2018-02-20T11:12:22.000Z</time>
      </trkpt>
      <trkpt lat="43.53818" lon="5.5224">
        <ele>340</ele>
        <time>2018-02-20T11:12:23.000Z</time>
      </trkpt>
      <trkpt lat="43.53818" lon="5.5224">
        <ele>340</ele>
        <time>2018-02-20T11:12:24.000Z</time>
      </trkpt>
      <trkpt lat="43.53819" lon="5.52241">
        <ele>340</ele>
        <time>2018-02-20T11:12:25.000Z</time>
      </trkpt>
      <trkpt lat="43.53819" lon="5.52242">
        <ele>340</ele>
        <time>2018-02-20T11:12:26.000Z</time>
      </trkpt>
      <trkpt lat="43.5382" lon="5.52243">
        <ele>340</ele>
        <time>2018-02-20T11:12:27.000Z</time>
      </trkpt>
      <trkpt lat="43.5382" lon="5.52244">
        <ele>340</ele>
        <time>2018-02-20T11:12:28.000Z</time>
      </trkpt>
      <trkpt lat="43.53821" lon="5.52246">
        <ele>340</ele>
        <time>2018-02-20T11:12:29.000Z</time>
      </trkpt>
      <trkpt lat="43.53821" lon="5.52247">
        <ele>340</ele>
        <time>2018-02-20T11:12:30.000Z</time>
      </trkpt>
      <trkpt lat="43.53822" lon="5.52247">
        <ele>340</ele>
        <time>2018-02-20T11:12:31.000Z</time>
      </trkpt>
      <trkpt lat="43.53823" lon="5.52248">
        <ele>340</ele>
        <time>2018-02-20T11:12:32.000Z</time>
      </trkpt>
      <trkpt lat="43.53823" lon="5.52249">
        <ele>340</ele>
        <time>2018-02-20T11:12:33.000Z</time>
      </trkpt>
      <trkpt lat="43.53824" lon="5.5225">
        <ele>340</ele>
        <time>2018-02-20T11:12:34.000Z</time>
      </trkpt>
      <trkpt lat="43.53824" lon="5.5225">
        <ele>340</ele>
        <time>2018-02-20T11:12:35.000Z</time>
      </trkpt>
      <trkpt lat="43.53825" lon="5.5225">
        <ele>340</ele>
        <time>2018-02-20T11:12:36.000Z</time>
      </trkpt>
      <trkpt lat="43.53826" lon="5.5225">
        <ele>340</ele>
        <time>2018-02-20T11:12:37.000Z</time>
      </trkpt>
      <trkpt lat="43.53827" lon="5.52251">
        <ele>340</ele>
        <time>2018-02-20T11:12:38.000Z</time>
      </trkpt>
      <trkpt lat="43.53827" lon="5.52251">
        <ele>340</ele>
        <time>2018-02-20T11:12:39.000Z</time>
      </trkpt>
      <trkpt lat="43.53828" lon="5.52251">
        <ele>340</ele>
        <time>2018-02-20T11:12:40.000Z</time>
      </trkpt>
      <trkpt lat="43.53829" lon="5.52251">
        <ele>340</ele>
        <time>2018-02-20T11:12:41.000Z</time>
      </trkpt>
      <trkpt lat="43.5383" lon="5.52252">
        <ele>340</ele>
        <time>2018-02-20T11:12:42.000Z</time>
      </trkpt>
      <trkpt lat="43.53831" lon="5.52253">
        <ele>340</ele>
        <time>2018-02-20T11:12:43.000Z</time>
      </trkpt>
      <trkpt lat="43.53832" lon="5.52254">
        <ele>340</ele>
        <time>2018-02-20T11:12:44.000Z</time>
      </trkpt>
      <trkpt lat="43.53832" lon="5.52255">
        <ele>340</ele>
        <time>2018-02-20T11:12:45.000Z</time>
      </trkpt>
      <trkpt lat="43.53833" lon="5.52255">
        <ele>340</ele>
        <time>2018-02-20T11:12:46.000Z</time>
      </trkpt>
      <trkpt lat="43.53834" lon="5.52256">
        <ele>340</ele>
        <time>2018-02-20T11:12:47.000Z</time>
      </trkpt>
      <trkpt lat="43.53834" lon="5.52257">
        <ele>340</ele>
        <time>2018-02-20T11:12:48.000Z</time>
      </trkpt>
      <trkpt lat="43.53835" lon="5.52257">
        <ele>340</ele>
        <time>2018-02-20T11:12:49.000Z</time>
      </trkpt>
      <trkpt lat="43.53835" lon="5.52258">
        <ele>340</ele>
        <time>2018-02-20T11:12:50.000Z</time>
      </trkpt>
      <trkpt lat="43.53836" lon="5.52258">
        <ele>340</ele>
        <time>2018-02-20T11:12:51.000Z</time>
      </trkpt>
      <trkpt lat="43.53837" lon="5.52259">
        <ele>340</ele>
        <time>2018-02-20T11:12:52.000Z</time>
      </trkpt>
      <trkpt lat="43.53837" lon="5.5226">
        <ele>340</ele>
        <time>2018-02-20T11:12:53.000Z</time>
      </trkpt>
      <trkpt lat="43.53838" lon="5.52261">
        <ele>340</ele>
        <time>2018-02-20T11:12:54.000Z</time>
      </trkpt>
      <trkpt lat="43.53838" lon="5.52262">
        <ele>340</ele>
        <time>2018-02-20T11:12:55.000Z</time>
      </trkpt>
      <trkpt lat="43.53839" lon="5.52263">
        <ele>340</ele>
        <time>2018-02-20T11:12:56.000Z</time>
      </trkpt>
      <trkpt lat="43.5384" lon="5.52264">
        <ele>340</ele>
        <time>2018-02-20T11:12:57.000Z</time>
      </trkpt>
      <trkpt lat="43.5384" lon="5.52264">
        <ele>340</ele>
        <time>2018-02-20T11:12:58.000Z</time>
      </trkpt>
      <trkpt lat="43.53841" lon="5.52265">
        <ele>340</ele>
        <time>2018-02-20T11:12:59.000Z</time>
      </trkpt>
      <trkpt lat="43.53842" lon="5.52266">
        <ele>340</ele>
        <time>2018-02-20T11:13:00.000Z</time>
      </trkpt>
      <trkpt lat="43.53842" lon="5.52267">
        <ele>340</ele>
        <time>2018-02-20T11:13:01.000Z</time>
      </trkpt>
      <trkpt lat="43.53842" lon="5.52267">
        <ele>340</ele>
        <time>2018-02-20T11:13:02.000Z</time>
      </trkpt>
      <trkpt lat="43.53843" lon="5.52267">
        <ele>340</ele>
        <time>2018-02-20T11:13:03.000Z</time>
      </trkpt>
      <trkpt lat="43.53843" lon="5.52267">
        <ele>340</ele>
        <time>2018-02-20T11:13:04.000Z</time>
      </trkpt>
      <trkpt lat="43.53843" lon="5.52267">
        <ele>340</ele>
        <time>2018-02-20T11:13:05.000Z</time>
      </trkpt>
      <trkpt lat="43.53843" lon="5.52267">
        <ele>340</ele>
        <time>2018-02-20T11:13:06.000Z</time>
      </trkpt>
      <trkpt lat="43.53843" lon="5.52267">
        <ele>340</ele>
        <time>2018-02-20T11:13:07.000Z</time>
      </trkpt>
      <trkpt lat="43.53843" lon="5.52267">
        <ele>340</ele>
        <time>2018-02-20T11:13:08.000Z</time>
      </trkpt>
      <trkpt lat="43.53843" lon="5.52267">
        <ele>340</ele>
        <time>2018-02-20T11:13:09.000Z</time>
      </trkpt>
      <trkpt lat="43.53843" lon="5.52268">
        <ele>340</ele>
        <time>2018-02-20T11:13:10.000Z</time>
      </trkpt>
      <trkpt lat="43.53843" lon="5.52268">
        <ele>340</ele>
        <time>2018-02-20T11:13:11.000Z</time>
      </trkpt>
      <trkpt lat="43.53843" lon="5.52268">
        <ele>340</ele>
        <time>2018-02-20T11:13:12.000Z</time>
      </trkpt>
      <trkpt lat="43.53843" lon="5.52267">
        <ele>340</ele>
        <time>2018-02-20T11:13:13.000Z</time>
      </trkpt>
      <trkpt lat="43.53843" lon="5.52267">
        <ele>340</ele>
        <time>2018-02-20T11:13:14.000Z</time>
      </trkpt>
      <trkpt lat="43.53843" lon="5.52267">
        <ele>340</ele>
        <time>2018-02-20T11:13:15.000Z</time>
      </trkpt>
      <trkpt lat="43.53843" lon="5.52267">
        <ele>340</ele>
        <time>2018-02-20T11:13:16.000Z</time>
      </trkpt>
      <trkpt lat="43.53843" lon="5.52267">
        <ele>340</ele>
        <time>2018-02-20T11:13:17.000Z</time>
      </trkpt>
      <trkpt lat="43.53843" lon="5.52267">
        <ele>340</ele>
        <time>2018-02-20T11:13:18.000Z</time>
      </trkpt>
      <trkpt lat="43.53843" lon="5.52267">
        <ele>340</ele>
        <time>2018-02-20T11:13:19.000Z</time>
      </trkpt>
      <trkpt lat="43.53843" lon="5.52267">
        <ele>340</ele>
        <time>2018-02-20T11:13:20.000Z</time>
      </trkpt>
      <trkpt lat="43.53843" lon="5.52268">
        <ele>340</ele>
        <time>2018-02-20T11:13:21.000Z</time>
      </trkpt>
      <trkpt lat="43.53843" lon="5.52268">
        <ele>340</ele>
        <time>2018-02-20T11:13:22.000Z</time>
      </trkpt>
      <trkpt lat="43.53843" lon="5.52268">
        <ele>340</ele>
        <time>2018-02-20T11:13:23.000Z</time>
      </trkpt>
      <trkpt lat="43.53843" lon="5.52268">
        <ele>340</ele>
        <time>2018-02-20T11:13:24.000Z</time>
      </trkpt>
      <trkpt lat="43.53843" lon="5.52268">
        <ele>340</ele>
        <time>2018-02-20T11:13:25.000Z</time>
      </trkpt>
      <trkpt lat="43.53843" lon="5.52268">
        <ele>340</ele>
        <time>2018-02-20T11:13:26.000Z</time>
      </trkpt>
      <trkpt lat="43.53843" lon="5.52268">
        <ele>340</ele>
        <time>2018-02-20T11:13:27.000Z</time>
      </trkpt>
      <trkpt lat="43.53842" lon="5.52267">
        <ele>340</ele>
        <time>2018-02-20T11:13:28.000Z</time>
      </trkpt>
      <trkpt lat="43.53842" lon="5.52267">
        <ele>340</ele>
        <time>2018-02-20T11:13:29.000Z</time>
      </trkpt>
      <trkpt lat="43.53842" lon="5.52267">
        <ele>340</ele>
        <time>2018-02-20T11:13:30.000Z</time>
      </trkpt>
      <trkpt lat="43.53842" lon="5.52267">
        <ele>340</ele>
        <time>2018-02-20T11:13:31.000Z</time>
      </trkpt>
      <trkpt lat="43.53842" lon="5.52267">
        <ele>340</ele>
        <time>2018-02-20T11:13:32.000Z</time>
      </trkpt>
      <trkpt lat="43.53842" lon="5.52267">
        <ele>340</ele>
        <time>2018-02-20T11:13:33.000Z</time>
      </trkpt>
      <trkpt lat="43.53842" lon="5.52267">
        <ele>340</ele>
        <time>2018-02-20T11:13:34.000Z</time>
      </trkpt>
      <trkpt lat="43.53842" lon="5.52267">
        <ele>340</ele>
        <time>2018-02-20T11:13:35.000Z</time>
      </trkpt>
      <trkpt lat="43.53843" lon="5.52267">
        <ele>340</ele>
        <time>2018-02-20T11:13:36.000Z</time>
      </trkpt>
      <trkpt lat="43.53843" lon="5.52267">
        <ele>340</ele>
        <time>2018-02-20T11:13:37.000Z</time>
      </trkpt>
      <trkpt lat="43.53842" lon="5.52267">
        <ele>340</ele>
        <time>2018-02-20T11:13:38.000Z</time>
      </trkpt>
      <trkpt lat="43.53842" lon="5.52268">
        <ele>340</ele>
        <time>2018-02-20T11:13:39.000Z</time>
      </trkpt>
      <trkpt lat="43.53842" lon="5.52268">
        <ele>340</ele>
        <time>2018-02-20T11:13:40.000Z</time>
      </trkpt>
      <trkpt lat="43.53842" lon="5.52268">
        <ele>341</ele>
        <time>2018-02-20T11:13:41.000Z</time>
      </trkpt>
      <trkpt lat="43.53842" lon="5.52268">
        <ele>341</ele>
        <time>2018-02-20T11:13:42.000Z</time>
      </trkpt>
      <trkpt lat="43.53842" lon="5.52268">
        <ele>341</ele>
        <time>2018-02-20T11:13:43.000Z</time>
      </trkpt>
      <trkpt lat="43.53843" lon="5.52268">
        <ele>341</ele>
        <time>2018-02-20T11:13:44.000Z</time>
      </trkpt>
      <trkpt lat="43.53843" lon="5.52267">
        <ele>341</ele>
        <time>2018-02-20T11:13:45.000Z</time>
      </trkpt>
      <trkpt lat="43.53843" lon="5.52267">
        <ele>341</ele>
        <time>2018-02-20T11:13:46.000Z</time>
      </trkpt>
      <trkpt lat="43.53843" lon="5.52267">
        <ele>341</ele>
        <time>2018-02-20T11:13:47.000Z</time>
      </trkpt>
      <trkpt lat="43.53843" lon="5.52268">
        <ele>341</ele>
        <time>2018-02-20T11:13:48.000Z</time>
      </trkpt>
      <trkpt lat="43.53843" lon="5.52267">
        <ele>341</ele>
        <time>2018-02-20T11:13:49.000Z</time>
      </trkpt>
      <trkpt lat="43.53843" lon="5.52268">
        <ele>341</ele>
        <time>2018-02-20T11:13:50.000Z</time>
      </trkpt>
      <trkpt lat="43.53843" lon="5.52268">
        <ele>341</ele>
        <time>2018-02-20T11:13:51.000Z</time>
      </trkpt>
      <trkpt lat="43.53843" lon="5.52268">
        <ele>341</ele>
        <time>2018-02-20T11:13:52.000Z</time>
      </trkpt>
      <trkpt lat="43.53843" lon="5.52268">
        <ele>341</ele>
        <time>2018-02-20T11:13:53.000Z</time>
      </trkpt>
      <trkpt lat="43.53843" lon="5.52268">
        <ele>341</ele>
        <time>2018-02-20T11:13:54.000Z</time>
      </trkpt>
      <trkpt lat="43.53843" lon="5.52268">
        <ele>341</ele>
        <time>2018-02-20T11:13:55.000Z</time>
      </trkpt>
      <trkpt lat="43.53843" lon="5.52267">
        <ele>341</ele>
        <time>2018-02-20T11:13:56.000Z</time>
      </trkpt>
      <trkpt lat="43.53842" lon="5.52267">
        <ele>341</ele>
        <time>2018-02-20T11:13:57.000Z</time>
      </trkpt>
      <trkpt lat="43.53842" lon="5.52267">
        <ele>341</ele>
        <time>2018-02-20T11:13:58.000Z</time>
      </trkpt>
      <trkpt lat="43.53842" lon="5.52267">
        <ele>341</ele>
        <time>2018-02-20T11:13:59.000Z</time>
      </trkpt>
      <trkpt lat="43.53842" lon="5.52267">
        <ele>341</ele>
        <time>2018-02-20T11:14:00.000Z</time>
      </trkpt>
      <trkpt lat="43.53843" lon="5.52267">
        <ele>341</ele>
        <time>2018-02-20T11:14:01.000Z</time>
      </trkpt>
      <trkpt lat="43.53843" lon="5.52267">
        <ele>341</ele>
        <time>2018-02-20T11:14:02.000Z</time>
      </trkpt>
      <trkpt lat="43.53843" lon="5.52267">
        <ele>341</ele>
        <time>2018-02-20T11:14:03.000Z</time>
      </trkpt>
      <trkpt lat="43.53843" lon="5.52267">
        <ele>341</ele>
        <time>2018-02-20T11:14:04.000Z</time>
      </trkpt>
      <trkpt lat="43.53843" lon="5.52267">
        <ele>341</ele>
        <time>2018-02-20T11:14:05.000Z</time>
      </trkpt>
      <trkpt lat="43.53843" lon="5.52267">
        <ele>340</ele>
        <time>2018-02-20T11:14:06.000Z</time>
      </trkpt>
      <trkpt lat="43.53843" lon="5.52267">
        <ele>340</ele>
        <time>2018-02-20T11:14:07.000Z</time>
      </trkpt>
      <trkpt lat="43.53843" lon="5.52267">
        <ele>340</ele>
        <time>2018-02-20T11:14:08.000Z</time>
      </trkpt>
      <trkpt lat="43.53843" lon="5.52267">
        <ele>340</ele>
        <time>2018-02-20T11:14:09.000Z</time>
      </trkpt>
      <trkpt lat="43.53843" lon="5.52267">
        <ele>340</ele>
        <time>2018-02-20T11:14:10.000Z</time>
      </trkpt>
      <trkpt lat="43.53843" lon="5.52267">
        <ele>340</ele>
        <time>2018-02-20T11:14:11.000Z</time>
      </trkpt>
      <trkpt lat="43.53843" lon="5.52267">
        <ele>340</ele>
        <time>2018-02-20T11:14:12.000Z</time>
      </trkpt>
      <trkpt lat="43.53843" lon="5.52267">
        <ele>340</ele>
        <time>2018-02-20T11:14:13.000Z</time>
      </trkpt>
      <trkpt lat="43.53843" lon="5.52267">
        <ele>340</ele>
        <time>2018-02-20T11:14:14.000Z</time>
      </trkpt>
      <trkpt lat="43.53843" lon="5.52267">
        <ele>340</ele>
        <time>2018-02-20T11:14:15.000Z</time>
      </trkpt>
      <trkpt lat="43.53843" lon="5.52267">
        <ele>340</ele>
        <time>2018-02-20T11:14:16.000Z</time>
      </trkpt>
      <trkpt lat="43.53843" lon="5.52267">
        <ele>340</ele>
        <time>2018-02-20T11:14:17.000Z</time>
      </trkpt>
      <trkpt lat="43.53843" lon="5.52267">
        <ele>340</ele>
        <time>2018-02-20T11:14:18.000Z</time>
      </trkpt>
      <trkpt lat="43.53843" lon="5.52267">
        <ele>340</ele>
        <time>2018-02-20T11:14:19.000Z</time>
      </trkpt>
      <trkpt lat="43.53843" lon="5.52267">
        <ele>340</ele>
        <time>2018-02-20T11:14:20.000Z</time>
      </trkpt>
      <trkpt lat="43.53843" lon="5.52267">
        <ele>340</ele>
        <time>2018-02-20T11:14:21.000Z</time>
      </trkpt>
      <trkpt lat="43.53843" lon="5.52267">
        <ele>340</ele>
        <time>2018-02-20T11:14:22.000Z</time>
      </trkpt>
      <trkpt lat="43.53843" lon="5.52267">
        <ele>340</ele>
        <time>2018-02-20T11:14:23.000Z</time>
      </trkpt>
      <trkpt lat="43.53843" lon="5.52267">
        <ele>340</ele>
        <time>2018-02-20T11:14:24.000Z</time>
      </trkpt>
      <trkpt lat="43.53843" lon="5.52267">
        <ele>340</ele>
        <time>2018-02-20T11:14:25.000Z</time>
      </trkpt>
      <trkpt lat="43.53843" lon="5.52267">
        <ele>340</ele>
        <time>2018-02-20T11:14:26.000Z</time>
      </trkpt>
      <trkpt lat="43.53843" lon="5.52267">
        <ele>340</ele>
        <time>2018-02-20T11:14:27.000Z</time>
      </trkpt>
      <trkpt lat="43.53843" lon="5.52267">
        <ele>340</ele>
        <time>2018-02-20T11:14:28.000Z</time>
      </trkpt>
      <trkpt lat="43.53843" lon="5.52267">
        <ele>340</ele>
        <time>2018-02-20T11:14:29.000Z</time>
      </trkpt>
      <trkpt lat="43.53844" lon="5.52267">
        <ele>340</ele>
        <time>2018-02-20T11:14:30.000Z</time>
      </trkpt>
      <trkpt lat="43.53844" lon="5.52267">
        <ele>340</ele>
        <time>2018-02-20T11:14:31.000Z</time>
      </trkpt>
      <trkpt lat="43.53844" lon="5.52267">
        <ele>340</ele>
        <time>2018-02-20T11:14:32.000Z</time>
      </trkpt>
      <trkpt lat="43.53844" lon="5.52267">
        <ele>340</ele>
        <time>2018-02-20T11:14:33.000Z</time>
      </trkpt>
      <trkpt lat="43.53843" lon="5.52266">
        <ele>340</ele>
        <time>2018-02-20T11:14:34.000Z</time>
      </trkpt>
      <trkpt lat="43.53843" lon="5.52266">
        <ele>340</ele>
        <time>2018-02-20T11:14:35.000Z</time>
      </trkpt>
      <trkpt lat="43.53843" lon="5.52266">
        <ele>340</ele>
        <time>2018-02-20T11:14:36.000Z</time>
      </trkpt>
      <trkpt lat="43.53843" lon="5.52266">
        <ele>340</ele>
        <time>2018-02-20T11:14:37.000Z</time>
      </trkpt>
      <trkpt lat="43.53843" lon="5.52266">
        <ele>340</ele>
        <time>2018-02-20T11:14:38.000Z</time>
      </trkpt>
      <trkpt lat="43.53843" lon="5.52267">
        <ele>340</ele>
        <time>2018-02-20T11:14:39.000Z</time>
      </trkpt>
      <trkpt lat="43.53843" lon="5.52268">
        <ele>340</ele>
        <time>2018-02-20T11:14:40.000Z</time>
      </trkpt>
      <trkpt lat="43.53843" lon="5.52268">
        <ele>340</ele>
        <time>2018-02-20T11:14:41.000Z</time>
      </trkpt>
      <trkpt lat="43.53843" lon="5.52268">
        <ele>340</ele>
        <time>2018-02-20T11:14:42.000Z</time>
      </trkpt>
      <trkpt lat="43.53843" lon="5.52268">
        <ele>340</ele>
        <time>2018-02-20T11:14:43.000Z</time>
      </trkpt>
      <trkpt lat="43.53843" lon="5.52268">
        <ele>340</ele>
        <time>2018-02-20T11:14:44.000Z</time>
      </trkpt>
      <trkpt lat="43.53843" lon="5.52268">
        <ele>340</ele>
        <time>2018-02-20T11:14:45.000Z</time>
      </trkpt>
      <trkpt lat="43.53843" lon="5.52268">
        <ele>340</ele>
        <time>2018-02-20T11:14:46.000Z</time>
      </trkpt>
      <trkpt lat="43.53843" lon="5.52269">
        <ele>340</ele>
        <time>2018-02-20T11:14:47.000Z</time>
      </trkpt>
      <trkpt lat="43.53843" lon="5.52269">
        <ele>340</ele>
        <time>2018-02-20T11:14:48.000Z</time>
      </trkpt>
      <trkpt lat="43.53843" lon="5.52269">
        <ele>340</ele>
        <time>2018-02-20T11:14:49.000Z</time>
      </trkpt>
      <trkpt lat="43.53843" lon="5.52269">
        <ele>340</ele>
        <time>2018-02-20T11:14:50.000Z</time>
      </trkpt>
      <trkpt lat="43.53843" lon="5.52268">
        <ele>340</ele>
        <time>2018-02-20T11:14:51.000Z</time>
      </trkpt>
      <trkpt lat="43.53843" lon="5.52268">
        <ele>340</ele>
        <time>2018-02-20T11:14:52.000Z</time>
      </trkpt>
      <trkpt lat="43.53843" lon="5.52268">
        <ele>340</ele>
        <time>2018-02-20T11:14:53.000Z</time>
      </trkpt>
      <trkpt lat="43.53843" lon="5.52268">
        <ele>340</ele>
        <time>2018-02-20T11:14:54.000Z</time>
      </trkpt>
      <trkpt lat="43.53843" lon="5.52268">
        <ele>340</ele>
        <time>2018-02-20T11:14:55.000Z</time>
      </trkpt>
      <trkpt lat="43.53844" lon="5.52268">
        <ele>340</ele>
        <time>2018-02-20T11:14:56.000Z</time>
      </trkpt>
      <trkpt lat="43.53843" lon="5.52268">
        <ele>340</ele>
        <time>2018-02-20T11:14:57.000Z</time>
      </trkpt>
      <trkpt lat="43.53843" lon="5.52268">
        <ele>340</ele>
        <time>2018-02-20T11:14:58.000Z</time>
      </trkpt>
      <trkpt lat="43.53844" lon="5.52268">
        <ele>340</ele>
        <time>2018-02-20T11:14:59.000Z</time>
      </trkpt>
      <trkpt lat="43.53844" lon="5.52268">
        <ele>340</ele>
        <time>2018-02-20T11:15:00.000Z</time>
      </trkpt>
      <trkpt lat="43.53844" lon="5.52268">
        <ele>340</ele>
        <time>2018-02-20T11:15:01.000Z</time>
      </trkpt>
      <trkpt lat="43.53845" lon="5.52269">
        <ele>340</ele>
        <time>2018-02-20T11:15:02.000Z</time>
      </trkpt>
      <trkpt lat="43.53846" lon="5.5227">
        <ele>339</ele>
        <time>2018-02-20T11:15:03.000Z</time>
      </trkpt>
      <trkpt lat="43.53846" lon="5.52271">
        <ele>339</ele>
        <time>2018-02-20T11:15:04.000Z</time>
      </trkpt>
      <trkpt lat="43.53847" lon="5.52272">
        <ele>339</ele>
        <time>2018-02-20T11:15:05.000Z</time>
      </trkpt>
      <trkpt lat="43.53848" lon="5.52273">
        <ele>339</ele>
        <time>2018-02-20T11:15:06.000Z</time>
      </trkpt>
      <trkpt lat="43.53848" lon="5.52274">
        <ele>339</ele>
        <time>2018-02-20T11:15:07.000Z</time>
      </trkpt>
      <trkpt lat="43.53849" lon="5.52275">
        <ele>339</ele>
        <time>2018-02-20T11:15:08.000Z</time>
      </trkpt>
      <trkpt lat="43.5385" lon="5.52276">
        <ele>339</ele>
        <time>2018-02-20T11:15:09.000Z</time>
      </trkpt>
      <trkpt lat="43.5385" lon="5.52277">
        <ele>339</ele>
        <time>2018-02-20T11:15:10.000Z</time>
      </trkpt>
      <trkpt lat="43.53851" lon="5.52278">
        <ele>339</ele>
        <time>2018-02-20T11:15:11.000Z</time>
      </trkpt>
      <trkpt lat="43.53852" lon="5.52278">
        <ele>339</ele>
        <time>2018-02-20T11:15:12.000Z</time>
      </trkpt>
      <trkpt lat="43.53853" lon="5.52279">
        <ele>339</ele>
        <time>2018-02-20T11:15:13.000Z</time>
      </trkpt>
      <trkpt lat="43.53854" lon="5.5228">
        <ele>339</ele>
        <time>2018-02-20T11:15:14.000Z</time>
      </trkpt>
      <trkpt lat="43.53855" lon="5.52281">
        <ele>339</ele>
        <time>2018-02-20T11:15:15.000Z</time>
      </trkpt>
      <trkpt lat="43.53855" lon="5.52282">
        <ele>339</ele>
        <time>2018-02-20T11:15:16.000Z</time>
      </trkpt>
      <trkpt lat="43.53856" lon="5.52283">
        <ele>339</ele>
        <time>2018-02-20T11:15:17.000Z</time>
      </trkpt>
      <trkpt lat="43.53856" lon="5.52284">
        <ele>339</ele>
        <time>2018-02-20T11:15:18.000Z</time>
      </trkpt>
      <trkpt lat="43.53857" lon="5.52286">
        <ele>339</ele>
        <time>2018-02-20T11:15:19.000Z</time>
      </trkpt>
      <trkpt lat="43.53858" lon="5.52287">
        <ele>339</ele>
        <time>2018-02-20T11:15:20.000Z</time>
      </trkpt>
      <trkpt lat="43.53858" lon="5.52288">
        <ele>339</ele>
        <time>2018-02-20T11:15:21.000Z</time>
      </trkpt>
      <trkpt lat="43.53859" lon="5.5229">
        <ele>339</ele>
        <time>2018-02-20T11:15:22.000Z</time>
      </trkpt>
      <trkpt lat="43.53859" lon="5.5229">
        <ele>339</ele>
        <time>2018-02-20T11:15:23.000Z</time>
      </trkpt>
      <trkpt lat="43.5386" lon="5.52291">
        <ele>339</ele>
        <time>2018-02-20T11:15:24.000Z</time>
      </trkpt>
      <trkpt lat="43.53861" lon="5.52292">
        <ele>339</ele>
        <time>2018-02-20T11:15:25.000Z</time>
      </trkpt>
      <trkpt lat="43.53862" lon="5.52293">
        <ele>339</ele>
        <time>2018-02-20T11:15:26.000Z</time>
      </trkpt>
      <trkpt lat="43.53863" lon="5.52294">
        <ele>339</ele>
        <time>2018-02-20T11:15:27.000Z</time>
      </trkpt>
      <trkpt lat="43.53863" lon="5.52296">
        <ele>339</ele>
        <time>2018-02-20T11:15:28.000Z</time>
      </trkpt>
      <trkpt lat="43.53864" lon="5.52297">
        <ele>339</ele>
        <time>2018-02-20T11:15:29.000Z</time>
      </trkpt>
      <trkpt lat="43.53865" lon="5.52297">
        <ele>339</ele>
        <time>2018-02-20T11:15:30.000Z</time>
      </trkpt>
      <trkpt lat="43.53865" lon="5.52298">
        <ele>339</ele>
        <time>2018-02-20T11:15:31.000Z</time>
      </trkpt>
      <trkpt lat="43.53866" lon="5.523">
        <ele>339</ele>
        <time>2018-02-20T11:15:32.000Z</time>
      </trkpt>
      <trkpt lat="43.53866" lon="5.52301">
        <ele>339</ele>
        <time>2018-02-20T11:15:33.000Z</time>
      </trkpt>
      <trkpt lat="43.53866" lon="5.52303">
        <ele>339</ele>
        <time>2018-02-20T11:15:34.000Z</time>
      </trkpt>
      <trkpt lat="43.53866" lon="5.52304">
        <ele>339</ele>
        <time>2018-02-20T11:15:35.000Z</time>
      </trkpt>
      <trkpt lat="43.53867" lon="5.52305">
        <ele>339</ele>
        <time>2018-02-20T11:15:36.000Z</time>
      </trkpt>
      <trkpt lat="43.53867" lon="5.52306">
        <ele>339</ele>
        <time>2018-02-20T11:15:37.000Z</time>
      </trkpt>
      <trkpt lat="43.53868" lon="5.52307">
        <ele>339</ele>
        <time>2018-02-20T11:15:38.000Z</time>
      </trkpt>
      <trkpt lat="43.53868" lon="5.52307">
        <ele>339</ele>
        <time>2018-02-20T11:15:39.000Z</time>
      </trkpt>
      <trkpt lat="43.53868" lon="5.52307">
        <ele>339</ele>
        <time>2018-02-20T11:15:40.000Z</time>
      </trkpt>
      <trkpt lat="43.53868" lon="5.52308">
        <ele>339</ele>
        <time>2018-02-20T11:15:41.000Z</time>
      </trkpt>
      <trkpt lat="43.53868" lon="5.52309">
        <ele>339</ele>
        <time>2018-02-20T11:15:42.000Z</time>
      </trkpt>
      <trkpt lat="43.53869" lon="5.5231">
        <ele>340</ele>
        <time>2018-02-20T11:15:43.000Z</time>
      </trkpt>
      <trkpt lat="43.53869" lon="5.52311">
        <ele>340</ele>
        <time>2018-02-20T11:15:44.000Z</time>
      </trkpt>
      <trkpt lat="43.5387" lon="5.52312">
        <ele>340</ele>
        <time>2018-02-20T11:15:45.000Z</time>
      </trkpt>
      <trkpt lat="43.5387" lon="5.52314">
        <ele>340</ele>
        <time>2018-02-20T11:15:46.000Z</time>
      </trkpt>
      <trkpt lat="43.5387" lon="5.52315">
        <ele>340</ele>
        <time>2018-02-20T11:15:47.000Z</time>
      </trkpt>
      <trkpt lat="43.53871" lon="5.52316">
        <ele>341</ele>
        <time>2018-02-20T11:15:48.000Z</time>
      </trkpt>
      <trkpt lat="43.53871" lon="5.52316">
        <ele>341</ele>
        <time>2018-02-20T11:15:49.000Z</time>
      </trkpt>
      <trkpt lat="43.53871" lon="5.52317">
        <ele>341</ele>
        <time>2018-02-20T11:15:50.000Z</time>
      </trkpt>
      <trkpt lat="43.53871" lon="5.52319">
        <ele>341</ele>
        <time>2018-02-20T11:15:51.000Z</time>
      </trkpt>
      <trkpt lat="43.53872" lon="5.5232">
        <ele>341</ele>
        <time>2018-02-20T11:15:52.000Z</time>
      </trkpt>
      <trkpt lat="43.53872" lon="5.52322">
        <ele>341</ele>
        <time>2018-02-20T11:15:53.000Z</time>
      </trkpt>
      <trkpt lat="43.53872" lon="5.52323">
        <ele>341</ele>
        <time>2018-02-20T11:15:54.000Z</time>
      </trkpt>
      <trkpt lat="43.53872" lon="5.52324">
        <ele>341</ele>
        <time>2018-02-20T11:15:55.000Z</time>
      </trkpt>
      <trkpt lat="43.53872" lon="5.52326">
        <ele>341</ele>
        <time>2018-02-20T11:15:56.000Z</time>
      </trkpt>
      <trkpt lat="43.53872" lon="5.52327">
        <ele>341</ele>
        <time>2018-02-20T11:15:57.000Z</time>
      </trkpt>
      <trkpt lat="43.53873" lon="5.52328">
        <ele>341</ele>
        <time>2018-02-20T11:15:58.000Z</time>
      </trkpt>
      <trkpt lat="43.53873" lon="5.5233">
        <ele>341</ele>
        <time>2018-02-20T11:15:59.000Z</time>
      </trkpt>
      <trkpt lat="43.53874" lon="5.52331">
        <ele>341</ele>
        <time>2018-02-20T11:16:00.000Z</time>
      </trkpt>
      <trkpt lat="43.53874" lon="5.52332">
        <ele>342</ele>
        <time>2018-02-20T11:16:01.000Z</time>
      </trkpt>
      <trkpt lat="43.53874" lon="5.52333">
        <ele>342</ele>
        <time>2018-02-20T11:16:02.000Z</time>
      </trkpt>
      <trkpt lat="43.53875" lon="5.52335">
        <ele>342</ele>
        <time>2018-02-20T11:16:03.000Z</time>
      </trkpt>
      <trkpt lat="43.53875" lon="5.52336">
        <ele>342</ele>
        <time>2018-02-20T11:16:04.000Z</time>
      </trkpt>
      <trkpt lat="43.53876" lon="5.52337">
        <ele>342</ele>
        <time>2018-02-20T11:16:05.000Z</time>
      </trkpt>
      <trkpt lat="43.53876" lon="5.52338">
        <ele>342</ele>
        <time>2018-02-20T11:16:06.000Z</time>
      </trkpt>
      <trkpt lat="43.53876" lon="5.52339">
        <ele>342</ele>
        <time>2018-02-20T11:16:07.000Z</time>
      </trkpt>
      <trkpt lat="43.53876" lon="5.52341">
        <ele>342</ele>
        <time>2018-02-20T11:16:08.000Z</time>
      </trkpt>
      <trkpt lat="43.53876" lon="5.52343">
        <ele>342</ele>
        <time>2018-02-20T11:16:09.000Z</time>
      </trkpt>
      <trkpt lat="43.53876" lon="5.52344">
        <ele>342</ele>
        <time>2018-02-20T11:16:10.000Z</time>
      </trkpt>
      <trkpt lat="43.53876" lon="5.52345">
        <ele>342</ele>
        <time>2018-02-20T11:16:11.000Z</time>
      </trkpt>
      <trkpt lat="43.53876" lon="5.52347">
        <ele>342</ele>
        <time>2018-02-20T11:16:12.000Z</time>
      </trkpt>
      <trkpt lat="43.53876" lon="5.52348">
        <ele>342</ele>
        <time>2018-02-20T11:16:13.000Z</time>
      </trkpt>
      <trkpt lat="43.53876" lon="5.5235">
        <ele>342</ele>
        <time>2018-02-20T11:16:14.000Z</time>
      </trkpt>
      <trkpt lat="43.53876" lon="5.52352">
        <ele>342</ele>
        <time>2018-02-20T11:16:15.000Z</time>
      </trkpt>
      <trkpt lat="43.53876" lon="5.52353">
        <ele>343</ele>
        <time>2018-02-20T11:16:16.000Z</time>
      </trkpt>
      <trkpt lat="43.53877" lon="5.52354">
        <ele>343</ele>
        <time>2018-02-20T11:16:17.000Z</time>
      </trkpt>
      <trkpt lat="43.53877" lon="5.52356">
        <ele>343</ele>
        <time>2018-02-20T11:16:18.000Z</time>
      </trkpt>
      <trkpt lat="43.53877" lon="5.52357">
        <ele>343</ele>
        <time>2018-02-20T11:16:19.000Z</time>
      </trkpt>
      <trkpt lat="43.53877" lon="5.52359">
        <ele>343</ele>
        <time>2018-02-20T11:16:20.000Z</time>
      </trkpt>
      <trkpt lat="43.53877" lon="5.5236">
        <ele>343</ele>
        <time>2018-02-20T11:16:21.000Z</time>
      </trkpt>
      <trkpt lat="43.53878" lon="5.52361">
        <ele>343</ele>
        <time>2018-02-20T11:16:22.000Z</time>
      </trkpt>
      <trkpt lat="43.53878" lon="5.52363">
        <ele>343</ele>
        <time>2018-02-20T11:16:23.000Z</time>
      </trkpt>
      <trkpt lat="43.53878" lon="5.52364">
        <ele>343</ele>
        <time>2018-02-20T11:16:24.000Z</time>
      </trkpt>
      <trkpt lat="43.53878" lon="5.52365">
        <ele>343</ele>
        <time>2018-02-20T11:16:25.000Z</time>
      </trkpt>
      <trkpt lat="43.53878" lon="5.52367">
        <ele>343</ele>
        <time>2018-02-20T11:16:26.000Z</time>
      </trkpt>
      <trkpt lat="43.53878" lon="5.52368">
        <ele>343</ele>
        <time>2018-02-20T11:16:27.000Z</time>
      </trkpt>
      <trkpt lat="43.53878" lon="5.5237">
        <ele>343</ele>
        <time>2018-02-20T11:16:28.000Z</time>
      </trkpt>
      <trkpt lat="43.53878" lon="5.52372">
        <ele>343</ele>
        <time>2018-02-20T11:16:29.000Z</time>
      </trkpt>
      <trkpt lat="43.53878" lon="5.52373">
        <ele>343</ele>
        <time>2018-02-20T11:16:30.000Z</time>
      </trkpt>
      <trkpt lat="43.53879" lon="5.52374">
        <ele>343</ele>
        <time>2018-02-20T11:16:31.000Z</time>
      </trkpt>
      <trkpt lat="43.53879" lon="5.52376">
        <ele>343</ele>
        <time>2018-02-20T11:16:32.000Z</time>
      </trkpt>
      <trkpt lat="43.53879" lon="5.52377">
        <ele>343</ele>
        <time>2018-02-20T11:16:33.000Z</time>
      </trkpt>
      <trkpt lat="43.5388" lon="5.52379">
        <ele>343</ele>
        <time>2018-02-20T11:16:34.000Z</time>
      </trkpt>
      <trkpt lat="43.5388" lon="5.5238">
        <ele>343</ele>
        <time>2018-02-20T11:16:35.000Z</time>
      </trkpt>
      <trkpt lat="43.53881" lon="5.52381">
        <ele>343</ele>
        <time>2018-02-20T11:16:36.000Z</time>
      </trkpt>
      <trkpt lat="43.53881" lon="5.52382">
        <ele>343</ele>
        <time>2018-02-20T11:16:37.000Z</time>
      </trkpt>
      <trkpt lat="43.53881" lon="5.52383">
        <ele>343</ele>
        <time>2018-02-20T11:16:38.000Z</time>
      </trkpt>
      <trkpt lat="43.53881" lon="5.52384">
        <ele>343</ele>
        <time>2018-02-20T11:16:39.000Z</time>
      </trkpt>
      <trkpt lat="43.53881" lon="5.52384">
        <ele>343</ele>
        <time>2018-02-20T11:16:40.000Z</time>
      </trkpt>
      <trkpt lat="43.53881" lon="5.52385">
        <ele>344</ele>
        <time>2018-02-20T11:16:41.000Z</time>
      </trkpt>
      <trkpt lat="43.53882" lon="5.52385">
        <ele>344</ele>
        <time>2018-02-20T11:16:42.000Z</time>
      </trkpt>
      <trkpt lat="43.53882" lon="5.52385">
        <ele>344</ele>
        <time>2018-02-20T11:16:43.000Z</time>
      </trkpt>
      <trkpt lat="43.53882" lon="5.52387">
        <ele>344</ele>
        <time>2018-02-20T11:16:44.000Z</time>
      </trkpt>
      <trkpt lat="43.53882" lon="5.52388">
        <ele>344</ele>
        <time>2018-02-20T11:16:45.000Z</time>
      </trkpt>
      <trkpt lat="43.53882" lon="5.5239">
        <ele>344</ele>
        <time>2018-02-20T11:16:46.000Z</time>
      </trkpt>
      <trkpt lat="43.53882" lon="5.52391">
        <ele>344</ele>
        <time>2018-02-20T11:16:47.000Z</time>
      </trkpt>
      <trkpt lat="43.53883" lon="5.52393">
        <ele>344</ele>
        <time>2018-02-20T11:16:48.000Z</time>
      </trkpt>
      <trkpt lat="43.53883" lon="5.52395">
        <ele>344</ele>
        <time>2018-02-20T11:16:49.000Z</time>
      </trkpt>
      <trkpt lat="43.53883" lon="5.52396">
        <ele>344</ele>
        <time>2018-02-20T11:16:50.000Z</time>
      </trkpt>
      <trkpt lat="43.53883" lon="5.52398">
        <ele>344</ele>
        <time>2018-02-20T11:16:51.000Z</time>
      </trkpt>
      <trkpt lat="43.53883" lon="5.52399">
        <ele>344</ele>
        <time>2018-02-20T11:16:52.000Z</time>
      </trkpt>
      <trkpt lat="43.53883" lon="5.524">
        <ele>344</ele>
        <time>2018-02-20T11:16:53.000Z</time>
      </trkpt>
      <trkpt lat="43.53884" lon="5.52402">
        <ele>344</ele>
        <time>2018-02-20T11:16:54.000Z</time>
      </trkpt>
      <trkpt lat="43.53884" lon="5.52403">
        <ele>344</ele>
        <time>2018-02-20T11:16:55.000Z</time>
      </trkpt>
      <trkpt lat="43.53884" lon="5.52404">
        <ele>344</ele>
        <time>2018-02-20T11:16:56.000Z</time>
      </trkpt>
      <trkpt lat="43.53884" lon="5.52405">
        <ele>344</ele>
        <time>2018-02-20T11:16:57.000Z</time>
      </trkpt>
      <trkpt lat="43.53884" lon="5.52407">
        <ele>344</ele>
        <time>2018-02-20T11:16:58.000Z</time>
      </trkpt>
      <trkpt lat="43.53884" lon="5.52408">
        <ele>344</ele>
        <time>2018-02-20T11:16:59.000Z</time>
      </trkpt>
      <trkpt lat="43.53884" lon="5.52409">
        <ele>344</ele>
        <time>2018-02-20T11:17:00.000Z</time>
      </trkpt>
      <trkpt lat="43.53884" lon="5.5241">
        <ele>344</ele>
        <time>2018-02-20T11:17:01.000Z</time>
      </trkpt>
      <trkpt lat="43.53885" lon="5.52411">
        <ele>344</ele>
        <time>2018-02-20T11:17:02.000Z</time>
      </trkpt>
      <trkpt lat="43.53885" lon="5.52413">
        <ele>344</ele>
        <time>2018-02-20T11:17:03.000Z</time>
      </trkpt>
      <trkpt lat="43.53885" lon="5.52415">
        <ele>344</ele>
        <time>2018-02-20T11:17:04.000Z</time>
      </trkpt>
      <trkpt lat="43.53885" lon="5.52416">
        <ele>344</ele>
        <time>2018-02-20T11:17:05.000Z</time>
      </trkpt>
      <trkpt lat="43.53886" lon="5.52418">
        <ele>344</ele>
        <time>2018-02-20T11:17:06.000Z</time>
      </trkpt>
      <trkpt lat="43.53886" lon="5.52419">
        <ele>344</ele>
        <time>2018-02-20T11:17:07.000Z</time>
      </trkpt>
      <trkpt lat="43.53887" lon="5.52421">
        <ele>344</ele>
        <time>2018-02-20T11:17:08.000Z</time>
      </trkpt>
      <trkpt lat="43.53887" lon="5.52422">
        <ele>344</ele>
        <time>2018-02-20T11:17:09.000Z</time>
      </trkpt>
      <trkpt lat="43.53887" lon="5.52424">
        <ele>344</ele>
        <time>2018-02-20T11:17:10.000Z</time>
      </trkpt>
      <trkpt lat="43.53887" lon="5.52425">
        <ele>345</ele>
        <time>2018-02-20T11:17:11.000Z</time>
      </trkpt>
      <trkpt lat="43.53887" lon="5.52426">
        <ele>345</ele>
        <time>2018-02-20T11:17:12.000Z</time>
      </trkpt>
      <trkpt lat="43.53887" lon="5.52427">
        <ele>345</ele>
        <time>2018-02-20T11:17:13.000Z</time>
      </trkpt>
      <trkpt lat="43.53887" lon="5.52429">
        <ele>345</ele>
        <time>2018-02-20T11:17:14.000Z</time>
      </trkpt>
      <trkpt lat="43.53887" lon="5.52431">
        <ele>345</ele>
        <time>2018-02-20T11:17:15.000Z</time>
      </trkpt>
      <trkpt lat="43.53887" lon="5.52432">
        <ele>345</ele>
        <time>2018-02-20T11:17:16.000Z</time>
      </trkpt>
      <trkpt lat="43.53887" lon="5.52433">
        <ele>345</ele>
        <time>2018-02-20T11:17:17.000Z</time>
      </trkpt>
      <trkpt lat="43.53887" lon="5.52435">
        <ele>345</ele>
        <time>2018-02-20T11:17:18.000Z</time>
      </trkpt>
      <trkpt lat="43.53887" lon="5.52436">
        <ele>345</ele>
        <time>2018-02-20T11:17:19.000Z</time>
      </trkpt>
      <trkpt lat="43.53886" lon="5.52438">
        <ele>345</ele>
        <time>2018-02-20T11:17:20.000Z</time>
      </trkpt>
      <trkpt lat="43.53886" lon="5.5244">
        <ele>345</ele>
        <time>2018-02-20T11:17:21.000Z</time>
      </trkpt>
      <trkpt lat="43.53886" lon="5.52441">
        <ele>345</ele>
        <time>2018-02-20T11:17:22.000Z</time>
      </trkpt>
      <trkpt lat="43.53886" lon="5.52442">
        <ele>345</ele>
        <time>2018-02-20T11:17:23.000Z</time>
      </trkpt>
      <trkpt lat="43.53886" lon="5.52444">
        <ele>345</ele>
        <time>2018-02-20T11:17:24.000Z</time>
      </trkpt>
      <trkpt lat="43.53886" lon="5.52445">
        <ele>345</ele>
        <time>2018-02-20T11:17:25.000Z</time>
      </trkpt>
      <trkpt lat="43.53886" lon="5.52447">
        <ele>345</ele>
        <time>2018-02-20T11:17:26.000Z</time>
      </trkpt>
      <trkpt lat="43.53886" lon="5.52448">
        <ele>345</ele>
        <time>2018-02-20T11:17:27.000Z</time>
      </trkpt>
      <trkpt lat="43.53886" lon="5.52449">
        <ele>345</ele>
        <time>2018-02-20T11:17:28.000Z</time>
      </trkpt>
      <trkpt lat="43.53886" lon="5.5245">
        <ele>345</ele>
        <time>2018-02-20T11:17:29.000Z</time>
      </trkpt>
      <trkpt lat="43.53887" lon="5.52451">
        <ele>345</ele>
        <time>2018-02-20T11:17:30.000Z</time>
      </trkpt>
      <trkpt lat="43.53888" lon="5.52452">
        <ele>345</ele>
        <time>2018-02-20T11:17:31.000Z</time>
      </trkpt>
      <trkpt lat="43.53888" lon="5.52453">
        <ele>345</ele>
        <time>2018-02-20T11:17:32.000Z</time>
      </trkpt>
      <trkpt lat="43.53889" lon="5.52454">
        <ele>345</ele>
        <time>2018-02-20T11:17:33.000Z</time>
      </trkpt>
      <trkpt lat="43.5389" lon="5.52454">
        <ele>345</ele>
        <time>2018-02-20T11:17:34.000Z</time>
      </trkpt>
      <trkpt lat="43.53891" lon="5.52454">
        <ele>345</ele>
        <time>2018-02-20T11:17:35.000Z</time>
      </trkpt>
      <trkpt lat="43.53891" lon="5.52454">
        <ele>345</ele>
        <time>2018-02-20T11:17:36.000Z</time>
      </trkpt>
      <trkpt lat="43.53892" lon="5.52454">
        <ele>346</ele>
        <time>2018-02-20T11:17:37.000Z</time>
      </trkpt>
      <trkpt lat="43.53893" lon="5.52455">
        <ele>346</ele>
        <time>2018-02-20T11:17:38.000Z</time>
      </trkpt>
      <trkpt lat="43.53893" lon="5.52455">
        <ele>346</ele>
        <time>2018-02-20T11:17:39.000Z</time>
      </trkpt>
      <trkpt lat="43.53894" lon="5.52456">
        <ele>346</ele>
        <time>2018-02-20T11:17:40.000Z</time>
      </trkpt>
      <trkpt lat="43.53894" lon="5.52457">
        <ele>346</ele>
        <time>2018-02-20T11:17:41.000Z</time>
      </trkpt>
      <trkpt lat="43.53895" lon="5.52458">
        <ele>346</ele>
        <time>2018-02-20T11:17:42.000Z</time>
      </trkpt>
      <trkpt lat="43.53895" lon="5.52459">
        <ele>346</ele>
        <time>2018-02-20T11:17:43.000Z</time>
      </trkpt>
      <trkpt lat="43.53895" lon="5.52459">
        <ele>346</ele>
        <time>2018-02-20T11:17:44.000Z</time>
      </trkpt>
      <trkpt lat="43.53895" lon="5.52459">
        <ele>346</ele>
        <time>2018-02-20T11:17:45.000Z</time>
      </trkpt>
      <trkpt lat="43.53895" lon="5.52459">
        <ele>346</ele>
        <time>2018-02-20T11:17:46.000Z</time>
      </trkpt>
      <trkpt lat="43.53895" lon="5.52459">
        <ele>346</ele>
        <time>2018-02-20T11:17:47.000Z</time>
      </trkpt>
      <trkpt lat="43.53895" lon="5.52461">
        <ele>345</ele>
        <time>2018-02-20T11:17:48.000Z</time>
      </trkpt>
      <trkpt lat="43.53896" lon="5.52462">
        <ele>345</ele>
        <time>2018-02-20T11:17:49.000Z</time>
      </trkpt>
      <trkpt lat="43.53897" lon="5.52463">
        <ele>345</ele>
        <time>2018-02-20T11:17:50.000Z</time>
      </trkpt>
      <trkpt lat="43.53897" lon="5.52463">
        <ele>345</ele>
        <time>2018-02-20T11:17:51.000Z</time>
      </trkpt>
      <trkpt lat="43.53898" lon="5.52465">
        <ele>345</ele>
        <time>2018-02-20T11:17:52.000Z</time>
      </trkpt>
      <trkpt lat="43.53899" lon="5.52466">
        <ele>345</ele>
        <time>2018-02-20T11:17:53.000Z</time>
      </trkpt>
      <trkpt lat="43.53899" lon="5.52467">
        <ele>345</ele>
        <time>2018-02-20T11:17:54.000Z</time>
      </trkpt>
      <trkpt lat="43.53899" lon="5.52468">
        <ele>345</ele>
        <time>2018-02-20T11:17:55.000Z</time>
      </trkpt>
      <trkpt lat="43.539" lon="5.52469">
        <ele>345</ele>
        <time>2018-02-20T11:17:56.000Z</time>
      </trkpt>
      <trkpt lat="43.539" lon="5.52471">
        <ele>345</ele>
        <time>2018-02-20T11:17:57.000Z</time>
      </trkpt>
      <trkpt lat="43.539" lon="5.52473">
        <ele>345</ele>
        <time>2018-02-20T11:17:58.000Z</time>
      </trkpt>
      <trkpt lat="43.53901" lon="5.52474">
        <ele>345</ele>
        <time>2018-02-20T11:17:59.000Z</time>
      </trkpt>
      <trkpt lat="43.53901" lon="5.52475">
        <ele>345</ele>
        <time>2018-02-20T11:18:00.000Z</time>
      </trkpt>
      <trkpt lat="43.53902" lon="5.52476">
        <ele>345</ele>
        <time>2018-02-20T11:18:01.000Z</time>
      </trkpt>
      <trkpt lat="43.53903" lon="5.52477">
        <ele>345</ele>
        <time>2018-02-20T11:18:02.000Z</time>
      </trkpt>
      <trkpt lat="43.53904" lon="5.52478">
        <ele>345</ele>
        <time>2018-02-20T11:18:03.000Z</time>
      </trkpt>
      <trkpt lat="43.53905" lon="5.52478">
        <ele>345</ele>
        <time>2018-02-20T11:18:04.000Z</time>
      </trkpt>
      <trkpt lat="43.53906" lon="5.52479">
        <ele>345</ele>
        <time>2018-02-20T11:18:05.000Z</time>
      </trkpt>
      <trkpt lat="43.53907" lon="5.52479">
        <ele>345</ele>
        <time>2018-02-20T11:18:06.000Z</time>
      </trkpt>
      <trkpt lat="43.53908" lon="5.52479">
        <ele>345</ele>
        <time>2018-02-20T11:18:07.000Z</time>
      </trkpt>
      <trkpt lat="43.53908" lon="5.52479">
        <ele>345</ele>
        <time>2018-02-20T11:18:08.000Z</time>
      </trkpt>
      <trkpt lat="43.53909" lon="5.5248">
        <ele>345</ele>
        <time>2018-02-20T11:18:09.000Z</time>
      </trkpt>
      <trkpt lat="43.53909" lon="5.5248">
        <ele>345</ele>
        <time>2018-02-20T11:18:10.000Z</time>
      </trkpt>
      <trkpt lat="43.53909" lon="5.52479">
        <ele>345</ele>
        <time>2018-02-20T11:18:11.000Z</time>
      </trkpt>
      <trkpt lat="43.53909" lon="5.52479">
        <ele>345</ele>
        <time>2018-02-20T11:18:12.000Z</time>
      </trkpt>
      <trkpt lat="43.53909" lon="5.5248">
        <ele>345</ele>
        <time>2018-02-20T11:18:13.000Z</time>
      </trkpt>
      <trkpt lat="43.5391" lon="5.5248">
        <ele>345</ele>
        <time>2018-02-20T11:18:14.000Z</time>
      </trkpt>
      <trkpt lat="43.5391" lon="5.52481">
        <ele>345</ele>
        <time>2018-02-20T11:18:15.000Z</time>
      </trkpt>
      <trkpt lat="43.53911" lon="5.52481">
        <ele>345</ele>
        <time>2018-02-20T11:18:16.000Z</time>
      </trkpt>
      <trkpt lat="43.53911" lon="5.52482">
        <ele>345</ele>
        <time>2018-02-20T11:18:17.000Z</time>
      </trkpt>
      <trkpt lat="43.53912" lon="5.52482">
        <ele>345</ele>
        <time>2018-02-20T11:18:18.000Z</time>
      </trkpt>
      <trkpt lat="43.53913" lon="5.52483">
        <ele>345</ele>
        <time>2018-02-20T11:18:19.000Z</time>
      </trkpt>
      <trkpt lat="43.53913" lon="5.52484">
        <ele>345</ele>
        <time>2018-02-20T11:18:20.000Z</time>
      </trkpt>
      <trkpt lat="43.53914" lon="5.52484">
        <ele>345</ele>
        <time>2018-02-20T11:18:21.000Z</time>
      </trkpt>
      <trkpt lat="43.53915" lon="5.52485">
        <ele>345</ele>
        <time>2018-02-20T11:18:22.000Z</time>
      </trkpt>
      <trkpt lat="43.53916" lon="5.52485">
        <ele>345</ele>
        <time>2018-02-20T11:18:23.000Z</time>
      </trkpt>
      <trkpt lat="43.53917" lon="5.52485">
        <ele>345</ele>
        <time>2018-02-20T11:18:24.000Z</time>
      </trkpt>
      <trkpt lat="43.53918" lon="5.52486">
        <ele>345</ele>
        <time>2018-02-20T11:18:25.000Z</time>
      </trkpt>
      <trkpt lat="43.53919" lon="5.52486">
        <ele>345</ele>
        <time>2018-02-20T11:18:26.000Z</time>
      </trkpt>
      <trkpt lat="43.5392" lon="5.52487">
        <ele>345</ele>
        <time>2018-02-20T11:18:27.000Z</time>
      </trkpt>
      <trkpt lat="43.53921" lon="5.52488">
        <ele>345</ele>
        <time>2018-02-20T11:18:28.000Z</time>
      </trkpt>
      <trkpt lat="43.53922" lon="5.52488">
        <ele>345</ele>
        <time>2018-02-20T11:18:29.000Z</time>
      </trkpt>
      <trkpt lat="43.53923" lon="5.52489">
        <ele>345</ele>
        <time>2018-02-20T11:18:30.000Z</time>
      </trkpt>
      <trkpt lat="43.53923" lon="5.52489">
        <ele>345</ele>
        <time>2018-02-20T11:18:31.000Z</time>
      </trkpt>
      <trkpt lat="43.53924" lon="5.5249">
        <ele>345</ele>
        <time>2018-02-20T11:18:32.000Z</time>
      </trkpt>
      <trkpt lat="43.53925" lon="5.52491">
        <ele>345</ele>
        <time>2018-02-20T11:18:33.000Z</time>
      </trkpt>
      <trkpt lat="43.53926" lon="5.52491">
        <ele>345</ele>
        <time>2018-02-20T11:18:34.000Z</time>
      </trkpt>
      <trkpt lat="43.53927" lon="5.52492">
        <ele>345</ele>
        <time>2018-02-20T11:18:35.000Z</time>
      </trkpt>
      <trkpt lat="43.53928" lon="5.52492">
        <ele>345</ele>
        <time>2018-02-20T11:18:36.000Z</time>
      </trkpt>
      <trkpt lat="43.53929" lon="5.52492">
        <ele>345</ele>
        <time>2018-02-20T11:18:37.000Z</time>
      </trkpt>
      <trkpt lat="43.5393" lon="5.52493">
        <ele>345</ele>
        <time>2018-02-20T11:18:38.000Z</time>
      </trkpt>
      <trkpt lat="43.53931" lon="5.52494">
        <ele>345</ele>
        <time>2018-02-20T11:18:39.000Z</time>
      </trkpt>
      <trkpt lat="43.53932" lon="5.52494">
        <ele>345</ele>
        <time>2018-02-20T11:18:40.000Z</time>
      </trkpt>
      <trkpt lat="43.53933" lon="5.52494">
        <ele>345</ele>
        <time>2018-02-20T11:18:41.000Z</time>
      </trkpt>
      <trkpt lat="43.53934" lon="5.52494">
        <ele>345</ele>
        <time>2018-02-20T11:18:42.000Z</time>
      </trkpt>
      <trkpt lat="43.53934" lon="5.52494">
        <ele>345</ele>
        <time>2018-02-20T11:18:43.000Z</time>
      </trkpt>
      <trkpt lat="43.53935" lon="5.52495">
        <ele>345</ele>
        <time>2018-02-20T11:18:44.000Z</time>
      </trkpt>
      <trkpt lat="43.53935" lon="5.52496">
        <ele>345</ele>
        <time>2018-02-20T11:18:45.000Z</time>
      </trkpt>
      <trkpt lat="43.53936" lon="5.52497">
        <ele>345</ele>
        <time>2018-02-20T11:18:46.000Z</time>
      </trkpt>
      <trkpt lat="43.53936" lon="5.52497">
        <ele>345</ele>
        <time>2018-02-20T11:18:47.000Z</time>
      </trkpt>
      <trkpt lat="43.53937" lon="5.52498">
        <ele>345</ele>
        <time>2018-02-20T11:18:48.000Z</time>
      </trkpt>
      <trkpt lat="43.53937" lon="5.52499">
        <ele>345</ele>
        <time>2018-02-20T11:18:49.000Z</time>
      </trkpt>
      <trkpt lat="43.53937" lon="5.52499">
        <ele>345</ele>
        <time>2018-02-20T11:18:50.000Z</time>
      </trkpt>
      <trkpt lat="43.53938" lon="5.525">
        <ele>344</ele>
        <time>2018-02-20T11:18:51.000Z</time>
      </trkpt>
      <trkpt lat="43.53939" lon="5.52501">
        <ele>344</ele>
        <time>2018-02-20T11:18:52.000Z</time>
      </trkpt>
      <trkpt lat="43.53939" lon="5.52502">
        <ele>344</ele>
        <time>2018-02-20T11:18:53.000Z</time>
      </trkpt>
      <trkpt lat="43.5394" lon="5.52503">
        <ele>344</ele>
        <time>2018-02-20T11:18:54.000Z</time>
      </trkpt>
      <trkpt lat="43.53941" lon="5.52504">
        <ele>344</ele>
        <time>2018-02-20T11:18:55.000Z</time>
      </trkpt>
      <trkpt lat="43.53942" lon="5.52504">
        <ele>344</ele>
        <time>2018-02-20T11:18:56.000Z</time>
      </trkpt>
      <trkpt lat="43.53942" lon="5.52505">
        <ele>344</ele>
        <time>2018-02-20T11:18:57.000Z</time>
      </trkpt>
      <trkpt lat="43.53943" lon="5.52505">
        <ele>344</ele>
        <time>2018-02-20T11:18:58.000Z</time>
      </trkpt>
      <trkpt lat="43.53944" lon="5.52506">
        <ele>344</ele>
        <time>2018-02-20T11:18:59.000Z</time>
      </trkpt>
      <trkpt lat="43.53944" lon="5.52508">
        <ele>344</ele>
        <time>2018-02-20T11:19:00.000Z</time>
      </trkpt>
      <trkpt lat="43.53945" lon="5.52508">
        <ele>344</ele>
        <time>2018-02-20T11:19:01.000Z</time>
      </trkpt>
      <trkpt lat="43.53945" lon="5.52509">
        <ele>344</ele>
        <time>2018-02-20T11:19:02.000Z</time>
      </trkpt>
      <trkpt lat="43.53945" lon="5.5251">
        <ele>343</ele>
        <time>2018-02-20T11:19:03.000Z</time>
      </trkpt>
      <trkpt lat="43.53946" lon="5.52511">
        <ele>343</ele>
        <time>2018-02-20T11:19:04.000Z</time>
      </trkpt>
      <trkpt lat="43.53946" lon="5.52512">
        <ele>343</ele>
        <time>2018-02-20T11:19:05.000Z</time>
      </trkpt>
      <trkpt lat="43.53946" lon="5.52513">
        <ele>343</ele>
        <time>2018-02-20T11:19:06.000Z</time>
      </trkpt>
      <trkpt lat="43.53946" lon="5.52515">
        <ele>343</ele>
        <time>2018-02-20T11:19:07.000Z</time>
      </trkpt>
      <trkpt lat="43.53947" lon="5.52516">
        <ele>343</ele>
        <time>2018-02-20T11:19:08.000Z</time>
      </trkpt>
      <trkpt lat="43.53948" lon="5.52518">
        <ele>343</ele>
        <time>2018-02-20T11:19:09.000Z</time>
      </trkpt>
      <trkpt lat="43.53948" lon="5.52519">
        <ele>343</ele>
        <time>2018-02-20T11:19:10.000Z</time>
      </trkpt>
      <trkpt lat="43.53949" lon="5.52521">
        <ele>343</ele>
        <time>2018-02-20T11:19:11.000Z</time>
      </trkpt>
      <trkpt lat="43.53949" lon="5.52523">
        <ele>343</ele>
        <time>2018-02-20T11:19:12.000Z</time>
      </trkpt>
      <trkpt lat="43.5395" lon="5.52524">
        <ele>343</ele>
        <time>2018-02-20T11:19:13.000Z</time>
      </trkpt>
      <trkpt lat="43.5395" lon="5.52525">
        <ele>343</ele>
        <time>2018-02-20T11:19:14.000Z</time>
      </trkpt>
      <trkpt lat="43.5395" lon="5.52527">
        <ele>343</ele>
        <time>2018-02-20T11:19:15.000Z</time>
      </trkpt>
      <trkpt lat="43.53951" lon="5.52529">
        <ele>343</ele>
        <time>2018-02-20T11:19:16.000Z</time>
      </trkpt>
      <trkpt lat="43.5395" lon="5.52531">
        <ele>343</ele>
        <time>2018-02-20T11:19:17.000Z</time>
      </trkpt>
      <trkpt lat="43.5395" lon="5.52533">
        <ele>343</ele>
        <time>2018-02-20T11:19:18.000Z</time>
      </trkpt>
      <trkpt lat="43.5395" lon="5.52534">
        <ele>343</ele>
        <time>2018-02-20T11:19:19.000Z</time>
      </trkpt>
      <trkpt lat="43.53949" lon="5.52536">
        <ele>343</ele>
        <time>2018-02-20T11:19:20.000Z</time>
      </trkpt>
      <trkpt lat="43.53948" lon="5.52538">
        <ele>343</ele>
        <time>2018-02-20T11:19:21.000Z</time>
      </trkpt>
      <trkpt lat="43.53948" lon="5.52539">
        <ele>343</ele>
        <time>2018-02-20T11:19:22.000Z</time>
      </trkpt>
      <trkpt lat="43.53947" lon="5.5254">
        <ele>343</ele>
        <time>2018-02-20T11:19:23.000Z</time>
      </trkpt>
      <trkpt lat="43.53947" lon="5.52542">
        <ele>343</ele>
        <time>2018-02-20T11:19:24.000Z</time>
      </trkpt>
      <trkpt lat="43.53947" lon="5.52544">
        <ele>343</ele>
        <time>2018-02-20T11:19:25.000Z</time>
      </trkpt>
      <trkpt lat="43.53947" lon="5.52545">
        <ele>343</ele>
        <time>2018-02-20T11:19:26.000Z</time>
      </trkpt>
      <trkpt lat="43.53947" lon="5.52547">
        <ele>343</ele>
        <time>2018-02-20T11:19:27.000Z</time>
      </trkpt>
      <trkpt lat="43.53947" lon="5.52549">
        <ele>344</ele>
        <time>2018-02-20T11:19:28.000Z</time>
      </trkpt>
      <trkpt lat="43.53947" lon="5.52551">
        <ele>344</ele>
        <time>2018-02-20T11:19:29.000Z</time>
      </trkpt>
      <trkpt lat="43.53947" lon="5.52552">
        <ele>344</ele>
        <time>2018-02-20T11:19:30.000Z</time>
      </trkpt>
      <trkpt lat="43.53947" lon="5.52553">
        <ele>344</ele>
        <time>2018-02-20T11:19:31.000Z</time>
      </trkpt>
      <trkpt lat="43.53947" lon="5.52555">
        <ele>344</ele>
        <time>2018-02-20T11:19:32.000Z</time>
      </trkpt>
      <trkpt lat="43.53948" lon="5.52556">
        <ele>344</ele>
        <time>2018-02-20T11:19:33.000Z</time>
      </trkpt>
      <trkpt lat="43.53949" lon="5.52558">
        <ele>344</ele>
        <time>2018-02-20T11:19:34.000Z</time>
      </trkpt>
      <trkpt lat="43.53949" lon="5.52559">
        <ele>344</ele>
        <time>2018-02-20T11:19:35.000Z</time>
      </trkpt>
      <trkpt lat="43.5395" lon="5.52561">
        <ele>344</ele>
        <time>2018-02-20T11:19:36.000Z</time>
      </trkpt>
      <trkpt lat="43.53951" lon="5.52562">
        <ele>344</ele>
        <time>2018-02-20T11:19:37.000Z</time>
      </trkpt>
      <trkpt lat="43.53951" lon="5.52563">
        <ele>344</ele>
        <time>2018-02-20T11:19:38.000Z</time>
      </trkpt>
      <trkpt lat="43.53952" lon="5.52565">
        <ele>344</ele>
        <time>2018-02-20T11:19:39.000Z</time>
      </trkpt>
      <trkpt lat="43.53952" lon="5.52566">
        <ele>344</ele>
        <time>2018-02-20T11:19:40.000Z</time>
      </trkpt>
      <trkpt lat="43.53953" lon="5.52568">
        <ele>344</ele>
        <time>2018-02-20T11:19:41.000Z</time>
      </trkpt>
      <trkpt lat="43.53953" lon="5.5257">
        <ele>344</ele>
        <time>2018-02-20T11:19:42.000Z</time>
      </trkpt>
      <trkpt lat="43.53954" lon="5.52571">
        <ele>343</ele>
        <time>2018-02-20T11:19:43.000Z</time>
      </trkpt>
      <trkpt lat="43.53954" lon="5.52573">
        <ele>343</ele>
        <time>2018-02-20T11:19:44.000Z</time>
      </trkpt>
      <trkpt lat="43.53955" lon="5.52574">
        <ele>343</ele>
        <time>2018-02-20T11:19:45.000Z</time>
      </trkpt>
      <trkpt lat="43.53955" lon="5.52576">
        <ele>343</ele>
        <time>2018-02-20T11:19:46.000Z</time>
      </trkpt>
      <trkpt lat="43.53955" lon="5.52577">
        <ele>343</ele>
        <time>2018-02-20T11:19:47.000Z</time>
      </trkpt>
      <trkpt lat="43.53955" lon="5.52579">
        <ele>343</ele>
        <time>2018-02-20T11:19:48.000Z</time>
      </trkpt>
      <trkpt lat="43.53956" lon="5.5258">
        <ele>343</ele>
        <time>2018-02-20T11:19:49.000Z</time>
      </trkpt>
      <trkpt lat="43.53956" lon="5.52582">
        <ele>343</ele>
        <time>2018-02-20T11:19:50.000Z</time>
      </trkpt>
      <trkpt lat="43.53956" lon="5.52583">
        <ele>343</ele>
        <time>2018-02-20T11:19:51.000Z</time>
      </trkpt>
      <trkpt lat="43.53957" lon="5.52585">
        <ele>343</ele>
        <time>2018-02-20T11:19:52.000Z</time>
      </trkpt>
      <trkpt lat="43.53957" lon="5.52587">
        <ele>343</ele>
        <time>2018-02-20T11:19:53.000Z</time>
      </trkpt>
      <trkpt lat="43.53957" lon="5.52588">
        <ele>343</ele>
        <time>2018-02-20T11:19:54.000Z</time>
      </trkpt>
      <trkpt lat="43.53958" lon="5.5259">
        <ele>343</ele>
        <time>2018-02-20T11:19:55.000Z</time>
      </trkpt>
      <trkpt lat="43.53958" lon="5.52591">
        <ele>343</ele>
        <time>2018-02-20T11:19:56.000Z</time>
      </trkpt>
      <trkpt lat="43.53958" lon="5.52592">
        <ele>343</ele>
        <time>2018-02-20T11:19:57.000Z</time>
      </trkpt>
      <trkpt lat="43.53959" lon="5.52593">
        <ele>343</ele>
        <time>2018-02-20T11:19:58.000Z</time>
      </trkpt>
      <trkpt lat="43.53959" lon="5.52595">
        <ele>343</ele>
        <time>2018-02-20T11:19:59.000Z</time>
      </trkpt>
      <trkpt lat="43.5396" lon="5.52596">
        <ele>343</ele>
        <time>2018-02-20T11:20:00.000Z</time>
      </trkpt>
      <trkpt lat="43.5396" lon="5.52597">
        <ele>343</ele>
        <time>2018-02-20T11:20:01.000Z</time>
      </trkpt>
      <trkpt lat="43.5396" lon="5.52597">
        <ele>343</ele>
        <time>2018-02-20T11:20:02.000Z</time>
      </trkpt>
      <trkpt lat="43.53961" lon="5.52599">
        <ele>343</ele>
        <time>2018-02-20T11:20:03.000Z</time>
      </trkpt>
      <trkpt lat="43.53962" lon="5.526">
        <ele>343</ele>
        <time>2018-02-20T11:20:04.000Z</time>
      </trkpt>
      <trkpt lat="43.53962" lon="5.52601">
        <ele>343</ele>
        <time>2018-02-20T11:20:05.000Z</time>
      </trkpt>
      <trkpt lat="43.53963" lon="5.52603">
        <ele>343</ele>
        <time>2018-02-20T11:20:06.000Z</time>
      </trkpt>
      <trkpt lat="43.53963" lon="5.52604">
        <ele>343</ele>
        <time>2018-02-20T11:20:07.000Z</time>
      </trkpt>
      <trkpt lat="43.53964" lon="5.52606">
        <ele>343</ele>
        <time>2018-02-20T11:20:08.000Z</time>
      </trkpt>
      <trkpt lat="43.53965" lon="5.52607">
        <ele>343</ele>
        <time>2018-02-20T11:20:09.000Z</time>
      </trkpt>
      <trkpt lat="43.53966" lon="5.52609">
        <ele>343</ele>
        <time>2018-02-20T11:20:10.000Z</time>
      </trkpt>
      <trkpt lat="43.53966" lon="5.5261">
        <ele>343</ele>
        <time>2018-02-20T11:20:11.000Z</time>
      </trkpt>
      <trkpt lat="43.53967" lon="5.52612">
        <ele>343</ele>
        <time>2018-02-20T11:20:12.000Z</time>
      </trkpt>
      <trkpt lat="43.53967" lon="5.52613">
        <ele>343</ele>
        <time>2018-02-20T11:20:13.000Z</time>
      </trkpt>
      <trkpt lat="43.53968" lon="5.52614">
        <ele>343</ele>
        <time>2018-02-20T11:20:14.000Z</time>
      </trkpt>
      <trkpt lat="43.53968" lon="5.52616">
        <ele>343</ele>
        <time>2018-02-20T11:20:15.000Z</time>
      </trkpt>
      <trkpt lat="43.53969" lon="5.52617">
        <ele>343</ele>
        <time>2018-02-20T11:20:16.000Z</time>
      </trkpt>
      <trkpt lat="43.53969" lon="5.52619">
        <ele>343</ele>
        <time>2018-02-20T11:20:17.000Z</time>
      </trkpt>
      <trkpt lat="43.53969" lon="5.52621">
        <ele>343</ele>
        <time>2018-02-20T11:20:18.000Z</time>
      </trkpt>
      <trkpt lat="43.53969" lon="5.52623">
        <ele>343</ele>
        <time>2018-02-20T11:20:19.000Z</time>
      </trkpt>
      <trkpt lat="43.53969" lon="5.52624">
        <ele>343</ele>
        <time>2018-02-20T11:20:20.000Z</time>
      </trkpt>
      <trkpt lat="43.53969" lon="5.52626">
        <ele>343</ele>
        <time>2018-02-20T11:20:21.000Z</time>
      </trkpt>
      <trkpt lat="43.53969" lon="5.52627">
        <ele>343</ele>
        <time>2018-02-20T11:20:22.000Z</time>
      </trkpt>
      <trkpt lat="43.53969" lon="5.52629">
        <ele>343</ele>
        <time>2018-02-20T11:20:23.000Z</time>
      </trkpt>
      <trkpt lat="43.53969" lon="5.52631">
        <ele>343</ele>
        <time>2018-02-20T11:20:24.000Z</time>
      </trkpt>
      <trkpt lat="43.53968" lon="5.52633">
        <ele>343</ele>
        <time>2018-02-20T11:20:25.000Z</time>
      </trkpt>
      <trkpt lat="43.53968" lon="5.52635">
        <ele>343</ele>
        <time>2018-02-20T11:20:26.000Z</time>
      </trkpt>
      <trkpt lat="43.53968" lon="5.52636">
        <ele>343</ele>
        <time>2018-02-20T11:20:27.000Z</time>
      </trkpt>
      <trkpt lat="43.53968" lon="5.52638">
        <ele>343</ele>
        <time>2018-02-20T11:20:28.000Z</time>
      </trkpt>
      <trkpt lat="43.53967" lon="5.52639">
        <ele>343</ele>
        <time>2018-02-20T11:20:29.000Z</time>
      </trkpt>
      <trkpt lat="43.53967" lon="5.5264">
        <ele>343</ele>
        <time>2018-02-20T11:20:30.000Z</time>
      </trkpt>
      <trkpt lat="43.53967" lon="5.52642">
        <ele>343</ele>
        <time>2018-02-20T11:20:31.000Z</time>
      </trkpt>
      <trkpt lat="43.53967" lon="5.52644">
        <ele>343</ele>
        <time>2018-02-20T11:20:32.000Z</time>
      </trkpt>
      <trkpt lat="43.53967" lon="5.52645">
        <ele>343</ele>
        <time>2018-02-20T11:20:33.000Z</time>
      </trkpt>
      <trkpt lat="43.53966" lon="5.52646">
        <ele>343</ele>
        <time>2018-02-20T11:20:34.000Z</time>
      </trkpt>
      <trkpt lat="43.53966" lon="5.52648">
        <ele>344</ele>
        <time>2018-02-20T11:20:35.000Z</time>
      </trkpt>
      <trkpt lat="43.53966" lon="5.52649">
        <ele>344</ele>
        <time>2018-02-20T11:20:36.000Z</time>
      </trkpt>
      <trkpt lat="43.53967" lon="5.5265">
        <ele>344</ele>
        <time>2018-02-20T11:20:37.000Z</time>
      </trkpt>
      <trkpt lat="43.53967" lon="5.52652">
        <ele>344</ele>
        <time>2018-02-20T11:20:38.000Z</time>
      </trkpt>
      <trkpt lat="43.53967" lon="5.52653">
        <ele>344</ele>
        <time>2018-02-20T11:20:39.000Z</time>
      </trkpt>
      <trkpt lat="43.53967" lon="5.52654">
        <ele>344</ele>
        <time>2018-02-20T11:20:40.000Z</time>
      </trkpt>
      <trkpt lat="43.53967" lon="5.52655">
        <ele>344</ele>
        <time>2018-02-20T11:20:41.000Z</time>
      </trkpt>
      <trkpt lat="43.53968" lon="5.52656">
        <ele>344</ele>
        <time>2018-02-20T11:20:42.000Z</time>
      </trkpt>
      <trkpt lat="43.53968" lon="5.52658">
        <ele>344</ele>
        <time>2018-02-20T11:20:43.000Z</time>
      </trkpt>
      <trkpt lat="43.53969" lon="5.52659">
        <ele>344</ele>
        <time>2018-02-20T11:20:44.000Z</time>
      </trkpt>
      <trkpt lat="43.5397" lon="5.5266">
        <ele>344</ele>
        <time>2018-02-20T11:20:45.000Z</time>
      </trkpt>
      <trkpt lat="43.5397" lon="5.52661">
        <ele>344</ele>
        <time>2018-02-20T11:20:46.000Z</time>
      </trkpt>
      <trkpt lat="43.53971" lon="5.52662">
        <ele>344</ele>
        <time>2018-02-20T11:20:47.000Z</time>
      </trkpt>
      <trkpt lat="43.53971" lon="5.52664">
        <ele>344</ele>
        <time>2018-02-20T11:20:48.000Z</time>
      </trkpt>
      <trkpt lat="43.53972" lon="5.52666">
        <ele>344</ele>
        <time>2018-02-20T11:20:49.000Z</time>
      </trkpt>
      <trkpt lat="43.53972" lon="5.52667">
        <ele>344</ele>
        <time>2018-02-20T11:20:50.000Z</time>
      </trkpt>
      <trkpt lat="43.53973" lon="5.52669">
        <ele>344</ele>
        <time>2018-02-20T11:20:51.000Z</time>
      </trkpt>
      <trkpt lat="43.53973" lon="5.52671">
        <ele>344</ele>
        <time>2018-02-20T11:20:52.000Z</time>
      </trkpt>
      <trkpt lat="43.53974" lon="5.52672">
        <ele>344</ele>
        <time>2018-02-20T11:20:53.000Z</time>
      </trkpt>
      <trkpt lat="43.53974" lon="5.52674">
        <ele>344</ele>
        <time>2018-02-20T11:20:54.000Z</time>
      </trkpt>
      <trkpt lat="43.53975" lon="5.52675">
        <ele>344</ele>
        <time>2018-02-20T11:20:55.000Z</time>
      </trkpt>
      <trkpt lat="43.53976" lon="5.52677">
        <ele>343</ele>
        <time>2018-02-20T11:20:56.000Z</time>
      </trkpt>
      <trkpt lat="43.53976" lon="5.52678">
        <ele>343</ele>
        <time>2018-02-20T11:20:57.000Z</time>
      </trkpt>
      <trkpt lat="43.53977" lon="5.5268">
        <ele>343</ele>
        <time>2018-02-20T11:20:58.000Z</time>
      </trkpt>
      <trkpt lat="43.53978" lon="5.52681">
        <ele>343</ele>
        <time>2018-02-20T11:20:59.000Z</time>
      </trkpt>
      <trkpt lat="43.53979" lon="5.52683">
        <ele>343</ele>
        <time>2018-02-20T11:21:00.000Z</time>
      </trkpt>
      <trkpt lat="43.53979" lon="5.52684">
        <ele>343</ele>
        <time>2018-02-20T11:21:01.000Z</time>
      </trkpt>
      <trkpt lat="43.5398" lon="5.52686">
        <ele>343</ele>
        <time>2018-02-20T11:21:02.000Z</time>
      </trkpt>
      <trkpt lat="43.5398" lon="5.52687">
        <ele>343</ele>
        <time>2018-02-20T11:21:03.000Z</time>
      </trkpt>
      <trkpt lat="43.53981" lon="5.52689">
        <ele>343</ele>
        <time>2018-02-20T11:21:04.000Z</time>
      </trkpt>
      <trkpt lat="43.53981" lon="5.52691">
        <ele>343</ele>
        <time>2018-02-20T11:21:05.000Z</time>
      </trkpt>
      <trkpt lat="43.53981" lon="5.52692">
        <ele>344</ele>
        <time>2018-02-20T11:21:06.000Z</time>
      </trkpt>
      <trkpt lat="43.53982" lon="5.52694">
        <ele>344</ele>
        <time>2018-02-20T11:21:07.000Z</time>
      </trkpt>
      <trkpt lat="43.53982" lon="5.52696">
        <ele>344</ele>
        <time>2018-02-20T11:21:08.000Z</time>
      </trkpt>
      <trkpt lat="43.53982" lon="5.52697">
        <ele>344</ele>
        <time>2018-02-20T11:21:09.000Z</time>
      </trkpt>
      <trkpt lat="43.53983" lon="5.52699">
        <ele>344</ele>
        <time>2018-02-20T11:21:10.000Z</time>
      </trkpt>
      <trkpt lat="43.53983" lon="5.52701">
        <ele>344</ele>
        <time>2018-02-20T11:21:11.000Z</time>
      </trkpt>
      <trkpt lat="43.53983" lon="5.52703">
        <ele>344</ele>
        <time>2018-02-20T11:21:12.000Z</time>
      </trkpt>
      <trkpt lat="43.53984" lon="5.52704">
        <ele>344</ele>
        <time>2018-02-20T11:21:13.000Z</time>
      </trkpt>
      <trkpt lat="43.53984" lon="5.52706">
        <ele>344</ele>
        <time>2018-02-20T11:21:14.000Z</time>
      </trkpt>
      <trkpt lat="43.53984" lon="5.52707">
        <ele>344</ele>
        <time>2018-02-20T11:21:15.000Z</time>
      </trkpt>
      <trkpt lat="43.53984" lon="5.52709">
        <ele>344</ele>
        <time>2018-02-20T11:21:16.000Z</time>
      </trkpt>
      <trkpt lat="43.53984" lon="5.5271">
        <ele>344</ele>
        <time>2018-02-20T11:21:17.000Z</time>
      </trkpt>
      <trkpt lat="43.53984" lon="5.52712">
        <ele>344</ele>
        <time>2018-02-20T11:21:18.000Z</time>
      </trkpt>
      <trkpt lat="43.53984" lon="5.52713">
        <ele>344</ele>
        <time>2018-02-20T11:21:19.000Z</time>
      </trkpt>
      <trkpt lat="43.53984" lon="5.52715">
        <ele>344</ele>
        <time>2018-02-20T11:21:20.000Z</time>
      </trkpt>
      <trkpt lat="43.53985" lon="5.52716">
        <ele>344</ele>
        <time>2018-02-20T11:21:21.000Z</time>
      </trkpt>
      <trkpt lat="43.53985" lon="5.52718">
        <ele>344</ele>
        <time>2018-02-20T11:21:22.000Z</time>
      </trkpt>
      <trkpt lat="43.53985" lon="5.5272">
        <ele>344</ele>
        <time>2018-02-20T11:21:23.000Z</time>
      </trkpt>
      <trkpt lat="43.53985" lon="5.52722">
        <ele>344</ele>
        <time>2018-02-20T11:21:24.000Z</time>
      </trkpt>
      <trkpt lat="43.53985" lon="5.52723">
        <ele>344</ele>
        <time>2018-02-20T11:21:25.000Z</time>
      </trkpt>
      <trkpt lat="43.53985" lon="5.52725">
        <ele>344</ele>
        <time>2018-02-20T11:21:26.000Z</time>
      </trkpt>
      <trkpt lat="43.53986" lon="5.52727">
        <ele>344</ele>
        <time>2018-02-20T11:21:27.000Z</time>
      </trkpt>
      <trkpt lat="43.53986" lon="5.52729">
        <ele>344</ele>
        <time>2018-02-20T11:21:28.000Z</time>
      </trkpt>
      <trkpt lat="43.53986" lon="5.5273">
        <ele>345</ele>
        <time>2018-02-20T11:21:29.000Z</time>
      </trkpt>
      <trkpt lat="43.53986" lon="5.52732">
        <ele>345</ele>
        <time>2018-02-20T11:21:30.000Z</time>
      </trkpt>
      <trkpt lat="43.53986" lon="5.52734">
        <ele>345</ele>
        <time>2018-02-20T11:21:31.000Z</time>
      </trkpt>
      <trkpt lat="43.53986" lon="5.52735">
        <ele>345</ele>
        <time>2018-02-20T11:21:32.000Z</time>
      </trkpt>
      <trkpt lat="43.53987" lon="5.52737">
        <ele>345</ele>
        <time>2018-02-20T11:21:33.000Z</time>
      </trkpt>
      <trkpt lat="43.53987" lon="5.52738">
        <ele>345</ele>
        <time>2018-02-20T11:21:34.000Z</time>
      </trkpt>
      <trkpt lat="43.53988" lon="5.5274">
        <ele>345</ele>
        <time>2018-02-20T11:21:35.000Z</time>
      </trkpt>
      <trkpt lat="43.53988" lon="5.52742">
        <ele>345</ele>
        <time>2018-02-20T11:21:36.000Z</time>
      </trkpt>
      <trkpt lat="43.53988" lon="5.52743">
        <ele>346</ele>
        <time>2018-02-20T11:21:37.000Z</time>
      </trkpt>
      <trkpt lat="43.53988" lon="5.52744">
        <ele>346</ele>
        <time>2018-02-20T11:21:38.000Z</time>
      </trkpt>
      <trkpt lat="43.53987" lon="5.52746">
        <ele>346</ele>
        <time>2018-02-20T11:21:39.000Z</time>
      </trkpt>
      <trkpt lat="43.53987" lon="5.52747">
        <ele>346</ele>
        <time>2018-02-20T11:21:40.000Z</time>
      </trkpt>
      <trkpt lat="43.53987" lon="5.52749">
        <ele>346</ele>
        <time>2018-02-20T11:21:41.000Z</time>
      </trkpt>
      <trkpt lat="43.53986" lon="5.52751">
        <ele>347</ele>
        <time>2018-02-20T11:21:42.000Z</time>
      </trkpt>
      <trkpt lat="43.53986" lon="5.52752">
        <ele>347</ele>
        <time>2018-02-20T11:21:43.000Z</time>
      </trkpt>
      <trkpt lat="43.53986" lon="5.52754">
        <ele>347</ele>
        <time>2018-02-20T11:21:44.000Z</time>
      </trkpt>
      <trkpt lat="43.53986" lon="5.52755">
        <ele>347</ele>
        <time>2018-02-20T11:21:45.000Z</time>
      </trkpt>
      <trkpt lat="43.53986" lon="5.52757">
        <ele>347</ele>
        <time>2018-02-20T11:21:46.000Z</time>
      </trkpt>
      <trkpt lat="43.53986" lon="5.52758">
        <ele>347</ele>
        <time>2018-02-20T11:21:47.000Z</time>
      </trkpt>
      <trkpt lat="43.53987" lon="5.52759">
        <ele>348</ele>
        <time>2018-02-20T11:21:48.000Z</time>
      </trkpt>
      <trkpt lat="43.53987" lon="5.5276">
        <ele>348</ele>
        <time>2018-02-20T11:21:49.000Z</time>
      </trkpt>
      <trkpt lat="43.53987" lon="5.52761">
        <ele>348</ele>
        <time>2018-02-20T11:21:50.000Z</time>
      </trkpt>
      <trkpt lat="43.53986" lon="5.52763">
        <ele>348</ele>
        <time>2018-02-20T11:21:51.000Z</time>
      </trkpt>
      <trkpt lat="43.53986" lon="5.52764">
        <ele>348</ele>
        <time>2018-02-20T11:21:52.000Z</time>
      </trkpt>
      <trkpt lat="43.53985" lon="5.52765">
        <ele>348</ele>
        <time>2018-02-20T11:21:53.000Z</time>
      </trkpt>
      <trkpt lat="43.53985" lon="5.52767">
        <ele>348</ele>
        <time>2018-02-20T11:21:54.000Z</time>
      </trkpt>
      <trkpt lat="43.53985" lon="5.52768">
        <ele>348</ele>
        <time>2018-02-20T11:21:55.000Z</time>
      </trkpt>
      <trkpt lat="43.53985" lon="5.52769">
        <ele>349</ele>
        <time>2018-02-20T11:21:56.000Z</time>
      </trkpt>
      <trkpt lat="43.53985" lon="5.52771">
        <ele>349</ele>
        <time>2018-02-20T11:21:57.000Z</time>
      </trkpt>
      <trkpt lat="43.53985" lon="5.52772">
        <ele>349</ele>
        <time>2018-02-20T11:21:58.000Z</time>
      </trkpt>
      <trkpt lat="43.53985" lon="5.52774">
        <ele>349</ele>
        <time>2018-02-20T11:21:59.000Z</time>
      </trkpt>
      <trkpt lat="43.53986" lon="5.52775">
        <ele>349</ele>
        <time>2018-02-20T11:22:00.000Z</time>
      </trkpt>
      <trkpt lat="43.53986" lon="5.52777">
        <ele>349</ele>
        <time>2018-02-20T11:22:01.000Z</time>
      </trkpt>
      <trkpt lat="43.53986" lon="5.52778">
        <ele>349</ele>
        <time>2018-02-20T11:22:02.000Z</time>
      </trkpt>
      <trkpt lat="43.53986" lon="5.5278">
        <ele>349</ele>
        <time>2018-02-20T11:22:03.000Z</time>
      </trkpt>
      <trkpt lat="43.53986" lon="5.52782">
        <ele>350</ele>
        <time>2018-02-20T11:22:04.000Z</time>
      </trkpt>
      <trkpt lat="43.53986" lon="5.52783">
        <ele>350</ele>
        <time>2018-02-20T11:22:05.000Z</time>
      </trkpt>
      <trkpt lat="43.53986" lon="5.52785">
        <ele>350</ele>
        <time>2018-02-20T11:22:06.000Z</time>
      </trkpt>
      <trkpt lat="43.53986" lon="5.52786">
        <ele>350</ele>
        <time>2018-02-20T11:22:07.000Z</time>
      </trkpt>
      <trkpt lat="43.53986" lon="5.52788">
        <ele>350</ele>
        <time>2018-02-20T11:22:08.000Z</time>
      </trkpt>
      <trkpt lat="43.53986" lon="5.5279">
        <ele>350</ele>
        <time>2018-02-20T11:22:09.000Z</time>
      </trkpt>
      <trkpt lat="43.53986" lon="5.52791">
        <ele>351</ele>
        <time>2018-02-20T11:22:10.000Z</time>
      </trkpt>
      <trkpt lat="43.53987" lon="5.52793">
        <ele>351</ele>
        <time>2018-02-20T11:22:11.000Z</time>
      </trkpt>
      <trkpt lat="43.53987" lon="5.52794">
        <ele>351</ele>
        <time>2018-02-20T11:22:12.000Z</time>
      </trkpt>
      <trkpt lat="43.53987" lon="5.52796">
        <ele>351</ele>
        <time>2018-02-20T11:22:13.000Z</time>
      </trkpt>
      <trkpt lat="43.53987" lon="5.52797">
        <ele>351</ele>
        <time>2018-02-20T11:22:14.000Z</time>
      </trkpt>
      <trkpt lat="43.53988" lon="5.52799">
        <ele>351</ele>
        <time>2018-02-20T11:22:15.000Z</time>
      </trkpt>
      <trkpt lat="43.53988" lon="5.528">
        <ele>351</ele>
        <time>2018-02-20T11:22:16.000Z</time>
      </trkpt>
      <trkpt lat="43.53989" lon="5.52802">
        <ele>351</ele>
        <time>2018-02-20T11:22:17.000Z</time>
      </trkpt>
      <trkpt lat="43.53989" lon="5.52804">
        <ele>351</ele>
        <time>2018-02-20T11:22:18.000Z</time>
      </trkpt>
      <trkpt lat="43.5399" lon="5.52805">
        <ele>351</ele>
        <time>2018-02-20T11:22:19.000Z</time>
      </trkpt>
      <trkpt lat="43.5399" lon="5.52806">
        <ele>351</ele>
        <time>2018-02-20T11:22:20.000Z</time>
      </trkpt>
      <trkpt lat="43.53991" lon="5.52807">
        <ele>351</ele>
        <time>2018-02-20T11:22:21.000Z</time>
      </trkpt>
      <trkpt lat="43.53992" lon="5.52809">
        <ele>351</ele>
        <time>2018-02-20T11:22:22.000Z</time>
      </trkpt>
      <trkpt lat="43.53993" lon="5.5281">
        <ele>351</ele>
        <time>2018-02-20T11:22:23.000Z</time>
      </trkpt>
      <trkpt lat="43.53994" lon="5.52811">
        <ele>351</ele>
        <time>2018-02-20T11:22:24.000Z</time>
      </trkpt>
      <trkpt lat="43.53995" lon="5.52812">
        <ele>351</ele>
        <time>2018-02-20T11:22:25.000Z</time>
      </trkpt>
      <trkpt lat="43.53996" lon="5.52812">
        <ele>351</ele>
        <time>2018-02-20T11:22:26.000Z</time>
      </trkpt>
      <trkpt lat="43.53997" lon="5.52813">
        <ele>350</ele>
        <time>2018-02-20T11:22:27.000Z</time>
      </trkpt>
      <trkpt lat="43.53998" lon="5.52813">
        <ele>351</ele>
        <time>2018-02-20T11:22:28.000Z</time>
      </trkpt>
      <trkpt lat="43.53999" lon="5.52814">
        <ele>351</ele>
        <time>2018-02-20T11:22:29.000Z</time>
      </trkpt>
      <trkpt lat="43.54001" lon="5.52814">
        <ele>351</ele>
        <time>2018-02-20T11:22:30.000Z</time>
      </trkpt>
      <trkpt lat="43.54002" lon="5.52815">
        <ele>351</ele>
        <time>2018-02-20T11:22:31.000Z</time>
      </trkpt>
      <trkpt lat="43.54003" lon="5.52815">
        <ele>351</ele>
        <time>2018-02-20T11:22:32.000Z</time>
      </trkpt>
      <trkpt lat="43.54004" lon="5.52816">
        <ele>351</ele>
        <time>2018-02-20T11:22:33.000Z</time>
      </trkpt>
      <trkpt lat="43.54005" lon="5.52816">
        <ele>351</ele>
        <time>2018-02-20T11:22:34.000Z</time>
      </trkpt>
      <trkpt lat="43.54006" lon="5.52817">
        <ele>351</ele>
        <time>2018-02-20T11:22:35.000Z</time>
      </trkpt>
      <trkpt lat="43.54007" lon="5.52818">
        <ele>351</ele>
        <time>2018-02-20T11:22:36.000Z</time>
      </trkpt>
      <trkpt lat="43.54008" lon="5.52819">
        <ele>351</ele>
        <time>2018-02-20T11:22:37.000Z</time>
      </trkpt>
      <trkpt lat="43.54009" lon="5.52819">
        <ele>351</ele>
        <time>2018-02-20T11:22:38.000Z</time>
      </trkpt>
      <trkpt lat="43.5401" lon="5.5282">
        <ele>351</ele>
        <time>2018-02-20T11:22:39.000Z</time>
      </trkpt>
      <trkpt lat="43.54011" lon="5.5282">
        <ele>351</ele>
        <time>2018-02-20T11:22:40.000Z</time>
      </trkpt>
      <trkpt lat="43.54012" lon="5.52821">
        <ele>352</ele>
        <time>2018-02-20T11:22:41.000Z</time>
      </trkpt>
      <trkpt lat="43.54013" lon="5.52822">
        <ele>352</ele>
        <time>2018-02-20T11:22:42.000Z</time>
      </trkpt>
      <trkpt lat="43.54014" lon="5.52823">
        <ele>352</ele>
        <time>2018-02-20T11:22:43.000Z</time>
      </trkpt>
      <trkpt lat="43.54015" lon="5.52825">
        <ele>352</ele>
        <time>2018-02-20T11:22:44.000Z</time>
      </trkpt>
      <trkpt lat="43.54016" lon="5.52826">
        <ele>352</ele>
        <time>2018-02-20T11:22:45.000Z</time>
      </trkpt>
      <trkpt lat="43.54017" lon="5.52827">
        <ele>352</ele>
        <time>2018-02-20T11:22:46.000Z</time>
      </trkpt>
      <trkpt lat="43.54018" lon="5.52828">
        <ele>352</ele>
        <time>2018-02-20T11:22:47.000Z</time>
      </trkpt>
      <trkpt lat="43.54019" lon="5.52829">
        <ele>352</ele>
        <time>2018-02-20T11:22:48.000Z</time>
      </trkpt>
      <trkpt lat="43.5402" lon="5.5283">
        <ele>352</ele>
        <time>2018-02-20T11:22:49.000Z</time>
      </trkpt>
      <trkpt lat="43.54021" lon="5.52831">
        <ele>351</ele>
        <time>2018-02-20T11:22:50.000Z</time>
      </trkpt>
      <trkpt lat="43.54022" lon="5.52832">
        <ele>351</ele>
        <time>2018-02-20T11:22:51.000Z</time>
      </trkpt>
      <trkpt lat="43.54023" lon="5.52833">
        <ele>351</ele>
        <time>2018-02-20T11:22:52.000Z</time>
      </trkpt>
      <trkpt lat="43.54024" lon="5.52834">
        <ele>351</ele>
        <time>2018-02-20T11:22:53.000Z</time>
      </trkpt>
      <trkpt lat="43.54025" lon="5.52835">
        <ele>351</ele>
        <time>2018-02-20T11:22:54.000Z</time>
      </trkpt>
      <trkpt lat="43.54026" lon="5.52835">
        <ele>351</ele>
        <time>2018-02-20T11:22:55.000Z</time>
      </trkpt>
      <trkpt lat="43.54027" lon="5.52836">
        <ele>351</ele>
        <time>2018-02-20T11:22:56.000Z</time>
      </trkpt>
      <trkpt lat="43.54028" lon="5.52837">
        <ele>351</ele>
        <time>2018-02-20T11:22:57.000Z</time>
      </trkpt>
      <trkpt lat="43.54029" lon="5.52838">
        <ele>351</ele>
        <time>2018-02-20T11:22:58.000Z</time>
      </trkpt>
      <trkpt lat="43.5403" lon="5.5284">
        <ele>351</ele>
        <time>2018-02-20T11:22:59.000Z</time>
      </trkpt>
      <trkpt lat="43.54031" lon="5.52841">
        <ele>351</ele>
        <time>2018-02-20T11:23:00.000Z</time>
      </trkpt>
      <trkpt lat="43.54032" lon="5.52842">
        <ele>351</ele>
        <time>2018-02-20T11:23:01.000Z</time>
      </trkpt>
      <trkpt lat="43.54033" lon="5.52843">
        <ele>351</ele>
        <time>2018-02-20T11:23:02.000Z</time>
      </trkpt>
      <trkpt lat="43.54034" lon="5.52844">
        <ele>350</ele>
        <time>2018-02-20T11:23:03.000Z</time>
      </trkpt>
      <trkpt lat="43.54035" lon="5.52846">
        <ele>350</ele>
        <time>2018-02-20T11:23:04.000Z</time>
      </trkpt>
      <trkpt lat="43.54036" lon="5.52847">
        <ele>350</ele>
        <time>2018-02-20T11:23:05.000Z</time>
      </trkpt>
      <trkpt lat="43.54036" lon="5.52849">
        <ele>350</ele>
        <time>2018-02-20T11:23:06.000Z</time>
      </trkpt>
      <trkpt lat="43.54037" lon="5.52851">
        <ele>350</ele>
        <time>2018-02-20T11:23:07.000Z</time>
      </trkpt>
      <trkpt lat="43.54038" lon="5.52852">
        <ele>350</ele>
        <time>2018-02-20T11:23:08.000Z</time>
      </trkpt>
      <trkpt lat="43.54039" lon="5.52854">
        <ele>350</ele>
        <time>2018-02-20T11:23:09.000Z</time>
      </trkpt>
      <trkpt lat="43.5404" lon="5.52855">
        <ele>350</ele>
        <time>2018-02-20T11:23:10.000Z</time>
      </trkpt>
      <trkpt lat="43.54041" lon="5.52856">
        <ele>350</ele>
        <time>2018-02-20T11:23:11.000Z</time>
      </trkpt>
      <trkpt lat="43.54041" lon="5.52857">
        <ele>350</ele>
        <time>2018-02-20T11:23:12.000Z</time>
      </trkpt>
      <trkpt lat="43.54042" lon="5.52858">
        <ele>350</ele>
        <time>2018-02-20T11:23:13.000Z</time>
      </trkpt>
      <trkpt lat="43.54043" lon="5.52859">
        <ele>350</ele>
        <time>2018-02-20T11:23:14.000Z</time>
      </trkpt>
      <trkpt lat="43.54044" lon="5.5286">
        <ele>350</ele>
        <time>2018-02-20T11:23:15.000Z</time>
      </trkpt>
      <trkpt lat="43.54045" lon="5.52861">
        <ele>350</ele>
        <time>2018-02-20T11:23:16.000Z</time>
      </trkpt>
      <trkpt lat="43.54046" lon="5.52862">
        <ele>350</ele>
        <time>2018-02-20T11:23:17.000Z</time>
      </trkpt>
      <trkpt lat="43.54047" lon="5.52863">
        <ele>350</ele>
        <time>2018-02-20T11:23:18.000Z</time>
      </trkpt>
      <trkpt lat="43.54048" lon="5.52864">
        <ele>350</ele>
        <time>2018-02-20T11:23:19.000Z</time>
      </trkpt>
      <trkpt lat="43.54049" lon="5.52864">
        <ele>350</ele>
        <time>2018-02-20T11:23:20.000Z</time>
      </trkpt>
      <trkpt lat="43.5405" lon="5.52864">
        <ele>350</ele>
        <time>2018-02-20T11:23:21.000Z</time>
      </trkpt>
      <trkpt lat="43.54051" lon="5.52865">
        <ele>350</ele>
        <time>2018-02-20T11:23:22.000Z</time>
      </trkpt>
      <trkpt lat="43.54052" lon="5.52866">
        <ele>350</ele>
        <time>2018-02-20T11:23:23.000Z</time>
      </trkpt>
      <trkpt lat="43.54053" lon="5.52867">
        <ele>350</ele>
        <time>2018-02-20T11:23:24.000Z</time>
      </trkpt>
      <trkpt lat="43.54054" lon="5.52868">
        <ele>350</ele>
        <time>2018-02-20T11:23:25.000Z</time>
      </trkpt>
      <trkpt lat="43.54055" lon="5.52869">
        <ele>350</ele>
        <time>2018-02-20T11:23:26.000Z</time>
      </trkpt>
      <trkpt lat="43.54056" lon="5.5287">
        <ele>350</ele>
        <time>2018-02-20T11:23:27.000Z</time>
      </trkpt>
      <trkpt lat="43.54057" lon="5.52871">
        <ele>350</ele>
        <time>2018-02-20T11:23:28.000Z</time>
      </trkpt>
      <trkpt lat="43.54058" lon="5.52872">
        <ele>350</ele>
        <time>2018-02-20T11:23:29.000Z</time>
      </trkpt>
      <trkpt lat="43.5406" lon="5.52873">
        <ele>350</ele>
        <time>2018-02-20T11:23:30.000Z</time>
      </trkpt>
      <trkpt lat="43.54061" lon="5.52874">
        <ele>350</ele>
        <time>2018-02-20T11:23:31.000Z</time>
      </trkpt>
      <trkpt lat="43.54062" lon="5.52875">
        <ele>350</ele>
        <time>2018-02-20T11:23:32.000Z</time>
      </trkpt>
      <trkpt lat="43.54063" lon="5.52876">
        <ele>350</ele>
        <time>2018-02-20T11:23:33.000Z</time>
      </trkpt>
      <trkpt lat="43.54064" lon="5.52877">
        <ele>350</ele>
        <time>2018-02-20T11:23:34.000Z</time>
      </trkpt>
      <trkpt lat="43.54065" lon="5.52879">
        <ele>350</ele>
        <time>2018-02-20T11:23:35.000Z</time>
      </trkpt>
      <trkpt lat="43.54066" lon="5.5288">
        <ele>350</ele>
        <time>2018-02-20T11:23:36.000Z</time>
      </trkpt>
      <trkpt lat="43.54067" lon="5.52881">
        <ele>350</ele>
        <time>2018-02-20T11:23:37.000Z</time>
      </trkpt>
      <trkpt lat="43.54068" lon="5.52883">
        <ele>350</ele>
        <time>2018-02-20T11:23:38.000Z</time>
      </trkpt>
      <trkpt lat="43.54069" lon="5.52884">
        <ele>350</ele>
        <time>2018-02-20T11:23:39.000Z</time>
      </trkpt>
      <trkpt lat="43.5407" lon="5.52886">
        <ele>349</ele>
        <time>2018-02-20T11:23:40.000Z</time>
      </trkpt>
      <trkpt lat="43.5407" lon="5.52888">
        <ele>349</ele>
        <time>2018-02-20T11:23:41.000Z</time>
      </trkpt>
      <trkpt lat="43.54071" lon="5.52889">
        <ele>349</ele>
        <time>2018-02-20T11:23:42.000Z</time>
      </trkpt>
      <trkpt lat="43.54072" lon="5.52891">
        <ele>349</ele>
        <time>2018-02-20T11:23:43.000Z</time>
      </trkpt>
      <trkpt lat="43.54072" lon="5.52893">
        <ele>349</ele>
        <time>2018-02-20T11:23:44.000Z</time>
      </trkpt>
      <trkpt lat="43.54073" lon="5.52895">
        <ele>349</ele>
        <time>2018-02-20T11:23:45.000Z</time>
      </trkpt>
      <trkpt lat="43.54073" lon="5.52896">
        <ele>349</ele>
        <time>2018-02-20T11:23:46.000Z</time>
      </trkpt>
      <trkpt lat="43.54074" lon="5.52898">
        <ele>349</ele>
        <time>2018-02-20T11:23:47.000Z</time>
      </trkpt>
      <trkpt lat="43.54074" lon="5.529">
        <ele>349</ele>
        <time>2018-02-20T11:23:48.000Z</time>
      </trkpt>
      <trkpt lat="43.54075" lon="5.52901">
        <ele>349</ele>
        <time>2018-02-20T11:23:49.000Z</time>
      </trkpt>
      <trkpt lat="43.54076" lon="5.52903">
        <ele>349</ele>
        <time>2018-02-20T11:23:50.000Z</time>
      </trkpt>
      <trkpt lat="43.54076" lon="5.52904">
        <ele>349</ele>
        <time>2018-02-20T11:23:51.000Z</time>
      </trkpt>
      <trkpt lat="43.54077" lon="5.52906">
        <ele>349</ele>
        <time>2018-02-20T11:23:52.000Z</time>
      </trkpt>
      <trkpt lat="43.54078" lon="5.52908">
        <ele>349</ele>
        <time>2018-02-20T11:23:53.000Z</time>
      </trkpt>
      <trkpt lat="43.54078" lon="5.52909">
        <ele>349</ele>
        <time>2018-02-20T11:23:54.000Z</time>
      </trkpt>
      <trkpt lat="43.54078" lon="5.52911">
        <ele>349</ele>
        <time>2018-02-20T11:23:55.000Z</time>
      </trkpt>
      <trkpt lat="43.54079" lon="5.52912">
        <ele>349</ele>
        <time>2018-02-20T11:23:56.000Z</time>
      </trkpt>
      <trkpt lat="43.54079" lon="5.52914">
        <ele>349</ele>
        <time>2018-02-20T11:23:57.000Z</time>
      </trkpt>
      <trkpt lat="43.5408" lon="5.52916">
        <ele>349</ele>
        <time>2018-02-20T11:23:58.000Z</time>
      </trkpt>
      <trkpt lat="43.54081" lon="5.52917">
        <ele>349</ele>
        <time>2018-02-20T11:23:59.000Z</time>
      </trkpt>
      <trkpt lat="43.54082" lon="5.52918">
        <ele>349</ele>
        <time>2018-02-20T11:24:00.000Z</time>
      </trkpt>
      <trkpt lat="43.54083" lon="5.5292">
        <ele>349</ele>
        <time>2018-02-20T11:24:01.000Z</time>
      </trkpt>
      <trkpt lat="43.54083" lon="5.52921">
        <ele>349</ele>
        <time>2018-02-20T11:24:02.000Z</time>
      </trkpt>
      <trkpt lat="43.54084" lon="5.52923">
        <ele>349</ele>
        <time>2018-02-20T11:24:03.000Z</time>
      </trkpt>
      <trkpt lat="43.54085" lon="5.52924">
        <ele>349</ele>
        <time>2018-02-20T11:24:04.000Z</time>
      </trkpt>
      <trkpt lat="43.54085" lon="5.52926">
        <ele>349</ele>
        <time>2018-02-20T11:24:05.000Z</time>
      </trkpt>
      <trkpt lat="43.54086" lon="5.52928">
        <ele>349</ele>
        <time>2018-02-20T11:24:06.000Z</time>
      </trkpt>
      <trkpt lat="43.54087" lon="5.52929">
        <ele>349</ele>
        <time>2018-02-20T11:24:07.000Z</time>
      </trkpt>
      <trkpt lat="43.54088" lon="5.5293">
        <ele>350</ele>
        <time>2018-02-20T11:24:08.000Z</time>
      </trkpt>
      <trkpt lat="43.54089" lon="5.52932">
        <ele>350</ele>
        <time>2018-02-20T11:24:09.000Z</time>
      </trkpt>
      <trkpt lat="43.54089" lon="5.52933">
        <ele>350</ele>
        <time>2018-02-20T11:24:10.000Z</time>
      </trkpt>
      <trkpt lat="43.5409" lon="5.52934">
        <ele>350</ele>
        <time>2018-02-20T11:24:11.000Z</time>
      </trkpt>
      <trkpt lat="43.54091" lon="5.52936">
        <ele>350</ele>
        <time>2018-02-20T11:24:12.000Z</time>
      </trkpt>
      <trkpt lat="43.54091" lon="5.52937">
        <ele>351</ele>
        <time>2018-02-20T11:24:13.000Z</time>
      </trkpt>
      <trkpt lat="43.54091" lon="5.52937">
        <ele>351</ele>
        <time>2018-02-20T11:24:14.000Z</time>
      </trkpt>
      <trkpt lat="43.54091" lon="5.52937">
        <ele>351</ele>
        <time>2018-02-20T11:24:15.000Z</time>
      </trkpt>
      <trkpt lat="43.54091" lon="5.52937">
        <ele>351</ele>
        <time>2018-02-20T11:24:16.000Z</time>
      </trkpt>
      <trkpt lat="43.54092" lon="5.52938">
        <ele>351</ele>
        <time>2018-02-20T11:24:17.000Z</time>
      </trkpt>
      <trkpt lat="43.54092" lon="5.52939">
        <ele>351</ele>
        <time>2018-02-20T11:24:18.000Z</time>
      </trkpt>
      <trkpt lat="43.54092" lon="5.5294">
        <ele>351</ele>
        <time>2018-02-20T11:24:19.000Z</time>
      </trkpt>
      <trkpt lat="43.54093" lon="5.5294">
        <ele>351</ele>
        <time>2018-02-20T11:24:20.000Z</time>
      </trkpt>
      <trkpt lat="43.54093" lon="5.52941">
        <ele>351</ele>
        <time>2018-02-20T11:24:21.000Z</time>
      </trkpt>
      <trkpt lat="43.54093" lon="5.52941">
        <ele>351</ele>
        <time>2018-02-20T11:24:22.000Z</time>
      </trkpt>
      <trkpt lat="43.54094" lon="5.52942">
        <ele>351</ele>
        <time>2018-02-20T11:24:23.000Z</time>
      </trkpt>
      <trkpt lat="43.54094" lon="5.52942">
        <ele>351</ele>
        <time>2018-02-20T11:24:24.000Z</time>
      </trkpt>
      <trkpt lat="43.54094" lon="5.52943">
        <ele>351</ele>
        <time>2018-02-20T11:24:25.000Z</time>
      </trkpt>
      <trkpt lat="43.54094" lon="5.52944">
        <ele>351</ele>
        <time>2018-02-20T11:24:26.000Z</time>
      </trkpt>
      <trkpt lat="43.54095" lon="5.52945">
        <ele>351</ele>
        <time>2018-02-20T11:24:27.000Z</time>
      </trkpt>
      <trkpt lat="43.54095" lon="5.52946">
        <ele>351</ele>
        <time>2018-02-20T11:24:28.000Z</time>
      </trkpt>
      <trkpt lat="43.54096" lon="5.52947">
        <ele>351</ele>
        <time>2018-02-20T11:24:29.000Z</time>
      </trkpt>
      <trkpt lat="43.54097" lon="5.52948">
        <ele>350</ele>
        <time>2018-02-20T11:24:30.000Z</time>
      </trkpt>
      <trkpt lat="43.54098" lon="5.5295">
        <ele>350</ele>
        <time>2018-02-20T11:24:31.000Z</time>
      </trkpt>
      <trkpt lat="43.54099" lon="5.5295">
        <ele>350</ele>
        <time>2018-02-20T11:24:32.000Z</time>
      </trkpt>
      <trkpt lat="43.54099" lon="5.52951">
        <ele>350</ele>
        <time>2018-02-20T11:24:33.000Z</time>
      </trkpt>
      <trkpt lat="43.541" lon="5.52952">
        <ele>350</ele>
        <time>2018-02-20T11:24:34.000Z</time>
      </trkpt>
      <trkpt lat="43.541" lon="5.52953">
        <ele>350</ele>
        <time>2018-02-20T11:24:35.000Z</time>
      </trkpt>
      <trkpt lat="43.54101" lon="5.52954">
        <ele>350</ele>
        <time>2018-02-20T11:24:36.000Z</time>
      </trkpt>
      <trkpt lat="43.54102" lon="5.52955">
        <ele>350</ele>
        <time>2018-02-20T11:24:37.000Z</time>
      </trkpt>
      <trkpt lat="43.54103" lon="5.52956">
        <ele>350</ele>
        <time>2018-02-20T11:24:38.000Z</time>
      </trkpt>
      <trkpt lat="43.54103" lon="5.52957">
        <ele>350</ele>
        <time>2018-02-20T11:24:39.000Z</time>
      </trkpt>
      <trkpt lat="43.54104" lon="5.52958">
        <ele>350</ele>
        <time>2018-02-20T11:24:40.000Z</time>
      </trkpt>
      <trkpt lat="43.54105" lon="5.52959">
        <ele>350</ele>
        <time>2018-02-20T11:24:41.000Z</time>
      </trkpt>
      <trkpt lat="43.54105" lon="5.5296">
        <ele>350</ele>
        <time>2018-02-20T11:24:42.000Z</time>
      </trkpt>
      <trkpt lat="43.54106" lon="5.52962">
        <ele>350</ele>
        <time>2018-02-20T11:24:43.000Z</time>
      </trkpt>
      <trkpt lat="43.54105" lon="5.52963">
        <ele>351</ele>
        <time>2018-02-20T11:24:44.000Z</time>
      </trkpt>
      <trkpt lat="43.54105" lon="5.52964">
        <ele>351</ele>
        <time>2018-02-20T11:24:45.000Z</time>
      </trkpt>
      <trkpt lat="43.54105" lon="5.52965">
        <ele>351</ele>
        <time>2018-02-20T11:24:46.000Z</time>
      </trkpt>
      <trkpt lat="43.54105" lon="5.52966">
        <ele>351</ele>
        <time>2018-02-20T11:24:47.000Z</time>
      </trkpt>
      <trkpt lat="43.54105" lon="5.52966">
        <ele>351</ele>
        <time>2018-02-20T11:24:48.000Z</time>
      </trkpt>
      <trkpt lat="43.54105" lon="5.52966">
        <ele>351</ele>
        <time>2018-02-20T11:24:49.000Z</time>
      </trkpt>
      <trkpt lat="43.54105" lon="5.52966">
        <ele>351</ele>
        <time>2018-02-20T11:24:50.000Z</time>
      </trkpt>
      <trkpt lat="43.54106" lon="5.52966">
        <ele>351</ele>
        <time>2018-02-20T11:24:51.000Z</time>
      </trkpt>
      <trkpt lat="43.54106" lon="5.52967">
        <ele>351</ele>
        <time>2018-02-20T11:24:52.000Z</time>
      </trkpt>
      <trkpt lat="43.54106" lon="5.52967">
        <ele>351</ele>
        <time>2018-02-20T11:24:53.000Z</time>
      </trkpt>
      <trkpt lat="43.54106" lon="5.52968">
        <ele>351</ele>
        <time>2018-02-20T11:24:54.000Z</time>
      </trkpt>
      <trkpt lat="43.54106" lon="5.52969">
        <ele>351</ele>
        <time>2018-02-20T11:24:55.000Z</time>
      </trkpt>
      <trkpt lat="43.54106" lon="5.5297">
        <ele>351</ele>
        <time>2018-02-20T11:24:56.000Z</time>
      </trkpt>
      <trkpt lat="43.54107" lon="5.52971">
        <ele>351</ele>
        <time>2018-02-20T11:24:57.000Z</time>
      </trkpt>
      <trkpt lat="43.54107" lon="5.52972">
        <ele>351</ele>
        <time>2018-02-20T11:24:58.000Z</time>
      </trkpt>
      <trkpt lat="43.54107" lon="5.52974">
        <ele>351</ele>
        <time>2018-02-20T11:24:59.000Z</time>
      </trkpt>
      <trkpt lat="43.54107" lon="5.52974">
        <ele>351</ele>
        <time>2018-02-20T11:25:00.000Z</time>
      </trkpt>
      <trkpt lat="43.54107" lon="5.52975">
        <ele>351</ele>
        <time>2018-02-20T11:25:01.000Z</time>
      </trkpt>
      <trkpt lat="43.54107" lon="5.52975">
        <ele>351</ele>
        <time>2018-02-20T11:25:02.000Z</time>
      </trkpt>
      <trkpt lat="43.54106" lon="5.52976">
        <ele>351</ele>
        <time>2018-02-20T11:25:03.000Z</time>
      </trkpt>
      <trkpt lat="43.54106" lon="5.52976">
        <ele>351</ele>
        <time>2018-02-20T11:25:04.000Z</time>
      </trkpt>
      <trkpt lat="43.54105" lon="5.52976">
        <ele>351</ele>
        <time>2018-02-20T11:25:05.000Z</time>
      </trkpt>
      <trkpt lat="43.54105" lon="5.52977">
        <ele>351</ele>
        <time>2018-02-20T11:25:06.000Z</time>
      </trkpt>
      <trkpt lat="43.54104" lon="5.52977">
        <ele>351</ele>
        <time>2018-02-20T11:25:07.000Z</time>
      </trkpt>
      <trkpt lat="43.54104" lon="5.52978">
        <ele>351</ele>
        <time>2018-02-20T11:25:08.000Z</time>
      </trkpt>
      <trkpt lat="43.54104" lon="5.52978">
        <ele>351</ele>
        <time>2018-02-20T11:25:09.000Z</time>
      </trkpt>
      <trkpt lat="43.54104" lon="5.52979">
        <ele>351</ele>
        <time>2018-02-20T11:25:10.000Z</time>
      </trkpt>
      <trkpt lat="43.54104" lon="5.52979">
        <ele>351</ele>
        <time>2018-02-20T11:25:11.000Z</time>
      </trkpt>
      <trkpt lat="43.54104" lon="5.5298">
        <ele>351</ele>
        <time>2018-02-20T11:25:12.000Z</time>
      </trkpt>
      <trkpt lat="43.54104" lon="5.52982">
        <ele>351</ele>
        <time>2018-02-20T11:25:13.000Z</time>
      </trkpt>
      <trkpt lat="43.54103" lon="5.52982">
        <ele>351</ele>
        <time>2018-02-20T11:25:14.000Z</time>
      </trkpt>
      <trkpt lat="43.54102" lon="5.52983">
        <ele>351</ele>
        <time>2018-02-20T11:25:15.000Z</time>
      </trkpt>
      <trkpt lat="43.54102" lon="5.52984">
        <ele>351</ele>
        <time>2018-02-20T11:25:16.000Z</time>
      </trkpt>
      <trkpt lat="43.54101" lon="5.52985">
        <ele>351</ele>
        <time>2018-02-20T11:25:17.000Z</time>
      </trkpt>
      <trkpt lat="43.54101" lon="5.52986">
        <ele>351</ele>
        <time>2018-02-20T11:25:18.000Z</time>
      </trkpt>
      <trkpt lat="43.54101" lon="5.52987">
        <ele>351</ele>
        <time>2018-02-20T11:25:19.000Z</time>
      </trkpt>
      <trkpt lat="43.54101" lon="5.52988">
        <ele>351</ele>
        <time>2018-02-20T11:25:20.000Z</time>
      </trkpt>
      <trkpt lat="43.54101" lon="5.5299">
        <ele>351</ele>
        <time>2018-02-20T11:25:21.000Z</time>
      </trkpt>
      <trkpt lat="43.54102" lon="5.52991">
        <ele>351</ele>
        <time>2018-02-20T11:25:22.000Z</time>
      </trkpt>
      <trkpt lat="43.54102" lon="5.52992">
        <ele>351</ele>
        <time>2018-02-20T11:25:23.000Z</time>
      </trkpt>
      <trkpt lat="43.54102" lon="5.52993">
        <ele>351</ele>
        <time>2018-02-20T11:25:24.000Z</time>
      </trkpt>
      <trkpt lat="43.54103" lon="5.52994">
        <ele>351</ele>
        <time>2018-02-20T11:25:25.000Z</time>
      </trkpt>
      <trkpt lat="43.54103" lon="5.52996">
        <ele>351</ele>
        <time>2018-02-20T11:25:26.000Z</time>
      </trkpt>
      <trkpt lat="43.54103" lon="5.52997">
        <ele>351</ele>
        <time>2018-02-20T11:25:27.000Z</time>
      </trkpt>
      <trkpt lat="43.54104" lon="5.52998">
        <ele>351</ele>
        <time>2018-02-20T11:25:28.000Z</time>
      </trkpt>
      <trkpt lat="43.54105" lon="5.52999">
        <ele>351</ele>
        <time>2018-02-20T11:25:29.000Z</time>
      </trkpt>
      <trkpt lat="43.54105" lon="5.53001">
        <ele>351</ele>
        <time>2018-02-20T11:25:30.000Z</time>
      </trkpt>
      <trkpt lat="43.54106" lon="5.53002">
        <ele>351</ele>
        <time>2018-02-20T11:25:31.000Z</time>
      </trkpt>
      <trkpt lat="43.54106" lon="5.53003">
        <ele>352</ele>
        <time>2018-02-20T11:25:32.000Z</time>
      </trkpt>
      <trkpt lat="43.54107" lon="5.53004">
        <ele>352</ele>
        <time>2018-02-20T11:25:33.000Z</time>
      </trkpt>
      <trkpt lat="43.54107" lon="5.53006">
        <ele>352</ele>
        <time>2018-02-20T11:25:34.000Z</time>
      </trkpt>
      <trkpt lat="43.54107" lon="5.53007">
        <ele>352</ele>
        <time>2018-02-20T11:25:35.000Z</time>
      </trkpt>
      <trkpt lat="43.54107" lon="5.53008">
        <ele>352</ele>
        <time>2018-02-20T11:25:36.000Z</time>
      </trkpt>
      <trkpt lat="43.54108" lon="5.5301">
        <ele>352</ele>
        <time>2018-02-20T11:25:37.000Z</time>
      </trkpt>
      <trkpt lat="43.54108" lon="5.53011">
        <ele>352</ele>
        <time>2018-02-20T11:25:38.000Z</time>
      </trkpt>
      <trkpt lat="43.54108" lon="5.53012">
        <ele>352</ele>
        <time>2018-02-20T11:25:39.000Z</time>
      </trkpt>
      <trkpt lat="43.54108" lon="5.53014">
        <ele>353</ele>
        <time>2018-02-20T11:25:40.000Z</time>
      </trkpt>
      <trkpt lat="43.54108" lon="5.53015">
        <ele>353</ele>
        <time>2018-02-20T11:25:41.000Z</time>
      </trkpt>
      <trkpt lat="43.54109" lon="5.53016">
        <ele>353</ele>
        <time>2018-02-20T11:25:42.000Z</time>
      </trkpt>
      <trkpt lat="43.54109" lon="5.53017">
        <ele>353</ele>
        <time>2018-02-20T11:25:43.000Z</time>
      </trkpt>
      <trkpt lat="43.54109" lon="5.53019">
        <ele>353</ele>
        <time>2018-02-20T11:25:44.000Z</time>
      </trkpt>
      <trkpt lat="43.54109" lon="5.5302">
        <ele>353</ele>
        <time>2018-02-20T11:25:45.000Z</time>
      </trkpt>
      <trkpt lat="43.54109" lon="5.53021">
        <ele>353</ele>
        <time>2018-02-20T11:25:46.000Z</time>
      </trkpt>
      <trkpt lat="43.54109" lon="5.53022">
        <ele>354</ele>
        <time>2018-02-20T11:25:47.000Z</time>
      </trkpt>
      <trkpt lat="43.5411" lon="5.53023">
        <ele>354</ele>
        <time>2018-02-20T11:25:48.000Z</time>
      </trkpt>
      <trkpt lat="43.5411" lon="5.53024">
        <ele>354</ele>
        <time>2018-02-20T11:25:49.000Z</time>
      </trkpt>
      <trkpt lat="43.5411" lon="5.53025">
        <ele>354</ele>
        <time>2018-02-20T11:25:50.000Z</time>
      </trkpt>
      <trkpt lat="43.54111" lon="5.53026">
        <ele>354</ele>
        <time>2018-02-20T11:25:51.000Z</time>
      </trkpt>
      <trkpt lat="43.54112" lon="5.53027">
        <ele>355</ele>
        <time>2018-02-20T11:25:52.000Z</time>
      </trkpt>
      <trkpt lat="43.54112" lon="5.53028">
        <ele>355</ele>
        <time>2018-02-20T11:25:53.000Z</time>
      </trkpt>
      <trkpt lat="43.54112" lon="5.53029">
        <ele>355</ele>
        <time>2018-02-20T11:25:54.000Z</time>
      </trkpt>
      <trkpt lat="43.54112" lon="5.5303">
        <ele>355</ele>
        <time>2018-02-20T11:25:55.000Z</time>
      </trkpt>
      <trkpt lat="43.54112" lon="5.53031">
        <ele>355</ele>
        <time>2018-02-20T11:25:56.000Z</time>
      </trkpt>
      <trkpt lat="43.54111" lon="5.53032">
        <ele>355</ele>
        <time>2018-02-20T11:25:57.000Z</time>
      </trkpt>
      <trkpt lat="43.54111" lon="5.53033">
        <ele>355</ele>
        <time>2018-02-20T11:25:58.000Z</time>
      </trkpt>
      <trkpt lat="43.5411" lon="5.53034">
        <ele>355</ele>
        <time>2018-02-20T11:25:59.000Z</time>
      </trkpt>
      <trkpt lat="43.54109" lon="5.53035">
        <ele>355</ele>
        <time>2018-02-20T11:26:00.000Z</time>
      </trkpt>
      <trkpt lat="43.54108" lon="5.53036">
        <ele>355</ele>
        <time>2018-02-20T11:26:01.000Z</time>
      </trkpt>
      <trkpt lat="43.54108" lon="5.53037">
        <ele>355</ele>
        <time>2018-02-20T11:26:02.000Z</time>
      </trkpt>
      <trkpt lat="43.54107" lon="5.53038">
        <ele>355</ele>
        <time>2018-02-20T11:26:03.000Z</time>
      </trkpt>
      <trkpt lat="43.54106" lon="5.53039">
        <ele>355</ele>
        <time>2018-02-20T11:26:04.000Z</time>
      </trkpt>
      <trkpt lat="43.54105" lon="5.53039">
        <ele>355</ele>
        <time>2018-02-20T11:26:05.000Z</time>
      </trkpt>
      <trkpt lat="43.54104" lon="5.5304">
        <ele>355</ele>
        <time>2018-02-20T11:26:06.000Z</time>
      </trkpt>
      <trkpt lat="43.54103" lon="5.53041">
        <ele>355</ele>
        <time>2018-02-20T11:26:07.000Z</time>
      </trkpt>
      <trkpt lat="43.54102" lon="5.53042">
        <ele>355</ele>
        <time>2018-02-20T11:26:08.000Z</time>
      </trkpt>
      <trkpt lat="43.54101" lon="5.53043">
        <ele>355</ele>
        <time>2018-02-20T11:26:09.000Z</time>
      </trkpt>
      <trkpt lat="43.541" lon="5.53044">
        <ele>355</ele>
        <time>2018-02-20T11:26:10.000Z</time>
      </trkpt>
      <trkpt lat="43.54099" lon="5.53044">
        <ele>355</ele>
        <time>2018-02-20T11:26:11.000Z</time>
      </trkpt>
      <trkpt lat="43.54098" lon="5.53045">
        <ele>355</ele>
        <time>2018-02-20T11:26:12.000Z</time>
      </trkpt>
      <trkpt lat="43.54097" lon="5.53046">
        <ele>355</ele>
        <time>2018-02-20T11:26:13.000Z</time>
      </trkpt>
      <trkpt lat="43.54096" lon="5.53047">
        <ele>355</ele>
        <time>2018-02-20T11:26:14.000Z</time>
      </trkpt>
      <trkpt lat="43.54096" lon="5.53048">
        <ele>355</ele>
        <time>2018-02-20T11:26:15.000Z</time>
      </trkpt>
      <trkpt lat="43.54095" lon="5.53049">
        <ele>355</ele>
        <time>2018-02-20T11:26:16.000Z</time>
      </trkpt>
      <trkpt lat="43.54094" lon="5.53051">
        <ele>355</ele>
        <time>2018-02-20T11:26:17.000Z</time>
      </trkpt>
      <trkpt lat="43.54093" lon="5.53052">
        <ele>355</ele>
        <time>2018-02-20T11:26:18.000Z</time>
      </trkpt>
      <trkpt lat="43.54093" lon="5.53052">
        <ele>355</ele>
        <time>2018-02-20T11:26:19.000Z</time>
      </trkpt>
      <trkpt lat="43.54092" lon="5.53053">
        <ele>355</ele>
        <time>2018-02-20T11:26:20.000Z</time>
      </trkpt>
      <trkpt lat="43.54091" lon="5.53054">
        <ele>355</ele>
        <time>2018-02-20T11:26:21.000Z</time>
      </trkpt>
      <trkpt lat="43.5409" lon="5.53055">
        <ele>355</ele>
        <time>2018-02-20T11:26:22.000Z</time>
      </trkpt>
      <trkpt lat="43.54089" lon="5.53056">
        <ele>355</ele>
        <time>2018-02-20T11:26:23.000Z</time>
      </trkpt>
      <trkpt lat="43.54089" lon="5.53057">
        <ele>355</ele>
        <time>2018-02-20T11:26:24.000Z</time>
      </trkpt>
      <trkpt lat="43.54088" lon="5.53058">
        <ele>356</ele>
        <time>2018-02-20T11:26:25.000Z</time>
      </trkpt>
      <trkpt lat="43.54087" lon="5.53059">
        <ele>356</ele>
        <time>2018-02-20T11:26:26.000Z</time>
      </trkpt>
      <trkpt lat="43.54087" lon="5.5306">
        <ele>356</ele>
        <time>2018-02-20T11:26:27.000Z</time>
      </trkpt>
      <trkpt lat="43.54086" lon="5.53062">
        <ele>356</ele>
        <time>2018-02-20T11:26:28.000Z</time>
      </trkpt>
      <trkpt lat="43.54086" lon="5.53063">
        <ele>356</ele>
        <time>2018-02-20T11:26:29.000Z</time>
      </trkpt>
      <trkpt lat="43.54086" lon="5.53064">
        <ele>356</ele>
        <time>2018-02-20T11:26:30.000Z</time>
      </trkpt>
      <trkpt lat="43.54086" lon="5.53066">
        <ele>356</ele>
        <time>2018-02-20T11:26:31.000Z</time>
      </trkpt>
      <trkpt lat="43.54086" lon="5.53067">
        <ele>356</ele>
        <time>2018-02-20T11:26:32.000Z</time>
      </trkpt>
      <trkpt lat="43.54085" lon="5.53069">
        <ele>356</ele>
        <time>2018-02-20T11:26:33.000Z</time>
      </trkpt>
      <trkpt lat="43.54085" lon="5.5307">
        <ele>356</ele>
        <time>2018-02-20T11:26:34.000Z</time>
      </trkpt>
      <trkpt lat="43.54085" lon="5.53072">
        <ele>356</ele>
        <time>2018-02-20T11:26:35.000Z</time>
      </trkpt>
      <trkpt lat="43.54084" lon="5.53073">
        <ele>356</ele>
        <time>2018-02-20T11:26:36.000Z</time>
      </trkpt>
      <trkpt lat="43.54084" lon="5.53075">
        <ele>356</ele>
        <time>2018-02-20T11:26:37.000Z</time>
      </trkpt>
      <trkpt lat="43.54083" lon="5.53076">
        <ele>356</ele>
        <time>2018-02-20T11:26:38.000Z</time>
      </trkpt>
      <trkpt lat="43.54083" lon="5.53077">
        <ele>356</ele>
        <time>2018-02-20T11:26:39.000Z</time>
      </trkpt>
      <trkpt lat="43.54082" lon="5.53078">
        <ele>356</ele>
        <time>2018-02-20T11:26:40.000Z</time>
      </trkpt>
      <trkpt lat="43.54082" lon="5.53079">
        <ele>356</ele>
        <time>2018-02-20T11:26:41.000Z</time>
      </trkpt>
      <trkpt lat="43.54081" lon="5.5308">
        <ele>356</ele>
        <time>2018-02-20T11:26:42.000Z</time>
      </trkpt>
      <trkpt lat="43.54081" lon="5.53081">
        <ele>356</ele>
        <time>2018-02-20T11:26:43.000Z</time>
      </trkpt>
      <trkpt lat="43.5408" lon="5.53082">
        <ele>356</ele>
        <time>2018-02-20T11:26:44.000Z</time>
      </trkpt>
      <trkpt lat="43.5408" lon="5.53083">
        <ele>356</ele>
        <time>2018-02-20T11:26:45.000Z</time>
      </trkpt>
      <trkpt lat="43.54079" lon="5.53084">
        <ele>356</ele>
        <time>2018-02-20T11:26:46.000Z</time>
      </trkpt>
      <trkpt lat="43.54079" lon="5.53086">
        <ele>356</ele>
        <time>2018-02-20T11:26:47.000Z</time>
      </trkpt>
      <trkpt lat="43.54079" lon="5.53087">
        <ele>356</ele>
        <time>2018-02-20T11:26:48.000Z</time>
      </trkpt>
      <trkpt lat="43.54079" lon="5.53089">
        <ele>356</ele>
        <time>2018-02-20T11:26:49.000Z</time>
      </trkpt>
      <trkpt lat="43.54079" lon="5.53091">
        <ele>356</ele>
        <time>2018-02-20T11:26:50.000Z</time>
      </trkpt>
      <trkpt lat="43.54079" lon="5.53092">
        <ele>356</ele>
        <time>2018-02-20T11:26:51.000Z</time>
      </trkpt>
      <trkpt lat="43.54079" lon="5.53094">
        <ele>356</ele>
        <time>2018-02-20T11:26:52.000Z</time>
      </trkpt>
      <trkpt lat="43.54079" lon="5.53095">
        <ele>356</ele>
        <time>2018-02-20T11:26:53.000Z</time>
      </trkpt>
      <trkpt lat="43.54079" lon="5.53097">
        <ele>356</ele>
        <time>2018-02-20T11:26:54.000Z</time>
      </trkpt>
      <trkpt lat="43.54079" lon="5.53099">
        <ele>355</ele>
        <time>2018-02-20T11:26:55.000Z</time>
      </trkpt>
      <trkpt lat="43.54079" lon="5.531">
        <ele>355</ele>
        <time>2018-02-20T11:26:56.000Z</time>
      </trkpt>
      <trkpt lat="43.5408" lon="5.53102">
        <ele>355</ele>
        <time>2018-02-20T11:26:57.000Z</time>
      </trkpt>
      <trkpt lat="43.5408" lon="5.53103">
        <ele>355</ele>
        <time>2018-02-20T11:26:58.000Z</time>
      </trkpt>
      <trkpt lat="43.5408" lon="5.53105">
        <ele>355</ele>
        <time>2018-02-20T11:26:59.000Z</time>
      </trkpt>
      <trkpt lat="43.5408" lon="5.53106">
        <ele>355</ele>
        <time>2018-02-20T11:27:00.000Z</time>
      </trkpt>
      <trkpt lat="43.54081" lon="5.53108">
        <ele>355</ele>
        <time>2018-02-20T11:27:01.000Z</time>
      </trkpt>
      <trkpt lat="43.54081" lon="5.5311">
        <ele>355</ele>
        <time>2018-02-20T11:27:02.000Z</time>
      </trkpt>
      <trkpt lat="43.54081" lon="5.53112">
        <ele>355</ele>
        <time>2018-02-20T11:27:03.000Z</time>
      </trkpt>
      <trkpt lat="43.54082" lon="5.53113">
        <ele>355</ele>
        <time>2018-02-20T11:27:04.000Z</time>
      </trkpt>
      <trkpt lat="43.54082" lon="5.53115">
        <ele>355</ele>
        <time>2018-02-20T11:27:05.000Z</time>
      </trkpt>
      <trkpt lat="43.54083" lon="5.53116">
        <ele>355</ele>
        <time>2018-02-20T11:27:06.000Z</time>
      </trkpt>
      <trkpt lat="43.54083" lon="5.53118">
        <ele>355</ele>
        <time>2018-02-20T11:27:07.000Z</time>
      </trkpt>
      <trkpt lat="43.54083" lon="5.53119">
        <ele>355</ele>
        <time>2018-02-20T11:27:08.000Z</time>
      </trkpt>
      <trkpt lat="43.54083" lon="5.53121">
        <ele>355</ele>
        <time>2018-02-20T11:27:09.000Z</time>
      </trkpt>
      <trkpt lat="43.54084" lon="5.53123">
        <ele>355</ele>
        <time>2018-02-20T11:27:10.000Z</time>
      </trkpt>
      <trkpt lat="43.54084" lon="5.53124">
        <ele>355</ele>
        <time>2018-02-20T11:27:11.000Z</time>
      </trkpt>
      <trkpt lat="43.54084" lon="5.53126">
        <ele>355</ele>
        <time>2018-02-20T11:27:12.000Z</time>
      </trkpt>
      <trkpt lat="43.54084" lon="5.53127">
        <ele>355</ele>
        <time>2018-02-20T11:27:13.000Z</time>
      </trkpt>
      <trkpt lat="43.54085" lon="5.53129">
        <ele>355</ele>
        <time>2018-02-20T11:27:14.000Z</time>
      </trkpt>
      <trkpt lat="43.54085" lon="5.5313">
        <ele>355</ele>
        <time>2018-02-20T11:27:15.000Z</time>
      </trkpt>
      <trkpt lat="43.54086" lon="5.53132">
        <ele>355</ele>
        <time>2018-02-20T11:27:16.000Z</time>
      </trkpt>
      <trkpt lat="43.54086" lon="5.53133">
        <ele>355</ele>
        <time>2018-02-20T11:27:17.000Z</time>
      </trkpt>
      <trkpt lat="43.54086" lon="5.53135">
        <ele>355</ele>
        <time>2018-02-20T11:27:18.000Z</time>
      </trkpt>
      <trkpt lat="43.54085" lon="5.53136">
        <ele>355</ele>
        <time>2018-02-20T11:27:19.000Z</time>
      </trkpt>
      <trkpt lat="43.54085" lon="5.53137">
        <ele>355</ele>
        <time>2018-02-20T11:27:20.000Z</time>
      </trkpt>
      <trkpt lat="43.54084" lon="5.53139">
        <ele>355</ele>
        <time>2018-02-20T11:27:21.000Z</time>
      </trkpt>
      <trkpt lat="43.54083" lon="5.5314">
        <ele>355</ele>
        <time>2018-02-20T11:27:22.000Z</time>
      </trkpt>
      <trkpt lat="43.54082" lon="5.5314">
        <ele>355</ele>
        <time>2018-02-20T11:27:23.000Z</time>
      </trkpt>
      <trkpt lat="43.54081" lon="5.53141">
        <ele>355</ele>
        <time>2018-02-20T11:27:24.000Z</time>
      </trkpt>
      <trkpt lat="43.5408" lon="5.53141">
        <ele>354</ele>
        <time>2018-02-20T11:27:25.000Z</time>
      </trkpt>
      <trkpt lat="43.54079" lon="5.53142">
        <ele>354</ele>
        <time>2018-02-20T11:27:26.000Z</time>
      </trkpt>
      <trkpt lat="43.54079" lon="5.53143">
        <ele>354</ele>
        <time>2018-02-20T11:27:27.000Z</time>
      </trkpt>
      <trkpt lat="43.54078" lon="5.53143">
        <ele>354</ele>
        <time>2018-02-20T11:27:28.000Z</time>
      </trkpt>
      <trkpt lat="43.54078" lon="5.53144">
        <ele>354</ele>
        <time>2018-02-20T11:27:29.000Z</time>
      </trkpt>
      <trkpt lat="43.54078" lon="5.53145">
        <ele>354</ele>
        <time>2018-02-20T11:27:30.000Z</time>
      </trkpt>
      <trkpt lat="43.54077" lon="5.53146">
        <ele>354</ele>
        <time>2018-02-20T11:27:31.000Z</time>
      </trkpt>
      <trkpt lat="43.54076" lon="5.53146">
        <ele>354</ele>
        <time>2018-02-20T11:27:32.000Z</time>
      </trkpt>
      <trkpt lat="43.54075" lon="5.53147">
        <ele>354</ele>
        <time>2018-02-20T11:27:33.000Z</time>
      </trkpt>
      <trkpt lat="43.54075" lon="5.53148">
        <ele>354</ele>
        <time>2018-02-20T11:27:34.000Z</time>
      </trkpt>
      <trkpt lat="43.54074" lon="5.53148">
        <ele>354</ele>
        <time>2018-02-20T11:27:35.000Z</time>
      </trkpt>
      <trkpt lat="43.54073" lon="5.53149">
        <ele>354</ele>
        <time>2018-02-20T11:27:36.000Z</time>
      </trkpt>
      <trkpt lat="43.54072" lon="5.5315">
        <ele>354</ele>
        <time>2018-02-20T11:27:37.000Z</time>
      </trkpt>
      <trkpt lat="43.54071" lon="5.53152">
        <ele>354</ele>
        <time>2018-02-20T11:27:38.000Z</time>
      </trkpt>
      <trkpt lat="43.5407" lon="5.53153">
        <ele>354</ele>
        <time>2018-02-20T11:27:39.000Z</time>
      </trkpt>
      <trkpt lat="43.5407" lon="5.53154">
        <ele>354</ele>
        <time>2018-02-20T11:27:40.000Z</time>
      </trkpt>
      <trkpt lat="43.5407" lon="5.53155">
        <ele>354</ele>
        <time>2018-02-20T11:27:41.000Z</time>
      </trkpt>
      <trkpt lat="43.5407" lon="5.53157">
        <ele>354</ele>
        <time>2018-02-20T11:27:42.000Z</time>
      </trkpt>
      <trkpt lat="43.54071" lon="5.53158">
        <ele>354</ele>
        <time>2018-02-20T11:27:43.000Z</time>
      </trkpt>
      <trkpt lat="43.54071" lon="5.5316">
        <ele>354</ele>
        <time>2018-02-20T11:27:44.000Z</time>
      </trkpt>
      <trkpt lat="43.54071" lon="5.53161">
        <ele>354</ele>
        <time>2018-02-20T11:27:45.000Z</time>
      </trkpt>
      <trkpt lat="43.54072" lon="5.53162">
        <ele>354</ele>
        <time>2018-02-20T11:27:46.000Z</time>
      </trkpt>
      <trkpt lat="43.54072" lon="5.53162">
        <ele>353</ele>
        <time>2018-02-20T11:27:47.000Z</time>
      </trkpt>
      <trkpt lat="43.54073" lon="5.53163">
        <ele>353</ele>
        <time>2018-02-20T11:27:48.000Z</time>
      </trkpt>
      <trkpt lat="43.54073" lon="5.53164">
        <ele>353</ele>
        <time>2018-02-20T11:27:49.000Z</time>
      </trkpt>
      <trkpt lat="43.54073" lon="5.53165">
        <ele>353</ele>
        <time>2018-02-20T11:27:50.000Z</time>
      </trkpt>
      <trkpt lat="43.54073" lon="5.53165">
        <ele>353</ele>
        <time>2018-02-20T11:27:51.000Z</time>
      </trkpt>
      <trkpt lat="43.54072" lon="5.53164">
        <ele>353</ele>
        <time>2018-02-20T11:27:52.000Z</time>
      </trkpt>
      <trkpt lat="43.54072" lon="5.53164">
        <ele>353</ele>
        <time>2018-02-20T11:27:53.000Z</time>
      </trkpt>
      <trkpt lat="43.54071" lon="5.53163">
        <ele>353</ele>
        <time>2018-02-20T11:27:54.000Z</time>
      </trkpt>
      <trkpt lat="43.5407" lon="5.53163">
        <ele>353</ele>
        <time>2018-02-20T11:27:55.000Z</time>
      </trkpt>
      <trkpt lat="43.54069" lon="5.53162">
        <ele>353</ele>
        <time>2018-02-20T11:27:56.000Z</time>
      </trkpt>
      <trkpt lat="43.54068" lon="5.53162">
        <ele>353</ele>
        <time>2018-02-20T11:27:57.000Z</time>
      </trkpt>
      <trkpt lat="43.54067" lon="5.53162">
        <ele>353</ele>
        <time>2018-02-20T11:27:58.000Z</time>
      </trkpt>
      <trkpt lat="43.54066" lon="5.53162">
        <ele>353</ele>
        <time>2018-02-20T11:27:59.000Z</time>
      </trkpt>
      <trkpt lat="43.54065" lon="5.53163">
        <ele>352</ele>
        <time>2018-02-20T11:28:00.000Z</time>
      </trkpt>
      <trkpt lat="43.54064" lon="5.53163">
        <ele>352</ele>
        <time>2018-02-20T11:28:01.000Z</time>
      </trkpt>
      <trkpt lat="43.54063" lon="5.53164">
        <ele>352</ele>
        <time>2018-02-20T11:28:02.000Z</time>
      </trkpt>
      <trkpt lat="43.54063" lon="5.53165">
        <ele>352</ele>
        <time>2018-02-20T11:28:03.000Z</time>
      </trkpt>
      <trkpt lat="43.54062" lon="5.53166">
        <ele>352</ele>
        <time>2018-02-20T11:28:04.000Z</time>
      </trkpt>
      <trkpt lat="43.54062" lon="5.53167">
        <ele>352</ele>
        <time>2018-02-20T11:28:05.000Z</time>
      </trkpt>
      <trkpt lat="43.54061" lon="5.53167">
        <ele>352</ele>
        <time>2018-02-20T11:28:06.000Z</time>
      </trkpt>
      <trkpt lat="43.5406" lon="5.53167">
        <ele>352</ele>
        <time>2018-02-20T11:28:07.000Z</time>
      </trkpt>
      <trkpt lat="43.54059" lon="5.53167">
        <ele>352</ele>
        <time>2018-02-20T11:28:08.000Z</time>
      </trkpt>
      <trkpt lat="43.54058" lon="5.53167">
        <ele>352</ele>
        <time>2018-02-20T11:28:09.000Z</time>
      </trkpt>
      <trkpt lat="43.54058" lon="5.53168">
        <ele>352</ele>
        <time>2018-02-20T11:28:10.000Z</time>
      </trkpt>
      <trkpt lat="43.54057" lon="5.5317">
        <ele>352</ele>
        <time>2018-02-20T11:28:11.000Z</time>
      </trkpt>
      <trkpt lat="43.54056" lon="5.53171">
        <ele>352</ele>
        <time>2018-02-20T11:28:12.000Z</time>
      </trkpt>
      <trkpt lat="43.54055" lon="5.53172">
        <ele>352</ele>
        <time>2018-02-20T11:28:13.000Z</time>
      </trkpt>
      <trkpt lat="43.54055" lon="5.53173">
        <ele>352</ele>
        <time>2018-02-20T11:28:14.000Z</time>
      </trkpt>
      <trkpt lat="43.54054" lon="5.53175">
        <ele>352</ele>
        <time>2018-02-20T11:28:15.000Z</time>
      </trkpt>
      <trkpt lat="43.54054" lon="5.53176">
        <ele>352</ele>
        <time>2018-02-20T11:28:16.000Z</time>
      </trkpt>
      <trkpt lat="43.54055" lon="5.53177">
        <ele>352</ele>
        <time>2018-02-20T11:28:17.000Z</time>
      </trkpt>
      <trkpt lat="43.54055" lon="5.53178">
        <ele>352</ele>
        <time>2018-02-20T11:28:18.000Z</time>
      </trkpt>
      <trkpt lat="43.54055" lon="5.53179">
        <ele>352</ele>
        <time>2018-02-20T11:28:19.000Z</time>
      </trkpt>
      <trkpt lat="43.54055" lon="5.53179">
        <ele>352</ele>
        <time>2018-02-20T11:28:20.000Z</time>
      </trkpt>
      <trkpt lat="43.54055" lon="5.53179">
        <ele>352</ele>
        <time>2018-02-20T11:28:21.000Z</time>
      </trkpt>
      <trkpt lat="43.54056" lon="5.53179">
        <ele>352</ele>
        <time>2018-02-20T11:28:22.000Z</time>
      </trkpt>
      <trkpt lat="43.54056" lon="5.53179">
        <ele>352</ele>
        <time>2018-02-20T11:28:23.000Z</time>
      </trkpt>
      <trkpt lat="43.54056" lon="5.53179">
        <ele>352</ele>
        <time>2018-02-20T11:28:24.000Z</time>
      </trkpt>
      <trkpt lat="43.54056" lon="5.53179">
        <ele>352</ele>
        <time>2018-02-20T11:28:25.000Z</time>
      </trkpt>
      <trkpt lat="43.54056" lon="5.5318">
        <ele>352</ele>
        <time>2018-02-20T11:28:26.000Z</time>
      </trkpt>
      <trkpt lat="43.54056" lon="5.5318">
        <ele>352</ele>
        <time>2018-02-20T11:28:27.000Z</time>
      </trkpt>
      <trkpt lat="43.54056" lon="5.5318">
        <ele>352</ele>
        <time>2018-02-20T11:28:28.000Z</time>
      </trkpt>
      <trkpt lat="43.54056" lon="5.53181">
        <ele>352</ele>
        <time>2018-02-20T11:28:29.000Z</time>
      </trkpt>
      <trkpt lat="43.54056" lon="5.53181">
        <ele>352</ele>
        <time>2018-02-20T11:28:30.000Z</time>
      </trkpt>
      <trkpt lat="43.54056" lon="5.53181">
        <ele>352</ele>
        <time>2018-02-20T11:28:31.000Z</time>
      </trkpt>
      <trkpt lat="43.54056" lon="5.53181">
        <ele>352</ele>
        <time>2018-02-20T11:28:32.000Z</time>
      </trkpt>
      <trkpt lat="43.54056" lon="5.53181">
        <ele>352</ele>
        <time>2018-02-20T11:28:33.000Z</time>
      </trkpt>
      <trkpt lat="43.54056" lon="5.53182">
        <ele>352</ele>
        <time>2018-02-20T11:28:34.000Z</time>
      </trkpt>
      <trkpt lat="43.54056" lon="5.53182">
        <ele>353</ele>
        <time>2018-02-20T11:28:35.000Z</time>
      </trkpt>
      <trkpt lat="43.54056" lon="5.53183">
        <ele>352</ele>
        <time>2018-02-20T11:28:36.000Z</time>
      </trkpt>
      <trkpt lat="43.54056" lon="5.53183">
        <ele>352</ele>
        <time>2018-02-20T11:28:37.000Z</time>
      </trkpt>
      <trkpt lat="43.54056" lon="5.53183">
        <ele>352</ele>
        <time>2018-02-20T11:28:38.000Z</time>
      </trkpt>
      <trkpt lat="43.54056" lon="5.53184">
        <ele>352</ele>
        <time>2018-02-20T11:28:39.000Z</time>
      </trkpt>
      <trkpt lat="43.54056" lon="5.53184">
        <ele>352</ele>
        <time>2018-02-20T11:28:40.000Z</time>
      </trkpt>
      <trkpt lat="43.54055" lon="5.53184">
        <ele>352</ele>
        <time>2018-02-20T11:28:41.000Z</time>
      </trkpt>
      <trkpt lat="43.54055" lon="5.53185">
        <ele>351</ele>
        <time>2018-02-20T11:28:42.000Z</time>
      </trkpt>
      <trkpt lat="43.54055" lon="5.53185">
        <ele>351</ele>
        <time>2018-02-20T11:28:43.000Z</time>
      </trkpt>
      <trkpt lat="43.54055" lon="5.53186">
        <ele>351</ele>
        <time>2018-02-20T11:28:44.000Z</time>
      </trkpt>
      <trkpt lat="43.54055" lon="5.53186">
        <ele>351</ele>
        <time>2018-02-20T11:28:45.000Z</time>
      </trkpt>
      <trkpt lat="43.54054" lon="5.53186">
        <ele>350</ele>
        <time>2018-02-20T11:28:46.000Z</time>
      </trkpt>
      <trkpt lat="43.54054" lon="5.53187">
        <ele>350</ele>
        <time>2018-02-20T11:28:47.000Z</time>
      </trkpt>
      <trkpt lat="43.54054" lon="5.53187">
        <ele>350</ele>
        <time>2018-02-20T11:28:48.000Z</time>
      </trkpt>
      <trkpt lat="43.54054" lon="5.53187">
        <ele>350</ele>
        <time>2018-02-20T11:28:49.000Z</time>
      </trkpt>
      <trkpt lat="43.54054" lon="5.53188">
        <ele>350</ele>
        <time>2018-02-20T11:28:50.000Z</time>
      </trkpt>
      <trkpt lat="43.54055" lon="5.53188">
        <ele>349</ele>
        <time>2018-02-20T11:28:51.000Z</time>
      </trkpt>
      <trkpt lat="43.54055" lon="5.53189">
        <ele>349</ele>
        <time>2018-02-20T11:28:52.000Z</time>
      </trkpt>
      <trkpt lat="43.54055" lon="5.53189">
        <ele>349</ele>
        <time>2018-02-20T11:28:53.000Z</time>
      </trkpt>
      <trkpt lat="43.54055" lon="5.5319">
        <ele>349</ele>
        <time>2018-02-20T11:28:54.000Z</time>
      </trkpt>
      <trkpt lat="43.54055" lon="5.5319">
        <ele>348</ele>
        <time>2018-02-20T11:28:55.000Z</time>
      </trkpt>
      <trkpt lat="43.54056" lon="5.53191">
        <ele>348</ele>
        <time>2018-02-20T11:28:56.000Z</time>
      </trkpt>
      <trkpt lat="43.54057" lon="5.53191">
        <ele>348</ele>
        <time>2018-02-20T11:28:57.000Z</time>
      </trkpt>
      <trkpt lat="43.54057" lon="5.53191">
        <ele>348</ele>
        <time>2018-02-20T11:28:58.000Z</time>
      </trkpt>
      <trkpt lat="43.54057" lon="5.53191">
        <ele>348</ele>
        <time>2018-02-20T11:28:59.000Z</time>
      </trkpt>
      <trkpt lat="43.54057" lon="5.53191">
        <ele>348</ele>
        <time>2018-02-20T11:29:00.000Z</time>
      </trkpt>
      <trkpt lat="43.54057" lon="5.53191">
        <ele>348</ele>
        <time>2018-02-20T11:29:01.000Z</time>
      </trkpt>
      <trkpt lat="43.54057" lon="5.53191">
        <ele>348</ele>
        <time>2018-02-20T11:29:02.000Z</time>
      </trkpt>
      <trkpt lat="43.54058" lon="5.53191">
        <ele>348</ele>
        <time>2018-02-20T11:29:03.000Z</time>
      </trkpt>
      <trkpt lat="43.54058" lon="5.53191">
        <ele>348</ele>
        <time>2018-02-20T11:29:04.000Z</time>
      </trkpt>
      <trkpt lat="43.54059" lon="5.53191">
        <ele>348</ele>
        <time>2018-02-20T11:29:05.000Z</time>
      </trkpt>
      <trkpt lat="43.54059" lon="5.53192">
        <ele>348</ele>
        <time>2018-02-20T11:29:06.000Z</time>
      </trkpt>
      <trkpt lat="43.54059" lon="5.53192">
        <ele>347</ele>
        <time>2018-02-20T11:29:07.000Z</time>
      </trkpt>
      <trkpt lat="43.54059" lon="5.53193">
        <ele>347</ele>
        <time>2018-02-20T11:29:08.000Z</time>
      </trkpt>
      <trkpt lat="43.54059" lon="5.53193">
        <ele>347</ele>
        <time>2018-02-20T11:29:09.000Z</time>
      </trkpt>
      <trkpt lat="43.5406" lon="5.53193">
        <ele>347</ele>
        <time>2018-02-20T11:29:10.000Z</time>
      </trkpt>
      <trkpt lat="43.5406" lon="5.53194">
        <ele>347</ele>
        <time>2018-02-20T11:29:11.000Z</time>
      </trkpt>
      <trkpt lat="43.5406" lon="5.53194">
        <ele>347</ele>
        <time>2018-02-20T11:29:12.000Z</time>
      </trkpt>
      <trkpt lat="43.5406" lon="5.53194">
        <ele>347</ele>
        <time>2018-02-20T11:29:13.000Z</time>
      </trkpt>
      <trkpt lat="43.5406" lon="5.53194">
        <ele>347</ele>
        <time>2018-02-20T11:29:14.000Z</time>
      </trkpt>
      <trkpt lat="43.54061" lon="5.53194">
        <ele>347</ele>
        <time>2018-02-20T11:29:15.000Z</time>
      </trkpt>
      <trkpt lat="43.54061" lon="5.53194">
        <ele>347</ele>
        <time>2018-02-20T11:29:16.000Z</time>
      </trkpt>
      <trkpt lat="43.54062" lon="5.53194">
        <ele>347</ele>
        <time>2018-02-20T11:29:17.000Z</time>
      </trkpt>
      <trkpt lat="43.54062" lon="5.53194">
        <ele>347</ele>
        <time>2018-02-20T11:29:18.000Z</time>
      </trkpt>
      <trkpt lat="43.54062" lon="5.53195">
        <ele>347</ele>
        <time>2018-02-20T11:29:19.000Z</time>
      </trkpt>
      <trkpt lat="43.54062" lon="5.53195">
        <ele>347</ele>
        <time>2018-02-20T11:29:20.000Z</time>
      </trkpt>
      <trkpt lat="43.54063" lon="5.53195">
        <ele>347</ele>
        <time>2018-02-20T11:29:21.000Z</time>
      </trkpt>
      <trkpt lat="43.54063" lon="5.53195">
        <ele>346</ele>
        <time>2018-02-20T11:29:22.000Z</time>
      </trkpt>
      <trkpt lat="43.54063" lon="5.53195">
        <ele>346</ele>
        <time>2018-02-20T11:29:23.000Z</time>
      </trkpt>
      <trkpt lat="43.54063" lon="5.53196">
        <ele>346</ele>
        <time>2018-02-20T11:29:24.000Z</time>
      </trkpt>
      <trkpt lat="43.54064" lon="5.53196">
        <ele>346</ele>
        <time>2018-02-20T11:29:25.000Z</time>
      </trkpt>
      <trkpt lat="43.54064" lon="5.53196">
        <ele>346</ele>
        <time>2018-02-20T11:29:26.000Z</time>
      </trkpt>
      <trkpt lat="43.54064" lon="5.53196">
        <ele>346</ele>
        <time>2018-02-20T11:29:27.000Z</time>
      </trkpt>
      <trkpt lat="43.54065" lon="5.53197">
        <ele>345</ele>
        <time>2018-02-20T11:29:28.000Z</time>
      </trkpt>
      <trkpt lat="43.54065" lon="5.53197">
        <ele>345</ele>
        <time>2018-02-20T11:29:29.000Z</time>
      </trkpt>
      <trkpt lat="43.54065" lon="5.53197">
        <ele>345</ele>
        <time>2018-02-20T11:29:30.000Z</time>
      </trkpt>
      <trkpt lat="43.54065" lon="5.53198">
        <ele>345</ele>
        <time>2018-02-20T11:29:31.000Z</time>
      </trkpt>
      <trkpt lat="43.54065" lon="5.53198">
        <ele>345</ele>
        <time>2018-02-20T11:29:32.000Z</time>
      </trkpt>
      <trkpt lat="43.54065" lon="5.53198">
        <ele>344</ele>
        <time>2018-02-20T11:29:33.000Z</time>
      </trkpt>
      <trkpt lat="43.54066" lon="5.53199">
        <ele>344</ele>
        <time>2018-02-20T11:29:34.000Z</time>
      </trkpt>
      <trkpt lat="43.54066" lon="5.53199">
        <ele>344</ele>
        <time>2018-02-20T11:29:35.000Z</time>
      </trkpt>
      <trkpt lat="43.54066" lon="5.532">
        <ele>344</ele>
        <time>2018-02-20T11:29:36.000Z</time>
      </trkpt>
      <trkpt lat="43.54066" lon="5.532">
        <ele>344</ele>
        <time>2018-02-20T11:29:37.000Z</time>
      </trkpt>
      <trkpt lat="43.54066" lon="5.532">
        <ele>344</ele>
        <time>2018-02-20T11:29:38.000Z</time>
      </trkpt>
      <trkpt lat="43.54066" lon="5.532">
        <ele>344</ele>
        <time>2018-02-20T11:29:39.000Z</time>
      </trkpt>
      <trkpt lat="43.54067" lon="5.532">
        <ele>344</ele>
        <time>2018-02-20T11:29:40.000Z</time>
      </trkpt>
      <trkpt lat="43.54067" lon="5.532">
        <ele>344</ele>
        <time>2018-02-20T11:29:41.000Z</time>
      </trkpt>
      <trkpt lat="43.54067" lon="5.53201">
        <ele>344</ele>
        <time>2018-02-20T11:29:42.000Z</time>
      </trkpt>
      <trkpt lat="43.54068" lon="5.53201">
        <ele>344</ele>
        <time>2018-02-20T11:29:43.000Z</time>
      </trkpt>
      <trkpt lat="43.54068" lon="5.53201">
        <ele>344</ele>
        <time>2018-02-20T11:29:44.000Z</time>
      </trkpt>
      <trkpt lat="43.54068" lon="5.53202">
        <ele>344</ele>
        <time>2018-02-20T11:29:45.000Z</time>
      </trkpt>
      <trkpt lat="43.54068" lon="5.53202">
        <ele>343</ele>
        <time>2018-02-20T11:29:46.000Z</time>
      </trkpt>
      <trkpt lat="43.54068" lon="5.53203">
        <ele>343</ele>
        <time>2018-02-20T11:29:47.000Z</time>
      </trkpt>
      <trkpt lat="43.54068" lon="5.53204">
        <ele>343</ele>
        <time>2018-02-20T11:29:48.000Z</time>
      </trkpt>
      <trkpt lat="43.54067" lon="5.53204">
        <ele>343</ele>
        <time>2018-02-20T11:29:49.000Z</time>
      </trkpt>
      <trkpt lat="43.54067" lon="5.53205">
        <ele>343</ele>
        <time>2018-02-20T11:29:50.000Z</time>
      </trkpt>
      <trkpt lat="43.54067" lon="5.53205">
        <ele>343</ele>
        <time>2018-02-20T11:29:51.000Z</time>
      </trkpt>
      <trkpt lat="43.54067" lon="5.53205">
        <ele>343</ele>
        <time>2018-02-20T11:29:52.000Z</time>
      </trkpt>
      <trkpt lat="43.54067" lon="5.53205">
        <ele>343</ele>
        <time>2018-02-20T11:29:53.000Z</time>
      </trkpt>
      <trkpt lat="43.54067" lon="5.53205">
        <ele>343</ele>
        <time>2018-02-20T11:29:54.000Z</time>
      </trkpt>
      <trkpt lat="43.54068" lon="5.53205">
        <ele>343</ele>
        <time>2018-02-20T11:29:55.000Z</time>
      </trkpt>
      <trkpt lat="43.54068" lon="5.53206">
        <ele>343</ele>
        <time>2018-02-20T11:29:56.000Z</time>
      </trkpt>
      <trkpt lat="43.54068" lon="5.53207">
        <ele>343</ele>
        <time>2018-02-20T11:29:57.000Z</time>
      </trkpt>
      <trkpt lat="43.54068" lon="5.53208">
        <ele>343</ele>
        <time>2018-02-20T11:29:58.000Z</time>
      </trkpt>
      <trkpt lat="43.54068" lon="5.53208">
        <ele>343</ele>
        <time>2018-02-20T11:29:59.000Z</time>
      </trkpt>
      <trkpt lat="43.54068" lon="5.53209">
        <ele>342</ele>
        <time>2018-02-20T11:30:00.000Z</time>
      </trkpt>
      <trkpt lat="43.54069" lon="5.53209">
        <ele>342</ele>
        <time>2018-02-20T11:30:01.000Z</time>
      </trkpt>
      <trkpt lat="43.54069" lon="5.5321">
        <ele>342</ele>
        <time>2018-02-20T11:30:02.000Z</time>
      </trkpt>
      <trkpt lat="43.5407" lon="5.5321">
        <ele>342</ele>
        <time>2018-02-20T11:30:03.000Z</time>
      </trkpt>
      <trkpt lat="43.54071" lon="5.5321">
        <ele>342</ele>
        <time>2018-02-20T11:30:04.000Z</time>
      </trkpt>
      <trkpt lat="43.54072" lon="5.5321">
        <ele>342</ele>
        <time>2018-02-20T11:30:05.000Z</time>
      </trkpt>
      <trkpt lat="43.54072" lon="5.5321">
        <ele>342</ele>
        <time>2018-02-20T11:30:06.000Z</time>
      </trkpt>
      <trkpt lat="43.54073" lon="5.5321">
        <ele>342</ele>
        <time>2018-02-20T11:30:07.000Z</time>
      </trkpt>
      <trkpt lat="43.54073" lon="5.5321">
        <ele>342</ele>
        <time>2018-02-20T11:30:08.000Z</time>
      </trkpt>
      <trkpt lat="43.54074" lon="5.53211">
        <ele>342</ele>
        <time>2018-02-20T11:30:09.000Z</time>
      </trkpt>
      <trkpt lat="43.54074" lon="5.53211">
        <ele>342</ele>
        <time>2018-02-20T11:30:10.000Z</time>
      </trkpt>
      <trkpt lat="43.54074" lon="5.53212">
        <ele>341</ele>
        <time>2018-02-20T11:30:11.000Z</time>
      </trkpt>
      <trkpt lat="43.54074" lon="5.53212">
        <ele>341</ele>
        <time>2018-02-20T11:30:12.000Z</time>
      </trkpt>
      <trkpt lat="43.54074" lon="5.53213">
        <ele>341</ele>
        <time>2018-02-20T11:30:13.000Z</time>
      </trkpt>
      <trkpt lat="43.54075" lon="5.53213">
        <ele>341</ele>
        <time>2018-02-20T11:30:14.000Z</time>
      </trkpt>
      <trkpt lat="43.54075" lon="5.53214">
        <ele>341</ele>
        <time>2018-02-20T11:30:15.000Z</time>
      </trkpt>
      <trkpt lat="43.54076" lon="5.53214">
        <ele>341</ele>
        <time>2018-02-20T11:30:16.000Z</time>
      </trkpt>
      <trkpt lat="43.54076" lon="5.53214">
        <ele>341</ele>
        <time>2018-02-20T11:30:17.000Z</time>
      </trkpt>
      <trkpt lat="43.54077" lon="5.53213">
        <ele>341</ele>
        <time>2018-02-20T11:30:18.000Z</time>
      </trkpt>
      <trkpt lat="43.54077" lon="5.53214">
        <ele>340</ele>
        <time>2018-02-20T11:30:19.000Z</time>
      </trkpt>
      <trkpt lat="43.54078" lon="5.53214">
        <ele>340</ele>
        <time>2018-02-20T11:30:20.000Z</time>
      </trkpt>
      <trkpt lat="43.54079" lon="5.53214">
        <ele>340</ele>
        <time>2018-02-20T11:30:21.000Z</time>
      </trkpt>
      <trkpt lat="43.54079" lon="5.53214">
        <ele>340</ele>
        <time>2018-02-20T11:30:22.000Z</time>
      </trkpt>
      <trkpt lat="43.54079" lon="5.53215">
        <ele>340</ele>
        <time>2018-02-20T11:30:23.000Z</time>
      </trkpt>
      <trkpt lat="43.54079" lon="5.53215">
        <ele>339</ele>
        <time>2018-02-20T11:30:24.000Z</time>
      </trkpt>
      <trkpt lat="43.54079" lon="5.53215">
        <ele>339</ele>
        <time>2018-02-20T11:30:25.000Z</time>
      </trkpt>
      <trkpt lat="43.54079" lon="5.53215">
        <ele>339</ele>
        <time>2018-02-20T11:30:26.000Z</time>
      </trkpt>
      <trkpt lat="43.5408" lon="5.53216">
        <ele>339</ele>
        <time>2018-02-20T11:30:27.000Z</time>
      </trkpt>
      <trkpt lat="43.5408" lon="5.53216">
        <ele>339</ele>
        <time>2018-02-20T11:30:28.000Z</time>
      </trkpt>
      <trkpt lat="43.5408" lon="5.53216">
        <ele>339</ele>
        <time>2018-02-20T11:30:29.000Z</time>
      </trkpt>
      <trkpt lat="43.54081" lon="5.53216">
        <ele>338</ele>
        <time>2018-02-20T11:30:30.000Z</time>
      </trkpt>
      <trkpt lat="43.54081" lon="5.53216">
        <ele>338</ele>
        <time>2018-02-20T11:30:31.000Z</time>
      </trkpt>
      <trkpt lat="43.54081" lon="5.53216">
        <ele>338</ele>
        <time>2018-02-20T11:30:32.000Z</time>
      </trkpt>
      <trkpt lat="43.54081" lon="5.53216">
        <ele>338</ele>
        <time>2018-02-20T11:30:33.000Z</time>
      </trkpt>
      <trkpt lat="43.54081" lon="5.53216">
        <ele>338</ele>
        <time>2018-02-20T11:30:34.000Z</time>
      </trkpt>
      <trkpt lat="43.54081" lon="5.53216">
        <ele>338</ele>
        <time>2018-02-20T11:30:35.000Z</time>
      </trkpt>
      <trkpt lat="43.54081" lon="5.53216">
        <ele>338</ele>
        <time>2018-02-20T11:30:36.000Z</time>
      </trkpt>
      <trkpt lat="43.54081" lon="5.53216">
        <ele>338</ele>
        <time>2018-02-20T11:30:37.000Z</time>
      </trkpt>
      <trkpt lat="43.54081" lon="5.53217">
        <ele>338</ele>
        <time>2018-02-20T11:30:38.000Z</time>
      </trkpt>
      <trkpt lat="43.54081" lon="5.53216">
        <ele>338</ele>
        <time>2018-02-20T11:30:39.000Z</time>
      </trkpt>
      <trkpt lat="43.54082" lon="5.53216">
        <ele>338</ele>
        <time>2018-02-20T11:30:40.000Z</time>
      </trkpt>
      <trkpt lat="43.54082" lon="5.53216">
        <ele>338</ele>
        <time>2018-02-20T11:30:41.000Z</time>
      </trkpt>
      <trkpt lat="43.54082" lon="5.53216">
        <ele>338</ele>
        <time>2018-02-20T11:30:42.000Z</time>
      </trkpt>
      <trkpt lat="43.54082" lon="5.53216">
        <ele>338</ele>
        <time>2018-02-20T11:30:43.000Z</time>
      </trkpt>
      <trkpt lat="43.54082" lon="5.53216">
        <ele>337</ele>
        <time>2018-02-20T11:30:44.000Z</time>
      </trkpt>
      <trkpt lat="43.54082" lon="5.53216">
        <ele>337</ele>
        <time>2018-02-20T11:30:45.000Z</time>
      </trkpt>
      <trkpt lat="43.54082" lon="5.53216">
        <ele>337</ele>
        <time>2018-02-20T11:30:46.000Z</time>
      </trkpt>
      <trkpt lat="43.54082" lon="5.53216">
        <ele>337</ele>
        <time>2018-02-20T11:30:47.000Z</time>
      </trkpt>
      <trkpt lat="43.54082" lon="5.53216">
        <ele>337</ele>
        <time>2018-02-20T11:30:48.000Z</time>
      </trkpt>
      <trkpt lat="43.54082" lon="5.53216">
        <ele>337</ele>
        <time>2018-02-20T11:30:49.000Z</time>
      </trkpt>
      <trkpt lat="43.54082" lon="5.53216">
        <ele>337</ele>
        <time>2018-02-20T11:30:50.000Z</time>
      </trkpt>
      <trkpt lat="43.54082" lon="5.53216">
        <ele>337</ele>
        <time>2018-02-20T11:30:51.000Z</time>
      </trkpt>
      <trkpt lat="43.54082" lon="5.53216">
        <ele>337</ele>
        <time>2018-02-20T11:30:52.000Z</time>
      </trkpt>
      <trkpt lat="43.54082" lon="5.53216">
        <ele>337</ele>
        <time>2018-02-20T11:30:53.000Z</time>
      </trkpt>
      <trkpt lat="43.54083" lon="5.53217">
        <ele>337</ele>
        <time>2018-02-20T11:30:54.000Z</time>
      </trkpt>
      <trkpt lat="43.54083" lon="5.53217">
        <ele>337</ele>
        <time>2018-02-20T11:30:55.000Z</time>
      </trkpt>
      <trkpt lat="43.54084" lon="5.53218">
        <ele>337</ele>
        <time>2018-02-20T11:30:56.000Z</time>
      </trkpt>
      <trkpt lat="43.54084" lon="5.53218">
        <ele>337</ele>
        <time>2018-02-20T11:30:57.000Z</time>
      </trkpt>
      <trkpt lat="43.54085" lon="5.53218">
        <ele>337</ele>
        <time>2018-02-20T11:30:58.000Z</time>
      </trkpt>
      <trkpt lat="43.54085" lon="5.53219">
        <ele>337</ele>
        <time>2018-02-20T11:30:59.000Z</time>
      </trkpt>
      <trkpt lat="43.54086" lon="5.53219">
        <ele>336</ele>
        <time>2018-02-20T11:31:00.000Z</time>
      </trkpt>
      <trkpt lat="43.54086" lon="5.53219">
        <ele>336</ele>
        <time>2018-02-20T11:31:01.000Z</time>
      </trkpt>
      <trkpt lat="43.54087" lon="5.5322">
        <ele>336</ele>
        <time>2018-02-20T11:31:02.000Z</time>
      </trkpt>
      <trkpt lat="43.54087" lon="5.5322">
        <ele>336</ele>
        <time>2018-02-20T11:31:03.000Z</time>
      </trkpt>
      <trkpt lat="43.54088" lon="5.53221">
        <ele>336</ele>
        <time>2018-02-20T11:31:04.000Z</time>
      </trkpt>
      <trkpt lat="43.54088" lon="5.53221">
        <ele>336</ele>
        <time>2018-02-20T11:31:05.000Z</time>
      </trkpt>
      <trkpt lat="43.54088" lon="5.53221">
        <ele>336</ele>
        <time>2018-02-20T11:31:06.000Z</time>
      </trkpt>
      <trkpt lat="43.54088" lon="5.53221">
        <ele>336</ele>
        <time>2018-02-20T11:31:07.000Z</time>
      </trkpt>
      <trkpt lat="43.54088" lon="5.53222">
        <ele>336</ele>
        <time>2018-02-20T11:31:08.000Z</time>
      </trkpt>
      <trkpt lat="43.54088" lon="5.53222">
        <ele>336</ele>
        <time>2018-02-20T11:31:09.000Z</time>
      </trkpt>
      <trkpt lat="43.54088" lon="5.53222">
        <ele>336</ele>
        <time>2018-02-20T11:31:10.000Z</time>
      </trkpt>
      <trkpt lat="43.54089" lon="5.53222">
        <ele>336</ele>
        <time>2018-02-20T11:31:11.000Z</time>
      </trkpt>
      <trkpt lat="43.54089" lon="5.53222">
        <ele>336</ele>
        <time>2018-02-20T11:31:12.000Z</time>
      </trkpt>
      <trkpt lat="43.5409" lon="5.53223">
        <ele>336</ele>
        <time>2018-02-20T11:31:13.000Z</time>
      </trkpt>
      <trkpt lat="43.5409" lon="5.53223">
        <ele>336</ele>
        <time>2018-02-20T11:31:14.000Z</time>
      </trkpt>
      <trkpt lat="43.5409" lon="5.53224">
        <ele>336</ele>
        <time>2018-02-20T11:31:15.000Z</time>
      </trkpt>
      <trkpt lat="43.5409" lon="5.53224">
        <ele>336</ele>
        <time>2018-02-20T11:31:16.000Z</time>
      </trkpt>
      <trkpt lat="43.5409" lon="5.53225">
        <ele>336</ele>
        <time>2018-02-20T11:31:17.000Z</time>
      </trkpt>
      <trkpt lat="43.5409" lon="5.53226">
        <ele>335</ele>
        <time>2018-02-20T11:31:18.000Z</time>
      </trkpt>
      <trkpt lat="43.5409" lon="5.53227">
        <ele>335</ele>
        <time>2018-02-20T11:31:19.000Z</time>
      </trkpt>
      <trkpt lat="43.5409" lon="5.53228">
        <ele>335</ele>
        <time>2018-02-20T11:31:20.000Z</time>
      </trkpt>
      <trkpt lat="43.54091" lon="5.53229">
        <ele>335</ele>
        <time>2018-02-20T11:31:21.000Z</time>
      </trkpt>
      <trkpt lat="43.54091" lon="5.5323">
        <ele>335</ele>
        <time>2018-02-20T11:31:22.000Z</time>
      </trkpt>
      <trkpt lat="43.54091" lon="5.53231">
        <ele>335</ele>
        <time>2018-02-20T11:31:23.000Z</time>
      </trkpt>
      <trkpt lat="43.54091" lon="5.53231">
        <ele>334</ele>
        <time>2018-02-20T11:31:24.000Z</time>
      </trkpt>
      <trkpt lat="43.54092" lon="5.53232">
        <ele>334</ele>
        <time>2018-02-20T11:31:25.000Z</time>
      </trkpt>
      <trkpt lat="43.54092" lon="5.53232">
        <ele>334</ele>
        <time>2018-02-20T11:31:26.000Z</time>
      </trkpt>
      <trkpt lat="43.54092" lon="5.53233">
        <ele>334</ele>
        <time>2018-02-20T11:31:27.000Z</time>
      </trkpt>
      <trkpt lat="43.54092" lon="5.53234">
        <ele>334</ele>
        <time>2018-02-20T11:31:28.000Z</time>
      </trkpt>
      <trkpt lat="43.54092" lon="5.53234">
        <ele>333</ele>
        <time>2018-02-20T11:31:29.000Z</time>
      </trkpt>
      <trkpt lat="43.54092" lon="5.53235">
        <ele>333</ele>
        <time>2018-02-20T11:31:30.000Z</time>
      </trkpt>
      <trkpt lat="43.54093" lon="5.53235">
        <ele>333</ele>
        <time>2018-02-20T11:31:31.000Z</time>
      </trkpt>
      <trkpt lat="43.54093" lon="5.53236">
        <ele>333</ele>
        <time>2018-02-20T11:31:32.000Z</time>
      </trkpt>
      <trkpt lat="43.54093" lon="5.53237">
        <ele>333</ele>
        <time>2018-02-20T11:31:33.000Z</time>
      </trkpt>
      <trkpt lat="43.54093" lon="5.53238">
        <ele>332</ele>
        <time>2018-02-20T11:31:34.000Z</time>
      </trkpt>
      <trkpt lat="43.54093" lon="5.53238">
        <ele>332</ele>
        <time>2018-02-20T11:31:35.000Z</time>
      </trkpt>
      <trkpt lat="43.54093" lon="5.53238">
        <ele>332</ele>
        <time>2018-02-20T11:31:36.000Z</time>
      </trkpt>
      <trkpt lat="43.54093" lon="5.53239">
        <ele>332</ele>
        <time>2018-02-20T11:31:37.000Z</time>
      </trkpt>
      <trkpt lat="43.54093" lon="5.53239">
        <ele>332</ele>
        <time>2018-02-20T11:31:38.000Z</time>
      </trkpt>
      <trkpt lat="43.54094" lon="5.5324">
        <ele>332</ele>
        <time>2018-02-20T11:31:39.000Z</time>
      </trkpt>
      <trkpt lat="43.54094" lon="5.53242">
        <ele>332</ele>
        <time>2018-02-20T11:31:40.000Z</time>
      </trkpt>
      <trkpt lat="43.54095" lon="5.53242">
        <ele>332</ele>
        <time>2018-02-20T11:31:41.000Z</time>
      </trkpt>
      <trkpt lat="43.54095" lon="5.53243">
        <ele>332</ele>
        <time>2018-02-20T11:31:42.000Z</time>
      </trkpt>
      <trkpt lat="43.54095" lon="5.53243">
        <ele>332</ele>
        <time>2018-02-20T11:31:43.000Z</time>
      </trkpt>
      <trkpt lat="43.54095" lon="5.53244">
        <ele>332</ele>
        <time>2018-02-20T11:31:44.000Z</time>
      </trkpt>
      <trkpt lat="43.54096" lon="5.53245">
        <ele>332</ele>
        <time>2018-02-20T11:31:45.000Z</time>
      </trkpt>
      <trkpt lat="43.54096" lon="5.53245">
        <ele>331</ele>
        <time>2018-02-20T11:31:46.000Z</time>
      </trkpt>
      <trkpt lat="43.54096" lon="5.53246">
        <ele>331</ele>
        <time>2018-02-20T11:31:47.000Z</time>
      </trkpt>
      <trkpt lat="43.54096" lon="5.53247">
        <ele>331</ele>
        <time>2018-02-20T11:31:48.000Z</time>
      </trkpt>
      <trkpt lat="43.54097" lon="5.53248">
        <ele>331</ele>
        <time>2018-02-20T11:31:49.000Z</time>
      </trkpt>
      <trkpt lat="43.54097" lon="5.53249">
        <ele>331</ele>
        <time>2018-02-20T11:31:50.000Z</time>
      </trkpt>
      <trkpt lat="43.54098" lon="5.5325">
        <ele>331</ele>
        <time>2018-02-20T11:31:51.000Z</time>
      </trkpt>
      <trkpt lat="43.54099" lon="5.5325">
        <ele>331</ele>
        <time>2018-02-20T11:31:52.000Z</time>
      </trkpt>
      <trkpt lat="43.54099" lon="5.53252">
        <ele>331</ele>
        <time>2018-02-20T11:31:53.000Z</time>
      </trkpt>
      <trkpt lat="43.541" lon="5.53253">
        <ele>331</ele>
        <time>2018-02-20T11:31:54.000Z</time>
      </trkpt>
      <trkpt lat="43.541" lon="5.53254">
        <ele>331</ele>
        <time>2018-02-20T11:31:55.000Z</time>
      </trkpt>
      <trkpt lat="43.54101" lon="5.53255">
        <ele>331</ele>
        <time>2018-02-20T11:31:56.000Z</time>
      </trkpt>
      <trkpt lat="43.54101" lon="5.53256">
        <ele>331</ele>
        <time>2018-02-20T11:31:57.000Z</time>
      </trkpt>
      <trkpt lat="43.54101" lon="5.53257">
        <ele>331</ele>
        <time>2018-02-20T11:31:58.000Z</time>
      </trkpt>
      <trkpt lat="43.54101" lon="5.53258">
        <ele>331</ele>
        <time>2018-02-20T11:31:59.000Z</time>
      </trkpt>
      <trkpt lat="43.54101" lon="5.53259">
        <ele>331</ele>
        <time>2018-02-20T11:32:00.000Z</time>
      </trkpt>
      <trkpt lat="43.54101" lon="5.5326">
        <ele>330</ele>
        <time>2018-02-20T11:32:01.000Z</time>
      </trkpt>
      <trkpt lat="43.541" lon="5.5326">
        <ele>330</ele>
        <time>2018-02-20T11:32:02.000Z</time>
      </trkpt>
      <trkpt lat="43.541" lon="5.53261">
        <ele>330</ele>
        <time>2018-02-20T11:32:03.000Z</time>
      </trkpt>
      <trkpt lat="43.541" lon="5.53263">
        <ele>330</ele>
        <time>2018-02-20T11:32:04.000Z</time>
      </trkpt>
      <trkpt lat="43.541" lon="5.53264">
        <ele>330</ele>
        <time>2018-02-20T11:32:05.000Z</time>
      </trkpt>
      <trkpt lat="43.541" lon="5.53266">
        <ele>330</ele>
        <time>2018-02-20T11:32:06.000Z</time>
      </trkpt>
      <trkpt lat="43.541" lon="5.53267">
        <ele>330</ele>
        <time>2018-02-20T11:32:07.000Z</time>
      </trkpt>
      <trkpt lat="43.54101" lon="5.53269">
        <ele>330</ele>
        <time>2018-02-20T11:32:08.000Z</time>
      </trkpt>
      <trkpt lat="43.54101" lon="5.53271">
        <ele>329</ele>
        <time>2018-02-20T11:32:09.000Z</time>
      </trkpt>
      <trkpt lat="43.54101" lon="5.53271">
        <ele>329</ele>
        <time>2018-02-20T11:32:10.000Z</time>
      </trkpt>
      <trkpt lat="43.54101" lon="5.53272">
        <ele>329</ele>
        <time>2018-02-20T11:32:11.000Z</time>
      </trkpt>
      <trkpt lat="43.54102" lon="5.53273">
        <ele>329</ele>
        <time>2018-02-20T11:32:12.000Z</time>
      </trkpt>
      <trkpt lat="43.54102" lon="5.53274">
        <ele>329</ele>
        <time>2018-02-20T11:32:13.000Z</time>
      </trkpt>
      <trkpt lat="43.54102" lon="5.53275">
        <ele>329</ele>
        <time>2018-02-20T11:32:14.000Z</time>
      </trkpt>
      <trkpt lat="43.54102" lon="5.53276">
        <ele>329</ele>
        <time>2018-02-20T11:32:15.000Z</time>
      </trkpt>
      <trkpt lat="43.54102" lon="5.53277">
        <ele>329</ele>
        <time>2018-02-20T11:32:16.000Z</time>
      </trkpt>
      <trkpt lat="43.54102" lon="5.53278">
        <ele>328</ele>
        <time>2018-02-20T11:32:17.000Z</time>
      </trkpt>
      <trkpt lat="43.54102" lon="5.53279">
        <ele>328</ele>
        <time>2018-02-20T11:32:18.000Z</time>
      </trkpt>
      <trkpt lat="43.54102" lon="5.53279">
        <ele>328</ele>
        <time>2018-02-20T11:32:19.000Z</time>
      </trkpt>
      <trkpt lat="43.54101" lon="5.53279">
        <ele>328</ele>
        <time>2018-02-20T11:32:20.000Z</time>
      </trkpt>
      <trkpt lat="43.54101" lon="5.53279">
        <ele>328</ele>
        <time>2018-02-20T11:32:21.000Z</time>
      </trkpt>
      <trkpt lat="43.541" lon="5.53279">
        <ele>328</ele>
        <time>2018-02-20T11:32:22.000Z</time>
      </trkpt>
      <trkpt lat="43.541" lon="5.53279">
        <ele>327</ele>
        <time>2018-02-20T11:32:23.000Z</time>
      </trkpt>
      <trkpt lat="43.541" lon="5.5328">
        <ele>327</ele>
        <time>2018-02-20T11:32:24.000Z</time>
      </trkpt>
      <trkpt lat="43.541" lon="5.53281">
        <ele>327</ele>
        <time>2018-02-20T11:32:25.000Z</time>
      </trkpt>
      <trkpt lat="43.54099" lon="5.53282">
        <ele>327</ele>
        <time>2018-02-20T11:32:26.000Z</time>
      </trkpt>
      <trkpt lat="43.54099" lon="5.53282">
        <ele>327</ele>
        <time>2018-02-20T11:32:27.000Z</time>
      </trkpt>
      <trkpt lat="43.54099" lon="5.53283">
        <ele>327</ele>
        <time>2018-02-20T11:32:28.000Z</time>
      </trkpt>
      <trkpt lat="43.54099" lon="5.53283">
        <ele>327</ele>
        <time>2018-02-20T11:32:29.000Z</time>
      </trkpt>
      <trkpt lat="43.54099" lon="5.53284">
        <ele>327</ele>
        <time>2018-02-20T11:32:30.000Z</time>
      </trkpt>
      <trkpt lat="43.54099" lon="5.53285">
        <ele>326</ele>
        <time>2018-02-20T11:32:31.000Z</time>
      </trkpt>
      <trkpt lat="43.54099" lon="5.53286">
        <ele>326</ele>
        <time>2018-02-20T11:32:32.000Z</time>
      </trkpt>
      <trkpt lat="43.54099" lon="5.53287">
        <ele>326</ele>
        <time>2018-02-20T11:32:33.000Z</time>
      </trkpt>
      <trkpt lat="43.54098" lon="5.53288">
        <ele>326</ele>
        <time>2018-02-20T11:32:34.000Z</time>
      </trkpt>
      <trkpt lat="43.54098" lon="5.53288">
        <ele>325</ele>
        <time>2018-02-20T11:32:35.000Z</time>
      </trkpt>
      <trkpt lat="43.54098" lon="5.53289">
        <ele>325</ele>
        <time>2018-02-20T11:32:36.000Z</time>
      </trkpt>
      <trkpt lat="43.54098" lon="5.5329">
        <ele>325</ele>
        <time>2018-02-20T11:32:37.000Z</time>
      </trkpt>
      <trkpt lat="43.54098" lon="5.5329">
        <ele>325</ele>
        <time>2018-02-20T11:32:38.000Z</time>
      </trkpt>
      <trkpt lat="43.54098" lon="5.53291">
        <ele>325</ele>
        <time>2018-02-20T11:32:39.000Z</time>
      </trkpt>
      <trkpt lat="43.54098" lon="5.53291">
        <ele>324</ele>
        <time>2018-02-20T11:32:40.000Z</time>
      </trkpt>
      <trkpt lat="43.54098" lon="5.53291">
        <ele>324</ele>
        <time>2018-02-20T11:32:41.000Z</time>
      </trkpt>
      <trkpt lat="43.54098" lon="5.53292">
        <ele>324</ele>
        <time>2018-02-20T11:32:42.000Z</time>
      </trkpt>
      <trkpt lat="43.54098" lon="5.53293">
        <ele>324</ele>
        <time>2018-02-20T11:32:43.000Z</time>
      </trkpt>
      <trkpt lat="43.54098" lon="5.53294">
        <ele>324</ele>
        <time>2018-02-20T11:32:44.000Z</time>
      </trkpt>
      <trkpt lat="43.54097" lon="5.53295">
        <ele>324</ele>
        <time>2018-02-20T11:32:45.000Z</time>
      </trkpt>
      <trkpt lat="43.54097" lon="5.53296">
        <ele>324</ele>
        <time>2018-02-20T11:32:46.000Z</time>
      </trkpt>
      <trkpt lat="43.54097" lon="5.53297">
        <ele>324</ele>
        <time>2018-02-20T11:32:47.000Z</time>
      </trkpt>
      <trkpt lat="43.54097" lon="5.53298">
        <ele>324</ele>
        <time>2018-02-20T11:32:48.000Z</time>
      </trkpt>
      <trkpt lat="43.54097" lon="5.53299">
        <ele>324</ele>
        <time>2018-02-20T11:32:49.000Z</time>
      </trkpt>
      <trkpt lat="43.54097" lon="5.533">
        <ele>323</ele>
        <time>2018-02-20T11:32:50.000Z</time>
      </trkpt>
      <trkpt lat="43.54097" lon="5.53301">
        <ele>323</ele>
        <time>2018-02-20T11:32:51.000Z</time>
      </trkpt>
      <trkpt lat="43.54097" lon="5.53302">
        <ele>323</ele>
        <time>2018-02-20T11:32:52.000Z</time>
      </trkpt>
      <trkpt lat="43.54098" lon="5.53303">
        <ele>323</ele>
        <time>2018-02-20T11:32:53.000Z</time>
      </trkpt>
      <trkpt lat="43.54098" lon="5.53304">
        <ele>323</ele>
        <time>2018-02-20T11:32:54.000Z</time>
      </trkpt>
      <trkpt lat="43.54098" lon="5.53304">
        <ele>323</ele>
        <time>2018-02-20T11:32:55.000Z</time>
      </trkpt>
      <trkpt lat="43.54098" lon="5.53305">
        <ele>323</ele>
        <time>2018-02-20T11:32:56.000Z</time>
      </trkpt>
      <trkpt lat="43.54098" lon="5.53305">
        <ele>322</ele>
        <time>2018-02-20T11:32:57.000Z</time>
      </trkpt>
      <trkpt lat="43.54097" lon="5.53305">
        <ele>322</ele>
        <time>2018-02-20T11:32:58.000Z</time>
      </trkpt>
      <trkpt lat="43.54097" lon="5.53306">
        <ele>322</ele>
        <time>2018-02-20T11:32:59.000Z</time>
      </trkpt>
      <trkpt lat="43.54097" lon="5.53307">
        <ele>322</ele>
        <time>2018-02-20T11:33:00.000Z</time>
      </trkpt>
      <trkpt lat="43.54097" lon="5.53307">
        <ele>321</ele>
        <time>2018-02-20T11:33:01.000Z</time>
      </trkpt>
      <trkpt lat="43.54097" lon="5.53308">
        <ele>321</ele>
        <time>2018-02-20T11:33:02.000Z</time>
      </trkpt>
      <trkpt lat="43.54097" lon="5.53309">
        <ele>321</ele>
        <time>2018-02-20T11:33:03.000Z</time>
      </trkpt>
      <trkpt lat="43.54097" lon="5.53309">
        <ele>320</ele>
        <time>2018-02-20T11:33:04.000Z</time>
      </trkpt>
      <trkpt lat="43.54097" lon="5.5331">
        <ele>320</ele>
        <time>2018-02-20T11:33:05.000Z</time>
      </trkpt>
      <trkpt lat="43.54097" lon="5.53311">
        <ele>320</ele>
        <time>2018-02-20T11:33:06.000Z</time>
      </trkpt>
      <trkpt lat="43.54096" lon="5.53312">
        <ele>320</ele>
        <time>2018-02-20T11:33:07.000Z</time>
      </trkpt>
      <trkpt lat="43.54096" lon="5.53313">
        <ele>320</ele>
        <time>2018-02-20T11:33:08.000Z</time>
      </trkpt>
      <trkpt lat="43.54096" lon="5.53315">
        <ele>319</ele>
        <time>2018-02-20T11:33:09.000Z</time>
      </trkpt>
      <trkpt lat="43.54095" lon="5.53316">
        <ele>319</ele>
        <time>2018-02-20T11:33:10.000Z</time>
      </trkpt>
      <trkpt lat="43.54095" lon="5.53317">
        <ele>319</ele>
        <time>2018-02-20T11:33:11.000Z</time>
      </trkpt>
      <trkpt lat="43.54094" lon="5.53319">
        <ele>319</ele>
        <time>2018-02-20T11:33:12.000Z</time>
      </trkpt>
      <trkpt lat="43.54094" lon="5.53319">
        <ele>319</ele>
        <time>2018-02-20T11:33:13.000Z</time>
      </trkpt>
      <trkpt lat="43.54094" lon="5.53319">
        <ele>319</ele>
        <time>2018-02-20T11:33:14.000Z</time>
      </trkpt>
      <trkpt lat="43.54094" lon="5.5332">
        <ele>318</ele>
        <time>2018-02-20T11:33:15.000Z</time>
      </trkpt>
      <trkpt lat="43.54093" lon="5.5332">
        <ele>318</ele>
        <time>2018-02-20T11:33:16.000Z</time>
      </trkpt>
      <trkpt lat="43.54093" lon="5.5332">
        <ele>318</ele>
        <time>2018-02-20T11:33:17.000Z</time>
      </trkpt>
      <trkpt lat="43.54093" lon="5.53321">
        <ele>318</ele>
        <time>2018-02-20T11:33:18.000Z</time>
      </trkpt>
      <trkpt lat="43.54093" lon="5.53321">
        <ele>317</ele>
        <time>2018-02-20T11:33:19.000Z</time>
      </trkpt>
      <trkpt lat="43.54092" lon="5.53321">
        <ele>317</ele>
        <time>2018-02-20T11:33:20.000Z</time>
      </trkpt>
      <trkpt lat="43.54092" lon="5.53321">
        <ele>317</ele>
        <time>2018-02-20T11:33:21.000Z</time>
      </trkpt>
      <trkpt lat="43.54092" lon="5.53322">
        <ele>317</ele>
        <time>2018-02-20T11:33:22.000Z</time>
      </trkpt>
      <trkpt lat="43.54092" lon="5.53323">
        <ele>317</ele>
        <time>2018-02-20T11:33:23.000Z</time>
      </trkpt>
      <trkpt lat="43.54092" lon="5.53323">
        <ele>316</ele>
        <time>2018-02-20T11:33:24.000Z</time>
      </trkpt>
      <trkpt lat="43.54091" lon="5.53324">
        <ele>316</ele>
        <time>2018-02-20T11:33:25.000Z</time>
      </trkpt>
      <trkpt lat="43.54091" lon="5.53324">
        <ele>316</ele>
        <time>2018-02-20T11:33:26.000Z</time>
      </trkpt>
      <trkpt lat="43.54091" lon="5.53325">
        <ele>316</ele>
        <time>2018-02-20T11:33:27.000Z</time>
      </trkpt>
      <trkpt lat="43.54091" lon="5.53325">
        <ele>316</ele>
        <time>2018-02-20T11:33:28.000Z</time>
      </trkpt>
      <trkpt lat="43.5409" lon="5.53326">
        <ele>315</ele>
        <time>2018-02-20T11:33:29.000Z</time>
      </trkpt>
      <trkpt lat="43.5409" lon="5.53327">
        <ele>315</ele>
        <time>2018-02-20T11:33:30.000Z</time>
      </trkpt>
      <trkpt lat="43.5409" lon="5.53327">
        <ele>315</ele>
        <time>2018-02-20T11:33:31.000Z</time>
      </trkpt>
      <trkpt lat="43.54089" lon="5.53328">
        <ele>315</ele>
        <time>2018-02-20T11:33:32.000Z</time>
      </trkpt>
      <trkpt lat="43.54089" lon="5.53328">
        <ele>314</ele>
        <time>2018-02-20T11:33:33.000Z</time>
      </trkpt>
      <trkpt lat="43.54088" lon="5.53328">
        <ele>314</ele>
        <time>2018-02-20T11:33:34.000Z</time>
      </trkpt>
      <trkpt lat="43.54088" lon="5.53328">
        <ele>314</ele>
        <time>2018-02-20T11:33:35.000Z</time>
      </trkpt>
      <trkpt lat="43.54088" lon="5.53329">
        <ele>314</ele>
        <time>2018-02-20T11:33:36.000Z</time>
      </trkpt>
      <trkpt lat="43.54087" lon="5.5333">
        <ele>313</ele>
        <time>2018-02-20T11:33:37.000Z</time>
      </trkpt>
      <trkpt lat="43.54087" lon="5.5333">
        <ele>313</ele>
        <time>2018-02-20T11:33:38.000Z</time>
      </trkpt>
      <trkpt lat="43.54086" lon="5.53331">
        <ele>313</ele>
        <time>2018-02-20T11:33:39.000Z</time>
      </trkpt>
      <trkpt lat="43.54086" lon="5.53331">
        <ele>313</ele>
        <time>2018-02-20T11:33:40.000Z</time>
      </trkpt>
      <trkpt lat="43.54086" lon="5.53331">
        <ele>313</ele>
        <time>2018-02-20T11:33:41.000Z</time>
      </trkpt>
      <trkpt lat="43.54085" lon="5.53332">
        <ele>313</ele>
        <time>2018-02-20T11:33:42.000Z</time>
      </trkpt>
      <trkpt lat="43.54085" lon="5.53332">
        <ele>312</ele>
        <time>2018-02-20T11:33:43.000Z</time>
      </trkpt>
      <trkpt lat="43.54085" lon="5.53332">
        <ele>312</ele>
        <time>2018-02-20T11:33:44.000Z</time>
      </trkpt>
      <trkpt lat="43.54085" lon="5.53333">
        <ele>312</ele>
        <time>2018-02-20T11:33:45.000Z</time>
      </trkpt>
      <trkpt lat="43.54085" lon="5.53335">
        <ele>312</ele>
        <time>2018-02-20T11:33:46.000Z</time>
      </trkpt>
      <trkpt lat="43.54085" lon="5.53336">
        <ele>312</ele>
        <time>2018-02-20T11:33:47.000Z</time>
      </trkpt>
      <trkpt lat="43.54085" lon="5.53336">
        <ele>312</ele>
        <time>2018-02-20T11:33:48.000Z</time>
      </trkpt>
      <trkpt lat="43.54084" lon="5.53337">
        <ele>312</ele>
        <time>2018-02-20T11:33:49.000Z</time>
      </trkpt>
      <trkpt lat="43.54084" lon="5.53338">
        <ele>312</ele>
        <time>2018-02-20T11:33:50.000Z</time>
      </trkpt>
      <trkpt lat="43.54084" lon="5.53339">
        <ele>312</ele>
        <time>2018-02-20T11:33:51.000Z</time>
      </trkpt>
      <trkpt lat="43.54084" lon="5.53339">
        <ele>312</ele>
        <time>2018-02-20T11:33:52.000Z</time>
      </trkpt>
      <trkpt lat="43.54083" lon="5.5334">
        <ele>312</ele>
        <time>2018-02-20T11:33:53.000Z</time>
      </trkpt>
      <trkpt lat="43.54083" lon="5.53341">
        <ele>312</ele>
        <time>2018-02-20T11:33:54.000Z</time>
      </trkpt>
      <trkpt lat="43.54083" lon="5.53342">
        <ele>312</ele>
        <time>2018-02-20T11:33:55.000Z</time>
      </trkpt>
      <trkpt lat="43.54083" lon="5.53343">
        <ele>312</ele>
        <time>2018-02-20T11:33:56.000Z</time>
      </trkpt>
      <trkpt lat="43.54083" lon="5.53344">
        <ele>312</ele>
        <time>2018-02-20T11:33:57.000Z</time>
      </trkpt>
      <trkpt lat="43.54083" lon="5.53345">
        <ele>312</ele>
        <time>2018-02-20T11:33:58.000Z</time>
      </trkpt>
      <trkpt lat="43.54082" lon="5.53345">
        <ele>312</ele>
        <time>2018-02-20T11:33:59.000Z</time>
      </trkpt>
      <trkpt lat="43.54082" lon="5.53346">
        <ele>312</ele>
        <time>2018-02-20T11:34:00.000Z</time>
      </trkpt>
      <trkpt lat="43.54082" lon="5.53346">
        <ele>312</ele>
        <time>2018-02-20T11:34:01.000Z</time>
      </trkpt>
      <trkpt lat="43.54082" lon="5.53347">
        <ele>312</ele>
        <time>2018-02-20T11:34:02.000Z</time>
      </trkpt>
      <trkpt lat="43.54083" lon="5.53347">
        <ele>312</ele>
        <time>2018-02-20T11:34:03.000Z</time>
      </trkpt>
      <trkpt lat="43.54083" lon="5.53347">
        <ele>312</ele>
        <time>2018-02-20T11:34:04.000Z</time>
      </trkpt>
      <trkpt lat="43.54083" lon="5.53347">
        <ele>312</ele>
        <time>2018-02-20T11:34:05.000Z</time>
      </trkpt>
      <trkpt lat="43.54083" lon="5.53348">
        <ele>312</ele>
        <time>2018-02-20T11:34:06.000Z</time>
      </trkpt>
      <trkpt lat="43.54083" lon="5.53349">
        <ele>312</ele>
        <time>2018-02-20T11:34:07.000Z</time>
      </trkpt>
      <trkpt lat="43.54082" lon="5.5335">
        <ele>312</ele>
        <time>2018-02-20T11:34:08.000Z</time>
      </trkpt>
      <trkpt lat="43.54082" lon="5.5335">
        <ele>312</ele>
        <time>2018-02-20T11:34:09.000Z</time>
      </trkpt>
      <trkpt lat="43.54082" lon="5.5335">
        <ele>312</ele>
        <time>2018-02-20T11:34:10.000Z</time>
      </trkpt>
      <trkpt lat="43.54082" lon="5.53351">
        <ele>312</ele>
        <time>2018-02-20T11:34:11.000Z</time>
      </trkpt>
      <trkpt lat="43.54082" lon="5.5335">
        <ele>312</ele>
        <time>2018-02-20T11:34:12.000Z</time>
      </trkpt>
      <trkpt lat="43.54082" lon="5.53351">
        <ele>312</ele>
        <time>2018-02-20T11:34:13.000Z</time>
      </trkpt>
      <trkpt lat="43.54081" lon="5.53351">
        <ele>312</ele>
        <time>2018-02-20T11:34:14.000Z</time>
      </trkpt>
      <trkpt lat="43.54081" lon="5.53352">
        <ele>312</ele>
        <time>2018-02-20T11:34:15.000Z</time>
      </trkpt>
      <trkpt lat="43.54081" lon="5.53353">
        <ele>312</ele>
        <time>2018-02-20T11:34:16.000Z</time>
      </trkpt>
      <trkpt lat="43.5408" lon="5.53353">
        <ele>312</ele>
        <time>2018-02-20T11:34:17.000Z</time>
      </trkpt>
      <trkpt lat="43.5408" lon="5.53354">
        <ele>312</ele>
        <time>2018-02-20T11:34:18.000Z</time>
      </trkpt>
      <trkpt lat="43.5408" lon="5.53355">
        <ele>312</ele>
        <time>2018-02-20T11:34:19.000Z</time>
      </trkpt>
      <trkpt lat="43.5408" lon="5.53356">
        <ele>312</ele>
        <time>2018-02-20T11:34:20.000Z</time>
      </trkpt>
      <trkpt lat="43.54081" lon="5.53358">
        <ele>312</ele>
        <time>2018-02-20T11:34:21.000Z</time>
      </trkpt>
      <trkpt lat="43.54081" lon="5.53359">
        <ele>312</ele>
        <time>2018-02-20T11:34:22.000Z</time>
      </trkpt>
      <trkpt lat="43.54081" lon="5.53359">
        <ele>312</ele>
        <time>2018-02-20T11:34:23.000Z</time>
      </trkpt>
      <trkpt lat="43.54081" lon="5.53359">
        <ele>312</ele>
        <time>2018-02-20T11:34:24.000Z</time>
      </trkpt>
      <trkpt lat="43.54082" lon="5.5336">
        <ele>312</ele>
        <time>2018-02-20T11:34:25.000Z</time>
      </trkpt>
      <trkpt lat="43.54082" lon="5.5336">
        <ele>312</ele>
        <time>2018-02-20T11:34:26.000Z</time>
      </trkpt>
      <trkpt lat="43.54082" lon="5.5336">
        <ele>312</ele>
        <time>2018-02-20T11:34:27.000Z</time>
      </trkpt>
      <trkpt lat="43.54082" lon="5.53361">
        <ele>312</ele>
        <time>2018-02-20T11:34:28.000Z</time>
      </trkpt>
      <trkpt lat="43.54083" lon="5.53361">
        <ele>312</ele>
        <time>2018-02-20T11:34:29.000Z</time>
      </trkpt>
      <trkpt lat="43.54083" lon="5.53362">
        <ele>311</ele>
        <time>2018-02-20T11:34:30.000Z</time>
      </trkpt>
      <trkpt lat="43.54083" lon="5.53363">
        <ele>311</ele>
        <time>2018-02-20T11:34:31.000Z</time>
      </trkpt>
      <trkpt lat="43.54084" lon="5.53364">
        <ele>311</ele>
        <time>2018-02-20T11:34:32.000Z</time>
      </trkpt>
      <trkpt lat="43.54084" lon="5.53366">
        <ele>311</ele>
        <time>2018-02-20T11:34:33.000Z</time>
      </trkpt>
      <trkpt lat="43.54084" lon="5.53367">
        <ele>311</ele>
        <time>2018-02-20T11:34:34.000Z</time>
      </trkpt>
      <trkpt lat="43.54085" lon="5.53368">
        <ele>311</ele>
        <time>2018-02-20T11:34:35.000Z</time>
      </trkpt>
      <trkpt lat="43.54085" lon="5.53369">
        <ele>310</ele>
        <time>2018-02-20T11:34:36.000Z</time>
      </trkpt>
      <trkpt lat="43.54085" lon="5.5337">
        <ele>310</ele>
        <time>2018-02-20T11:34:37.000Z</time>
      </trkpt>
      <trkpt lat="43.54084" lon="5.53371">
        <ele>310</ele>
        <time>2018-02-20T11:34:38.000Z</time>
      </trkpt>
      <trkpt lat="43.54085" lon="5.53372">
        <ele>310</ele>
        <time>2018-02-20T11:34:39.000Z</time>
      </trkpt>
      <trkpt lat="43.54085" lon="5.53373">
        <ele>310</ele>
        <time>2018-02-20T11:34:40.000Z</time>
      </trkpt>
      <trkpt lat="43.54085" lon="5.53374">
        <ele>310</ele>
        <time>2018-02-20T11:34:41.000Z</time>
      </trkpt>
      <trkpt lat="43.54085" lon="5.53375">
        <ele>310</ele>
        <time>2018-02-20T11:34:42.000Z</time>
      </trkpt>
      <trkpt lat="43.54086" lon="5.53377">
        <ele>309</ele>
        <time>2018-02-20T11:34:43.000Z</time>
      </trkpt>
      <trkpt lat="43.54086" lon="5.53378">
        <ele>309</ele>
        <time>2018-02-20T11:34:44.000Z</time>
      </trkpt>
      <trkpt lat="43.54086" lon="5.5338">
        <ele>309</ele>
        <time>2018-02-20T11:34:45.000Z</time>
      </trkpt>
      <trkpt lat="43.54086" lon="5.53382">
        <ele>309</ele>
        <time>2018-02-20T11:34:46.000Z</time>
      </trkpt>
      <trkpt lat="43.54086" lon="5.53383">
        <ele>309</ele>
        <time>2018-02-20T11:34:47.000Z</time>
      </trkpt>
      <trkpt lat="43.54086" lon="5.53385">
        <ele>309</ele>
        <time>2018-02-20T11:34:48.000Z</time>
      </trkpt>
      <trkpt lat="43.54086" lon="5.53386">
        <ele>309</ele>
        <time>2018-02-20T11:34:49.000Z</time>
      </trkpt>
      <trkpt lat="43.54086" lon="5.53388">
        <ele>309</ele>
        <time>2018-02-20T11:34:50.000Z</time>
      </trkpt>
      <trkpt lat="43.54086" lon="5.53389">
        <ele>309</ele>
        <time>2018-02-20T11:34:51.000Z</time>
      </trkpt>
      <trkpt lat="43.54085" lon="5.53389">
        <ele>309</ele>
        <time>2018-02-20T11:34:52.000Z</time>
      </trkpt>
      <trkpt lat="43.54086" lon="5.5339">
        <ele>309</ele>
        <time>2018-02-20T11:34:53.000Z</time>
      </trkpt>
      <trkpt lat="43.54086" lon="5.5339">
        <ele>309</ele>
        <time>2018-02-20T11:34:54.000Z</time>
      </trkpt>
      <trkpt lat="43.54086" lon="5.53391">
        <ele>309</ele>
        <time>2018-02-20T11:34:55.000Z</time>
      </trkpt>
      <trkpt lat="43.54086" lon="5.53392">
        <ele>309</ele>
        <time>2018-02-20T11:34:56.000Z</time>
      </trkpt>
      <trkpt lat="43.54086" lon="5.53393">
        <ele>309</ele>
        <time>2018-02-20T11:34:57.000Z</time>
      </trkpt>
      <trkpt lat="43.54085" lon="5.53395">
        <ele>309</ele>
        <time>2018-02-20T11:34:58.000Z</time>
      </trkpt>
      <trkpt lat="43.54085" lon="5.53396">
        <ele>309</ele>
        <time>2018-02-20T11:34:59.000Z</time>
      </trkpt>
      <trkpt lat="43.54085" lon="5.53397">
        <ele>309</ele>
        <time>2018-02-20T11:35:00.000Z</time>
      </trkpt>
      <trkpt lat="43.54085" lon="5.53398">
        <ele>309</ele>
        <time>2018-02-20T11:35:01.000Z</time>
      </trkpt>
      <trkpt lat="43.54085" lon="5.53399">
        <ele>309</ele>
        <time>2018-02-20T11:35:02.000Z</time>
      </trkpt>
      <trkpt lat="43.54085" lon="5.53399">
        <ele>309</ele>
        <time>2018-02-20T11:35:03.000Z</time>
      </trkpt>
      <trkpt lat="43.54085" lon="5.53399">
        <ele>309</ele>
        <time>2018-02-20T11:35:04.000Z</time>
      </trkpt>
      <trkpt lat="43.54085" lon="5.534">
        <ele>310</ele>
        <time>2018-02-20T11:35:05.000Z</time>
      </trkpt>
      <trkpt lat="43.54085" lon="5.534">
        <ele>310</ele>
        <time>2018-02-20T11:35:06.000Z</time>
      </trkpt>
      <trkpt lat="43.54085" lon="5.534">
        <ele>310</ele>
        <time>2018-02-20T11:35:07.000Z</time>
      </trkpt>
      <trkpt lat="43.54085" lon="5.53401">
        <ele>310</ele>
        <time>2018-02-20T11:35:08.000Z</time>
      </trkpt>
      <trkpt lat="43.54085" lon="5.53402">
        <ele>310</ele>
        <time>2018-02-20T11:35:09.000Z</time>
      </trkpt>
      <trkpt lat="43.54085" lon="5.53402">
        <ele>310</ele>
        <time>2018-02-20T11:35:10.000Z</time>
      </trkpt>
      <trkpt lat="43.54085" lon="5.53402">
        <ele>310</ele>
        <time>2018-02-20T11:35:11.000Z</time>
      </trkpt>
      <trkpt lat="43.54085" lon="5.53403">
        <ele>310</ele>
        <time>2018-02-20T11:35:12.000Z</time>
      </trkpt>
      <trkpt lat="43.54085" lon="5.53404">
        <ele>310</ele>
        <time>2018-02-20T11:35:13.000Z</time>
      </trkpt>
      <trkpt lat="43.54085" lon="5.53405">
        <ele>310</ele>
        <time>2018-02-20T11:35:14.000Z</time>
      </trkpt>
      <trkpt lat="43.54085" lon="5.53406">
        <ele>310</ele>
        <time>2018-02-20T11:35:15.000Z</time>
      </trkpt>
      <trkpt lat="43.54084" lon="5.53407">
        <ele>310</ele>
        <time>2018-02-20T11:35:16.000Z</time>
      </trkpt>
      <trkpt lat="43.54084" lon="5.53407">
        <ele>310</ele>
        <time>2018-02-20T11:35:17.000Z</time>
      </trkpt>
      <trkpt lat="43.54083" lon="5.53408">
        <ele>310</ele>
        <time>2018-02-20T11:35:18.000Z</time>
      </trkpt>
      <trkpt lat="43.54083" lon="5.53409">
        <ele>310</ele>
        <time>2018-02-20T11:35:19.000Z</time>
      </trkpt>
      <trkpt lat="43.54083" lon="5.53411">
        <ele>310</ele>
        <time>2018-02-20T11:35:20.000Z</time>
      </trkpt>
      <trkpt lat="43.54083" lon="5.53411">
        <ele>310</ele>
        <time>2018-02-20T11:35:21.000Z</time>
      </trkpt>
      <trkpt lat="43.54082" lon="5.53412">
        <ele>310</ele>
        <time>2018-02-20T11:35:22.000Z</time>
      </trkpt>
      <trkpt lat="43.54082" lon="5.53412">
        <ele>310</ele>
        <time>2018-02-20T11:35:23.000Z</time>
      </trkpt>
      <trkpt lat="43.54081" lon="5.53414">
        <ele>310</ele>
        <time>2018-02-20T11:35:24.000Z</time>
      </trkpt>
      <trkpt lat="43.54081" lon="5.53414">
        <ele>310</ele>
        <time>2018-02-20T11:35:25.000Z</time>
      </trkpt>
      <trkpt lat="43.5408" lon="5.53415">
        <ele>310</ele>
        <time>2018-02-20T11:35:26.000Z</time>
      </trkpt>
      <trkpt lat="43.54079" lon="5.53416">
        <ele>310</ele>
        <time>2018-02-20T11:35:27.000Z</time>
      </trkpt>
      <trkpt lat="43.54079" lon="5.53417">
        <ele>310</ele>
        <time>2018-02-20T11:35:28.000Z</time>
      </trkpt>
      <trkpt lat="43.54078" lon="5.53417">
        <ele>310</ele>
        <time>2018-02-20T11:35:29.000Z</time>
      </trkpt>
      <trkpt lat="43.54078" lon="5.53418">
        <ele>310</ele>
        <time>2018-02-20T11:35:30.000Z</time>
      </trkpt>
      <trkpt lat="43.54078" lon="5.53419">
        <ele>310</ele>
        <time>2018-02-20T11:35:31.000Z</time>
      </trkpt>
      <trkpt lat="43.54077" lon="5.5342">
        <ele>310</ele>
        <time>2018-02-20T11:35:32.000Z</time>
      </trkpt>
      <trkpt lat="43.54076" lon="5.53421">
        <ele>310</ele>
        <time>2018-02-20T11:35:33.000Z</time>
      </trkpt>
      <trkpt lat="43.54076" lon="5.53421">
        <ele>310</ele>
        <time>2018-02-20T11:35:34.000Z</time>
      </trkpt>
      <trkpt lat="43.54075" lon="5.53422">
        <ele>310</ele>
        <time>2018-02-20T11:35:35.000Z</time>
      </trkpt>
      <trkpt lat="43.54075" lon="5.53423">
        <ele>310</ele>
        <time>2018-02-20T11:35:36.000Z</time>
      </trkpt>
      <trkpt lat="43.54074" lon="5.53424">
        <ele>310</ele>
        <time>2018-02-20T11:35:37.000Z</time>
      </trkpt>
      <trkpt lat="43.54074" lon="5.53425">
        <ele>310</ele>
        <time>2018-02-20T11:35:38.000Z</time>
      </trkpt>
      <trkpt lat="43.54073" lon="5.53426">
        <ele>310</ele>
        <time>2018-02-20T11:35:39.000Z</time>
      </trkpt>
      <trkpt lat="43.54072" lon="5.53427">
        <ele>311</ele>
        <time>2018-02-20T11:35:40.000Z</time>
      </trkpt>
      <trkpt lat="43.54072" lon="5.53427">
        <ele>311</ele>
        <time>2018-02-20T11:35:41.000Z</time>
      </trkpt>
      <trkpt lat="43.54071" lon="5.53428">
        <ele>311</ele>
        <time>2018-02-20T11:35:42.000Z</time>
      </trkpt>
      <trkpt lat="43.54071" lon="5.53428">
        <ele>311</ele>
        <time>2018-02-20T11:35:43.000Z</time>
      </trkpt>
      <trkpt lat="43.54071" lon="5.53429">
        <ele>311</ele>
        <time>2018-02-20T11:35:44.000Z</time>
      </trkpt>
      <trkpt lat="43.54072" lon="5.53429">
        <ele>311</ele>
        <time>2018-02-20T11:35:45.000Z</time>
      </trkpt>
      <trkpt lat="43.54072" lon="5.53429">
        <ele>311</ele>
        <time>2018-02-20T11:35:46.000Z</time>
      </trkpt>
      <trkpt lat="43.54072" lon="5.53429">
        <ele>311</ele>
        <time>2018-02-20T11:35:47.000Z</time>
      </trkpt>
      <trkpt lat="43.54072" lon="5.53429">
        <ele>311</ele>
        <time>2018-02-20T11:35:48.000Z</time>
      </trkpt>
      <trkpt lat="43.54072" lon="5.5343">
        <ele>311</ele>
        <time>2018-02-20T11:35:49.000Z</time>
      </trkpt>
      <trkpt lat="43.54072" lon="5.5343">
        <ele>312</ele>
        <time>2018-02-20T11:35:50.000Z</time>
      </trkpt>
      <trkpt lat="43.54072" lon="5.53431">
        <ele>312</ele>
        <time>2018-02-20T11:35:51.000Z</time>
      </trkpt>
      <trkpt lat="43.54072" lon="5.53432">
        <ele>312</ele>
        <time>2018-02-20T11:35:52.000Z</time>
      </trkpt>
      <trkpt lat="43.54072" lon="5.53432">
        <ele>312</ele>
        <time>2018-02-20T11:35:53.000Z</time>
      </trkpt>
      <trkpt lat="43.54072" lon="5.53432">
        <ele>312</ele>
        <time>2018-02-20T11:35:54.000Z</time>
      </trkpt>
      <trkpt lat="43.54072" lon="5.53433">
        <ele>312</ele>
        <time>2018-02-20T11:35:55.000Z</time>
      </trkpt>
      <trkpt lat="43.54073" lon="5.53434">
        <ele>313</ele>
        <time>2018-02-20T11:35:56.000Z</time>
      </trkpt>
      <trkpt lat="43.54073" lon="5.53434">
        <ele>313</ele>
        <time>2018-02-20T11:35:57.000Z</time>
      </trkpt>
      <trkpt lat="43.54073" lon="5.53435">
        <ele>313</ele>
        <time>2018-02-20T11:35:58.000Z</time>
      </trkpt>
      <trkpt lat="43.54073" lon="5.53435">
        <ele>313</ele>
        <time>2018-02-20T11:35:59.000Z</time>
      </trkpt>
      <trkpt lat="43.54073" lon="5.53436">
        <ele>313</ele>
        <time>2018-02-20T11:36:00.000Z</time>
      </trkpt>
      <trkpt lat="43.54073" lon="5.53436">
        <ele>313</ele>
        <time>2018-02-20T11:36:01.000Z</time>
      </trkpt>
      <trkpt lat="43.54073" lon="5.53437">
        <ele>313</ele>
        <time>2018-02-20T11:36:02.000Z</time>
      </trkpt>
      <trkpt lat="43.54073" lon="5.53437">
        <ele>313</ele>
        <time>2018-02-20T11:36:03.000Z</time>
      </trkpt>
      <trkpt lat="43.54073" lon="5.53438">
        <ele>313</ele>
        <time>2018-02-20T11:36:04.000Z</time>
      </trkpt>
      <trkpt lat="43.54073" lon="5.53438">
        <ele>313</ele>
        <time>2018-02-20T11:36:05.000Z</time>
      </trkpt>
      <trkpt lat="43.54073" lon="5.53439">
        <ele>313</ele>
        <time>2018-02-20T11:36:06.000Z</time>
      </trkpt>
      <trkpt lat="43.54073" lon="5.53439">
        <ele>313</ele>
        <time>2018-02-20T11:36:07.000Z</time>
      </trkpt>
      <trkpt lat="43.54074" lon="5.53439">
        <ele>313</ele>
        <time>2018-02-20T11:36:08.000Z</time>
      </trkpt>
      <trkpt lat="43.54074" lon="5.5344">
        <ele>314</ele>
        <time>2018-02-20T11:36:09.000Z</time>
      </trkpt>
      <trkpt lat="43.54074" lon="5.5344">
        <ele>314</ele>
        <time>2018-02-20T11:36:10.000Z</time>
      </trkpt>
      <trkpt lat="43.54074" lon="5.5344">
        <ele>314</ele>
        <time>2018-02-20T11:36:11.000Z</time>
      </trkpt>
      <trkpt lat="43.54074" lon="5.5344">
        <ele>314</ele>
        <time>2018-02-20T11:36:12.000Z</time>
      </trkpt>
      <trkpt lat="43.54074" lon="5.5344">
        <ele>314</ele>
        <time>2018-02-20T11:36:13.000Z</time>
      </trkpt>
      <trkpt lat="43.54074" lon="5.5344">
        <ele>314</ele>
        <time>2018-02-20T11:36:14.000Z</time>
      </trkpt>
      <trkpt lat="43.54074" lon="5.5344">
        <ele>314</ele>
        <time>2018-02-20T11:36:15.000Z</time>
      </trkpt>
      <trkpt lat="43.54075" lon="5.5344">
        <ele>314</ele>
        <time>2018-02-20T11:36:16.000Z</time>
      </trkpt>
      <trkpt lat="43.54075" lon="5.53441">
        <ele>314</ele>
        <time>2018-02-20T11:36:17.000Z</time>
      </trkpt>
      <trkpt lat="43.54075" lon="5.53441">
        <ele>314</ele>
        <time>2018-02-20T11:36:18.000Z</time>
      </trkpt>
      <trkpt lat="43.54076" lon="5.53441">
        <ele>314</ele>
        <time>2018-02-20T11:36:19.000Z</time>
      </trkpt>
      <trkpt lat="43.54076" lon="5.53442">
        <ele>314</ele>
        <time>2018-02-20T11:36:20.000Z</time>
      </trkpt>
      <trkpt lat="43.54077" lon="5.53443">
        <ele>314</ele>
        <time>2018-02-20T11:36:21.000Z</time>
      </trkpt>
      <trkpt lat="43.54077" lon="5.53444">
        <ele>314</ele>
        <time>2018-02-20T11:36:22.000Z</time>
      </trkpt>
      <trkpt lat="43.54077" lon="5.53445">
        <ele>315</ele>
        <time>2018-02-20T11:36:23.000Z</time>
      </trkpt>
      <trkpt lat="43.54077" lon="5.53446">
        <ele>315</ele>
        <time>2018-02-20T11:36:24.000Z</time>
      </trkpt>
      <trkpt lat="43.54077" lon="5.53447">
        <ele>315</ele>
        <time>2018-02-20T11:36:25.000Z</time>
      </trkpt>
      <trkpt lat="43.54077" lon="5.53448">
        <ele>315</ele>
        <time>2018-02-20T11:36:26.000Z</time>
      </trkpt>
      <trkpt lat="43.54077" lon="5.53448">
        <ele>315</ele>
        <time>2018-02-20T11:36:27.000Z</time>
      </trkpt>
      <trkpt lat="43.54076" lon="5.53449">
        <ele>315</ele>
        <time>2018-02-20T11:36:28.000Z</time>
      </trkpt>
      <trkpt lat="43.54076" lon="5.53449">
        <ele>315</ele>
        <time>2018-02-20T11:36:29.000Z</time>
      </trkpt>
      <trkpt lat="43.54077" lon="5.53449">
        <ele>315</ele>
        <time>2018-02-20T11:36:30.000Z</time>
      </trkpt>
      <trkpt lat="43.54077" lon="5.53449">
        <ele>315</ele>
        <time>2018-02-20T11:36:31.000Z</time>
      </trkpt>
      <trkpt lat="43.54077" lon="5.53449">
        <ele>315</ele>
        <time>2018-02-20T11:36:32.000Z</time>
      </trkpt>
      <trkpt lat="43.54077" lon="5.53449">
        <ele>315</ele>
        <time>2018-02-20T11:36:33.000Z</time>
      </trkpt>
      <trkpt lat="43.54077" lon="5.5345">
        <ele>315</ele>
        <time>2018-02-20T11:36:34.000Z</time>
      </trkpt>
      <trkpt lat="43.54076" lon="5.5345">
        <ele>315</ele>
        <time>2018-02-20T11:36:35.000Z</time>
      </trkpt>
      <trkpt lat="43.54075" lon="5.53451">
        <ele>315</ele>
        <time>2018-02-20T11:36:36.000Z</time>
      </trkpt>
      <trkpt lat="43.54075" lon="5.53451">
        <ele>314</ele>
        <time>2018-02-20T11:36:37.000Z</time>
      </trkpt>
      <trkpt lat="43.54074" lon="5.53451">
        <ele>314</ele>
        <time>2018-02-20T11:36:38.000Z</time>
      </trkpt>
      <trkpt lat="43.54074" lon="5.53451">
        <ele>314</ele>
        <time>2018-02-20T11:36:39.000Z</time>
      </trkpt>
      <trkpt lat="43.54074" lon="5.53451">
        <ele>314</ele>
        <time>2018-02-20T11:36:40.000Z</time>
      </trkpt>
      <trkpt lat="43.54073" lon="5.53451">
        <ele>314</ele>
        <time>2018-02-20T11:36:41.000Z</time>
      </trkpt>
      <trkpt lat="43.54073" lon="5.53451">
        <ele>314</ele>
        <time>2018-02-20T11:36:42.000Z</time>
      </trkpt>
      <trkpt lat="43.54072" lon="5.5345">
        <ele>314</ele>
        <time>2018-02-20T11:36:43.000Z</time>
      </trkpt>
      <trkpt lat="43.54072" lon="5.5345">
        <ele>314</ele>
        <time>2018-02-20T11:36:44.000Z</time>
      </trkpt>
      <trkpt lat="43.54071" lon="5.5345">
        <ele>314</ele>
        <time>2018-02-20T11:36:45.000Z</time>
      </trkpt>
      <trkpt lat="43.5407" lon="5.5345">
        <ele>314</ele>
        <time>2018-02-20T11:36:46.000Z</time>
      </trkpt>
      <trkpt lat="43.5407" lon="5.5345">
        <ele>314</ele>
        <time>2018-02-20T11:36:47.000Z</time>
      </trkpt>
      <trkpt lat="43.54069" lon="5.53449">
        <ele>314</ele>
        <time>2018-02-20T11:36:48.000Z</time>
      </trkpt>
      <trkpt lat="43.54069" lon="5.53449">
        <ele>314</ele>
        <time>2018-02-20T11:36:49.000Z</time>
      </trkpt>
      <trkpt lat="43.54068" lon="5.5345">
        <ele>313</ele>
        <time>2018-02-20T11:36:50.000Z</time>
      </trkpt>
      <trkpt lat="43.54067" lon="5.5345">
        <ele>313</ele>
        <time>2018-02-20T11:36:51.000Z</time>
      </trkpt>
      <trkpt lat="43.54067" lon="5.5345">
        <ele>313</ele>
        <time>2018-02-20T11:36:52.000Z</time>
      </trkpt>
      <trkpt lat="43.54066" lon="5.5345">
        <ele>313</ele>
        <time>2018-02-20T11:36:53.000Z</time>
      </trkpt>
      <trkpt lat="43.54066" lon="5.5345">
        <ele>313</ele>
        <time>2018-02-20T11:36:54.000Z</time>
      </trkpt>
      <trkpt lat="43.54065" lon="5.5345">
        <ele>313</ele>
        <time>2018-02-20T11:36:55.000Z</time>
      </trkpt>
      <trkpt lat="43.54065" lon="5.5345">
        <ele>313</ele>
        <time>2018-02-20T11:36:56.000Z</time>
      </trkpt>
      <trkpt lat="43.54065" lon="5.5345">
        <ele>313</ele>
        <time>2018-02-20T11:36:57.000Z</time>
      </trkpt>
      <trkpt lat="43.54064" lon="5.53451">
        <ele>313</ele>
        <time>2018-02-20T11:36:58.000Z</time>
      </trkpt>
      <trkpt lat="43.54064" lon="5.53451">
        <ele>312</ele>
        <time>2018-02-20T11:36:59.000Z</time>
      </trkpt>
      <trkpt lat="43.54063" lon="5.53451">
        <ele>312</ele>
        <time>2018-02-20T11:37:00.000Z</time>
      </trkpt>
      <trkpt lat="43.54063" lon="5.53451">
        <ele>312</ele>
        <time>2018-02-20T11:37:01.000Z</time>
      </trkpt>
      <trkpt lat="43.54062" lon="5.53451">
        <ele>312</ele>
        <time>2018-02-20T11:37:02.000Z</time>
      </trkpt>
      <trkpt lat="43.54062" lon="5.5345">
        <ele>312</ele>
        <time>2018-02-20T11:37:03.000Z</time>
      </trkpt>
      <trkpt lat="43.54061" lon="5.5345">
        <ele>312</ele>
        <time>2018-02-20T11:37:04.000Z</time>
      </trkpt>
      <trkpt lat="43.54061" lon="5.5345">
        <ele>312</ele>
        <time>2018-02-20T11:37:05.000Z</time>
      </trkpt>
      <trkpt lat="43.5406" lon="5.5345">
        <ele>311</ele>
        <time>2018-02-20T11:37:06.000Z</time>
      </trkpt>
      <trkpt lat="43.5406" lon="5.5345">
        <ele>311</ele>
        <time>2018-02-20T11:37:07.000Z</time>
      </trkpt>
      <trkpt lat="43.54059" lon="5.5345">
        <ele>311</ele>
        <time>2018-02-20T11:37:08.000Z</time>
      </trkpt>
      <trkpt lat="43.54059" lon="5.5345">
        <ele>311</ele>
        <time>2018-02-20T11:37:09.000Z</time>
      </trkpt>
      <trkpt lat="43.54059" lon="5.5345">
        <ele>311</ele>
        <time>2018-02-20T11:37:10.000Z</time>
      </trkpt>
      <trkpt lat="43.54059" lon="5.5345">
        <ele>311</ele>
        <time>2018-02-20T11:37:11.000Z</time>
      </trkpt>
      <trkpt lat="43.54059" lon="5.5345">
        <ele>311</ele>
        <time>2018-02-20T11:37:12.000Z</time>
      </trkpt>
      <trkpt lat="43.54058" lon="5.5345">
        <ele>311</ele>
        <time>2018-02-20T11:37:13.000Z</time>
      </trkpt>
      <trkpt lat="43.54058" lon="5.5345">
        <ele>311</ele>
        <time>2018-02-20T11:37:14.000Z</time>
      </trkpt>
      <trkpt lat="43.54057" lon="5.5345">
        <ele>310</ele>
        <time>2018-02-20T11:37:15.000Z</time>
      </trkpt>
      <trkpt lat="43.54056" lon="5.5345">
        <ele>310</ele>
        <time>2018-02-20T11:37:16.000Z</time>
      </trkpt>
      <trkpt lat="43.54056" lon="5.53451">
        <ele>310</ele>
        <time>2018-02-20T11:37:17.000Z</time>
      </trkpt>
      <trkpt lat="43.54055" lon="5.53451">
        <ele>310</ele>
        <time>2018-02-20T11:37:18.000Z</time>
      </trkpt>
      <trkpt lat="43.54054" lon="5.53452">
        <ele>310</ele>
        <time>2018-02-20T11:37:19.000Z</time>
      </trkpt>
      <trkpt lat="43.54054" lon="5.53452">
        <ele>310</ele>
        <time>2018-02-20T11:37:20.000Z</time>
      </trkpt>
      <trkpt lat="43.54054" lon="5.53452">
        <ele>310</ele>
        <time>2018-02-20T11:37:21.000Z</time>
      </trkpt>
      <trkpt lat="43.54053" lon="5.53452">
        <ele>309</ele>
        <time>2018-02-20T11:37:22.000Z</time>
      </trkpt>
      <trkpt lat="43.54053" lon="5.53452">
        <ele>309</ele>
        <time>2018-02-20T11:37:23.000Z</time>
      </trkpt>
      <trkpt lat="43.54053" lon="5.53452">
        <ele>309</ele>
        <time>2018-02-20T11:37:24.000Z</time>
      </trkpt>
      <trkpt lat="43.54053" lon="5.53452">
        <ele>309</ele>
        <time>2018-02-20T11:37:25.000Z</time>
      </trkpt>
      <trkpt lat="43.54053" lon="5.53452">
        <ele>309</ele>
        <time>2018-02-20T11:37:26.000Z</time>
      </trkpt>
      <trkpt lat="43.54053" lon="5.53452">
        <ele>309</ele>
        <time>2018-02-20T11:37:27.000Z</time>
      </trkpt>
      <trkpt lat="43.54052" lon="5.53452">
        <ele>309</ele>
        <time>2018-02-20T11:37:28.000Z</time>
      </trkpt>
      <trkpt lat="43.54052" lon="5.53452">
        <ele>309</ele>
        <time>2018-02-20T11:37:29.000Z</time>
      </trkpt>
      <trkpt lat="43.54052" lon="5.53452">
        <ele>309</ele>
        <time>2018-02-20T11:37:30.000Z</time>
      </trkpt>
      <trkpt lat="43.54052" lon="5.53453">
        <ele>309</ele>
        <time>2018-02-20T11:37:31.000Z</time>
      </trkpt>
      <trkpt lat="43.54052" lon="5.53453">
        <ele>309</ele>
        <time>2018-02-20T11:37:32.000Z</time>
      </trkpt>
      <trkpt lat="43.54052" lon="5.53453">
        <ele>308</ele>
        <time>2018-02-20T11:37:33.000Z</time>
      </trkpt>
      <trkpt lat="43.54052" lon="5.53454">
        <ele>308</ele>
        <time>2018-02-20T11:37:34.000Z</time>
      </trkpt>
      <trkpt lat="43.54052" lon="5.53454">
        <ele>308</ele>
        <time>2018-02-20T11:37:35.000Z</time>
      </trkpt>
      <trkpt lat="43.54051" lon="5.53454">
        <ele>308</ele>
        <time>2018-02-20T11:37:36.000Z</time>
      </trkpt>
      <trkpt lat="43.54051" lon="5.53454">
        <ele>308</ele>
        <time>2018-02-20T11:37:37.000Z</time>
      </trkpt>
      <trkpt lat="43.54051" lon="5.53454">
        <ele>308</ele>
        <time>2018-02-20T11:37:38.000Z</time>
      </trkpt>
      <trkpt lat="43.5405" lon="5.53454">
        <ele>308</ele>
        <time>2018-02-20T11:37:39.000Z</time>
      </trkpt>
      <trkpt lat="43.5405" lon="5.53454">
        <ele>308</ele>
        <time>2018-02-20T11:37:40.000Z</time>
      </trkpt>
      <trkpt lat="43.5405" lon="5.53454">
        <ele>307</ele>
        <time>2018-02-20T11:37:41.000Z</time>
      </trkpt>
      <trkpt lat="43.5405" lon="5.53454">
        <ele>307</ele>
        <time>2018-02-20T11:37:42.000Z</time>
      </trkpt>
      <trkpt lat="43.5405" lon="5.53454">
        <ele>307</ele>
        <time>2018-02-20T11:37:43.000Z</time>
      </trkpt>
      <trkpt lat="43.5405" lon="5.53454">
        <ele>308</ele>
        <time>2018-02-20T11:37:44.000Z</time>
      </trkpt>
      <trkpt lat="43.5405" lon="5.53455">
        <ele>308</ele>
        <time>2018-02-20T11:37:45.000Z</time>
      </trkpt>
      <trkpt lat="43.5405" lon="5.53455">
        <ele>308</ele>
        <time>2018-02-20T11:37:46.000Z</time>
      </trkpt>
      <trkpt lat="43.5405" lon="5.53455">
        <ele>308</ele>
        <time>2018-02-20T11:37:47.000Z</time>
      </trkpt>
      <trkpt lat="43.5405" lon="5.53455">
        <ele>308</ele>
        <time>2018-02-20T11:37:48.000Z</time>
      </trkpt>
      <trkpt lat="43.5405" lon="5.53455">
        <ele>308</ele>
        <time>2018-02-20T11:37:49.000Z</time>
      </trkpt>
      <trkpt lat="43.5405" lon="5.53455">
        <ele>308</ele>
        <time>2018-02-20T11:37:50.000Z</time>
      </trkpt>
      <trkpt lat="43.5405" lon="5.53455">
        <ele>308</ele>
        <time>2018-02-20T11:37:51.000Z</time>
      </trkpt>
      <trkpt lat="43.5405" lon="5.53455">
        <ele>308</ele>
        <time>2018-02-20T11:37:52.000Z</time>
      </trkpt>
      <trkpt lat="43.5405" lon="5.53455">
        <ele>308</ele>
        <time>2018-02-20T11:37:53.000Z</time>
      </trkpt>
      <trkpt lat="43.5405" lon="5.53455">
        <ele>308</ele>
        <time>2018-02-20T11:37:54.000Z</time>
      </trkpt>
      <trkpt lat="43.5405" lon="5.53455">
        <ele>308</ele>
        <time>2018-02-20T11:37:55.000Z</time>
      </trkpt>
      <trkpt lat="43.54051" lon="5.53455">
        <ele>308</ele>
        <time>2018-02-20T11:37:56.000Z</time>
      </trkpt>
      <trkpt lat="43.5405" lon="5.53455">
        <ele>308</ele>
        <time>2018-02-20T11:37:57.000Z</time>
      </trkpt>
      <trkpt lat="43.5405" lon="5.53455">
        <ele>308</ele>
        <time>2018-02-20T11:37:58.000Z</time>
      </trkpt>
      <trkpt lat="43.5405" lon="5.53455">
        <ele>308</ele>
        <time>2018-02-20T11:37:59.000Z</time>
      </trkpt>
      <trkpt lat="43.54051" lon="5.53455">
        <ele>308</ele>
        <time>2018-02-20T11:38:00.000Z</time>
      </trkpt>
      <trkpt lat="43.54051" lon="5.53455">
        <ele>308</ele>
        <time>2018-02-20T11:38:01.000Z</time>
      </trkpt>
      <trkpt lat="43.54051" lon="5.53455">
        <ele>308</ele>
        <time>2018-02-20T11:38:02.000Z</time>
      </trkpt>
      <trkpt lat="43.5405" lon="5.53456">
        <ele>308</ele>
        <time>2018-02-20T11:38:03.000Z</time>
      </trkpt>
      <trkpt lat="43.5405" lon="5.53456">
        <ele>308</ele>
        <time>2018-02-20T11:38:04.000Z</time>
      </trkpt>
      <trkpt lat="43.5405" lon="5.53456">
        <ele>308</ele>
        <time>2018-02-20T11:38:05.000Z</time>
      </trkpt>
      <trkpt lat="43.5405" lon="5.53456">
        <ele>308</ele>
        <time>2018-02-20T11:38:06.000Z</time>
      </trkpt>
      <trkpt lat="43.5405" lon="5.53456">
        <ele>308</ele>
        <time>2018-02-20T11:38:07.000Z</time>
      </trkpt>
      <trkpt lat="43.5405" lon="5.53456">
        <ele>308</ele>
        <time>2018-02-20T11:38:08.000Z</time>
      </trkpt>
      <trkpt lat="43.5405" lon="5.53456">
        <ele>308</ele>
        <time>2018-02-20T11:38:09.000Z</time>
      </trkpt>
      <trkpt lat="43.5405" lon="5.53456">
        <ele>308</ele>
        <time>2018-02-20T11:38:10.000Z</time>
      </trkpt>
      <trkpt lat="43.5405" lon="5.53456">
        <ele>308</ele>
        <time>2018-02-20T11:38:11.000Z</time>
      </trkpt>
      <trkpt lat="43.5405" lon="5.53456">
        <ele>308</ele>
        <time>2018-02-20T11:38:12.000Z</time>
      </trkpt>
      <trkpt lat="43.5405" lon="5.53456">
        <ele>308</ele>
        <time>2018-02-20T11:38:13.000Z</time>
      </trkpt>
      <trkpt lat="43.5405" lon="5.53456">
        <ele>308</ele>
        <time>2018-02-20T11:38:14.000Z</time>
      </trkpt>
      <trkpt lat="43.5405" lon="5.53456">
        <ele>308</ele>
        <time>2018-02-20T11:38:15.000Z</time>
      </trkpt>
      <trkpt lat="43.5405" lon="5.53456">
        <ele>308</ele>
        <time>2018-02-20T11:38:16.000Z</time>
      </trkpt>
      <trkpt lat="43.5405" lon="5.53456">
        <ele>308</ele>
        <time>2018-02-20T11:38:17.000Z</time>
      </trkpt>
      <trkpt lat="43.5405" lon="5.53456">
        <ele>308</ele>
        <time>2018-02-20T11:38:18.000Z</time>
      </trkpt>
      <trkpt lat="43.5405" lon="5.53456">
        <ele>307</ele>
        <time>2018-02-20T11:38:19.000Z</time>
      </trkpt>
      <trkpt lat="43.5405" lon="5.53456">
        <ele>307</ele>
        <time>2018-02-20T11:38:20.000Z</time>
      </trkpt>
      <trkpt lat="43.5405" lon="5.53457">
        <ele>307</ele>
        <time>2018-02-20T11:38:21.000Z</time>
      </trkpt>
      <trkpt lat="43.5405" lon="5.53457">
        <ele>307</ele>
        <time>2018-02-20T11:38:22.000Z</time>
      </trkpt>
      <trkpt lat="43.5405" lon="5.53457">
        <ele>307</ele>
        <time>2018-02-20T11:38:23.000Z</time>
      </trkpt>
      <trkpt lat="43.5405" lon="5.53457">
        <ele>307</ele>
        <time>2018-02-20T11:38:24.000Z</time>
      </trkpt>
      <trkpt lat="43.5405" lon="5.53457">
        <ele>307</ele>
        <time>2018-02-20T11:38:25.000Z</time>
      </trkpt>
      <trkpt lat="43.54049" lon="5.53458">
        <ele>307</ele>
        <time>2018-02-20T11:38:26.000Z</time>
      </trkpt>
      <trkpt lat="43.54049" lon="5.53459">
        <ele>306</ele>
        <time>2018-02-20T11:38:27.000Z</time>
      </trkpt>
      <trkpt lat="43.5405" lon="5.53459">
        <ele>306</ele>
        <time>2018-02-20T11:38:28.000Z</time>
      </trkpt>
      <trkpt lat="43.54049" lon="5.5346">
        <ele>306</ele>
        <time>2018-02-20T11:38:29.000Z</time>
      </trkpt>
      <trkpt lat="43.5405" lon="5.53461">
        <ele>306</ele>
        <time>2018-02-20T11:38:30.000Z</time>
      </trkpt>
      <trkpt lat="43.54049" lon="5.53462">
        <ele>306</ele>
        <time>2018-02-20T11:38:31.000Z</time>
      </trkpt>
      <trkpt lat="43.54049" lon="5.53463">
        <ele>306</ele>
        <time>2018-02-20T11:38:32.000Z</time>
      </trkpt>
      <trkpt lat="43.54049" lon="5.53464">
        <ele>306</ele>
        <time>2018-02-20T11:38:33.000Z</time>
      </trkpt>
      <trkpt lat="43.5405" lon="5.53464">
        <ele>305</ele>
        <time>2018-02-20T11:38:34.000Z</time>
      </trkpt>
      <trkpt lat="43.54049" lon="5.53465">
        <ele>305</ele>
        <time>2018-02-20T11:38:35.000Z</time>
      </trkpt>
      <trkpt lat="43.54049" lon="5.53466">
        <ele>305</ele>
        <time>2018-02-20T11:38:36.000Z</time>
      </trkpt>
      <trkpt lat="43.54049" lon="5.53466">
        <ele>305</ele>
        <time>2018-02-20T11:38:37.000Z</time>
      </trkpt>
      <trkpt lat="43.54049" lon="5.53466">
        <ele>305</ele>
        <time>2018-02-20T11:38:38.000Z</time>
      </trkpt>
      <trkpt lat="43.54048" lon="5.53466">
        <ele>305</ele>
        <time>2018-02-20T11:38:39.000Z</time>
      </trkpt>
      <trkpt lat="43.54048" lon="5.53467">
        <ele>304</ele>
        <time>2018-02-20T11:38:40.000Z</time>
      </trkpt>
      <trkpt lat="43.54047" lon="5.53467">
        <ele>304</ele>
        <time>2018-02-20T11:38:41.000Z</time>
      </trkpt>
      <trkpt lat="43.54047" lon="5.53468">
        <ele>304</ele>
        <time>2018-02-20T11:38:42.000Z</time>
      </trkpt>
      <trkpt lat="43.54047" lon="5.53468">
        <ele>304</ele>
        <time>2018-02-20T11:38:43.000Z</time>
      </trkpt>
      <trkpt lat="43.54047" lon="5.53469">
        <ele>304</ele>
        <time>2018-02-20T11:38:44.000Z</time>
      </trkpt>
      <trkpt lat="43.54046" lon="5.5347">
        <ele>304</ele>
        <time>2018-02-20T11:38:45.000Z</time>
      </trkpt>
      <trkpt lat="43.54046" lon="5.53471">
        <ele>304</ele>
        <time>2018-02-20T11:38:46.000Z</time>
      </trkpt>
      <trkpt lat="43.54046" lon="5.53473">
        <ele>304</ele>
        <time>2018-02-20T11:38:47.000Z</time>
      </trkpt>
      <trkpt lat="43.54047" lon="5.53474">
        <ele>304</ele>
        <time>2018-02-20T11:38:48.000Z</time>
      </trkpt>
      <trkpt lat="43.54047" lon="5.53476">
        <ele>304</ele>
        <time>2018-02-20T11:38:49.000Z</time>
      </trkpt>
      <trkpt lat="43.54047" lon="5.53477">
        <ele>304</ele>
        <time>2018-02-20T11:38:50.000Z</time>
      </trkpt>
      <trkpt lat="43.54047" lon="5.53478">
        <ele>304</ele>
        <time>2018-02-20T11:38:51.000Z</time>
      </trkpt>
      <trkpt lat="43.54047" lon="5.53479">
        <ele>304</ele>
        <time>2018-02-20T11:38:52.000Z</time>
      </trkpt>
      <trkpt lat="43.54046" lon="5.5348">
        <ele>304</ele>
        <time>2018-02-20T11:38:53.000Z</time>
      </trkpt>
      <trkpt lat="43.54046" lon="5.53481">
        <ele>304</ele>
        <time>2018-02-20T11:38:54.000Z</time>
      </trkpt>
      <trkpt lat="43.54046" lon="5.53481">
        <ele>304</ele>
        <time>2018-02-20T11:38:55.000Z</time>
      </trkpt>
      <trkpt lat="43.54045" lon="5.53482">
        <ele>303</ele>
        <time>2018-02-20T11:38:56.000Z</time>
      </trkpt>
      <trkpt lat="43.54045" lon="5.53483">
        <ele>303</ele>
        <time>2018-02-20T11:38:57.000Z</time>
      </trkpt>
      <trkpt lat="43.54045" lon="5.53484">
        <ele>303</ele>
        <time>2018-02-20T11:38:58.000Z</time>
      </trkpt>
      <trkpt lat="43.54045" lon="5.53485">
        <ele>303</ele>
        <time>2018-02-20T11:38:59.000Z</time>
      </trkpt>
      <trkpt lat="43.54045" lon="5.53485">
        <ele>303</ele>
        <time>2018-02-20T11:39:00.000Z</time>
      </trkpt>
      <trkpt lat="43.54044" lon="5.53486">
        <ele>303</ele>
        <time>2018-02-20T11:39:01.000Z</time>
      </trkpt>
      <trkpt lat="43.54044" lon="5.53487">
        <ele>303</ele>
        <time>2018-02-20T11:39:02.000Z</time>
      </trkpt>
      <trkpt lat="43.54044" lon="5.53487">
        <ele>303</ele>
        <time>2018-02-20T11:39:03.000Z</time>
      </trkpt>
      <trkpt lat="43.54044" lon="5.53488">
        <ele>303</ele>
        <time>2018-02-20T11:39:04.000Z</time>
      </trkpt>
      <trkpt lat="43.54044" lon="5.53488">
        <ele>303</ele>
        <time>2018-02-20T11:39:05.000Z</time>
      </trkpt>
      <trkpt lat="43.54043" lon="5.53488">
        <ele>303</ele>
        <time>2018-02-20T11:39:06.000Z</time>
      </trkpt>
      <trkpt lat="43.54043" lon="5.53488">
        <ele>302</ele>
        <time>2018-02-20T11:39:07.000Z</time>
      </trkpt>
      <trkpt lat="43.54043" lon="5.53489">
        <ele>302</ele>
        <time>2018-02-20T11:39:08.000Z</time>
      </trkpt>
      <trkpt lat="43.54043" lon="5.53489">
        <ele>302</ele>
        <time>2018-02-20T11:39:09.000Z</time>
      </trkpt>
      <trkpt lat="43.54042" lon="5.5349">
        <ele>302</ele>
        <time>2018-02-20T11:39:10.000Z</time>
      </trkpt>
      <trkpt lat="43.54042" lon="5.5349">
        <ele>302</ele>
        <time>2018-02-20T11:39:11.000Z</time>
      </trkpt>
      <trkpt lat="43.54042" lon="5.5349">
        <ele>301</ele>
        <time>2018-02-20T11:39:12.000Z</time>
      </trkpt>
      <trkpt lat="43.54042" lon="5.53491">
        <ele>301</ele>
        <time>2018-02-20T11:39:13.000Z</time>
      </trkpt>
      <trkpt lat="43.54042" lon="5.53491">
        <ele>301</ele>
        <time>2018-02-20T11:39:14.000Z</time>
      </trkpt>
      <trkpt lat="43.54042" lon="5.53491">
        <ele>301</ele>
        <time>2018-02-20T11:39:15.000Z</time>
      </trkpt>
      <trkpt lat="43.54042" lon="5.53492">
        <ele>301</ele>
        <time>2018-02-20T11:39:16.000Z</time>
      </trkpt>
      <trkpt lat="43.54042" lon="5.53492">
        <ele>300</ele>
        <time>2018-02-20T11:39:17.000Z</time>
      </trkpt>
      <trkpt lat="43.54042" lon="5.53492">
        <ele>300</ele>
        <time>2018-02-20T11:39:18.000Z</time>
      </trkpt>
      <trkpt lat="43.54042" lon="5.53493">
        <ele>300</ele>
        <time>2018-02-20T11:39:19.000Z</time>
      </trkpt>
      <trkpt lat="43.54042" lon="5.53493">
        <ele>300</ele>
        <time>2018-02-20T11:39:20.000Z</time>
      </trkpt>
      <trkpt lat="43.54042" lon="5.53493">
        <ele>299</ele>
        <time>2018-02-20T11:39:21.000Z</time>
      </trkpt>
      <trkpt lat="43.54043" lon="5.53494">
        <ele>299</ele>
        <time>2018-02-20T11:39:22.000Z</time>
      </trkpt>
      <trkpt lat="43.54043" lon="5.53493">
        <ele>299</ele>
        <time>2018-02-20T11:39:23.000Z</time>
      </trkpt>
      <trkpt lat="43.54043" lon="5.53493">
        <ele>299</ele>
        <time>2018-02-20T11:39:24.000Z</time>
      </trkpt>
      <trkpt lat="43.54043" lon="5.53493">
        <ele>298</ele>
        <time>2018-02-20T11:39:25.000Z</time>
      </trkpt>
      <trkpt lat="43.54043" lon="5.53494">
        <ele>298</ele>
        <time>2018-02-20T11:39:26.000Z</time>
      </trkpt>
      <trkpt lat="43.54043" lon="5.53494">
        <ele>298</ele>
        <time>2018-02-20T11:39:27.000Z</time>
      </trkpt>
      <trkpt lat="43.54043" lon="5.53495">
        <ele>298</ele>
        <time>2018-02-20T11:39:28.000Z</time>
      </trkpt>
      <trkpt lat="43.54042" lon="5.53495">
        <ele>297</ele>
        <time>2018-02-20T11:39:29.000Z</time>
      </trkpt>
      <trkpt lat="43.54042" lon="5.53495">
        <ele>297</ele>
        <time>2018-02-20T11:39:30.000Z</time>
      </trkpt>
      <trkpt lat="43.54042" lon="5.53494">
        <ele>297</ele>
        <time>2018-02-20T11:39:31.000Z</time>
      </trkpt>
      <trkpt lat="43.54042" lon="5.53495">
        <ele>297</ele>
        <time>2018-02-20T11:39:32.000Z</time>
      </trkpt>
      <trkpt lat="43.54041" lon="5.53495">
        <ele>296</ele>
        <time>2018-02-20T11:39:33.000Z</time>
      </trkpt>
      <trkpt lat="43.54041" lon="5.53495">
        <ele>296</ele>
        <time>2018-02-20T11:39:34.000Z</time>
      </trkpt>
      <trkpt lat="43.54041" lon="5.53495">
        <ele>296</ele>
        <time>2018-02-20T11:39:35.000Z</time>
      </trkpt>
      <trkpt lat="43.54041" lon="5.53496">
        <ele>296</ele>
        <time>2018-02-20T11:39:36.000Z</time>
      </trkpt>
      <trkpt lat="43.54041" lon="5.53496">
        <ele>296</ele>
        <time>2018-02-20T11:39:37.000Z</time>
      </trkpt>
      <trkpt lat="43.54041" lon="5.53497">
        <ele>295</ele>
        <time>2018-02-20T11:39:38.000Z</time>
      </trkpt>
      <trkpt lat="43.54041" lon="5.53497">
        <ele>295</ele>
        <time>2018-02-20T11:39:39.000Z</time>
      </trkpt>
      <trkpt lat="43.5404" lon="5.53498">
        <ele>295</ele>
        <time>2018-02-20T11:39:40.000Z</time>
      </trkpt>
      <trkpt lat="43.5404" lon="5.53499">
        <ele>295</ele>
        <time>2018-02-20T11:39:41.000Z</time>
      </trkpt>
      <trkpt lat="43.54041" lon="5.53499">
        <ele>294</ele>
        <time>2018-02-20T11:39:42.000Z</time>
      </trkpt>
      <trkpt lat="43.54041" lon="5.53499">
        <ele>294</ele>
        <time>2018-02-20T11:39:43.000Z</time>
      </trkpt>
      <trkpt lat="43.54041" lon="5.535">
        <ele>294</ele>
        <time>2018-02-20T11:39:44.000Z</time>
      </trkpt>
      <trkpt lat="43.54042" lon="5.535">
        <ele>294</ele>
        <time>2018-02-20T11:39:45.000Z</time>
      </trkpt>
      <trkpt lat="43.54042" lon="5.535">
        <ele>294</ele>
        <time>2018-02-20T11:39:46.000Z</time>
      </trkpt>
      <trkpt lat="43.54042" lon="5.535">
        <ele>293</ele>
        <time>2018-02-20T11:39:47.000Z</time>
      </trkpt>
      <trkpt lat="43.54042" lon="5.535">
        <ele>293</ele>
        <time>2018-02-20T11:39:48.000Z</time>
      </trkpt>
      <trkpt lat="43.54042" lon="5.535">
        <ele>293</ele>
        <time>2018-02-20T11:39:49.000Z</time>
      </trkpt>
      <trkpt lat="43.54043" lon="5.53499">
        <ele>293</ele>
        <time>2018-02-20T11:39:50.000Z</time>
      </trkpt>
      <trkpt lat="43.54043" lon="5.53499">
        <ele>293</ele>
        <time>2018-02-20T11:39:51.000Z</time>
      </trkpt>
      <trkpt lat="43.54043" lon="5.53499">
        <ele>292</ele>
        <time>2018-02-20T11:39:52.000Z</time>
      </trkpt>
      <trkpt lat="43.54043" lon="5.53499">
        <ele>292</ele>
        <time>2018-02-20T11:39:53.000Z</time>
      </trkpt>
      <trkpt lat="43.54043" lon="5.53499">
        <ele>292</ele>
        <time>2018-02-20T11:39:54.000Z</time>
      </trkpt>
      <trkpt lat="43.54043" lon="5.53499">
        <ele>292</ele>
        <time>2018-02-20T11:39:55.000Z</time>
      </trkpt>
      <trkpt lat="43.54043" lon="5.53499">
        <ele>292</ele>
        <time>2018-02-20T11:39:56.000Z</time>
      </trkpt>
      <trkpt lat="43.54043" lon="5.53499">
        <ele>292</ele>
        <time>2018-02-20T11:39:57.000Z</time>
      </trkpt>
      <trkpt lat="43.54043" lon="5.53499">
        <ele>292</ele>
        <time>2018-02-20T11:39:58.000Z</time>
      </trkpt>
      <trkpt lat="43.54044" lon="5.53499">
        <ele>292</ele>
        <time>2018-02-20T11:39:59.000Z</time>
      </trkpt>
      <trkpt lat="43.54044" lon="5.53499">
        <ele>292</ele>
        <time>2018-02-20T11:40:00.000Z</time>
      </trkpt>
      <trkpt lat="43.54044" lon="5.53499">
        <ele>292</ele>
        <time>2018-02-20T11:40:01.000Z</time>
      </trkpt>
      <trkpt lat="43.54044" lon="5.53499">
        <ele>291</ele>
        <time>2018-02-20T11:40:02.000Z</time>
      </trkpt>
      <trkpt lat="43.54044" lon="5.53499">
        <ele>291</ele>
        <time>2018-02-20T11:40:03.000Z</time>
      </trkpt>
      <trkpt lat="43.54044" lon="5.53499">
        <ele>291</ele>
        <time>2018-02-20T11:40:04.000Z</time>
      </trkpt>
      <trkpt lat="43.54044" lon="5.535">
        <ele>291</ele>
        <time>2018-02-20T11:40:05.000Z</time>
      </trkpt>
      <trkpt lat="43.54043" lon="5.53501">
        <ele>291</ele>
        <time>2018-02-20T11:40:06.000Z</time>
      </trkpt>
      <trkpt lat="43.54043" lon="5.53501">
        <ele>291</ele>
        <time>2018-02-20T11:40:07.000Z</time>
      </trkpt>
      <trkpt lat="43.54043" lon="5.53501">
        <ele>291</ele>
        <time>2018-02-20T11:40:08.000Z</time>
      </trkpt>
      <trkpt lat="43.54043" lon="5.53501">
        <ele>291</ele>
        <time>2018-02-20T11:40:09.000Z</time>
      </trkpt>
      <trkpt lat="43.54043" lon="5.53501">
        <ele>291</ele>
        <time>2018-02-20T11:40:10.000Z</time>
      </trkpt>
      <trkpt lat="43.54043" lon="5.53501">
        <ele>291</ele>
        <time>2018-02-20T11:40:11.000Z</time>
      </trkpt>
      <trkpt lat="43.54043" lon="5.53501">
        <ele>291</ele>
        <time>2018-02-20T11:40:12.000Z</time>
      </trkpt>
      <trkpt lat="43.54043" lon="5.53501">
        <ele>291</ele>
        <time>2018-02-20T11:40:13.000Z</time>
      </trkpt>
      <trkpt lat="43.54043" lon="5.53501">
        <ele>291</ele>
        <time>2018-02-20T11:40:14.000Z</time>
      </trkpt>
      <trkpt lat="43.54043" lon="5.53502">
        <ele>291</ele>
        <time>2018-02-20T11:40:15.000Z</time>
      </trkpt>
      <trkpt lat="43.54043" lon="5.53502">
        <ele>290</ele>
        <time>2018-02-20T11:40:16.000Z</time>
      </trkpt>
      <trkpt lat="43.54043" lon="5.53503">
        <ele>290</ele>
        <time>2018-02-20T11:40:17.000Z</time>
      </trkpt>
      <trkpt lat="43.54043" lon="5.53503">
        <ele>290</ele>
        <time>2018-02-20T11:40:18.000Z</time>
      </trkpt>
      <trkpt lat="43.54043" lon="5.53503">
        <ele>290</ele>
        <time>2018-02-20T11:40:19.000Z</time>
      </trkpt>
      <trkpt lat="43.54043" lon="5.53503">
        <ele>290</ele>
        <time>2018-02-20T11:40:20.000Z</time>
      </trkpt>
      <trkpt lat="43.54043" lon="5.53503">
        <ele>290</ele>
        <time>2018-02-20T11:40:21.000Z</time>
      </trkpt>
      <trkpt lat="43.54043" lon="5.53502">
        <ele>290</ele>
        <time>2018-02-20T11:40:22.000Z</time>
      </trkpt>
      <trkpt lat="43.54043" lon="5.53503">
        <ele>291</ele>
        <time>2018-02-20T11:40:23.000Z</time>
      </trkpt>
      <trkpt lat="43.54043" lon="5.53503">
        <ele>291</ele>
        <time>2018-02-20T11:40:24.000Z</time>
      </trkpt>
      <trkpt lat="43.54043" lon="5.53504">
        <ele>291</ele>
        <time>2018-02-20T11:40:25.000Z</time>
      </trkpt>
      <trkpt lat="43.54044" lon="5.53505">
        <ele>291</ele>
        <time>2018-02-20T11:40:26.000Z</time>
      </trkpt>
      <trkpt lat="43.54044" lon="5.53506">
        <ele>291</ele>
        <time>2018-02-20T11:40:27.000Z</time>
      </trkpt>
      <trkpt lat="43.54044" lon="5.53507">
        <ele>291</ele>
        <time>2018-02-20T11:40:28.000Z</time>
      </trkpt>
      <trkpt lat="43.54044" lon="5.53509">
        <ele>292</ele>
        <time>2018-02-20T11:40:29.000Z</time>
      </trkpt>
      <trkpt lat="43.54043" lon="5.5351">
        <ele>292</ele>
        <time>2018-02-20T11:40:30.000Z</time>
      </trkpt>
      <trkpt lat="43.54043" lon="5.53511">
        <ele>292</ele>
        <time>2018-02-20T11:40:31.000Z</time>
      </trkpt>
      <trkpt lat="43.54043" lon="5.53512">
        <ele>292</ele>
        <time>2018-02-20T11:40:32.000Z</time>
      </trkpt>
      <trkpt lat="43.54042" lon="5.53514">
        <ele>292</ele>
        <time>2018-02-20T11:40:33.000Z</time>
      </trkpt>
      <trkpt lat="43.54041" lon="5.53515">
        <ele>292</ele>
        <time>2018-02-20T11:40:34.000Z</time>
      </trkpt>
      <trkpt lat="43.54041" lon="5.53517">
        <ele>292</ele>
        <time>2018-02-20T11:40:35.000Z</time>
      </trkpt>
      <trkpt lat="43.5404" lon="5.53518">
        <ele>292</ele>
        <time>2018-02-20T11:40:36.000Z</time>
      </trkpt>
      <trkpt lat="43.5404" lon="5.53519">
        <ele>292</ele>
        <time>2018-02-20T11:40:37.000Z</time>
      </trkpt>
      <trkpt lat="43.54039" lon="5.5352">
        <ele>292</ele>
        <time>2018-02-20T11:40:38.000Z</time>
      </trkpt>
      <trkpt lat="43.54038" lon="5.53521">
        <ele>292</ele>
        <time>2018-02-20T11:40:39.000Z</time>
      </trkpt>
      <trkpt lat="43.54038" lon="5.53522">
        <ele>292</ele>
        <time>2018-02-20T11:40:40.000Z</time>
      </trkpt>
      <trkpt lat="43.54037" lon="5.53523">
        <ele>292</ele>
        <time>2018-02-20T11:40:41.000Z</time>
      </trkpt>
      <trkpt lat="43.54037" lon="5.53524">
        <ele>292</ele>
        <time>2018-02-20T11:40:42.000Z</time>
      </trkpt>
      <trkpt lat="43.54036" lon="5.53524">
        <ele>292</ele>
        <time>2018-02-20T11:40:43.000Z</time>
      </trkpt>
      <trkpt lat="43.54036" lon="5.53525">
        <ele>292</ele>
        <time>2018-02-20T11:40:44.000Z</time>
      </trkpt>
      <trkpt lat="43.54035" lon="5.53525">
        <ele>292</ele>
        <time>2018-02-20T11:40:45.000Z</time>
      </trkpt>
      <trkpt lat="43.54034" lon="5.53526">
        <ele>292</ele>
        <time>2018-02-20T11:40:46.000Z</time>
      </trkpt>
      <trkpt lat="43.54033" lon="5.53526">
        <ele>292</ele>
        <time>2018-02-20T11:40:47.000Z</time>
      </trkpt>
      <trkpt lat="43.54033" lon="5.53527">
        <ele>291</ele>
        <time>2018-02-20T11:40:48.000Z</time>
      </trkpt>
      <trkpt lat="43.54031" lon="5.53527">
        <ele>291</ele>
        <time>2018-02-20T11:40:49.000Z</time>
      </trkpt>
      <trkpt lat="43.5403" lon="5.53528">
        <ele>291</ele>
        <time>2018-02-20T11:40:50.000Z</time>
      </trkpt>
      <trkpt lat="43.54029" lon="5.53528">
        <ele>291</ele>
        <time>2018-02-20T11:40:51.000Z</time>
      </trkpt>
      <trkpt lat="43.54028" lon="5.53528">
        <ele>290</ele>
        <time>2018-02-20T11:40:52.000Z</time>
      </trkpt>
      <trkpt lat="43.54027" lon="5.53528">
        <ele>290</ele>
        <time>2018-02-20T11:40:53.000Z</time>
      </trkpt>
      <trkpt lat="43.54026" lon="5.53528">
        <ele>290</ele>
        <time>2018-02-20T11:40:54.000Z</time>
      </trkpt>
      <trkpt lat="43.54025" lon="5.53528">
        <ele>290</ele>
        <time>2018-02-20T11:40:55.000Z</time>
      </trkpt>
      <trkpt lat="43.54024" lon="5.53528">
        <ele>290</ele>
        <time>2018-02-20T11:40:56.000Z</time>
      </trkpt>
      <trkpt lat="43.54023" lon="5.53528">
        <ele>290</ele>
        <time>2018-02-20T11:40:57.000Z</time>
      </trkpt>
      <trkpt lat="43.54022" lon="5.53527">
        <ele>289</ele>
        <time>2018-02-20T11:40:58.000Z</time>
      </trkpt>
      <trkpt lat="43.54021" lon="5.53527">
        <ele>289</ele>
        <time>2018-02-20T11:40:59.000Z</time>
      </trkpt>
      <trkpt lat="43.54021" lon="5.53527">
        <ele>289</ele>
        <time>2018-02-20T11:41:00.000Z</time>
      </trkpt>
      <trkpt lat="43.5402" lon="5.53527">
        <ele>289</ele>
        <time>2018-02-20T11:41:01.000Z</time>
      </trkpt>
      <trkpt lat="43.5402" lon="5.53527">
        <ele>289</ele>
        <time>2018-02-20T11:41:02.000Z</time>
      </trkpt>
      <trkpt lat="43.5402" lon="5.53527">
        <ele>289</ele>
        <time>2018-02-20T11:41:03.000Z</time>
      </trkpt>
      <trkpt lat="43.5402" lon="5.53527">
        <ele>289</ele>
        <time>2018-02-20T11:41:04.000Z</time>
      </trkpt>
      <trkpt lat="43.54019" lon="5.53527">
        <ele>289</ele>
        <time>2018-02-20T11:41:05.000Z</time>
      </trkpt>
      <trkpt lat="43.54019" lon="5.53527">
        <ele>289</ele>
        <time>2018-02-20T11:41:06.000Z</time>
      </trkpt>
      <trkpt lat="43.54019" lon="5.53527">
        <ele>288</ele>
        <time>2018-02-20T11:41:07.000Z</time>
      </trkpt>
      <trkpt lat="43.54019" lon="5.53527">
        <ele>288</ele>
        <time>2018-02-20T11:41:08.000Z</time>
      </trkpt>
      <trkpt lat="43.54019" lon="5.53527">
        <ele>288</ele>
        <time>2018-02-20T11:41:09.000Z</time>
      </trkpt>
      <trkpt lat="43.54018" lon="5.53527">
        <ele>288</ele>
        <time>2018-02-20T11:41:10.000Z</time>
      </trkpt>
      <trkpt lat="43.54018" lon="5.53527">
        <ele>288</ele>
        <time>2018-02-20T11:41:11.000Z</time>
      </trkpt>
      <trkpt lat="43.54018" lon="5.53527">
        <ele>288</ele>
        <time>2018-02-20T11:41:12.000Z</time>
      </trkpt>
      <trkpt lat="43.54018" lon="5.53527">
        <ele>288</ele>
        <time>2018-02-20T11:41:13.000Z</time>
      </trkpt>
      <trkpt lat="43.54018" lon="5.53527">
        <ele>287</ele>
        <time>2018-02-20T11:41:14.000Z</time>
      </trkpt>
      <trkpt lat="43.54017" lon="5.53528">
        <ele>287</ele>
        <time>2018-02-20T11:41:15.000Z</time>
      </trkpt>
      <trkpt lat="43.54017" lon="5.53528">
        <ele>287</ele>
        <time>2018-02-20T11:41:16.000Z</time>
      </trkpt>
      <trkpt lat="43.54016" lon="5.53528">
        <ele>287</ele>
        <time>2018-02-20T11:41:17.000Z</time>
      </trkpt>
      <trkpt lat="43.54016" lon="5.53528">
        <ele>287</ele>
        <time>2018-02-20T11:41:18.000Z</time>
      </trkpt>
      <trkpt lat="43.54016" lon="5.53528">
        <ele>287</ele>
        <time>2018-02-20T11:41:19.000Z</time>
      </trkpt>
      <trkpt lat="43.54015" lon="5.53528">
        <ele>286</ele>
        <time>2018-02-20T11:41:20.000Z</time>
      </trkpt>
      <trkpt lat="43.54015" lon="5.53528">
        <ele>286</ele>
        <time>2018-02-20T11:41:21.000Z</time>
      </trkpt>
      <trkpt lat="43.54015" lon="5.53528">
        <ele>286</ele>
        <time>2018-02-20T11:41:22.000Z</time>
      </trkpt>
      <trkpt lat="43.54015" lon="5.53528">
        <ele>286</ele>
        <time>2018-02-20T11:41:23.000Z</time>
      </trkpt>
      <trkpt lat="43.54015" lon="5.53528">
        <ele>286</ele>
        <time>2018-02-20T11:41:24.000Z</time>
      </trkpt>
      <trkpt lat="43.54015" lon="5.53528">
        <ele>286</ele>
        <time>2018-02-20T11:41:25.000Z</time>
      </trkpt>
      <trkpt lat="43.54014" lon="5.53529">
        <ele>286</ele>
        <time>2018-02-20T11:41:26.000Z</time>
      </trkpt>
      <trkpt lat="43.54014" lon="5.53529">
        <ele>286</ele>
        <time>2018-02-20T11:41:27.000Z</time>
      </trkpt>
      <trkpt lat="43.54014" lon="5.53529">
        <ele>286</ele>
        <time>2018-02-20T11:41:28.000Z</time>
      </trkpt>
      <trkpt lat="43.54014" lon="5.53528">
        <ele>286</ele>
        <time>2018-02-20T11:41:29.000Z</time>
      </trkpt>
      <trkpt lat="43.54013" lon="5.53528">
        <ele>286</ele>
        <time>2018-02-20T11:41:30.000Z</time>
      </trkpt>
      <trkpt lat="43.54013" lon="5.53528">
        <ele>286</ele>
        <time>2018-02-20T11:41:31.000Z</time>
      </trkpt>
      <trkpt lat="43.54012" lon="5.53527">
        <ele>286</ele>
        <time>2018-02-20T11:41:32.000Z</time>
      </trkpt>
      <trkpt lat="43.54011" lon="5.53527">
        <ele>286</ele>
        <time>2018-02-20T11:41:33.000Z</time>
      </trkpt>
      <trkpt lat="43.5401" lon="5.53526">
        <ele>285</ele>
        <time>2018-02-20T11:41:34.000Z</time>
      </trkpt>
      <trkpt lat="43.54009" lon="5.53526">
        <ele>285</ele>
        <time>2018-02-20T11:41:35.000Z</time>
      </trkpt>
      <trkpt lat="43.54009" lon="5.53526">
        <ele>285</ele>
        <time>2018-02-20T11:41:36.000Z</time>
      </trkpt>
      <trkpt lat="43.54008" lon="5.53526">
        <ele>285</ele>
        <time>2018-02-20T11:41:37.000Z</time>
      </trkpt>
      <trkpt lat="43.54007" lon="5.53525">
        <ele>285</ele>
        <time>2018-02-20T11:41:38.000Z</time>
      </trkpt>
      <trkpt lat="43.54007" lon="5.53525">
        <ele>285</ele>
        <time>2018-02-20T11:41:39.000Z</time>
      </trkpt>
      <trkpt lat="43.54007" lon="5.53524">
        <ele>285</ele>
        <time>2018-02-20T11:41:40.000Z</time>
      </trkpt>
      <trkpt lat="43.54007" lon="5.53524">
        <ele>285</ele>
        <time>2018-02-20T11:41:41.000Z</time>
      </trkpt>
      <trkpt lat="43.54006" lon="5.53524">
        <ele>285</ele>
        <time>2018-02-20T11:41:42.000Z</time>
      </trkpt>
      <trkpt lat="43.54006" lon="5.53524">
        <ele>285</ele>
        <time>2018-02-20T11:41:43.000Z</time>
      </trkpt>
      <trkpt lat="43.54006" lon="5.53524">
        <ele>285</ele>
        <time>2018-02-20T11:41:44.000Z</time>
      </trkpt>
      <trkpt lat="43.54006" lon="5.53524">
        <ele>285</ele>
        <time>2018-02-20T11:41:45.000Z</time>
      </trkpt>
      <trkpt lat="43.54006" lon="5.53524">
        <ele>285</ele>
        <time>2018-02-20T11:41:46.000Z</time>
      </trkpt>
      <trkpt lat="43.54006" lon="5.53524">
        <ele>285</ele>
        <time>2018-02-20T11:41:47.000Z</time>
      </trkpt>
      <trkpt lat="43.54006" lon="5.53524">
        <ele>285</ele>
        <time>2018-02-20T11:41:48.000Z</time>
      </trkpt>
      <trkpt lat="43.54006" lon="5.53524">
        <ele>286</ele>
        <time>2018-02-20T11:41:49.000Z</time>
      </trkpt>
      <trkpt lat="43.54006" lon="5.53524">
        <ele>286</ele>
        <time>2018-02-20T11:41:50.000Z</time>
      </trkpt>
      <trkpt lat="43.54006" lon="5.53524">
        <ele>286</ele>
        <time>2018-02-20T11:41:51.000Z</time>
      </trkpt>
      <trkpt lat="43.54006" lon="5.53524">
        <ele>286</ele>
        <time>2018-02-20T11:41:52.000Z</time>
      </trkpt>
      <trkpt lat="43.54006" lon="5.53524">
        <ele>286</ele>
        <time>2018-02-20T11:41:53.000Z</time>
      </trkpt>
      <trkpt lat="43.54006" lon="5.53524">
        <ele>286</ele>
        <time>2018-02-20T11:41:54.000Z</time>
      </trkpt>
      <trkpt lat="43.54006" lon="5.53524">
        <ele>286</ele>
        <time>2018-02-20T11:41:55.000Z</time>
      </trkpt>
      <trkpt lat="43.54005" lon="5.53525">
        <ele>286</ele>
        <time>2018-02-20T11:41:56.000Z</time>
      </trkpt>
      <trkpt lat="43.54005" lon="5.53525">
        <ele>287</ele>
        <time>2018-02-20T11:41:57.000Z</time>
      </trkpt>
      <trkpt lat="43.54005" lon="5.53525">
        <ele>287</ele>
        <time>2018-02-20T11:41:58.000Z</time>
      </trkpt>
      <trkpt lat="43.54005" lon="5.53526">
        <ele>287</ele>
        <time>2018-02-20T11:41:59.000Z</time>
      </trkpt>
      <trkpt lat="43.54005" lon="5.53526">
        <ele>287</ele>
        <time>2018-02-20T11:42:00.000Z</time>
      </trkpt>
      <trkpt lat="43.54005" lon="5.53526">
        <ele>287</ele>
        <time>2018-02-20T11:42:01.000Z</time>
      </trkpt>
      <trkpt lat="43.54005" lon="5.53525">
        <ele>287</ele>
        <time>2018-02-20T11:42:02.000Z</time>
      </trkpt>
      <trkpt lat="43.54006" lon="5.53525">
        <ele>287</ele>
        <time>2018-02-20T11:42:03.000Z</time>
      </trkpt>
      <trkpt lat="43.54006" lon="5.53526">
        <ele>287</ele>
        <time>2018-02-20T11:42:04.000Z</time>
      </trkpt>
      <trkpt lat="43.54006" lon="5.53526">
        <ele>287</ele>
        <time>2018-02-20T11:42:05.000Z</time>
      </trkpt>
      <trkpt lat="43.54006" lon="5.53526">
        <ele>288</ele>
        <time>2018-02-20T11:42:06.000Z</time>
      </trkpt>
      <trkpt lat="43.54007" lon="5.53526">
        <ele>288</ele>
        <time>2018-02-20T11:42:07.000Z</time>
      </trkpt>
      <trkpt lat="43.54007" lon="5.53526">
        <ele>288</ele>
        <time>2018-02-20T11:42:08.000Z</time>
      </trkpt>
      <trkpt lat="43.54007" lon="5.53527">
        <ele>288</ele>
        <time>2018-02-20T11:42:09.000Z</time>
      </trkpt>
      <trkpt lat="43.54007" lon="5.53528">
        <ele>288</ele>
        <time>2018-02-20T11:42:10.000Z</time>
      </trkpt>
      <trkpt lat="43.54007" lon="5.53529">
        <ele>288</ele>
        <time>2018-02-20T11:42:11.000Z</time>
      </trkpt>
      <trkpt lat="43.54007" lon="5.53529">
        <ele>288</ele>
        <time>2018-02-20T11:42:12.000Z</time>
      </trkpt>
      <trkpt lat="43.54007" lon="5.53529">
        <ele>288</ele>
        <time>2018-02-20T11:42:13.000Z</time>
      </trkpt>
      <trkpt lat="43.54007" lon="5.5353">
        <ele>288</ele>
        <time>2018-02-20T11:42:14.000Z</time>
      </trkpt>
      <trkpt lat="43.54007" lon="5.5353">
        <ele>288</ele>
        <time>2018-02-20T11:42:15.000Z</time>
      </trkpt>
      <trkpt lat="43.54007" lon="5.5353">
        <ele>288</ele>
        <time>2018-02-20T11:42:16.000Z</time>
      </trkpt>
      <trkpt lat="43.54007" lon="5.5353">
        <ele>288</ele>
        <time>2018-02-20T11:42:17.000Z</time>
      </trkpt>
      <trkpt lat="43.54007" lon="5.5353">
        <ele>288</ele>
        <time>2018-02-20T11:42:18.000Z</time>
      </trkpt>
      <trkpt lat="43.54008" lon="5.53529">
        <ele>288</ele>
        <time>2018-02-20T11:42:19.000Z</time>
      </trkpt>
      <trkpt lat="43.54008" lon="5.53529">
        <ele>288</ele>
        <time>2018-02-20T11:42:20.000Z</time>
      </trkpt>
      <trkpt lat="43.54007" lon="5.5353">
        <ele>288</ele>
        <time>2018-02-20T11:42:21.000Z</time>
      </trkpt>
      <trkpt lat="43.54007" lon="5.53531">
        <ele>289</ele>
        <time>2018-02-20T11:42:22.000Z</time>
      </trkpt>
      <trkpt lat="43.54007" lon="5.53531">
        <ele>289</ele>
        <time>2018-02-20T11:42:23.000Z</time>
      </trkpt>
      <trkpt lat="43.54007" lon="5.53532">
        <ele>289</ele>
        <time>2018-02-20T11:42:24.000Z</time>
      </trkpt>
      <trkpt lat="43.54007" lon="5.53532">
        <ele>289</ele>
        <time>2018-02-20T11:42:25.000Z</time>
      </trkpt>
      <trkpt lat="43.54007" lon="5.53532">
        <ele>289</ele>
        <time>2018-02-20T11:42:26.000Z</time>
      </trkpt>
      <trkpt lat="43.54007" lon="5.53532">
        <ele>289</ele>
        <time>2018-02-20T11:42:27.000Z</time>
      </trkpt>
      <trkpt lat="43.54007" lon="5.53532">
        <ele>289</ele>
        <time>2018-02-20T11:42:28.000Z</time>
      </trkpt>
      <trkpt lat="43.54007" lon="5.53533">
        <ele>289</ele>
        <time>2018-02-20T11:42:29.000Z</time>
      </trkpt>
      <trkpt lat="43.54007" lon="5.53533">
        <ele>289</ele>
        <time>2018-02-20T11:42:30.000Z</time>
      </trkpt>
      <trkpt lat="43.54007" lon="5.53533">
        <ele>289</ele>
        <time>2018-02-20T11:42:31.000Z</time>
      </trkpt>
      <trkpt lat="43.54007" lon="5.53533">
        <ele>289</ele>
        <time>2018-02-20T11:42:32.000Z</time>
      </trkpt>
      <trkpt lat="43.54007" lon="5.53533">
        <ele>289</ele>
        <time>2018-02-20T11:42:33.000Z</time>
      </trkpt>
      <trkpt lat="43.54007" lon="5.53534">
        <ele>289</ele>
        <time>2018-02-20T11:42:34.000Z</time>
      </trkpt>
      <trkpt lat="43.54007" lon="5.53535">
        <ele>290</ele>
        <time>2018-02-20T11:42:35.000Z</time>
      </trkpt>
      <trkpt lat="43.54007" lon="5.53535">
        <ele>290</ele>
        <time>2018-02-20T11:42:36.000Z</time>
      </trkpt>
      <trkpt lat="43.54007" lon="5.53535">
        <ele>290</ele>
        <time>2018-02-20T11:42:37.000Z</time>
      </trkpt>
      <trkpt lat="43.54006" lon="5.53536">
        <ele>290</ele>
        <time>2018-02-20T11:42:38.000Z</time>
      </trkpt>
      <trkpt lat="43.54006" lon="5.53536">
        <ele>290</ele>
        <time>2018-02-20T11:42:39.000Z</time>
      </trkpt>
      <trkpt lat="43.54007" lon="5.53536">
        <ele>290</ele>
        <time>2018-02-20T11:42:40.000Z</time>
      </trkpt>
      <trkpt lat="43.54007" lon="5.53537">
        <ele>290</ele>
        <time>2018-02-20T11:42:41.000Z</time>
      </trkpt>
      <trkpt lat="43.54007" lon="5.53538">
        <ele>290</ele>
        <time>2018-02-20T11:42:42.000Z</time>
      </trkpt>
      <trkpt lat="43.54007" lon="5.53539">
        <ele>290</ele>
        <time>2018-02-20T11:42:43.000Z</time>
      </trkpt>
      <trkpt lat="43.54007" lon="5.5354">
        <ele>290</ele>
        <time>2018-02-20T11:42:44.000Z</time>
      </trkpt>
      <trkpt lat="43.54007" lon="5.5354">
        <ele>290</ele>
        <time>2018-02-20T11:42:45.000Z</time>
      </trkpt>
      <trkpt lat="43.54008" lon="5.53541">
        <ele>290</ele>
        <time>2018-02-20T11:42:46.000Z</time>
      </trkpt>
      <trkpt lat="43.54008" lon="5.53541">
        <ele>290</ele>
        <time>2018-02-20T11:42:47.000Z</time>
      </trkpt>
      <trkpt lat="43.54008" lon="5.53542">
        <ele>290</ele>
        <time>2018-02-20T11:42:48.000Z</time>
      </trkpt>
      <trkpt lat="43.54008" lon="5.53543">
        <ele>290</ele>
        <time>2018-02-20T11:42:49.000Z</time>
      </trkpt>
      <trkpt lat="43.54008" lon="5.53544">
        <ele>290</ele>
        <time>2018-02-20T11:42:50.000Z</time>
      </trkpt>
      <trkpt lat="43.54008" lon="5.53544">
        <ele>290</ele>
        <time>2018-02-20T11:42:51.000Z</time>
      </trkpt>
      <trkpt lat="43.54008" lon="5.53545">
        <ele>290</ele>
        <time>2018-02-20T11:42:52.000Z</time>
      </trkpt>
      <trkpt lat="43.54009" lon="5.53545">
        <ele>290</ele>
        <time>2018-02-20T11:42:53.000Z</time>
      </trkpt>
      <trkpt lat="43.54009" lon="5.53545">
        <ele>290</ele>
        <time>2018-02-20T11:42:54.000Z</time>
      </trkpt>
      <trkpt lat="43.54009" lon="5.53545">
        <ele>290</ele>
        <time>2018-02-20T11:42:55.000Z</time>
      </trkpt>
      <trkpt lat="43.54009" lon="5.53545">
        <ele>290</ele>
        <time>2018-02-20T11:42:56.000Z</time>
      </trkpt>
      <trkpt lat="43.54009" lon="5.53546">
        <ele>290</ele>
        <time>2018-02-20T11:42:57.000Z</time>
      </trkpt>
      <trkpt lat="43.54009" lon="5.53546">
        <ele>290</ele>
        <time>2018-02-20T11:42:58.000Z</time>
      </trkpt>
      <trkpt lat="43.5401" lon="5.53547">
        <ele>290</ele>
        <time>2018-02-20T11:42:59.000Z</time>
      </trkpt>
      <trkpt lat="43.5401" lon="5.53547">
        <ele>290</ele>
        <time>2018-02-20T11:43:00.000Z</time>
      </trkpt>
      <trkpt lat="43.5401" lon="5.53547">
        <ele>291</ele>
        <time>2018-02-20T11:43:01.000Z</time>
      </trkpt>
      <trkpt lat="43.5401" lon="5.53547">
        <ele>291</ele>
        <time>2018-02-20T11:43:02.000Z</time>
      </trkpt>
      <trkpt lat="43.5401" lon="5.53548">
        <ele>291</ele>
        <time>2018-02-20T11:43:03.000Z</time>
      </trkpt>
      <trkpt lat="43.5401" lon="5.53548">
        <ele>291</ele>
        <time>2018-02-20T11:43:04.000Z</time>
      </trkpt>
      <trkpt lat="43.5401" lon="5.53549">
        <ele>291</ele>
        <time>2018-02-20T11:43:05.000Z</time>
      </trkpt>
      <trkpt lat="43.5401" lon="5.53549">
        <ele>291</ele>
        <time>2018-02-20T11:43:06.000Z</time>
      </trkpt>
      <trkpt lat="43.5401" lon="5.53549">
        <ele>291</ele>
        <time>2018-02-20T11:43:07.000Z</time>
      </trkpt>
      <trkpt lat="43.5401" lon="5.5355">
        <ele>291</ele>
        <time>2018-02-20T11:43:08.000Z</time>
      </trkpt>
      <trkpt lat="43.5401" lon="5.5355">
        <ele>292</ele>
        <time>2018-02-20T11:43:09.000Z</time>
      </trkpt>
      <trkpt lat="43.5401" lon="5.53551">
        <ele>292</ele>
        <time>2018-02-20T11:43:10.000Z</time>
      </trkpt>
      <trkpt lat="43.5401" lon="5.53552">
        <ele>292</ele>
        <time>2018-02-20T11:43:11.000Z</time>
      </trkpt>
      <trkpt lat="43.5401" lon="5.53552">
        <ele>292</ele>
        <time>2018-02-20T11:43:12.000Z</time>
      </trkpt>
      <trkpt lat="43.54011" lon="5.53553">
        <ele>292</ele>
        <time>2018-02-20T11:43:13.000Z</time>
      </trkpt>
      <trkpt lat="43.54011" lon="5.53553">
        <ele>292</ele>
        <time>2018-02-20T11:43:14.000Z</time>
      </trkpt>
      <trkpt lat="43.54011" lon="5.53553">
        <ele>292</ele>
        <time>2018-02-20T11:43:15.000Z</time>
      </trkpt>
      <trkpt lat="43.54011" lon="5.53553">
        <ele>293</ele>
        <time>2018-02-20T11:43:16.000Z</time>
      </trkpt>
      <trkpt lat="43.54012" lon="5.53553">
        <ele>293</ele>
        <time>2018-02-20T11:43:17.000Z</time>
      </trkpt>
      <trkpt lat="43.54012" lon="5.53553">
        <ele>293</ele>
        <time>2018-02-20T11:43:18.000Z</time>
      </trkpt>
      <trkpt lat="43.54013" lon="5.53554">
        <ele>293</ele>
        <time>2018-02-20T11:43:19.000Z</time>
      </trkpt>
      <trkpt lat="43.54014" lon="5.53554">
        <ele>293</ele>
        <time>2018-02-20T11:43:20.000Z</time>
      </trkpt>
      <trkpt lat="43.54015" lon="5.53554">
        <ele>294</ele>
        <time>2018-02-20T11:43:21.000Z</time>
      </trkpt>
      <trkpt lat="43.54016" lon="5.53554">
        <ele>294</ele>
        <time>2018-02-20T11:43:22.000Z</time>
      </trkpt>
      <trkpt lat="43.54016" lon="5.53554">
        <ele>294</ele>
        <time>2018-02-20T11:43:23.000Z</time>
      </trkpt>
      <trkpt lat="43.54017" lon="5.53555">
        <ele>294</ele>
        <time>2018-02-20T11:43:24.000Z</time>
      </trkpt>
      <trkpt lat="43.54017" lon="5.53555">
        <ele>294</ele>
        <time>2018-02-20T11:43:25.000Z</time>
      </trkpt>
      <trkpt lat="43.54018" lon="5.53556">
        <ele>295</ele>
        <time>2018-02-20T11:43:26.000Z</time>
      </trkpt>
      <trkpt lat="43.54019" lon="5.53556">
        <ele>295</ele>
        <time>2018-02-20T11:43:27.000Z</time>
      </trkpt>
      <trkpt lat="43.54019" lon="5.53557">
        <ele>295</ele>
        <time>2018-02-20T11:43:28.000Z</time>
      </trkpt>
      <trkpt lat="43.54019" lon="5.53557">
        <ele>295</ele>
        <time>2018-02-20T11:43:29.000Z</time>
      </trkpt>
      <trkpt lat="43.5402" lon="5.53558">
        <ele>295</ele>
        <time>2018-02-20T11:43:30.000Z</time>
      </trkpt>
      <trkpt lat="43.5402" lon="5.53559">
        <ele>296</ele>
        <time>2018-02-20T11:43:31.000Z</time>
      </trkpt>
      <trkpt lat="43.5402" lon="5.5356">
        <ele>296</ele>
        <time>2018-02-20T11:43:32.000Z</time>
      </trkpt>
      <trkpt lat="43.54021" lon="5.53562">
        <ele>296</ele>
        <time>2018-02-20T11:43:33.000Z</time>
      </trkpt>
      <trkpt lat="43.54021" lon="5.53563">
        <ele>296</ele>
        <time>2018-02-20T11:43:34.000Z</time>
      </trkpt>
      <trkpt lat="43.54021" lon="5.53564">
        <ele>297</ele>
        <time>2018-02-20T11:43:35.000Z</time>
      </trkpt>
      <trkpt lat="43.54021" lon="5.53564">
        <ele>297</ele>
        <time>2018-02-20T11:43:36.000Z</time>
      </trkpt>
      <trkpt lat="43.54022" lon="5.53565">
        <ele>297</ele>
        <time>2018-02-20T11:43:37.000Z</time>
      </trkpt>
      <trkpt lat="43.54022" lon="5.53565">
        <ele>297</ele>
        <time>2018-02-20T11:43:38.000Z</time>
      </trkpt>
      <trkpt lat="43.54023" lon="5.53566">
        <ele>297</ele>
        <time>2018-02-20T11:43:39.000Z</time>
      </trkpt>
      <trkpt lat="43.54023" lon="5.53566">
        <ele>297</ele>
        <time>2018-02-20T11:43:40.000Z</time>
      </trkpt>
      <trkpt lat="43.54024" lon="5.53567">
        <ele>298</ele>
        <time>2018-02-20T11:43:41.000Z</time>
      </trkpt>
      <trkpt lat="43.54024" lon="5.53567">
        <ele>298</ele>
        <time>2018-02-20T11:43:42.000Z</time>
      </trkpt>
      <trkpt lat="43.54024" lon="5.53567">
        <ele>298</ele>
        <time>2018-02-20T11:43:43.000Z</time>
      </trkpt>
      <trkpt lat="43.54024" lon="5.53567">
        <ele>298</ele>
        <time>2018-02-20T11:43:44.000Z</time>
      </trkpt>
      <trkpt lat="43.54025" lon="5.53567">
        <ele>298</ele>
        <time>2018-02-20T11:43:45.000Z</time>
      </trkpt>
      <trkpt lat="43.54025" lon="5.53567">
        <ele>298</ele>
        <time>2018-02-20T11:43:46.000Z</time>
      </trkpt>
      <trkpt lat="43.54025" lon="5.53567">
        <ele>298</ele>
        <time>2018-02-20T11:43:47.000Z</time>
      </trkpt>
      <trkpt lat="43.54025" lon="5.53567">
        <ele>299</ele>
        <time>2018-02-20T11:43:48.000Z</time>
      </trkpt>
      <trkpt lat="43.54025" lon="5.53567">
        <ele>299</ele>
        <time>2018-02-20T11:43:49.000Z</time>
      </trkpt>
      <trkpt lat="43.54026" lon="5.53567">
        <ele>299</ele>
        <time>2018-02-20T11:43:50.000Z</time>
      </trkpt>
      <trkpt lat="43.54026" lon="5.53567">
        <ele>299</ele>
        <time>2018-02-20T11:43:51.000Z</time>
      </trkpt>
      <trkpt lat="43.54026" lon="5.53567">
        <ele>299</ele>
        <time>2018-02-20T11:43:52.000Z</time>
      </trkpt>
      <trkpt lat="43.54026" lon="5.53567">
        <ele>299</ele>
        <time>2018-02-20T11:43:53.000Z</time>
      </trkpt>
      <trkpt lat="43.54026" lon="5.53567">
        <ele>299</ele>
        <time>2018-02-20T11:43:54.000Z</time>
      </trkpt>
      <trkpt lat="43.54026" lon="5.53567">
        <ele>299</ele>
        <time>2018-02-20T11:43:55.000Z</time>
      </trkpt>
      <trkpt lat="43.54026" lon="5.53567">
        <ele>299</ele>
        <time>2018-02-20T11:43:56.000Z</time>
      </trkpt>
      <trkpt lat="43.54026" lon="5.53567">
        <ele>299</ele>
        <time>2018-02-20T11:43:57.000Z</time>
      </trkpt>
      <trkpt lat="43.54026" lon="5.53567">
        <ele>299</ele>
        <time>2018-02-20T11:43:58.000Z</time>
      </trkpt>
      <trkpt lat="43.54026" lon="5.53567">
        <ele>299</ele>
        <time>2018-02-20T11:43:59.000Z</time>
      </trkpt>
      <trkpt lat="43.54026" lon="5.53567">
        <ele>299</ele>
        <time>2018-02-20T11:44:00.000Z</time>
      </trkpt>
      <trkpt lat="43.54026" lon="5.53567">
        <ele>299</ele>
        <time>2018-02-20T11:44:01.000Z</time>
      </trkpt>
      <trkpt lat="43.54026" lon="5.53568">
        <ele>299</ele>
        <time>2018-02-20T11:44:02.000Z</time>
      </trkpt>
      <trkpt lat="43.54026" lon="5.53568">
        <ele>299</ele>
        <time>2018-02-20T11:44:03.000Z</time>
      </trkpt>
      <trkpt lat="43.54026" lon="5.53567">
        <ele>299</ele>
        <time>2018-02-20T11:44:04.000Z</time>
      </trkpt>
      <trkpt lat="43.54026" lon="5.53568">
        <ele>299</ele>
        <time>2018-02-20T11:44:05.000Z</time>
      </trkpt>
      <trkpt lat="43.54026" lon="5.53568">
        <ele>299</ele>
        <time>2018-02-20T11:44:06.000Z</time>
      </trkpt>
      <trkpt lat="43.54026" lon="5.53568">
        <ele>299</ele>
        <time>2018-02-20T11:44:07.000Z</time>
      </trkpt>
      <trkpt lat="43.54026" lon="5.53568">
        <ele>299</ele>
        <time>2018-02-20T11:44:08.000Z</time>
      </trkpt>
      <trkpt lat="43.54026" lon="5.53568">
        <ele>299</ele>
        <time>2018-02-20T11:44:09.000Z</time>
      </trkpt>
      <trkpt lat="43.54026" lon="5.53568">
        <ele>299</ele>
        <time>2018-02-20T11:44:10.000Z</time>
      </trkpt>
      <trkpt lat="43.54026" lon="5.53568">
        <ele>299</ele>
        <time>2018-02-20T11:44:11.000Z</time>
      </trkpt>
      <trkpt lat="43.54025" lon="5.53569">
        <ele>300</ele>
        <time>2018-02-20T11:44:12.000Z</time>
      </trkpt>
      <trkpt lat="43.54025" lon="5.53569">
        <ele>300</ele>
        <time>2018-02-20T11:44:13.000Z</time>
      </trkpt>
      <trkpt lat="43.54025" lon="5.53569">
        <ele>300</ele>
        <time>2018-02-20T11:44:14.000Z</time>
      </trkpt>
      <trkpt lat="43.54025" lon="5.53569">
        <ele>300</ele>
        <time>2018-02-20T11:44:15.000Z</time>
      </trkpt>
      <trkpt lat="43.54025" lon="5.53569">
        <ele>300</ele>
        <time>2018-02-20T11:44:16.000Z</time>
      </trkpt>
      <trkpt lat="43.54025" lon="5.5357">
        <ele>300</ele>
        <time>2018-02-20T11:44:17.000Z</time>
      </trkpt>
      <trkpt lat="43.54025" lon="5.5357">
        <ele>300</ele>
        <time>2018-02-20T11:44:18.000Z</time>
      </trkpt>
      <trkpt lat="43.54025" lon="5.5357">
        <ele>300</ele>
        <time>2018-02-20T11:44:19.000Z</time>
      </trkpt>
      <trkpt lat="43.54025" lon="5.5357">
        <ele>300</ele>
        <time>2018-02-20T11:44:20.000Z</time>
      </trkpt>
      <trkpt lat="43.54025" lon="5.5357">
        <ele>300</ele>
        <time>2018-02-20T11:44:21.000Z</time>
      </trkpt>
      <trkpt lat="43.54024" lon="5.53571">
        <ele>300</ele>
        <time>2018-02-20T11:44:22.000Z</time>
      </trkpt>
      <trkpt lat="43.54024" lon="5.53571">
        <ele>300</ele>
        <time>2018-02-20T11:44:23.000Z</time>
      </trkpt>
      <trkpt lat="43.54024" lon="5.53571">
        <ele>300</ele>
        <time>2018-02-20T11:44:24.000Z</time>
      </trkpt>
      <trkpt lat="43.54024" lon="5.53571">
        <ele>300</ele>
        <time>2018-02-20T11:44:25.000Z</time>
      </trkpt>
      <trkpt lat="43.54024" lon="5.53571">
        <ele>300</ele>
        <time>2018-02-20T11:44:26.000Z</time>
      </trkpt>
      <trkpt lat="43.54024" lon="5.53571">
        <ele>300</ele>
        <time>2018-02-20T11:44:27.000Z</time>
      </trkpt>
      <trkpt lat="43.54024" lon="5.53571">
        <ele>300</ele>
        <time>2018-02-20T11:44:28.000Z</time>
      </trkpt>
      <trkpt lat="43.54024" lon="5.53571">
        <ele>300</ele>
        <time>2018-02-20T11:44:29.000Z</time>
      </trkpt>
      <trkpt lat="43.54024" lon="5.53572">
        <ele>300</ele>
        <time>2018-02-20T11:44:30.000Z</time>
      </trkpt>
      <trkpt lat="43.54024" lon="5.53572">
        <ele>301</ele>
        <time>2018-02-20T11:44:31.000Z</time>
      </trkpt>
      <trkpt lat="43.54024" lon="5.53572">
        <ele>301</ele>
        <time>2018-02-20T11:44:32.000Z</time>
      </trkpt>
      <trkpt lat="43.54024" lon="5.53572">
        <ele>301</ele>
        <time>2018-02-20T11:44:33.000Z</time>
      </trkpt>
      <trkpt lat="43.54024" lon="5.53572">
        <ele>301</ele>
        <time>2018-02-20T11:44:34.000Z</time>
      </trkpt>
      <trkpt lat="43.54024" lon="5.53572">
        <ele>301</ele>
        <time>2018-02-20T11:44:35.000Z</time>
      </trkpt>
      <trkpt lat="43.54024" lon="5.53572">
        <ele>301</ele>
        <time>2018-02-20T11:44:36.000Z</time>
      </trkpt>
      <trkpt lat="43.54024" lon="5.53572">
        <ele>301</ele>
        <time>2018-02-20T11:44:37.000Z</time>
      </trkpt>
      <trkpt lat="43.54024" lon="5.53572">
        <ele>301</ele>
        <time>2018-02-20T11:44:38.000Z</time>
      </trkpt>
      <trkpt lat="43.54024" lon="5.53572">
        <ele>301</ele>
        <time>2018-02-20T11:44:39.000Z</time>
      </trkpt>
      <trkpt lat="43.54024" lon="5.53572">
        <ele>301</ele>
        <time>2018-02-20T11:44:40.000Z</time>
      </trkpt>
      <trkpt lat="43.54024" lon="5.53572">
        <ele>301</ele>
        <time>2018-02-20T11:44:41.000Z</time>
      </trkpt>
      <trkpt lat="43.54024" lon="5.53572">
        <ele>301</ele>
        <time>2018-02-20T11:44:42.000Z</time>
      </trkpt>
      <trkpt lat="43.54024" lon="5.53573">
        <ele>301</ele>
        <time>2018-02-20T11:44:43.000Z</time>
      </trkpt>
      <trkpt lat="43.54024" lon="5.53573">
        <ele>301</ele>
        <time>2018-02-20T11:44:44.000Z</time>
      </trkpt>
      <trkpt lat="43.54024" lon="5.53573">
        <ele>301</ele>
        <time>2018-02-20T11:44:45.000Z</time>
      </trkpt>
      <trkpt lat="43.54024" lon="5.53573">
        <ele>301</ele>
        <time>2018-02-20T11:44:46.000Z</time>
      </trkpt>
      <trkpt lat="43.54024" lon="5.53573">
        <ele>301</ele>
        <time>2018-02-20T11:44:47.000Z</time>
      </trkpt>
      <trkpt lat="43.54024" lon="5.53573">
        <ele>301</ele>
        <time>2018-02-20T11:44:48.000Z</time>
      </trkpt>
      <trkpt lat="43.54024" lon="5.53573">
        <ele>301</ele>
        <time>2018-02-20T11:44:49.000Z</time>
      </trkpt>
      <trkpt lat="43.54024" lon="5.53573">
        <ele>301</ele>
        <time>2018-02-20T11:44:50.000Z</time>
      </trkpt>
      <trkpt lat="43.54024" lon="5.53573">
        <ele>302</ele>
        <time>2018-02-20T11:44:51.000Z</time>
      </trkpt>
      <trkpt lat="43.54024" lon="5.53573">
        <ele>302</ele>
        <time>2018-02-20T11:44:52.000Z</time>
      </trkpt>
      <trkpt lat="43.54024" lon="5.53573">
        <ele>302</ele>
        <time>2018-02-20T11:44:53.000Z</time>
      </trkpt>
      <trkpt lat="43.54024" lon="5.53573">
        <ele>302</ele>
        <time>2018-02-20T11:44:54.000Z</time>
      </trkpt>
      <trkpt lat="43.54024" lon="5.53573">
        <ele>302</ele>
        <time>2018-02-20T11:44:55.000Z</time>
      </trkpt>
      <trkpt lat="43.54024" lon="5.53574">
        <ele>303</ele>
        <time>2018-02-20T11:44:56.000Z</time>
      </trkpt>
      <trkpt lat="43.54024" lon="5.53574">
        <ele>303</ele>
        <time>2018-02-20T11:44:57.000Z</time>
      </trkpt>
      <trkpt lat="43.54024" lon="5.53574">
        <ele>303</ele>
        <time>2018-02-20T11:44:58.000Z</time>
      </trkpt>
      <trkpt lat="43.54024" lon="5.53574">
        <ele>303</ele>
        <time>2018-02-20T11:44:59.000Z</time>
      </trkpt>
      <trkpt lat="43.54024" lon="5.53574">
        <ele>303</ele>
        <time>2018-02-20T11:45:00.000Z</time>
      </trkpt>
      <trkpt lat="43.54024" lon="5.53574">
        <ele>304</ele>
        <time>2018-02-20T11:45:01.000Z</time>
      </trkpt>
      <trkpt lat="43.54024" lon="5.53574">
        <ele>304</ele>
        <time>2018-02-20T11:45:02.000Z</time>
      </trkpt>
      <trkpt lat="43.54024" lon="5.53574">
        <ele>304</ele>
        <time>2018-02-20T11:45:03.000Z</time>
      </trkpt>
      <trkpt lat="43.54024" lon="5.53575">
        <ele>304</ele>
        <time>2018-02-20T11:45:04.000Z</time>
      </trkpt>
      <trkpt lat="43.54024" lon="5.53575">
        <ele>304</ele>
        <time>2018-02-20T11:45:05.000Z</time>
      </trkpt>
      <trkpt lat="43.54023" lon="5.53575">
        <ele>305</ele>
        <time>2018-02-20T11:45:06.000Z</time>
      </trkpt>
      <trkpt lat="43.54023" lon="5.53575">
        <ele>305</ele>
        <time>2018-02-20T11:45:07.000Z</time>
      </trkpt>
      <trkpt lat="43.54023" lon="5.53575">
        <ele>305</ele>
        <time>2018-02-20T11:45:08.000Z</time>
      </trkpt>
      <trkpt lat="43.54022" lon="5.53575">
        <ele>305</ele>
        <time>2018-02-20T11:45:09.000Z</time>
      </trkpt>
      <trkpt lat="43.54022" lon="5.53575">
        <ele>306</ele>
        <time>2018-02-20T11:45:10.000Z</time>
      </trkpt>
      <trkpt lat="43.54022" lon="5.53575">
        <ele>306</ele>
        <time>2018-02-20T11:45:11.000Z</time>
      </trkpt>
      <trkpt lat="43.54021" lon="5.53575">
        <ele>306</ele>
        <time>2018-02-20T11:45:12.000Z</time>
      </trkpt>
      <trkpt lat="43.54021" lon="5.53575">
        <ele>307</ele>
        <time>2018-02-20T11:45:13.000Z</time>
      </trkpt>
      <trkpt lat="43.54021" lon="5.53576">
        <ele>307</ele>
        <time>2018-02-20T11:45:14.000Z</time>
      </trkpt>
      <trkpt lat="43.54021" lon="5.53576">
        <ele>307</ele>
        <time>2018-02-20T11:45:15.000Z</time>
      </trkpt>
      <trkpt lat="43.5402" lon="5.53576">
        <ele>307</ele>
        <time>2018-02-20T11:45:16.000Z</time>
      </trkpt>
      <trkpt lat="43.5402" lon="5.53576">
        <ele>307</ele>
        <time>2018-02-20T11:45:17.000Z</time>
      </trkpt>
      <trkpt lat="43.5402" lon="5.53576">
        <ele>308</ele>
        <time>2018-02-20T11:45:18.000Z</time>
      </trkpt>
      <trkpt lat="43.5402" lon="5.53576">
        <ele>308</ele>
        <time>2018-02-20T11:45:19.000Z</time>
      </trkpt>
      <trkpt lat="43.54019" lon="5.53576">
        <ele>308</ele>
        <time>2018-02-20T11:45:20.000Z</time>
      </trkpt>
      <trkpt lat="43.54019" lon="5.53576">
        <ele>308</ele>
        <time>2018-02-20T11:45:21.000Z</time>
      </trkpt>
      <trkpt lat="43.54019" lon="5.53576">
        <ele>308</ele>
        <time>2018-02-20T11:45:22.000Z</time>
      </trkpt>
      <trkpt lat="43.54019" lon="5.53576">
        <ele>308</ele>
        <time>2018-02-20T11:45:23.000Z</time>
      </trkpt>
      <trkpt lat="43.54019" lon="5.53576">
        <ele>308</ele>
        <time>2018-02-20T11:45:24.000Z</time>
      </trkpt>
      <trkpt lat="43.54019" lon="5.53576">
        <ele>308</ele>
        <time>2018-02-20T11:45:25.000Z</time>
      </trkpt>
      <trkpt lat="43.54019" lon="5.53576">
        <ele>308</ele>
        <time>2018-02-20T11:45:26.000Z</time>
      </trkpt>
      <trkpt lat="43.54019" lon="5.53576">
        <ele>309</ele>
        <time>2018-02-20T11:45:27.000Z</time>
      </trkpt>
      <trkpt lat="43.54019" lon="5.53576">
        <ele>309</ele>
        <time>2018-02-20T11:45:28.000Z</time>
      </trkpt>
      <trkpt lat="43.54018" lon="5.53576">
        <ele>309</ele>
        <time>2018-02-20T11:45:29.000Z</time>
      </trkpt>
      <trkpt lat="43.54018" lon="5.53576">
        <ele>309</ele>
        <time>2018-02-20T11:45:30.000Z</time>
      </trkpt>
      <trkpt lat="43.54018" lon="5.53576">
        <ele>309</ele>
        <time>2018-02-20T11:45:31.000Z</time>
      </trkpt>
      <trkpt lat="43.54018" lon="5.53576">
        <ele>309</ele>
        <time>2018-02-20T11:45:32.000Z</time>
      </trkpt>
      <trkpt lat="43.54018" lon="5.53576">
        <ele>309</ele>
        <time>2018-02-20T11:45:33.000Z</time>
      </trkpt>
      <trkpt lat="43.54018" lon="5.53576">
        <ele>309</ele>
        <time>2018-02-20T11:45:34.000Z</time>
      </trkpt>
      <trkpt lat="43.54018" lon="5.53576">
        <ele>309</ele>
        <time>2018-02-20T11:45:35.000Z</time>
      </trkpt>
      <trkpt lat="43.54018" lon="5.53576">
        <ele>309</ele>
        <time>2018-02-20T11:45:36.000Z</time>
      </trkpt>
      <trkpt lat="43.54018" lon="5.53576">
        <ele>309</ele>
        <time>2018-02-20T11:45:37.000Z</time>
      </trkpt>
      <trkpt lat="43.54018" lon="5.53577">
        <ele>309</ele>
        <time>2018-02-20T11:45:38.000Z</time>
      </trkpt>
      <trkpt lat="43.54018" lon="5.53577">
        <ele>309</ele>
        <time>2018-02-20T11:45:39.000Z</time>
      </trkpt>
      <trkpt lat="43.54018" lon="5.53577">
        <ele>309</ele>
        <time>2018-02-20T11:45:40.000Z</time>
      </trkpt>
      <trkpt lat="43.54018" lon="5.53577">
        <ele>309</ele>
        <time>2018-02-20T11:45:41.000Z</time>
      </trkpt>
      <trkpt lat="43.54017" lon="5.53577">
        <ele>309</ele>
        <time>2018-02-20T11:45:42.000Z</time>
      </trkpt>
      <trkpt lat="43.54017" lon="5.53577">
        <ele>310</ele>
        <time>2018-02-20T11:45:43.000Z</time>
      </trkpt>
      <trkpt lat="43.54017" lon="5.53577">
        <ele>310</ele>
        <time>2018-02-20T11:45:44.000Z</time>
      </trkpt>
      <trkpt lat="43.54017" lon="5.53577">
        <ele>310</ele>
        <time>2018-02-20T11:45:45.000Z</time>
      </trkpt>
      <trkpt lat="43.54017" lon="5.53577">
        <ele>310</ele>
        <time>2018-02-20T11:45:46.000Z</time>
      </trkpt>
      <trkpt lat="43.54017" lon="5.53577">
        <ele>310</ele>
        <time>2018-02-20T11:45:47.000Z</time>
      </trkpt>
      <trkpt lat="43.54017" lon="5.53577">
        <ele>310</ele>
        <time>2018-02-20T11:45:48.000Z</time>
      </trkpt>
      <trkpt lat="43.54016" lon="5.53577">
        <ele>310</ele>
        <time>2018-02-20T11:45:49.000Z</time>
      </trkpt>
      <trkpt lat="43.54016" lon="5.53579">
        <ele>311</ele>
        <time>2018-02-20T11:45:50.000Z</time>
      </trkpt>
      <trkpt lat="43.54015" lon="5.5358">
        <ele>311</ele>
        <time>2018-02-20T11:45:51.000Z</time>
      </trkpt>
      <trkpt lat="43.54015" lon="5.53581">
        <ele>311</ele>
        <time>2018-02-20T11:45:52.000Z</time>
      </trkpt>
      <trkpt lat="43.54015" lon="5.53582">
        <ele>311</ele>
        <time>2018-02-20T11:45:53.000Z</time>
      </trkpt>
      <trkpt lat="43.54015" lon="5.53582">
        <ele>311</ele>
        <time>2018-02-20T11:45:54.000Z</time>
      </trkpt>
      <trkpt lat="43.54015" lon="5.53582">
        <ele>311</ele>
        <time>2018-02-20T11:45:55.000Z</time>
      </trkpt>
      <trkpt lat="43.54015" lon="5.53582">
        <ele>311</ele>
        <time>2018-02-20T11:45:56.000Z</time>
      </trkpt>
      <trkpt lat="43.54014" lon="5.53583">
        <ele>311</ele>
        <time>2018-02-20T11:45:57.000Z</time>
      </trkpt>
      <trkpt lat="43.54014" lon="5.53583">
        <ele>311</ele>
        <time>2018-02-20T11:45:58.000Z</time>
      </trkpt>
      <trkpt lat="43.54014" lon="5.53584">
        <ele>311</ele>
        <time>2018-02-20T11:45:59.000Z</time>
      </trkpt>
      <trkpt lat="43.54014" lon="5.53584">
        <ele>311</ele>
        <time>2018-02-20T11:46:00.000Z</time>
      </trkpt>
      <trkpt lat="43.54013" lon="5.53585">
        <ele>311</ele>
        <time>2018-02-20T11:46:01.000Z</time>
      </trkpt>
      <trkpt lat="43.54013" lon="5.53586">
        <ele>311</ele>
        <time>2018-02-20T11:46:02.000Z</time>
      </trkpt>
      <trkpt lat="43.54013" lon="5.53587">
        <ele>311</ele>
        <time>2018-02-20T11:46:03.000Z</time>
      </trkpt>
      <trkpt lat="43.54013" lon="5.53588">
        <ele>311</ele>
        <time>2018-02-20T11:46:04.000Z</time>
      </trkpt>
      <trkpt lat="43.54013" lon="5.53589">
        <ele>311</ele>
        <time>2018-02-20T11:46:05.000Z</time>
      </trkpt>
      <trkpt lat="43.54013" lon="5.5359">
        <ele>311</ele>
        <time>2018-02-20T11:46:06.000Z</time>
      </trkpt>
      <trkpt lat="43.54013" lon="5.5359">
        <ele>311</ele>
        <time>2018-02-20T11:46:07.000Z</time>
      </trkpt>
      <trkpt lat="43.54013" lon="5.5359">
        <ele>311</ele>
        <time>2018-02-20T11:46:08.000Z</time>
      </trkpt>
      <trkpt lat="43.54013" lon="5.5359">
        <ele>311</ele>
        <time>2018-02-20T11:46:09.000Z</time>
      </trkpt>
      <trkpt lat="43.54013" lon="5.53591">
        <ele>311</ele>
        <time>2018-02-20T11:46:10.000Z</time>
      </trkpt>
      <trkpt lat="43.54013" lon="5.53591">
        <ele>311</ele>
        <time>2018-02-20T11:46:11.000Z</time>
      </trkpt>
      <trkpt lat="43.54013" lon="5.53592">
        <ele>311</ele>
        <time>2018-02-20T11:46:12.000Z</time>
      </trkpt>
      <trkpt lat="43.54013" lon="5.53592">
        <ele>311</ele>
        <time>2018-02-20T11:46:13.000Z</time>
      </trkpt>
      <trkpt lat="43.54014" lon="5.53592">
        <ele>311</ele>
        <time>2018-02-20T11:46:14.000Z</time>
      </trkpt>
      <trkpt lat="43.54014" lon="5.53592">
        <ele>311</ele>
        <time>2018-02-20T11:46:15.000Z</time>
      </trkpt>
      <trkpt lat="43.54014" lon="5.53592">
        <ele>311</ele>
        <time>2018-02-20T11:46:16.000Z</time>
      </trkpt>
      <trkpt lat="43.54015" lon="5.53593">
        <ele>311</ele>
        <time>2018-02-20T11:46:17.000Z</time>
      </trkpt>
      <trkpt lat="43.54015" lon="5.53593">
        <ele>311</ele>
        <time>2018-02-20T11:46:18.000Z</time>
      </trkpt>
      <trkpt lat="43.54016" lon="5.53594">
        <ele>311</ele>
        <time>2018-02-20T11:46:19.000Z</time>
      </trkpt>
      <trkpt lat="43.54017" lon="5.53594">
        <ele>311</ele>
        <time>2018-02-20T11:46:20.000Z</time>
      </trkpt>
      <trkpt lat="43.54017" lon="5.53594">
        <ele>311</ele>
        <time>2018-02-20T11:46:21.000Z</time>
      </trkpt>
      <trkpt lat="43.54018" lon="5.53595">
        <ele>311</ele>
        <time>2018-02-20T11:46:22.000Z</time>
      </trkpt>
      <trkpt lat="43.54018" lon="5.53596">
        <ele>311</ele>
        <time>2018-02-20T11:46:23.000Z</time>
      </trkpt>
      <trkpt lat="43.54018" lon="5.53597">
        <ele>311</ele>
        <time>2018-02-20T11:46:24.000Z</time>
      </trkpt>
      <trkpt lat="43.54018" lon="5.53598">
        <ele>311</ele>
        <time>2018-02-20T11:46:25.000Z</time>
      </trkpt>
      <trkpt lat="43.54019" lon="5.53599">
        <ele>311</ele>
        <time>2018-02-20T11:46:26.000Z</time>
      </trkpt>
      <trkpt lat="43.54019" lon="5.53601">
        <ele>311</ele>
        <time>2018-02-20T11:46:27.000Z</time>
      </trkpt>
      <trkpt lat="43.54019" lon="5.53602">
        <ele>311</ele>
        <time>2018-02-20T11:46:28.000Z</time>
      </trkpt>
      <trkpt lat="43.5402" lon="5.53603">
        <ele>311</ele>
        <time>2018-02-20T11:46:29.000Z</time>
      </trkpt>
      <trkpt lat="43.5402" lon="5.53604">
        <ele>312</ele>
        <time>2018-02-20T11:46:30.000Z</time>
      </trkpt>
      <trkpt lat="43.54021" lon="5.53605">
        <ele>312</ele>
        <time>2018-02-20T11:46:31.000Z</time>
      </trkpt>
      <trkpt lat="43.54021" lon="5.53605">
        <ele>312</ele>
        <time>2018-02-20T11:46:32.000Z</time>
      </trkpt>
      <trkpt lat="43.54021" lon="5.53605">
        <ele>312</ele>
        <time>2018-02-20T11:46:33.000Z</time>
      </trkpt>
      <trkpt lat="43.54022" lon="5.53605">
        <ele>312</ele>
        <time>2018-02-20T11:46:34.000Z</time>
      </trkpt>
      <trkpt lat="43.54022" lon="5.53605">
        <ele>312</ele>
        <time>2018-02-20T11:46:35.000Z</time>
      </trkpt>
      <trkpt lat="43.54022" lon="5.53605">
        <ele>313</ele>
        <time>2018-02-20T11:46:36.000Z</time>
      </trkpt>
      <trkpt lat="43.54022" lon="5.53605">
        <ele>313</ele>
        <time>2018-02-20T11:46:37.000Z</time>
      </trkpt>
      <trkpt lat="43.54022" lon="5.53605">
        <ele>314</ele>
        <time>2018-02-20T11:46:38.000Z</time>
      </trkpt>
      <trkpt lat="43.54022" lon="5.53605">
        <ele>314</ele>
        <time>2018-02-20T11:46:39.000Z</time>
      </trkpt>
      <trkpt lat="43.54022" lon="5.53605">
        <ele>315</ele>
        <time>2018-02-20T11:46:40.000Z</time>
      </trkpt>
      <trkpt lat="43.54022" lon="5.53605">
        <ele>315</ele>
        <time>2018-02-20T11:46:41.000Z</time>
      </trkpt>
      <trkpt lat="43.54021" lon="5.53605">
        <ele>316</ele>
        <time>2018-02-20T11:46:42.000Z</time>
      </trkpt>
      <trkpt lat="43.54021" lon="5.53605">
        <ele>316</ele>
        <time>2018-02-20T11:46:43.000Z</time>
      </trkpt>
      <trkpt lat="43.54021" lon="5.53605">
        <ele>317</ele>
        <time>2018-02-20T11:46:44.000Z</time>
      </trkpt>
      <trkpt lat="43.54021" lon="5.53604">
        <ele>317</ele>
        <time>2018-02-20T11:46:45.000Z</time>
      </trkpt>
      <trkpt lat="43.54021" lon="5.53604">
        <ele>317</ele>
        <time>2018-02-20T11:46:46.000Z</time>
      </trkpt>
      <trkpt lat="43.54021" lon="5.53604">
        <ele>318</ele>
        <time>2018-02-20T11:46:47.000Z</time>
      </trkpt>
      <trkpt lat="43.54021" lon="5.53604">
        <ele>318</ele>
        <time>2018-02-20T11:46:48.000Z</time>
      </trkpt>
      <trkpt lat="43.54021" lon="5.53604">
        <ele>318</ele>
        <time>2018-02-20T11:46:49.000Z</time>
      </trkpt>
      <trkpt lat="43.5402" lon="5.53604">
        <ele>319</ele>
        <time>2018-02-20T11:46:50.000Z</time>
      </trkpt>
      <trkpt lat="43.5402" lon="5.53604">
        <ele>319</ele>
        <time>2018-02-20T11:46:51.000Z</time>
      </trkpt>
      <trkpt lat="43.5402" lon="5.53604">
        <ele>320</ele>
        <time>2018-02-20T11:46:52.000Z</time>
      </trkpt>
      <trkpt lat="43.54021" lon="5.53604">
        <ele>320</ele>
        <time>2018-02-20T11:46:53.000Z</time>
      </trkpt>
      <trkpt lat="43.54021" lon="5.53604">
        <ele>320</ele>
        <time>2018-02-20T11:46:54.000Z</time>
      </trkpt>
      <trkpt lat="43.54021" lon="5.53604">
        <ele>321</ele>
        <time>2018-02-20T11:46:55.000Z</time>
      </trkpt>
      <trkpt lat="43.54021" lon="5.53604">
        <ele>321</ele>
        <time>2018-02-20T11:46:56.000Z</time>
      </trkpt>
      <trkpt lat="43.54021" lon="5.53604">
        <ele>321</ele>
        <time>2018-02-20T11:46:57.000Z</time>
      </trkpt>
      <trkpt lat="43.54021" lon="5.53604">
        <ele>322</ele>
        <time>2018-02-20T11:46:58.000Z</time>
      </trkpt>
      <trkpt lat="43.5402" lon="5.53604">
        <ele>322</ele>
        <time>2018-02-20T11:46:59.000Z</time>
      </trkpt>
      <trkpt lat="43.5402" lon="5.53604">
        <ele>323</ele>
        <time>2018-02-20T11:47:00.000Z</time>
      </trkpt>
      <trkpt lat="43.5402" lon="5.53604">
        <ele>323</ele>
        <time>2018-02-20T11:47:01.000Z</time>
      </trkpt>
      <trkpt lat="43.5402" lon="5.53605">
        <ele>324</ele>
        <time>2018-02-20T11:47:02.000Z</time>
      </trkpt>
      <trkpt lat="43.5402" lon="5.53605">
        <ele>324</ele>
        <time>2018-02-20T11:47:03.000Z</time>
      </trkpt>
      <trkpt lat="43.54019" lon="5.53605">
        <ele>325</ele>
        <time>2018-02-20T11:47:04.000Z</time>
      </trkpt>
      <trkpt lat="43.54019" lon="5.53605">
        <ele>325</ele>
        <time>2018-02-20T11:47:05.000Z</time>
      </trkpt>
      <trkpt lat="43.54019" lon="5.53605">
        <ele>326</ele>
        <time>2018-02-20T11:47:06.000Z</time>
      </trkpt>
      <trkpt lat="43.54019" lon="5.53606">
        <ele>326</ele>
        <time>2018-02-20T11:47:07.000Z</time>
      </trkpt>
      <trkpt lat="43.54019" lon="5.53606">
        <ele>327</ele>
        <time>2018-02-20T11:47:08.000Z</time>
      </trkpt>
      <trkpt lat="43.54019" lon="5.53606">
        <ele>328</ele>
        <time>2018-02-20T11:47:09.000Z</time>
      </trkpt>
      <trkpt lat="43.54019" lon="5.53607">
        <ele>329</ele>
        <time>2018-02-20T11:47:10.000Z</time>
      </trkpt>
      <trkpt lat="43.54019" lon="5.53607">
        <ele>329</ele>
        <time>2018-02-20T11:47:11.000Z</time>
      </trkpt>
      <trkpt lat="43.54018" lon="5.53608">
        <ele>330</ele>
        <time>2018-02-20T11:47:12.000Z</time>
      </trkpt>
      <trkpt lat="43.54018" lon="5.53608">
        <ele>331</ele>
        <time>2018-02-20T11:47:13.000Z</time>
      </trkpt>
      <trkpt lat="43.54018" lon="5.53609">
        <ele>331</ele>
        <time>2018-02-20T11:47:14.000Z</time>
      </trkpt>
      <trkpt lat="43.54017" lon="5.53609">
        <ele>332</ele>
        <time>2018-02-20T11:47:15.000Z</time>
      </trkpt>
      <trkpt lat="43.54016" lon="5.5361">
        <ele>332</ele>
        <time>2018-02-20T11:47:16.000Z</time>
      </trkpt>
      <trkpt lat="43.54015" lon="5.53611">
        <ele>333</ele>
        <time>2018-02-20T11:47:17.000Z</time>
      </trkpt>
      <trkpt lat="43.54015" lon="5.53612">
        <ele>334</ele>
        <time>2018-02-20T11:47:18.000Z</time>
      </trkpt>
      <trkpt lat="43.54014" lon="5.53613">
        <ele>334</ele>
        <time>2018-02-20T11:47:19.000Z</time>
      </trkpt>
      <trkpt lat="43.54013" lon="5.53613">
        <ele>335</ele>
        <time>2018-02-20T11:47:20.000Z</time>
      </trkpt>
      <trkpt lat="43.54012" lon="5.53614">
        <ele>335</ele>
        <time>2018-02-20T11:47:21.000Z</time>
      </trkpt>
      <trkpt lat="43.54012" lon="5.53615">
        <ele>335</ele>
        <time>2018-02-20T11:47:22.000Z</time>
      </trkpt>
      <trkpt lat="43.54011" lon="5.53616">
        <ele>336</ele>
        <time>2018-02-20T11:47:23.000Z</time>
      </trkpt>
      <trkpt lat="43.5401" lon="5.53616">
        <ele>336</ele>
        <time>2018-02-20T11:47:24.000Z</time>
      </trkpt>
      <trkpt lat="43.5401" lon="5.53617">
        <ele>337</ele>
        <time>2018-02-20T11:47:25.000Z</time>
      </trkpt>
      <trkpt lat="43.54009" lon="5.53617">
        <ele>337</ele>
        <time>2018-02-20T11:47:26.000Z</time>
      </trkpt>
      <trkpt lat="43.54009" lon="5.53617">
        <ele>337</ele>
        <time>2018-02-20T11:47:27.000Z</time>
      </trkpt>
      <trkpt lat="43.54009" lon="5.53618">
        <ele>337</ele>
        <time>2018-02-20T11:47:28.000Z</time>
      </trkpt>
      <trkpt lat="43.54009" lon="5.53618">
        <ele>338</ele>
        <time>2018-02-20T11:47:29.000Z</time>
      </trkpt>
      <trkpt lat="43.54008" lon="5.53619">
        <ele>338</ele>
        <time>2018-02-20T11:47:30.000Z</time>
      </trkpt>
      <trkpt lat="43.54008" lon="5.53619">
        <ele>338</ele>
        <time>2018-02-20T11:47:31.000Z</time>
      </trkpt>
      <trkpt lat="43.54008" lon="5.5362">
        <ele>339</ele>
        <time>2018-02-20T11:47:32.000Z</time>
      </trkpt>
      <trkpt lat="43.54008" lon="5.5362">
        <ele>339</ele>
        <time>2018-02-20T11:47:33.000Z</time>
      </trkpt>
      <trkpt lat="43.54008" lon="5.53621">
        <ele>339</ele>
        <time>2018-02-20T11:47:34.000Z</time>
      </trkpt>
      <trkpt lat="43.54008" lon="5.53621">
        <ele>339</ele>
        <time>2018-02-20T11:47:35.000Z</time>
      </trkpt>
      <trkpt lat="43.54008" lon="5.53621">
        <ele>339</ele>
        <time>2018-02-20T11:47:36.000Z</time>
      </trkpt>
      <trkpt lat="43.54008" lon="5.53622">
        <ele>339</ele>
        <time>2018-02-20T11:47:37.000Z</time>
      </trkpt>
      <trkpt lat="43.54008" lon="5.53621">
        <ele>339</ele>
        <time>2018-02-20T11:47:38.000Z</time>
      </trkpt>
      <trkpt lat="43.54009" lon="5.53621">
        <ele>339</ele>
        <time>2018-02-20T11:47:39.000Z</time>
      </trkpt>
      <trkpt lat="43.54009" lon="5.53621">
        <ele>339</ele>
        <time>2018-02-20T11:47:40.000Z</time>
      </trkpt>
      <trkpt lat="43.54009" lon="5.53621">
        <ele>339</ele>
        <time>2018-02-20T11:47:41.000Z</time>
      </trkpt>
      <trkpt lat="43.54009" lon="5.5362">
        <ele>339</ele>
        <time>2018-02-20T11:47:42.000Z</time>
      </trkpt>
      <trkpt lat="43.54009" lon="5.5362">
        <ele>339</ele>
        <time>2018-02-20T11:47:43.000Z</time>
      </trkpt>
      <trkpt lat="43.54009" lon="5.5362">
        <ele>339</ele>
        <time>2018-02-20T11:47:44.000Z</time>
      </trkpt>
      <trkpt lat="43.54009" lon="5.53621">
        <ele>339</ele>
        <time>2018-02-20T11:47:45.000Z</time>
      </trkpt>
      <trkpt lat="43.54009" lon="5.53621">
        <ele>339</ele>
        <time>2018-02-20T11:47:46.000Z</time>
      </trkpt>
      <trkpt lat="43.54008" lon="5.53622">
        <ele>339</ele>
        <time>2018-02-20T11:47:47.000Z</time>
      </trkpt>
      <trkpt lat="43.54008" lon="5.53622">
        <ele>339</ele>
        <time>2018-02-20T11:47:48.000Z</time>
      </trkpt>
      <trkpt lat="43.54008" lon="5.53622">
        <ele>339</ele>
        <time>2018-02-20T11:47:49.000Z</time>
      </trkpt>
      <trkpt lat="43.54008" lon="5.53622">
        <ele>339</ele>
        <time>2018-02-20T11:47:50.000Z</time>
      </trkpt>
      <trkpt lat="43.54008" lon="5.53622">
        <ele>339</ele>
        <time>2018-02-20T11:47:51.000Z</time>
      </trkpt>
      <trkpt lat="43.54008" lon="5.53622">
        <ele>339</ele>
        <time>2018-02-20T11:47:52.000Z</time>
      </trkpt>
      <trkpt lat="43.54007" lon="5.53621">
        <ele>339</ele>
        <time>2018-02-20T11:47:53.000Z</time>
      </trkpt>
      <trkpt lat="43.54007" lon="5.53621">
        <ele>339</ele>
        <time>2018-02-20T11:47:54.000Z</time>
      </trkpt>
      <trkpt lat="43.54007" lon="5.53621">
        <ele>339</ele>
        <time>2018-02-20T11:47:55.000Z</time>
      </trkpt>
      <trkpt lat="43.54007" lon="5.53621">
        <ele>339</ele>
        <time>2018-02-20T11:47:56.000Z</time>
      </trkpt>
      <trkpt lat="43.54007" lon="5.5362">
        <ele>339</ele>
        <time>2018-02-20T11:47:57.000Z</time>
      </trkpt>
      <trkpt lat="43.54007" lon="5.5362">
        <ele>339</ele>
        <time>2018-02-20T11:47:58.000Z</time>
      </trkpt>
      <trkpt lat="43.54006" lon="5.53619">
        <ele>339</ele>
        <time>2018-02-20T11:47:59.000Z</time>
      </trkpt>
      <trkpt lat="43.54006" lon="5.53619">
        <ele>339</ele>
        <time>2018-02-20T11:48:00.000Z</time>
      </trkpt>
      <trkpt lat="43.54006" lon="5.53619">
        <ele>339</ele>
        <time>2018-02-20T11:48:01.000Z</time>
      </trkpt>
      <trkpt lat="43.54006" lon="5.53618">
        <ele>338</ele>
        <time>2018-02-20T11:48:02.000Z</time>
      </trkpt>
      <trkpt lat="43.54005" lon="5.53618">
        <ele>338</ele>
        <time>2018-02-20T11:48:03.000Z</time>
      </trkpt>
      <trkpt lat="43.54005" lon="5.53617">
        <ele>338</ele>
        <time>2018-02-20T11:48:04.000Z</time>
      </trkpt>
      <trkpt lat="43.54005" lon="5.53617">
        <ele>338</ele>
        <time>2018-02-20T11:48:05.000Z</time>
      </trkpt>
      <trkpt lat="43.54005" lon="5.53617">
        <ele>337</ele>
        <time>2018-02-20T11:48:06.000Z</time>
      </trkpt>
      <trkpt lat="43.54004" lon="5.53617">
        <ele>337</ele>
        <time>2018-02-20T11:48:07.000Z</time>
      </trkpt>
      <trkpt lat="43.54004" lon="5.53616">
        <ele>337</ele>
        <time>2018-02-20T11:48:08.000Z</time>
      </trkpt>
      <trkpt lat="43.54003" lon="5.53616">
        <ele>337</ele>
        <time>2018-02-20T11:48:09.000Z</time>
      </trkpt>
      <trkpt lat="43.54003" lon="5.53616">
        <ele>336</ele>
        <time>2018-02-20T11:48:10.000Z</time>
      </trkpt>
      <trkpt lat="43.54003" lon="5.53616">
        <ele>336</ele>
        <time>2018-02-20T11:48:11.000Z</time>
      </trkpt>
      <trkpt lat="43.54002" lon="5.53616">
        <ele>336</ele>
        <time>2018-02-20T11:48:12.000Z</time>
      </trkpt>
      <trkpt lat="43.54002" lon="5.53616">
        <ele>336</ele>
        <time>2018-02-20T11:48:13.000Z</time>
      </trkpt>
      <trkpt lat="43.54002" lon="5.53616">
        <ele>336</ele>
        <time>2018-02-20T11:48:14.000Z</time>
      </trkpt>
      <trkpt lat="43.54001" lon="5.53616">
        <ele>335</ele>
        <time>2018-02-20T11:48:15.000Z</time>
      </trkpt>
      <trkpt lat="43.54001" lon="5.53616">
        <ele>335</ele>
        <time>2018-02-20T11:48:16.000Z</time>
      </trkpt>
      <trkpt lat="43.54001" lon="5.53616">
        <ele>335</ele>
        <time>2018-02-20T11:48:17.000Z</time>
      </trkpt>
      <trkpt lat="43.54001" lon="5.53615">
        <ele>335</ele>
        <time>2018-02-20T11:48:18.000Z</time>
      </trkpt>
      <trkpt lat="43.54001" lon="5.53615">
        <ele>335</ele>
        <time>2018-02-20T11:48:19.000Z</time>
      </trkpt>
      <trkpt lat="43.54" lon="5.53615">
        <ele>335</ele>
        <time>2018-02-20T11:48:20.000Z</time>
      </trkpt>
      <trkpt lat="43.54" lon="5.53615">
        <ele>335</ele>
        <time>2018-02-20T11:48:21.000Z</time>
      </trkpt>
      <trkpt lat="43.54" lon="5.53614">
        <ele>334</ele>
        <time>2018-02-20T11:48:22.000Z</time>
      </trkpt>
      <trkpt lat="43.54" lon="5.53614">
        <ele>334</ele>
        <time>2018-02-20T11:48:23.000Z</time>
      </trkpt>
      <trkpt lat="43.54" lon="5.53614">
        <ele>334</ele>
        <time>2018-02-20T11:48:24.000Z</time>
      </trkpt>
      <trkpt lat="43.54" lon="5.53614">
        <ele>334</ele>
        <time>2018-02-20T11:48:25.000Z</time>
      </trkpt>
      <trkpt lat="43.53999" lon="5.53614">
        <ele>334</ele>
        <time>2018-02-20T11:48:26.000Z</time>
      </trkpt>
      <trkpt lat="43.53999" lon="5.53613">
        <ele>334</ele>
        <time>2018-02-20T11:48:27.000Z</time>
      </trkpt>
      <trkpt lat="43.53999" lon="5.53613">
        <ele>334</ele>
        <time>2018-02-20T11:48:28.000Z</time>
      </trkpt>
      <trkpt lat="43.53999" lon="5.53612">
        <ele>333</ele>
        <time>2018-02-20T11:48:29.000Z</time>
      </trkpt>
      <trkpt lat="43.53999" lon="5.53611">
        <ele>333</ele>
        <time>2018-02-20T11:48:30.000Z</time>
      </trkpt>
      <trkpt lat="43.53999" lon="5.53611">
        <ele>333</ele>
        <time>2018-02-20T11:48:31.000Z</time>
      </trkpt>
      <trkpt lat="43.53999" lon="5.53611">
        <ele>332</ele>
        <time>2018-02-20T11:48:32.000Z</time>
      </trkpt>
      <trkpt lat="43.53999" lon="5.5361">
        <ele>332</ele>
        <time>2018-02-20T11:48:33.000Z</time>
      </trkpt>
      <trkpt lat="43.53999" lon="5.53609">
        <ele>332</ele>
        <time>2018-02-20T11:48:34.000Z</time>
      </trkpt>
      <trkpt lat="43.53999" lon="5.53609">
        <ele>331</ele>
        <time>2018-02-20T11:48:35.000Z</time>
      </trkpt>
      <trkpt lat="43.53999" lon="5.53608">
        <ele>331</ele>
        <time>2018-02-20T11:48:36.000Z</time>
      </trkpt>
      <trkpt lat="43.53999" lon="5.53608">
        <ele>331</ele>
        <time>2018-02-20T11:48:37.000Z</time>
      </trkpt>
      <trkpt lat="43.53999" lon="5.53608">
        <ele>330</ele>
        <time>2018-02-20T11:48:38.000Z</time>
      </trkpt>
      <trkpt lat="43.53999" lon="5.53607">
        <ele>330</ele>
        <time>2018-02-20T11:48:39.000Z</time>
      </trkpt>
      <trkpt lat="43.53999" lon="5.53607">
        <ele>330</ele>
        <time>2018-02-20T11:48:40.000Z</time>
      </trkpt>
      <trkpt lat="43.53999" lon="5.53606">
        <ele>330</ele>
        <time>2018-02-20T11:48:41.000Z</time>
      </trkpt>
      <trkpt lat="43.53999" lon="5.53606">
        <ele>329</ele>
        <time>2018-02-20T11:48:42.000Z</time>
      </trkpt>
      <trkpt lat="43.53999" lon="5.53605">
        <ele>329</ele>
        <time>2018-02-20T11:48:43.000Z</time>
      </trkpt>
      <trkpt lat="43.53999" lon="5.53605">
        <ele>329</ele>
        <time>2018-02-20T11:48:44.000Z</time>
      </trkpt>
      <trkpt lat="43.53999" lon="5.53606">
        <ele>329</ele>
        <time>2018-02-20T11:48:45.000Z</time>
      </trkpt>
      <trkpt lat="43.53999" lon="5.53606">
        <ele>329</ele>
        <time>2018-02-20T11:48:46.000Z</time>
      </trkpt>
      <trkpt lat="43.53999" lon="5.53606">
        <ele>328</ele>
        <time>2018-02-20T11:48:47.000Z</time>
      </trkpt>
      <trkpt lat="43.53999" lon="5.53606">
        <ele>328</ele>
        <time>2018-02-20T11:48:48.000Z</time>
      </trkpt>
      <trkpt lat="43.53999" lon="5.53606">
        <ele>328</ele>
        <time>2018-02-20T11:48:49.000Z</time>
      </trkpt>
      <trkpt lat="43.53998" lon="5.53606">
        <ele>328</ele>
        <time>2018-02-20T11:48:50.000Z</time>
      </trkpt>
      <trkpt lat="43.53998" lon="5.53606">
        <ele>327</ele>
        <time>2018-02-20T11:48:51.000Z</time>
      </trkpt>
      <trkpt lat="43.53998" lon="5.53606">
        <ele>327</ele>
        <time>2018-02-20T11:48:52.000Z</time>
      </trkpt>
      <trkpt lat="43.53998" lon="5.53606">
        <ele>327</ele>
        <time>2018-02-20T11:48:53.000Z</time>
      </trkpt>
      <trkpt lat="43.53998" lon="5.53606">
        <ele>327</ele>
        <time>2018-02-20T11:48:54.000Z</time>
      </trkpt>
      <trkpt lat="43.53998" lon="5.53606">
        <ele>327</ele>
        <time>2018-02-20T11:48:55.000Z</time>
      </trkpt>
      <trkpt lat="43.53998" lon="5.53606">
        <ele>327</ele>
        <time>2018-02-20T11:48:56.000Z</time>
      </trkpt>
      <trkpt lat="43.53998" lon="5.53606">
        <ele>326</ele>
        <time>2018-02-20T11:48:57.000Z</time>
      </trkpt>
      <trkpt lat="43.53998" lon="5.53606">
        <ele>326</ele>
        <time>2018-02-20T11:48:58.000Z</time>
      </trkpt>
      <trkpt lat="43.53998" lon="5.53606">
        <ele>326</ele>
        <time>2018-02-20T11:48:59.000Z</time>
      </trkpt>
      <trkpt lat="43.53998" lon="5.53606">
        <ele>326</ele>
        <time>2018-02-20T11:49:00.000Z</time>
      </trkpt>
      <trkpt lat="43.53998" lon="5.53607">
        <ele>326</ele>
        <time>2018-02-20T11:49:01.000Z</time>
      </trkpt>
      <trkpt lat="43.53998" lon="5.53607">
        <ele>326</ele>
        <time>2018-02-20T11:49:02.000Z</time>
      </trkpt>
      <trkpt lat="43.53998" lon="5.53607">
        <ele>325</ele>
        <time>2018-02-20T11:49:03.000Z</time>
      </trkpt>
      <trkpt lat="43.53997" lon="5.53607">
        <ele>325</ele>
        <time>2018-02-20T11:49:04.000Z</time>
      </trkpt>
      <trkpt lat="43.53997" lon="5.53607">
        <ele>325</ele>
        <time>2018-02-20T11:49:05.000Z</time>
      </trkpt>
      <trkpt lat="43.53998" lon="5.53606">
        <ele>325</ele>
        <time>2018-02-20T11:49:06.000Z</time>
      </trkpt>
      <trkpt lat="43.53998" lon="5.53607">
        <ele>325</ele>
        <time>2018-02-20T11:49:07.000Z</time>
      </trkpt>
      <trkpt lat="43.53997" lon="5.53607">
        <ele>324</ele>
        <time>2018-02-20T11:49:08.000Z</time>
      </trkpt>
      <trkpt lat="43.53998" lon="5.53607">
        <ele>324</ele>
        <time>2018-02-20T11:49:09.000Z</time>
      </trkpt>
      <trkpt lat="43.53998" lon="5.53607">
        <ele>324</ele>
        <time>2018-02-20T11:49:10.000Z</time>
      </trkpt>
      <trkpt lat="43.53998" lon="5.53607">
        <ele>324</ele>
        <time>2018-02-20T11:49:11.000Z</time>
      </trkpt>
      <trkpt lat="43.53998" lon="5.53607">
        <ele>324</ele>
        <time>2018-02-20T11:49:12.000Z</time>
      </trkpt>
      <trkpt lat="43.53998" lon="5.53607">
        <ele>323</ele>
        <time>2018-02-20T11:49:13.000Z</time>
      </trkpt>
      <trkpt lat="43.53998" lon="5.53607">
        <ele>323</ele>
        <time>2018-02-20T11:49:14.000Z</time>
      </trkpt>
      <trkpt lat="43.53998" lon="5.53607">
        <ele>323</ele>
        <time>2018-02-20T11:49:15.000Z</time>
      </trkpt>
      <trkpt lat="43.53998" lon="5.53606">
        <ele>323</ele>
        <time>2018-02-20T11:49:16.000Z</time>
      </trkpt>
      <trkpt lat="43.53998" lon="5.53605">
        <ele>322</ele>
        <time>2018-02-20T11:49:17.000Z</time>
      </trkpt>
      <trkpt lat="43.53998" lon="5.53603">
        <ele>322</ele>
        <time>2018-02-20T11:49:18.000Z</time>
      </trkpt>
      <trkpt lat="43.53998" lon="5.53602">
        <ele>322</ele>
        <time>2018-02-20T11:49:19.000Z</time>
      </trkpt>
      <trkpt lat="43.53998" lon="5.53602">
        <ele>322</ele>
        <time>2018-02-20T11:49:20.000Z</time>
      </trkpt>
      <trkpt lat="43.53998" lon="5.53602">
        <ele>322</ele>
        <time>2018-02-20T11:49:21.000Z</time>
      </trkpt>
      <trkpt lat="43.53998" lon="5.53603">
        <ele>321</ele>
        <time>2018-02-20T11:49:22.000Z</time>
      </trkpt>
      <trkpt lat="43.53998" lon="5.53603">
        <ele>321</ele>
        <time>2018-02-20T11:49:23.000Z</time>
      </trkpt>
      <trkpt lat="43.53998" lon="5.53603">
        <ele>321</ele>
        <time>2018-02-20T11:49:24.000Z</time>
      </trkpt>
      <trkpt lat="43.53998" lon="5.53603">
        <ele>321</ele>
        <time>2018-02-20T11:49:25.000Z</time>
      </trkpt>
      <trkpt lat="43.53998" lon="5.53603">
        <ele>320</ele>
        <time>2018-02-20T11:49:26.000Z</time>
      </trkpt>
      <trkpt lat="43.53998" lon="5.53603">
        <ele>320</ele>
        <time>2018-02-20T11:49:27.000Z</time>
      </trkpt>
      <trkpt lat="43.53998" lon="5.53604">
        <ele>320</ele>
        <time>2018-02-20T11:49:28.000Z</time>
      </trkpt>
      <trkpt lat="43.53999" lon="5.53604">
        <ele>320</ele>
        <time>2018-02-20T11:49:29.000Z</time>
      </trkpt>
      <trkpt lat="43.53999" lon="5.53604">
        <ele>319</ele>
        <time>2018-02-20T11:49:30.000Z</time>
      </trkpt>
      <trkpt lat="43.53999" lon="5.53603">
        <ele>319</ele>
        <time>2018-02-20T11:49:31.000Z</time>
      </trkpt>
      <trkpt lat="43.53999" lon="5.53603">
        <ele>319</ele>
        <time>2018-02-20T11:49:32.000Z</time>
      </trkpt>
      <trkpt lat="43.53999" lon="5.53602">
        <ele>319</ele>
        <time>2018-02-20T11:49:33.000Z</time>
      </trkpt>
      <trkpt lat="43.53999" lon="5.53601">
        <ele>318</ele>
        <time>2018-02-20T11:49:34.000Z</time>
      </trkpt>
      <trkpt lat="43.53999" lon="5.536">
        <ele>318</ele>
        <time>2018-02-20T11:49:35.000Z</time>
      </trkpt>
      <trkpt lat="43.53999" lon="5.53599">
        <ele>318</ele>
        <time>2018-02-20T11:49:36.000Z</time>
      </trkpt>
      <trkpt lat="43.53999" lon="5.53598">
        <ele>317</ele>
        <time>2018-02-20T11:49:37.000Z</time>
      </trkpt>
      <trkpt lat="43.53999" lon="5.53597">
        <ele>317</ele>
        <time>2018-02-20T11:49:38.000Z</time>
      </trkpt>
      <trkpt lat="43.53999" lon="5.53596">
        <ele>317</ele>
        <time>2018-02-20T11:49:39.000Z</time>
      </trkpt>
      <trkpt lat="43.53999" lon="5.53596">
        <ele>317</ele>
        <time>2018-02-20T11:49:40.000Z</time>
      </trkpt>
      <trkpt lat="43.53999" lon="5.53595">
        <ele>317</ele>
        <time>2018-02-20T11:49:41.000Z</time>
      </trkpt>
      <trkpt lat="43.53999" lon="5.53595">
        <ele>317</ele>
        <time>2018-02-20T11:49:42.000Z</time>
      </trkpt>
      <trkpt lat="43.53999" lon="5.53594">
        <ele>316</ele>
        <time>2018-02-20T11:49:43.000Z</time>
      </trkpt>
      <trkpt lat="43.53999" lon="5.53593">
        <ele>316</ele>
        <time>2018-02-20T11:49:44.000Z</time>
      </trkpt>
      <trkpt lat="43.53998" lon="5.53593">
        <ele>316</ele>
        <time>2018-02-20T11:49:45.000Z</time>
      </trkpt>
      <trkpt lat="43.53998" lon="5.53593">
        <ele>316</ele>
        <time>2018-02-20T11:49:46.000Z</time>
      </trkpt>
      <trkpt lat="43.53998" lon="5.53593">
        <ele>316</ele>
        <time>2018-02-20T11:49:47.000Z</time>
      </trkpt>
      <trkpt lat="43.53998" lon="5.53593">
        <ele>316</ele>
        <time>2018-02-20T11:49:48.000Z</time>
      </trkpt>
      <trkpt lat="43.53997" lon="5.53594">
        <ele>316</ele>
        <time>2018-02-20T11:49:49.000Z</time>
      </trkpt>
      <trkpt lat="43.53997" lon="5.53594">
        <ele>316</ele>
        <time>2018-02-20T11:49:50.000Z</time>
      </trkpt>
      <trkpt lat="43.53997" lon="5.53594">
        <ele>316</ele>
        <time>2018-02-20T11:49:51.000Z</time>
      </trkpt>
      <trkpt lat="43.53997" lon="5.53594">
        <ele>316</ele>
        <time>2018-02-20T11:49:52.000Z</time>
      </trkpt>
      <trkpt lat="43.53997" lon="5.53594">
        <ele>316</ele>
        <time>2018-02-20T11:49:53.000Z</time>
      </trkpt>
      <trkpt lat="43.53997" lon="5.53594">
        <ele>316</ele>
        <time>2018-02-20T11:49:54.000Z</time>
      </trkpt>
      <trkpt lat="43.53997" lon="5.53595">
        <ele>316</ele>
        <time>2018-02-20T11:49:55.000Z</time>
      </trkpt>
      <trkpt lat="43.53997" lon="5.53595">
        <ele>316</ele>
        <time>2018-02-20T11:49:56.000Z</time>
      </trkpt>
      <trkpt lat="43.53997" lon="5.53595">
        <ele>316</ele>
        <time>2018-02-20T11:49:57.000Z</time>
      </trkpt>
      <trkpt lat="43.53996" lon="5.53595">
        <ele>316</ele>
        <time>2018-02-20T11:49:58.000Z</time>
      </trkpt>
      <trkpt lat="43.53996" lon="5.53595">
        <ele>316</ele>
        <time>2018-02-20T11:49:59.000Z</time>
      </trkpt>
      <trkpt lat="43.53996" lon="5.53595">
        <ele>316</ele>
        <time>2018-02-20T11:50:00.000Z</time>
      </trkpt>
      <trkpt lat="43.53996" lon="5.53596">
        <ele>316</ele>
        <time>2018-02-20T11:50:01.000Z</time>
      </trkpt>
      <trkpt lat="43.53996" lon="5.53596">
        <ele>316</ele>
        <time>2018-02-20T11:50:02.000Z</time>
      </trkpt>
      <trkpt lat="43.53996" lon="5.53596">
        <ele>316</ele>
        <time>2018-02-20T11:50:03.000Z</time>
      </trkpt>
      <trkpt lat="43.53996" lon="5.53596">
        <ele>316</ele>
        <time>2018-02-20T11:50:04.000Z</time>
      </trkpt>
      <trkpt lat="43.53996" lon="5.53596">
        <ele>316</ele>
        <time>2018-02-20T11:50:05.000Z</time>
      </trkpt>
      <trkpt lat="43.53996" lon="5.53596">
        <ele>316</ele>
        <time>2018-02-20T11:50:06.000Z</time>
      </trkpt>
      <trkpt lat="43.53996" lon="5.53596">
        <ele>316</ele>
        <time>2018-02-20T11:50:07.000Z</time>
      </trkpt>
      <trkpt lat="43.53997" lon="5.53597">
        <ele>316</ele>
        <time>2018-02-20T11:50:08.000Z</time>
      </trkpt>
      <trkpt lat="43.53997" lon="5.53597">
        <ele>316</ele>
        <time>2018-02-20T11:50:09.000Z</time>
      </trkpt>
      <trkpt lat="43.53997" lon="5.53597">
        <ele>316</ele>
        <time>2018-02-20T11:50:10.000Z</time>
      </trkpt>
      <trkpt lat="43.53997" lon="5.53598">
        <ele>316</ele>
        <time>2018-02-20T11:50:11.000Z</time>
      </trkpt>
      <trkpt lat="43.53997" lon="5.53598">
        <ele>316</ele>
        <time>2018-02-20T11:50:12.000Z</time>
      </trkpt>
      <trkpt lat="43.53997" lon="5.53598">
        <ele>317</ele>
        <time>2018-02-20T11:50:13.000Z</time>
      </trkpt>
      <trkpt lat="43.53997" lon="5.53599">
        <ele>317</ele>
        <time>2018-02-20T11:50:14.000Z</time>
      </trkpt>
      <trkpt lat="43.53997" lon="5.53599">
        <ele>317</ele>
        <time>2018-02-20T11:50:15.000Z</time>
      </trkpt>
      <trkpt lat="43.53997" lon="5.536">
        <ele>317</ele>
        <time>2018-02-20T11:50:16.000Z</time>
      </trkpt>
      <trkpt lat="43.53998" lon="5.53601">
        <ele>317</ele>
        <time>2018-02-20T11:50:17.000Z</time>
      </trkpt>
      <trkpt lat="43.53998" lon="5.53601">
        <ele>317</ele>
        <time>2018-02-20T11:50:18.000Z</time>
      </trkpt>
      <trkpt lat="43.53998" lon="5.53601">
        <ele>317</ele>
        <time>2018-02-20T11:50:19.000Z</time>
      </trkpt>
      <trkpt lat="43.53998" lon="5.53601">
        <ele>317</ele>
        <time>2018-02-20T11:50:20.000Z</time>
      </trkpt>
      <trkpt lat="43.53998" lon="5.53601">
        <ele>317</ele>
        <time>2018-02-20T11:50:21.000Z</time>
      </trkpt>
      <trkpt lat="43.53998" lon="5.53601">
        <ele>317</ele>
        <time>2018-02-20T11:50:22.000Z</time>
      </trkpt>
      <trkpt lat="43.53998" lon="5.53602">
        <ele>317</ele>
        <time>2018-02-20T11:50:23.000Z</time>
      </trkpt>
      <trkpt lat="43.53998" lon="5.53602">
        <ele>317</ele>
        <time>2018-02-20T11:50:24.000Z</time>
      </trkpt>
      <trkpt lat="43.53998" lon="5.53603">
        <ele>318</ele>
        <time>2018-02-20T11:50:25.000Z</time>
      </trkpt>
      <trkpt lat="43.53998" lon="5.53602">
        <ele>318</ele>
        <time>2018-02-20T11:50:26.000Z</time>
      </trkpt>
      <trkpt lat="43.53997" lon="5.53602">
        <ele>318</ele>
        <time>2018-02-20T11:50:27.000Z</time>
      </trkpt>
      <trkpt lat="43.53997" lon="5.53602">
        <ele>318</ele>
        <time>2018-02-20T11:50:28.000Z</time>
      </trkpt>
      <trkpt lat="43.53997" lon="5.53602">
        <ele>318</ele>
        <time>2018-02-20T11:50:29.000Z</time>
      </trkpt>
      <trkpt lat="43.53998" lon="5.53601">
        <ele>318</ele>
        <time>2018-02-20T11:50:30.000Z</time>
      </trkpt>
      <trkpt lat="43.53998" lon="5.53601">
        <ele>318</ele>
        <time>2018-02-20T11:50:31.000Z</time>
      </trkpt>
      <trkpt lat="43.53998" lon="5.53601">
        <ele>318</ele>
        <time>2018-02-20T11:50:32.000Z</time>
      </trkpt>
      <trkpt lat="43.53998" lon="5.53601">
        <ele>319</ele>
        <time>2018-02-20T11:50:33.000Z</time>
      </trkpt>
      <trkpt lat="43.53998" lon="5.53601">
        <ele>319</ele>
        <time>2018-02-20T11:50:34.000Z</time>
      </trkpt>
      <trkpt lat="43.53998" lon="5.53601">
        <ele>319</ele>
        <time>2018-02-20T11:50:35.000Z</time>
      </trkpt>
      <trkpt lat="43.53998" lon="5.53601">
        <ele>319</ele>
        <time>2018-02-20T11:50:36.000Z</time>
      </trkpt>
      <trkpt lat="43.53998" lon="5.53601">
        <ele>320</ele>
        <time>2018-02-20T11:50:37.000Z</time>
      </trkpt>
      <trkpt lat="43.53997" lon="5.53601">
        <ele>320</ele>
        <time>2018-02-20T11:50:38.000Z</time>
      </trkpt>
      <trkpt lat="43.53997" lon="5.53601">
        <ele>320</ele>
        <time>2018-02-20T11:50:39.000Z</time>
      </trkpt>
      <trkpt lat="43.53996" lon="5.53601">
        <ele>320</ele>
        <time>2018-02-20T11:50:40.000Z</time>
      </trkpt>
      <trkpt lat="43.53995" lon="5.536">
        <ele>321</ele>
        <time>2018-02-20T11:50:41.000Z</time>
      </trkpt>
      <trkpt lat="43.53995" lon="5.536">
        <ele>321</ele>
        <time>2018-02-20T11:50:42.000Z</time>
      </trkpt>
      <trkpt lat="43.53994" lon="5.53599">
        <ele>321</ele>
        <time>2018-02-20T11:50:43.000Z</time>
      </trkpt>
      <trkpt lat="43.53993" lon="5.53599">
        <ele>321</ele>
        <time>2018-02-20T11:50:44.000Z</time>
      </trkpt>
      <trkpt lat="43.53993" lon="5.53598">
        <ele>322</ele>
        <time>2018-02-20T11:50:45.000Z</time>
      </trkpt>
      <trkpt lat="43.53992" lon="5.53598">
        <ele>322</ele>
        <time>2018-02-20T11:50:46.000Z</time>
      </trkpt>
      <trkpt lat="43.53992" lon="5.53598">
        <ele>322</ele>
        <time>2018-02-20T11:50:47.000Z</time>
      </trkpt>
      <trkpt lat="43.53992" lon="5.53597">
        <ele>322</ele>
        <time>2018-02-20T11:50:48.000Z</time>
      </trkpt>
      <trkpt lat="43.53991" lon="5.53597">
        <ele>322</ele>
        <time>2018-02-20T11:50:49.000Z</time>
      </trkpt>
      <trkpt lat="43.53991" lon="5.53597">
        <ele>322</ele>
        <time>2018-02-20T11:50:50.000Z</time>
      </trkpt>
      <trkpt lat="43.53991" lon="5.53597">
        <ele>323</ele>
        <time>2018-02-20T11:50:51.000Z</time>
      </trkpt>
      <trkpt lat="43.53992" lon="5.53596">
        <ele>323</ele>
        <time>2018-02-20T11:50:52.000Z</time>
      </trkpt>
      <trkpt lat="43.53993" lon="5.53596">
        <ele>322</ele>
        <time>2018-02-20T11:50:53.000Z</time>
      </trkpt>
      <trkpt lat="43.53994" lon="5.53596">
        <ele>322</ele>
        <time>2018-02-20T11:50:54.000Z</time>
      </trkpt>
      <trkpt lat="43.53995" lon="5.53596">
        <ele>322</ele>
        <time>2018-02-20T11:50:55.000Z</time>
      </trkpt>
      <trkpt lat="43.53996" lon="5.53596">
        <ele>322</ele>
        <time>2018-02-20T11:50:56.000Z</time>
      </trkpt>
      <trkpt lat="43.53997" lon="5.53596">
        <ele>322</ele>
        <time>2018-02-20T11:50:57.000Z</time>
      </trkpt>
      <trkpt lat="43.53997" lon="5.53596">
        <ele>322</ele>
        <time>2018-02-20T11:50:58.000Z</time>
      </trkpt>
      <trkpt lat="43.53998" lon="5.53596">
        <ele>322</ele>
        <time>2018-02-20T11:50:59.000Z</time>
      </trkpt>
      <trkpt lat="43.53999" lon="5.53596">
        <ele>322</ele>
        <time>2018-02-20T11:51:00.000Z</time>
      </trkpt>
      <trkpt lat="43.53999" lon="5.53596">
        <ele>322</ele>
        <time>2018-02-20T11:51:01.000Z</time>
      </trkpt>
      <trkpt lat="43.54" lon="5.53596">
        <ele>322</ele>
        <time>2018-02-20T11:51:02.000Z</time>
      </trkpt>
      <trkpt lat="43.54" lon="5.53596">
        <ele>322</ele>
        <time>2018-02-20T11:51:03.000Z</time>
      </trkpt>
      <trkpt lat="43.54001" lon="5.53596">
        <ele>322</ele>
        <time>2018-02-20T11:51:04.000Z</time>
      </trkpt>
      <trkpt lat="43.54001" lon="5.53596">
        <ele>322</ele>
        <time>2018-02-20T11:51:05.000Z</time>
      </trkpt>
      <trkpt lat="43.54002" lon="5.53596">
        <ele>322</ele>
        <time>2018-02-20T11:51:06.000Z</time>
      </trkpt>
      <trkpt lat="43.54002" lon="5.53596">
        <ele>322</ele>
        <time>2018-02-20T11:51:07.000Z</time>
      </trkpt>
      <trkpt lat="43.54002" lon="5.53596">
        <ele>322</ele>
        <time>2018-02-20T11:51:08.000Z</time>
      </trkpt>
      <trkpt lat="43.54003" lon="5.53596">
        <ele>321</ele>
        <time>2018-02-20T11:51:09.000Z</time>
      </trkpt>
      <trkpt lat="43.54003" lon="5.53596">
        <ele>321</ele>
        <time>2018-02-20T11:51:10.000Z</time>
      </trkpt>
      <trkpt lat="43.54003" lon="5.53596">
        <ele>321</ele>
        <time>2018-02-20T11:51:11.000Z</time>
      </trkpt>
      <trkpt lat="43.54003" lon="5.53596">
        <ele>321</ele>
        <time>2018-02-20T11:51:12.000Z</time>
      </trkpt>
      <trkpt lat="43.54004" lon="5.53596">
        <ele>321</ele>
        <time>2018-02-20T11:51:13.000Z</time>
      </trkpt>
      <trkpt lat="43.54004" lon="5.53596">
        <ele>321</ele>
        <time>2018-02-20T11:51:14.000Z</time>
      </trkpt>
      <trkpt lat="43.54004" lon="5.53596">
        <ele>321</ele>
        <time>2018-02-20T11:51:15.000Z</time>
      </trkpt>
      <trkpt lat="43.54004" lon="5.53596">
        <ele>321</ele>
        <time>2018-02-20T11:51:16.000Z</time>
      </trkpt>
      <trkpt lat="43.54004" lon="5.53596">
        <ele>321</ele>
        <time>2018-02-20T11:51:17.000Z</time>
      </trkpt>
      <trkpt lat="43.54004" lon="5.53596">
        <ele>321</ele>
        <time>2018-02-20T11:51:18.000Z</time>
      </trkpt>
      <trkpt lat="43.54004" lon="5.53596">
        <ele>321</ele>
        <time>2018-02-20T11:51:19.000Z</time>
      </trkpt>
      <trkpt lat="43.54005" lon="5.53596">
        <ele>321</ele>
        <time>2018-02-20T11:51:20.000Z</time>
      </trkpt>
      <trkpt lat="43.54005" lon="5.53596">
        <ele>321</ele>
        <time>2018-02-20T11:51:21.000Z</time>
      </trkpt>
      <trkpt lat="43.54005" lon="5.53596">
        <ele>321</ele>
        <time>2018-02-20T11:51:22.000Z</time>
      </trkpt>
      <trkpt lat="43.54005" lon="5.53596">
        <ele>321</ele>
        <time>2018-02-20T11:51:23.000Z</time>
      </trkpt>
      <trkpt lat="43.54005" lon="5.53596">
        <ele>321</ele>
        <time>2018-02-20T11:51:24.000Z</time>
      </trkpt>
      <trkpt lat="43.54005" lon="5.53596">
        <ele>321</ele>
        <time>2018-02-20T11:51:25.000Z</time>
      </trkpt>
      <trkpt lat="43.54005" lon="5.53596">
        <ele>321</ele>
        <time>2018-02-20T11:51:26.000Z</time>
      </trkpt>
      <trkpt lat="43.54005" lon="5.53596">
        <ele>321</ele>
        <time>2018-02-20T11:51:27.000Z</time>
      </trkpt>
      <trkpt lat="43.54005" lon="5.53596">
        <ele>321</ele>
        <time>2018-02-20T11:51:28.000Z</time>
      </trkpt>
      <trkpt lat="43.54005" lon="5.53596">
        <ele>321</ele>
        <time>2018-02-20T11:51:29.000Z</time>
      </trkpt>
      <trkpt lat="43.54005" lon="5.53596">
        <ele>321</ele>
        <time>2018-02-20T11:51:30.000Z</time>
      </trkpt>
      <trkpt lat="43.54005" lon="5.53596">
        <ele>321</ele>
        <time>2018-02-20T11:51:31.000Z</time>
      </trkpt>
      <trkpt lat="43.54005" lon="5.53596">
        <ele>321</ele>
        <time>2018-02-20T11:51:32.000Z</time>
      </trkpt>
      <trkpt lat="43.54005" lon="5.53596">
        <ele>321</ele>
        <time>2018-02-20T11:51:33.000Z</time>
      </trkpt>
      <trkpt lat="43.54005" lon="5.53596">
        <ele>321</ele>
        <time>2018-02-20T11:51:34.000Z</time>
      </trkpt>
      <trkpt lat="43.54005" lon="5.53596">
        <ele>321</ele>
        <time>2018-02-20T11:51:35.000Z</time>
      </trkpt>
      <trkpt lat="43.54005" lon="5.53596">
        <ele>321</ele>
        <time>2018-02-20T11:51:36.000Z</time>
      </trkpt>
      <trkpt lat="43.54005" lon="5.53596">
        <ele>321</ele>
        <time>2018-02-20T11:51:37.000Z</time>
      </trkpt>
      <trkpt lat="43.54005" lon="5.53596">
        <ele>321</ele>
        <time>2018-02-20T11:51:38.000Z</time>
      </trkpt>
      <trkpt lat="43.54005" lon="5.53596">
        <ele>321</ele>
        <time>2018-02-20T11:51:39.000Z</time>
      </trkpt>
      <trkpt lat="43.54005" lon="5.53596">
        <ele>321</ele>
        <time>2018-02-20T11:51:40.000Z</time>
      </trkpt>
      <trkpt lat="43.54005" lon="5.53596">
        <ele>321</ele>
        <time>2018-02-20T11:51:41.000Z</time>
      </trkpt>
      <trkpt lat="43.54005" lon="5.53596">
        <ele>321</ele>
        <time>2018-02-20T11:51:42.000Z</time>
      </trkpt>
      <trkpt lat="43.54005" lon="5.53596">
        <ele>321</ele>
        <time>2018-02-20T11:51:43.000Z</time>
      </trkpt>
      <trkpt lat="43.54005" lon="5.53596">
        <ele>321</ele>
        <time>2018-02-20T11:51:44.000Z</time>
      </trkpt>
      <trkpt lat="43.54005" lon="5.53596">
        <ele>321</ele>
        <time>2018-02-20T11:51:45.000Z</time>
      </trkpt>
      <trkpt lat="43.54004" lon="5.53596">
        <ele>321</ele>
        <time>2018-02-20T11:51:46.000Z</time>
      </trkpt>
      <trkpt lat="43.54004" lon="5.53596">
        <ele>321</ele>
        <time>2018-02-20T11:51:47.000Z</time>
      </trkpt>
      <trkpt lat="43.54004" lon="5.53596">
        <ele>321</ele>
        <time>2018-02-20T11:51:48.000Z</time>
      </trkpt>
      <trkpt lat="43.54004" lon="5.53596">
        <ele>322</ele>
        <time>2018-02-20T11:51:49.000Z</time>
      </trkpt>
      <trkpt lat="43.54004" lon="5.53596">
        <ele>322</ele>
        <time>2018-02-20T11:51:50.000Z</time>
      </trkpt>
      <trkpt lat="43.54003" lon="5.53596">
        <ele>322</ele>
        <time>2018-02-20T11:51:51.000Z</time>
      </trkpt>
      <trkpt lat="43.54003" lon="5.53596">
        <ele>322</ele>
        <time>2018-02-20T11:51:52.000Z</time>
      </trkpt>
      <trkpt lat="43.54003" lon="5.53596">
        <ele>322</ele>
        <time>2018-02-20T11:51:53.000Z</time>
      </trkpt>
      <trkpt lat="43.54003" lon="5.53596">
        <ele>322</ele>
        <time>2018-02-20T11:51:54.000Z</time>
      </trkpt>
      <trkpt lat="43.54002" lon="5.53596">
        <ele>322</ele>
        <time>2018-02-20T11:51:55.000Z</time>
      </trkpt>
      <trkpt lat="43.54002" lon="5.53596">
        <ele>322</ele>
        <time>2018-02-20T11:51:56.000Z</time>
      </trkpt>
      <trkpt lat="43.54002" lon="5.53596">
        <ele>322</ele>
        <time>2018-02-20T11:51:57.000Z</time>
      </trkpt>
      <trkpt lat="43.54002" lon="5.53596">
        <ele>322</ele>
        <time>2018-02-20T11:51:58.000Z</time>
      </trkpt>
      <trkpt lat="43.54002" lon="5.53596">
        <ele>322</ele>
        <time>2018-02-20T11:51:59.000Z</time>
      </trkpt>
      <trkpt lat="43.54002" lon="5.53596">
        <ele>322</ele>
        <time>2018-02-20T11:52:00.000Z</time>
      </trkpt>
      <trkpt lat="43.54002" lon="5.53595">
        <ele>322</ele>
        <time>2018-02-20T11:52:01.000Z</time>
      </trkpt>
      <trkpt lat="43.54001" lon="5.53595">
        <ele>322</ele>
        <time>2018-02-20T11:52:02.000Z</time>
      </trkpt>
      <trkpt lat="43.54001" lon="5.53595">
        <ele>322</ele>
        <time>2018-02-20T11:52:03.000Z</time>
      </trkpt>
      <trkpt lat="43.54001" lon="5.53595">
        <ele>322</ele>
        <time>2018-02-20T11:52:04.000Z</time>
      </trkpt>
      <trkpt lat="43.54001" lon="5.53595">
        <ele>322</ele>
        <time>2018-02-20T11:52:05.000Z</time>
      </trkpt>
      <trkpt lat="43.54001" lon="5.53595">
        <ele>322</ele>
        <time>2018-02-20T11:52:06.000Z</time>
      </trkpt>
      <trkpt lat="43.54001" lon="5.53595">
        <ele>322</ele>
        <time>2018-02-20T11:52:07.000Z</time>
      </trkpt>
      <trkpt lat="43.54001" lon="5.53595">
        <ele>322</ele>
        <time>2018-02-20T11:52:08.000Z</time>
      </trkpt>
      <trkpt lat="43.54" lon="5.53595">
        <ele>322</ele>
        <time>2018-02-20T11:52:09.000Z</time>
      </trkpt>
      <trkpt lat="43.54" lon="5.53595">
        <ele>322</ele>
        <time>2018-02-20T11:52:10.000Z</time>
      </trkpt>
      <trkpt lat="43.54" lon="5.53595">
        <ele>322</ele>
        <time>2018-02-20T11:52:11.000Z</time>
      </trkpt>
      <trkpt lat="43.54" lon="5.53595">
        <ele>322</ele>
        <time>2018-02-20T11:52:12.000Z</time>
      </trkpt>
      <trkpt lat="43.54" lon="5.53595">
        <ele>322</ele>
        <time>2018-02-20T11:52:13.000Z</time>
      </trkpt>
      <trkpt lat="43.54" lon="5.53595">
        <ele>322</ele>
        <time>2018-02-20T11:52:14.000Z</time>
      </trkpt>
      <trkpt lat="43.54" lon="5.53595">
        <ele>322</ele>
        <time>2018-02-20T11:52:15.000Z</time>
      </trkpt>
      <trkpt lat="43.54" lon="5.53595">
        <ele>322</ele>
        <time>2018-02-20T11:52:16.000Z</time>
      </trkpt>
      <trkpt lat="43.54" lon="5.53595">
        <ele>322</ele>
        <time>2018-02-20T11:52:17.000Z</time>
      </trkpt>
      <trkpt lat="43.54" lon="5.53595">
        <ele>322</ele>
        <time>2018-02-20T11:52:18.000Z</time>
      </trkpt>
      <trkpt lat="43.54" lon="5.53595">
        <ele>322</ele>
        <time>2018-02-20T11:52:19.000Z</time>
      </trkpt>
      <trkpt lat="43.54" lon="5.53595">
        <ele>322</ele>
        <time>2018-02-20T11:52:20.000Z</time>
      </trkpt>
      <trkpt lat="43.54" lon="5.53595">
        <ele>322</ele>
        <time>2018-02-20T11:52:21.000Z</time>
      </trkpt>
      <trkpt lat="43.54" lon="5.53595">
        <ele>322</ele>
        <time>2018-02-20T11:52:22.000Z</time>
      </trkpt>
      <trkpt lat="43.54" lon="5.53595">
        <ele>322</ele>
        <time>2018-02-20T11:52:23.000Z</time>
      </trkpt>
      <trkpt lat="43.54" lon="5.53595">
        <ele>322</ele>
        <time>2018-02-20T11:52:24.000Z</time>
      </trkpt>
      <trkpt lat="43.54" lon="5.53595">
        <ele>322</ele>
        <time>2018-02-20T11:52:25.000Z</time>
      </trkpt>
      <trkpt lat="43.54" lon="5.53595">
        <ele>322</ele>
        <time>2018-02-20T11:52:26.000Z</time>
      </trkpt>
      <trkpt lat="43.54" lon="5.53595">
        <ele>322</ele>
        <time>2018-02-20T11:52:27.000Z</time>
      </trkpt>
      <trkpt lat="43.53999" lon="5.53595">
        <ele>322</ele>
        <time>2018-02-20T11:52:28.000Z</time>
      </trkpt>
      <trkpt lat="43.53999" lon="5.53595">
        <ele>322</ele>
        <time>2018-02-20T11:52:29.000Z</time>
      </trkpt>
      <trkpt lat="43.53999" lon="5.53595">
        <ele>322</ele>
        <time>2018-02-20T11:52:30.000Z</time>
      </trkpt>
      <trkpt lat="43.53999" lon="5.53596">
        <ele>322</ele>
        <time>2018-02-20T11:52:31.000Z</time>
      </trkpt>
      <trkpt lat="43.53999" lon="5.53596">
        <ele>322</ele>
        <time>2018-02-20T11:52:32.000Z</time>
      </trkpt>
      <trkpt lat="43.53999" lon="5.53596">
        <ele>322</ele>
        <time>2018-02-20T11:52:33.000Z</time>
      </trkpt>
      <trkpt lat="43.53999" lon="5.53596">
        <ele>322</ele>
        <time>2018-02-20T11:52:34.000Z</time>
      </trkpt>
      <trkpt lat="43.53999" lon="5.53596">
        <ele>322</ele>
        <time>2018-02-20T11:52:35.000Z</time>
      </trkpt>
      <trkpt lat="43.53999" lon="5.53596">
        <ele>322</ele>
        <time>2018-02-20T11:52:36.000Z</time>
      </trkpt>
      <trkpt lat="43.53999" lon="5.53596">
        <ele>322</ele>
        <time>2018-02-20T11:52:37.000Z</time>
      </trkpt>
      <trkpt lat="43.53999" lon="5.53595">
        <ele>322</ele>
        <time>2018-02-20T11:52:38.000Z</time>
      </trkpt>
      <trkpt lat="43.53999" lon="5.53595">
        <ele>322</ele>
        <time>2018-02-20T11:52:39.000Z</time>
      </trkpt>
      <trkpt lat="43.53999" lon="5.53595">
        <ele>322</ele>
        <time>2018-02-20T11:52:40.000Z</time>
      </trkpt>
      <trkpt lat="43.53999" lon="5.53595">
        <ele>322</ele>
        <time>2018-02-20T11:52:41.000Z</time>
      </trkpt>
      <trkpt lat="43.53998" lon="5.53595">
        <ele>322</ele>
        <time>2018-02-20T11:52:42.000Z</time>
      </trkpt>
      <trkpt lat="43.53998" lon="5.53595">
        <ele>321</ele>
        <time>2018-02-20T11:52:43.000Z</time>
      </trkpt>
      <trkpt lat="43.53998" lon="5.53595">
        <ele>321</ele>
        <time>2018-02-20T11:52:44.000Z</time>
      </trkpt>
      <trkpt lat="43.53998" lon="5.53595">
        <ele>321</ele>
        <time>2018-02-20T11:52:45.000Z</time>
      </trkpt>
      <trkpt lat="43.53998" lon="5.53595">
        <ele>321</ele>
        <time>2018-02-20T11:52:46.000Z</time>
      </trkpt>
      <trkpt lat="43.53998" lon="5.53596">
        <ele>321</ele>
        <time>2018-02-20T11:52:47.000Z</time>
      </trkpt>
      <trkpt lat="43.53998" lon="5.53596">
        <ele>321</ele>
        <time>2018-02-20T11:52:48.000Z</time>
      </trkpt>
      <trkpt lat="43.53998" lon="5.53596">
        <ele>321</ele>
        <time>2018-02-20T11:52:49.000Z</time>
      </trkpt>
      <trkpt lat="43.53998" lon="5.53596">
        <ele>321</ele>
        <time>2018-02-20T11:52:50.000Z</time>
      </trkpt>
      <trkpt lat="43.53998" lon="5.53596">
        <ele>321</ele>
        <time>2018-02-20T11:52:51.000Z</time>
      </trkpt>
      <trkpt lat="43.53998" lon="5.53596">
        <ele>321</ele>
        <time>2018-02-20T11:52:52.000Z</time>
      </trkpt>
      <trkpt lat="43.53998" lon="5.53596">
        <ele>321</ele>
        <time>2018-02-20T11:52:53.000Z</time>
      </trkpt>
      <trkpt lat="43.53998" lon="5.53596">
        <ele>321</ele>
        <time>2018-02-20T11:52:54.000Z</time>
      </trkpt>
      <trkpt lat="43.53998" lon="5.53596">
        <ele>321</ele>
        <time>2018-02-20T11:52:55.000Z</time>
      </trkpt>
      <trkpt lat="43.53998" lon="5.53596">
        <ele>321</ele>
        <time>2018-02-20T11:52:56.000Z</time>
      </trkpt>
      <trkpt lat="43.53998" lon="5.53596">
        <ele>321</ele>
        <time>2018-02-20T11:52:57.000Z</time>
      </trkpt>
      <trkpt lat="43.53998" lon="5.53596">
        <ele>321</ele>
        <time>2018-02-20T11:52:58.000Z</time>
      </trkpt>
      <trkpt lat="43.53998" lon="5.53596">
        <ele>321</ele>
        <time>2018-02-20T11:52:59.000Z</time>
      </trkpt>
      <trkpt lat="43.53998" lon="5.53596">
        <ele>321</ele>
        <time>2018-02-20T11:53:00.000Z</time>
      </trkpt>
      <trkpt lat="43.53998" lon="5.53596">
        <ele>321</ele>
        <time>2018-02-20T11:53:01.000Z</time>
      </trkpt>
      <trkpt lat="43.53998" lon="5.53596">
        <ele>321</ele>
        <time>2018-02-20T11:53:02.000Z</time>
      </trkpt>
      <trkpt lat="43.53998" lon="5.53596">
        <ele>321</ele>
        <time>2018-02-20T11:53:03.000Z</time>
      </trkpt>
      <trkpt lat="43.53997" lon="5.53596">
        <ele>321</ele>
        <time>2018-02-20T11:53:04.000Z</time>
      </trkpt>
      <trkpt lat="43.53997" lon="5.53596">
        <ele>321</ele>
        <time>2018-02-20T11:53:05.000Z</time>
      </trkpt>
      <trkpt lat="43.53997" lon="5.53596">
        <ele>321</ele>
        <time>2018-02-20T11:53:06.000Z</time>
      </trkpt>
      <trkpt lat="43.53997" lon="5.53596">
        <ele>321</ele>
        <time>2018-02-20T11:53:07.000Z</time>
      </trkpt>
      <trkpt lat="43.53997" lon="5.53596">
        <ele>321</ele>
        <time>2018-02-20T11:53:08.000Z</time>
      </trkpt>
      <trkpt lat="43.53997" lon="5.53596">
        <ele>321</ele>
        <time>2018-02-20T11:53:09.000Z</time>
      </trkpt>
      <trkpt lat="43.53997" lon="5.53596">
        <ele>321</ele>
        <time>2018-02-20T11:53:10.000Z</time>
      </trkpt>
      <trkpt lat="43.53997" lon="5.53596">
        <ele>321</ele>
        <time>2018-02-20T11:53:11.000Z</time>
      </trkpt>
      <trkpt lat="43.53997" lon="5.53595">
        <ele>321</ele>
        <time>2018-02-20T11:53:12.000Z</time>
      </trkpt>
      <trkpt lat="43.53997" lon="5.53595">
        <ele>322</ele>
        <time>2018-02-20T11:53:13.000Z</time>
      </trkpt>
      <trkpt lat="43.53996" lon="5.53594">
        <ele>322</ele>
        <time>2018-02-20T11:53:14.000Z</time>
      </trkpt>
      <trkpt lat="43.53995" lon="5.53593">
        <ele>322</ele>
        <time>2018-02-20T11:53:15.000Z</time>
      </trkpt>
      <trkpt lat="43.53995" lon="5.53592">
        <ele>322</ele>
        <time>2018-02-20T11:53:16.000Z</time>
      </trkpt>
      <trkpt lat="43.53994" lon="5.53591">
        <ele>322</ele>
        <time>2018-02-20T11:53:17.000Z</time>
      </trkpt>
      <trkpt lat="43.53994" lon="5.53591">
        <ele>323</ele>
        <time>2018-02-20T11:53:18.000Z</time>
      </trkpt>
      <trkpt lat="43.53994" lon="5.5359">
        <ele>323</ele>
        <time>2018-02-20T11:53:19.000Z</time>
      </trkpt>
      <trkpt lat="43.53993" lon="5.53589">
        <ele>323</ele>
        <time>2018-02-20T11:53:20.000Z</time>
      </trkpt>
      <trkpt lat="43.53993" lon="5.53588">
        <ele>323</ele>
        <time>2018-02-20T11:53:21.000Z</time>
      </trkpt>
      <trkpt lat="43.53993" lon="5.53588">
        <ele>323</ele>
        <time>2018-02-20T11:53:22.000Z</time>
      </trkpt>
      <trkpt lat="43.53993" lon="5.53586">
        <ele>323</ele>
        <time>2018-02-20T11:53:23.000Z</time>
      </trkpt>
      <trkpt lat="43.53992" lon="5.53585">
        <ele>323</ele>
        <time>2018-02-20T11:53:24.000Z</time>
      </trkpt>
      <trkpt lat="43.53992" lon="5.53584">
        <ele>323</ele>
        <time>2018-02-20T11:53:25.000Z</time>
      </trkpt>
      <trkpt lat="43.53992" lon="5.53583">
        <ele>323</ele>
        <time>2018-02-20T11:53:26.000Z</time>
      </trkpt>
      <trkpt lat="43.53992" lon="5.53583">
        <ele>323</ele>
        <time>2018-02-20T11:53:27.000Z</time>
      </trkpt>
      <trkpt lat="43.53992" lon="5.53582">
        <ele>323</ele>
        <time>2018-02-20T11:53:28.000Z</time>
      </trkpt>
      <trkpt lat="43.53992" lon="5.53581">
        <ele>323</ele>
        <time>2018-02-20T11:53:29.000Z</time>
      </trkpt>
      <trkpt lat="43.53991" lon="5.5358">
        <ele>323</ele>
        <time>2018-02-20T11:53:30.000Z</time>
      </trkpt>
      <trkpt lat="43.53991" lon="5.53579">
        <ele>323</ele>
        <time>2018-02-20T11:53:31.000Z</time>
      </trkpt>
      <trkpt lat="43.53991" lon="5.53578">
        <ele>323</ele>
        <time>2018-02-20T11:53:32.000Z</time>
      </trkpt>
      <trkpt lat="43.53991" lon="5.53577">
        <ele>323</ele>
        <time>2018-02-20T11:53:33.000Z</time>
      </trkpt>
      <trkpt lat="43.5399" lon="5.53576">
        <ele>323</ele>
        <time>2018-02-20T11:53:34.000Z</time>
      </trkpt>
      <trkpt lat="43.5399" lon="5.53576">
        <ele>323</ele>
        <time>2018-02-20T11:53:35.000Z</time>
      </trkpt>
      <trkpt lat="43.5399" lon="5.53574">
        <ele>322</ele>
        <time>2018-02-20T11:53:36.000Z</time>
      </trkpt>
      <trkpt lat="43.53989" lon="5.53573">
        <ele>322</ele>
        <time>2018-02-20T11:53:37.000Z</time>
      </trkpt>
      <trkpt lat="43.53989" lon="5.53572">
        <ele>322</ele>
        <time>2018-02-20T11:53:38.000Z</time>
      </trkpt>
      <trkpt lat="43.53989" lon="5.53572">
        <ele>322</ele>
        <time>2018-02-20T11:53:39.000Z</time>
      </trkpt>
      <trkpt lat="43.53988" lon="5.53571">
        <ele>322</ele>
        <time>2018-02-20T11:53:40.000Z</time>
      </trkpt>
      <trkpt lat="43.53987" lon="5.5357">
        <ele>322</ele>
        <time>2018-02-20T11:53:41.000Z</time>
      </trkpt>
      <trkpt lat="43.53986" lon="5.53569">
        <ele>322</ele>
        <time>2018-02-20T11:53:42.000Z</time>
      </trkpt>
      <trkpt lat="43.53985" lon="5.53569">
        <ele>322</ele>
        <time>2018-02-20T11:53:43.000Z</time>
      </trkpt>
      <trkpt lat="43.53984" lon="5.53568">
        <ele>322</ele>
        <time>2018-02-20T11:53:44.000Z</time>
      </trkpt>
      <trkpt lat="43.53983" lon="5.53567">
        <ele>322</ele>
        <time>2018-02-20T11:53:45.000Z</time>
      </trkpt>
      <trkpt lat="43.53982" lon="5.53567">
        <ele>322</ele>
        <time>2018-02-20T11:53:46.000Z</time>
      </trkpt>
      <trkpt lat="43.53981" lon="5.53567">
        <ele>322</ele>
        <time>2018-02-20T11:53:47.000Z</time>
      </trkpt>
      <trkpt lat="43.53981" lon="5.53567">
        <ele>322</ele>
        <time>2018-02-20T11:53:48.000Z</time>
      </trkpt>
      <trkpt lat="43.5398" lon="5.53567">
        <ele>322</ele>
        <time>2018-02-20T11:53:49.000Z</time>
      </trkpt>
      <trkpt lat="43.53979" lon="5.53567">
        <ele>322</ele>
        <time>2018-02-20T11:53:50.000Z</time>
      </trkpt>
      <trkpt lat="43.53978" lon="5.53568">
        <ele>322</ele>
        <time>2018-02-20T11:53:51.000Z</time>
      </trkpt>
      <trkpt lat="43.53977" lon="5.53568">
        <ele>323</ele>
        <time>2018-02-20T11:53:52.000Z</time>
      </trkpt>
      <trkpt lat="43.53976" lon="5.53568">
        <ele>323</ele>
        <time>2018-02-20T11:53:53.000Z</time>
      </trkpt>
      <trkpt lat="43.53975" lon="5.53568">
        <ele>323</ele>
        <time>2018-02-20T11:53:54.000Z</time>
      </trkpt>
      <trkpt lat="43.53974" lon="5.53568">
        <ele>323</ele>
        <time>2018-02-20T11:53:55.000Z</time>
      </trkpt>
      <trkpt lat="43.53973" lon="5.53567">
        <ele>323</ele>
        <time>2018-02-20T11:53:56.000Z</time>
      </trkpt>
      <trkpt lat="43.53972" lon="5.53566">
        <ele>323</ele>
        <time>2018-02-20T11:53:57.000Z</time>
      </trkpt>
      <trkpt lat="43.53972" lon="5.53566">
        <ele>324</ele>
        <time>2018-02-20T11:53:58.000Z</time>
      </trkpt>
      <trkpt lat="43.53971" lon="5.53566">
        <ele>324</ele>
        <time>2018-02-20T11:53:59.000Z</time>
      </trkpt>
      <trkpt lat="43.5397" lon="5.53566">
        <ele>324</ele>
        <time>2018-02-20T11:54:00.000Z</time>
      </trkpt>
      <trkpt lat="43.5397" lon="5.53566">
        <ele>324</ele>
        <time>2018-02-20T11:54:01.000Z</time>
      </trkpt>
      <trkpt lat="43.53969" lon="5.53566">
        <ele>324</ele>
        <time>2018-02-20T11:54:02.000Z</time>
      </trkpt>
      <trkpt lat="43.53968" lon="5.53566">
        <ele>324</ele>
        <time>2018-02-20T11:54:03.000Z</time>
      </trkpt>
      <trkpt lat="43.53968" lon="5.53566">
        <ele>324</ele>
        <time>2018-02-20T11:54:04.000Z</time>
      </trkpt>
      <trkpt lat="43.53968" lon="5.53565">
        <ele>324</ele>
        <time>2018-02-20T11:54:05.000Z</time>
      </trkpt>
      <trkpt lat="43.53967" lon="5.53565">
        <ele>325</ele>
        <time>2018-02-20T11:54:06.000Z</time>
      </trkpt>
      <trkpt lat="43.53967" lon="5.53565">
        <ele>325</ele>
        <time>2018-02-20T11:54:07.000Z</time>
      </trkpt>
      <trkpt lat="43.53967" lon="5.53565">
        <ele>325</ele>
        <time>2018-02-20T11:54:08.000Z</time>
      </trkpt>
      <trkpt lat="43.53967" lon="5.53566">
        <ele>325</ele>
        <time>2018-02-20T11:54:09.000Z</time>
      </trkpt>
      <trkpt lat="43.53967" lon="5.53566">
        <ele>325</ele>
        <time>2018-02-20T11:54:10.000Z</time>
      </trkpt>
      <trkpt lat="43.53967" lon="5.53565">
        <ele>325</ele>
        <time>2018-02-20T11:54:11.000Z</time>
      </trkpt>
      <trkpt lat="43.53967" lon="5.53565">
        <ele>325</ele>
        <time>2018-02-20T11:54:12.000Z</time>
      </trkpt>
      <trkpt lat="43.53967" lon="5.53565">
        <ele>325</ele>
        <time>2018-02-20T11:54:13.000Z</time>
      </trkpt>
      <trkpt lat="43.53967" lon="5.53565">
        <ele>325</ele>
        <time>2018-02-20T11:54:14.000Z</time>
      </trkpt>
      <trkpt lat="43.53967" lon="5.53565">
        <ele>325</ele>
        <time>2018-02-20T11:54:15.000Z</time>
      </trkpt>
      <trkpt lat="43.53966" lon="5.53565">
        <ele>325</ele>
        <time>2018-02-20T11:54:16.000Z</time>
      </trkpt>
      <trkpt lat="43.53966" lon="5.53565">
        <ele>325</ele>
        <time>2018-02-20T11:54:17.000Z</time>
      </trkpt>
      <trkpt lat="43.53966" lon="5.53564">
        <ele>325</ele>
        <time>2018-02-20T11:54:18.000Z</time>
      </trkpt>
      <trkpt lat="43.53965" lon="5.53564">
        <ele>326</ele>
        <time>2018-02-20T11:54:19.000Z</time>
      </trkpt>
      <trkpt lat="43.53965" lon="5.53564">
        <ele>326</ele>
        <time>2018-02-20T11:54:20.000Z</time>
      </trkpt>
      <trkpt lat="43.53965" lon="5.53564">
        <ele>326</ele>
        <time>2018-02-20T11:54:21.000Z</time>
      </trkpt>
      <trkpt lat="43.53964" lon="5.53564">
        <ele>326</ele>
        <time>2018-02-20T11:54:22.000Z</time>
      </trkpt>
      <trkpt lat="43.53964" lon="5.53564">
        <ele>326</ele>
        <time>2018-02-20T11:54:23.000Z</time>
      </trkpt>
      <trkpt lat="43.53964" lon="5.53564">
        <ele>326</ele>
        <time>2018-02-20T11:54:24.000Z</time>
      </trkpt>
      <trkpt lat="43.53963" lon="5.53564">
        <ele>326</ele>
        <time>2018-02-20T11:54:25.000Z</time>
      </trkpt>
      <trkpt lat="43.53963" lon="5.53564">
        <ele>327</ele>
        <time>2018-02-20T11:54:26.000Z</time>
      </trkpt>
      <trkpt lat="43.53963" lon="5.53565">
        <ele>327</ele>
        <time>2018-02-20T11:54:27.000Z</time>
      </trkpt>
      <trkpt lat="43.53962" lon="5.53566">
        <ele>327</ele>
        <time>2018-02-20T11:54:28.000Z</time>
      </trkpt>
      <trkpt lat="43.53962" lon="5.53566">
        <ele>327</ele>
        <time>2018-02-20T11:54:29.000Z</time>
      </trkpt>
      <trkpt lat="43.53962" lon="5.53566">
        <ele>327</ele>
        <time>2018-02-20T11:54:30.000Z</time>
      </trkpt>
      <trkpt lat="43.53962" lon="5.53567">
        <ele>327</ele>
        <time>2018-02-20T11:54:31.000Z</time>
      </trkpt>
      <trkpt lat="43.53962" lon="5.53567">
        <ele>328</ele>
        <time>2018-02-20T11:54:32.000Z</time>
      </trkpt>
      <trkpt lat="43.53961" lon="5.53567">
        <ele>328</ele>
        <time>2018-02-20T11:54:33.000Z</time>
      </trkpt>
      <trkpt lat="43.53961" lon="5.53568">
        <ele>328</ele>
        <time>2018-02-20T11:54:34.000Z</time>
      </trkpt>
      <trkpt lat="43.53961" lon="5.53568">
        <ele>328</ele>
        <time>2018-02-20T11:54:35.000Z</time>
      </trkpt>
      <trkpt lat="43.53961" lon="5.53569">
        <ele>328</ele>
        <time>2018-02-20T11:54:36.000Z</time>
      </trkpt>
      <trkpt lat="43.5396" lon="5.5357">
        <ele>328</ele>
        <time>2018-02-20T11:54:37.000Z</time>
      </trkpt>
      <trkpt lat="43.5396" lon="5.5357">
        <ele>328</ele>
        <time>2018-02-20T11:54:38.000Z</time>
      </trkpt>
      <trkpt lat="43.5396" lon="5.53571">
        <ele>328</ele>
        <time>2018-02-20T11:54:39.000Z</time>
      </trkpt>
      <trkpt lat="43.53959" lon="5.53572">
        <ele>329</ele>
        <time>2018-02-20T11:54:40.000Z</time>
      </trkpt>
      <trkpt lat="43.53959" lon="5.53572">
        <ele>329</ele>
        <time>2018-02-20T11:54:41.000Z</time>
      </trkpt>
      <trkpt lat="43.53959" lon="5.53572">
        <ele>329</ele>
        <time>2018-02-20T11:54:42.000Z</time>
      </trkpt>
      <trkpt lat="43.53959" lon="5.53573">
        <ele>329</ele>
        <time>2018-02-20T11:54:43.000Z</time>
      </trkpt>
      <trkpt lat="43.53959" lon="5.53573">
        <ele>329</ele>
        <time>2018-02-20T11:54:44.000Z</time>
      </trkpt>
      <trkpt lat="43.53959" lon="5.53573">
        <ele>329</ele>
        <time>2018-02-20T11:54:45.000Z</time>
      </trkpt>
      <trkpt lat="43.53959" lon="5.53572">
        <ele>329</ele>
        <time>2018-02-20T11:54:46.000Z</time>
      </trkpt>
      <trkpt lat="43.53958" lon="5.53572">
        <ele>329</ele>
        <time>2018-02-20T11:54:47.000Z</time>
      </trkpt>
      <trkpt lat="43.53958" lon="5.53572">
        <ele>329</ele>
        <time>2018-02-20T11:54:48.000Z</time>
      </trkpt>
      <trkpt lat="43.53958" lon="5.53572">
        <ele>329</ele>
        <time>2018-02-20T11:54:49.000Z</time>
      </trkpt>
      <trkpt lat="43.53957" lon="5.53571">
        <ele>329</ele>
        <time>2018-02-20T11:54:50.000Z</time>
      </trkpt>
      <trkpt lat="43.53957" lon="5.53571">
        <ele>329</ele>
        <time>2018-02-20T11:54:51.000Z</time>
      </trkpt>
      <trkpt lat="43.53957" lon="5.53571">
        <ele>329</ele>
        <time>2018-02-20T11:54:52.000Z</time>
      </trkpt>
      <trkpt lat="43.53957" lon="5.5357">
        <ele>329</ele>
        <time>2018-02-20T11:54:53.000Z</time>
      </trkpt>
      <trkpt lat="43.53957" lon="5.5357">
        <ele>329</ele>
        <time>2018-02-20T11:54:54.000Z</time>
      </trkpt>
      <trkpt lat="43.53956" lon="5.5357">
        <ele>329</ele>
        <time>2018-02-20T11:54:55.000Z</time>
      </trkpt>
      <trkpt lat="43.53956" lon="5.5357">
        <ele>329</ele>
        <time>2018-02-20T11:54:56.000Z</time>
      </trkpt>
      <trkpt lat="43.53956" lon="5.5357">
        <ele>329</ele>
        <time>2018-02-20T11:54:57.000Z</time>
      </trkpt>
      <trkpt lat="43.53956" lon="5.5357">
        <ele>329</ele>
        <time>2018-02-20T11:54:58.000Z</time>
      </trkpt>
      <trkpt lat="43.53955" lon="5.5357">
        <ele>329</ele>
        <time>2018-02-20T11:54:59.000Z</time>
      </trkpt>
      <trkpt lat="43.53955" lon="5.5357">
        <ele>329</ele>
        <time>2018-02-20T11:55:00.000Z</time>
      </trkpt>
      <trkpt lat="43.53954" lon="5.53569">
        <ele>329</ele>
        <time>2018-02-20T11:55:01.000Z</time>
      </trkpt>
      <trkpt lat="43.53954" lon="5.53569">
        <ele>329</ele>
        <time>2018-02-20T11:55:02.000Z</time>
      </trkpt>
      <trkpt lat="43.53954" lon="5.53569">
        <ele>329</ele>
        <time>2018-02-20T11:55:03.000Z</time>
      </trkpt>
      <trkpt lat="43.53954" lon="5.53569">
        <ele>330</ele>
        <time>2018-02-20T11:55:04.000Z</time>
      </trkpt>
      <trkpt lat="43.53953" lon="5.53569">
        <ele>330</ele>
        <time>2018-02-20T11:55:05.000Z</time>
      </trkpt>
      <trkpt lat="43.53953" lon="5.53568">
        <ele>330</ele>
        <time>2018-02-20T11:55:06.000Z</time>
      </trkpt>
      <trkpt lat="43.53952" lon="5.53568">
        <ele>330</ele>
        <time>2018-02-20T11:55:07.000Z</time>
      </trkpt>
      <trkpt lat="43.53952" lon="5.53568">
        <ele>330</ele>
        <time>2018-02-20T11:55:08.000Z</time>
      </trkpt>
      <trkpt lat="43.53952" lon="5.53568">
        <ele>330</ele>
        <time>2018-02-20T11:55:09.000Z</time>
      </trkpt>
      <trkpt lat="43.53952" lon="5.53568">
        <ele>330</ele>
        <time>2018-02-20T11:55:10.000Z</time>
      </trkpt>
      <trkpt lat="43.53951" lon="5.53568">
        <ele>330</ele>
        <time>2018-02-20T11:55:11.000Z</time>
      </trkpt>
      <trkpt lat="43.53951" lon="5.53567">
        <ele>330</ele>
        <time>2018-02-20T11:55:12.000Z</time>
      </trkpt>
      <trkpt lat="43.53951" lon="5.53567">
        <ele>330</ele>
        <time>2018-02-20T11:55:13.000Z</time>
      </trkpt>
      <trkpt lat="43.53951" lon="5.53567">
        <ele>330</ele>
        <time>2018-02-20T11:55:14.000Z</time>
      </trkpt>
      <trkpt lat="43.5395" lon="5.53566">
        <ele>330</ele>
        <time>2018-02-20T11:55:15.000Z</time>
      </trkpt>
      <trkpt lat="43.5395" lon="5.53565">
        <ele>331</ele>
        <time>2018-02-20T11:55:16.000Z</time>
      </trkpt>
      <trkpt lat="43.53949" lon="5.53565">
        <ele>331</ele>
        <time>2018-02-20T11:55:17.000Z</time>
      </trkpt>
      <trkpt lat="43.53949" lon="5.53564">
        <ele>331</ele>
        <time>2018-02-20T11:55:18.000Z</time>
      </trkpt>
      <trkpt lat="43.53949" lon="5.53564">
        <ele>331</ele>
        <time>2018-02-20T11:55:19.000Z</time>
      </trkpt>
      <trkpt lat="43.53948" lon="5.53564">
        <ele>331</ele>
        <time>2018-02-20T11:55:20.000Z</time>
      </trkpt>
      <trkpt lat="43.53948" lon="5.53564">
        <ele>331</ele>
        <time>2018-02-20T11:55:21.000Z</time>
      </trkpt>
      <trkpt lat="43.53948" lon="5.53564">
        <ele>331</ele>
        <time>2018-02-20T11:55:22.000Z</time>
      </trkpt>
      <trkpt lat="43.53948" lon="5.53563">
        <ele>331</ele>
        <time>2018-02-20T11:55:23.000Z</time>
      </trkpt>
      <trkpt lat="43.53948" lon="5.53563">
        <ele>332</ele>
        <time>2018-02-20T11:55:24.000Z</time>
      </trkpt>
      <trkpt lat="43.53947" lon="5.53563">
        <ele>332</ele>
        <time>2018-02-20T11:55:25.000Z</time>
      </trkpt>
      <trkpt lat="43.53947" lon="5.53562">
        <ele>332</ele>
        <time>2018-02-20T11:55:26.000Z</time>
      </trkpt>
      <trkpt lat="43.53947" lon="5.53562">
        <ele>332</ele>
        <time>2018-02-20T11:55:27.000Z</time>
      </trkpt>
      <trkpt lat="43.53947" lon="5.53562">
        <ele>332</ele>
        <time>2018-02-20T11:55:28.000Z</time>
      </trkpt>
      <trkpt lat="43.53947" lon="5.53562">
        <ele>332</ele>
        <time>2018-02-20T11:55:29.000Z</time>
      </trkpt>
      <trkpt lat="43.53946" lon="5.53562">
        <ele>332</ele>
        <time>2018-02-20T11:55:30.000Z</time>
      </trkpt>
      <trkpt lat="43.53946" lon="5.53562">
        <ele>333</ele>
        <time>2018-02-20T11:55:31.000Z</time>
      </trkpt>
      <trkpt lat="43.53946" lon="5.53562">
        <ele>333</ele>
        <time>2018-02-20T11:55:32.000Z</time>
      </trkpt>
      <trkpt lat="43.53946" lon="5.53562">
        <ele>333</ele>
        <time>2018-02-20T11:55:33.000Z</time>
      </trkpt>
      <trkpt lat="43.53946" lon="5.53562">
        <ele>333</ele>
        <time>2018-02-20T11:55:34.000Z</time>
      </trkpt>
      <trkpt lat="43.53946" lon="5.53562">
        <ele>333</ele>
        <time>2018-02-20T11:55:35.000Z</time>
      </trkpt>
      <trkpt lat="43.53946" lon="5.53562">
        <ele>333</ele>
        <time>2018-02-20T11:55:36.000Z</time>
      </trkpt>
      <trkpt lat="43.53945" lon="5.53562">
        <ele>333</ele>
        <time>2018-02-20T11:55:37.000Z</time>
      </trkpt>
      <trkpt lat="43.53945" lon="5.53561">
        <ele>333</ele>
        <time>2018-02-20T11:55:38.000Z</time>
      </trkpt>
      <trkpt lat="43.53944" lon="5.53561">
        <ele>333</ele>
        <time>2018-02-20T11:55:39.000Z</time>
      </trkpt>
      <trkpt lat="43.53944" lon="5.53561">
        <ele>334</ele>
        <time>2018-02-20T11:55:40.000Z</time>
      </trkpt>
      <trkpt lat="43.53943" lon="5.5356">
        <ele>334</ele>
        <time>2018-02-20T11:55:41.000Z</time>
      </trkpt>
      <trkpt lat="43.53942" lon="5.53559">
        <ele>334</ele>
        <time>2018-02-20T11:55:42.000Z</time>
      </trkpt>
      <trkpt lat="43.53942" lon="5.53558">
        <ele>334</ele>
        <time>2018-02-20T11:55:43.000Z</time>
      </trkpt>
      <trkpt lat="43.53942" lon="5.53557">
        <ele>334</ele>
        <time>2018-02-20T11:55:44.000Z</time>
      </trkpt>
      <trkpt lat="43.53941" lon="5.53557">
        <ele>334</ele>
        <time>2018-02-20T11:55:45.000Z</time>
      </trkpt>
      <trkpt lat="43.53941" lon="5.53556">
        <ele>334</ele>
        <time>2018-02-20T11:55:46.000Z</time>
      </trkpt>
      <trkpt lat="43.5394" lon="5.53555">
        <ele>335</ele>
        <time>2018-02-20T11:55:47.000Z</time>
      </trkpt>
      <trkpt lat="43.5394" lon="5.53555">
        <ele>335</ele>
        <time>2018-02-20T11:55:48.000Z</time>
      </trkpt>
      <trkpt lat="43.53939" lon="5.53555">
        <ele>335</ele>
        <time>2018-02-20T11:55:49.000Z</time>
      </trkpt>
      <trkpt lat="43.53939" lon="5.53554">
        <ele>335</ele>
        <time>2018-02-20T11:55:50.000Z</time>
      </trkpt>
      <trkpt lat="43.53939" lon="5.53555">
        <ele>335</ele>
        <time>2018-02-20T11:55:51.000Z</time>
      </trkpt>
      <trkpt lat="43.53938" lon="5.53555">
        <ele>335</ele>
        <time>2018-02-20T11:55:52.000Z</time>
      </trkpt>
      <trkpt lat="43.53938" lon="5.53555">
        <ele>335</ele>
        <time>2018-02-20T11:55:53.000Z</time>
      </trkpt>
      <trkpt lat="43.53938" lon="5.53554">
        <ele>336</ele>
        <time>2018-02-20T11:55:54.000Z</time>
      </trkpt>
      <trkpt lat="43.53938" lon="5.53554">
        <ele>336</ele>
        <time>2018-02-20T11:55:55.000Z</time>
      </trkpt>
      <trkpt lat="43.53938" lon="5.53555">
        <ele>336</ele>
        <time>2018-02-20T11:55:56.000Z</time>
      </trkpt>
      <trkpt lat="43.53938" lon="5.53555">
        <ele>336</ele>
        <time>2018-02-20T11:55:57.000Z</time>
      </trkpt>
      <trkpt lat="43.53937" lon="5.53555">
        <ele>336</ele>
        <time>2018-02-20T11:55:58.000Z</time>
      </trkpt>
      <trkpt lat="43.53937" lon="5.53555">
        <ele>336</ele>
        <time>2018-02-20T11:55:59.000Z</time>
      </trkpt>
      <trkpt lat="43.53937" lon="5.53555">
        <ele>337</ele>
        <time>2018-02-20T11:56:00.000Z</time>
      </trkpt>
      <trkpt lat="43.53937" lon="5.53555">
        <ele>337</ele>
        <time>2018-02-20T11:56:01.000Z</time>
      </trkpt>
      <trkpt lat="43.53937" lon="5.53555">
        <ele>337</ele>
        <time>2018-02-20T11:56:02.000Z</time>
      </trkpt>
      <trkpt lat="43.53937" lon="5.53555">
        <ele>337</ele>
        <time>2018-02-20T11:56:03.000Z</time>
      </trkpt>
      <trkpt lat="43.53937" lon="5.53556">
        <ele>337</ele>
        <time>2018-02-20T11:56:04.000Z</time>
      </trkpt>
      <trkpt lat="43.53937" lon="5.53556">
        <ele>337</ele>
        <time>2018-02-20T11:56:05.000Z</time>
      </trkpt>
      <trkpt lat="43.53937" lon="5.53556">
        <ele>337</ele>
        <time>2018-02-20T11:56:06.000Z</time>
      </trkpt>
      <trkpt lat="43.53936" lon="5.53557">
        <ele>337</ele>
        <time>2018-02-20T11:56:07.000Z</time>
      </trkpt>
      <trkpt lat="43.53936" lon="5.53557">
        <ele>337</ele>
        <time>2018-02-20T11:56:08.000Z</time>
      </trkpt>
      <trkpt lat="43.53935" lon="5.53557">
        <ele>338</ele>
        <time>2018-02-20T11:56:09.000Z</time>
      </trkpt>
      <trkpt lat="43.53935" lon="5.53557">
        <ele>338</ele>
        <time>2018-02-20T11:56:10.000Z</time>
      </trkpt>
      <trkpt lat="43.53934" lon="5.53558">
        <ele>338</ele>
        <time>2018-02-20T11:56:11.000Z</time>
      </trkpt>
      <trkpt lat="43.53934" lon="5.53558">
        <ele>338</ele>
        <time>2018-02-20T11:56:12.000Z</time>
      </trkpt>
      <trkpt lat="43.53934" lon="5.53558">
        <ele>339</ele>
        <time>2018-02-20T11:56:13.000Z</time>
      </trkpt>
      <trkpt lat="43.53934" lon="5.53559">
        <ele>339</ele>
        <time>2018-02-20T11:56:14.000Z</time>
      </trkpt>
      <trkpt lat="43.53934" lon="5.5356">
        <ele>339</ele>
        <time>2018-02-20T11:56:15.000Z</time>
      </trkpt>
      <trkpt lat="43.53934" lon="5.5356">
        <ele>340</ele>
        <time>2018-02-20T11:56:16.000Z</time>
      </trkpt>
      <trkpt lat="43.53934" lon="5.53559">
        <ele>340</ele>
        <time>2018-02-20T11:56:17.000Z</time>
      </trkpt>
      <trkpt lat="43.53934" lon="5.53559">
        <ele>340</ele>
        <time>2018-02-20T11:56:18.000Z</time>
      </trkpt>
      <trkpt lat="43.53934" lon="5.53559">
        <ele>340</ele>
        <time>2018-02-20T11:56:19.000Z</time>
      </trkpt>
      <trkpt lat="43.53935" lon="5.53559">
        <ele>340</ele>
        <time>2018-02-20T11:56:20.000Z</time>
      </trkpt>
      <trkpt lat="43.53935" lon="5.53559">
        <ele>340</ele>
        <time>2018-02-20T11:56:21.000Z</time>
      </trkpt>
      <trkpt lat="43.53935" lon="5.5356">
        <ele>341</ele>
        <time>2018-02-20T11:56:22.000Z</time>
      </trkpt>
      <trkpt lat="43.53935" lon="5.5356">
        <ele>341</ele>
        <time>2018-02-20T11:56:23.000Z</time>
      </trkpt>
      <trkpt lat="43.53935" lon="5.5356">
        <ele>341</ele>
        <time>2018-02-20T11:56:24.000Z</time>
      </trkpt>
      <trkpt lat="43.53935" lon="5.53561">
        <ele>341</ele>
        <time>2018-02-20T11:56:25.000Z</time>
      </trkpt>
      <trkpt lat="43.53935" lon="5.53562">
        <ele>341</ele>
        <time>2018-02-20T11:56:26.000Z</time>
      </trkpt>
      <trkpt lat="43.53935" lon="5.53562">
        <ele>342</ele>
        <time>2018-02-20T11:56:27.000Z</time>
      </trkpt>
      <trkpt lat="43.53934" lon="5.53563">
        <ele>342</ele>
        <time>2018-02-20T11:56:28.000Z</time>
      </trkpt>
      <trkpt lat="43.53934" lon="5.53563">
        <ele>342</ele>
        <time>2018-02-20T11:56:29.000Z</time>
      </trkpt>
      <trkpt lat="43.53933" lon="5.53563">
        <ele>342</ele>
        <time>2018-02-20T11:56:30.000Z</time>
      </trkpt>
      <trkpt lat="43.53933" lon="5.53563">
        <ele>343</ele>
        <time>2018-02-20T11:56:31.000Z</time>
      </trkpt>
      <trkpt lat="43.53932" lon="5.53563">
        <ele>343</ele>
        <time>2018-02-20T11:56:32.000Z</time>
      </trkpt>
      <trkpt lat="43.53932" lon="5.53563">
        <ele>343</ele>
        <time>2018-02-20T11:56:33.000Z</time>
      </trkpt>
      <trkpt lat="43.53932" lon="5.53563">
        <ele>343</ele>
        <time>2018-02-20T11:56:34.000Z</time>
      </trkpt>
      <trkpt lat="43.53932" lon="5.53563">
        <ele>344</ele>
        <time>2018-02-20T11:56:35.000Z</time>
      </trkpt>
      <trkpt lat="43.53932" lon="5.53563">
        <ele>344</ele>
        <time>2018-02-20T11:56:36.000Z</time>
      </trkpt>
      <trkpt lat="43.53932" lon="5.53563">
        <ele>344</ele>
        <time>2018-02-20T11:56:37.000Z</time>
      </trkpt>
      <trkpt lat="43.53932" lon="5.53563">
        <ele>344</ele>
        <time>2018-02-20T11:56:38.000Z</time>
      </trkpt>
      <trkpt lat="43.53931" lon="5.53563">
        <ele>344</ele>
        <time>2018-02-20T11:56:39.000Z</time>
      </trkpt>
      <trkpt lat="43.53931" lon="5.53564">
        <ele>344</ele>
        <time>2018-02-20T11:56:40.000Z</time>
      </trkpt>
      <trkpt lat="43.53931" lon="5.53564">
        <ele>344</ele>
        <time>2018-02-20T11:56:41.000Z</time>
      </trkpt>
      <trkpt lat="43.53931" lon="5.53564">
        <ele>344</ele>
        <time>2018-02-20T11:56:42.000Z</time>
      </trkpt>
      <trkpt lat="43.53931" lon="5.53564">
        <ele>344</ele>
        <time>2018-02-20T11:56:43.000Z</time>
      </trkpt>
      <trkpt lat="43.53931" lon="5.53564">
        <ele>344</ele>
        <time>2018-02-20T11:56:44.000Z</time>
      </trkpt>
      <trkpt lat="43.5393" lon="5.53564">
        <ele>345</ele>
        <time>2018-02-20T11:56:45.000Z</time>
      </trkpt>
      <trkpt lat="43.5393" lon="5.53564">
        <ele>345</ele>
        <time>2018-02-20T11:56:46.000Z</time>
      </trkpt>
      <trkpt lat="43.5393" lon="5.53564">
        <ele>345</ele>
        <time>2018-02-20T11:56:47.000Z</time>
      </trkpt>
      <trkpt lat="43.53929" lon="5.53564">
        <ele>345</ele>
        <time>2018-02-20T11:56:48.000Z</time>
      </trkpt>
      <trkpt lat="43.53929" lon="5.53564">
        <ele>345</ele>
        <time>2018-02-20T11:56:49.000Z</time>
      </trkpt>
      <trkpt lat="43.53929" lon="5.53564">
        <ele>345</ele>
        <time>2018-02-20T11:56:50.000Z</time>
      </trkpt>
      <trkpt lat="43.53929" lon="5.53565">
        <ele>345</ele>
        <time>2018-02-20T11:56:51.000Z</time>
      </trkpt>
      <trkpt lat="43.53929" lon="5.53565">
        <ele>345</ele>
        <time>2018-02-20T11:56:52.000Z</time>
      </trkpt>
      <trkpt lat="43.53929" lon="5.53565">
        <ele>346</ele>
        <time>2018-02-20T11:56:53.000Z</time>
      </trkpt>
      <trkpt lat="43.53929" lon="5.53565">
        <ele>346</ele>
        <time>2018-02-20T11:56:54.000Z</time>
      </trkpt>
      <trkpt lat="43.53929" lon="5.53565">
        <ele>346</ele>
        <time>2018-02-20T11:56:55.000Z</time>
      </trkpt>
      <trkpt lat="43.53929" lon="5.53565">
        <ele>346</ele>
        <time>2018-02-20T11:56:56.000Z</time>
      </trkpt>
      <trkpt lat="43.53929" lon="5.53566">
        <ele>346</ele>
        <time>2018-02-20T11:56:57.000Z</time>
      </trkpt>
      <trkpt lat="43.53929" lon="5.53566">
        <ele>346</ele>
        <time>2018-02-20T11:56:58.000Z</time>
      </trkpt>
      <trkpt lat="43.53929" lon="5.53566">
        <ele>346</ele>
        <time>2018-02-20T11:56:59.000Z</time>
      </trkpt>
      <trkpt lat="43.53929" lon="5.53567">
        <ele>347</ele>
        <time>2018-02-20T11:57:00.000Z</time>
      </trkpt>
      <trkpt lat="43.53928" lon="5.53567">
        <ele>347</ele>
        <time>2018-02-20T11:57:01.000Z</time>
      </trkpt>
      <trkpt lat="43.53928" lon="5.53567">
        <ele>347</ele>
        <time>2018-02-20T11:57:02.000Z</time>
      </trkpt>
      <trkpt lat="43.53927" lon="5.53567">
        <ele>347</ele>
        <time>2018-02-20T11:57:03.000Z</time>
      </trkpt>
      <trkpt lat="43.53927" lon="5.53567">
        <ele>347</ele>
        <time>2018-02-20T11:57:04.000Z</time>
      </trkpt>
      <trkpt lat="43.53926" lon="5.53567">
        <ele>348</ele>
        <time>2018-02-20T11:57:05.000Z</time>
      </trkpt>
      <trkpt lat="43.53926" lon="5.53567">
        <ele>348</ele>
        <time>2018-02-20T11:57:06.000Z</time>
      </trkpt>
      <trkpt lat="43.53926" lon="5.53567">
        <ele>348</ele>
        <time>2018-02-20T11:57:07.000Z</time>
      </trkpt>
      <trkpt lat="43.53926" lon="5.53568">
        <ele>348</ele>
        <time>2018-02-20T11:57:08.000Z</time>
      </trkpt>
      <trkpt lat="43.53925" lon="5.53568">
        <ele>348</ele>
        <time>2018-02-20T11:57:09.000Z</time>
      </trkpt>
      <trkpt lat="43.53924" lon="5.53568">
        <ele>349</ele>
        <time>2018-02-20T11:57:10.000Z</time>
      </trkpt>
      <trkpt lat="43.53924" lon="5.53568">
        <ele>349</ele>
        <time>2018-02-20T11:57:11.000Z</time>
      </trkpt>
      <trkpt lat="43.53924" lon="5.53569">
        <ele>349</ele>
        <time>2018-02-20T11:57:12.000Z</time>
      </trkpt>
      <trkpt lat="43.53924" lon="5.53569">
        <ele>349</ele>
        <time>2018-02-20T11:57:13.000Z</time>
      </trkpt>
      <trkpt lat="43.53923" lon="5.53569">
        <ele>349</ele>
        <time>2018-02-20T11:57:14.000Z</time>
      </trkpt>
      <trkpt lat="43.53923" lon="5.5357">
        <ele>349</ele>
        <time>2018-02-20T11:57:15.000Z</time>
      </trkpt>
      <trkpt lat="43.53923" lon="5.5357">
        <ele>350</ele>
        <time>2018-02-20T11:57:16.000Z</time>
      </trkpt>
      <trkpt lat="43.53922" lon="5.53571">
        <ele>350</ele>
        <time>2018-02-20T11:57:17.000Z</time>
      </trkpt>
      <trkpt lat="43.53922" lon="5.53571">
        <ele>350</ele>
        <time>2018-02-20T11:57:18.000Z</time>
      </trkpt>
      <trkpt lat="43.53922" lon="5.53571">
        <ele>350</ele>
        <time>2018-02-20T11:57:19.000Z</time>
      </trkpt>
      <trkpt lat="43.53922" lon="5.53572">
        <ele>350</ele>
        <time>2018-02-20T11:57:20.000Z</time>
      </trkpt>
      <trkpt lat="43.53923" lon="5.53572">
        <ele>350</ele>
        <time>2018-02-20T11:57:21.000Z</time>
      </trkpt>
      <trkpt lat="43.53923" lon="5.53572">
        <ele>350</ele>
        <time>2018-02-20T11:57:22.000Z</time>
      </trkpt>
      <trkpt lat="43.53923" lon="5.53572">
        <ele>351</ele>
        <time>2018-02-20T11:57:23.000Z</time>
      </trkpt>
      <trkpt lat="43.53923" lon="5.53572">
        <ele>351</ele>
        <time>2018-02-20T11:57:24.000Z</time>
      </trkpt>
      <trkpt lat="43.53923" lon="5.53572">
        <ele>351</ele>
        <time>2018-02-20T11:57:25.000Z</time>
      </trkpt>
      <trkpt lat="43.53923" lon="5.53572">
        <ele>351</ele>
        <time>2018-02-20T11:57:26.000Z</time>
      </trkpt>
      <trkpt lat="43.53923" lon="5.53572">
        <ele>351</ele>
        <time>2018-02-20T11:57:27.000Z</time>
      </trkpt>
      <trkpt lat="43.53923" lon="5.53572">
        <ele>351</ele>
        <time>2018-02-20T11:57:28.000Z</time>
      </trkpt>
      <trkpt lat="43.53923" lon="5.53572">
        <ele>351</ele>
        <time>2018-02-20T11:57:29.000Z</time>
      </trkpt>
      <trkpt lat="43.53923" lon="5.53572">
        <ele>351</ele>
        <time>2018-02-20T11:57:30.000Z</time>
      </trkpt>
      <trkpt lat="43.53923" lon="5.53573">
        <ele>351</ele>
        <time>2018-02-20T11:57:31.000Z</time>
      </trkpt>
      <trkpt lat="43.53924" lon="5.53574">
        <ele>351</ele>
        <time>2018-02-20T11:57:32.000Z</time>
      </trkpt>
      <trkpt lat="43.53924" lon="5.53574">
        <ele>351</ele>
        <time>2018-02-20T11:57:33.000Z</time>
      </trkpt>
      <trkpt lat="43.53924" lon="5.53575">
        <ele>351</ele>
        <time>2018-02-20T11:57:34.000Z</time>
      </trkpt>
      <trkpt lat="43.53925" lon="5.53576">
        <ele>351</ele>
        <time>2018-02-20T11:57:35.000Z</time>
      </trkpt>
      <trkpt lat="43.53925" lon="5.53577">
        <ele>351</ele>
        <time>2018-02-20T11:57:36.000Z</time>
      </trkpt>
      <trkpt lat="43.53926" lon="5.53577">
        <ele>351</ele>
        <time>2018-02-20T11:57:37.000Z</time>
      </trkpt>
      <trkpt lat="43.53926" lon="5.53578">
        <ele>351</ele>
        <time>2018-02-20T11:57:38.000Z</time>
      </trkpt>
      <trkpt lat="43.53927" lon="5.53579">
        <ele>351</ele>
        <time>2018-02-20T11:57:39.000Z</time>
      </trkpt>
      <trkpt lat="43.53927" lon="5.5358">
        <ele>350</ele>
        <time>2018-02-20T11:57:40.000Z</time>
      </trkpt>
      <trkpt lat="43.53927" lon="5.5358">
        <ele>350</ele>
        <time>2018-02-20T11:57:41.000Z</time>
      </trkpt>
      <trkpt lat="43.53928" lon="5.53581">
        <ele>350</ele>
        <time>2018-02-20T11:57:42.000Z</time>
      </trkpt>
      <trkpt lat="43.53928" lon="5.53582">
        <ele>350</ele>
        <time>2018-02-20T11:57:43.000Z</time>
      </trkpt>
      <trkpt lat="43.53928" lon="5.53582">
        <ele>350</ele>
        <time>2018-02-20T11:57:44.000Z</time>
      </trkpt>
      <trkpt lat="43.53929" lon="5.53583">
        <ele>350</ele>
        <time>2018-02-20T11:57:45.000Z</time>
      </trkpt>
      <trkpt lat="43.53929" lon="5.53583">
        <ele>350</ele>
        <time>2018-02-20T11:57:46.000Z</time>
      </trkpt>
      <trkpt lat="43.53929" lon="5.53584">
        <ele>350</ele>
        <time>2018-02-20T11:57:47.000Z</time>
      </trkpt>
      <trkpt lat="43.53929" lon="5.53584">
        <ele>350</ele>
        <time>2018-02-20T11:57:48.000Z</time>
      </trkpt>
      <trkpt lat="43.53929" lon="5.53584">
        <ele>350</ele>
        <time>2018-02-20T11:57:49.000Z</time>
      </trkpt>
      <trkpt lat="43.5393" lon="5.53583">
        <ele>350</ele>
        <time>2018-02-20T11:57:50.000Z</time>
      </trkpt>
      <trkpt lat="43.5393" lon="5.53583">
        <ele>350</ele>
        <time>2018-02-20T11:57:51.000Z</time>
      </trkpt>
      <trkpt lat="43.5393" lon="5.53583">
        <ele>350</ele>
        <time>2018-02-20T11:57:52.000Z</time>
      </trkpt>
      <trkpt lat="43.5393" lon="5.53583">
        <ele>350</ele>
        <time>2018-02-20T11:57:53.000Z</time>
      </trkpt>
      <trkpt lat="43.5393" lon="5.53583">
        <ele>350</ele>
        <time>2018-02-20T11:57:54.000Z</time>
      </trkpt>
      <trkpt lat="43.5393" lon="5.53583">
        <ele>350</ele>
        <time>2018-02-20T11:57:55.000Z</time>
      </trkpt>
      <trkpt lat="43.5393" lon="5.53584">
        <ele>350</ele>
        <time>2018-02-20T11:57:56.000Z</time>
      </trkpt>
      <trkpt lat="43.5393" lon="5.53584">
        <ele>350</ele>
        <time>2018-02-20T11:57:57.000Z</time>
      </trkpt>
      <trkpt lat="43.5393" lon="5.53585">
        <ele>350</ele>
        <time>2018-02-20T11:57:58.000Z</time>
      </trkpt>
      <trkpt lat="43.53931" lon="5.53585">
        <ele>350</ele>
        <time>2018-02-20T11:57:59.000Z</time>
      </trkpt>
      <trkpt lat="43.53931" lon="5.53586">
        <ele>350</ele>
        <time>2018-02-20T11:58:00.000Z</time>
      </trkpt>
      <trkpt lat="43.53931" lon="5.53587">
        <ele>350</ele>
        <time>2018-02-20T11:58:01.000Z</time>
      </trkpt>
      <trkpt lat="43.53931" lon="5.53587">
        <ele>350</ele>
        <time>2018-02-20T11:58:02.000Z</time>
      </trkpt>
      <trkpt lat="43.53932" lon="5.53588">
        <ele>349</ele>
        <time>2018-02-20T11:58:03.000Z</time>
      </trkpt>
      <trkpt lat="43.53932" lon="5.53589">
        <ele>349</ele>
        <time>2018-02-20T11:58:04.000Z</time>
      </trkpt>
      <trkpt lat="43.53933" lon="5.53591">
        <ele>349</ele>
        <time>2018-02-20T11:58:05.000Z</time>
      </trkpt>
      <trkpt lat="43.53934" lon="5.53592">
        <ele>349</ele>
        <time>2018-02-20T11:58:06.000Z</time>
      </trkpt>
      <trkpt lat="43.53934" lon="5.53593">
        <ele>349</ele>
        <time>2018-02-20T11:58:07.000Z</time>
      </trkpt>
      <trkpt lat="43.53935" lon="5.53594">
        <ele>349</ele>
        <time>2018-02-20T11:58:08.000Z</time>
      </trkpt>
      <trkpt lat="43.53936" lon="5.53595">
        <ele>349</ele>
        <time>2018-02-20T11:58:09.000Z</time>
      </trkpt>
      <trkpt lat="43.53937" lon="5.53596">
        <ele>349</ele>
        <time>2018-02-20T11:58:10.000Z</time>
      </trkpt>
      <trkpt lat="43.53938" lon="5.53597">
        <ele>349</ele>
        <time>2018-02-20T11:58:11.000Z</time>
      </trkpt>
      <trkpt lat="43.53938" lon="5.53598">
        <ele>349</ele>
        <time>2018-02-20T11:58:12.000Z</time>
      </trkpt>
      <trkpt lat="43.53939" lon="5.53599">
        <ele>349</ele>
        <time>2018-02-20T11:58:13.000Z</time>
      </trkpt>
      <trkpt lat="43.5394" lon="5.536">
        <ele>349</ele>
        <time>2018-02-20T11:58:14.000Z</time>
      </trkpt>
      <trkpt lat="43.53941" lon="5.53601">
        <ele>349</ele>
        <time>2018-02-20T11:58:15.000Z</time>
      </trkpt>
      <trkpt lat="43.53941" lon="5.53603">
        <ele>349</ele>
        <time>2018-02-20T11:58:16.000Z</time>
      </trkpt>
      <trkpt lat="43.53941" lon="5.53604">
        <ele>348</ele>
        <time>2018-02-20T11:58:17.000Z</time>
      </trkpt>
      <trkpt lat="43.53942" lon="5.53605">
        <ele>348</ele>
        <time>2018-02-20T11:58:18.000Z</time>
      </trkpt>
      <trkpt lat="43.53942" lon="5.53606">
        <ele>348</ele>
        <time>2018-02-20T11:58:19.000Z</time>
      </trkpt>
      <trkpt lat="43.53942" lon="5.53607">
        <ele>348</ele>
        <time>2018-02-20T11:58:20.000Z</time>
      </trkpt>
      <trkpt lat="43.53942" lon="5.53607">
        <ele>348</ele>
        <time>2018-02-20T11:58:21.000Z</time>
      </trkpt>
      <trkpt lat="43.53943" lon="5.53608">
        <ele>348</ele>
        <time>2018-02-20T11:58:22.000Z</time>
      </trkpt>
      <trkpt lat="43.53943" lon="5.53609">
        <ele>348</ele>
        <time>2018-02-20T11:58:23.000Z</time>
      </trkpt>
      <trkpt lat="43.53944" lon="5.5361">
        <ele>348</ele>
        <time>2018-02-20T11:58:24.000Z</time>
      </trkpt>
      <trkpt lat="43.53945" lon="5.53611">
        <ele>348</ele>
        <time>2018-02-20T11:58:25.000Z</time>
      </trkpt>
      <trkpt lat="43.53946" lon="5.53611">
        <ele>348</ele>
        <time>2018-02-20T11:58:26.000Z</time>
      </trkpt>
      <trkpt lat="43.53947" lon="5.53612">
        <ele>348</ele>
        <time>2018-02-20T11:58:27.000Z</time>
      </trkpt>
      <trkpt lat="43.53947" lon="5.53613">
        <ele>348</ele>
        <time>2018-02-20T11:58:28.000Z</time>
      </trkpt>
      <trkpt lat="43.53948" lon="5.53613">
        <ele>348</ele>
        <time>2018-02-20T11:58:29.000Z</time>
      </trkpt>
      <trkpt lat="43.53949" lon="5.53614">
        <ele>348</ele>
        <time>2018-02-20T11:58:30.000Z</time>
      </trkpt>
      <trkpt lat="43.53949" lon="5.53615">
        <ele>348</ele>
        <time>2018-02-20T11:58:31.000Z</time>
      </trkpt>
      <trkpt lat="43.53949" lon="5.53616">
        <ele>348</ele>
        <time>2018-02-20T11:58:32.000Z</time>
      </trkpt>
      <trkpt lat="43.53949" lon="5.53617">
        <ele>348</ele>
        <time>2018-02-20T11:58:33.000Z</time>
      </trkpt>
      <trkpt lat="43.53949" lon="5.53617">
        <ele>348</ele>
        <time>2018-02-20T11:58:34.000Z</time>
      </trkpt>
      <trkpt lat="43.5395" lon="5.53618">
        <ele>348</ele>
        <time>2018-02-20T11:58:35.000Z</time>
      </trkpt>
      <trkpt lat="43.5395" lon="5.53619">
        <ele>348</ele>
        <time>2018-02-20T11:58:36.000Z</time>
      </trkpt>
      <trkpt lat="43.53951" lon="5.53619">
        <ele>348</ele>
        <time>2018-02-20T11:58:37.000Z</time>
      </trkpt>
      <trkpt lat="43.53951" lon="5.5362">
        <ele>348</ele>
        <time>2018-02-20T11:58:38.000Z</time>
      </trkpt>
      <trkpt lat="43.53952" lon="5.53621">
        <ele>349</ele>
        <time>2018-02-20T11:58:39.000Z</time>
      </trkpt>
      <trkpt lat="43.53952" lon="5.53622">
        <ele>349</ele>
        <time>2018-02-20T11:58:40.000Z</time>
      </trkpt>
      <trkpt lat="43.53951" lon="5.53623">
        <ele>348</ele>
        <time>2018-02-20T11:58:41.000Z</time>
      </trkpt>
      <trkpt lat="43.53951" lon="5.53624">
        <ele>348</ele>
        <time>2018-02-20T11:58:42.000Z</time>
      </trkpt>
      <trkpt lat="43.53951" lon="5.53625">
        <ele>348</ele>
        <time>2018-02-20T11:58:43.000Z</time>
      </trkpt>
      <trkpt lat="43.53951" lon="5.53626">
        <ele>348</ele>
        <time>2018-02-20T11:58:44.000Z</time>
      </trkpt>
      <trkpt lat="43.53951" lon="5.53626">
        <ele>348</ele>
        <time>2018-02-20T11:58:45.000Z</time>
      </trkpt>
      <trkpt lat="43.53951" lon="5.53626">
        <ele>348</ele>
        <time>2018-02-20T11:58:46.000Z</time>
      </trkpt>
      <trkpt lat="43.53951" lon="5.53626">
        <ele>348</ele>
        <time>2018-02-20T11:58:47.000Z</time>
      </trkpt>
      <trkpt lat="43.53951" lon="5.53626">
        <ele>348</ele>
        <time>2018-02-20T11:58:48.000Z</time>
      </trkpt>
      <trkpt lat="43.53951" lon="5.53626">
        <ele>348</ele>
        <time>2018-02-20T11:58:49.000Z</time>
      </trkpt>
      <trkpt lat="43.53951" lon="5.53626">
        <ele>348</ele>
        <time>2018-02-20T11:58:50.000Z</time>
      </trkpt>
      <trkpt lat="43.53951" lon="5.53626">
        <ele>348</ele>
        <time>2018-02-20T11:58:51.000Z</time>
      </trkpt>
      <trkpt lat="43.53951" lon="5.53627">
        <ele>348</ele>
        <time>2018-02-20T11:58:52.000Z</time>
      </trkpt>
      <trkpt lat="43.53951" lon="5.53628">
        <ele>348</ele>
        <time>2018-02-20T11:58:53.000Z</time>
      </trkpt>
      <trkpt lat="43.53951" lon="5.53628">
        <ele>348</ele>
        <time>2018-02-20T11:58:54.000Z</time>
      </trkpt>
      <trkpt lat="43.53951" lon="5.5363">
        <ele>348</ele>
        <time>2018-02-20T11:58:55.000Z</time>
      </trkpt>
      <trkpt lat="43.53951" lon="5.53631">
        <ele>348</ele>
        <time>2018-02-20T11:58:56.000Z</time>
      </trkpt>
      <trkpt lat="43.53951" lon="5.53632">
        <ele>348</ele>
        <time>2018-02-20T11:58:57.000Z</time>
      </trkpt>
      <trkpt lat="43.53951" lon="5.53633">
        <ele>348</ele>
        <time>2018-02-20T11:58:58.000Z</time>
      </trkpt>
      <trkpt lat="43.53951" lon="5.53633">
        <ele>348</ele>
        <time>2018-02-20T11:58:59.000Z</time>
      </trkpt>
      <trkpt lat="43.53952" lon="5.53635">
        <ele>348</ele>
        <time>2018-02-20T11:59:00.000Z</time>
      </trkpt>
      <trkpt lat="43.53952" lon="5.53636">
        <ele>348</ele>
        <time>2018-02-20T11:59:01.000Z</time>
      </trkpt>
      <trkpt lat="43.53952" lon="5.53637">
        <ele>348</ele>
        <time>2018-02-20T11:59:02.000Z</time>
      </trkpt>
      <trkpt lat="43.53953" lon="5.53638">
        <ele>347</ele>
        <time>2018-02-20T11:59:03.000Z</time>
      </trkpt>
      <trkpt lat="43.53953" lon="5.53639">
        <ele>347</ele>
        <time>2018-02-20T11:59:04.000Z</time>
      </trkpt>
      <trkpt lat="43.53953" lon="5.53639">
        <ele>347</ele>
        <time>2018-02-20T11:59:05.000Z</time>
      </trkpt>
      <trkpt lat="43.53954" lon="5.5364">
        <ele>347</ele>
        <time>2018-02-20T11:59:06.000Z</time>
      </trkpt>
      <trkpt lat="43.53954" lon="5.53641">
        <ele>347</ele>
        <time>2018-02-20T11:59:07.000Z</time>
      </trkpt>
      <trkpt lat="43.53954" lon="5.53642">
        <ele>347</ele>
        <time>2018-02-20T11:59:08.000Z</time>
      </trkpt>
      <trkpt lat="43.53954" lon="5.53643">
        <ele>346</ele>
        <time>2018-02-20T11:59:09.000Z</time>
      </trkpt>
      <trkpt lat="43.53954" lon="5.53644">
        <ele>346</ele>
        <time>2018-02-20T11:59:10.000Z</time>
      </trkpt>
      <trkpt lat="43.53954" lon="5.53645">
        <ele>346</ele>
        <time>2018-02-20T11:59:11.000Z</time>
      </trkpt>
      <trkpt lat="43.53954" lon="5.53646">
        <ele>346</ele>
        <time>2018-02-20T11:59:12.000Z</time>
      </trkpt>
      <trkpt lat="43.53955" lon="5.53647">
        <ele>345</ele>
        <time>2018-02-20T11:59:13.000Z</time>
      </trkpt>
      <trkpt lat="43.53955" lon="5.53648">
        <ele>345</ele>
        <time>2018-02-20T11:59:14.000Z</time>
      </trkpt>
      <trkpt lat="43.53955" lon="5.53649">
        <ele>345</ele>
        <time>2018-02-20T11:59:15.000Z</time>
      </trkpt>
      <trkpt lat="43.53956" lon="5.53649">
        <ele>345</ele>
        <time>2018-02-20T11:59:16.000Z</time>
      </trkpt>
      <trkpt lat="43.53956" lon="5.5365">
        <ele>344</ele>
        <time>2018-02-20T11:59:17.000Z</time>
      </trkpt>
      <trkpt lat="43.53956" lon="5.53651">
        <ele>344</ele>
        <time>2018-02-20T11:59:18.000Z</time>
      </trkpt>
      <trkpt lat="43.53956" lon="5.53652">
        <ele>344</ele>
        <time>2018-02-20T11:59:19.000Z</time>
      </trkpt>
      <trkpt lat="43.53956" lon="5.53653">
        <ele>344</ele>
        <time>2018-02-20T11:59:20.000Z</time>
      </trkpt>
      <trkpt lat="43.53956" lon="5.53654">
        <ele>343</ele>
        <time>2018-02-20T11:59:21.000Z</time>
      </trkpt>
      <trkpt lat="43.53956" lon="5.53655">
        <ele>343</ele>
        <time>2018-02-20T11:59:22.000Z</time>
      </trkpt>
      <trkpt lat="43.53956" lon="5.53657">
        <ele>343</ele>
        <time>2018-02-20T11:59:23.000Z</time>
      </trkpt>
      <trkpt lat="43.53955" lon="5.53658">
        <ele>343</ele>
        <time>2018-02-20T11:59:24.000Z</time>
      </trkpt>
      <trkpt lat="43.53955" lon="5.53658">
        <ele>343</ele>
        <time>2018-02-20T11:59:25.000Z</time>
      </trkpt>
      <trkpt lat="43.53955" lon="5.53659">
        <ele>343</ele>
        <time>2018-02-20T11:59:26.000Z</time>
      </trkpt>
      <trkpt lat="43.53955" lon="5.5366">
        <ele>343</ele>
        <time>2018-02-20T11:59:27.000Z</time>
      </trkpt>
      <trkpt lat="43.53955" lon="5.53661">
        <ele>342</ele>
        <time>2018-02-20T11:59:28.000Z</time>
      </trkpt>
      <trkpt lat="43.53956" lon="5.53662">
        <ele>342</ele>
        <time>2018-02-20T11:59:29.000Z</time>
      </trkpt>
      <trkpt lat="43.53956" lon="5.53663">
        <ele>342</ele>
        <time>2018-02-20T11:59:30.000Z</time>
      </trkpt>
      <trkpt lat="43.53956" lon="5.53664">
        <ele>342</ele>
        <time>2018-02-20T11:59:31.000Z</time>
      </trkpt>
      <trkpt lat="43.53956" lon="5.53664">
        <ele>342</ele>
        <time>2018-02-20T11:59:32.000Z</time>
      </trkpt>
      <trkpt lat="43.53957" lon="5.53665">
        <ele>342</ele>
        <time>2018-02-20T11:59:33.000Z</time>
      </trkpt>
      <trkpt lat="43.53957" lon="5.53665">
        <ele>342</ele>
        <time>2018-02-20T11:59:34.000Z</time>
      </trkpt>
      <trkpt lat="43.53957" lon="5.53665">
        <ele>342</ele>
        <time>2018-02-20T11:59:35.000Z</time>
      </trkpt>
      <trkpt lat="43.53957" lon="5.53664">
        <ele>342</ele>
        <time>2018-02-20T11:59:36.000Z</time>
      </trkpt>
      <trkpt lat="43.53958" lon="5.53664">
        <ele>342</ele>
        <time>2018-02-20T11:59:37.000Z</time>
      </trkpt>
      <trkpt lat="43.53958" lon="5.53664">
        <ele>342</ele>
        <time>2018-02-20T11:59:38.000Z</time>
      </trkpt>
      <trkpt lat="43.53958" lon="5.53664">
        <ele>342</ele>
        <time>2018-02-20T11:59:39.000Z</time>
      </trkpt>
      <trkpt lat="43.53959" lon="5.53665">
        <ele>342</ele>
        <time>2018-02-20T11:59:40.000Z</time>
      </trkpt>
      <trkpt lat="43.53959" lon="5.53665">
        <ele>342</ele>
        <time>2018-02-20T11:59:41.000Z</time>
      </trkpt>
      <trkpt lat="43.53959" lon="5.53665">
        <ele>342</ele>
        <time>2018-02-20T11:59:42.000Z</time>
      </trkpt>
      <trkpt lat="43.53959" lon="5.53664">
        <ele>342</ele>
        <time>2018-02-20T11:59:43.000Z</time>
      </trkpt>
      <trkpt lat="43.53959" lon="5.53665">
        <ele>342</ele>
        <time>2018-02-20T11:59:44.000Z</time>
      </trkpt>
      <trkpt lat="43.5396" lon="5.53665">
        <ele>342</ele>
        <time>2018-02-20T11:59:45.000Z</time>
      </trkpt>
      <trkpt lat="43.5396" lon="5.53665">
        <ele>342</ele>
        <time>2018-02-20T11:59:46.000Z</time>
      </trkpt>
      <trkpt lat="43.5396" lon="5.53666">
        <ele>342</ele>
        <time>2018-02-20T11:59:47.000Z</time>
      </trkpt>
      <trkpt lat="43.5396" lon="5.53666">
        <ele>342</ele>
        <time>2018-02-20T11:59:48.000Z</time>
      </trkpt>
      <trkpt lat="43.5396" lon="5.53668">
        <ele>342</ele>
        <time>2018-02-20T11:59:49.000Z</time>
      </trkpt>
      <trkpt lat="43.53959" lon="5.53669">
        <ele>342</ele>
        <time>2018-02-20T11:59:50.000Z</time>
      </trkpt>
      <trkpt lat="43.53959" lon="5.53671">
        <ele>342</ele>
        <time>2018-02-20T11:59:51.000Z</time>
      </trkpt>
      <trkpt lat="43.53959" lon="5.53672">
        <ele>342</ele>
        <time>2018-02-20T11:59:52.000Z</time>
      </trkpt>
      <trkpt lat="43.53959" lon="5.53673">
        <ele>342</ele>
        <time>2018-02-20T11:59:53.000Z</time>
      </trkpt>
      <trkpt lat="43.53959" lon="5.53675">
        <ele>342</ele>
        <time>2018-02-20T11:59:54.000Z</time>
      </trkpt>
      <trkpt lat="43.53959" lon="5.53676">
        <ele>342</ele>
        <time>2018-02-20T11:59:55.000Z</time>
      </trkpt>
      <trkpt lat="43.53959" lon="5.53678">
        <ele>342</ele>
        <time>2018-02-20T11:59:56.000Z</time>
      </trkpt>
      <trkpt lat="43.53959" lon="5.53679">
        <ele>342</ele>
        <time>2018-02-20T11:59:57.000Z</time>
      </trkpt>
      <trkpt lat="43.53959" lon="5.5368">
        <ele>342</ele>
        <time>2018-02-20T11:59:58.000Z</time>
      </trkpt>
      <trkpt lat="43.53959" lon="5.5368">
        <ele>342</ele>
        <time>2018-02-20T11:59:59.000Z</time>
      </trkpt>
      <trkpt lat="43.53959" lon="5.53681">
        <ele>342</ele>
        <time>2018-02-20T12:00:00.000Z</time>
      </trkpt>
      <trkpt lat="43.53959" lon="5.53681">
        <ele>342</ele>
        <time>2018-02-20T12:00:01.000Z</time>
      </trkpt>
      <trkpt lat="43.53959" lon="5.53682">
        <ele>342</ele>
        <time>2018-02-20T12:00:02.000Z</time>
      </trkpt>
      <trkpt lat="43.53959" lon="5.53683">
        <ele>342</ele>
        <time>2018-02-20T12:00:03.000Z</time>
      </trkpt>
      <trkpt lat="43.53959" lon="5.53684">
        <ele>342</ele>
        <time>2018-02-20T12:00:04.000Z</time>
      </trkpt>
      <trkpt lat="43.5396" lon="5.53686">
        <ele>342</ele>
        <time>2018-02-20T12:00:05.000Z</time>
      </trkpt>
      <trkpt lat="43.5396" lon="5.53687">
        <ele>341</ele>
        <time>2018-02-20T12:00:06.000Z</time>
      </trkpt>
      <trkpt lat="43.5396" lon="5.53687">
        <ele>341</ele>
        <time>2018-02-20T12:00:07.000Z</time>
      </trkpt>
      <trkpt lat="43.5396" lon="5.53688">
        <ele>341</ele>
        <time>2018-02-20T12:00:08.000Z</time>
      </trkpt>
      <trkpt lat="43.53961" lon="5.53688">
        <ele>341</ele>
        <time>2018-02-20T12:00:09.000Z</time>
      </trkpt>
      <trkpt lat="43.53961" lon="5.53688">
        <ele>341</ele>
        <time>2018-02-20T12:00:10.000Z</time>
      </trkpt>
      <trkpt lat="43.53961" lon="5.53688">
        <ele>341</ele>
        <time>2018-02-20T12:00:11.000Z</time>
      </trkpt>
      <trkpt lat="43.53962" lon="5.53688">
        <ele>341</ele>
        <time>2018-02-20T12:00:12.000Z</time>
      </trkpt>
      <trkpt lat="43.53962" lon="5.53688">
        <ele>341</ele>
        <time>2018-02-20T12:00:13.000Z</time>
      </trkpt>
      <trkpt lat="43.53962" lon="5.53688">
        <ele>341</ele>
        <time>2018-02-20T12:00:14.000Z</time>
      </trkpt>
      <trkpt lat="43.53962" lon="5.53689">
        <ele>341</ele>
        <time>2018-02-20T12:00:15.000Z</time>
      </trkpt>
      <trkpt lat="43.53962" lon="5.53689">
        <ele>341</ele>
        <time>2018-02-20T12:00:16.000Z</time>
      </trkpt>
      <trkpt lat="43.53962" lon="5.53689">
        <ele>341</ele>
        <time>2018-02-20T12:00:17.000Z</time>
      </trkpt>
      <trkpt lat="43.53962" lon="5.5369">
        <ele>341</ele>
        <time>2018-02-20T12:00:18.000Z</time>
      </trkpt>
      <trkpt lat="43.53962" lon="5.53691">
        <ele>341</ele>
        <time>2018-02-20T12:00:19.000Z</time>
      </trkpt>
      <trkpt lat="43.53962" lon="5.53693">
        <ele>340</ele>
        <time>2018-02-20T12:00:20.000Z</time>
      </trkpt>
      <trkpt lat="43.53962" lon="5.53694">
        <ele>340</ele>
        <time>2018-02-20T12:00:21.000Z</time>
      </trkpt>
      <trkpt lat="43.53962" lon="5.53695">
        <ele>340</ele>
        <time>2018-02-20T12:00:22.000Z</time>
      </trkpt>
      <trkpt lat="43.53962" lon="5.53696">
        <ele>340</ele>
        <time>2018-02-20T12:00:23.000Z</time>
      </trkpt>
      <trkpt lat="43.53962" lon="5.53697">
        <ele>340</ele>
        <time>2018-02-20T12:00:24.000Z</time>
      </trkpt>
      <trkpt lat="43.53963" lon="5.53698">
        <ele>340</ele>
        <time>2018-02-20T12:00:25.000Z</time>
      </trkpt>
      <trkpt lat="43.53963" lon="5.537">
        <ele>340</ele>
        <time>2018-02-20T12:00:26.000Z</time>
      </trkpt>
      <trkpt lat="43.53963" lon="5.53701">
        <ele>340</ele>
        <time>2018-02-20T12:00:27.000Z</time>
      </trkpt>
      <trkpt lat="43.53963" lon="5.53702">
        <ele>340</ele>
        <time>2018-02-20T12:00:28.000Z</time>
      </trkpt>
      <trkpt lat="43.53963" lon="5.53702">
        <ele>340</ele>
        <time>2018-02-20T12:00:29.000Z</time>
      </trkpt>
      <trkpt lat="43.53963" lon="5.53703">
        <ele>340</ele>
        <time>2018-02-20T12:00:30.000Z</time>
      </trkpt>
      <trkpt lat="43.53963" lon="5.53704">
        <ele>340</ele>
        <time>2018-02-20T12:00:31.000Z</time>
      </trkpt>
      <trkpt lat="43.53964" lon="5.53705">
        <ele>339</ele>
        <time>2018-02-20T12:00:32.000Z</time>
      </trkpt>
      <trkpt lat="43.53964" lon="5.53705">
        <ele>339</ele>
        <time>2018-02-20T12:00:33.000Z</time>
      </trkpt>
      <trkpt lat="43.53964" lon="5.53705">
        <ele>339</ele>
        <time>2018-02-20T12:00:34.000Z</time>
      </trkpt>
      <trkpt lat="43.53964" lon="5.53705">
        <ele>339</ele>
        <time>2018-02-20T12:00:35.000Z</time>
      </trkpt>
      <trkpt lat="43.53965" lon="5.53706">
        <ele>339</ele>
        <time>2018-02-20T12:00:36.000Z</time>
      </trkpt>
      <trkpt lat="43.53965" lon="5.53707">
        <ele>339</ele>
        <time>2018-02-20T12:00:37.000Z</time>
      </trkpt>
      <trkpt lat="43.53965" lon="5.53708">
        <ele>339</ele>
        <time>2018-02-20T12:00:38.000Z</time>
      </trkpt>
      <trkpt lat="43.53965" lon="5.53709">
        <ele>339</ele>
        <time>2018-02-20T12:00:39.000Z</time>
      </trkpt>
      <trkpt lat="43.53966" lon="5.5371">
        <ele>339</ele>
        <time>2018-02-20T12:00:40.000Z</time>
      </trkpt>
      <trkpt lat="43.53966" lon="5.5371">
        <ele>339</ele>
        <time>2018-02-20T12:00:41.000Z</time>
      </trkpt>
      <trkpt lat="43.53967" lon="5.53711">
        <ele>339</ele>
        <time>2018-02-20T12:00:42.000Z</time>
      </trkpt>
      <trkpt lat="43.53967" lon="5.53712">
        <ele>339</ele>
        <time>2018-02-20T12:00:43.000Z</time>
      </trkpt>
      <trkpt lat="43.53967" lon="5.53712">
        <ele>339</ele>
        <time>2018-02-20T12:00:44.000Z</time>
      </trkpt>
      <trkpt lat="43.53968" lon="5.53712">
        <ele>339</ele>
        <time>2018-02-20T12:00:45.000Z</time>
      </trkpt>
      <trkpt lat="43.53968" lon="5.53712">
        <ele>339</ele>
        <time>2018-02-20T12:00:46.000Z</time>
      </trkpt>
      <trkpt lat="43.53968" lon="5.53712">
        <ele>339</ele>
        <time>2018-02-20T12:00:47.000Z</time>
      </trkpt>
      <trkpt lat="43.53968" lon="5.53712">
        <ele>339</ele>
        <time>2018-02-20T12:00:48.000Z</time>
      </trkpt>
      <trkpt lat="43.53968" lon="5.53712">
        <ele>339</ele>
        <time>2018-02-20T12:00:49.000Z</time>
      </trkpt>
      <trkpt lat="43.53968" lon="5.53712">
        <ele>340</ele>
        <time>2018-02-20T12:00:50.000Z</time>
      </trkpt>
      <trkpt lat="43.53969" lon="5.53712">
        <ele>340</ele>
        <time>2018-02-20T12:00:51.000Z</time>
      </trkpt>
      <trkpt lat="43.53969" lon="5.53712">
        <ele>340</ele>
        <time>2018-02-20T12:00:52.000Z</time>
      </trkpt>
      <trkpt lat="43.53969" lon="5.53712">
        <ele>340</ele>
        <time>2018-02-20T12:00:53.000Z</time>
      </trkpt>
      <trkpt lat="43.53969" lon="5.53712">
        <ele>340</ele>
        <time>2018-02-20T12:00:54.000Z</time>
      </trkpt>
      <trkpt lat="43.53969" lon="5.53712">
        <ele>340</ele>
        <time>2018-02-20T12:00:55.000Z</time>
      </trkpt>
      <trkpt lat="43.53969" lon="5.53712">
        <ele>340</ele>
        <time>2018-02-20T12:00:56.000Z</time>
      </trkpt>
      <trkpt lat="43.53969" lon="5.53712">
        <ele>340</ele>
        <time>2018-02-20T12:00:57.000Z</time>
      </trkpt>
      <trkpt lat="43.53969" lon="5.53712">
        <ele>340</ele>
        <time>2018-02-20T12:00:58.000Z</time>
      </trkpt>
      <trkpt lat="43.5397" lon="5.53712">
        <ele>340</ele>
        <time>2018-02-20T12:00:59.000Z</time>
      </trkpt>
      <trkpt lat="43.5397" lon="5.53712">
        <ele>340</ele>
        <time>2018-02-20T12:01:00.000Z</time>
      </trkpt>
      <trkpt lat="43.5397" lon="5.53712">
        <ele>340</ele>
        <time>2018-02-20T12:01:01.000Z</time>
      </trkpt>
      <trkpt lat="43.5397" lon="5.53712">
        <ele>340</ele>
        <time>2018-02-20T12:01:02.000Z</time>
      </trkpt>
      <trkpt lat="43.5397" lon="5.53712">
        <ele>340</ele>
        <time>2018-02-20T12:01:03.000Z</time>
      </trkpt>
      <trkpt lat="43.5397" lon="5.53712">
        <ele>340</ele>
        <time>2018-02-20T12:01:04.000Z</time>
      </trkpt>
      <trkpt lat="43.5397" lon="5.53712">
        <ele>340</ele>
        <time>2018-02-20T12:01:05.000Z</time>
      </trkpt>
      <trkpt lat="43.5397" lon="5.53712">
        <ele>340</ele>
        <time>2018-02-20T12:01:06.000Z</time>
      </trkpt>
      <trkpt lat="43.5397" lon="5.53712">
        <ele>340</ele>
        <time>2018-02-20T12:01:07.000Z</time>
      </trkpt>
      <trkpt lat="43.5397" lon="5.53712">
        <ele>340</ele>
        <time>2018-02-20T12:01:08.000Z</time>
      </trkpt>
      <trkpt lat="43.5397" lon="5.53713">
        <ele>340</ele>
        <time>2018-02-20T12:01:09.000Z</time>
      </trkpt>
      <trkpt lat="43.53971" lon="5.53713">
        <ele>340</ele>
        <time>2018-02-20T12:01:10.000Z</time>
      </trkpt>
      <trkpt lat="43.53971" lon="5.53714">
        <ele>340</ele>
        <time>2018-02-20T12:01:11.000Z</time>
      </trkpt>
      <trkpt lat="43.53971" lon="5.53715">
        <ele>340</ele>
        <time>2018-02-20T12:01:12.000Z</time>
      </trkpt>
      <trkpt lat="43.53971" lon="5.53716">
        <ele>340</ele>
        <time>2018-02-20T12:01:13.000Z</time>
      </trkpt>
      <trkpt lat="43.53971" lon="5.53718">
        <ele>341</ele>
        <time>2018-02-20T12:01:14.000Z</time>
      </trkpt>
      <trkpt lat="43.53971" lon="5.53718">
        <ele>341</ele>
        <time>2018-02-20T12:01:15.000Z</time>
      </trkpt>
      <trkpt lat="43.53971" lon="5.5372">
        <ele>341</ele>
        <time>2018-02-20T12:01:16.000Z</time>
      </trkpt>
      <trkpt lat="43.53971" lon="5.53721">
        <ele>341</ele>
        <time>2018-02-20T12:01:17.000Z</time>
      </trkpt>
      <trkpt lat="43.53971" lon="5.53722">
        <ele>341</ele>
        <time>2018-02-20T12:01:18.000Z</time>
      </trkpt>
      <trkpt lat="43.53971" lon="5.53723">
        <ele>341</ele>
        <time>2018-02-20T12:01:19.000Z</time>
      </trkpt>
      <trkpt lat="43.53971" lon="5.53724">
        <ele>342</ele>
        <time>2018-02-20T12:01:20.000Z</time>
      </trkpt>
      <trkpt lat="43.53971" lon="5.53725">
        <ele>342</ele>
        <time>2018-02-20T12:01:21.000Z</time>
      </trkpt>
      <trkpt lat="43.53971" lon="5.53725">
        <ele>342</ele>
        <time>2018-02-20T12:01:22.000Z</time>
      </trkpt>
      <trkpt lat="43.53971" lon="5.53725">
        <ele>342</ele>
        <time>2018-02-20T12:01:23.000Z</time>
      </trkpt>
      <trkpt lat="43.53971" lon="5.53725">
        <ele>342</ele>
        <time>2018-02-20T12:01:24.000Z</time>
      </trkpt>
      <trkpt lat="43.53971" lon="5.53725">
        <ele>342</ele>
        <time>2018-02-20T12:01:25.000Z</time>
      </trkpt>
      <trkpt lat="43.53971" lon="5.53725">
        <ele>342</ele>
        <time>2018-02-20T12:01:26.000Z</time>
      </trkpt>
      <trkpt lat="43.53971" lon="5.53725">
        <ele>342</ele>
        <time>2018-02-20T12:01:27.000Z</time>
      </trkpt>
      <trkpt lat="43.53971" lon="5.53725">
        <ele>342</ele>
        <time>2018-02-20T12:01:28.000Z</time>
      </trkpt>
      <trkpt lat="43.53971" lon="5.53725">
        <ele>342</ele>
        <time>2018-02-20T12:01:29.000Z</time>
      </trkpt>
      <trkpt lat="43.53971" lon="5.53725">
        <ele>342</ele>
        <time>2018-02-20T12:01:30.000Z</time>
      </trkpt>
      <trkpt lat="43.53972" lon="5.53726">
        <ele>342</ele>
        <time>2018-02-20T12:01:31.000Z</time>
      </trkpt>
      <trkpt lat="43.53972" lon="5.53726">
        <ele>342</ele>
        <time>2018-02-20T12:01:32.000Z</time>
      </trkpt>
      <trkpt lat="43.53972" lon="5.53727">
        <ele>342</ele>
        <time>2018-02-20T12:01:33.000Z</time>
      </trkpt>
      <trkpt lat="43.53972" lon="5.53727">
        <ele>341</ele>
        <time>2018-02-20T12:01:34.000Z</time>
      </trkpt>
      <trkpt lat="43.53972" lon="5.53728">
        <ele>341</ele>
        <time>2018-02-20T12:01:35.000Z</time>
      </trkpt>
      <trkpt lat="43.53973" lon="5.53729">
        <ele>341</ele>
        <time>2018-02-20T12:01:36.000Z</time>
      </trkpt>
      <trkpt lat="43.53973" lon="5.53729">
        <ele>341</ele>
        <time>2018-02-20T12:01:37.000Z</time>
      </trkpt>
      <trkpt lat="43.53973" lon="5.53729">
        <ele>341</ele>
        <time>2018-02-20T12:01:38.000Z</time>
      </trkpt>
      <trkpt lat="43.53973" lon="5.53729">
        <ele>341</ele>
        <time>2018-02-20T12:01:39.000Z</time>
      </trkpt>
      <trkpt lat="43.53973" lon="5.53729">
        <ele>341</ele>
        <time>2018-02-20T12:01:40.000Z</time>
      </trkpt>
      <trkpt lat="43.53973" lon="5.53729">
        <ele>341</ele>
        <time>2018-02-20T12:01:41.000Z</time>
      </trkpt>
      <trkpt lat="43.53973" lon="5.5373">
        <ele>340</ele>
        <time>2018-02-20T12:01:42.000Z</time>
      </trkpt>
      <trkpt lat="43.53973" lon="5.5373">
        <ele>340</ele>
        <time>2018-02-20T12:01:43.000Z</time>
      </trkpt>
      <trkpt lat="43.53973" lon="5.53731">
        <ele>340</ele>
        <time>2018-02-20T12:01:44.000Z</time>
      </trkpt>
      <trkpt lat="43.53974" lon="5.53731">
        <ele>340</ele>
        <time>2018-02-20T12:01:45.000Z</time>
      </trkpt>
      <trkpt lat="43.53973" lon="5.53731">
        <ele>340</ele>
        <time>2018-02-20T12:01:46.000Z</time>
      </trkpt>
      <trkpt lat="43.53974" lon="5.53732">
        <ele>340</ele>
        <time>2018-02-20T12:01:47.000Z</time>
      </trkpt>
      <trkpt lat="43.53974" lon="5.53732">
        <ele>340</ele>
        <time>2018-02-20T12:01:48.000Z</time>
      </trkpt>
      <trkpt lat="43.53974" lon="5.53732">
        <ele>340</ele>
        <time>2018-02-20T12:01:49.000Z</time>
      </trkpt>
      <trkpt lat="43.53974" lon="5.53732">
        <ele>340</ele>
        <time>2018-02-20T12:01:50.000Z</time>
      </trkpt>
      <trkpt lat="43.53974" lon="5.53731">
        <ele>340</ele>
        <time>2018-02-20T12:01:51.000Z</time>
      </trkpt>
      <trkpt lat="43.53974" lon="5.53731">
        <ele>340</ele>
        <time>2018-02-20T12:01:52.000Z</time>
      </trkpt>
      <trkpt lat="43.53974" lon="5.5373">
        <ele>340</ele>
        <time>2018-02-20T12:01:53.000Z</time>
      </trkpt>
      <trkpt lat="43.53975" lon="5.5373">
        <ele>340</ele>
        <time>2018-02-20T12:01:54.000Z</time>
      </trkpt>
      <trkpt lat="43.53975" lon="5.53729">
        <ele>340</ele>
        <time>2018-02-20T12:01:55.000Z</time>
      </trkpt>
      <trkpt lat="43.53975" lon="5.53729">
        <ele>340</ele>
        <time>2018-02-20T12:01:56.000Z</time>
      </trkpt>
      <trkpt lat="43.53975" lon="5.53729">
        <ele>340</ele>
        <time>2018-02-20T12:01:57.000Z</time>
      </trkpt>
      <trkpt lat="43.53975" lon="5.53729">
        <ele>340</ele>
        <time>2018-02-20T12:01:58.000Z</time>
      </trkpt>
      <trkpt lat="43.53975" lon="5.53729">
        <ele>340</ele>
        <time>2018-02-20T12:01:59.000Z</time>
      </trkpt>
      <trkpt lat="43.53975" lon="5.53729">
        <ele>340</ele>
        <time>2018-02-20T12:02:00.000Z</time>
      </trkpt>
      <trkpt lat="43.53975" lon="5.53729">
        <ele>340</ele>
        <time>2018-02-20T12:02:01.000Z</time>
      </trkpt>
      <trkpt lat="43.53975" lon="5.53729">
        <ele>340</ele>
        <time>2018-02-20T12:02:02.000Z</time>
      </trkpt>
      <trkpt lat="43.53976" lon="5.53729">
        <ele>340</ele>
        <time>2018-02-20T12:02:03.000Z</time>
      </trkpt>
      <trkpt lat="43.53976" lon="5.53729">
        <ele>340</ele>
        <time>2018-02-20T12:02:04.000Z</time>
      </trkpt>
      <trkpt lat="43.53976" lon="5.53729">
        <ele>340</ele>
        <time>2018-02-20T12:02:05.000Z</time>
      </trkpt>
      <trkpt lat="43.53975" lon="5.53728">
        <ele>340</ele>
        <time>2018-02-20T12:02:06.000Z</time>
      </trkpt>
      <trkpt lat="43.53975" lon="5.53728">
        <ele>340</ele>
        <time>2018-02-20T12:02:07.000Z</time>
      </trkpt>
      <trkpt lat="43.53975" lon="5.53728">
        <ele>340</ele>
        <time>2018-02-20T12:02:08.000Z</time>
      </trkpt>
      <trkpt lat="43.53975" lon="5.53728">
        <ele>340</ele>
        <time>2018-02-20T12:02:09.000Z</time>
      </trkpt>
      <trkpt lat="43.53975" lon="5.53728">
        <ele>340</ele>
        <time>2018-02-20T12:02:10.000Z</time>
      </trkpt>
      <trkpt lat="43.53975" lon="5.53728">
        <ele>340</ele>
        <time>2018-02-20T12:02:11.000Z</time>
      </trkpt>
      <trkpt lat="43.53975" lon="5.53728">
        <ele>340</ele>
        <time>2018-02-20T12:02:12.000Z</time>
      </trkpt>
      <trkpt lat="43.53975" lon="5.53728">
        <ele>340</ele>
        <time>2018-02-20T12:02:13.000Z</time>
      </trkpt>
      <trkpt lat="43.53975" lon="5.53728">
        <ele>340</ele>
        <time>2018-02-20T12:02:14.000Z</time>
      </trkpt>
      <trkpt lat="43.53975" lon="5.53728">
        <ele>340</ele>
        <time>2018-02-20T12:02:15.000Z</time>
      </trkpt>
      <trkpt lat="43.53975" lon="5.53728">
        <ele>340</ele>
        <time>2018-02-20T12:02:16.000Z</time>
      </trkpt>
      <trkpt lat="43.53975" lon="5.53728">
        <ele>340</ele>
        <time>2018-02-20T12:02:17.000Z</time>
      </trkpt>
      <trkpt lat="43.53975" lon="5.53728">
        <ele>340</ele>
        <time>2018-02-20T12:02:18.000Z</time>
      </trkpt>
      <trkpt lat="43.53975" lon="5.53728">
        <ele>340</ele>
        <time>2018-02-20T12:02:19.000Z</time>
      </trkpt>
      <trkpt lat="43.53975" lon="5.53728">
        <ele>340</ele>
        <time>2018-02-20T12:02:20.000Z</time>
      </trkpt>
      <trkpt lat="43.53975" lon="5.53728">
        <ele>340</ele>
        <time>2018-02-20T12:02:21.000Z</time>
      </trkpt>
      <trkpt lat="43.53975" lon="5.53728">
        <ele>340</ele>
        <time>2018-02-20T12:02:22.000Z</time>
      </trkpt>
      <trkpt lat="43.53975" lon="5.53728">
        <ele>340</ele>
        <time>2018-02-20T12:02:23.000Z</time>
      </trkpt>
      <trkpt lat="43.53975" lon="5.53728">
        <ele>340</ele>
        <time>2018-02-20T12:02:24.000Z</time>
      </trkpt>
      <trkpt lat="43.53975" lon="5.53728">
        <ele>340</ele>
        <time>2018-02-20T12:02:25.000Z</time>
      </trkpt>
      <trkpt lat="43.53975" lon="5.53728">
        <ele>340</ele>
        <time>2018-02-20T12:02:26.000Z</time>
      </trkpt>
      <trkpt lat="43.53975" lon="5.53728">
        <ele>340</ele>
        <time>2018-02-20T12:02:27.000Z</time>
      </trkpt>
      <trkpt lat="43.53975" lon="5.53728">
        <ele>340</ele>
        <time>2018-02-20T12:02:28.000Z</time>
      </trkpt>
      <trkpt lat="43.53975" lon="5.53728">
        <ele>340</ele>
        <time>2018-02-20T12:02:29.000Z</time>
      </trkpt>
      <trkpt lat="43.53975" lon="5.53728">
        <ele>340</ele>
        <time>2018-02-20T12:02:30.000Z</time>
      </trkpt>
      <trkpt lat="43.53975" lon="5.53728">
        <ele>340</ele>
        <time>2018-02-20T12:02:31.000Z</time>
      </trkpt>
      <trkpt lat="43.53975" lon="5.53728">
        <ele>340</ele>
        <time>2018-02-20T12:02:32.000Z</time>
      </trkpt>
      <trkpt lat="43.53975" lon="5.53728">
        <ele>340</ele>
        <time>2018-02-20T12:02:33.000Z</time>
      </trkpt>
      <trkpt lat="43.53975" lon="5.53728">
        <ele>340</ele>
        <time>2018-02-20T12:02:34.000Z</time>
      </trkpt>
      <trkpt lat="43.53975" lon="5.53728">
        <ele>340</ele>
        <time>2018-02-20T12:02:35.000Z</time>
      </trkpt>
      <trkpt lat="43.53975" lon="5.53728">
        <ele>340</ele>
        <time>2018-02-20T12:02:36.000Z</time>
      </trkpt>
      <trkpt lat="43.53974" lon="5.53728">
        <ele>340</ele>
        <time>2018-02-20T12:02:37.000Z</time>
      </trkpt>
      <trkpt lat="43.53974" lon="5.53728">
        <ele>340</ele>
        <time>2018-02-20T12:02:38.000Z</time>
      </trkpt>
      <trkpt lat="43.53974" lon="5.53728">
        <ele>340</ele>
        <time>2018-02-20T12:02:39.000Z</time>
      </trkpt>
      <trkpt lat="43.53974" lon="5.53728">
        <ele>340</ele>
        <time>2018-02-20T12:02:40.000Z</time>
      </trkpt>
      <trkpt lat="43.53974" lon="5.53728">
        <ele>340</ele>
        <time>2018-02-20T12:02:41.000Z</time>
      </trkpt>
      <trkpt lat="43.53975" lon="5.53728">
        <ele>340</ele>
        <time>2018-02-20T12:02:42.000Z</time>
      </trkpt>
      <trkpt lat="43.53975" lon="5.53728">
        <ele>340</ele>
        <time>2018-02-20T12:02:43.000Z</time>
      </trkpt>
      <trkpt lat="43.53975" lon="5.53728">
        <ele>340</ele>
        <time>2018-02-20T12:02:44.000Z</time>
      </trkpt>
      <trkpt lat="43.53975" lon="5.53728">
        <ele>340</ele>
        <time>2018-02-20T12:02:45.000Z</time>
      </trkpt>
      <trkpt lat="43.53975" lon="5.53728">
        <ele>340</ele>
        <time>2018-02-20T12:02:46.000Z</time>
      </trkpt>
      <trkpt lat="43.53975" lon="5.53728">
        <ele>340</ele>
        <time>2018-02-20T12:02:47.000Z</time>
      </trkpt>
      <trkpt lat="43.53974" lon="5.53727">
        <ele>340</ele>
        <time>2018-02-20T12:02:48.000Z</time>
      </trkpt>
      <trkpt lat="43.53974" lon="5.53727">
        <ele>340</ele>
        <time>2018-02-20T12:02:49.000Z</time>
      </trkpt>
      <trkpt lat="43.53974" lon="5.53727">
        <ele>341</ele>
        <time>2018-02-20T12:02:50.000Z</time>
      </trkpt>
      <trkpt lat="43.53974" lon="5.53727">
        <ele>341</ele>
        <time>2018-02-20T12:02:51.000Z</time>
      </trkpt>
      <trkpt lat="43.53974" lon="5.53727">
        <ele>341</ele>
        <time>2018-02-20T12:02:52.000Z</time>
      </trkpt>
      <trkpt lat="43.53974" lon="5.53727">
        <ele>341</ele>
        <time>2018-02-20T12:02:53.000Z</time>
      </trkpt>
      <trkpt lat="43.53974" lon="5.53727">
        <ele>341</ele>
        <time>2018-02-20T12:02:54.000Z</time>
      </trkpt>
      <trkpt lat="43.53974" lon="5.53727">
        <ele>341</ele>
        <time>2018-02-20T12:02:55.000Z</time>
      </trkpt>
      <trkpt lat="43.53974" lon="5.53727">
        <ele>341</ele>
        <time>2018-02-20T12:02:56.000Z</time>
      </trkpt>
      <trkpt lat="43.53974" lon="5.53727">
        <ele>341</ele>
        <time>2018-02-20T12:02:57.000Z</time>
      </trkpt>
      <trkpt lat="43.53974" lon="5.53727">
        <ele>341</ele>
        <time>2018-02-20T12:02:58.000Z</time>
      </trkpt>
      <trkpt lat="43.53974" lon="5.53727">
        <ele>341</ele>
        <time>2018-02-20T12:02:59.000Z</time>
      </trkpt>
      <trkpt lat="43.53974" lon="5.53727">
        <ele>341</ele>
        <time>2018-02-20T12:03:00.000Z</time>
      </trkpt>
      <trkpt lat="43.53974" lon="5.53727">
        <ele>341</ele>
        <time>2018-02-20T12:03:01.000Z</time>
      </trkpt>
      <trkpt lat="43.53974" lon="5.53727">
        <ele>341</ele>
        <time>2018-02-20T12:03:02.000Z</time>
      </trkpt>
      <trkpt lat="43.53974" lon="5.53727">
        <ele>341</ele>
        <time>2018-02-20T12:03:03.000Z</time>
      </trkpt>
      <trkpt lat="43.53974" lon="5.53727">
        <ele>341</ele>
        <time>2018-02-20T12:03:04.000Z</time>
      </trkpt>
      <trkpt lat="43.53974" lon="5.53727">
        <ele>341</ele>
        <time>2018-02-20T12:03:05.000Z</time>
      </trkpt>
      <trkpt lat="43.53974" lon="5.53727">
        <ele>341</ele>
        <time>2018-02-20T12:03:06.000Z</time>
      </trkpt>
      <trkpt lat="43.53974" lon="5.53727">
        <ele>341</ele>
        <time>2018-02-20T12:03:07.000Z</time>
      </trkpt>
      <trkpt lat="43.53974" lon="5.53727">
        <ele>341</ele>
        <time>2018-02-20T12:03:08.000Z</time>
      </trkpt>
      <trkpt lat="43.53974" lon="5.53727">
        <ele>341</ele>
        <time>2018-02-20T12:03:09.000Z</time>
      </trkpt>
      <trkpt lat="43.53974" lon="5.53727">
        <ele>341</ele>
        <time>2018-02-20T12:03:10.000Z</time>
      </trkpt>
      <trkpt lat="43.53974" lon="5.53727">
        <ele>341</ele>
        <time>2018-02-20T12:03:11.000Z</time>
      </trkpt>
      <trkpt lat="43.53974" lon="5.53727">
        <ele>341</ele>
        <time>2018-02-20T12:03:12.000Z</time>
      </trkpt>
      <trkpt lat="43.53974" lon="5.53727">
        <ele>341</ele>
        <time>2018-02-20T12:03:13.000Z</time>
      </trkpt>
      <trkpt lat="43.53974" lon="5.53727">
        <ele>341</ele>
        <time>2018-02-20T12:03:14.000Z</time>
      </trkpt>
      <trkpt lat="43.53974" lon="5.53727">
        <ele>341</ele>
        <time>2018-02-20T12:03:15.000Z</time>
      </trkpt>
      <trkpt lat="43.53974" lon="5.53727">
        <ele>341</ele>
        <time>2018-02-20T12:03:16.000Z</time>
      </trkpt>
      <trkpt lat="43.53974" lon="5.53727">
        <ele>341</ele>
        <time>2018-02-20T12:03:17.000Z</time>
      </trkpt>
      <trkpt lat="43.53974" lon="5.53727">
        <ele>341</ele>
        <time>2018-02-20T12:03:18.000Z</time>
      </trkpt>
      <trkpt lat="43.53974" lon="5.53727">
        <ele>341</ele>
        <time>2018-02-20T12:03:19.000Z</time>
      </trkpt>
      <trkpt lat="43.53974" lon="5.53727">
        <ele>341</ele>
        <time>2018-02-20T12:03:20.000Z</time>
      </trkpt>
      <trkpt lat="43.53974" lon="5.53727">
        <ele>341</ele>
        <time>2018-02-20T12:03:21.000Z</time>
      </trkpt>
      <trkpt lat="43.53974" lon="5.53727">
        <ele>341</ele>
        <time>2018-02-20T12:03:22.000Z</time>
      </trkpt>
      <trkpt lat="43.53974" lon="5.53727">
        <ele>341</ele>
        <time>2018-02-20T12:03:23.000Z</time>
      </trkpt>
      <trkpt lat="43.53974" lon="5.53727">
        <ele>341</ele>
        <time>2018-02-20T12:03:24.000Z</time>
      </trkpt>
      <trkpt lat="43.53974" lon="5.53726">
        <ele>341</ele>
        <time>2018-02-20T12:03:25.000Z</time>
      </trkpt>
      <trkpt lat="43.53974" lon="5.53726">
        <ele>341</ele>
        <time>2018-02-20T12:03:26.000Z</time>
      </trkpt>
      <trkpt lat="43.53974" lon="5.53726">
        <ele>341</ele>
        <time>2018-02-20T12:03:27.000Z</time>
      </trkpt>
      <trkpt lat="43.53974" lon="5.53726">
        <ele>341</ele>
        <time>2018-02-20T12:03:28.000Z</time>
      </trkpt>
      <trkpt lat="43.53974" lon="5.53726">
        <ele>341</ele>
        <time>2018-02-20T12:03:29.000Z</time>
      </trkpt>
      <trkpt lat="43.53974" lon="5.53726">
        <ele>341</ele>
        <time>2018-02-20T12:03:30.000Z</time>
      </trkpt>
      <trkpt lat="43.53974" lon="5.53726">
        <ele>341</ele>
        <time>2018-02-20T12:03:31.000Z</time>
      </trkpt>
      <trkpt lat="43.53974" lon="5.53726">
        <ele>341</ele>
        <time>2018-02-20T12:03:32.000Z</time>
      </trkpt>
      <trkpt lat="43.53974" lon="5.53726">
        <ele>341</ele>
        <time>2018-02-20T12:03:33.000Z</time>
      </trkpt>
      <trkpt lat="43.53973" lon="5.53726">
        <ele>341</ele>
        <time>2018-02-20T12:03:34.000Z</time>
      </trkpt>
      <trkpt lat="43.53973" lon="5.53726">
        <ele>341</ele>
        <time>2018-02-20T12:03:35.000Z</time>
      </trkpt>
      <trkpt lat="43.53973" lon="5.53726">
        <ele>341</ele>
        <time>2018-02-20T12:03:36.000Z</time>
      </trkpt>
      <trkpt lat="43.53973" lon="5.53726">
        <ele>341</ele>
        <time>2018-02-20T12:03:37.000Z</time>
      </trkpt>
      <trkpt lat="43.53973" lon="5.53726">
        <ele>341</ele>
        <time>2018-02-20T12:03:38.000Z</time>
      </trkpt>
      <trkpt lat="43.53973" lon="5.53725">
        <ele>341</ele>
        <time>2018-02-20T12:03:39.000Z</time>
      </trkpt>
      <trkpt lat="43.53973" lon="5.53725">
        <ele>341</ele>
        <time>2018-02-20T12:03:40.000Z</time>
      </trkpt>
      <trkpt lat="43.53973" lon="5.53725">
        <ele>341</ele>
        <time>2018-02-20T12:03:41.000Z</time>
      </trkpt>
      <trkpt lat="43.53973" lon="5.53725">
        <ele>341</ele>
        <time>2018-02-20T12:03:42.000Z</time>
      </trkpt>
      <trkpt lat="43.53973" lon="5.53725">
        <ele>341</ele>
        <time>2018-02-20T12:03:43.000Z</time>
      </trkpt>
      <trkpt lat="43.53973" lon="5.53725">
        <ele>341</ele>
        <time>2018-02-20T12:03:44.000Z</time>
      </trkpt>
      <trkpt lat="43.53973" lon="5.53725">
        <ele>341</ele>
        <time>2018-02-20T12:03:45.000Z</time>
      </trkpt>
      <trkpt lat="43.53973" lon="5.53725">
        <ele>341</ele>
        <time>2018-02-20T12:03:46.000Z</time>
      </trkpt>
      <trkpt lat="43.53973" lon="5.53725">
        <ele>341</ele>
        <time>2018-02-20T12:03:47.000Z</time>
      </trkpt>
      <trkpt lat="43.53973" lon="5.53726">
        <ele>341</ele>
        <time>2018-02-20T12:03:48.000Z</time>
      </trkpt>
      <trkpt lat="43.53973" lon="5.53726">
        <ele>341</ele>
        <time>2018-02-20T12:03:49.000Z</time>
      </trkpt>
      <trkpt lat="43.53973" lon="5.53726">
        <ele>341</ele>
        <time>2018-02-20T12:03:50.000Z</time>
      </trkpt>
      <trkpt lat="43.53973" lon="5.53727">
        <ele>341</ele>
        <time>2018-02-20T12:03:51.000Z</time>
      </trkpt>
      <trkpt lat="43.53973" lon="5.53728">
        <ele>341</ele>
        <time>2018-02-20T12:03:52.000Z</time>
      </trkpt>
      <trkpt lat="43.53972" lon="5.53728">
        <ele>341</ele>
        <time>2018-02-20T12:03:53.000Z</time>
      </trkpt>
      <trkpt lat="43.53972" lon="5.53729">
        <ele>341</ele>
        <time>2018-02-20T12:03:54.000Z</time>
      </trkpt>
      <trkpt lat="43.53971" lon="5.53729">
        <ele>341</ele>
        <time>2018-02-20T12:03:55.000Z</time>
      </trkpt>
      <trkpt lat="43.53971" lon="5.5373">
        <ele>341</ele>
        <time>2018-02-20T12:03:56.000Z</time>
      </trkpt>
      <trkpt lat="43.53971" lon="5.53731">
        <ele>341</ele>
        <time>2018-02-20T12:03:57.000Z</time>
      </trkpt>
      <trkpt lat="43.53971" lon="5.53732">
        <ele>341</ele>
        <time>2018-02-20T12:03:58.000Z</time>
      </trkpt>
      <trkpt lat="43.53971" lon="5.53733">
        <ele>340</ele>
        <time>2018-02-20T12:03:59.000Z</time>
      </trkpt>
      <trkpt lat="43.53971" lon="5.53734">
        <ele>340</ele>
        <time>2018-02-20T12:04:00.000Z</time>
      </trkpt>
      <trkpt lat="43.53971" lon="5.53735">
        <ele>340</ele>
        <time>2018-02-20T12:04:01.000Z</time>
      </trkpt>
      <trkpt lat="43.53971" lon="5.53736">
        <ele>340</ele>
        <time>2018-02-20T12:04:02.000Z</time>
      </trkpt>
      <trkpt lat="43.53971" lon="5.53737">
        <ele>340</ele>
        <time>2018-02-20T12:04:03.000Z</time>
      </trkpt>
      <trkpt lat="43.53971" lon="5.53738">
        <ele>340</ele>
        <time>2018-02-20T12:04:04.000Z</time>
      </trkpt>
      <trkpt lat="43.53971" lon="5.53739">
        <ele>340</ele>
        <time>2018-02-20T12:04:05.000Z</time>
      </trkpt>
      <trkpt lat="43.53972" lon="5.53739">
        <ele>340</ele>
        <time>2018-02-20T12:04:06.000Z</time>
      </trkpt>
      <trkpt lat="43.53972" lon="5.5374">
        <ele>339</ele>
        <time>2018-02-20T12:04:07.000Z</time>
      </trkpt>
      <trkpt lat="43.53972" lon="5.53741">
        <ele>339</ele>
        <time>2018-02-20T12:04:08.000Z</time>
      </trkpt>
      <trkpt lat="43.53972" lon="5.53741">
        <ele>339</ele>
        <time>2018-02-20T12:04:09.000Z</time>
      </trkpt>
      <trkpt lat="43.53972" lon="5.53742">
        <ele>339</ele>
        <time>2018-02-20T12:04:10.000Z</time>
      </trkpt>
      <trkpt lat="43.53972" lon="5.53743">
        <ele>339</ele>
        <time>2018-02-20T12:04:11.000Z</time>
      </trkpt>
      <trkpt lat="43.53972" lon="5.53744">
        <ele>339</ele>
        <time>2018-02-20T12:04:12.000Z</time>
      </trkpt>
      <trkpt lat="43.53972" lon="5.53744">
        <ele>338</ele>
        <time>2018-02-20T12:04:13.000Z</time>
      </trkpt>
      <trkpt lat="43.53972" lon="5.53745">
        <ele>338</ele>
        <time>2018-02-20T12:04:14.000Z</time>
      </trkpt>
      <trkpt lat="43.53972" lon="5.53745">
        <ele>338</ele>
        <time>2018-02-20T12:04:15.000Z</time>
      </trkpt>
      <trkpt lat="43.53973" lon="5.53746">
        <ele>338</ele>
        <time>2018-02-20T12:04:16.000Z</time>
      </trkpt>
      <trkpt lat="43.53973" lon="5.53747">
        <ele>338</ele>
        <time>2018-02-20T12:04:17.000Z</time>
      </trkpt>
      <trkpt lat="43.53972" lon="5.53747">
        <ele>338</ele>
        <time>2018-02-20T12:04:18.000Z</time>
      </trkpt>
      <trkpt lat="43.53972" lon="5.53748">
        <ele>338</ele>
        <time>2018-02-20T12:04:19.000Z</time>
      </trkpt>
      <trkpt lat="43.53972" lon="5.53748">
        <ele>338</ele>
        <time>2018-02-20T12:04:20.000Z</time>
      </trkpt>
      <trkpt lat="43.53972" lon="5.53748">
        <ele>338</ele>
        <time>2018-02-20T12:04:21.000Z</time>
      </trkpt>
      <trkpt lat="43.53972" lon="5.53748">
        <ele>338</ele>
        <time>2018-02-20T12:04:22.000Z</time>
      </trkpt>
      <trkpt lat="43.53972" lon="5.53748">
        <ele>338</ele>
        <time>2018-02-20T12:04:23.000Z</time>
      </trkpt>
      <trkpt lat="43.53972" lon="5.53748">
        <ele>338</ele>
        <time>2018-02-20T12:04:24.000Z</time>
      </trkpt>
      <trkpt lat="43.53973" lon="5.53748">
        <ele>338</ele>
        <time>2018-02-20T12:04:25.000Z</time>
      </trkpt>
      <trkpt lat="43.53973" lon="5.53748">
        <ele>338</ele>
        <time>2018-02-20T12:04:26.000Z</time>
      </trkpt>
      <trkpt lat="43.53973" lon="5.53748">
        <ele>338</ele>
        <time>2018-02-20T12:04:27.000Z</time>
      </trkpt>
      <trkpt lat="43.53973" lon="5.53748">
        <ele>338</ele>
        <time>2018-02-20T12:04:28.000Z</time>
      </trkpt>
      <trkpt lat="43.53973" lon="5.53748">
        <ele>338</ele>
        <time>2018-02-20T12:04:29.000Z</time>
      </trkpt>
      <trkpt lat="43.53973" lon="5.53748">
        <ele>338</ele>
        <time>2018-02-20T12:04:30.000Z</time>
      </trkpt>
      <trkpt lat="43.53973" lon="5.53749">
        <ele>338</ele>
        <time>2018-02-20T12:04:31.000Z</time>
      </trkpt>
      <trkpt lat="43.53973" lon="5.53749">
        <ele>338</ele>
        <time>2018-02-20T12:04:32.000Z</time>
      </trkpt>
      <trkpt lat="43.53973" lon="5.53748">
        <ele>338</ele>
        <time>2018-02-20T12:04:33.000Z</time>
      </trkpt>
      <trkpt lat="43.53973" lon="5.53749">
        <ele>337</ele>
        <time>2018-02-20T12:04:34.000Z</time>
      </trkpt>
      <trkpt lat="43.53973" lon="5.53749">
        <ele>337</ele>
        <time>2018-02-20T12:04:35.000Z</time>
      </trkpt>
      <trkpt lat="43.53973" lon="5.53749">
        <ele>338</ele>
        <time>2018-02-20T12:04:36.000Z</time>
      </trkpt>
      <trkpt lat="43.53973" lon="5.53749">
        <ele>338</ele>
        <time>2018-02-20T12:04:37.000Z</time>
      </trkpt>
      <trkpt lat="43.53973" lon="5.53749">
        <ele>337</ele>
        <time>2018-02-20T12:04:38.000Z</time>
      </trkpt>
      <trkpt lat="43.53973" lon="5.53749">
        <ele>337</ele>
        <time>2018-02-20T12:04:39.000Z</time>
      </trkpt>
      <trkpt lat="43.53973" lon="5.53749">
        <ele>337</ele>
        <time>2018-02-20T12:04:40.000Z</time>
      </trkpt>
      <trkpt lat="43.53973" lon="5.53749">
        <ele>337</ele>
        <time>2018-02-20T12:04:41.000Z</time>
      </trkpt>
      <trkpt lat="43.53973" lon="5.53749">
        <ele>337</ele>
        <time>2018-02-20T12:04:42.000Z</time>
      </trkpt>
      <trkpt lat="43.53973" lon="5.53749">
        <ele>337</ele>
        <time>2018-02-20T12:04:43.000Z</time>
      </trkpt>
      <trkpt lat="43.53973" lon="5.53749">
        <ele>337</ele>
        <time>2018-02-20T12:04:44.000Z</time>
      </trkpt>
      <trkpt lat="43.53973" lon="5.53749">
        <ele>337</ele>
        <time>2018-02-20T12:04:45.000Z</time>
      </trkpt>
      <trkpt lat="43.53973" lon="5.53749">
        <ele>337</ele>
        <time>2018-02-20T12:04:46.000Z</time>
      </trkpt>
      <trkpt lat="43.53973" lon="5.53749">
        <ele>337</ele>
        <time>2018-02-20T12:04:47.000Z</time>
      </trkpt>
      <trkpt lat="43.53973" lon="5.53749">
        <ele>337</ele>
        <time>2018-02-20T12:04:48.000Z</time>
      </trkpt>
      <trkpt lat="43.53973" lon="5.53749">
        <ele>337</ele>
        <time>2018-02-20T12:04:49.000Z</time>
      </trkpt>
      <trkpt lat="43.53973" lon="5.53749">
        <ele>337</ele>
        <time>2018-02-20T12:04:50.000Z</time>
      </trkpt>
      <trkpt lat="43.53973" lon="5.5375">
        <ele>337</ele>
        <time>2018-02-20T12:04:51.000Z</time>
      </trkpt>
      <trkpt lat="43.53973" lon="5.5375">
        <ele>337</ele>
        <time>2018-02-20T12:04:52.000Z</time>
      </trkpt>
      <trkpt lat="43.53972" lon="5.5375">
        <ele>337</ele>
        <time>2018-02-20T12:04:53.000Z</time>
      </trkpt>
      <trkpt lat="43.53972" lon="5.5375">
        <ele>337</ele>
        <time>2018-02-20T12:04:54.000Z</time>
      </trkpt>
      <trkpt lat="43.53971" lon="5.5375">
        <ele>337</ele>
        <time>2018-02-20T12:04:55.000Z</time>
      </trkpt>
      <trkpt lat="43.53971" lon="5.5375">
        <ele>337</ele>
        <time>2018-02-20T12:04:56.000Z</time>
      </trkpt>
      <trkpt lat="43.5397" lon="5.5375">
        <ele>337</ele>
        <time>2018-02-20T12:04:57.000Z</time>
      </trkpt>
      <trkpt lat="43.5397" lon="5.5375">
        <ele>337</ele>
        <time>2018-02-20T12:04:58.000Z</time>
      </trkpt>
      <trkpt lat="43.53969" lon="5.5375">
        <ele>337</ele>
        <time>2018-02-20T12:04:59.000Z</time>
      </trkpt>
      <trkpt lat="43.53968" lon="5.53749">
        <ele>337</ele>
        <time>2018-02-20T12:05:00.000Z</time>
      </trkpt>
      <trkpt lat="43.53968" lon="5.53748">
        <ele>337</ele>
        <time>2018-02-20T12:05:01.000Z</time>
      </trkpt>
      <trkpt lat="43.53967" lon="5.53747">
        <ele>337</ele>
        <time>2018-02-20T12:05:02.000Z</time>
      </trkpt>
      <trkpt lat="43.53967" lon="5.53746">
        <ele>337</ele>
        <time>2018-02-20T12:05:03.000Z</time>
      </trkpt>
      <trkpt lat="43.53967" lon="5.53746">
        <ele>337</ele>
        <time>2018-02-20T12:05:04.000Z</time>
      </trkpt>
      <trkpt lat="43.53967" lon="5.53746">
        <ele>337</ele>
        <time>2018-02-20T12:05:05.000Z</time>
      </trkpt>
      <trkpt lat="43.53967" lon="5.53746">
        <ele>337</ele>
        <time>2018-02-20T12:05:06.000Z</time>
      </trkpt>
      <trkpt lat="43.53967" lon="5.53746">
        <ele>337</ele>
        <time>2018-02-20T12:05:07.000Z</time>
      </trkpt>
      <trkpt lat="43.53967" lon="5.53746">
        <ele>337</ele>
        <time>2018-02-20T12:05:08.000Z</time>
      </trkpt>
      <trkpt lat="43.53967" lon="5.53746">
        <ele>337</ele>
        <time>2018-02-20T12:05:09.000Z</time>
      </trkpt>
      <trkpt lat="43.53967" lon="5.53746">
        <ele>337</ele>
        <time>2018-02-20T12:05:10.000Z</time>
      </trkpt>
      <trkpt lat="43.53967" lon="5.53746">
        <ele>337</ele>
        <time>2018-02-20T12:05:11.000Z</time>
      </trkpt>
      <trkpt lat="43.53967" lon="5.53745">
        <ele>337</ele>
        <time>2018-02-20T12:05:12.000Z</time>
      </trkpt>
      <trkpt lat="43.53967" lon="5.53745">
        <ele>337</ele>
        <time>2018-02-20T12:05:13.000Z</time>
      </trkpt>
      <trkpt lat="43.53967" lon="5.53743">
        <ele>337</ele>
        <time>2018-02-20T12:05:14.000Z</time>
      </trkpt>
      <trkpt lat="43.53967" lon="5.53742">
        <ele>337</ele>
        <time>2018-02-20T12:05:15.000Z</time>
      </trkpt>
      <trkpt lat="43.53967" lon="5.53741">
        <ele>337</ele>
        <time>2018-02-20T12:05:16.000Z</time>
      </trkpt>
      <trkpt lat="43.53967" lon="5.5374">
        <ele>337</ele>
        <time>2018-02-20T12:05:17.000Z</time>
      </trkpt>
      <trkpt lat="43.53967" lon="5.53739">
        <ele>337</ele>
        <time>2018-02-20T12:05:18.000Z</time>
      </trkpt>
      <trkpt lat="43.53967" lon="5.53737">
        <ele>337</ele>
        <time>2018-02-20T12:05:19.000Z</time>
      </trkpt>
      <trkpt lat="43.53967" lon="5.53735">
        <ele>337</ele>
        <time>2018-02-20T12:05:20.000Z</time>
      </trkpt>
      <trkpt lat="43.53967" lon="5.53734">
        <ele>338</ele>
        <time>2018-02-20T12:05:21.000Z</time>
      </trkpt>
      <trkpt lat="43.53966" lon="5.53733">
        <ele>338</ele>
        <time>2018-02-20T12:05:22.000Z</time>
      </trkpt>
      <trkpt lat="43.53966" lon="5.53731">
        <ele>338</ele>
        <time>2018-02-20T12:05:23.000Z</time>
      </trkpt>
      <trkpt lat="43.53966" lon="5.5373">
        <ele>338</ele>
        <time>2018-02-20T12:05:24.000Z</time>
      </trkpt>
      <trkpt lat="43.53967" lon="5.53728">
        <ele>338</ele>
        <time>2018-02-20T12:05:25.000Z</time>
      </trkpt>
      <trkpt lat="43.53967" lon="5.53726">
        <ele>338</ele>
        <time>2018-02-20T12:05:26.000Z</time>
      </trkpt>
      <trkpt lat="43.53967" lon="5.53725">
        <ele>339</ele>
        <time>2018-02-20T12:05:27.000Z</time>
      </trkpt>
      <trkpt lat="43.53967" lon="5.53723">
        <ele>339</ele>
        <time>2018-02-20T12:05:28.000Z</time>
      </trkpt>
      <trkpt lat="43.53967" lon="5.53721">
        <ele>339</ele>
        <time>2018-02-20T12:05:29.000Z</time>
      </trkpt>
      <trkpt lat="43.53967" lon="5.53719">
        <ele>339</ele>
        <time>2018-02-20T12:05:30.000Z</time>
      </trkpt>
      <trkpt lat="43.53967" lon="5.53718">
        <ele>339</ele>
        <time>2018-02-20T12:05:31.000Z</time>
      </trkpt>
      <trkpt lat="43.53966" lon="5.53716">
        <ele>339</ele>
        <time>2018-02-20T12:05:32.000Z</time>
      </trkpt>
      <trkpt lat="43.53966" lon="5.53715">
        <ele>339</ele>
        <time>2018-02-20T12:05:33.000Z</time>
      </trkpt>
      <trkpt lat="43.53965" lon="5.53713">
        <ele>339</ele>
        <time>2018-02-20T12:05:34.000Z</time>
      </trkpt>
      <trkpt lat="43.53965" lon="5.53712">
        <ele>339</ele>
        <time>2018-02-20T12:05:35.000Z</time>
      </trkpt>
      <trkpt lat="43.53965" lon="5.5371">
        <ele>339</ele>
        <time>2018-02-20T12:05:36.000Z</time>
      </trkpt>
      <trkpt lat="43.53964" lon="5.53709">
        <ele>339</ele>
        <time>2018-02-20T12:05:37.000Z</time>
      </trkpt>
      <trkpt lat="43.53964" lon="5.53707">
        <ele>339</ele>
        <time>2018-02-20T12:05:38.000Z</time>
      </trkpt>
      <trkpt lat="43.53963" lon="5.53706">
        <ele>339</ele>
        <time>2018-02-20T12:05:39.000Z</time>
      </trkpt>
      <trkpt lat="43.53963" lon="5.53705">
        <ele>340</ele>
        <time>2018-02-20T12:05:40.000Z</time>
      </trkpt>
      <trkpt lat="43.53963" lon="5.53704">
        <ele>340</ele>
        <time>2018-02-20T12:05:41.000Z</time>
      </trkpt>
      <trkpt lat="43.53962" lon="5.53702">
        <ele>340</ele>
        <time>2018-02-20T12:05:42.000Z</time>
      </trkpt>
      <trkpt lat="43.53962" lon="5.53701">
        <ele>340</ele>
        <time>2018-02-20T12:05:43.000Z</time>
      </trkpt>
      <trkpt lat="43.53962" lon="5.53699">
        <ele>340</ele>
        <time>2018-02-20T12:05:44.000Z</time>
      </trkpt>
      <trkpt lat="43.53962" lon="5.53697">
        <ele>340</ele>
        <time>2018-02-20T12:05:45.000Z</time>
      </trkpt>
      <trkpt lat="43.53962" lon="5.53695">
        <ele>340</ele>
        <time>2018-02-20T12:05:46.000Z</time>
      </trkpt>
      <trkpt lat="43.53962" lon="5.53694">
        <ele>340</ele>
        <time>2018-02-20T12:05:47.000Z</time>
      </trkpt>
      <trkpt lat="43.53962" lon="5.53693">
        <ele>340</ele>
        <time>2018-02-20T12:05:48.000Z</time>
      </trkpt>
      <trkpt lat="43.53961" lon="5.53692">
        <ele>340</ele>
        <time>2018-02-20T12:05:49.000Z</time>
      </trkpt>
      <trkpt lat="43.53961" lon="5.53691">
        <ele>340</ele>
        <time>2018-02-20T12:05:50.000Z</time>
      </trkpt>
      <trkpt lat="43.53961" lon="5.53689">
        <ele>340</ele>
        <time>2018-02-20T12:05:51.000Z</time>
      </trkpt>
      <trkpt lat="43.5396" lon="5.53688">
        <ele>340</ele>
        <time>2018-02-20T12:05:52.000Z</time>
      </trkpt>
      <trkpt lat="43.5396" lon="5.53687">
        <ele>340</ele>
        <time>2018-02-20T12:05:53.000Z</time>
      </trkpt>
      <trkpt lat="43.53959" lon="5.53686">
        <ele>340</ele>
        <time>2018-02-20T12:05:54.000Z</time>
      </trkpt>
      <trkpt lat="43.53959" lon="5.53685">
        <ele>340</ele>
        <time>2018-02-20T12:05:55.000Z</time>
      </trkpt>
      <trkpt lat="43.53959" lon="5.53683">
        <ele>340</ele>
        <time>2018-02-20T12:05:56.000Z</time>
      </trkpt>
      <trkpt lat="43.53959" lon="5.53681">
        <ele>340</ele>
        <time>2018-02-20T12:05:57.000Z</time>
      </trkpt>
      <trkpt lat="43.53959" lon="5.5368">
        <ele>340</ele>
        <time>2018-02-20T12:05:58.000Z</time>
      </trkpt>
      <trkpt lat="43.5396" lon="5.53678">
        <ele>340</ele>
        <time>2018-02-20T12:05:59.000Z</time>
      </trkpt>
      <trkpt lat="43.5396" lon="5.53676">
        <ele>340</ele>
        <time>2018-02-20T12:06:00.000Z</time>
      </trkpt>
      <trkpt lat="43.5396" lon="5.53674">
        <ele>340</ele>
        <time>2018-02-20T12:06:01.000Z</time>
      </trkpt>
      <trkpt lat="43.5396" lon="5.53673">
        <ele>340</ele>
        <time>2018-02-20T12:06:02.000Z</time>
      </trkpt>
      <trkpt lat="43.5396" lon="5.53672">
        <ele>340</ele>
        <time>2018-02-20T12:06:03.000Z</time>
      </trkpt>
      <trkpt lat="43.5396" lon="5.5367">
        <ele>340</ele>
        <time>2018-02-20T12:06:04.000Z</time>
      </trkpt>
      <trkpt lat="43.5396" lon="5.53669">
        <ele>340</ele>
        <time>2018-02-20T12:06:05.000Z</time>
      </trkpt>
      <trkpt lat="43.5396" lon="5.53669">
        <ele>340</ele>
        <time>2018-02-20T12:06:06.000Z</time>
      </trkpt>
      <trkpt lat="43.5396" lon="5.53668">
        <ele>340</ele>
        <time>2018-02-20T12:06:07.000Z</time>
      </trkpt>
      <trkpt lat="43.5396" lon="5.53667">
        <ele>340</ele>
        <time>2018-02-20T12:06:08.000Z</time>
      </trkpt>
      <trkpt lat="43.53959" lon="5.53666">
        <ele>340</ele>
        <time>2018-02-20T12:06:09.000Z</time>
      </trkpt>
      <trkpt lat="43.53959" lon="5.53665">
        <ele>340</ele>
        <time>2018-02-20T12:06:10.000Z</time>
      </trkpt>
      <trkpt lat="43.53959" lon="5.53664">
        <ele>341</ele>
        <time>2018-02-20T12:06:11.000Z</time>
      </trkpt>
      <trkpt lat="43.53958" lon="5.53663">
        <ele>341</ele>
        <time>2018-02-20T12:06:12.000Z</time>
      </trkpt>
      <trkpt lat="43.53959" lon="5.53661">
        <ele>341</ele>
        <time>2018-02-20T12:06:13.000Z</time>
      </trkpt>
      <trkpt lat="43.53959" lon="5.5366">
        <ele>341</ele>
        <time>2018-02-20T12:06:14.000Z</time>
      </trkpt>
      <trkpt lat="43.53958" lon="5.53659">
        <ele>341</ele>
        <time>2018-02-20T12:06:15.000Z</time>
      </trkpt>
      <trkpt lat="43.53959" lon="5.53658">
        <ele>341</ele>
        <time>2018-02-20T12:06:16.000Z</time>
      </trkpt>
      <trkpt lat="43.53959" lon="5.53656">
        <ele>341</ele>
        <time>2018-02-20T12:06:17.000Z</time>
      </trkpt>
      <trkpt lat="43.53958" lon="5.53655">
        <ele>341</ele>
        <time>2018-02-20T12:06:18.000Z</time>
      </trkpt>
      <trkpt lat="43.53958" lon="5.53654">
        <ele>341</ele>
        <time>2018-02-20T12:06:19.000Z</time>
      </trkpt>
      <trkpt lat="43.53958" lon="5.53653">
        <ele>341</ele>
        <time>2018-02-20T12:06:20.000Z</time>
      </trkpt>
      <trkpt lat="43.53957" lon="5.53652">
        <ele>341</ele>
        <time>2018-02-20T12:06:21.000Z</time>
      </trkpt>
      <trkpt lat="43.53957" lon="5.5365">
        <ele>342</ele>
        <time>2018-02-20T12:06:22.000Z</time>
      </trkpt>
      <trkpt lat="43.53956" lon="5.53649">
        <ele>342</ele>
        <time>2018-02-20T12:06:23.000Z</time>
      </trkpt>
      <trkpt lat="43.53956" lon="5.53648">
        <ele>342</ele>
        <time>2018-02-20T12:06:24.000Z</time>
      </trkpt>
      <trkpt lat="43.53956" lon="5.53647">
        <ele>342</ele>
        <time>2018-02-20T12:06:25.000Z</time>
      </trkpt>
      <trkpt lat="43.53955" lon="5.53646">
        <ele>342</ele>
        <time>2018-02-20T12:06:26.000Z</time>
      </trkpt>
      <trkpt lat="43.53955" lon="5.53644">
        <ele>342</ele>
        <time>2018-02-20T12:06:27.000Z</time>
      </trkpt>
      <trkpt lat="43.53954" lon="5.53643">
        <ele>342</ele>
        <time>2018-02-20T12:06:28.000Z</time>
      </trkpt>
      <trkpt lat="43.53954" lon="5.53642">
        <ele>342</ele>
        <time>2018-02-20T12:06:29.000Z</time>
      </trkpt>
      <trkpt lat="43.53954" lon="5.5364">
        <ele>343</ele>
        <time>2018-02-20T12:06:30.000Z</time>
      </trkpt>
      <trkpt lat="43.53953" lon="5.53639">
        <ele>343</ele>
        <time>2018-02-20T12:06:31.000Z</time>
      </trkpt>
      <trkpt lat="43.53953" lon="5.53637">
        <ele>343</ele>
        <time>2018-02-20T12:06:32.000Z</time>
      </trkpt>
      <trkpt lat="43.53953" lon="5.53636">
        <ele>343</ele>
        <time>2018-02-20T12:06:33.000Z</time>
      </trkpt>
      <trkpt lat="43.53953" lon="5.53634">
        <ele>343</ele>
        <time>2018-02-20T12:06:34.000Z</time>
      </trkpt>
      <trkpt lat="43.53953" lon="5.53632">
        <ele>343</ele>
        <time>2018-02-20T12:06:35.000Z</time>
      </trkpt>
      <trkpt lat="43.53952" lon="5.5363">
        <ele>343</ele>
        <time>2018-02-20T12:06:36.000Z</time>
      </trkpt>
      <trkpt lat="43.53952" lon="5.53628">
        <ele>343</ele>
        <time>2018-02-20T12:06:37.000Z</time>
      </trkpt>
      <trkpt lat="43.53952" lon="5.53627">
        <ele>343</ele>
        <time>2018-02-20T12:06:38.000Z</time>
      </trkpt>
      <trkpt lat="43.53952" lon="5.53626">
        <ele>343</ele>
        <time>2018-02-20T12:06:39.000Z</time>
      </trkpt>
      <trkpt lat="43.53952" lon="5.53625">
        <ele>343</ele>
        <time>2018-02-20T12:06:40.000Z</time>
      </trkpt>
      <trkpt lat="43.53951" lon="5.53624">
        <ele>344</ele>
        <time>2018-02-20T12:06:41.000Z</time>
      </trkpt>
      <trkpt lat="43.53951" lon="5.53623">
        <ele>344</ele>
        <time>2018-02-20T12:06:42.000Z</time>
      </trkpt>
      <trkpt lat="43.5395" lon="5.53622">
        <ele>344</ele>
        <time>2018-02-20T12:06:43.000Z</time>
      </trkpt>
      <trkpt lat="43.53949" lon="5.5362">
        <ele>344</ele>
        <time>2018-02-20T12:06:44.000Z</time>
      </trkpt>
      <trkpt lat="43.53949" lon="5.53619">
        <ele>344</ele>
        <time>2018-02-20T12:06:45.000Z</time>
      </trkpt>
      <trkpt lat="43.53948" lon="5.53618">
        <ele>344</ele>
        <time>2018-02-20T12:06:46.000Z</time>
      </trkpt>
      <trkpt lat="43.53947" lon="5.53617">
        <ele>344</ele>
        <time>2018-02-20T12:06:47.000Z</time>
      </trkpt>
      <trkpt lat="43.53947" lon="5.53616">
        <ele>345</ele>
        <time>2018-02-20T12:06:48.000Z</time>
      </trkpt>
      <trkpt lat="43.53946" lon="5.53615">
        <ele>345</ele>
        <time>2018-02-20T12:06:49.000Z</time>
      </trkpt>
      <trkpt lat="43.53945" lon="5.53614">
        <ele>345</ele>
        <time>2018-02-20T12:06:50.000Z</time>
      </trkpt>
      <trkpt lat="43.53944" lon="5.53614">
        <ele>345</ele>
        <time>2018-02-20T12:06:51.000Z</time>
      </trkpt>
      <trkpt lat="43.53943" lon="5.53613">
        <ele>345</ele>
        <time>2018-02-20T12:06:52.000Z</time>
      </trkpt>
      <trkpt lat="43.53942" lon="5.53612">
        <ele>345</ele>
        <time>2018-02-20T12:06:53.000Z</time>
      </trkpt>
      <trkpt lat="43.53941" lon="5.53611">
        <ele>345</ele>
        <time>2018-02-20T12:06:54.000Z</time>
      </trkpt>
      <trkpt lat="43.53941" lon="5.5361">
        <ele>345</ele>
        <time>2018-02-20T12:06:55.000Z</time>
      </trkpt>
      <trkpt lat="43.53941" lon="5.53609">
        <ele>345</ele>
        <time>2018-02-20T12:06:56.000Z</time>
      </trkpt>
      <trkpt lat="43.53941" lon="5.53608">
        <ele>346</ele>
        <time>2018-02-20T12:06:57.000Z</time>
      </trkpt>
      <trkpt lat="43.53941" lon="5.53608">
        <ele>346</ele>
        <time>2018-02-20T12:06:58.000Z</time>
      </trkpt>
      <trkpt lat="43.53941" lon="5.53607">
        <ele>346</ele>
        <time>2018-02-20T12:06:59.000Z</time>
      </trkpt>
      <trkpt lat="43.53942" lon="5.53606">
        <ele>346</ele>
        <time>2018-02-20T12:07:00.000Z</time>
      </trkpt>
      <trkpt lat="43.53942" lon="5.53605">
        <ele>346</ele>
        <time>2018-02-20T12:07:01.000Z</time>
      </trkpt>
      <trkpt lat="43.53942" lon="5.53603">
        <ele>346</ele>
        <time>2018-02-20T12:07:02.000Z</time>
      </trkpt>
      <trkpt lat="43.53942" lon="5.53602">
        <ele>346</ele>
        <time>2018-02-20T12:07:03.000Z</time>
      </trkpt>
      <trkpt lat="43.53942" lon="5.53601">
        <ele>347</ele>
        <time>2018-02-20T12:07:04.000Z</time>
      </trkpt>
      <trkpt lat="43.53942" lon="5.53601">
        <ele>347</ele>
        <time>2018-02-20T12:07:05.000Z</time>
      </trkpt>
      <trkpt lat="43.53942" lon="5.53601">
        <ele>347</ele>
        <time>2018-02-20T12:07:06.000Z</time>
      </trkpt>
      <trkpt lat="43.53942" lon="5.53601">
        <ele>347</ele>
        <time>2018-02-20T12:07:07.000Z</time>
      </trkpt>
      <trkpt lat="43.53942" lon="5.53601">
        <ele>347</ele>
        <time>2018-02-20T12:07:08.000Z</time>
      </trkpt>
      <trkpt lat="43.53942" lon="5.53601">
        <ele>347</ele>
        <time>2018-02-20T12:07:09.000Z</time>
      </trkpt>
      <trkpt lat="43.53942" lon="5.53601">
        <ele>347</ele>
        <time>2018-02-20T12:07:10.000Z</time>
      </trkpt>
      <trkpt lat="43.53942" lon="5.53601">
        <ele>347</ele>
        <time>2018-02-20T12:07:11.000Z</time>
      </trkpt>
      <trkpt lat="43.53943" lon="5.53601">
        <ele>347</ele>
        <time>2018-02-20T12:07:12.000Z</time>
      </trkpt>
      <trkpt lat="43.53943" lon="5.53601">
        <ele>347</ele>
        <time>2018-02-20T12:07:13.000Z</time>
      </trkpt>
      <trkpt lat="43.53943" lon="5.53601">
        <ele>347</ele>
        <time>2018-02-20T12:07:14.000Z</time>
      </trkpt>
      <trkpt lat="43.53943" lon="5.53601">
        <ele>347</ele>
        <time>2018-02-20T12:07:15.000Z</time>
      </trkpt>
      <trkpt lat="43.5394" lon="5.53599">
        <ele>349</ele>
        <time>2018-02-20T12:07:16.000Z</time>
      </trkpt>
      <trkpt lat="43.53939" lon="5.53599">
        <ele>349</ele>
        <time>2018-02-20T12:07:17.000Z</time>
      </trkpt>
      <trkpt lat="43.53939" lon="5.53599">
        <ele>349</ele>
        <time>2018-02-20T12:07:18.000Z</time>
      </trkpt>
      <trkpt lat="43.53938" lon="5.53599">
        <ele>349</ele>
        <time>2018-02-20T12:07:19.000Z</time>
      </trkpt>
      <trkpt lat="43.53937" lon="5.53599">
        <ele>349</ele>
        <time>2018-02-20T12:07:20.000Z</time>
      </trkpt>
      <trkpt lat="43.53936" lon="5.53599">
        <ele>349</ele>
        <time>2018-02-20T12:07:21.000Z</time>
      </trkpt>
      <trkpt lat="43.53935" lon="5.53599">
        <ele>349</ele>
        <time>2018-02-20T12:07:22.000Z</time>
      </trkpt>
      <trkpt lat="43.53934" lon="5.53598">
        <ele>349</ele>
        <time>2018-02-20T12:07:23.000Z</time>
      </trkpt>
      <trkpt lat="43.53933" lon="5.53597">
        <ele>349</ele>
        <time>2018-02-20T12:07:24.000Z</time>
      </trkpt>
      <trkpt lat="43.53933" lon="5.53597">
        <ele>349</ele>
        <time>2018-02-20T12:07:25.000Z</time>
      </trkpt>
      <trkpt lat="43.53932" lon="5.53596">
        <ele>350</ele>
        <time>2018-02-20T12:07:26.000Z</time>
      </trkpt>
      <trkpt lat="43.53931" lon="5.53596">
        <ele>350</ele>
        <time>2018-02-20T12:07:27.000Z</time>
      </trkpt>
      <trkpt lat="43.53931" lon="5.53595">
        <ele>350</ele>
        <time>2018-02-20T12:07:28.000Z</time>
      </trkpt>
      <trkpt lat="43.5393" lon="5.53594">
        <ele>350</ele>
        <time>2018-02-20T12:07:29.000Z</time>
      </trkpt>
      <trkpt lat="43.5393" lon="5.53594">
        <ele>350</ele>
        <time>2018-02-20T12:07:30.000Z</time>
      </trkpt>
      <trkpt lat="43.53929" lon="5.53593">
        <ele>350</ele>
        <time>2018-02-20T12:07:31.000Z</time>
      </trkpt>
      <trkpt lat="43.53929" lon="5.53592">
        <ele>350</ele>
        <time>2018-02-20T12:07:32.000Z</time>
      </trkpt>
      <trkpt lat="43.53928" lon="5.53591">
        <ele>350</ele>
        <time>2018-02-20T12:07:33.000Z</time>
      </trkpt>
      <trkpt lat="43.53928" lon="5.5359">
        <ele>350</ele>
        <time>2018-02-20T12:07:34.000Z</time>
      </trkpt>
      <trkpt lat="43.53927" lon="5.5359">
        <ele>350</ele>
        <time>2018-02-20T12:07:35.000Z</time>
      </trkpt>
      <trkpt lat="43.53927" lon="5.53589">
        <ele>350</ele>
        <time>2018-02-20T12:07:36.000Z</time>
      </trkpt>
      <trkpt lat="43.53926" lon="5.53588">
        <ele>350</ele>
        <time>2018-02-20T12:07:37.000Z</time>
      </trkpt>
      <trkpt lat="43.53926" lon="5.53587">
        <ele>350</ele>
        <time>2018-02-20T12:07:38.000Z</time>
      </trkpt>
      <trkpt lat="43.53925" lon="5.53586">
        <ele>350</ele>
        <time>2018-02-20T12:07:39.000Z</time>
      </trkpt>
      <trkpt lat="43.53925" lon="5.53585">
        <ele>350</ele>
        <time>2018-02-20T12:07:40.000Z</time>
      </trkpt>
      <trkpt lat="43.53924" lon="5.53584">
        <ele>350</ele>
        <time>2018-02-20T12:07:41.000Z</time>
      </trkpt>
      <trkpt lat="43.53924" lon="5.53583">
        <ele>350</ele>
        <time>2018-02-20T12:07:42.000Z</time>
      </trkpt>
      <trkpt lat="43.53923" lon="5.53582">
        <ele>350</ele>
        <time>2018-02-20T12:07:43.000Z</time>
      </trkpt>
      <trkpt lat="43.53923" lon="5.53581">
        <ele>350</ele>
        <time>2018-02-20T12:07:44.000Z</time>
      </trkpt>
      <trkpt lat="43.53922" lon="5.5358">
        <ele>351</ele>
        <time>2018-02-20T12:07:45.000Z</time>
      </trkpt>
      <trkpt lat="43.53922" lon="5.53578">
        <ele>351</ele>
        <time>2018-02-20T12:07:46.000Z</time>
      </trkpt>
      <trkpt lat="43.53921" lon="5.53577">
        <ele>351</ele>
        <time>2018-02-20T12:07:47.000Z</time>
      </trkpt>
      <trkpt lat="43.5392" lon="5.53576">
        <ele>351</ele>
        <time>2018-02-20T12:07:48.000Z</time>
      </trkpt>
      <trkpt lat="43.5392" lon="5.53575">
        <ele>351</ele>
        <time>2018-02-20T12:07:49.000Z</time>
      </trkpt>
      <trkpt lat="43.5392" lon="5.53574">
        <ele>351</ele>
        <time>2018-02-20T12:07:50.000Z</time>
      </trkpt>
      <trkpt lat="43.53919" lon="5.53573">
        <ele>351</ele>
        <time>2018-02-20T12:07:51.000Z</time>
      </trkpt>
      <trkpt lat="43.53919" lon="5.53572">
        <ele>351</ele>
        <time>2018-02-20T12:07:52.000Z</time>
      </trkpt>
      <trkpt lat="43.53918" lon="5.53571">
        <ele>351</ele>
        <time>2018-02-20T12:07:53.000Z</time>
      </trkpt>
      <trkpt lat="43.53918" lon="5.5357">
        <ele>351</ele>
        <time>2018-02-20T12:07:54.000Z</time>
      </trkpt>
      <trkpt lat="43.53917" lon="5.53569">
        <ele>351</ele>
        <time>2018-02-20T12:07:55.000Z</time>
      </trkpt>
      <trkpt lat="43.53916" lon="5.53569">
        <ele>351</ele>
        <time>2018-02-20T12:07:56.000Z</time>
      </trkpt>
      <trkpt lat="43.53916" lon="5.53568">
        <ele>351</ele>
        <time>2018-02-20T12:07:57.000Z</time>
      </trkpt>
      <trkpt lat="43.53915" lon="5.53567">
        <ele>352</ele>
        <time>2018-02-20T12:07:58.000Z</time>
      </trkpt>
      <trkpt lat="43.53915" lon="5.53566">
        <ele>352</ele>
        <time>2018-02-20T12:07:59.000Z</time>
      </trkpt>
      <trkpt lat="43.53914" lon="5.53565">
        <ele>352</ele>
        <time>2018-02-20T12:08:00.000Z</time>
      </trkpt>
      <trkpt lat="43.53914" lon="5.53564">
        <ele>352</ele>
        <time>2018-02-20T12:08:01.000Z</time>
      </trkpt>
      <trkpt lat="43.53913" lon="5.53563">
        <ele>352</ele>
        <time>2018-02-20T12:08:02.000Z</time>
      </trkpt>
      <trkpt lat="43.53913" lon="5.53563">
        <ele>352</ele>
        <time>2018-02-20T12:08:03.000Z</time>
      </trkpt>
      <trkpt lat="43.53912" lon="5.53562">
        <ele>352</ele>
        <time>2018-02-20T12:08:04.000Z</time>
      </trkpt>
      <trkpt lat="43.53911" lon="5.53561">
        <ele>352</ele>
        <time>2018-02-20T12:08:05.000Z</time>
      </trkpt>
      <trkpt lat="43.5391" lon="5.53561">
        <ele>352</ele>
        <time>2018-02-20T12:08:06.000Z</time>
      </trkpt>
      <trkpt lat="43.53909" lon="5.5356">
        <ele>352</ele>
        <time>2018-02-20T12:08:07.000Z</time>
      </trkpt>
      <trkpt lat="43.53908" lon="5.5356">
        <ele>353</ele>
        <time>2018-02-20T12:08:08.000Z</time>
      </trkpt>
      <trkpt lat="43.53908" lon="5.5356">
        <ele>353</ele>
        <time>2018-02-20T12:08:09.000Z</time>
      </trkpt>
      <trkpt lat="43.53907" lon="5.53559">
        <ele>353</ele>
        <time>2018-02-20T12:08:10.000Z</time>
      </trkpt>
      <trkpt lat="43.53906" lon="5.53559">
        <ele>353</ele>
        <time>2018-02-20T12:08:11.000Z</time>
      </trkpt>
      <trkpt lat="43.53905" lon="5.53559">
        <ele>353</ele>
        <time>2018-02-20T12:08:12.000Z</time>
      </trkpt>
      <trkpt lat="43.53904" lon="5.53559">
        <ele>353</ele>
        <time>2018-02-20T12:08:13.000Z</time>
      </trkpt>
      <trkpt lat="43.53904" lon="5.53559">
        <ele>353</ele>
        <time>2018-02-20T12:08:14.000Z</time>
      </trkpt>
      <trkpt lat="43.53903" lon="5.53559">
        <ele>353</ele>
        <time>2018-02-20T12:08:15.000Z</time>
      </trkpt>
      <trkpt lat="43.53902" lon="5.53558">
        <ele>353</ele>
        <time>2018-02-20T12:08:16.000Z</time>
      </trkpt>
      <trkpt lat="43.53901" lon="5.53558">
        <ele>353</ele>
        <time>2018-02-20T12:08:17.000Z</time>
      </trkpt>
      <trkpt lat="43.53901" lon="5.53558">
        <ele>353</ele>
        <time>2018-02-20T12:08:18.000Z</time>
      </trkpt>
      <trkpt lat="43.539" lon="5.53559">
        <ele>353</ele>
        <time>2018-02-20T12:08:19.000Z</time>
      </trkpt>
      <trkpt lat="43.53899" lon="5.53559">
        <ele>353</ele>
        <time>2018-02-20T12:08:20.000Z</time>
      </trkpt>
      <trkpt lat="43.53898" lon="5.5356">
        <ele>353</ele>
        <time>2018-02-20T12:08:21.000Z</time>
      </trkpt>
      <trkpt lat="43.53897" lon="5.5356">
        <ele>353</ele>
        <time>2018-02-20T12:08:22.000Z</time>
      </trkpt>
      <trkpt lat="43.53896" lon="5.53561">
        <ele>353</ele>
        <time>2018-02-20T12:08:23.000Z</time>
      </trkpt>
      <trkpt lat="43.53896" lon="5.53561">
        <ele>353</ele>
        <time>2018-02-20T12:08:24.000Z</time>
      </trkpt>
      <trkpt lat="43.53895" lon="5.53561">
        <ele>353</ele>
        <time>2018-02-20T12:08:25.000Z</time>
      </trkpt>
      <trkpt lat="43.53894" lon="5.53561">
        <ele>353</ele>
        <time>2018-02-20T12:08:26.000Z</time>
      </trkpt>
      <trkpt lat="43.53894" lon="5.53561">
        <ele>354</ele>
        <time>2018-02-20T12:08:27.000Z</time>
      </trkpt>
      <trkpt lat="43.53894" lon="5.53561">
        <ele>354</ele>
        <time>2018-02-20T12:08:28.000Z</time>
      </trkpt>
      <trkpt lat="43.53894" lon="5.53562">
        <ele>354</ele>
        <time>2018-02-20T12:08:29.000Z</time>
      </trkpt>
      <trkpt lat="43.53893" lon="5.53562">
        <ele>354</ele>
        <time>2018-02-20T12:08:30.000Z</time>
      </trkpt>
      <trkpt lat="43.53893" lon="5.53562">
        <ele>354</ele>
        <time>2018-02-20T12:08:31.000Z</time>
      </trkpt>
      <trkpt lat="43.53892" lon="5.53562">
        <ele>354</ele>
        <time>2018-02-20T12:08:32.000Z</time>
      </trkpt>
      <trkpt lat="43.53892" lon="5.53563">
        <ele>354</ele>
        <time>2018-02-20T12:08:33.000Z</time>
      </trkpt>
      <trkpt lat="43.53892" lon="5.53563">
        <ele>354</ele>
        <time>2018-02-20T12:08:34.000Z</time>
      </trkpt>
      <trkpt lat="43.53892" lon="5.53563">
        <ele>354</ele>
        <time>2018-02-20T12:08:35.000Z</time>
      </trkpt>
      <trkpt lat="43.53892" lon="5.53563">
        <ele>355</ele>
        <time>2018-02-20T12:08:36.000Z</time>
      </trkpt>
      <trkpt lat="43.53892" lon="5.53563">
        <ele>355</ele>
        <time>2018-02-20T12:08:37.000Z</time>
      </trkpt>
      <trkpt lat="43.53892" lon="5.53563">
        <ele>355</ele>
        <time>2018-02-20T12:08:38.000Z</time>
      </trkpt>
      <trkpt lat="43.53892" lon="5.53563">
        <ele>355</ele>
        <time>2018-02-20T12:08:39.000Z</time>
      </trkpt>
      <trkpt lat="43.53891" lon="5.53563">
        <ele>355</ele>
        <time>2018-02-20T12:08:40.000Z</time>
      </trkpt>
      <trkpt lat="43.53891" lon="5.53563">
        <ele>355</ele>
        <time>2018-02-20T12:08:41.000Z</time>
      </trkpt>
      <trkpt lat="43.53891" lon="5.53563">
        <ele>355</ele>
        <time>2018-02-20T12:08:42.000Z</time>
      </trkpt>
      <trkpt lat="43.53891" lon="5.53563">
        <ele>355</ele>
        <time>2018-02-20T12:08:43.000Z</time>
      </trkpt>
      <trkpt lat="43.53891" lon="5.53563">
        <ele>355</ele>
        <time>2018-02-20T12:08:44.000Z</time>
      </trkpt>
      <trkpt lat="43.53891" lon="5.53562">
        <ele>355</ele>
        <time>2018-02-20T12:08:45.000Z</time>
      </trkpt>
      <trkpt lat="43.53891" lon="5.53562">
        <ele>355</ele>
        <time>2018-02-20T12:08:46.000Z</time>
      </trkpt>
      <trkpt lat="43.53891" lon="5.53561">
        <ele>355</ele>
        <time>2018-02-20T12:08:47.000Z</time>
      </trkpt>
      <trkpt lat="43.53891" lon="5.53561">
        <ele>355</ele>
        <time>2018-02-20T12:08:48.000Z</time>
      </trkpt>
      <trkpt lat="43.53891" lon="5.5356">
        <ele>355</ele>
        <time>2018-02-20T12:08:49.000Z</time>
      </trkpt>
      <trkpt lat="43.53891" lon="5.53559">
        <ele>355</ele>
        <time>2018-02-20T12:08:50.000Z</time>
      </trkpt>
      <trkpt lat="43.53891" lon="5.53559">
        <ele>354</ele>
        <time>2018-02-20T12:08:51.000Z</time>
      </trkpt>
      <trkpt lat="43.5389" lon="5.53558">
        <ele>354</ele>
        <time>2018-02-20T12:08:52.000Z</time>
      </trkpt>
      <trkpt lat="43.5389" lon="5.53557">
        <ele>354</ele>
        <time>2018-02-20T12:08:53.000Z</time>
      </trkpt>
      <trkpt lat="43.53889" lon="5.53557">
        <ele>354</ele>
        <time>2018-02-20T12:08:54.000Z</time>
      </trkpt>
      <trkpt lat="43.53889" lon="5.53556">
        <ele>354</ele>
        <time>2018-02-20T12:08:55.000Z</time>
      </trkpt>
      <trkpt lat="43.53888" lon="5.53555">
        <ele>354</ele>
        <time>2018-02-20T12:08:56.000Z</time>
      </trkpt>
      <trkpt lat="43.53887" lon="5.53555">
        <ele>354</ele>
        <time>2018-02-20T12:08:57.000Z</time>
      </trkpt>
      <trkpt lat="43.53886" lon="5.53554">
        <ele>354</ele>
        <time>2018-02-20T12:08:58.000Z</time>
      </trkpt>
      <trkpt lat="43.53885" lon="5.53554">
        <ele>354</ele>
        <time>2018-02-20T12:08:59.000Z</time>
      </trkpt>
      <trkpt lat="43.53885" lon="5.53555">
        <ele>354</ele>
        <time>2018-02-20T12:09:00.000Z</time>
      </trkpt>
      <trkpt lat="43.53884" lon="5.53555">
        <ele>354</ele>
        <time>2018-02-20T12:09:01.000Z</time>
      </trkpt>
      <trkpt lat="43.53883" lon="5.53555">
        <ele>354</ele>
        <time>2018-02-20T12:09:02.000Z</time>
      </trkpt>
      <trkpt lat="43.53882" lon="5.53555">
        <ele>354</ele>
        <time>2018-02-20T12:09:03.000Z</time>
      </trkpt>
      <trkpt lat="43.53881" lon="5.53555">
        <ele>354</ele>
        <time>2018-02-20T12:09:04.000Z</time>
      </trkpt>
      <trkpt lat="43.5388" lon="5.53555">
        <ele>354</ele>
        <time>2018-02-20T12:09:05.000Z</time>
      </trkpt>
      <trkpt lat="43.53879" lon="5.53554">
        <ele>354</ele>
        <time>2018-02-20T12:09:06.000Z</time>
      </trkpt>
      <trkpt lat="43.53878" lon="5.53553">
        <ele>354</ele>
        <time>2018-02-20T12:09:07.000Z</time>
      </trkpt>
      <trkpt lat="43.53878" lon="5.53551">
        <ele>354</ele>
        <time>2018-02-20T12:09:08.000Z</time>
      </trkpt>
      <trkpt lat="43.53877" lon="5.5355">
        <ele>354</ele>
        <time>2018-02-20T12:09:09.000Z</time>
      </trkpt>
      <trkpt lat="43.53877" lon="5.53549">
        <ele>354</ele>
        <time>2018-02-20T12:09:10.000Z</time>
      </trkpt>
      <trkpt lat="43.53877" lon="5.53547">
        <ele>354</ele>
        <time>2018-02-20T12:09:11.000Z</time>
      </trkpt>
      <trkpt lat="43.53878" lon="5.53546">
        <ele>355</ele>
        <time>2018-02-20T12:09:12.000Z</time>
      </trkpt>
      <trkpt lat="43.53878" lon="5.53545">
        <ele>355</ele>
        <time>2018-02-20T12:09:13.000Z</time>
      </trkpt>
      <trkpt lat="43.53878" lon="5.53544">
        <ele>355</ele>
        <time>2018-02-20T12:09:14.000Z</time>
      </trkpt>
      <trkpt lat="43.53879" lon="5.53543">
        <ele>355</ele>
        <time>2018-02-20T12:09:15.000Z</time>
      </trkpt>
      <trkpt lat="43.53879" lon="5.53541">
        <ele>355</ele>
        <time>2018-02-20T12:09:16.000Z</time>
      </trkpt>
      <trkpt lat="43.53879" lon="5.5354">
        <ele>355</ele>
        <time>2018-02-20T12:09:17.000Z</time>
      </trkpt>
      <trkpt lat="43.53878" lon="5.53539">
        <ele>355</ele>
        <time>2018-02-20T12:09:18.000Z</time>
      </trkpt>
      <trkpt lat="43.53878" lon="5.53537">
        <ele>355</ele>
        <time>2018-02-20T12:09:19.000Z</time>
      </trkpt>
      <trkpt lat="43.53879" lon="5.53536">
        <ele>355</ele>
        <time>2018-02-20T12:09:20.000Z</time>
      </trkpt>
      <trkpt lat="43.53879" lon="5.53535">
        <ele>355</ele>
        <time>2018-02-20T12:09:21.000Z</time>
      </trkpt>
      <trkpt lat="43.53879" lon="5.53534">
        <ele>356</ele>
        <time>2018-02-20T12:09:22.000Z</time>
      </trkpt>
      <trkpt lat="43.53879" lon="5.53533">
        <ele>356</ele>
        <time>2018-02-20T12:09:23.000Z</time>
      </trkpt>
      <trkpt lat="43.53879" lon="5.53532">
        <ele>356</ele>
        <time>2018-02-20T12:09:24.000Z</time>
      </trkpt>
      <trkpt lat="43.5388" lon="5.53531">
        <ele>356</ele>
        <time>2018-02-20T12:09:25.000Z</time>
      </trkpt>
      <trkpt lat="43.5388" lon="5.5353">
        <ele>356</ele>
        <time>2018-02-20T12:09:26.000Z</time>
      </trkpt>
      <trkpt lat="43.53881" lon="5.53529">
        <ele>356</ele>
        <time>2018-02-20T12:09:27.000Z</time>
      </trkpt>
      <trkpt lat="43.53881" lon="5.53528">
        <ele>356</ele>
        <time>2018-02-20T12:09:28.000Z</time>
      </trkpt>
      <trkpt lat="43.53882" lon="5.53527">
        <ele>356</ele>
        <time>2018-02-20T12:09:29.000Z</time>
      </trkpt>
      <trkpt lat="43.53882" lon="5.53526">
        <ele>356</ele>
        <time>2018-02-20T12:09:30.000Z</time>
      </trkpt>
      <trkpt lat="43.53882" lon="5.53525">
        <ele>356</ele>
        <time>2018-02-20T12:09:31.000Z</time>
      </trkpt>
      <trkpt lat="43.53882" lon="5.53526">
        <ele>356</ele>
        <time>2018-02-20T12:09:32.000Z</time>
      </trkpt>
      <trkpt lat="43.53882" lon="5.53526">
        <ele>356</ele>
        <time>2018-02-20T12:09:33.000Z</time>
      </trkpt>
      <trkpt lat="43.53882" lon="5.53525">
        <ele>356</ele>
        <time>2018-02-20T12:09:34.000Z</time>
      </trkpt>
      <trkpt lat="43.53882" lon="5.53525">
        <ele>356</ele>
        <time>2018-02-20T12:09:35.000Z</time>
      </trkpt>
      <trkpt lat="43.53882" lon="5.53525">
        <ele>356</ele>
        <time>2018-02-20T12:09:36.000Z</time>
      </trkpt>
      <trkpt lat="43.53882" lon="5.53525">
        <ele>356</ele>
        <time>2018-02-20T12:09:37.000Z</time>
      </trkpt>
      <trkpt lat="43.53882" lon="5.53525">
        <ele>356</ele>
        <time>2018-02-20T12:09:38.000Z</time>
      </trkpt>
      <trkpt lat="43.53882" lon="5.53525">
        <ele>356</ele>
        <time>2018-02-20T12:09:39.000Z</time>
      </trkpt>
      <trkpt lat="43.53882" lon="5.53524">
        <ele>356</ele>
        <time>2018-02-20T12:09:40.000Z</time>
      </trkpt>
      <trkpt lat="43.53882" lon="5.53523">
        <ele>356</ele>
        <time>2018-02-20T12:09:41.000Z</time>
      </trkpt>
      <trkpt lat="43.53882" lon="5.53522">
        <ele>356</ele>
        <time>2018-02-20T12:09:42.000Z</time>
      </trkpt>
      <trkpt lat="43.53881" lon="5.53522">
        <ele>356</ele>
        <time>2018-02-20T12:09:43.000Z</time>
      </trkpt>
      <trkpt lat="43.53881" lon="5.53521">
        <ele>356</ele>
        <time>2018-02-20T12:09:44.000Z</time>
      </trkpt>
      <trkpt lat="43.53881" lon="5.5352">
        <ele>356</ele>
        <time>2018-02-20T12:09:45.000Z</time>
      </trkpt>
      <trkpt lat="43.53881" lon="5.53519">
        <ele>356</ele>
        <time>2018-02-20T12:09:46.000Z</time>
      </trkpt>
      <trkpt lat="43.5388" lon="5.53519">
        <ele>356</ele>
        <time>2018-02-20T12:09:47.000Z</time>
      </trkpt>
      <trkpt lat="43.5388" lon="5.53518">
        <ele>356</ele>
        <time>2018-02-20T12:09:48.000Z</time>
      </trkpt>
      <trkpt lat="43.5388" lon="5.53517">
        <ele>357</ele>
        <time>2018-02-20T12:09:49.000Z</time>
      </trkpt>
      <trkpt lat="43.5388" lon="5.53517">
        <ele>357</ele>
        <time>2018-02-20T12:09:50.000Z</time>
      </trkpt>
      <trkpt lat="43.5388" lon="5.53516">
        <ele>357</ele>
        <time>2018-02-20T12:09:51.000Z</time>
      </trkpt>
      <trkpt lat="43.5388" lon="5.53515">
        <ele>357</ele>
        <time>2018-02-20T12:09:52.000Z</time>
      </trkpt>
      <trkpt lat="43.53881" lon="5.53514">
        <ele>357</ele>
        <time>2018-02-20T12:09:53.000Z</time>
      </trkpt>
      <trkpt lat="43.53881" lon="5.53514">
        <ele>357</ele>
        <time>2018-02-20T12:09:54.000Z</time>
      </trkpt>
      <trkpt lat="43.53882" lon="5.53513">
        <ele>357</ele>
        <time>2018-02-20T12:09:55.000Z</time>
      </trkpt>
      <trkpt lat="43.53882" lon="5.53513">
        <ele>357</ele>
        <time>2018-02-20T12:09:56.000Z</time>
      </trkpt>
      <trkpt lat="43.53882" lon="5.53512">
        <ele>357</ele>
        <time>2018-02-20T12:09:57.000Z</time>
      </trkpt>
      <trkpt lat="43.53882" lon="5.53512">
        <ele>357</ele>
        <time>2018-02-20T12:09:58.000Z</time>
      </trkpt>
      <trkpt lat="43.53882" lon="5.53512">
        <ele>358</ele>
        <time>2018-02-20T12:09:59.000Z</time>
      </trkpt>
      <trkpt lat="43.53882" lon="5.53513">
        <ele>358</ele>
        <time>2018-02-20T12:10:00.000Z</time>
      </trkpt>
      <trkpt lat="43.53881" lon="5.53514">
        <ele>358</ele>
        <time>2018-02-20T12:10:01.000Z</time>
      </trkpt>
      <trkpt lat="43.53881" lon="5.53514">
        <ele>358</ele>
        <time>2018-02-20T12:10:02.000Z</time>
      </trkpt>
      <trkpt lat="43.53879" lon="5.53514">
        <ele>358</ele>
        <time>2018-02-20T12:10:03.000Z</time>
      </trkpt>
      <trkpt lat="43.53878" lon="5.53513">
        <ele>358</ele>
        <time>2018-02-20T12:10:04.000Z</time>
      </trkpt>
      <trkpt lat="43.53878" lon="5.53513">
        <ele>358</ele>
        <time>2018-02-20T12:10:05.000Z</time>
      </trkpt>
      <trkpt lat="43.53877" lon="5.53512">
        <ele>358</ele>
        <time>2018-02-20T12:10:06.000Z</time>
      </trkpt>
      <trkpt lat="43.53877" lon="5.53511">
        <ele>358</ele>
        <time>2018-02-20T12:10:07.000Z</time>
      </trkpt>
      <trkpt lat="43.53876" lon="5.5351">
        <ele>358</ele>
        <time>2018-02-20T12:10:08.000Z</time>
      </trkpt>
      <trkpt lat="43.53876" lon="5.5351">
        <ele>358</ele>
        <time>2018-02-20T12:10:09.000Z</time>
      </trkpt>
      <trkpt lat="43.53877" lon="5.53509">
        <ele>358</ele>
        <time>2018-02-20T12:10:10.000Z</time>
      </trkpt>
      <trkpt lat="43.53877" lon="5.53509">
        <ele>358</ele>
        <time>2018-02-20T12:10:11.000Z</time>
      </trkpt>
      <trkpt lat="43.53877" lon="5.53508">
        <ele>358</ele>
        <time>2018-02-20T12:10:12.000Z</time>
      </trkpt>
      <trkpt lat="43.53877" lon="5.53508">
        <ele>358</ele>
        <time>2018-02-20T12:10:13.000Z</time>
      </trkpt>
      <trkpt lat="43.53878" lon="5.53508">
        <ele>358</ele>
        <time>2018-02-20T12:10:14.000Z</time>
      </trkpt>
      <trkpt lat="43.53878" lon="5.53509">
        <ele>358</ele>
        <time>2018-02-20T12:10:15.000Z</time>
      </trkpt>
      <trkpt lat="43.53878" lon="5.53509">
        <ele>358</ele>
        <time>2018-02-20T12:10:16.000Z</time>
      </trkpt>
      <trkpt lat="43.53878" lon="5.53509">
        <ele>358</ele>
        <time>2018-02-20T12:10:17.000Z</time>
      </trkpt>
      <trkpt lat="43.53877" lon="5.53509">
        <ele>358</ele>
        <time>2018-02-20T12:10:18.000Z</time>
      </trkpt>
      <trkpt lat="43.53877" lon="5.53509">
        <ele>358</ele>
        <time>2018-02-20T12:10:19.000Z</time>
      </trkpt>
      <trkpt lat="43.53877" lon="5.53509">
        <ele>358</ele>
        <time>2018-02-20T12:10:20.000Z</time>
      </trkpt>
      <trkpt lat="43.53877" lon="5.53509">
        <ele>358</ele>
        <time>2018-02-20T12:10:21.000Z</time>
      </trkpt>
      <trkpt lat="43.53877" lon="5.53508">
        <ele>358</ele>
        <time>2018-02-20T12:10:22.000Z</time>
      </trkpt>
      <trkpt lat="43.53877" lon="5.53508">
        <ele>358</ele>
        <time>2018-02-20T12:10:23.000Z</time>
      </trkpt>
      <trkpt lat="43.53877" lon="5.53507">
        <ele>358</ele>
        <time>2018-02-20T12:10:24.000Z</time>
      </trkpt>
      <trkpt lat="43.53877" lon="5.53507">
        <ele>358</ele>
        <time>2018-02-20T12:10:25.000Z</time>
      </trkpt>
      <trkpt lat="43.53877" lon="5.53507">
        <ele>358</ele>
        <time>2018-02-20T12:10:26.000Z</time>
      </trkpt>
      <trkpt lat="43.53877" lon="5.53507">
        <ele>358</ele>
        <time>2018-02-20T12:10:27.000Z</time>
      </trkpt>
      <trkpt lat="43.53877" lon="5.53507">
        <ele>358</ele>
        <time>2018-02-20T12:10:28.000Z</time>
      </trkpt>
      <trkpt lat="43.53877" lon="5.53507">
        <ele>358</ele>
        <time>2018-02-20T12:10:29.000Z</time>
      </trkpt>
      <trkpt lat="43.53877" lon="5.53507">
        <ele>358</ele>
        <time>2018-02-20T12:10:30.000Z</time>
      </trkpt>
      <trkpt lat="43.53877" lon="5.53507">
        <ele>358</ele>
        <time>2018-02-20T12:10:31.000Z</time>
      </trkpt>
      <trkpt lat="43.53877" lon="5.53507">
        <ele>358</ele>
        <time>2018-02-20T12:10:32.000Z</time>
      </trkpt>
      <trkpt lat="43.53877" lon="5.53508">
        <ele>358</ele>
        <time>2018-02-20T12:10:33.000Z</time>
      </trkpt>
      <trkpt lat="43.53877" lon="5.53508">
        <ele>358</ele>
        <time>2018-02-20T12:10:34.000Z</time>
      </trkpt>
      <trkpt lat="43.53877" lon="5.53508">
        <ele>358</ele>
        <time>2018-02-20T12:10:35.000Z</time>
      </trkpt>
      <trkpt lat="43.53877" lon="5.53508">
        <ele>358</ele>
        <time>2018-02-20T12:10:36.000Z</time>
      </trkpt>
      <trkpt lat="43.53877" lon="5.53508">
        <ele>358</ele>
        <time>2018-02-20T12:10:37.000Z</time>
      </trkpt>
      <trkpt lat="43.53877" lon="5.53508">
        <ele>358</ele>
        <time>2018-02-20T12:10:38.000Z</time>
      </trkpt>
      <trkpt lat="43.53877" lon="5.53508">
        <ele>358</ele>
        <time>2018-02-20T12:10:39.000Z</time>
      </trkpt>
      <trkpt lat="43.53877" lon="5.53508">
        <ele>358</ele>
        <time>2018-02-20T12:10:40.000Z</time>
      </trkpt>
      <trkpt lat="43.53878" lon="5.53508">
        <ele>358</ele>
        <time>2018-02-20T12:10:41.000Z</time>
      </trkpt>
      <trkpt lat="43.53878" lon="5.53508">
        <ele>358</ele>
        <time>2018-02-20T12:10:42.000Z</time>
      </trkpt>
      <trkpt lat="43.53878" lon="5.53508">
        <ele>358</ele>
        <time>2018-02-20T12:10:43.000Z</time>
      </trkpt>
      <trkpt lat="43.53878" lon="5.53508">
        <ele>358</ele>
        <time>2018-02-20T12:10:44.000Z</time>
      </trkpt>
      <trkpt lat="43.53878" lon="5.5351">
        <ele>358</ele>
        <time>2018-02-20T12:10:45.000Z</time>
      </trkpt>
      <trkpt lat="43.53878" lon="5.53511">
        <ele>358</ele>
        <time>2018-02-20T12:10:46.000Z</time>
      </trkpt>
      <trkpt lat="43.53878" lon="5.53512">
        <ele>358</ele>
        <time>2018-02-20T12:10:47.000Z</time>
      </trkpt>
      <trkpt lat="43.53878" lon="5.53513">
        <ele>358</ele>
        <time>2018-02-20T12:10:48.000Z</time>
      </trkpt>
      <trkpt lat="43.53878" lon="5.53514">
        <ele>358</ele>
        <time>2018-02-20T12:10:49.000Z</time>
      </trkpt>
      <trkpt lat="43.53878" lon="5.53515">
        <ele>358</ele>
        <time>2018-02-20T12:10:50.000Z</time>
      </trkpt>
      <trkpt lat="43.53878" lon="5.53516">
        <ele>358</ele>
        <time>2018-02-20T12:10:51.000Z</time>
      </trkpt>
      <trkpt lat="43.53878" lon="5.53517">
        <ele>357</ele>
        <time>2018-02-20T12:10:52.000Z</time>
      </trkpt>
      <trkpt lat="43.53879" lon="5.53518">
        <ele>357</ele>
        <time>2018-02-20T12:10:53.000Z</time>
      </trkpt>
      <trkpt lat="43.53879" lon="5.5352">
        <ele>357</ele>
        <time>2018-02-20T12:10:54.000Z</time>
      </trkpt>
      <trkpt lat="43.53879" lon="5.53521">
        <ele>357</ele>
        <time>2018-02-20T12:10:55.000Z</time>
      </trkpt>
      <trkpt lat="43.53879" lon="5.53522">
        <ele>357</ele>
        <time>2018-02-20T12:10:56.000Z</time>
      </trkpt>
      <trkpt lat="43.53879" lon="5.53523">
        <ele>357</ele>
        <time>2018-02-20T12:10:57.000Z</time>
      </trkpt>
      <trkpt lat="43.53879" lon="5.53525">
        <ele>357</ele>
        <time>2018-02-20T12:10:58.000Z</time>
      </trkpt>
      <trkpt lat="43.5388" lon="5.53526">
        <ele>357</ele>
        <time>2018-02-20T12:10:59.000Z</time>
      </trkpt>
      <trkpt lat="43.5388" lon="5.53527">
        <ele>357</ele>
        <time>2018-02-20T12:11:00.000Z</time>
      </trkpt>
      <trkpt lat="43.5388" lon="5.53528">
        <ele>357</ele>
        <time>2018-02-20T12:11:01.000Z</time>
      </trkpt>
      <trkpt lat="43.53881" lon="5.53529">
        <ele>357</ele>
        <time>2018-02-20T12:11:02.000Z</time>
      </trkpt>
      <trkpt lat="43.53881" lon="5.5353">
        <ele>357</ele>
        <time>2018-02-20T12:11:03.000Z</time>
      </trkpt>
      <trkpt lat="43.53881" lon="5.53531">
        <ele>356</ele>
        <time>2018-02-20T12:11:04.000Z</time>
      </trkpt>
      <trkpt lat="43.53881" lon="5.53533">
        <ele>356</ele>
        <time>2018-02-20T12:11:05.000Z</time>
      </trkpt>
      <trkpt lat="43.53881" lon="5.53534">
        <ele>356</ele>
        <time>2018-02-20T12:11:06.000Z</time>
      </trkpt>
      <trkpt lat="43.53881" lon="5.53536">
        <ele>356</ele>
        <time>2018-02-20T12:11:07.000Z</time>
      </trkpt>
      <trkpt lat="43.53881" lon="5.53537">
        <ele>356</ele>
        <time>2018-02-20T12:11:08.000Z</time>
      </trkpt>
      <trkpt lat="43.53881" lon="5.53539">
        <ele>356</ele>
        <time>2018-02-20T12:11:09.000Z</time>
      </trkpt>
      <trkpt lat="43.5388" lon="5.5354">
        <ele>356</ele>
        <time>2018-02-20T12:11:10.000Z</time>
      </trkpt>
      <trkpt lat="43.5388" lon="5.53541">
        <ele>356</ele>
        <time>2018-02-20T12:11:11.000Z</time>
      </trkpt>
      <trkpt lat="43.5388" lon="5.53543">
        <ele>356</ele>
        <time>2018-02-20T12:11:12.000Z</time>
      </trkpt>
      <trkpt lat="43.5388" lon="5.53544">
        <ele>356</ele>
        <time>2018-02-20T12:11:13.000Z</time>
      </trkpt>
      <trkpt lat="43.5388" lon="5.53545">
        <ele>356</ele>
        <time>2018-02-20T12:11:14.000Z</time>
      </trkpt>
      <trkpt lat="43.5388" lon="5.53546">
        <ele>355</ele>
        <time>2018-02-20T12:11:15.000Z</time>
      </trkpt>
      <trkpt lat="43.5388" lon="5.53548">
        <ele>355</ele>
        <time>2018-02-20T12:11:16.000Z</time>
      </trkpt>
      <trkpt lat="43.5388" lon="5.53549">
        <ele>355</ele>
        <time>2018-02-20T12:11:17.000Z</time>
      </trkpt>
      <trkpt lat="43.5388" lon="5.5355">
        <ele>355</ele>
        <time>2018-02-20T12:11:18.000Z</time>
      </trkpt>
      <trkpt lat="43.5388" lon="5.53552">
        <ele>355</ele>
        <time>2018-02-20T12:11:19.000Z</time>
      </trkpt>
      <trkpt lat="43.5388" lon="5.53554">
        <ele>355</ele>
        <time>2018-02-20T12:11:20.000Z</time>
      </trkpt>
      <trkpt lat="43.53879" lon="5.53555">
        <ele>355</ele>
        <time>2018-02-20T12:11:21.000Z</time>
      </trkpt>
      <trkpt lat="43.53879" lon="5.53557">
        <ele>355</ele>
        <time>2018-02-20T12:11:22.000Z</time>
      </trkpt>
      <trkpt lat="43.53879" lon="5.53559">
        <ele>355</ele>
        <time>2018-02-20T12:11:23.000Z</time>
      </trkpt>
      <trkpt lat="43.53879" lon="5.53561">
        <ele>355</ele>
        <time>2018-02-20T12:11:24.000Z</time>
      </trkpt>
      <trkpt lat="43.53879" lon="5.53562">
        <ele>355</ele>
        <time>2018-02-20T12:11:25.000Z</time>
      </trkpt>
      <trkpt lat="43.53879" lon="5.53563">
        <ele>355</ele>
        <time>2018-02-20T12:11:26.000Z</time>
      </trkpt>
      <trkpt lat="43.5388" lon="5.53564">
        <ele>355</ele>
        <time>2018-02-20T12:11:27.000Z</time>
      </trkpt>
      <trkpt lat="43.5388" lon="5.53565">
        <ele>356</ele>
        <time>2018-02-20T12:11:28.000Z</time>
      </trkpt>
      <trkpt lat="43.5388" lon="5.53566">
        <ele>356</ele>
        <time>2018-02-20T12:11:29.000Z</time>
      </trkpt>
      <trkpt lat="43.53879" lon="5.53567">
        <ele>356</ele>
        <time>2018-02-20T12:11:30.000Z</time>
      </trkpt>
      <trkpt lat="43.53879" lon="5.53567">
        <ele>356</ele>
        <time>2018-02-20T12:11:31.000Z</time>
      </trkpt>
      <trkpt lat="43.53878" lon="5.53568">
        <ele>356</ele>
        <time>2018-02-20T12:11:32.000Z</time>
      </trkpt>
      <trkpt lat="43.53877" lon="5.53568">
        <ele>356</ele>
        <time>2018-02-20T12:11:33.000Z</time>
      </trkpt>
      <trkpt lat="43.53877" lon="5.53569">
        <ele>356</ele>
        <time>2018-02-20T12:11:34.000Z</time>
      </trkpt>
      <trkpt lat="43.53876" lon="5.5357">
        <ele>356</ele>
        <time>2018-02-20T12:11:35.000Z</time>
      </trkpt>
      <trkpt lat="43.53875" lon="5.53571">
        <ele>356</ele>
        <time>2018-02-20T12:11:36.000Z</time>
      </trkpt>
      <trkpt lat="43.53875" lon="5.53572">
        <ele>356</ele>
        <time>2018-02-20T12:11:37.000Z</time>
      </trkpt>
      <trkpt lat="43.53874" lon="5.53573">
        <ele>356</ele>
        <time>2018-02-20T12:11:38.000Z</time>
      </trkpt>
      <trkpt lat="43.53873" lon="5.53574">
        <ele>356</ele>
        <time>2018-02-20T12:11:39.000Z</time>
      </trkpt>
      <trkpt lat="43.53872" lon="5.53575">
        <ele>356</ele>
        <time>2018-02-20T12:11:40.000Z</time>
      </trkpt>
      <trkpt lat="43.53871" lon="5.53575">
        <ele>356</ele>
        <time>2018-02-20T12:11:41.000Z</time>
      </trkpt>
      <trkpt lat="43.5387" lon="5.53576">
        <ele>357</ele>
        <time>2018-02-20T12:11:42.000Z</time>
      </trkpt>
      <trkpt lat="43.53869" lon="5.53577">
        <ele>357</ele>
        <time>2018-02-20T12:11:43.000Z</time>
      </trkpt>
      <trkpt lat="43.53869" lon="5.53577">
        <ele>357</ele>
        <time>2018-02-20T12:11:44.000Z</time>
      </trkpt>
      <trkpt lat="43.53868" lon="5.53578">
        <ele>357</ele>
        <time>2018-02-20T12:11:45.000Z</time>
      </trkpt>
      <trkpt lat="43.53867" lon="5.53579">
        <ele>357</ele>
        <time>2018-02-20T12:11:46.000Z</time>
      </trkpt>
      <trkpt lat="43.53866" lon="5.5358">
        <ele>357</ele>
        <time>2018-02-20T12:11:47.000Z</time>
      </trkpt>
      <trkpt lat="43.53865" lon="5.5358">
        <ele>358</ele>
        <time>2018-02-20T12:11:48.000Z</time>
      </trkpt>
      <trkpt lat="43.53864" lon="5.53581">
        <ele>358</ele>
        <time>2018-02-20T12:11:49.000Z</time>
      </trkpt>
      <trkpt lat="43.53863" lon="5.53581">
        <ele>358</ele>
        <time>2018-02-20T12:11:50.000Z</time>
      </trkpt>
      <trkpt lat="43.53863" lon="5.53581">
        <ele>358</ele>
        <time>2018-02-20T12:11:51.000Z</time>
      </trkpt>
      <trkpt lat="43.53862" lon="5.53582">
        <ele>358</ele>
        <time>2018-02-20T12:11:52.000Z</time>
      </trkpt>
      <trkpt lat="43.53861" lon="5.53582">
        <ele>358</ele>
        <time>2018-02-20T12:11:53.000Z</time>
      </trkpt>
      <trkpt lat="43.5386" lon="5.53583">
        <ele>359</ele>
        <time>2018-02-20T12:11:54.000Z</time>
      </trkpt>
      <trkpt lat="43.53859" lon="5.53583">
        <ele>359</ele>
        <time>2018-02-20T12:11:55.000Z</time>
      </trkpt>
      <trkpt lat="43.53858" lon="5.53584">
        <ele>359</ele>
        <time>2018-02-20T12:11:56.000Z</time>
      </trkpt>
      <trkpt lat="43.53857" lon="5.53585">
        <ele>359</ele>
        <time>2018-02-20T12:11:57.000Z</time>
      </trkpt>
      <trkpt lat="43.53856" lon="5.53585">
        <ele>359</ele>
        <time>2018-02-20T12:11:58.000Z</time>
      </trkpt>
      <trkpt lat="43.53855" lon="5.53585">
        <ele>360</ele>
        <time>2018-02-20T12:11:59.000Z</time>
      </trkpt>
      <trkpt lat="43.53854" lon="5.53585">
        <ele>360</ele>
        <time>2018-02-20T12:12:00.000Z</time>
      </trkpt>
      <trkpt lat="43.53853" lon="5.53585">
        <ele>360</ele>
        <time>2018-02-20T12:12:01.000Z</time>
      </trkpt>
      <trkpt lat="43.53852" lon="5.53585">
        <ele>360</ele>
        <time>2018-02-20T12:12:02.000Z</time>
      </trkpt>
      <trkpt lat="43.53852" lon="5.53585">
        <ele>360</ele>
        <time>2018-02-20T12:12:03.000Z</time>
      </trkpt>
      <trkpt lat="43.53851" lon="5.53585">
        <ele>360</ele>
        <time>2018-02-20T12:12:04.000Z</time>
      </trkpt>
      <trkpt lat="43.5385" lon="5.53585">
        <ele>360</ele>
        <time>2018-02-20T12:12:05.000Z</time>
      </trkpt>
      <trkpt lat="43.53849" lon="5.53585">
        <ele>360</ele>
        <time>2018-02-20T12:12:06.000Z</time>
      </trkpt>
      <trkpt lat="43.53848" lon="5.53585">
        <ele>361</ele>
        <time>2018-02-20T12:12:07.000Z</time>
      </trkpt>
      <trkpt lat="43.53847" lon="5.53584">
        <ele>361</ele>
        <time>2018-02-20T12:12:08.000Z</time>
      </trkpt>
      <trkpt lat="43.53845" lon="5.53584">
        <ele>361</ele>
        <time>2018-02-20T12:12:09.000Z</time>
      </trkpt>
      <trkpt lat="43.53844" lon="5.53584">
        <ele>361</ele>
        <time>2018-02-20T12:12:10.000Z</time>
      </trkpt>
      <trkpt lat="43.53844" lon="5.53583">
        <ele>361</ele>
        <time>2018-02-20T12:12:11.000Z</time>
      </trkpt>
      <trkpt lat="43.53843" lon="5.53583">
        <ele>361</ele>
        <time>2018-02-20T12:12:12.000Z</time>
      </trkpt>
      <trkpt lat="43.53841" lon="5.53583">
        <ele>361</ele>
        <time>2018-02-20T12:12:13.000Z</time>
      </trkpt>
      <trkpt lat="43.5384" lon="5.53583">
        <ele>361</ele>
        <time>2018-02-20T12:12:14.000Z</time>
      </trkpt>
      <trkpt lat="43.53839" lon="5.53583">
        <ele>361</ele>
        <time>2018-02-20T12:12:15.000Z</time>
      </trkpt>
      <trkpt lat="43.53838" lon="5.53583">
        <ele>361</ele>
        <time>2018-02-20T12:12:16.000Z</time>
      </trkpt>
      <trkpt lat="43.53837" lon="5.53582">
        <ele>361</ele>
        <time>2018-02-20T12:12:17.000Z</time>
      </trkpt>
      <trkpt lat="43.53836" lon="5.53582">
        <ele>361</ele>
        <time>2018-02-20T12:12:18.000Z</time>
      </trkpt>
      <trkpt lat="43.53835" lon="5.53581">
        <ele>361</ele>
        <time>2018-02-20T12:12:19.000Z</time>
      </trkpt>
      <trkpt lat="43.53834" lon="5.5358">
        <ele>361</ele>
        <time>2018-02-20T12:12:20.000Z</time>
      </trkpt>
      <trkpt lat="43.53833" lon="5.53579">
        <ele>361</ele>
        <time>2018-02-20T12:12:21.000Z</time>
      </trkpt>
      <trkpt lat="43.53832" lon="5.53578">
        <ele>361</ele>
        <time>2018-02-20T12:12:22.000Z</time>
      </trkpt>
      <trkpt lat="43.53831" lon="5.53577">
        <ele>361</ele>
        <time>2018-02-20T12:12:23.000Z</time>
      </trkpt>
      <trkpt lat="43.5383" lon="5.53577">
        <ele>362</ele>
        <time>2018-02-20T12:12:24.000Z</time>
      </trkpt>
      <trkpt lat="43.5383" lon="5.53576">
        <ele>362</ele>
        <time>2018-02-20T12:12:25.000Z</time>
      </trkpt>
      <trkpt lat="43.53829" lon="5.53575">
        <ele>362</ele>
        <time>2018-02-20T12:12:26.000Z</time>
      </trkpt>
      <trkpt lat="43.53828" lon="5.53574">
        <ele>362</ele>
        <time>2018-02-20T12:12:27.000Z</time>
      </trkpt>
      <trkpt lat="43.53827" lon="5.53573">
        <ele>362</ele>
        <time>2018-02-20T12:12:28.000Z</time>
      </trkpt>
      <trkpt lat="43.53826" lon="5.53573">
        <ele>362</ele>
        <time>2018-02-20T12:12:29.000Z</time>
      </trkpt>
      <trkpt lat="43.53825" lon="5.53572">
        <ele>362</ele>
        <time>2018-02-20T12:12:30.000Z</time>
      </trkpt>
      <trkpt lat="43.53824" lon="5.53572">
        <ele>363</ele>
        <time>2018-02-20T12:12:31.000Z</time>
      </trkpt>
      <trkpt lat="43.53823" lon="5.53571">
        <ele>363</ele>
        <time>2018-02-20T12:12:32.000Z</time>
      </trkpt>
      <trkpt lat="43.53823" lon="5.53571">
        <ele>363</ele>
        <time>2018-02-20T12:12:33.000Z</time>
      </trkpt>
      <trkpt lat="43.53822" lon="5.5357">
        <ele>363</ele>
        <time>2018-02-20T12:12:34.000Z</time>
      </trkpt>
      <trkpt lat="43.53821" lon="5.53569">
        <ele>363</ele>
        <time>2018-02-20T12:12:35.000Z</time>
      </trkpt>
      <trkpt lat="43.5382" lon="5.53569">
        <ele>363</ele>
        <time>2018-02-20T12:12:36.000Z</time>
      </trkpt>
      <trkpt lat="43.53819" lon="5.53568">
        <ele>363</ele>
        <time>2018-02-20T12:12:37.000Z</time>
      </trkpt>
      <trkpt lat="43.53818" lon="5.53567">
        <ele>364</ele>
        <time>2018-02-20T12:12:38.000Z</time>
      </trkpt>
      <trkpt lat="43.53818" lon="5.53566">
        <ele>364</ele>
        <time>2018-02-20T12:12:39.000Z</time>
      </trkpt>
      <trkpt lat="43.53817" lon="5.53566">
        <ele>364</ele>
        <time>2018-02-20T12:12:40.000Z</time>
      </trkpt>
      <trkpt lat="43.53816" lon="5.53565">
        <ele>364</ele>
        <time>2018-02-20T12:12:41.000Z</time>
      </trkpt>
      <trkpt lat="43.53815" lon="5.53564">
        <ele>364</ele>
        <time>2018-02-20T12:12:42.000Z</time>
      </trkpt>
      <trkpt lat="43.53814" lon="5.53563">
        <ele>364</ele>
        <time>2018-02-20T12:12:43.000Z</time>
      </trkpt>
      <trkpt lat="43.53814" lon="5.53562">
        <ele>364</ele>
        <time>2018-02-20T12:12:44.000Z</time>
      </trkpt>
      <trkpt lat="43.53813" lon="5.53561">
        <ele>364</ele>
        <time>2018-02-20T12:12:45.000Z</time>
      </trkpt>
      <trkpt lat="43.53812" lon="5.5356">
        <ele>364</ele>
        <time>2018-02-20T12:12:46.000Z</time>
      </trkpt>
      <trkpt lat="43.53811" lon="5.5356">
        <ele>364</ele>
        <time>2018-02-20T12:12:47.000Z</time>
      </trkpt>
      <trkpt lat="43.5381" lon="5.53559">
        <ele>365</ele>
        <time>2018-02-20T12:12:48.000Z</time>
      </trkpt>
      <trkpt lat="43.5381" lon="5.53558">
        <ele>365</ele>
        <time>2018-02-20T12:12:49.000Z</time>
      </trkpt>
      <trkpt lat="43.53809" lon="5.53558">
        <ele>365</ele>
        <time>2018-02-20T12:12:50.000Z</time>
      </trkpt>
      <trkpt lat="43.53808" lon="5.53557">
        <ele>365</ele>
        <time>2018-02-20T12:12:51.000Z</time>
      </trkpt>
      <trkpt lat="43.53807" lon="5.53556">
        <ele>365</ele>
        <time>2018-02-20T12:12:52.000Z</time>
      </trkpt>
      <trkpt lat="43.53806" lon="5.53555">
        <ele>365</ele>
        <time>2018-02-20T12:12:53.000Z</time>
      </trkpt>
      <trkpt lat="43.53805" lon="5.53555">
        <ele>365</ele>
        <time>2018-02-20T12:12:54.000Z</time>
      </trkpt>
      <trkpt lat="43.53805" lon="5.53554">
        <ele>365</ele>
        <time>2018-02-20T12:12:55.000Z</time>
      </trkpt>
      <trkpt lat="43.53804" lon="5.53553">
        <ele>365</ele>
        <time>2018-02-20T12:12:56.000Z</time>
      </trkpt>
      <trkpt lat="43.53803" lon="5.53552">
        <ele>365</ele>
        <time>2018-02-20T12:12:57.000Z</time>
      </trkpt>
      <trkpt lat="43.53803" lon="5.53552">
        <ele>365</ele>
        <time>2018-02-20T12:12:58.000Z</time>
      </trkpt>
      <trkpt lat="43.53802" lon="5.53551">
        <ele>365</ele>
        <time>2018-02-20T12:12:59.000Z</time>
      </trkpt>
      <trkpt lat="43.53801" lon="5.5355">
        <ele>365</ele>
        <time>2018-02-20T12:13:00.000Z</time>
      </trkpt>
      <trkpt lat="43.538" lon="5.5355">
        <ele>366</ele>
        <time>2018-02-20T12:13:01.000Z</time>
      </trkpt>
      <trkpt lat="43.538" lon="5.53549">
        <ele>366</ele>
        <time>2018-02-20T12:13:02.000Z</time>
      </trkpt>
      <trkpt lat="43.53799" lon="5.53549">
        <ele>366</ele>
        <time>2018-02-20T12:13:03.000Z</time>
      </trkpt>
      <trkpt lat="43.53799" lon="5.53548">
        <ele>366</ele>
        <time>2018-02-20T12:13:04.000Z</time>
      </trkpt>
      <trkpt lat="43.53798" lon="5.53548">
        <ele>366</ele>
        <time>2018-02-20T12:13:05.000Z</time>
      </trkpt>
      <trkpt lat="43.53798" lon="5.53547">
        <ele>366</ele>
        <time>2018-02-20T12:13:06.000Z</time>
      </trkpt>
      <trkpt lat="43.53797" lon="5.53546">
        <ele>366</ele>
        <time>2018-02-20T12:13:07.000Z</time>
      </trkpt>
      <trkpt lat="43.53797" lon="5.53546">
        <ele>366</ele>
        <time>2018-02-20T12:13:08.000Z</time>
      </trkpt>
      <trkpt lat="43.53796" lon="5.53545">
        <ele>366</ele>
        <time>2018-02-20T12:13:09.000Z</time>
      </trkpt>
      <trkpt lat="43.53795" lon="5.53545">
        <ele>366</ele>
        <time>2018-02-20T12:13:10.000Z</time>
      </trkpt>
      <trkpt lat="43.53794" lon="5.53544">
        <ele>366</ele>
        <time>2018-02-20T12:13:11.000Z</time>
      </trkpt>
      <trkpt lat="43.53793" lon="5.53544">
        <ele>366</ele>
        <time>2018-02-20T12:13:12.000Z</time>
      </trkpt>
      <trkpt lat="43.53792" lon="5.53543">
        <ele>366</ele>
        <time>2018-02-20T12:13:13.000Z</time>
      </trkpt>
      <trkpt lat="43.53792" lon="5.53542">
        <ele>366</ele>
        <time>2018-02-20T12:13:14.000Z</time>
      </trkpt>
      <trkpt lat="43.53791" lon="5.53542">
        <ele>366</ele>
        <time>2018-02-20T12:13:15.000Z</time>
      </trkpt>
      <trkpt lat="43.5379" lon="5.53541">
        <ele>366</ele>
        <time>2018-02-20T12:13:16.000Z</time>
      </trkpt>
      <trkpt lat="43.53788" lon="5.5354">
        <ele>366</ele>
        <time>2018-02-20T12:13:17.000Z</time>
      </trkpt>
      <trkpt lat="43.53787" lon="5.5354">
        <ele>367</ele>
        <time>2018-02-20T12:13:18.000Z</time>
      </trkpt>
      <trkpt lat="43.53786" lon="5.53539">
        <ele>367</ele>
        <time>2018-02-20T12:13:19.000Z</time>
      </trkpt>
      <trkpt lat="43.53785" lon="5.53538">
        <ele>367</ele>
        <time>2018-02-20T12:13:20.000Z</time>
      </trkpt>
      <trkpt lat="43.53784" lon="5.53538">
        <ele>367</ele>
        <time>2018-02-20T12:13:21.000Z</time>
      </trkpt>
      <trkpt lat="43.53782" lon="5.53537">
        <ele>367</ele>
        <time>2018-02-20T12:13:22.000Z</time>
      </trkpt>
      <trkpt lat="43.53781" lon="5.53536">
        <ele>367</ele>
        <time>2018-02-20T12:13:23.000Z</time>
      </trkpt>
      <trkpt lat="43.5378" lon="5.53536">
        <ele>367</ele>
        <time>2018-02-20T12:13:24.000Z</time>
      </trkpt>
      <trkpt lat="43.53779" lon="5.53535">
        <ele>367</ele>
        <time>2018-02-20T12:13:25.000Z</time>
      </trkpt>
      <trkpt lat="43.53778" lon="5.53534">
        <ele>367</ele>
        <time>2018-02-20T12:13:26.000Z</time>
      </trkpt>
      <trkpt lat="43.53777" lon="5.53533">
        <ele>367</ele>
        <time>2018-02-20T12:13:27.000Z</time>
      </trkpt>
      <trkpt lat="43.53775" lon="5.53532">
        <ele>367</ele>
        <time>2018-02-20T12:13:28.000Z</time>
      </trkpt>
      <trkpt lat="43.53774" lon="5.53531">
        <ele>368</ele>
        <time>2018-02-20T12:13:29.000Z</time>
      </trkpt>
      <trkpt lat="43.53773" lon="5.5353">
        <ele>368</ele>
        <time>2018-02-20T12:13:30.000Z</time>
      </trkpt>
      <trkpt lat="43.53772" lon="5.53529">
        <ele>368</ele>
        <time>2018-02-20T12:13:31.000Z</time>
      </trkpt>
      <trkpt lat="43.53771" lon="5.53528">
        <ele>368</ele>
        <time>2018-02-20T12:13:32.000Z</time>
      </trkpt>
      <trkpt lat="43.5377" lon="5.53527">
        <ele>368</ele>
        <time>2018-02-20T12:13:33.000Z</time>
      </trkpt>
      <trkpt lat="43.53769" lon="5.53526">
        <ele>367</ele>
        <time>2018-02-20T12:13:34.000Z</time>
      </trkpt>
      <trkpt lat="43.53768" lon="5.53525">
        <ele>367</ele>
        <time>2018-02-20T12:13:35.000Z</time>
      </trkpt>
      <trkpt lat="43.53767" lon="5.53525">
        <ele>368</ele>
        <time>2018-02-20T12:13:36.000Z</time>
      </trkpt>
      <trkpt lat="43.53766" lon="5.53524">
        <ele>368</ele>
        <time>2018-02-20T12:13:37.000Z</time>
      </trkpt>
      <trkpt lat="43.53765" lon="5.53523">
        <ele>368</ele>
        <time>2018-02-20T12:13:38.000Z</time>
      </trkpt>
      <trkpt lat="43.53764" lon="5.53522">
        <ele>368</ele>
        <time>2018-02-20T12:13:39.000Z</time>
      </trkpt>
      <trkpt lat="43.53763" lon="5.53522">
        <ele>368</ele>
        <time>2018-02-20T12:13:40.000Z</time>
      </trkpt>
      <trkpt lat="43.53762" lon="5.53521">
        <ele>368</ele>
        <time>2018-02-20T12:13:41.000Z</time>
      </trkpt>
      <trkpt lat="43.53761" lon="5.5352">
        <ele>368</ele>
        <time>2018-02-20T12:13:42.000Z</time>
      </trkpt>
      <trkpt lat="43.5376" lon="5.5352">
        <ele>368</ele>
        <time>2018-02-20T12:13:43.000Z</time>
      </trkpt>
      <trkpt lat="43.53758" lon="5.53519">
        <ele>368</ele>
        <time>2018-02-20T12:13:44.000Z</time>
      </trkpt>
      <trkpt lat="43.53757" lon="5.53518">
        <ele>368</ele>
        <time>2018-02-20T12:13:45.000Z</time>
      </trkpt>
      <trkpt lat="43.53756" lon="5.53518">
        <ele>368</ele>
        <time>2018-02-20T12:13:46.000Z</time>
      </trkpt>
      <trkpt lat="43.53755" lon="5.53517">
        <ele>368</ele>
        <time>2018-02-20T12:13:47.000Z</time>
      </trkpt>
      <trkpt lat="43.53754" lon="5.53517">
        <ele>368</ele>
        <time>2018-02-20T12:13:48.000Z</time>
      </trkpt>
      <trkpt lat="43.53753" lon="5.53517">
        <ele>368</ele>
        <time>2018-02-20T12:13:49.000Z</time>
      </trkpt>
      <trkpt lat="43.53751" lon="5.53516">
        <ele>368</ele>
        <time>2018-02-20T12:13:50.000Z</time>
      </trkpt>
      <trkpt lat="43.5375" lon="5.53516">
        <ele>368</ele>
        <time>2018-02-20T12:13:51.000Z</time>
      </trkpt>
      <trkpt lat="43.53749" lon="5.53516">
        <ele>368</ele>
        <time>2018-02-20T12:13:52.000Z</time>
      </trkpt>
      <trkpt lat="43.53747" lon="5.53516">
        <ele>368</ele>
        <time>2018-02-20T12:13:53.000Z</time>
      </trkpt>
      <trkpt lat="43.53746" lon="5.53516">
        <ele>368</ele>
        <time>2018-02-20T12:13:54.000Z</time>
      </trkpt>
      <trkpt lat="43.53745" lon="5.53516">
        <ele>368</ele>
        <time>2018-02-20T12:13:55.000Z</time>
      </trkpt>
      <trkpt lat="43.53744" lon="5.53516">
        <ele>368</ele>
        <time>2018-02-20T12:13:56.000Z</time>
      </trkpt>
      <trkpt lat="43.53743" lon="5.53516">
        <ele>369</ele>
        <time>2018-02-20T12:13:57.000Z</time>
      </trkpt>
      <trkpt lat="43.53741" lon="5.53516">
        <ele>369</ele>
        <time>2018-02-20T12:13:58.000Z</time>
      </trkpt>
      <trkpt lat="43.5374" lon="5.53516">
        <ele>369</ele>
        <time>2018-02-20T12:13:59.000Z</time>
      </trkpt>
      <trkpt lat="43.53739" lon="5.53516">
        <ele>369</ele>
        <time>2018-02-20T12:14:00.000Z</time>
      </trkpt>
      <trkpt lat="43.53737" lon="5.53516">
        <ele>369</ele>
        <time>2018-02-20T12:14:01.000Z</time>
      </trkpt>
      <trkpt lat="43.53736" lon="5.53517">
        <ele>369</ele>
        <time>2018-02-20T12:14:02.000Z</time>
      </trkpt>
      <trkpt lat="43.53735" lon="5.53517">
        <ele>369</ele>
        <time>2018-02-20T12:14:03.000Z</time>
      </trkpt>
      <trkpt lat="43.53734" lon="5.53517">
        <ele>369</ele>
        <time>2018-02-20T12:14:04.000Z</time>
      </trkpt>
      <trkpt lat="43.53732" lon="5.53517">
        <ele>369</ele>
        <time>2018-02-20T12:14:05.000Z</time>
      </trkpt>
      <trkpt lat="43.53731" lon="5.53517">
        <ele>369</ele>
        <time>2018-02-20T12:14:06.000Z</time>
      </trkpt>
      <trkpt lat="43.5373" lon="5.53517">
        <ele>369</ele>
        <time>2018-02-20T12:14:07.000Z</time>
      </trkpt>
      <trkpt lat="43.53729" lon="5.53518">
        <ele>369</ele>
        <time>2018-02-20T12:14:08.000Z</time>
      </trkpt>
      <trkpt lat="43.53728" lon="5.53519">
        <ele>369</ele>
        <time>2018-02-20T12:14:09.000Z</time>
      </trkpt>
      <trkpt lat="43.53727" lon="5.5352">
        <ele>369</ele>
        <time>2018-02-20T12:14:10.000Z</time>
      </trkpt>
      <trkpt lat="43.53726" lon="5.5352">
        <ele>369</ele>
        <time>2018-02-20T12:14:11.000Z</time>
      </trkpt>
      <trkpt lat="43.53725" lon="5.53521">
        <ele>369</ele>
        <time>2018-02-20T12:14:12.000Z</time>
      </trkpt>
      <trkpt lat="43.53724" lon="5.53521">
        <ele>370</ele>
        <time>2018-02-20T12:14:13.000Z</time>
      </trkpt>
      <trkpt lat="43.53722" lon="5.53522">
        <ele>370</ele>
        <time>2018-02-20T12:14:14.000Z</time>
      </trkpt>
      <trkpt lat="43.53722" lon="5.53522">
        <ele>370</ele>
        <time>2018-02-20T12:14:15.000Z</time>
      </trkpt>
      <trkpt lat="43.53721" lon="5.53523">
        <ele>370</ele>
        <time>2018-02-20T12:14:16.000Z</time>
      </trkpt>
      <trkpt lat="43.53719" lon="5.53523">
        <ele>370</ele>
        <time>2018-02-20T12:14:17.000Z</time>
      </trkpt>
      <trkpt lat="43.53718" lon="5.53524">
        <ele>370</ele>
        <time>2018-02-20T12:14:18.000Z</time>
      </trkpt>
      <trkpt lat="43.53717" lon="5.53524">
        <ele>370</ele>
        <time>2018-02-20T12:14:19.000Z</time>
      </trkpt>
      <trkpt lat="43.53716" lon="5.53525">
        <ele>370</ele>
        <time>2018-02-20T12:14:20.000Z</time>
      </trkpt>
      <trkpt lat="43.53715" lon="5.53526">
        <ele>370</ele>
        <time>2018-02-20T12:14:21.000Z</time>
      </trkpt>
      <trkpt lat="43.53714" lon="5.53526">
        <ele>370</ele>
        <time>2018-02-20T12:14:22.000Z</time>
      </trkpt>
      <trkpt lat="43.53713" lon="5.53527">
        <ele>370</ele>
        <time>2018-02-20T12:14:23.000Z</time>
      </trkpt>
      <trkpt lat="43.53712" lon="5.53528">
        <ele>370</ele>
        <time>2018-02-20T12:14:24.000Z</time>
      </trkpt>
      <trkpt lat="43.53711" lon="5.53529">
        <ele>370</ele>
        <time>2018-02-20T12:14:25.000Z</time>
      </trkpt>
      <trkpt lat="43.5371" lon="5.5353">
        <ele>370</ele>
        <time>2018-02-20T12:14:26.000Z</time>
      </trkpt>
      <trkpt lat="43.53709" lon="5.5353">
        <ele>370</ele>
        <time>2018-02-20T12:14:27.000Z</time>
      </trkpt>
      <trkpt lat="43.53708" lon="5.53531">
        <ele>370</ele>
        <time>2018-02-20T12:14:28.000Z</time>
      </trkpt>
      <trkpt lat="43.53707" lon="5.53532">
        <ele>370</ele>
        <time>2018-02-20T12:14:29.000Z</time>
      </trkpt>
      <trkpt lat="43.53706" lon="5.53533">
        <ele>370</ele>
        <time>2018-02-20T12:14:30.000Z</time>
      </trkpt>
      <trkpt lat="43.53705" lon="5.53534">
        <ele>370</ele>
        <time>2018-02-20T12:14:31.000Z</time>
      </trkpt>
      <trkpt lat="43.53704" lon="5.53535">
        <ele>370</ele>
        <time>2018-02-20T12:14:32.000Z</time>
      </trkpt>
      <trkpt lat="43.53703" lon="5.53536">
        <ele>370</ele>
        <time>2018-02-20T12:14:33.000Z</time>
      </trkpt>
      <trkpt lat="43.53702" lon="5.53537">
        <ele>370</ele>
        <time>2018-02-20T12:14:34.000Z</time>
      </trkpt>
      <trkpt lat="43.53701" lon="5.53538">
        <ele>370</ele>
        <time>2018-02-20T12:14:35.000Z</time>
      </trkpt>
      <trkpt lat="43.537" lon="5.53538">
        <ele>370</ele>
        <time>2018-02-20T12:14:36.000Z</time>
      </trkpt>
      <trkpt lat="43.53699" lon="5.53539">
        <ele>370</ele>
        <time>2018-02-20T12:14:37.000Z</time>
      </trkpt>
      <trkpt lat="43.53698" lon="5.53541">
        <ele>370</ele>
        <time>2018-02-20T12:14:38.000Z</time>
      </trkpt>
      <trkpt lat="43.53697" lon="5.53542">
        <ele>370</ele>
        <time>2018-02-20T12:14:39.000Z</time>
      </trkpt>
      <trkpt lat="43.53696" lon="5.53543">
        <ele>370</ele>
        <time>2018-02-20T12:14:40.000Z</time>
      </trkpt>
      <trkpt lat="43.53696" lon="5.53544">
        <ele>370</ele>
        <time>2018-02-20T12:14:41.000Z</time>
      </trkpt>
      <trkpt lat="43.53695" lon="5.53546">
        <ele>370</ele>
        <time>2018-02-20T12:14:42.000Z</time>
      </trkpt>
      <trkpt lat="43.53694" lon="5.53547">
        <ele>370</ele>
        <time>2018-02-20T12:14:43.000Z</time>
      </trkpt>
      <trkpt lat="43.53693" lon="5.53548">
        <ele>370</ele>
        <time>2018-02-20T12:14:44.000Z</time>
      </trkpt>
      <trkpt lat="43.53692" lon="5.53549">
        <ele>370</ele>
        <time>2018-02-20T12:14:45.000Z</time>
      </trkpt>
      <trkpt lat="43.53692" lon="5.5355">
        <ele>370</ele>
        <time>2018-02-20T12:14:46.000Z</time>
      </trkpt>
      <trkpt lat="43.53691" lon="5.53551">
        <ele>370</ele>
        <time>2018-02-20T12:14:47.000Z</time>
      </trkpt>
      <trkpt lat="43.5369" lon="5.53552">
        <ele>370</ele>
        <time>2018-02-20T12:14:48.000Z</time>
      </trkpt>
      <trkpt lat="43.53688" lon="5.53553">
        <ele>370</ele>
        <time>2018-02-20T12:14:49.000Z</time>
      </trkpt>
      <trkpt lat="43.53687" lon="5.53554">
        <ele>370</ele>
        <time>2018-02-20T12:14:50.000Z</time>
      </trkpt>
      <trkpt lat="43.53686" lon="5.53554">
        <ele>370</ele>
        <time>2018-02-20T12:14:51.000Z</time>
      </trkpt>
      <trkpt lat="43.53685" lon="5.53555">
        <ele>371</ele>
        <time>2018-02-20T12:14:52.000Z</time>
      </trkpt>
      <trkpt lat="43.53684" lon="5.53556">
        <ele>371</ele>
        <time>2018-02-20T12:14:53.000Z</time>
      </trkpt>
      <trkpt lat="43.53683" lon="5.53557">
        <ele>371</ele>
        <time>2018-02-20T12:14:54.000Z</time>
      </trkpt>
      <trkpt lat="43.53682" lon="5.53558">
        <ele>371</ele>
        <time>2018-02-20T12:14:55.000Z</time>
      </trkpt>
      <trkpt lat="43.53681" lon="5.5356">
        <ele>371</ele>
        <time>2018-02-20T12:14:56.000Z</time>
      </trkpt>
      <trkpt lat="43.5368" lon="5.53562">
        <ele>371</ele>
        <time>2018-02-20T12:14:57.000Z</time>
      </trkpt>
      <trkpt lat="43.53679" lon="5.53563">
        <ele>371</ele>
        <time>2018-02-20T12:14:58.000Z</time>
      </trkpt>
      <trkpt lat="43.53679" lon="5.53564">
        <ele>371</ele>
        <time>2018-02-20T12:14:59.000Z</time>
      </trkpt>
      <trkpt lat="43.53678" lon="5.53565">
        <ele>371</ele>
        <time>2018-02-20T12:15:00.000Z</time>
      </trkpt>
      <trkpt lat="43.53676" lon="5.53566">
        <ele>371</ele>
        <time>2018-02-20T12:15:01.000Z</time>
      </trkpt>
      <trkpt lat="43.53675" lon="5.53567">
        <ele>371</ele>
        <time>2018-02-20T12:15:02.000Z</time>
      </trkpt>
      <trkpt lat="43.53674" lon="5.53568">
        <ele>371</ele>
        <time>2018-02-20T12:15:03.000Z</time>
      </trkpt>
      <trkpt lat="43.53673" lon="5.53569">
        <ele>371</ele>
        <time>2018-02-20T12:15:04.000Z</time>
      </trkpt>
      <trkpt lat="43.53672" lon="5.5357">
        <ele>371</ele>
        <time>2018-02-20T12:15:05.000Z</time>
      </trkpt>
      <trkpt lat="43.53671" lon="5.53571">
        <ele>371</ele>
        <time>2018-02-20T12:15:06.000Z</time>
      </trkpt>
      <trkpt lat="43.5367" lon="5.53572">
        <ele>371</ele>
        <time>2018-02-20T12:15:07.000Z</time>
      </trkpt>
      <trkpt lat="43.53669" lon="5.53572">
        <ele>371</ele>
        <time>2018-02-20T12:15:08.000Z</time>
      </trkpt>
      <trkpt lat="43.53668" lon="5.53573">
        <ele>371</ele>
        <time>2018-02-20T12:15:09.000Z</time>
      </trkpt>
      <trkpt lat="43.53667" lon="5.53574">
        <ele>371</ele>
        <time>2018-02-20T12:15:10.000Z</time>
      </trkpt>
      <trkpt lat="43.53666" lon="5.53575">
        <ele>371</ele>
        <time>2018-02-20T12:15:11.000Z</time>
      </trkpt>
      <trkpt lat="43.53665" lon="5.53576">
        <ele>371</ele>
        <time>2018-02-20T12:15:12.000Z</time>
      </trkpt>
      <trkpt lat="43.53664" lon="5.53577">
        <ele>371</ele>
        <time>2018-02-20T12:15:13.000Z</time>
      </trkpt>
      <trkpt lat="43.53663" lon="5.53578">
        <ele>371</ele>
        <time>2018-02-20T12:15:14.000Z</time>
      </trkpt>
      <trkpt lat="43.53662" lon="5.53579">
        <ele>371</ele>
        <time>2018-02-20T12:15:15.000Z</time>
      </trkpt>
      <trkpt lat="43.53661" lon="5.5358">
        <ele>371</ele>
        <time>2018-02-20T12:15:16.000Z</time>
      </trkpt>
      <trkpt lat="43.5366" lon="5.53581">
        <ele>371</ele>
        <time>2018-02-20T12:15:17.000Z</time>
      </trkpt>
      <trkpt lat="43.53659" lon="5.53582">
        <ele>371</ele>
        <time>2018-02-20T12:15:18.000Z</time>
      </trkpt>
      <trkpt lat="43.53658" lon="5.53582">
        <ele>371</ele>
        <time>2018-02-20T12:15:19.000Z</time>
      </trkpt>
      <trkpt lat="43.53657" lon="5.53584">
        <ele>371</ele>
        <time>2018-02-20T12:15:20.000Z</time>
      </trkpt>
      <trkpt lat="43.53656" lon="5.53584">
        <ele>371</ele>
        <time>2018-02-20T12:15:21.000Z</time>
      </trkpt>
      <trkpt lat="43.53655" lon="5.53585">
        <ele>371</ele>
        <time>2018-02-20T12:15:22.000Z</time>
      </trkpt>
      <trkpt lat="43.53654" lon="5.53586">
        <ele>371</ele>
        <time>2018-02-20T12:15:23.000Z</time>
      </trkpt>
      <trkpt lat="43.53653" lon="5.53587">
        <ele>371</ele>
        <time>2018-02-20T12:15:24.000Z</time>
      </trkpt>
      <trkpt lat="43.53652" lon="5.53588">
        <ele>371</ele>
        <time>2018-02-20T12:15:25.000Z</time>
      </trkpt>
      <trkpt lat="43.53651" lon="5.53589">
        <ele>371</ele>
        <time>2018-02-20T12:15:26.000Z</time>
      </trkpt>
      <trkpt lat="43.5365" lon="5.5359">
        <ele>371</ele>
        <time>2018-02-20T12:15:27.000Z</time>
      </trkpt>
      <trkpt lat="43.53648" lon="5.5359">
        <ele>371</ele>
        <time>2018-02-20T12:15:28.000Z</time>
      </trkpt>
      <trkpt lat="43.53647" lon="5.53591">
        <ele>371</ele>
        <time>2018-02-20T12:15:29.000Z</time>
      </trkpt>
      <trkpt lat="43.53646" lon="5.53592">
        <ele>371</ele>
        <time>2018-02-20T12:15:30.000Z</time>
      </trkpt>
      <trkpt lat="43.53645" lon="5.53593">
        <ele>371</ele>
        <time>2018-02-20T12:15:31.000Z</time>
      </trkpt>
      <trkpt lat="43.53644" lon="5.53593">
        <ele>371</ele>
        <time>2018-02-20T12:15:32.000Z</time>
      </trkpt>
      <trkpt lat="43.53643" lon="5.53594">
        <ele>371</ele>
        <time>2018-02-20T12:15:33.000Z</time>
      </trkpt>
      <trkpt lat="43.53642" lon="5.53594">
        <ele>371</ele>
        <time>2018-02-20T12:15:34.000Z</time>
      </trkpt>
      <trkpt lat="43.53641" lon="5.53595">
        <ele>371</ele>
        <time>2018-02-20T12:15:35.000Z</time>
      </trkpt>
      <trkpt lat="43.5364" lon="5.53596">
        <ele>371</ele>
        <time>2018-02-20T12:15:36.000Z</time>
      </trkpt>
      <trkpt lat="43.53639" lon="5.53597">
        <ele>371</ele>
        <time>2018-02-20T12:15:37.000Z</time>
      </trkpt>
      <trkpt lat="43.53638" lon="5.53598">
        <ele>371</ele>
        <time>2018-02-20T12:15:38.000Z</time>
      </trkpt>
      <trkpt lat="43.53637" lon="5.53598">
        <ele>371</ele>
        <time>2018-02-20T12:15:39.000Z</time>
      </trkpt>
      <trkpt lat="43.53636" lon="5.53598">
        <ele>371</ele>
        <time>2018-02-20T12:15:40.000Z</time>
      </trkpt>
      <trkpt lat="43.53635" lon="5.53599">
        <ele>371</ele>
        <time>2018-02-20T12:15:41.000Z</time>
      </trkpt>
      <trkpt lat="43.53633" lon="5.53599">
        <ele>371</ele>
        <time>2018-02-20T12:15:42.000Z</time>
      </trkpt>
      <trkpt lat="43.53632" lon="5.536">
        <ele>371</ele>
        <time>2018-02-20T12:15:43.000Z</time>
      </trkpt>
      <trkpt lat="43.53631" lon="5.53601">
        <ele>371</ele>
        <time>2018-02-20T12:15:44.000Z</time>
      </trkpt>
      <trkpt lat="43.53631" lon="5.53602">
        <ele>371</ele>
        <time>2018-02-20T12:15:45.000Z</time>
      </trkpt>
      <trkpt lat="43.5363" lon="5.53603">
        <ele>371</ele>
        <time>2018-02-20T12:15:46.000Z</time>
      </trkpt>
      <trkpt lat="43.53629" lon="5.53603">
        <ele>371</ele>
        <time>2018-02-20T12:15:47.000Z</time>
      </trkpt>
      <trkpt lat="43.53628" lon="5.53604">
        <ele>371</ele>
        <time>2018-02-20T12:15:48.000Z</time>
      </trkpt>
      <trkpt lat="43.53627" lon="5.53604">
        <ele>371</ele>
        <time>2018-02-20T12:15:49.000Z</time>
      </trkpt>
      <trkpt lat="43.53626" lon="5.53605">
        <ele>371</ele>
        <time>2018-02-20T12:15:50.000Z</time>
      </trkpt>
      <trkpt lat="43.53625" lon="5.53605">
        <ele>371</ele>
        <time>2018-02-20T12:15:51.000Z</time>
      </trkpt>
      <trkpt lat="43.53624" lon="5.53605">
        <ele>372</ele>
        <time>2018-02-20T12:15:52.000Z</time>
      </trkpt>
      <trkpt lat="43.53623" lon="5.53605">
        <ele>372</ele>
        <time>2018-02-20T12:15:53.000Z</time>
      </trkpt>
      <trkpt lat="43.53623" lon="5.53605">
        <ele>372</ele>
        <time>2018-02-20T12:15:54.000Z</time>
      </trkpt>
      <trkpt lat="43.53622" lon="5.53605">
        <ele>372</ele>
        <time>2018-02-20T12:15:55.000Z</time>
      </trkpt>
      <trkpt lat="43.53622" lon="5.53605">
        <ele>372</ele>
        <time>2018-02-20T12:15:56.000Z</time>
      </trkpt>
      <trkpt lat="43.53622" lon="5.53605">
        <ele>372</ele>
        <time>2018-02-20T12:15:57.000Z</time>
      </trkpt>
      <trkpt lat="43.53622" lon="5.53605">
        <ele>372</ele>
        <time>2018-02-20T12:15:58.000Z</time>
      </trkpt>
      <trkpt lat="43.53622" lon="5.53605">
        <ele>372</ele>
        <time>2018-02-20T12:15:59.000Z</time>
      </trkpt>
      <trkpt lat="43.53622" lon="5.53605">
        <ele>372</ele>
        <time>2018-02-20T12:16:00.000Z</time>
      </trkpt>
      <trkpt lat="43.53621" lon="5.53604">
        <ele>372</ele>
        <time>2018-02-20T12:16:01.000Z</time>
      </trkpt>
      <trkpt lat="43.5362" lon="5.53605">
        <ele>372</ele>
        <time>2018-02-20T12:16:02.000Z</time>
      </trkpt>
      <trkpt lat="43.53619" lon="5.53605">
        <ele>372</ele>
        <time>2018-02-20T12:16:03.000Z</time>
      </trkpt>
      <trkpt lat="43.53619" lon="5.53605">
        <ele>372</ele>
        <time>2018-02-20T12:16:04.000Z</time>
      </trkpt>
      <trkpt lat="43.53618" lon="5.53606">
        <ele>372</ele>
        <time>2018-02-20T12:16:05.000Z</time>
      </trkpt>
      <trkpt lat="43.53618" lon="5.53606">
        <ele>372</ele>
        <time>2018-02-20T12:16:06.000Z</time>
      </trkpt>
      <trkpt lat="43.53617" lon="5.53606">
        <ele>372</ele>
        <time>2018-02-20T12:16:07.000Z</time>
      </trkpt>
      <trkpt lat="43.53617" lon="5.53606">
        <ele>373</ele>
        <time>2018-02-20T12:16:08.000Z</time>
      </trkpt>
      <trkpt lat="43.53616" lon="5.53606">
        <ele>373</ele>
        <time>2018-02-20T12:16:09.000Z</time>
      </trkpt>
      <trkpt lat="43.53616" lon="5.53606">
        <ele>373</ele>
        <time>2018-02-20T12:16:10.000Z</time>
      </trkpt>
      <trkpt lat="43.53616" lon="5.53606">
        <ele>373</ele>
        <time>2018-02-20T12:16:11.000Z</time>
      </trkpt>
      <trkpt lat="43.53616" lon="5.53606">
        <ele>373</ele>
        <time>2018-02-20T12:16:12.000Z</time>
      </trkpt>
      <trkpt lat="43.53616" lon="5.53606">
        <ele>373</ele>
        <time>2018-02-20T12:16:13.000Z</time>
      </trkpt>
      <trkpt lat="43.53616" lon="5.53606">
        <ele>373</ele>
        <time>2018-02-20T12:16:14.000Z</time>
      </trkpt>
      <trkpt lat="43.53616" lon="5.53606">
        <ele>373</ele>
        <time>2018-02-20T12:16:15.000Z</time>
      </trkpt>
      <trkpt lat="43.53616" lon="5.53606">
        <ele>373</ele>
        <time>2018-02-20T12:16:16.000Z</time>
      </trkpt>
      <trkpt lat="43.53616" lon="5.53606">
        <ele>373</ele>
        <time>2018-02-20T12:16:17.000Z</time>
      </trkpt>
      <trkpt lat="43.53616" lon="5.53607">
        <ele>373</ele>
        <time>2018-02-20T12:16:18.000Z</time>
      </trkpt>
      <trkpt lat="43.53615" lon="5.53608">
        <ele>373</ele>
        <time>2018-02-20T12:16:19.000Z</time>
      </trkpt>
      <trkpt lat="43.53615" lon="5.53609">
        <ele>373</ele>
        <time>2018-02-20T12:16:20.000Z</time>
      </trkpt>
      <trkpt lat="43.53614" lon="5.5361">
        <ele>373</ele>
        <time>2018-02-20T12:16:21.000Z</time>
      </trkpt>
      <trkpt lat="43.53614" lon="5.53611">
        <ele>373</ele>
        <time>2018-02-20T12:16:22.000Z</time>
      </trkpt>
      <trkpt lat="43.53613" lon="5.53612">
        <ele>373</ele>
        <time>2018-02-20T12:16:23.000Z</time>
      </trkpt>
      <trkpt lat="43.53612" lon="5.53613">
        <ele>374</ele>
        <time>2018-02-20T12:16:24.000Z</time>
      </trkpt>
      <trkpt lat="43.53612" lon="5.53614">
        <ele>374</ele>
        <time>2018-02-20T12:16:25.000Z</time>
      </trkpt>
      <trkpt lat="43.53611" lon="5.53615">
        <ele>374</ele>
        <time>2018-02-20T12:16:26.000Z</time>
      </trkpt>
      <trkpt lat="43.53611" lon="5.53616">
        <ele>374</ele>
        <time>2018-02-20T12:16:27.000Z</time>
      </trkpt>
      <trkpt lat="43.53611" lon="5.53618">
        <ele>374</ele>
        <time>2018-02-20T12:16:28.000Z</time>
      </trkpt>
      <trkpt lat="43.5361" lon="5.53619">
        <ele>374</ele>
        <time>2018-02-20T12:16:29.000Z</time>
      </trkpt>
      <trkpt lat="43.53609" lon="5.5362">
        <ele>374</ele>
        <time>2018-02-20T12:16:30.000Z</time>
      </trkpt>
      <trkpt lat="43.53609" lon="5.53622">
        <ele>374</ele>
        <time>2018-02-20T12:16:31.000Z</time>
      </trkpt>
      <trkpt lat="43.53608" lon="5.53623">
        <ele>374</ele>
        <time>2018-02-20T12:16:32.000Z</time>
      </trkpt>
      <trkpt lat="43.53608" lon="5.53624">
        <ele>374</ele>
        <time>2018-02-20T12:16:33.000Z</time>
      </trkpt>
      <trkpt lat="43.53607" lon="5.53625">
        <ele>374</ele>
        <time>2018-02-20T12:16:34.000Z</time>
      </trkpt>
      <trkpt lat="43.53606" lon="5.53627">
        <ele>375</ele>
        <time>2018-02-20T12:16:35.000Z</time>
      </trkpt>
      <trkpt lat="43.53606" lon="5.53628">
        <ele>375</ele>
        <time>2018-02-20T12:16:36.000Z</time>
      </trkpt>
      <trkpt lat="43.53605" lon="5.53629">
        <ele>375</ele>
        <time>2018-02-20T12:16:37.000Z</time>
      </trkpt>
      <trkpt lat="43.53604" lon="5.5363">
        <ele>375</ele>
        <time>2018-02-20T12:16:38.000Z</time>
      </trkpt>
      <trkpt lat="43.53604" lon="5.53631">
        <ele>375</ele>
        <time>2018-02-20T12:16:39.000Z</time>
      </trkpt>
      <trkpt lat="43.53603" lon="5.53631">
        <ele>375</ele>
        <time>2018-02-20T12:16:40.000Z</time>
      </trkpt>
      <trkpt lat="43.53602" lon="5.53632">
        <ele>375</ele>
        <time>2018-02-20T12:16:41.000Z</time>
      </trkpt>
      <trkpt lat="43.53602" lon="5.53633">
        <ele>375</ele>
        <time>2018-02-20T12:16:42.000Z</time>
      </trkpt>
      <trkpt lat="43.53601" lon="5.53634">
        <ele>375</ele>
        <time>2018-02-20T12:16:43.000Z</time>
      </trkpt>
      <trkpt lat="43.536" lon="5.53634">
        <ele>375</ele>
        <time>2018-02-20T12:16:44.000Z</time>
      </trkpt>
      <trkpt lat="43.53599" lon="5.53635">
        <ele>375</ele>
        <time>2018-02-20T12:16:45.000Z</time>
      </trkpt>
      <trkpt lat="43.53599" lon="5.53636">
        <ele>375</ele>
        <time>2018-02-20T12:16:46.000Z</time>
      </trkpt>
      <trkpt lat="43.53598" lon="5.53637">
        <ele>375</ele>
        <time>2018-02-20T12:16:47.000Z</time>
      </trkpt>
      <trkpt lat="43.53598" lon="5.53638">
        <ele>375</ele>
        <time>2018-02-20T12:16:48.000Z</time>
      </trkpt>
      <trkpt lat="43.53597" lon="5.53639">
        <ele>375</ele>
        <time>2018-02-20T12:16:49.000Z</time>
      </trkpt>
      <trkpt lat="43.53596" lon="5.5364">
        <ele>375</ele>
        <time>2018-02-20T12:16:50.000Z</time>
      </trkpt>
      <trkpt lat="43.53596" lon="5.53641">
        <ele>374</ele>
        <time>2018-02-20T12:16:51.000Z</time>
      </trkpt>
      <trkpt lat="43.53595" lon="5.53642">
        <ele>374</ele>
        <time>2018-02-20T12:16:52.000Z</time>
      </trkpt>
      <trkpt lat="43.53594" lon="5.53643">
        <ele>374</ele>
        <time>2018-02-20T12:16:53.000Z</time>
      </trkpt>
      <trkpt lat="43.53593" lon="5.53644">
        <ele>374</ele>
        <time>2018-02-20T12:16:54.000Z</time>
      </trkpt>
      <trkpt lat="43.53592" lon="5.53645">
        <ele>374</ele>
        <time>2018-02-20T12:16:55.000Z</time>
      </trkpt>
      <trkpt lat="43.53592" lon="5.53645">
        <ele>374</ele>
        <time>2018-02-20T12:16:56.000Z</time>
      </trkpt>
      <trkpt lat="43.53591" lon="5.53646">
        <ele>374</ele>
        <time>2018-02-20T12:16:57.000Z</time>
      </trkpt>
      <trkpt lat="43.5359" lon="5.53646">
        <ele>374</ele>
        <time>2018-02-20T12:16:58.000Z</time>
      </trkpt>
      <trkpt lat="43.53589" lon="5.53647">
        <ele>374</ele>
        <time>2018-02-20T12:16:59.000Z</time>
      </trkpt>
      <trkpt lat="43.53588" lon="5.53647">
        <ele>373</ele>
        <time>2018-02-20T12:17:00.000Z</time>
      </trkpt>
      <trkpt lat="43.53587" lon="5.53648">
        <ele>373</ele>
        <time>2018-02-20T12:17:01.000Z</time>
      </trkpt>
      <trkpt lat="43.53586" lon="5.53648">
        <ele>373</ele>
        <time>2018-02-20T12:17:02.000Z</time>
      </trkpt>
      <trkpt lat="43.53585" lon="5.53648">
        <ele>373</ele>
        <time>2018-02-20T12:17:03.000Z</time>
      </trkpt>
      <trkpt lat="43.53584" lon="5.53648">
        <ele>373</ele>
        <time>2018-02-20T12:17:04.000Z</time>
      </trkpt>
      <trkpt lat="43.53583" lon="5.53648">
        <ele>373</ele>
        <time>2018-02-20T12:17:05.000Z</time>
      </trkpt>
      <trkpt lat="43.53582" lon="5.53648">
        <ele>373</ele>
        <time>2018-02-20T12:17:06.000Z</time>
      </trkpt>
      <trkpt lat="43.53581" lon="5.53648">
        <ele>373</ele>
        <time>2018-02-20T12:17:07.000Z</time>
      </trkpt>
      <trkpt lat="43.53579" lon="5.53648">
        <ele>373</ele>
        <time>2018-02-20T12:17:08.000Z</time>
      </trkpt>
      <trkpt lat="43.53578" lon="5.53648">
        <ele>373</ele>
        <time>2018-02-20T12:17:09.000Z</time>
      </trkpt>
      <trkpt lat="43.53577" lon="5.53648">
        <ele>372</ele>
        <time>2018-02-20T12:17:10.000Z</time>
      </trkpt>
      <trkpt lat="43.53576" lon="5.53649">
        <ele>372</ele>
        <time>2018-02-20T12:17:11.000Z</time>
      </trkpt>
      <trkpt lat="43.53575" lon="5.53649">
        <ele>372</ele>
        <time>2018-02-20T12:17:12.000Z</time>
      </trkpt>
      <trkpt lat="43.53574" lon="5.53649">
        <ele>372</ele>
        <time>2018-02-20T12:17:13.000Z</time>
      </trkpt>
      <trkpt lat="43.53573" lon="5.5365">
        <ele>372</ele>
        <time>2018-02-20T12:17:14.000Z</time>
      </trkpt>
      <trkpt lat="43.53572" lon="5.5365">
        <ele>372</ele>
        <time>2018-02-20T12:17:15.000Z</time>
      </trkpt>
      <trkpt lat="43.53571" lon="5.53651">
        <ele>372</ele>
        <time>2018-02-20T12:17:16.000Z</time>
      </trkpt>
      <trkpt lat="43.53569" lon="5.53651">
        <ele>372</ele>
        <time>2018-02-20T12:17:17.000Z</time>
      </trkpt>
      <trkpt lat="43.53568" lon="5.53651">
        <ele>372</ele>
        <time>2018-02-20T12:17:18.000Z</time>
      </trkpt>
      <trkpt lat="43.53567" lon="5.53651">
        <ele>372</ele>
        <time>2018-02-20T12:17:19.000Z</time>
      </trkpt>
      <trkpt lat="43.53566" lon="5.53652">
        <ele>372</ele>
        <time>2018-02-20T12:17:20.000Z</time>
      </trkpt>
      <trkpt lat="43.53565" lon="5.53652">
        <ele>372</ele>
        <time>2018-02-20T12:17:21.000Z</time>
      </trkpt>
      <trkpt lat="43.53564" lon="5.53653">
        <ele>372</ele>
        <time>2018-02-20T12:17:22.000Z</time>
      </trkpt>
      <trkpt lat="43.53563" lon="5.53654">
        <ele>372</ele>
        <time>2018-02-20T12:17:23.000Z</time>
      </trkpt>
      <trkpt lat="43.53562" lon="5.53655">
        <ele>372</ele>
        <time>2018-02-20T12:17:24.000Z</time>
      </trkpt>
      <trkpt lat="43.5356" lon="5.53656">
        <ele>372</ele>
        <time>2018-02-20T12:17:25.000Z</time>
      </trkpt>
      <trkpt lat="43.53559" lon="5.53657">
        <ele>372</ele>
        <time>2018-02-20T12:17:26.000Z</time>
      </trkpt>
      <trkpt lat="43.53558" lon="5.53658">
        <ele>372</ele>
        <time>2018-02-20T12:17:27.000Z</time>
      </trkpt>
      <trkpt lat="43.53558" lon="5.53659">
        <ele>372</ele>
        <time>2018-02-20T12:17:28.000Z</time>
      </trkpt>
      <trkpt lat="43.53557" lon="5.5366">
        <ele>372</ele>
        <time>2018-02-20T12:17:29.000Z</time>
      </trkpt>
      <trkpt lat="43.53556" lon="5.53661">
        <ele>372</ele>
        <time>2018-02-20T12:17:30.000Z</time>
      </trkpt>
      <trkpt lat="43.53555" lon="5.53662">
        <ele>372</ele>
        <time>2018-02-20T12:17:31.000Z</time>
      </trkpt>
      <trkpt lat="43.53555" lon="5.53662">
        <ele>372</ele>
        <time>2018-02-20T12:17:32.000Z</time>
      </trkpt>
      <trkpt lat="43.53554" lon="5.53663">
        <ele>372</ele>
        <time>2018-02-20T12:17:33.000Z</time>
      </trkpt>
      <trkpt lat="43.53553" lon="5.53664">
        <ele>372</ele>
        <time>2018-02-20T12:17:34.000Z</time>
      </trkpt>
      <trkpt lat="43.53551" lon="5.53664">
        <ele>372</ele>
        <time>2018-02-20T12:17:35.000Z</time>
      </trkpt>
      <trkpt lat="43.53551" lon="5.53664">
        <ele>372</ele>
        <time>2018-02-20T12:17:36.000Z</time>
      </trkpt>
      <trkpt lat="43.5355" lon="5.53665">
        <ele>372</ele>
        <time>2018-02-20T12:17:37.000Z</time>
      </trkpt>
      <trkpt lat="43.5355" lon="5.53665">
        <ele>372</ele>
        <time>2018-02-20T12:17:38.000Z</time>
      </trkpt>
      <trkpt lat="43.5355" lon="5.53665">
        <ele>372</ele>
        <time>2018-02-20T12:17:39.000Z</time>
      </trkpt>
      <trkpt lat="43.5355" lon="5.53665">
        <ele>372</ele>
        <time>2018-02-20T12:17:40.000Z</time>
      </trkpt>
      <trkpt lat="43.5355" lon="5.53666">
        <ele>372</ele>
        <time>2018-02-20T12:17:41.000Z</time>
      </trkpt>
      <trkpt lat="43.5355" lon="5.53666">
        <ele>372</ele>
        <time>2018-02-20T12:17:42.000Z</time>
      </trkpt>
      <trkpt lat="43.5355" lon="5.53665">
        <ele>372</ele>
        <time>2018-02-20T12:17:43.000Z</time>
      </trkpt>
      <trkpt lat="43.5355" lon="5.53665">
        <ele>372</ele>
        <time>2018-02-20T12:17:44.000Z</time>
      </trkpt>
      <trkpt lat="43.5355" lon="5.53665">
        <ele>372</ele>
        <time>2018-02-20T12:17:45.000Z</time>
      </trkpt>
      <trkpt lat="43.5355" lon="5.53666">
        <ele>371</ele>
        <time>2018-02-20T12:17:46.000Z</time>
      </trkpt>
      <trkpt lat="43.5355" lon="5.53666">
        <ele>371</ele>
        <time>2018-02-20T12:17:47.000Z</time>
      </trkpt>
      <trkpt lat="43.5355" lon="5.53666">
        <ele>371</ele>
        <time>2018-02-20T12:17:48.000Z</time>
      </trkpt>
      <trkpt lat="43.5355" lon="5.53666">
        <ele>371</ele>
        <time>2018-02-20T12:17:49.000Z</time>
      </trkpt>
      <trkpt lat="43.5355" lon="5.53666">
        <ele>371</ele>
        <time>2018-02-20T12:17:50.000Z</time>
      </trkpt>
      <trkpt lat="43.5355" lon="5.53666">
        <ele>371</ele>
        <time>2018-02-20T12:17:51.000Z</time>
      </trkpt>
      <trkpt lat="43.5355" lon="5.53666">
        <ele>371</ele>
        <time>2018-02-20T12:17:52.000Z</time>
      </trkpt>
      <trkpt lat="43.5355" lon="5.53667">
        <ele>371</ele>
        <time>2018-02-20T12:17:53.000Z</time>
      </trkpt>
      <trkpt lat="43.53549" lon="5.53668">
        <ele>371</ele>
        <time>2018-02-20T12:17:54.000Z</time>
      </trkpt>
      <trkpt lat="43.53549" lon="5.53669">
        <ele>371</ele>
        <time>2018-02-20T12:17:55.000Z</time>
      </trkpt>
      <trkpt lat="43.53549" lon="5.5367">
        <ele>371</ele>
        <time>2018-02-20T12:17:56.000Z</time>
      </trkpt>
      <trkpt lat="43.53548" lon="5.53672">
        <ele>371</ele>
        <time>2018-02-20T12:17:57.000Z</time>
      </trkpt>
      <trkpt lat="43.53548" lon="5.53673">
        <ele>371</ele>
        <time>2018-02-20T12:17:58.000Z</time>
      </trkpt>
      <trkpt lat="43.53548" lon="5.53675">
        <ele>371</ele>
        <time>2018-02-20T12:17:59.000Z</time>
      </trkpt>
      <trkpt lat="43.53547" lon="5.53676">
        <ele>371</ele>
        <time>2018-02-20T12:18:00.000Z</time>
      </trkpt>
      <trkpt lat="43.53547" lon="5.53677">
        <ele>371</ele>
        <time>2018-02-20T12:18:01.000Z</time>
      </trkpt>
      <trkpt lat="43.53546" lon="5.53679">
        <ele>371</ele>
        <time>2018-02-20T12:18:02.000Z</time>
      </trkpt>
      <trkpt lat="43.53546" lon="5.5368">
        <ele>371</ele>
        <time>2018-02-20T12:18:03.000Z</time>
      </trkpt>
      <trkpt lat="43.53545" lon="5.53682">
        <ele>371</ele>
        <time>2018-02-20T12:18:04.000Z</time>
      </trkpt>
      <trkpt lat="43.53544" lon="5.53683">
        <ele>371</ele>
        <time>2018-02-20T12:18:05.000Z</time>
      </trkpt>
      <trkpt lat="43.53544" lon="5.53685">
        <ele>371</ele>
        <time>2018-02-20T12:18:06.000Z</time>
      </trkpt>
      <trkpt lat="43.53543" lon="5.53686">
        <ele>371</ele>
        <time>2018-02-20T12:18:07.000Z</time>
      </trkpt>
      <trkpt lat="43.53543" lon="5.53687">
        <ele>371</ele>
        <time>2018-02-20T12:18:08.000Z</time>
      </trkpt>
      <trkpt lat="43.53542" lon="5.53689">
        <ele>370</ele>
        <time>2018-02-20T12:18:09.000Z</time>
      </trkpt>
      <trkpt lat="43.53541" lon="5.5369">
        <ele>370</ele>
        <time>2018-02-20T12:18:10.000Z</time>
      </trkpt>
      <trkpt lat="43.53541" lon="5.53692">
        <ele>370</ele>
        <time>2018-02-20T12:18:11.000Z</time>
      </trkpt>
      <trkpt lat="43.5354" lon="5.53693">
        <ele>370</ele>
        <time>2018-02-20T12:18:12.000Z</time>
      </trkpt>
      <trkpt lat="43.5354" lon="5.53695">
        <ele>370</ele>
        <time>2018-02-20T12:18:13.000Z</time>
      </trkpt>
      <trkpt lat="43.53539" lon="5.53696">
        <ele>371</ele>
        <time>2018-02-20T12:18:14.000Z</time>
      </trkpt>
      <trkpt lat="43.53538" lon="5.53697">
        <ele>370</ele>
        <time>2018-02-20T12:18:15.000Z</time>
      </trkpt>
      <trkpt lat="43.53538" lon="5.53698">
        <ele>370</ele>
        <time>2018-02-20T12:18:16.000Z</time>
      </trkpt>
      <trkpt lat="43.53537" lon="5.537">
        <ele>370</ele>
        <time>2018-02-20T12:18:17.000Z</time>
      </trkpt>
      <trkpt lat="43.53536" lon="5.53701">
        <ele>370</ele>
        <time>2018-02-20T12:18:18.000Z</time>
      </trkpt>
      <trkpt lat="43.53536" lon="5.53703">
        <ele>370</ele>
        <time>2018-02-20T12:18:19.000Z</time>
      </trkpt>
      <trkpt lat="43.53535" lon="5.53704">
        <ele>370</ele>
        <time>2018-02-20T12:18:20.000Z</time>
      </trkpt>
      <trkpt lat="43.53534" lon="5.53705">
        <ele>370</ele>
        <time>2018-02-20T12:18:21.000Z</time>
      </trkpt>
      <trkpt lat="43.53534" lon="5.53706">
        <ele>370</ele>
        <time>2018-02-20T12:18:22.000Z</time>
      </trkpt>
      <trkpt lat="43.53533" lon="5.53707">
        <ele>370</ele>
        <time>2018-02-20T12:18:23.000Z</time>
      </trkpt>
      <trkpt lat="43.53533" lon="5.53709">
        <ele>370</ele>
        <time>2018-02-20T12:18:24.000Z</time>
      </trkpt>
      <trkpt lat="43.53532" lon="5.5371">
        <ele>370</ele>
        <time>2018-02-20T12:18:25.000Z</time>
      </trkpt>
      <trkpt lat="43.53531" lon="5.53711">
        <ele>370</ele>
        <time>2018-02-20T12:18:26.000Z</time>
      </trkpt>
      <trkpt lat="43.5353" lon="5.53713">
        <ele>370</ele>
        <time>2018-02-20T12:18:27.000Z</time>
      </trkpt>
      <trkpt lat="43.53529" lon="5.53714">
        <ele>370</ele>
        <time>2018-02-20T12:18:28.000Z</time>
      </trkpt>
      <trkpt lat="43.53529" lon="5.53715">
        <ele>370</ele>
        <time>2018-02-20T12:18:29.000Z</time>
      </trkpt>
      <trkpt lat="43.53528" lon="5.53716">
        <ele>370</ele>
        <time>2018-02-20T12:18:30.000Z</time>
      </trkpt>
      <trkpt lat="43.53527" lon="5.53717">
        <ele>370</ele>
        <time>2018-02-20T12:18:31.000Z</time>
      </trkpt>
      <trkpt lat="43.53526" lon="5.53719">
        <ele>370</ele>
        <time>2018-02-20T12:18:32.000Z</time>
      </trkpt>
      <trkpt lat="43.53526" lon="5.5372">
        <ele>370</ele>
        <time>2018-02-20T12:18:33.000Z</time>
      </trkpt>
      <trkpt lat="43.53525" lon="5.53721">
        <ele>370</ele>
        <time>2018-02-20T12:18:34.000Z</time>
      </trkpt>
      <trkpt lat="43.53524" lon="5.53723">
        <ele>370</ele>
        <time>2018-02-20T12:18:35.000Z</time>
      </trkpt>
      <trkpt lat="43.53524" lon="5.53725">
        <ele>370</ele>
        <time>2018-02-20T12:18:36.000Z</time>
      </trkpt>
      <trkpt lat="43.53523" lon="5.53726">
        <ele>370</ele>
        <time>2018-02-20T12:18:37.000Z</time>
      </trkpt>
      <trkpt lat="43.53523" lon="5.53727">
        <ele>370</ele>
        <time>2018-02-20T12:18:38.000Z</time>
      </trkpt>
      <trkpt lat="43.53522" lon="5.53728">
        <ele>370</ele>
        <time>2018-02-20T12:18:39.000Z</time>
      </trkpt>
      <trkpt lat="43.53521" lon="5.53729">
        <ele>370</ele>
        <time>2018-02-20T12:18:40.000Z</time>
      </trkpt>
      <trkpt lat="43.53521" lon="5.53731">
        <ele>370</ele>
        <time>2018-02-20T12:18:41.000Z</time>
      </trkpt>
      <trkpt lat="43.5352" lon="5.53732">
        <ele>370</ele>
        <time>2018-02-20T12:18:42.000Z</time>
      </trkpt>
      <trkpt lat="43.53519" lon="5.53733">
        <ele>370</ele>
        <time>2018-02-20T12:18:43.000Z</time>
      </trkpt>
      <trkpt lat="43.53518" lon="5.53735">
        <ele>370</ele>
        <time>2018-02-20T12:18:44.000Z</time>
      </trkpt>
      <trkpt lat="43.53517" lon="5.53736">
        <ele>370</ele>
        <time>2018-02-20T12:18:45.000Z</time>
      </trkpt>
      <trkpt lat="43.53517" lon="5.53737">
        <ele>370</ele>
        <time>2018-02-20T12:18:46.000Z</time>
      </trkpt>
      <trkpt lat="43.53516" lon="5.53738">
        <ele>370</ele>
        <time>2018-02-20T12:18:47.000Z</time>
      </trkpt>
      <trkpt lat="43.53515" lon="5.5374">
        <ele>370</ele>
        <time>2018-02-20T12:18:48.000Z</time>
      </trkpt>
      <trkpt lat="43.53514" lon="5.53741">
        <ele>370</ele>
        <time>2018-02-20T12:18:49.000Z</time>
      </trkpt>
      <trkpt lat="43.53513" lon="5.53743">
        <ele>370</ele>
        <time>2018-02-20T12:18:50.000Z</time>
      </trkpt>
      <trkpt lat="43.53512" lon="5.53744">
        <ele>370</ele>
        <time>2018-02-20T12:18:51.000Z</time>
      </trkpt>
      <trkpt lat="43.53512" lon="5.53745">
        <ele>370</ele>
        <time>2018-02-20T12:18:52.000Z</time>
      </trkpt>
      <trkpt lat="43.53511" lon="5.53747">
        <ele>370</ele>
        <time>2018-02-20T12:18:53.000Z</time>
      </trkpt>
      <trkpt lat="43.53511" lon="5.53748">
        <ele>370</ele>
        <time>2018-02-20T12:18:54.000Z</time>
      </trkpt>
      <trkpt lat="43.5351" lon="5.53749">
        <ele>370</ele>
        <time>2018-02-20T12:18:55.000Z</time>
      </trkpt>
      <trkpt lat="43.53509" lon="5.5375">
        <ele>370</ele>
        <time>2018-02-20T12:18:56.000Z</time>
      </trkpt>
      <trkpt lat="43.53509" lon="5.53752">
        <ele>370</ele>
        <time>2018-02-20T12:18:57.000Z</time>
      </trkpt>
      <trkpt lat="43.53508" lon="5.53753">
        <ele>370</ele>
        <time>2018-02-20T12:18:58.000Z</time>
      </trkpt>
      <trkpt lat="43.53508" lon="5.53754">
        <ele>370</ele>
        <time>2018-02-20T12:18:59.000Z</time>
      </trkpt>
      <trkpt lat="43.53507" lon="5.53755">
        <ele>370</ele>
        <time>2018-02-20T12:19:00.000Z</time>
      </trkpt>
      <trkpt lat="43.53506" lon="5.53757">
        <ele>370</ele>
        <time>2018-02-20T12:19:01.000Z</time>
      </trkpt>
      <trkpt lat="43.53506" lon="5.53758">
        <ele>370</ele>
        <time>2018-02-20T12:19:02.000Z</time>
      </trkpt>
      <trkpt lat="43.53505" lon="5.53759">
        <ele>370</ele>
        <time>2018-02-20T12:19:03.000Z</time>
      </trkpt>
      <trkpt lat="43.53504" lon="5.53761">
        <ele>370</ele>
        <time>2018-02-20T12:19:04.000Z</time>
      </trkpt>
      <trkpt lat="43.53504" lon="5.53762">
        <ele>370</ele>
        <time>2018-02-20T12:19:05.000Z</time>
      </trkpt>
      <trkpt lat="43.53503" lon="5.53763">
        <ele>370</ele>
        <time>2018-02-20T12:19:06.000Z</time>
      </trkpt>
      <trkpt lat="43.53503" lon="5.53764">
        <ele>370</ele>
        <time>2018-02-20T12:19:07.000Z</time>
      </trkpt>
      <trkpt lat="43.53503" lon="5.53766">
        <ele>370</ele>
        <time>2018-02-20T12:19:08.000Z</time>
      </trkpt>
      <trkpt lat="43.53502" lon="5.53767">
        <ele>370</ele>
        <time>2018-02-20T12:19:09.000Z</time>
      </trkpt>
      <trkpt lat="43.53502" lon="5.53769">
        <ele>371</ele>
        <time>2018-02-20T12:19:10.000Z</time>
      </trkpt>
      <trkpt lat="43.53502" lon="5.5377">
        <ele>371</ele>
        <time>2018-02-20T12:19:11.000Z</time>
      </trkpt>
      <trkpt lat="43.53501" lon="5.53772">
        <ele>371</ele>
        <time>2018-02-20T12:19:12.000Z</time>
      </trkpt>
      <trkpt lat="43.535" lon="5.53773">
        <ele>371</ele>
        <time>2018-02-20T12:19:13.000Z</time>
      </trkpt>
      <trkpt lat="43.535" lon="5.53774">
        <ele>371</ele>
        <time>2018-02-20T12:19:14.000Z</time>
      </trkpt>
      <trkpt lat="43.53499" lon="5.53776">
        <ele>371</ele>
        <time>2018-02-20T12:19:15.000Z</time>
      </trkpt>
      <trkpt lat="43.53499" lon="5.53777">
        <ele>371</ele>
        <time>2018-02-20T12:19:16.000Z</time>
      </trkpt>
      <trkpt lat="43.53498" lon="5.53779">
        <ele>371</ele>
        <time>2018-02-20T12:19:17.000Z</time>
      </trkpt>
      <trkpt lat="43.53498" lon="5.5378">
        <ele>371</ele>
        <time>2018-02-20T12:19:18.000Z</time>
      </trkpt>
      <trkpt lat="43.53498" lon="5.53782">
        <ele>371</ele>
        <time>2018-02-20T12:19:19.000Z</time>
      </trkpt>
      <trkpt lat="43.53497" lon="5.53782">
        <ele>371</ele>
        <time>2018-02-20T12:19:20.000Z</time>
      </trkpt>
      <trkpt lat="43.53497" lon="5.53784">
        <ele>371</ele>
        <time>2018-02-20T12:19:21.000Z</time>
      </trkpt>
      <trkpt lat="43.53496" lon="5.53785">
        <ele>371</ele>
        <time>2018-02-20T12:19:22.000Z</time>
      </trkpt>
      <trkpt lat="43.53495" lon="5.53786">
        <ele>371</ele>
        <time>2018-02-20T12:19:23.000Z</time>
      </trkpt>
      <trkpt lat="43.53495" lon="5.53787">
        <ele>371</ele>
        <time>2018-02-20T12:19:24.000Z</time>
      </trkpt>
      <trkpt lat="43.53495" lon="5.53789">
        <ele>371</ele>
        <time>2018-02-20T12:19:25.000Z</time>
      </trkpt>
      <trkpt lat="43.53495" lon="5.53791">
        <ele>371</ele>
        <time>2018-02-20T12:19:26.000Z</time>
      </trkpt>
      <trkpt lat="43.53494" lon="5.53793">
        <ele>371</ele>
        <time>2018-02-20T12:19:27.000Z</time>
      </trkpt>
      <trkpt lat="43.53494" lon="5.53794">
        <ele>371</ele>
        <time>2018-02-20T12:19:28.000Z</time>
      </trkpt>
      <trkpt lat="43.53494" lon="5.53795">
        <ele>371</ele>
        <time>2018-02-20T12:19:29.000Z</time>
      </trkpt>
      <trkpt lat="43.53494" lon="5.53797">
        <ele>371</ele>
        <time>2018-02-20T12:19:30.000Z</time>
      </trkpt>
      <trkpt lat="43.53494" lon="5.53798">
        <ele>371</ele>
        <time>2018-02-20T12:19:31.000Z</time>
      </trkpt>
      <trkpt lat="43.53493" lon="5.538">
        <ele>371</ele>
        <time>2018-02-20T12:19:32.000Z</time>
      </trkpt>
      <trkpt lat="43.53493" lon="5.53801">
        <ele>371</ele>
        <time>2018-02-20T12:19:33.000Z</time>
      </trkpt>
      <trkpt lat="43.53493" lon="5.53803">
        <ele>371</ele>
        <time>2018-02-20T12:19:34.000Z</time>
      </trkpt>
      <trkpt lat="43.53492" lon="5.53804">
        <ele>371</ele>
        <time>2018-02-20T12:19:35.000Z</time>
      </trkpt>
      <trkpt lat="43.53492" lon="5.53806">
        <ele>371</ele>
        <time>2018-02-20T12:19:36.000Z</time>
      </trkpt>
      <trkpt lat="43.53492" lon="5.53807">
        <ele>371</ele>
        <time>2018-02-20T12:19:37.000Z</time>
      </trkpt>
      <trkpt lat="43.53491" lon="5.53809">
        <ele>371</ele>
        <time>2018-02-20T12:19:38.000Z</time>
      </trkpt>
      <trkpt lat="43.53491" lon="5.5381">
        <ele>371</ele>
        <time>2018-02-20T12:19:39.000Z</time>
      </trkpt>
      <trkpt lat="43.53491" lon="5.53812">
        <ele>372</ele>
        <time>2018-02-20T12:19:40.000Z</time>
      </trkpt>
      <trkpt lat="43.53491" lon="5.53813">
        <ele>372</ele>
        <time>2018-02-20T12:19:41.000Z</time>
      </trkpt>
      <trkpt lat="43.5349" lon="5.53814">
        <ele>372</ele>
        <time>2018-02-20T12:19:42.000Z</time>
      </trkpt>
      <trkpt lat="43.53489" lon="5.53815">
        <ele>372</ele>
        <time>2018-02-20T12:19:43.000Z</time>
      </trkpt>
      <trkpt lat="43.53489" lon="5.53817">
        <ele>372</ele>
        <time>2018-02-20T12:19:44.000Z</time>
      </trkpt>
      <trkpt lat="43.53488" lon="5.53818">
        <ele>372</ele>
        <time>2018-02-20T12:19:45.000Z</time>
      </trkpt>
      <trkpt lat="43.53488" lon="5.5382">
        <ele>372</ele>
        <time>2018-02-20T12:19:46.000Z</time>
      </trkpt>
      <trkpt lat="43.53488" lon="5.53821">
        <ele>372</ele>
        <time>2018-02-20T12:19:47.000Z</time>
      </trkpt>
      <trkpt lat="43.53488" lon="5.53823">
        <ele>372</ele>
        <time>2018-02-20T12:19:48.000Z</time>
      </trkpt>
      <trkpt lat="43.53488" lon="5.53824">
        <ele>372</ele>
        <time>2018-02-20T12:19:49.000Z</time>
      </trkpt>
      <trkpt lat="43.53488" lon="5.53826">
        <ele>372</ele>
        <time>2018-02-20T12:19:50.000Z</time>
      </trkpt>
      <trkpt lat="43.53488" lon="5.53828">
        <ele>372</ele>
        <time>2018-02-20T12:19:51.000Z</time>
      </trkpt>
      <trkpt lat="43.53488" lon="5.53829">
        <ele>372</ele>
        <time>2018-02-20T12:19:52.000Z</time>
      </trkpt>
      <trkpt lat="43.53488" lon="5.53831">
        <ele>372</ele>
        <time>2018-02-20T12:19:53.000Z</time>
      </trkpt>
      <trkpt lat="43.53487" lon="5.53832">
        <ele>372</ele>
        <time>2018-02-20T12:19:54.000Z</time>
      </trkpt>
      <trkpt lat="43.53487" lon="5.53834">
        <ele>372</ele>
        <time>2018-02-20T12:19:55.000Z</time>
      </trkpt>
      <trkpt lat="43.53487" lon="5.53836">
        <ele>372</ele>
        <time>2018-02-20T12:19:56.000Z</time>
      </trkpt>
      <trkpt lat="43.53487" lon="5.53837">
        <ele>373</ele>
        <time>2018-02-20T12:19:57.000Z</time>
      </trkpt>
      <trkpt lat="43.53486" lon="5.53839">
        <ele>373</ele>
        <time>2018-02-20T12:19:58.000Z</time>
      </trkpt>
      <trkpt lat="43.53486" lon="5.5384">
        <ele>373</ele>
        <time>2018-02-20T12:19:59.000Z</time>
      </trkpt>
      <trkpt lat="43.53486" lon="5.53842">
        <ele>373</ele>
        <time>2018-02-20T12:20:00.000Z</time>
      </trkpt>
      <trkpt lat="43.53486" lon="5.53844">
        <ele>373</ele>
        <time>2018-02-20T12:20:01.000Z</time>
      </trkpt>
      <trkpt lat="43.53486" lon="5.53845">
        <ele>373</ele>
        <time>2018-02-20T12:20:02.000Z</time>
      </trkpt>
      <trkpt lat="43.53486" lon="5.53847">
        <ele>373</ele>
        <time>2018-02-20T12:20:03.000Z</time>
      </trkpt>
      <trkpt lat="43.53486" lon="5.53848">
        <ele>373</ele>
        <time>2018-02-20T12:20:04.000Z</time>
      </trkpt>
      <trkpt lat="43.53486" lon="5.5385">
        <ele>373</ele>
        <time>2018-02-20T12:20:05.000Z</time>
      </trkpt>
      <trkpt lat="43.53486" lon="5.53851">
        <ele>373</ele>
        <time>2018-02-20T12:20:06.000Z</time>
      </trkpt>
      <trkpt lat="43.53486" lon="5.53853">
        <ele>373</ele>
        <time>2018-02-20T12:20:07.000Z</time>
      </trkpt>
      <trkpt lat="43.53486" lon="5.53855">
        <ele>373</ele>
        <time>2018-02-20T12:20:08.000Z</time>
      </trkpt>
      <trkpt lat="43.53486" lon="5.53856">
        <ele>373</ele>
        <time>2018-02-20T12:20:09.000Z</time>
      </trkpt>
      <trkpt lat="43.53486" lon="5.53858">
        <ele>373</ele>
        <time>2018-02-20T12:20:10.000Z</time>
      </trkpt>
      <trkpt lat="43.53485" lon="5.53859">
        <ele>373</ele>
        <time>2018-02-20T12:20:11.000Z</time>
      </trkpt>
      <trkpt lat="43.53485" lon="5.5386">
        <ele>373</ele>
        <time>2018-02-20T12:20:12.000Z</time>
      </trkpt>
      <trkpt lat="43.53485" lon="5.53861">
        <ele>373</ele>
        <time>2018-02-20T12:20:13.000Z</time>
      </trkpt>
      <trkpt lat="43.53485" lon="5.53861">
        <ele>373</ele>
        <time>2018-02-20T12:20:14.000Z</time>
      </trkpt>
      <trkpt lat="43.53485" lon="5.53861">
        <ele>373</ele>
        <time>2018-02-20T12:20:15.000Z</time>
      </trkpt>
      <trkpt lat="43.53484" lon="5.53862">
        <ele>373</ele>
        <time>2018-02-20T12:20:16.000Z</time>
      </trkpt>
      <trkpt lat="43.53484" lon="5.53862">
        <ele>373</ele>
        <time>2018-02-20T12:20:17.000Z</time>
      </trkpt>
      <trkpt lat="43.53484" lon="5.53862">
        <ele>373</ele>
        <time>2018-02-20T12:20:18.000Z</time>
      </trkpt>
      <trkpt lat="43.53484" lon="5.53862">
        <ele>373</ele>
        <time>2018-02-20T12:20:19.000Z</time>
      </trkpt>
      <trkpt lat="43.53484" lon="5.53862">
        <ele>373</ele>
        <time>2018-02-20T12:20:20.000Z</time>
      </trkpt>
      <trkpt lat="43.53485" lon="5.53862">
        <ele>373</ele>
        <time>2018-02-20T12:20:21.000Z</time>
      </trkpt>
      <trkpt lat="43.53485" lon="5.53863">
        <ele>373</ele>
        <time>2018-02-20T12:20:22.000Z</time>
      </trkpt>
      <trkpt lat="43.53485" lon="5.53864">
        <ele>373</ele>
        <time>2018-02-20T12:20:23.000Z</time>
      </trkpt>
      <trkpt lat="43.53485" lon="5.53865">
        <ele>373</ele>
        <time>2018-02-20T12:20:24.000Z</time>
      </trkpt>
      <trkpt lat="43.53485" lon="5.53867">
        <ele>373</ele>
        <time>2018-02-20T12:20:25.000Z</time>
      </trkpt>
      <trkpt lat="43.53485" lon="5.53869">
        <ele>373</ele>
        <time>2018-02-20T12:20:26.000Z</time>
      </trkpt>
      <trkpt lat="43.53485" lon="5.5387">
        <ele>373</ele>
        <time>2018-02-20T12:20:27.000Z</time>
      </trkpt>
      <trkpt lat="43.53485" lon="5.53872">
        <ele>373</ele>
        <time>2018-02-20T12:20:28.000Z</time>
      </trkpt>
      <trkpt lat="43.53485" lon="5.53874">
        <ele>373</ele>
        <time>2018-02-20T12:20:29.000Z</time>
      </trkpt>
      <trkpt lat="43.53485" lon="5.53875">
        <ele>373</ele>
        <time>2018-02-20T12:20:30.000Z</time>
      </trkpt>
      <trkpt lat="43.53485" lon="5.53877">
        <ele>373</ele>
        <time>2018-02-20T12:20:31.000Z</time>
      </trkpt>
      <trkpt lat="43.53484" lon="5.53878">
        <ele>373</ele>
        <time>2018-02-20T12:20:32.000Z</time>
      </trkpt>
      <trkpt lat="43.53484" lon="5.5388">
        <ele>373</ele>
        <time>2018-02-20T12:20:33.000Z</time>
      </trkpt>
      <trkpt lat="43.53484" lon="5.53882">
        <ele>374</ele>
        <time>2018-02-20T12:20:34.000Z</time>
      </trkpt>
      <trkpt lat="43.53484" lon="5.53883">
        <ele>374</ele>
        <time>2018-02-20T12:20:35.000Z</time>
      </trkpt>
      <trkpt lat="43.53484" lon="5.53885">
        <ele>374</ele>
        <time>2018-02-20T12:20:36.000Z</time>
      </trkpt>
      <trkpt lat="43.53484" lon="5.53887">
        <ele>374</ele>
        <time>2018-02-20T12:20:37.000Z</time>
      </trkpt>
      <trkpt lat="43.53484" lon="5.53888">
        <ele>374</ele>
        <time>2018-02-20T12:20:38.000Z</time>
      </trkpt>
      <trkpt lat="43.53484" lon="5.5389">
        <ele>374</ele>
        <time>2018-02-20T12:20:39.000Z</time>
      </trkpt>
      <trkpt lat="43.53484" lon="5.53892">
        <ele>374</ele>
        <time>2018-02-20T12:20:40.000Z</time>
      </trkpt>
      <trkpt lat="43.53484" lon="5.53894">
        <ele>374</ele>
        <time>2018-02-20T12:20:41.000Z</time>
      </trkpt>
      <trkpt lat="43.53484" lon="5.53896">
        <ele>374</ele>
        <time>2018-02-20T12:20:42.000Z</time>
      </trkpt>
      <trkpt lat="43.53484" lon="5.53897">
        <ele>374</ele>
        <time>2018-02-20T12:20:43.000Z</time>
      </trkpt>
      <trkpt lat="43.53484" lon="5.53899">
        <ele>375</ele>
        <time>2018-02-20T12:20:44.000Z</time>
      </trkpt>
      <trkpt lat="43.53484" lon="5.53901">
        <ele>375</ele>
        <time>2018-02-20T12:20:45.000Z</time>
      </trkpt>
      <trkpt lat="43.53484" lon="5.53903">
        <ele>375</ele>
        <time>2018-02-20T12:20:46.000Z</time>
      </trkpt>
      <trkpt lat="43.53484" lon="5.53904">
        <ele>375</ele>
        <time>2018-02-20T12:20:47.000Z</time>
      </trkpt>
      <trkpt lat="43.53484" lon="5.53906">
        <ele>375</ele>
        <time>2018-02-20T12:20:48.000Z</time>
      </trkpt>
      <trkpt lat="43.53484" lon="5.53908">
        <ele>375</ele>
        <time>2018-02-20T12:20:49.000Z</time>
      </trkpt>
      <trkpt lat="43.53484" lon="5.53909">
        <ele>375</ele>
        <time>2018-02-20T12:20:50.000Z</time>
      </trkpt>
      <trkpt lat="43.53484" lon="5.53911">
        <ele>375</ele>
        <time>2018-02-20T12:20:51.000Z</time>
      </trkpt>
      <trkpt lat="43.53484" lon="5.53913">
        <ele>375</ele>
        <time>2018-02-20T12:20:52.000Z</time>
      </trkpt>
      <trkpt lat="43.53484" lon="5.53914">
        <ele>375</ele>
        <time>2018-02-20T12:20:53.000Z</time>
      </trkpt>
      <trkpt lat="43.53484" lon="5.53916">
        <ele>375</ele>
        <time>2018-02-20T12:20:54.000Z</time>
      </trkpt>
      <trkpt lat="43.53484" lon="5.53918">
        <ele>375</ele>
        <time>2018-02-20T12:20:55.000Z</time>
      </trkpt>
      <trkpt lat="43.53484" lon="5.53919">
        <ele>375</ele>
        <time>2018-02-20T12:20:56.000Z</time>
      </trkpt>
      <trkpt lat="43.53484" lon="5.53921">
        <ele>375</ele>
        <time>2018-02-20T12:20:57.000Z</time>
      </trkpt>
      <trkpt lat="43.53484" lon="5.53922">
        <ele>375</ele>
        <time>2018-02-20T12:20:58.000Z</time>
      </trkpt>
      <trkpt lat="43.53484" lon="5.53924">
        <ele>375</ele>
        <time>2018-02-20T12:20:59.000Z</time>
      </trkpt>
      <trkpt lat="43.53484" lon="5.53926">
        <ele>375</ele>
        <time>2018-02-20T12:21:00.000Z</time>
      </trkpt>
      <trkpt lat="43.53484" lon="5.53927">
        <ele>375</ele>
        <time>2018-02-20T12:21:01.000Z</time>
      </trkpt>
      <trkpt lat="43.53484" lon="5.53929">
        <ele>375</ele>
        <time>2018-02-20T12:21:02.000Z</time>
      </trkpt>
      <trkpt lat="43.53484" lon="5.53931">
        <ele>375</ele>
        <time>2018-02-20T12:21:03.000Z</time>
      </trkpt>
      <trkpt lat="43.53484" lon="5.53932">
        <ele>375</ele>
        <time>2018-02-20T12:21:04.000Z</time>
      </trkpt>
      <trkpt lat="43.53484" lon="5.53934">
        <ele>375</ele>
        <time>2018-02-20T12:21:05.000Z</time>
      </trkpt>
      <trkpt lat="43.53483" lon="5.53935">
        <ele>375</ele>
        <time>2018-02-20T12:21:06.000Z</time>
      </trkpt>
      <trkpt lat="43.53483" lon="5.53937">
        <ele>375</ele>
        <time>2018-02-20T12:21:07.000Z</time>
      </trkpt>
      <trkpt lat="43.53483" lon="5.53938">
        <ele>375</ele>
        <time>2018-02-20T12:21:08.000Z</time>
      </trkpt>
      <trkpt lat="43.53483" lon="5.5394">
        <ele>375</ele>
        <time>2018-02-20T12:21:09.000Z</time>
      </trkpt>
      <trkpt lat="43.53483" lon="5.53941">
        <ele>375</ele>
        <time>2018-02-20T12:21:10.000Z</time>
      </trkpt>
      <trkpt lat="43.53482" lon="5.53942">
        <ele>375</ele>
        <time>2018-02-20T12:21:11.000Z</time>
      </trkpt>
      <trkpt lat="43.53482" lon="5.53944">
        <ele>375</ele>
        <time>2018-02-20T12:21:12.000Z</time>
      </trkpt>
      <trkpt lat="43.53482" lon="5.53945">
        <ele>375</ele>
        <time>2018-02-20T12:21:13.000Z</time>
      </trkpt>
      <trkpt lat="43.53481" lon="5.53946">
        <ele>375</ele>
        <time>2018-02-20T12:21:14.000Z</time>
      </trkpt>
      <trkpt lat="43.53481" lon="5.53948">
        <ele>375</ele>
        <time>2018-02-20T12:21:15.000Z</time>
      </trkpt>
      <trkpt lat="43.53481" lon="5.53949">
        <ele>375</ele>
        <time>2018-02-20T12:21:16.000Z</time>
      </trkpt>
      <trkpt lat="43.5348" lon="5.5395">
        <ele>375</ele>
        <time>2018-02-20T12:21:17.000Z</time>
      </trkpt>
      <trkpt lat="43.5348" lon="5.53952">
        <ele>375</ele>
        <time>2018-02-20T12:21:18.000Z</time>
      </trkpt>
      <trkpt lat="43.53479" lon="5.53953">
        <ele>375</ele>
        <time>2018-02-20T12:21:19.000Z</time>
      </trkpt>
      <trkpt lat="43.53479" lon="5.53954">
        <ele>375</ele>
        <time>2018-02-20T12:21:20.000Z</time>
      </trkpt>
      <trkpt lat="43.53478" lon="5.53955">
        <ele>375</ele>
        <time>2018-02-20T12:21:21.000Z</time>
      </trkpt>
      <trkpt lat="43.53478" lon="5.53956">
        <ele>376</ele>
        <time>2018-02-20T12:21:22.000Z</time>
      </trkpt>
      <trkpt lat="43.53477" lon="5.53957">
        <ele>376</ele>
        <time>2018-02-20T12:21:23.000Z</time>
      </trkpt>
      <trkpt lat="43.53477" lon="5.53959">
        <ele>376</ele>
        <time>2018-02-20T12:21:24.000Z</time>
      </trkpt>
      <trkpt lat="43.53476" lon="5.5396">
        <ele>376</ele>
        <time>2018-02-20T12:21:25.000Z</time>
      </trkpt>
      <trkpt lat="43.53475" lon="5.53962">
        <ele>376</ele>
        <time>2018-02-20T12:21:26.000Z</time>
      </trkpt>
      <trkpt lat="43.53475" lon="5.53963">
        <ele>376</ele>
        <time>2018-02-20T12:21:27.000Z</time>
      </trkpt>
      <trkpt lat="43.53474" lon="5.53964">
        <ele>376</ele>
        <time>2018-02-20T12:21:28.000Z</time>
      </trkpt>
      <trkpt lat="43.53473" lon="5.53966">
        <ele>376</ele>
        <time>2018-02-20T12:21:29.000Z</time>
      </trkpt>
      <trkpt lat="43.53472" lon="5.53967">
        <ele>376</ele>
        <time>2018-02-20T12:21:30.000Z</time>
      </trkpt>
      <trkpt lat="43.53472" lon="5.53968">
        <ele>376</ele>
        <time>2018-02-20T12:21:31.000Z</time>
      </trkpt>
      <trkpt lat="43.53471" lon="5.53969">
        <ele>376</ele>
        <time>2018-02-20T12:21:32.000Z</time>
      </trkpt>
      <trkpt lat="43.53471" lon="5.5397">
        <ele>376</ele>
        <time>2018-02-20T12:21:33.000Z</time>
      </trkpt>
      <trkpt lat="43.5347" lon="5.53972">
        <ele>377</ele>
        <time>2018-02-20T12:21:34.000Z</time>
      </trkpt>
      <trkpt lat="43.5347" lon="5.53973">
        <ele>377</ele>
        <time>2018-02-20T12:21:35.000Z</time>
      </trkpt>
      <trkpt lat="43.53469" lon="5.53975">
        <ele>377</ele>
        <time>2018-02-20T12:21:36.000Z</time>
      </trkpt>
      <trkpt lat="43.53468" lon="5.53977">
        <ele>377</ele>
        <time>2018-02-20T12:21:37.000Z</time>
      </trkpt>
      <trkpt lat="43.53467" lon="5.53978">
        <ele>377</ele>
        <time>2018-02-20T12:21:38.000Z</time>
      </trkpt>
      <trkpt lat="43.53467" lon="5.5398">
        <ele>377</ele>
        <time>2018-02-20T12:21:39.000Z</time>
      </trkpt>
      <trkpt lat="43.53466" lon="5.53981">
        <ele>377</ele>
        <time>2018-02-20T12:21:40.000Z</time>
      </trkpt>
      <trkpt lat="43.53465" lon="5.53982">
        <ele>377</ele>
        <time>2018-02-20T12:21:41.000Z</time>
      </trkpt>
      <trkpt lat="43.53465" lon="5.53984">
        <ele>377</ele>
        <time>2018-02-20T12:21:42.000Z</time>
      </trkpt>
      <trkpt lat="43.53464" lon="5.53986">
        <ele>377</ele>
        <time>2018-02-20T12:21:43.000Z</time>
      </trkpt>
      <trkpt lat="43.53463" lon="5.53987">
        <ele>377</ele>
        <time>2018-02-20T12:21:44.000Z</time>
      </trkpt>
      <trkpt lat="43.53462" lon="5.53988">
        <ele>377</ele>
        <time>2018-02-20T12:21:45.000Z</time>
      </trkpt>
      <trkpt lat="43.53461" lon="5.5399">
        <ele>377</ele>
        <time>2018-02-20T12:21:46.000Z</time>
      </trkpt>
      <trkpt lat="43.5346" lon="5.53991">
        <ele>377</ele>
        <time>2018-02-20T12:21:47.000Z</time>
      </trkpt>
      <trkpt lat="43.5346" lon="5.53992">
        <ele>377</ele>
        <time>2018-02-20T12:21:48.000Z</time>
      </trkpt>
      <trkpt lat="43.53459" lon="5.53994">
        <ele>377</ele>
        <time>2018-02-20T12:21:49.000Z</time>
      </trkpt>
      <trkpt lat="43.53458" lon="5.53996">
        <ele>377</ele>
        <time>2018-02-20T12:21:50.000Z</time>
      </trkpt>
      <trkpt lat="43.53457" lon="5.53997">
        <ele>377</ele>
        <time>2018-02-20T12:21:51.000Z</time>
      </trkpt>
      <trkpt lat="43.53457" lon="5.53998">
        <ele>377</ele>
        <time>2018-02-20T12:21:52.000Z</time>
      </trkpt>
      <trkpt lat="43.53456" lon="5.53999">
        <ele>377</ele>
        <time>2018-02-20T12:21:53.000Z</time>
      </trkpt>
      <trkpt lat="43.53454" lon="5.54001">
        <ele>377</ele>
        <time>2018-02-20T12:21:54.000Z</time>
      </trkpt>
      <trkpt lat="43.53453" lon="5.54002">
        <ele>377</ele>
        <time>2018-02-20T12:21:55.000Z</time>
      </trkpt>
      <trkpt lat="43.53452" lon="5.54003">
        <ele>378</ele>
        <time>2018-02-20T12:21:56.000Z</time>
      </trkpt>
      <trkpt lat="43.53451" lon="5.54004">
        <ele>378</ele>
        <time>2018-02-20T12:21:57.000Z</time>
      </trkpt>
      <trkpt lat="43.5345" lon="5.54006">
        <ele>378</ele>
        <time>2018-02-20T12:21:58.000Z</time>
      </trkpt>
      <trkpt lat="43.5345" lon="5.54007">
        <ele>378</ele>
        <time>2018-02-20T12:21:59.000Z</time>
      </trkpt>
      <trkpt lat="43.53449" lon="5.54008">
        <ele>378</ele>
        <time>2018-02-20T12:22:00.000Z</time>
      </trkpt>
      <trkpt lat="43.53448" lon="5.54009">
        <ele>378</ele>
        <time>2018-02-20T12:22:01.000Z</time>
      </trkpt>
      <trkpt lat="43.53447" lon="5.5401">
        <ele>378</ele>
        <time>2018-02-20T12:22:02.000Z</time>
      </trkpt>
      <trkpt lat="43.53446" lon="5.54012">
        <ele>378</ele>
        <time>2018-02-20T12:22:03.000Z</time>
      </trkpt>
      <trkpt lat="43.53445" lon="5.54013">
        <ele>378</ele>
        <time>2018-02-20T12:22:04.000Z</time>
      </trkpt>
      <trkpt lat="43.53444" lon="5.54015">
        <ele>378</ele>
        <time>2018-02-20T12:22:05.000Z</time>
      </trkpt>
      <trkpt lat="43.53444" lon="5.54016">
        <ele>378</ele>
        <time>2018-02-20T12:22:06.000Z</time>
      </trkpt>
      <trkpt lat="43.53443" lon="5.54018">
        <ele>378</ele>
        <time>2018-02-20T12:22:07.000Z</time>
      </trkpt>
      <trkpt lat="43.53443" lon="5.54019">
        <ele>378</ele>
        <time>2018-02-20T12:22:08.000Z</time>
      </trkpt>
      <trkpt lat="43.53442" lon="5.54021">
        <ele>378</ele>
        <time>2018-02-20T12:22:09.000Z</time>
      </trkpt>
      <trkpt lat="43.53442" lon="5.54022">
        <ele>378</ele>
        <time>2018-02-20T12:22:10.000Z</time>
      </trkpt>
      <trkpt lat="43.53441" lon="5.54024">
        <ele>379</ele>
        <time>2018-02-20T12:22:11.000Z</time>
      </trkpt>
      <trkpt lat="43.53441" lon="5.54026">
        <ele>379</ele>
        <time>2018-02-20T12:22:12.000Z</time>
      </trkpt>
      <trkpt lat="43.53441" lon="5.54027">
        <ele>379</ele>
        <time>2018-02-20T12:22:13.000Z</time>
      </trkpt>
      <trkpt lat="43.53441" lon="5.54029">
        <ele>379</ele>
        <time>2018-02-20T12:22:14.000Z</time>
      </trkpt>
      <trkpt lat="43.5344" lon="5.54031">
        <ele>379</ele>
        <time>2018-02-20T12:22:15.000Z</time>
      </trkpt>
      <trkpt lat="43.5344" lon="5.54032">
        <ele>379</ele>
        <time>2018-02-20T12:22:16.000Z</time>
      </trkpt>
      <trkpt lat="43.5344" lon="5.54034">
        <ele>379</ele>
        <time>2018-02-20T12:22:17.000Z</time>
      </trkpt>
      <trkpt lat="43.5344" lon="5.54036">
        <ele>379</ele>
        <time>2018-02-20T12:22:18.000Z</time>
      </trkpt>
      <trkpt lat="43.5344" lon="5.54037">
        <ele>380</ele>
        <time>2018-02-20T12:22:19.000Z</time>
      </trkpt>
      <trkpt lat="43.53439" lon="5.54039">
        <ele>380</ele>
        <time>2018-02-20T12:22:20.000Z</time>
      </trkpt>
      <trkpt lat="43.53439" lon="5.54041">
        <ele>380</ele>
        <time>2018-02-20T12:22:21.000Z</time>
      </trkpt>
      <trkpt lat="43.53439" lon="5.54042">
        <ele>380</ele>
        <time>2018-02-20T12:22:22.000Z</time>
      </trkpt>
      <trkpt lat="43.53438" lon="5.54044">
        <ele>380</ele>
        <time>2018-02-20T12:22:23.000Z</time>
      </trkpt>
      <trkpt lat="43.53438" lon="5.54045">
        <ele>380</ele>
        <time>2018-02-20T12:22:24.000Z</time>
      </trkpt>
      <trkpt lat="43.53437" lon="5.54047">
        <ele>380</ele>
        <time>2018-02-20T12:22:25.000Z</time>
      </trkpt>
      <trkpt lat="43.53436" lon="5.54048">
        <ele>380</ele>
        <time>2018-02-20T12:22:26.000Z</time>
      </trkpt>
      <trkpt lat="43.53435" lon="5.54049">
        <ele>380</ele>
        <time>2018-02-20T12:22:27.000Z</time>
      </trkpt>
      <trkpt lat="43.53435" lon="5.5405">
        <ele>380</ele>
        <time>2018-02-20T12:22:28.000Z</time>
      </trkpt>
      <trkpt lat="43.53434" lon="5.54052">
        <ele>380</ele>
        <time>2018-02-20T12:22:29.000Z</time>
      </trkpt>
      <trkpt lat="43.53433" lon="5.54053">
        <ele>380</ele>
        <time>2018-02-20T12:22:30.000Z</time>
      </trkpt>
      <trkpt lat="43.53433" lon="5.54054">
        <ele>380</ele>
        <time>2018-02-20T12:22:31.000Z</time>
      </trkpt>
      <trkpt lat="43.53432" lon="5.54055">
        <ele>380</ele>
        <time>2018-02-20T12:22:32.000Z</time>
      </trkpt>
      <trkpt lat="43.53431" lon="5.54057">
        <ele>379</ele>
        <time>2018-02-20T12:22:33.000Z</time>
      </trkpt>
      <trkpt lat="43.5343" lon="5.54058">
        <ele>379</ele>
        <time>2018-02-20T12:22:34.000Z</time>
      </trkpt>
      <trkpt lat="43.53429" lon="5.54059">
        <ele>379</ele>
        <time>2018-02-20T12:22:35.000Z</time>
      </trkpt>
      <trkpt lat="43.53429" lon="5.5406">
        <ele>379</ele>
        <time>2018-02-20T12:22:36.000Z</time>
      </trkpt>
      <trkpt lat="43.53428" lon="5.54061">
        <ele>379</ele>
        <time>2018-02-20T12:22:37.000Z</time>
      </trkpt>
      <trkpt lat="43.53427" lon="5.54063">
        <ele>379</ele>
        <time>2018-02-20T12:22:38.000Z</time>
      </trkpt>
      <trkpt lat="43.53427" lon="5.54065">
        <ele>379</ele>
        <time>2018-02-20T12:22:39.000Z</time>
      </trkpt>
      <trkpt lat="43.53427" lon="5.54066">
        <ele>379</ele>
        <time>2018-02-20T12:22:40.000Z</time>
      </trkpt>
      <trkpt lat="43.53426" lon="5.54067">
        <ele>379</ele>
        <time>2018-02-20T12:22:41.000Z</time>
      </trkpt>
      <trkpt lat="43.53426" lon="5.54069">
        <ele>379</ele>
        <time>2018-02-20T12:22:42.000Z</time>
      </trkpt>
      <trkpt lat="43.53425" lon="5.5407">
        <ele>379</ele>
        <time>2018-02-20T12:22:43.000Z</time>
      </trkpt>
      <trkpt lat="43.53424" lon="5.54071">
        <ele>379</ele>
        <time>2018-02-20T12:22:44.000Z</time>
      </trkpt>
      <trkpt lat="43.53423" lon="5.54072">
        <ele>379</ele>
        <time>2018-02-20T12:22:45.000Z</time>
      </trkpt>
      <trkpt lat="43.53423" lon="5.54074">
        <ele>379</ele>
        <time>2018-02-20T12:22:46.000Z</time>
      </trkpt>
      <trkpt lat="43.53422" lon="5.54075">
        <ele>379</ele>
        <time>2018-02-20T12:22:47.000Z</time>
      </trkpt>
      <trkpt lat="43.53421" lon="5.54077">
        <ele>379</ele>
        <time>2018-02-20T12:22:48.000Z</time>
      </trkpt>
      <trkpt lat="43.5342" lon="5.54078">
        <ele>379</ele>
        <time>2018-02-20T12:22:49.000Z</time>
      </trkpt>
      <trkpt lat="43.53419" lon="5.54079">
        <ele>379</ele>
        <time>2018-02-20T12:22:50.000Z</time>
      </trkpt>
      <trkpt lat="43.53418" lon="5.54079">
        <ele>379</ele>
        <time>2018-02-20T12:22:51.000Z</time>
      </trkpt>
      <trkpt lat="43.53417" lon="5.5408">
        <ele>379</ele>
        <time>2018-02-20T12:22:52.000Z</time>
      </trkpt>
      <trkpt lat="43.53416" lon="5.54081">
        <ele>379</ele>
        <time>2018-02-20T12:22:53.000Z</time>
      </trkpt>
      <trkpt lat="43.53415" lon="5.54082">
        <ele>379</ele>
        <time>2018-02-20T12:22:54.000Z</time>
      </trkpt>
      <trkpt lat="43.53414" lon="5.54082">
        <ele>379</ele>
        <time>2018-02-20T12:22:55.000Z</time>
      </trkpt>
      <trkpt lat="43.53412" lon="5.54083">
        <ele>379</ele>
        <time>2018-02-20T12:22:56.000Z</time>
      </trkpt>
      <trkpt lat="43.53411" lon="5.54084">
        <ele>379</ele>
        <time>2018-02-20T12:22:57.000Z</time>
      </trkpt>
      <trkpt lat="43.5341" lon="5.54084">
        <ele>378</ele>
        <time>2018-02-20T12:22:58.000Z</time>
      </trkpt>
      <trkpt lat="43.53409" lon="5.54085">
        <ele>378</ele>
        <time>2018-02-20T12:22:59.000Z</time>
      </trkpt>
      <trkpt lat="43.53408" lon="5.54085">
        <ele>378</ele>
        <time>2018-02-20T12:23:00.000Z</time>
      </trkpt>
      <trkpt lat="43.53407" lon="5.54086">
        <ele>378</ele>
        <time>2018-02-20T12:23:01.000Z</time>
      </trkpt>
      <trkpt lat="43.53405" lon="5.54086">
        <ele>378</ele>
        <time>2018-02-20T12:23:02.000Z</time>
      </trkpt>
      <trkpt lat="43.53404" lon="5.54087">
        <ele>378</ele>
        <time>2018-02-20T12:23:03.000Z</time>
      </trkpt>
      <trkpt lat="43.53403" lon="5.54087">
        <ele>378</ele>
        <time>2018-02-20T12:23:04.000Z</time>
      </trkpt>
      <trkpt lat="43.53402" lon="5.54087">
        <ele>378</ele>
        <time>2018-02-20T12:23:05.000Z</time>
      </trkpt>
      <trkpt lat="43.53401" lon="5.54088">
        <ele>378</ele>
        <time>2018-02-20T12:23:06.000Z</time>
      </trkpt>
      <trkpt lat="43.534" lon="5.54088">
        <ele>378</ele>
        <time>2018-02-20T12:23:07.000Z</time>
      </trkpt>
      <trkpt lat="43.53399" lon="5.54089">
        <ele>378</ele>
        <time>2018-02-20T12:23:08.000Z</time>
      </trkpt>
      <trkpt lat="43.53397" lon="5.54089">
        <ele>378</ele>
        <time>2018-02-20T12:23:09.000Z</time>
      </trkpt>
      <trkpt lat="43.53396" lon="5.54089">
        <ele>377</ele>
        <time>2018-02-20T12:23:10.000Z</time>
      </trkpt>
      <trkpt lat="43.53395" lon="5.5409">
        <ele>377</ele>
        <time>2018-02-20T12:23:11.000Z</time>
      </trkpt>
      <trkpt lat="43.53394" lon="5.5409">
        <ele>377</ele>
        <time>2018-02-20T12:23:12.000Z</time>
      </trkpt>
      <trkpt lat="43.53392" lon="5.5409">
        <ele>377</ele>
        <time>2018-02-20T12:23:13.000Z</time>
      </trkpt>
      <trkpt lat="43.53391" lon="5.5409">
        <ele>377</ele>
        <time>2018-02-20T12:23:14.000Z</time>
      </trkpt>
      <trkpt lat="43.5339" lon="5.54091">
        <ele>377</ele>
        <time>2018-02-20T12:23:15.000Z</time>
      </trkpt>
      <trkpt lat="43.53388" lon="5.54091">
        <ele>377</ele>
        <time>2018-02-20T12:23:16.000Z</time>
      </trkpt>
      <trkpt lat="43.53387" lon="5.54091">
        <ele>377</ele>
        <time>2018-02-20T12:23:17.000Z</time>
      </trkpt>
      <trkpt lat="43.53386" lon="5.54091">
        <ele>377</ele>
        <time>2018-02-20T12:23:18.000Z</time>
      </trkpt>
      <trkpt lat="43.53384" lon="5.54092">
        <ele>377</ele>
        <time>2018-02-20T12:23:19.000Z</time>
      </trkpt>
      <trkpt lat="43.53383" lon="5.54092">
        <ele>377</ele>
        <time>2018-02-20T12:23:20.000Z</time>
      </trkpt>
      <trkpt lat="43.53382" lon="5.54093">
        <ele>377</ele>
        <time>2018-02-20T12:23:21.000Z</time>
      </trkpt>
      <trkpt lat="43.53381" lon="5.54094">
        <ele>377</ele>
        <time>2018-02-20T12:23:22.000Z</time>
      </trkpt>
      <trkpt lat="43.5338" lon="5.54094">
        <ele>377</ele>
        <time>2018-02-20T12:23:23.000Z</time>
      </trkpt>
      <trkpt lat="43.53379" lon="5.54094">
        <ele>377</ele>
        <time>2018-02-20T12:23:24.000Z</time>
      </trkpt>
      <trkpt lat="43.53378" lon="5.54095">
        <ele>377</ele>
        <time>2018-02-20T12:23:25.000Z</time>
      </trkpt>
      <trkpt lat="43.53376" lon="5.54095">
        <ele>377</ele>
        <time>2018-02-20T12:23:26.000Z</time>
      </trkpt>
      <trkpt lat="43.53375" lon="5.54095">
        <ele>377</ele>
        <time>2018-02-20T12:23:27.000Z</time>
      </trkpt>
      <trkpt lat="43.53374" lon="5.54096">
        <ele>377</ele>
        <time>2018-02-20T12:23:28.000Z</time>
      </trkpt>
      <trkpt lat="43.53373" lon="5.54096">
        <ele>377</ele>
        <time>2018-02-20T12:23:29.000Z</time>
      </trkpt>
      <trkpt lat="43.53371" lon="5.54096">
        <ele>377</ele>
        <time>2018-02-20T12:23:30.000Z</time>
      </trkpt>
      <trkpt lat="43.5337" lon="5.54096">
        <ele>377</ele>
        <time>2018-02-20T12:23:31.000Z</time>
      </trkpt>
      <trkpt lat="43.53369" lon="5.54097">
        <ele>377</ele>
        <time>2018-02-20T12:23:32.000Z</time>
      </trkpt>
      <trkpt lat="43.53368" lon="5.54097">
        <ele>377</ele>
        <time>2018-02-20T12:23:33.000Z</time>
      </trkpt>
      <trkpt lat="43.53366" lon="5.54097">
        <ele>376</ele>
        <time>2018-02-20T12:23:34.000Z</time>
      </trkpt>
      <trkpt lat="43.53365" lon="5.54098">
        <ele>376</ele>
        <time>2018-02-20T12:23:35.000Z</time>
      </trkpt>
      <trkpt lat="43.53364" lon="5.54098">
        <ele>376</ele>
        <time>2018-02-20T12:23:36.000Z</time>
      </trkpt>
      <trkpt lat="43.53363" lon="5.54099">
        <ele>376</ele>
        <time>2018-02-20T12:23:37.000Z</time>
      </trkpt>
      <trkpt lat="43.53362" lon="5.541">
        <ele>376</ele>
        <time>2018-02-20T12:23:38.000Z</time>
      </trkpt>
      <trkpt lat="43.53362" lon="5.54101">
        <ele>376</ele>
        <time>2018-02-20T12:23:39.000Z</time>
      </trkpt>
      <trkpt lat="43.53361" lon="5.54101">
        <ele>376</ele>
        <time>2018-02-20T12:23:40.000Z</time>
      </trkpt>
      <trkpt lat="43.53359" lon="5.54102">
        <ele>376</ele>
        <time>2018-02-20T12:23:41.000Z</time>
      </trkpt>
      <trkpt lat="43.53358" lon="5.54103">
        <ele>376</ele>
        <time>2018-02-20T12:23:42.000Z</time>
      </trkpt>
      <trkpt lat="43.53357" lon="5.54104">
        <ele>376</ele>
        <time>2018-02-20T12:23:43.000Z</time>
      </trkpt>
      <trkpt lat="43.53356" lon="5.54105">
        <ele>376</ele>
        <time>2018-02-20T12:23:44.000Z</time>
      </trkpt>
      <trkpt lat="43.53355" lon="5.54107">
        <ele>375</ele>
        <time>2018-02-20T12:23:45.000Z</time>
      </trkpt>
      <trkpt lat="43.53355" lon="5.54108">
        <ele>375</ele>
        <time>2018-02-20T12:23:46.000Z</time>
      </trkpt>
      <trkpt lat="43.53354" lon="5.54109">
        <ele>375</ele>
        <time>2018-02-20T12:23:47.000Z</time>
      </trkpt>
      <trkpt lat="43.53353" lon="5.5411">
        <ele>375</ele>
        <time>2018-02-20T12:23:48.000Z</time>
      </trkpt>
      <trkpt lat="43.53352" lon="5.54111">
        <ele>375</ele>
        <time>2018-02-20T12:23:49.000Z</time>
      </trkpt>
      <trkpt lat="43.53352" lon="5.54113">
        <ele>375</ele>
        <time>2018-02-20T12:23:50.000Z</time>
      </trkpt>
      <trkpt lat="43.53351" lon="5.54114">
        <ele>375</ele>
        <time>2018-02-20T12:23:51.000Z</time>
      </trkpt>
      <trkpt lat="43.5335" lon="5.54115">
        <ele>375</ele>
        <time>2018-02-20T12:23:52.000Z</time>
      </trkpt>
      <trkpt lat="43.53349" lon="5.54116">
        <ele>375</ele>
        <time>2018-02-20T12:23:53.000Z</time>
      </trkpt>
      <trkpt lat="43.53349" lon="5.54118">
        <ele>375</ele>
        <time>2018-02-20T12:23:54.000Z</time>
      </trkpt>
      <trkpt lat="43.53348" lon="5.54119">
        <ele>375</ele>
        <time>2018-02-20T12:23:55.000Z</time>
      </trkpt>
      <trkpt lat="43.53348" lon="5.5412">
        <ele>375</ele>
        <time>2018-02-20T12:23:56.000Z</time>
      </trkpt>
      <trkpt lat="43.53347" lon="5.54122">
        <ele>375</ele>
        <time>2018-02-20T12:23:57.000Z</time>
      </trkpt>
      <trkpt lat="43.53347" lon="5.54123">
        <ele>375</ele>
        <time>2018-02-20T12:23:58.000Z</time>
      </trkpt>
      <trkpt lat="43.53346" lon="5.54124">
        <ele>374</ele>
        <time>2018-02-20T12:23:59.000Z</time>
      </trkpt>
      <trkpt lat="43.53346" lon="5.54126">
        <ele>374</ele>
        <time>2018-02-20T12:24:00.000Z</time>
      </trkpt>
      <trkpt lat="43.53346" lon="5.54127">
        <ele>374</ele>
        <time>2018-02-20T12:24:01.000Z</time>
      </trkpt>
      <trkpt lat="43.53345" lon="5.54129">
        <ele>374</ele>
        <time>2018-02-20T12:24:02.000Z</time>
      </trkpt>
      <trkpt lat="43.53345" lon="5.54131">
        <ele>374</ele>
        <time>2018-02-20T12:24:03.000Z</time>
      </trkpt>
      <trkpt lat="43.53345" lon="5.54132">
        <ele>374</ele>
        <time>2018-02-20T12:24:04.000Z</time>
      </trkpt>
      <trkpt lat="43.53345" lon="5.54134">
        <ele>374</ele>
        <time>2018-02-20T12:24:05.000Z</time>
      </trkpt>
      <trkpt lat="43.53345" lon="5.54135">
        <ele>374</ele>
        <time>2018-02-20T12:24:06.000Z</time>
      </trkpt>
      <trkpt lat="43.53345" lon="5.54137">
        <ele>373</ele>
        <time>2018-02-20T12:24:07.000Z</time>
      </trkpt>
      <trkpt lat="43.53345" lon="5.54138">
        <ele>373</ele>
        <time>2018-02-20T12:24:08.000Z</time>
      </trkpt>
      <trkpt lat="43.53345" lon="5.5414">
        <ele>373</ele>
        <time>2018-02-20T12:24:09.000Z</time>
      </trkpt>
      <trkpt lat="43.53345" lon="5.54141">
        <ele>373</ele>
        <time>2018-02-20T12:24:10.000Z</time>
      </trkpt>
      <trkpt lat="43.53345" lon="5.54143">
        <ele>373</ele>
        <time>2018-02-20T12:24:11.000Z</time>
      </trkpt>
      <trkpt lat="43.53345" lon="5.54144">
        <ele>372</ele>
        <time>2018-02-20T12:24:12.000Z</time>
      </trkpt>
      <trkpt lat="43.53345" lon="5.54145">
        <ele>372</ele>
        <time>2018-02-20T12:24:13.000Z</time>
      </trkpt>
      <trkpt lat="43.53346" lon="5.54147">
        <ele>372</ele>
        <time>2018-02-20T12:24:14.000Z</time>
      </trkpt>
      <trkpt lat="43.53345" lon="5.54148">
        <ele>372</ele>
        <time>2018-02-20T12:24:15.000Z</time>
      </trkpt>
      <trkpt lat="43.53345" lon="5.54149">
        <ele>372</ele>
        <time>2018-02-20T12:24:16.000Z</time>
      </trkpt>
      <trkpt lat="43.53346" lon="5.54151">
        <ele>372</ele>
        <time>2018-02-20T12:24:17.000Z</time>
      </trkpt>
      <trkpt lat="43.53346" lon="5.54152">
        <ele>371</ele>
        <time>2018-02-20T12:24:18.000Z</time>
      </trkpt>
      <trkpt lat="43.53346" lon="5.54154">
        <ele>371</ele>
        <time>2018-02-20T12:24:19.000Z</time>
      </trkpt>
      <trkpt lat="43.53346" lon="5.54155">
        <ele>371</ele>
        <time>2018-02-20T12:24:20.000Z</time>
      </trkpt>
      <trkpt lat="43.53347" lon="5.54157">
        <ele>371</ele>
        <time>2018-02-20T12:24:21.000Z</time>
      </trkpt>
      <trkpt lat="43.53347" lon="5.54158">
        <ele>371</ele>
        <time>2018-02-20T12:24:22.000Z</time>
      </trkpt>
      <trkpt lat="43.53348" lon="5.5416">
        <ele>371</ele>
        <time>2018-02-20T12:24:23.000Z</time>
      </trkpt>
      <trkpt lat="43.53348" lon="5.54161">
        <ele>371</ele>
        <time>2018-02-20T12:24:24.000Z</time>
      </trkpt>
      <trkpt lat="43.53349" lon="5.54162">
        <ele>370</ele>
        <time>2018-02-20T12:24:25.000Z</time>
      </trkpt>
      <trkpt lat="43.53349" lon="5.54164">
        <ele>370</ele>
        <time>2018-02-20T12:24:26.000Z</time>
      </trkpt>
      <trkpt lat="43.53349" lon="5.54165">
        <ele>370</ele>
        <time>2018-02-20T12:24:27.000Z</time>
      </trkpt>
      <trkpt lat="43.5335" lon="5.54167">
        <ele>370</ele>
        <time>2018-02-20T12:24:28.000Z</time>
      </trkpt>
      <trkpt lat="43.5335" lon="5.54168">
        <ele>370</ele>
        <time>2018-02-20T12:24:29.000Z</time>
      </trkpt>
      <trkpt lat="43.53351" lon="5.54169">
        <ele>370</ele>
        <time>2018-02-20T12:24:30.000Z</time>
      </trkpt>
      <trkpt lat="43.53352" lon="5.54171">
        <ele>370</ele>
        <time>2018-02-20T12:24:31.000Z</time>
      </trkpt>
      <trkpt lat="43.53352" lon="5.54172">
        <ele>369</ele>
        <time>2018-02-20T12:24:32.000Z</time>
      </trkpt>
      <trkpt lat="43.53352" lon="5.54174">
        <ele>369</ele>
        <time>2018-02-20T12:24:33.000Z</time>
      </trkpt>
      <trkpt lat="43.53353" lon="5.54175">
        <ele>369</ele>
        <time>2018-02-20T12:24:34.000Z</time>
      </trkpt>
      <trkpt lat="43.53353" lon="5.54176">
        <ele>369</ele>
        <time>2018-02-20T12:24:35.000Z</time>
      </trkpt>
      <trkpt lat="43.53352" lon="5.54177">
        <ele>369</ele>
        <time>2018-02-20T12:24:36.000Z</time>
      </trkpt>
      <trkpt lat="43.53353" lon="5.54178">
        <ele>369</ele>
        <time>2018-02-20T12:24:37.000Z</time>
      </trkpt>
      <trkpt lat="43.53353" lon="5.5418">
        <ele>369</ele>
        <time>2018-02-20T12:24:38.000Z</time>
      </trkpt>
      <trkpt lat="43.53353" lon="5.54181">
        <ele>369</ele>
        <time>2018-02-20T12:24:39.000Z</time>
      </trkpt>
      <trkpt lat="43.53352" lon="5.54183">
        <ele>369</ele>
        <time>2018-02-20T12:24:40.000Z</time>
      </trkpt>
      <trkpt lat="43.53352" lon="5.54184">
        <ele>369</ele>
        <time>2018-02-20T12:24:41.000Z</time>
      </trkpt>
      <trkpt lat="43.53352" lon="5.54186">
        <ele>369</ele>
        <time>2018-02-20T12:24:42.000Z</time>
      </trkpt>
      <trkpt lat="43.53352" lon="5.54187">
        <ele>368</ele>
        <time>2018-02-20T12:24:43.000Z</time>
      </trkpt>
      <trkpt lat="43.53352" lon="5.54188">
        <ele>368</ele>
        <time>2018-02-20T12:24:44.000Z</time>
      </trkpt>
      <trkpt lat="43.53351" lon="5.5419">
        <ele>368</ele>
        <time>2018-02-20T12:24:45.000Z</time>
      </trkpt>
      <trkpt lat="43.53351" lon="5.54191">
        <ele>368</ele>
        <time>2018-02-20T12:24:46.000Z</time>
      </trkpt>
      <trkpt lat="43.5335" lon="5.54193">
        <ele>368</ele>
        <time>2018-02-20T12:24:47.000Z</time>
      </trkpt>
      <trkpt lat="43.5335" lon="5.54194">
        <ele>368</ele>
        <time>2018-02-20T12:24:48.000Z</time>
      </trkpt>
      <trkpt lat="43.53349" lon="5.54195">
        <ele>368</ele>
        <time>2018-02-20T12:24:49.000Z</time>
      </trkpt>
      <trkpt lat="43.53348" lon="5.54196">
        <ele>368</ele>
        <time>2018-02-20T12:24:50.000Z</time>
      </trkpt>
      <trkpt lat="43.53347" lon="5.54197">
        <ele>368</ele>
        <time>2018-02-20T12:24:51.000Z</time>
      </trkpt>
      <trkpt lat="43.53346" lon="5.54198">
        <ele>368</ele>
        <time>2018-02-20T12:24:52.000Z</time>
      </trkpt>
      <trkpt lat="43.53345" lon="5.542">
        <ele>368</ele>
        <time>2018-02-20T12:24:53.000Z</time>
      </trkpt>
      <trkpt lat="43.53344" lon="5.54201">
        <ele>368</ele>
        <time>2018-02-20T12:24:54.000Z</time>
      </trkpt>
      <trkpt lat="43.53343" lon="5.54201">
        <ele>368</ele>
        <time>2018-02-20T12:24:55.000Z</time>
      </trkpt>
      <trkpt lat="43.53342" lon="5.54202">
        <ele>368</ele>
        <time>2018-02-20T12:24:56.000Z</time>
      </trkpt>
      <trkpt lat="43.53341" lon="5.54203">
        <ele>368</ele>
        <time>2018-02-20T12:24:57.000Z</time>
      </trkpt>
      <trkpt lat="43.5334" lon="5.54204">
        <ele>368</ele>
        <time>2018-02-20T12:24:58.000Z</time>
      </trkpt>
      <trkpt lat="43.53339" lon="5.54205">
        <ele>367</ele>
        <time>2018-02-20T12:24:59.000Z</time>
      </trkpt>
      <trkpt lat="43.53338" lon="5.54206">
        <ele>367</ele>
        <time>2018-02-20T12:25:00.000Z</time>
      </trkpt>
      <trkpt lat="43.53337" lon="5.54206">
        <ele>367</ele>
        <time>2018-02-20T12:25:01.000Z</time>
      </trkpt>
      <trkpt lat="43.53335" lon="5.54207">
        <ele>367</ele>
        <time>2018-02-20T12:25:02.000Z</time>
      </trkpt>
      <trkpt lat="43.53334" lon="5.54207">
        <ele>367</ele>
        <time>2018-02-20T12:25:03.000Z</time>
      </trkpt>
      <trkpt lat="43.53333" lon="5.54207">
        <ele>367</ele>
        <time>2018-02-20T12:25:04.000Z</time>
      </trkpt>
      <trkpt lat="43.53332" lon="5.54208">
        <ele>367</ele>
        <time>2018-02-20T12:25:05.000Z</time>
      </trkpt>
      <trkpt lat="43.53331" lon="5.54208">
        <ele>367</ele>
        <time>2018-02-20T12:25:06.000Z</time>
      </trkpt>
      <trkpt lat="43.5333" lon="5.54209">
        <ele>367</ele>
        <time>2018-02-20T12:25:07.000Z</time>
      </trkpt>
      <trkpt lat="43.53329" lon="5.54209">
        <ele>366</ele>
        <time>2018-02-20T12:25:08.000Z</time>
      </trkpt>
      <trkpt lat="43.53328" lon="5.54209">
        <ele>366</ele>
        <time>2018-02-20T12:25:09.000Z</time>
      </trkpt>
      <trkpt lat="43.53327" lon="5.5421">
        <ele>366</ele>
        <time>2018-02-20T12:25:10.000Z</time>
      </trkpt>
      <trkpt lat="43.53326" lon="5.5421">
        <ele>366</ele>
        <time>2018-02-20T12:25:11.000Z</time>
      </trkpt>
      <trkpt lat="43.53325" lon="5.5421">
        <ele>365</ele>
        <time>2018-02-20T12:25:12.000Z</time>
      </trkpt>
      <trkpt lat="43.53324" lon="5.54211">
        <ele>365</ele>
        <time>2018-02-20T12:25:13.000Z</time>
      </trkpt>
      <trkpt lat="43.53323" lon="5.54211">
        <ele>365</ele>
        <time>2018-02-20T12:25:14.000Z</time>
      </trkpt>
      <trkpt lat="43.53322" lon="5.54211">
        <ele>365</ele>
        <time>2018-02-20T12:25:15.000Z</time>
      </trkpt>
      <trkpt lat="43.5332" lon="5.54211">
        <ele>365</ele>
        <time>2018-02-20T12:25:16.000Z</time>
      </trkpt>
      <trkpt lat="43.53319" lon="5.54211">
        <ele>365</ele>
        <time>2018-02-20T12:25:17.000Z</time>
      </trkpt>
      <trkpt lat="43.53318" lon="5.54211">
        <ele>365</ele>
        <time>2018-02-20T12:25:18.000Z</time>
      </trkpt>
      <trkpt lat="43.53317" lon="5.54211">
        <ele>364</ele>
        <time>2018-02-20T12:25:19.000Z</time>
      </trkpt>
      <trkpt lat="43.53317" lon="5.54211">
        <ele>364</ele>
        <time>2018-02-20T12:25:20.000Z</time>
      </trkpt>
      <trkpt lat="43.53316" lon="5.54211">
        <ele>364</ele>
        <time>2018-02-20T12:25:21.000Z</time>
      </trkpt>
      <trkpt lat="43.53315" lon="5.54211">
        <ele>364</ele>
        <time>2018-02-20T12:25:22.000Z</time>
      </trkpt>
      <trkpt lat="43.53314" lon="5.54212">
        <ele>364</ele>
        <time>2018-02-20T12:25:23.000Z</time>
      </trkpt>
      <trkpt lat="43.53314" lon="5.54212">
        <ele>364</ele>
        <time>2018-02-20T12:25:24.000Z</time>
      </trkpt>
      <trkpt lat="43.53314" lon="5.54211">
        <ele>364</ele>
        <time>2018-02-20T12:25:25.000Z</time>
      </trkpt>
      <trkpt lat="43.53314" lon="5.54212">
        <ele>364</ele>
        <time>2018-02-20T12:25:26.000Z</time>
      </trkpt>
      <trkpt lat="43.53314" lon="5.54212">
        <ele>364</ele>
        <time>2018-02-20T12:25:27.000Z</time>
      </trkpt>
      <trkpt lat="43.53314" lon="5.54212">
        <ele>364</ele>
        <time>2018-02-20T12:25:28.000Z</time>
      </trkpt>
      <trkpt lat="43.53314" lon="5.54212">
        <ele>364</ele>
        <time>2018-02-20T12:25:29.000Z</time>
      </trkpt>
      <trkpt lat="43.53314" lon="5.54212">
        <ele>363</ele>
        <time>2018-02-20T12:25:30.000Z</time>
      </trkpt>
      <trkpt lat="43.53314" lon="5.54212">
        <ele>363</ele>
        <time>2018-02-20T12:25:31.000Z</time>
      </trkpt>
      <trkpt lat="43.53314" lon="5.54212">
        <ele>363</ele>
        <time>2018-02-20T12:25:32.000Z</time>
      </trkpt>
      <trkpt lat="43.53313" lon="5.54212">
        <ele>363</ele>
        <time>2018-02-20T12:25:33.000Z</time>
      </trkpt>
      <trkpt lat="43.53313" lon="5.54213">
        <ele>363</ele>
        <time>2018-02-20T12:25:34.000Z</time>
      </trkpt>
      <trkpt lat="43.53312" lon="5.54213">
        <ele>363</ele>
        <time>2018-02-20T12:25:35.000Z</time>
      </trkpt>
      <trkpt lat="43.53312" lon="5.54213">
        <ele>363</ele>
        <time>2018-02-20T12:25:36.000Z</time>
      </trkpt>
      <trkpt lat="43.53311" lon="5.54213">
        <ele>363</ele>
        <time>2018-02-20T12:25:37.000Z</time>
      </trkpt>
      <trkpt lat="43.53311" lon="5.54213">
        <ele>362</ele>
        <time>2018-02-20T12:25:38.000Z</time>
      </trkpt>
      <trkpt lat="43.53311" lon="5.54213">
        <ele>363</ele>
        <time>2018-02-20T12:25:39.000Z</time>
      </trkpt>
      <trkpt lat="43.53311" lon="5.54213">
        <ele>363</ele>
        <time>2018-02-20T12:25:40.000Z</time>
      </trkpt>
      <trkpt lat="43.53311" lon="5.54213">
        <ele>362</ele>
        <time>2018-02-20T12:25:41.000Z</time>
      </trkpt>
      <trkpt lat="43.53311" lon="5.54213">
        <ele>362</ele>
        <time>2018-02-20T12:25:42.000Z</time>
      </trkpt>
      <trkpt lat="43.5331" lon="5.54212">
        <ele>362</ele>
        <time>2018-02-20T12:25:43.000Z</time>
      </trkpt>
      <trkpt lat="43.5331" lon="5.54212">
        <ele>362</ele>
        <time>2018-02-20T12:25:44.000Z</time>
      </trkpt>
      <trkpt lat="43.5331" lon="5.54212">
        <ele>362</ele>
        <time>2018-02-20T12:25:45.000Z</time>
      </trkpt>
      <trkpt lat="43.53309" lon="5.54212">
        <ele>362</ele>
        <time>2018-02-20T12:25:46.000Z</time>
      </trkpt>
      <trkpt lat="43.53309" lon="5.54212">
        <ele>362</ele>
        <time>2018-02-20T12:25:47.000Z</time>
      </trkpt>
      <trkpt lat="43.53309" lon="5.54212">
        <ele>362</ele>
        <time>2018-02-20T12:25:48.000Z</time>
      </trkpt>
      <trkpt lat="43.53309" lon="5.54212">
        <ele>362</ele>
        <time>2018-02-20T12:25:49.000Z</time>
      </trkpt>
      <trkpt lat="43.53309" lon="5.54212">
        <ele>362</ele>
        <time>2018-02-20T12:25:50.000Z</time>
      </trkpt>
      <trkpt lat="43.53309" lon="5.54213">
        <ele>362</ele>
        <time>2018-02-20T12:25:51.000Z</time>
      </trkpt>
      <trkpt lat="43.53309" lon="5.54213">
        <ele>362</ele>
        <time>2018-02-20T12:25:52.000Z</time>
      </trkpt>
      <trkpt lat="43.53309" lon="5.54213">
        <ele>362</ele>
        <time>2018-02-20T12:25:53.000Z</time>
      </trkpt>
      <trkpt lat="43.53309" lon="5.54213">
        <ele>362</ele>
        <time>2018-02-20T12:25:54.000Z</time>
      </trkpt>
      <trkpt lat="43.53309" lon="5.54213">
        <ele>362</ele>
        <time>2018-02-20T12:25:55.000Z</time>
      </trkpt>
      <trkpt lat="43.53309" lon="5.54213">
        <ele>362</ele>
        <time>2018-02-20T12:25:56.000Z</time>
      </trkpt>
      <trkpt lat="43.53309" lon="5.54213">
        <ele>362</ele>
        <time>2018-02-20T12:25:57.000Z</time>
      </trkpt>
      <trkpt lat="43.53308" lon="5.54213">
        <ele>362</ele>
        <time>2018-02-20T12:25:58.000Z</time>
      </trkpt>
      <trkpt lat="43.53307" lon="5.54214">
        <ele>362</ele>
        <time>2018-02-20T12:25:59.000Z</time>
      </trkpt>
      <trkpt lat="43.53306" lon="5.54215">
        <ele>362</ele>
        <time>2018-02-20T12:26:00.000Z</time>
      </trkpt>
      <trkpt lat="43.53305" lon="5.54215">
        <ele>362</ele>
        <time>2018-02-20T12:26:01.000Z</time>
      </trkpt>
      <trkpt lat="43.53305" lon="5.54216">
        <ele>362</ele>
        <time>2018-02-20T12:26:02.000Z</time>
      </trkpt>
      <trkpt lat="43.53304" lon="5.54217">
        <ele>362</ele>
        <time>2018-02-20T12:26:03.000Z</time>
      </trkpt>
      <trkpt lat="43.53304" lon="5.54218">
        <ele>362</ele>
        <time>2018-02-20T12:26:04.000Z</time>
      </trkpt>
      <trkpt lat="43.53303" lon="5.54218">
        <ele>362</ele>
        <time>2018-02-20T12:26:05.000Z</time>
      </trkpt>
      <trkpt lat="43.53303" lon="5.54219">
        <ele>362</ele>
        <time>2018-02-20T12:26:06.000Z</time>
      </trkpt>
      <trkpt lat="43.53303" lon="5.54219">
        <ele>362</ele>
        <time>2018-02-20T12:26:07.000Z</time>
      </trkpt>
      <trkpt lat="43.53303" lon="5.5422">
        <ele>362</ele>
        <time>2018-02-20T12:26:08.000Z</time>
      </trkpt>
      <trkpt lat="43.53303" lon="5.5422">
        <ele>362</ele>
        <time>2018-02-20T12:26:09.000Z</time>
      </trkpt>
      <trkpt lat="43.53303" lon="5.5422">
        <ele>362</ele>
        <time>2018-02-20T12:26:10.000Z</time>
      </trkpt>
      <trkpt lat="43.53303" lon="5.5422">
        <ele>362</ele>
        <time>2018-02-20T12:26:11.000Z</time>
      </trkpt>
      <trkpt lat="43.53304" lon="5.5422">
        <ele>362</ele>
        <time>2018-02-20T12:26:12.000Z</time>
      </trkpt>
      <trkpt lat="43.53304" lon="5.5422">
        <ele>362</ele>
        <time>2018-02-20T12:26:13.000Z</time>
      </trkpt>
      <trkpt lat="43.53304" lon="5.5422">
        <ele>362</ele>
        <time>2018-02-20T12:26:14.000Z</time>
      </trkpt>
      <trkpt lat="43.53304" lon="5.5422">
        <ele>362</ele>
        <time>2018-02-20T12:26:15.000Z</time>
      </trkpt>
      <trkpt lat="43.53304" lon="5.5422">
        <ele>362</ele>
        <time>2018-02-20T12:26:16.000Z</time>
      </trkpt>
      <trkpt lat="43.53304" lon="5.5422">
        <ele>362</ele>
        <time>2018-02-20T12:26:17.000Z</time>
      </trkpt>
      <trkpt lat="43.53304" lon="5.5422">
        <ele>362</ele>
        <time>2018-02-20T12:26:18.000Z</time>
      </trkpt>
      <trkpt lat="43.53304" lon="5.5422">
        <ele>362</ele>
        <time>2018-02-20T12:26:19.000Z</time>
      </trkpt>
      <trkpt lat="43.53304" lon="5.5422">
        <ele>361</ele>
        <time>2018-02-20T12:26:20.000Z</time>
      </trkpt>
      <trkpt lat="43.53304" lon="5.5422">
        <ele>361</ele>
        <time>2018-02-20T12:26:21.000Z</time>
      </trkpt>
      <trkpt lat="43.53304" lon="5.5422">
        <ele>361</ele>
        <time>2018-02-20T12:26:22.000Z</time>
      </trkpt>
      <trkpt lat="43.53304" lon="5.5422">
        <ele>361</ele>
        <time>2018-02-20T12:26:23.000Z</time>
      </trkpt>
      <trkpt lat="43.53304" lon="5.54219">
        <ele>361</ele>
        <time>2018-02-20T12:26:24.000Z</time>
      </trkpt>
      <trkpt lat="43.53304" lon="5.5422">
        <ele>361</ele>
        <time>2018-02-20T12:26:25.000Z</time>
      </trkpt>
      <trkpt lat="43.53304" lon="5.5422">
        <ele>361</ele>
        <time>2018-02-20T12:26:26.000Z</time>
      </trkpt>
      <trkpt lat="43.53304" lon="5.54219">
        <ele>361</ele>
        <time>2018-02-20T12:26:27.000Z</time>
      </trkpt>
      <trkpt lat="43.53304" lon="5.54219">
        <ele>361</ele>
        <time>2018-02-20T12:26:28.000Z</time>
      </trkpt>
      <trkpt lat="43.53304" lon="5.54219">
        <ele>361</ele>
        <time>2018-02-20T12:26:29.000Z</time>
      </trkpt>
      <trkpt lat="43.53304" lon="5.54219">
        <ele>361</ele>
        <time>2018-02-20T12:26:30.000Z</time>
      </trkpt>
      <trkpt lat="43.53304" lon="5.5422">
        <ele>361</ele>
        <time>2018-02-20T12:26:31.000Z</time>
      </trkpt>
      <trkpt lat="43.53304" lon="5.54219">
        <ele>361</ele>
        <time>2018-02-20T12:26:32.000Z</time>
      </trkpt>
      <trkpt lat="43.53304" lon="5.54219">
        <ele>361</ele>
        <time>2018-02-20T12:26:33.000Z</time>
      </trkpt>
      <trkpt lat="43.53304" lon="5.5422">
        <ele>361</ele>
        <time>2018-02-20T12:26:34.000Z</time>
      </trkpt>
      <trkpt lat="43.53304" lon="5.5422">
        <ele>361</ele>
        <time>2018-02-20T12:26:35.000Z</time>
      </trkpt>
      <trkpt lat="43.53304" lon="5.5422">
        <ele>361</ele>
        <time>2018-02-20T12:26:36.000Z</time>
      </trkpt>
      <trkpt lat="43.53304" lon="5.5422">
        <ele>361</ele>
        <time>2018-02-20T12:26:37.000Z</time>
      </trkpt>
      <trkpt lat="43.53304" lon="5.5422">
        <ele>361</ele>
        <time>2018-02-20T12:26:38.000Z</time>
      </trkpt>
      <trkpt lat="43.53304" lon="5.5422">
        <ele>361</ele>
        <time>2018-02-20T12:26:39.000Z</time>
      </trkpt>
      <trkpt lat="43.53304" lon="5.5422">
        <ele>361</ele>
        <time>2018-02-20T12:26:40.000Z</time>
      </trkpt>
      <trkpt lat="43.53304" lon="5.5422">
        <ele>361</ele>
        <time>2018-02-20T12:26:41.000Z</time>
      </trkpt>
      <trkpt lat="43.53304" lon="5.54221">
        <ele>361</ele>
        <time>2018-02-20T12:26:42.000Z</time>
      </trkpt>
      <trkpt lat="43.53305" lon="5.54221">
        <ele>361</ele>
        <time>2018-02-20T12:26:43.000Z</time>
      </trkpt>
      <trkpt lat="43.53305" lon="5.54221">
        <ele>361</ele>
        <time>2018-02-20T12:26:44.000Z</time>
      </trkpt>
      <trkpt lat="43.53305" lon="5.54222">
        <ele>361</ele>
        <time>2018-02-20T12:26:45.000Z</time>
      </trkpt>
      <trkpt lat="43.53305" lon="5.54222">
        <ele>361</ele>
        <time>2018-02-20T12:26:46.000Z</time>
      </trkpt>
      <trkpt lat="43.53305" lon="5.54222">
        <ele>361</ele>
        <time>2018-02-20T12:26:47.000Z</time>
      </trkpt>
      <trkpt lat="43.53306" lon="5.54222">
        <ele>361</ele>
        <time>2018-02-20T12:26:48.000Z</time>
      </trkpt>
      <trkpt lat="43.53306" lon="5.54223">
        <ele>361</ele>
        <time>2018-02-20T12:26:49.000Z</time>
      </trkpt>
      <trkpt lat="43.53306" lon="5.54224">
        <ele>361</ele>
        <time>2018-02-20T12:26:50.000Z</time>
      </trkpt>
      <trkpt lat="43.53307" lon="5.54225">
        <ele>361</ele>
        <time>2018-02-20T12:26:51.000Z</time>
      </trkpt>
      <trkpt lat="43.53307" lon="5.54226">
        <ele>361</ele>
        <time>2018-02-20T12:26:52.000Z</time>
      </trkpt>
      <trkpt lat="43.53307" lon="5.54227">
        <ele>361</ele>
        <time>2018-02-20T12:26:53.000Z</time>
      </trkpt>
      <trkpt lat="43.53307" lon="5.54227">
        <ele>361</ele>
        <time>2018-02-20T12:26:54.000Z</time>
      </trkpt>
      <trkpt lat="43.53307" lon="5.54227">
        <ele>361</ele>
        <time>2018-02-20T12:26:55.000Z</time>
      </trkpt>
      <trkpt lat="43.53307" lon="5.54227">
        <ele>360</ele>
        <time>2018-02-20T12:26:56.000Z</time>
      </trkpt>
      <trkpt lat="43.53307" lon="5.54227">
        <ele>360</ele>
        <time>2018-02-20T12:26:57.000Z</time>
      </trkpt>
      <trkpt lat="43.53307" lon="5.54227">
        <ele>360</ele>
        <time>2018-02-20T12:26:58.000Z</time>
      </trkpt>
      <trkpt lat="43.53307" lon="5.54227">
        <ele>360</ele>
        <time>2018-02-20T12:26:59.000Z</time>
      </trkpt>
      <trkpt lat="43.53307" lon="5.54227">
        <ele>360</ele>
        <time>2018-02-20T12:27:00.000Z</time>
      </trkpt>
      <trkpt lat="43.53307" lon="5.54227">
        <ele>360</ele>
        <time>2018-02-20T12:27:01.000Z</time>
      </trkpt>
      <trkpt lat="43.53307" lon="5.54227">
        <ele>360</ele>
        <time>2018-02-20T12:27:02.000Z</time>
      </trkpt>
      <trkpt lat="43.53307" lon="5.54226">
        <ele>360</ele>
        <time>2018-02-20T12:27:03.000Z</time>
      </trkpt>
      <trkpt lat="43.53307" lon="5.54226">
        <ele>360</ele>
        <time>2018-02-20T12:27:04.000Z</time>
      </trkpt>
      <trkpt lat="43.53307" lon="5.54226">
        <ele>360</ele>
        <time>2018-02-20T12:27:05.000Z</time>
      </trkpt>
      <trkpt lat="43.53306" lon="5.54226">
        <ele>360</ele>
        <time>2018-02-20T12:27:06.000Z</time>
      </trkpt>
      <trkpt lat="43.53306" lon="5.54226">
        <ele>360</ele>
        <time>2018-02-20T12:27:07.000Z</time>
      </trkpt>
      <trkpt lat="43.53305" lon="5.54224">
        <ele>360</ele>
        <time>2018-02-20T12:27:08.000Z</time>
      </trkpt>
      <trkpt lat="43.53305" lon="5.54223">
        <ele>360</ele>
        <time>2018-02-20T12:27:09.000Z</time>
      </trkpt>
      <trkpt lat="43.53304" lon="5.54222">
        <ele>360</ele>
        <time>2018-02-20T12:27:10.000Z</time>
      </trkpt>
      <trkpt lat="43.53303" lon="5.54222">
        <ele>360</ele>
        <time>2018-02-20T12:27:11.000Z</time>
      </trkpt>
      <trkpt lat="43.53302" lon="5.54221">
        <ele>360</ele>
        <time>2018-02-20T12:27:12.000Z</time>
      </trkpt>
      <trkpt lat="43.53301" lon="5.54221">
        <ele>360</ele>
        <time>2018-02-20T12:27:13.000Z</time>
      </trkpt>
      <trkpt lat="43.533" lon="5.54221">
        <ele>360</ele>
        <time>2018-02-20T12:27:14.000Z</time>
      </trkpt>
      <trkpt lat="43.533" lon="5.54222">
        <ele>360</ele>
        <time>2018-02-20T12:27:15.000Z</time>
      </trkpt>
      <trkpt lat="43.53299" lon="5.54222">
        <ele>360</ele>
        <time>2018-02-20T12:27:16.000Z</time>
      </trkpt>
      <trkpt lat="43.53298" lon="5.54223">
        <ele>360</ele>
        <time>2018-02-20T12:27:17.000Z</time>
      </trkpt>
      <trkpt lat="43.53298" lon="5.54224">
        <ele>360</ele>
        <time>2018-02-20T12:27:18.000Z</time>
      </trkpt>
      <trkpt lat="43.53297" lon="5.54225">
        <ele>360</ele>
        <time>2018-02-20T12:27:19.000Z</time>
      </trkpt>
      <trkpt lat="43.53296" lon="5.54226">
        <ele>360</ele>
        <time>2018-02-20T12:27:20.000Z</time>
      </trkpt>
      <trkpt lat="43.53295" lon="5.54227">
        <ele>360</ele>
        <time>2018-02-20T12:27:21.000Z</time>
      </trkpt>
      <trkpt lat="43.53294" lon="5.54228">
        <ele>360</ele>
        <time>2018-02-20T12:27:22.000Z</time>
      </trkpt>
      <trkpt lat="43.53293" lon="5.54229">
        <ele>360</ele>
        <time>2018-02-20T12:27:23.000Z</time>
      </trkpt>
      <trkpt lat="43.53292" lon="5.54229">
        <ele>360</ele>
        <time>2018-02-20T12:27:24.000Z</time>
      </trkpt>
      <trkpt lat="43.53291" lon="5.5423">
        <ele>360</ele>
        <time>2018-02-20T12:27:25.000Z</time>
      </trkpt>
      <trkpt lat="43.5329" lon="5.54231">
        <ele>360</ele>
        <time>2018-02-20T12:27:26.000Z</time>
      </trkpt>
      <trkpt lat="43.53289" lon="5.54232">
        <ele>360</ele>
        <time>2018-02-20T12:27:27.000Z</time>
      </trkpt>
      <trkpt lat="43.53288" lon="5.54232">
        <ele>360</ele>
        <time>2018-02-20T12:27:28.000Z</time>
      </trkpt>
      <trkpt lat="43.53287" lon="5.54233">
        <ele>360</ele>
        <time>2018-02-20T12:27:29.000Z</time>
      </trkpt>
      <trkpt lat="43.53286" lon="5.54234">
        <ele>360</ele>
        <time>2018-02-20T12:27:30.000Z</time>
      </trkpt>
      <trkpt lat="43.53286" lon="5.54235">
        <ele>360</ele>
        <time>2018-02-20T12:27:31.000Z</time>
      </trkpt>
      <trkpt lat="43.53285" lon="5.54236">
        <ele>360</ele>
        <time>2018-02-20T12:27:32.000Z</time>
      </trkpt>
      <trkpt lat="43.53284" lon="5.54236">
        <ele>360</ele>
        <time>2018-02-20T12:27:33.000Z</time>
      </trkpt>
      <trkpt lat="43.53283" lon="5.54236">
        <ele>360</ele>
        <time>2018-02-20T12:27:34.000Z</time>
      </trkpt>
      <trkpt lat="43.53282" lon="5.54236">
        <ele>360</ele>
        <time>2018-02-20T12:27:35.000Z</time>
      </trkpt>
      <trkpt lat="43.53281" lon="5.54237">
        <ele>360</ele>
        <time>2018-02-20T12:27:36.000Z</time>
      </trkpt>
      <trkpt lat="43.5328" lon="5.54237">
        <ele>360</ele>
        <time>2018-02-20T12:27:37.000Z</time>
      </trkpt>
      <trkpt lat="43.53279" lon="5.54238">
        <ele>360</ele>
        <time>2018-02-20T12:27:38.000Z</time>
      </trkpt>
      <trkpt lat="43.53278" lon="5.54238">
        <ele>360</ele>
        <time>2018-02-20T12:27:39.000Z</time>
      </trkpt>
      <trkpt lat="43.53277" lon="5.54239">
        <ele>360</ele>
        <time>2018-02-20T12:27:40.000Z</time>
      </trkpt>
      <trkpt lat="43.53276" lon="5.5424">
        <ele>360</ele>
        <time>2018-02-20T12:27:41.000Z</time>
      </trkpt>
      <trkpt lat="43.53275" lon="5.5424">
        <ele>360</ele>
        <time>2018-02-20T12:27:42.000Z</time>
      </trkpt>
      <trkpt lat="43.53274" lon="5.5424">
        <ele>360</ele>
        <time>2018-02-20T12:27:43.000Z</time>
      </trkpt>
      <trkpt lat="43.53272" lon="5.54241">
        <ele>360</ele>
        <time>2018-02-20T12:27:44.000Z</time>
      </trkpt>
      <trkpt lat="43.53271" lon="5.54242">
        <ele>359</ele>
        <time>2018-02-20T12:27:45.000Z</time>
      </trkpt>
      <trkpt lat="43.5327" lon="5.54242">
        <ele>359</ele>
        <time>2018-02-20T12:27:46.000Z</time>
      </trkpt>
      <trkpt lat="43.53269" lon="5.54243">
        <ele>359</ele>
        <time>2018-02-20T12:27:47.000Z</time>
      </trkpt>
      <trkpt lat="43.53268" lon="5.54243">
        <ele>359</ele>
        <time>2018-02-20T12:27:48.000Z</time>
      </trkpt>
      <trkpt lat="43.53266" lon="5.54244">
        <ele>359</ele>
        <time>2018-02-20T12:27:49.000Z</time>
      </trkpt>
      <trkpt lat="43.53265" lon="5.54245">
        <ele>359</ele>
        <time>2018-02-20T12:27:50.000Z</time>
      </trkpt>
      <trkpt lat="43.53264" lon="5.54245">
        <ele>359</ele>
        <time>2018-02-20T12:27:51.000Z</time>
      </trkpt>
      <trkpt lat="43.53263" lon="5.54245">
        <ele>359</ele>
        <time>2018-02-20T12:27:52.000Z</time>
      </trkpt>
      <trkpt lat="43.53262" lon="5.54246">
        <ele>359</ele>
        <time>2018-02-20T12:27:53.000Z</time>
      </trkpt>
      <trkpt lat="43.53261" lon="5.54246">
        <ele>359</ele>
        <time>2018-02-20T12:27:54.000Z</time>
      </trkpt>
      <trkpt lat="43.5326" lon="5.54246">
        <ele>359</ele>
        <time>2018-02-20T12:27:55.000Z</time>
      </trkpt>
      <trkpt lat="43.53259" lon="5.54246">
        <ele>359</ele>
        <time>2018-02-20T12:27:56.000Z</time>
      </trkpt>
      <trkpt lat="43.53258" lon="5.54246">
        <ele>359</ele>
        <time>2018-02-20T12:27:57.000Z</time>
      </trkpt>
      <trkpt lat="43.53257" lon="5.54246">
        <ele>359</ele>
        <time>2018-02-20T12:27:58.000Z</time>
      </trkpt>
      <trkpt lat="43.53256" lon="5.54247">
        <ele>359</ele>
        <time>2018-02-20T12:27:59.000Z</time>
      </trkpt>
      <trkpt lat="43.53256" lon="5.54247">
        <ele>359</ele>
        <time>2018-02-20T12:28:00.000Z</time>
      </trkpt>
      <trkpt lat="43.53255" lon="5.54247">
        <ele>359</ele>
        <time>2018-02-20T12:28:01.000Z</time>
      </trkpt>
      <trkpt lat="43.53255" lon="5.54247">
        <ele>359</ele>
        <time>2018-02-20T12:28:02.000Z</time>
      </trkpt>
      <trkpt lat="43.53255" lon="5.54247">
        <ele>359</ele>
        <time>2018-02-20T12:28:03.000Z</time>
      </trkpt>
      <trkpt lat="43.53255" lon="5.54248">
        <ele>359</ele>
        <time>2018-02-20T12:28:04.000Z</time>
      </trkpt>
      <trkpt lat="43.53255" lon="5.54248">
        <ele>359</ele>
        <time>2018-02-20T12:28:05.000Z</time>
      </trkpt>
      <trkpt lat="43.53255" lon="5.54248">
        <ele>359</ele>
        <time>2018-02-20T12:28:06.000Z</time>
      </trkpt>
      <trkpt lat="43.53255" lon="5.54248">
        <ele>359</ele>
        <time>2018-02-20T12:28:07.000Z</time>
      </trkpt>
      <trkpt lat="43.53255" lon="5.54248">
        <ele>359</ele>
        <time>2018-02-20T12:28:08.000Z</time>
      </trkpt>
      <trkpt lat="43.53255" lon="5.54248">
        <ele>359</ele>
        <time>2018-02-20T12:28:09.000Z</time>
      </trkpt>
      <trkpt lat="43.53255" lon="5.54248">
        <ele>359</ele>
        <time>2018-02-20T12:28:10.000Z</time>
      </trkpt>
      <trkpt lat="43.53255" lon="5.54248">
        <ele>359</ele>
        <time>2018-02-20T12:28:11.000Z</time>
      </trkpt>
      <trkpt lat="43.53255" lon="5.54248">
        <ele>359</ele>
        <time>2018-02-20T12:28:12.000Z</time>
      </trkpt>
      <trkpt lat="43.53255" lon="5.54248">
        <ele>359</ele>
        <time>2018-02-20T12:28:13.000Z</time>
      </trkpt>
      <trkpt lat="43.53254" lon="5.54248">
        <ele>359</ele>
        <time>2018-02-20T12:28:14.000Z</time>
      </trkpt>
      <trkpt lat="43.53254" lon="5.54248">
        <ele>359</ele>
        <time>2018-02-20T12:28:15.000Z</time>
      </trkpt>
      <trkpt lat="43.53254" lon="5.54248">
        <ele>359</ele>
        <time>2018-02-20T12:28:16.000Z</time>
      </trkpt>
      <trkpt lat="43.53254" lon="5.54248">
        <ele>359</ele>
        <time>2018-02-20T12:28:17.000Z</time>
      </trkpt>
      <trkpt lat="43.53254" lon="5.54248">
        <ele>359</ele>
        <time>2018-02-20T12:28:18.000Z</time>
      </trkpt>
      <trkpt lat="43.53254" lon="5.54248">
        <ele>359</ele>
        <time>2018-02-20T12:28:19.000Z</time>
      </trkpt>
      <trkpt lat="43.53254" lon="5.54248">
        <ele>359</ele>
        <time>2018-02-20T12:28:20.000Z</time>
      </trkpt>
      <trkpt lat="43.53254" lon="5.54248">
        <ele>359</ele>
        <time>2018-02-20T12:28:21.000Z</time>
      </trkpt>
      <trkpt lat="43.53254" lon="5.54248">
        <ele>359</ele>
        <time>2018-02-20T12:28:22.000Z</time>
      </trkpt>
      <trkpt lat="43.53254" lon="5.54248">
        <ele>359</ele>
        <time>2018-02-20T12:28:23.000Z</time>
      </trkpt>
      <trkpt lat="43.53254" lon="5.54248">
        <ele>359</ele>
        <time>2018-02-20T12:28:24.000Z</time>
      </trkpt>
      <trkpt lat="43.53253" lon="5.54249">
        <ele>358</ele>
        <time>2018-02-20T12:28:25.000Z</time>
      </trkpt>
      <trkpt lat="43.53252" lon="5.54249">
        <ele>358</ele>
        <time>2018-02-20T12:28:26.000Z</time>
      </trkpt>
      <trkpt lat="43.53251" lon="5.54249">
        <ele>358</ele>
        <time>2018-02-20T12:28:27.000Z</time>
      </trkpt>
      <trkpt lat="43.5325" lon="5.5425">
        <ele>358</ele>
        <time>2018-02-20T12:28:28.000Z</time>
      </trkpt>
      <trkpt lat="43.5325" lon="5.5425">
        <ele>358</ele>
        <time>2018-02-20T12:28:29.000Z</time>
      </trkpt>
      <trkpt lat="43.53249" lon="5.5425">
        <ele>358</ele>
        <time>2018-02-20T12:28:30.000Z</time>
      </trkpt>
      <trkpt lat="43.53248" lon="5.54251">
        <ele>358</ele>
        <time>2018-02-20T12:28:31.000Z</time>
      </trkpt>
      <trkpt lat="43.53247" lon="5.54252">
        <ele>358</ele>
        <time>2018-02-20T12:28:32.000Z</time>
      </trkpt>
      <trkpt lat="43.53246" lon="5.54252">
        <ele>358</ele>
        <time>2018-02-20T12:28:33.000Z</time>
      </trkpt>
      <trkpt lat="43.53245" lon="5.54253">
        <ele>358</ele>
        <time>2018-02-20T12:28:34.000Z</time>
      </trkpt>
      <trkpt lat="43.53244" lon="5.54253">
        <ele>358</ele>
        <time>2018-02-20T12:28:35.000Z</time>
      </trkpt>
      <trkpt lat="43.53242" lon="5.54254">
        <ele>358</ele>
        <time>2018-02-20T12:28:36.000Z</time>
      </trkpt>
      <trkpt lat="43.53241" lon="5.54254">
        <ele>358</ele>
        <time>2018-02-20T12:28:37.000Z</time>
      </trkpt>
      <trkpt lat="43.5324" lon="5.54254">
        <ele>358</ele>
        <time>2018-02-20T12:28:38.000Z</time>
      </trkpt>
      <trkpt lat="43.53239" lon="5.54254">
        <ele>358</ele>
        <time>2018-02-20T12:28:39.000Z</time>
      </trkpt>
      <trkpt lat="43.53238" lon="5.54254">
        <ele>358</ele>
        <time>2018-02-20T12:28:40.000Z</time>
      </trkpt>
      <trkpt lat="43.53237" lon="5.54255">
        <ele>358</ele>
        <time>2018-02-20T12:28:41.000Z</time>
      </trkpt>
      <trkpt lat="43.53235" lon="5.54255">
        <ele>358</ele>
        <time>2018-02-20T12:28:42.000Z</time>
      </trkpt>
      <trkpt lat="43.53234" lon="5.54256">
        <ele>358</ele>
        <time>2018-02-20T12:28:43.000Z</time>
      </trkpt>
      <trkpt lat="43.53233" lon="5.54258">
        <ele>358</ele>
        <time>2018-02-20T12:28:44.000Z</time>
      </trkpt>
      <trkpt lat="43.53233" lon="5.54259">
        <ele>358</ele>
        <time>2018-02-20T12:28:45.000Z</time>
      </trkpt>
      <trkpt lat="43.53232" lon="5.5426">
        <ele>358</ele>
        <time>2018-02-20T12:28:46.000Z</time>
      </trkpt>
      <trkpt lat="43.53231" lon="5.54261">
        <ele>358</ele>
        <time>2018-02-20T12:28:47.000Z</time>
      </trkpt>
      <trkpt lat="43.5323" lon="5.54262">
        <ele>358</ele>
        <time>2018-02-20T12:28:48.000Z</time>
      </trkpt>
      <trkpt lat="43.53229" lon="5.54264">
        <ele>358</ele>
        <time>2018-02-20T12:28:49.000Z</time>
      </trkpt>
      <trkpt lat="43.53229" lon="5.54265">
        <ele>358</ele>
        <time>2018-02-20T12:28:50.000Z</time>
      </trkpt>
      <trkpt lat="43.53228" lon="5.54266">
        <ele>358</ele>
        <time>2018-02-20T12:28:51.000Z</time>
      </trkpt>
      <trkpt lat="43.53227" lon="5.54268">
        <ele>358</ele>
        <time>2018-02-20T12:28:52.000Z</time>
      </trkpt>
      <trkpt lat="43.53226" lon="5.54269">
        <ele>358</ele>
        <time>2018-02-20T12:28:53.000Z</time>
      </trkpt>
      <trkpt lat="43.53225" lon="5.5427">
        <ele>358</ele>
        <time>2018-02-20T12:28:54.000Z</time>
      </trkpt>
      <trkpt lat="43.53225" lon="5.54271">
        <ele>358</ele>
        <time>2018-02-20T12:28:55.000Z</time>
      </trkpt>
      <trkpt lat="43.53224" lon="5.54272">
        <ele>358</ele>
        <time>2018-02-20T12:28:56.000Z</time>
      </trkpt>
      <trkpt lat="43.53222" lon="5.54274">
        <ele>358</ele>
        <time>2018-02-20T12:28:57.000Z</time>
      </trkpt>
      <trkpt lat="43.53221" lon="5.54275">
        <ele>358</ele>
        <time>2018-02-20T12:28:58.000Z</time>
      </trkpt>
      <trkpt lat="43.5322" lon="5.54276">
        <ele>358</ele>
        <time>2018-02-20T12:28:59.000Z</time>
      </trkpt>
      <trkpt lat="43.53219" lon="5.54277">
        <ele>358</ele>
        <time>2018-02-20T12:29:00.000Z</time>
      </trkpt>
      <trkpt lat="43.53218" lon="5.54278">
        <ele>358</ele>
        <time>2018-02-20T12:29:01.000Z</time>
      </trkpt>
      <trkpt lat="43.53217" lon="5.54279">
        <ele>358</ele>
        <time>2018-02-20T12:29:02.000Z</time>
      </trkpt>
      <trkpt lat="43.53217" lon="5.54281">
        <ele>358</ele>
        <time>2018-02-20T12:29:03.000Z</time>
      </trkpt>
      <trkpt lat="43.53216" lon="5.54283">
        <ele>358</ele>
        <time>2018-02-20T12:29:04.000Z</time>
      </trkpt>
      <trkpt lat="43.53215" lon="5.54284">
        <ele>358</ele>
        <time>2018-02-20T12:29:05.000Z</time>
      </trkpt>
      <trkpt lat="43.53214" lon="5.54286">
        <ele>358</ele>
        <time>2018-02-20T12:29:06.000Z</time>
      </trkpt>
      <trkpt lat="43.53213" lon="5.54287">
        <ele>358</ele>
        <time>2018-02-20T12:29:07.000Z</time>
      </trkpt>
      <trkpt lat="43.53213" lon="5.54289">
        <ele>358</ele>
        <time>2018-02-20T12:29:08.000Z</time>
      </trkpt>
      <trkpt lat="43.53212" lon="5.5429">
        <ele>358</ele>
        <time>2018-02-20T12:29:09.000Z</time>
      </trkpt>
      <trkpt lat="43.53211" lon="5.54292">
        <ele>358</ele>
        <time>2018-02-20T12:29:10.000Z</time>
      </trkpt>
      <trkpt lat="43.5321" lon="5.54293">
        <ele>358</ele>
        <time>2018-02-20T12:29:11.000Z</time>
      </trkpt>
      <trkpt lat="43.53208" lon="5.54295">
        <ele>358</ele>
        <time>2018-02-20T12:29:12.000Z</time>
      </trkpt>
      <trkpt lat="43.53207" lon="5.54296">
        <ele>358</ele>
        <time>2018-02-20T12:29:13.000Z</time>
      </trkpt>
      <trkpt lat="43.53206" lon="5.54298">
        <ele>358</ele>
        <time>2018-02-20T12:29:14.000Z</time>
      </trkpt>
      <trkpt lat="43.53205" lon="5.54299">
        <ele>358</ele>
        <time>2018-02-20T12:29:15.000Z</time>
      </trkpt>
      <trkpt lat="43.53204" lon="5.543">
        <ele>358</ele>
        <time>2018-02-20T12:29:16.000Z</time>
      </trkpt>
      <trkpt lat="43.53204" lon="5.54302">
        <ele>358</ele>
        <time>2018-02-20T12:29:17.000Z</time>
      </trkpt>
      <trkpt lat="43.53203" lon="5.54303">
        <ele>358</ele>
        <time>2018-02-20T12:29:18.000Z</time>
      </trkpt>
      <trkpt lat="43.53202" lon="5.54304">
        <ele>358</ele>
        <time>2018-02-20T12:29:19.000Z</time>
      </trkpt>
      <trkpt lat="43.53201" lon="5.54305">
        <ele>358</ele>
        <time>2018-02-20T12:29:20.000Z</time>
      </trkpt>
      <trkpt lat="43.532" lon="5.54307">
        <ele>358</ele>
        <time>2018-02-20T12:29:21.000Z</time>
      </trkpt>
      <trkpt lat="43.53199" lon="5.54308">
        <ele>358</ele>
        <time>2018-02-20T12:29:22.000Z</time>
      </trkpt>
      <trkpt lat="43.53198" lon="5.54309">
        <ele>358</ele>
        <time>2018-02-20T12:29:23.000Z</time>
      </trkpt>
      <trkpt lat="43.53197" lon="5.5431">
        <ele>358</ele>
        <time>2018-02-20T12:29:24.000Z</time>
      </trkpt>
      <trkpt lat="43.53196" lon="5.54312">
        <ele>358</ele>
        <time>2018-02-20T12:29:25.000Z</time>
      </trkpt>
      <trkpt lat="43.53195" lon="5.54313">
        <ele>358</ele>
        <time>2018-02-20T12:29:26.000Z</time>
      </trkpt>
      <trkpt lat="43.53194" lon="5.54315">
        <ele>358</ele>
        <time>2018-02-20T12:29:27.000Z</time>
      </trkpt>
      <trkpt lat="43.53193" lon="5.54317">
        <ele>357</ele>
        <time>2018-02-20T12:29:28.000Z</time>
      </trkpt>
      <trkpt lat="43.53192" lon="5.54318">
        <ele>357</ele>
        <time>2018-02-20T12:29:29.000Z</time>
      </trkpt>
      <trkpt lat="43.53191" lon="5.5432">
        <ele>357</ele>
        <time>2018-02-20T12:29:30.000Z</time>
      </trkpt>
      <trkpt lat="43.5319" lon="5.54321">
        <ele>357</ele>
        <time>2018-02-20T12:29:31.000Z</time>
      </trkpt>
      <trkpt lat="43.53189" lon="5.54323">
        <ele>356</ele>
        <time>2018-02-20T12:29:32.000Z</time>
      </trkpt>
      <trkpt lat="43.53188" lon="5.54324">
        <ele>356</ele>
        <time>2018-02-20T12:29:33.000Z</time>
      </trkpt>
      <trkpt lat="43.53187" lon="5.54326">
        <ele>356</ele>
        <time>2018-02-20T12:29:34.000Z</time>
      </trkpt>
      <trkpt lat="43.53186" lon="5.54327">
        <ele>356</ele>
        <time>2018-02-20T12:29:35.000Z</time>
      </trkpt>
      <trkpt lat="43.53185" lon="5.54328">
        <ele>356</ele>
        <time>2018-02-20T12:29:36.000Z</time>
      </trkpt>
      <trkpt lat="43.53184" lon="5.54329">
        <ele>356</ele>
        <time>2018-02-20T12:29:37.000Z</time>
      </trkpt>
      <trkpt lat="43.53184" lon="5.54331">
        <ele>355</ele>
        <time>2018-02-20T12:29:38.000Z</time>
      </trkpt>
      <trkpt lat="43.53183" lon="5.54332">
        <ele>355</ele>
        <time>2018-02-20T12:29:39.000Z</time>
      </trkpt>
      <trkpt lat="43.53182" lon="5.54334">
        <ele>355</ele>
        <time>2018-02-20T12:29:40.000Z</time>
      </trkpt>
      <trkpt lat="43.53181" lon="5.54335">
        <ele>355</ele>
        <time>2018-02-20T12:29:41.000Z</time>
      </trkpt>
      <trkpt lat="43.5318" lon="5.54336">
        <ele>355</ele>
        <time>2018-02-20T12:29:42.000Z</time>
      </trkpt>
      <trkpt lat="43.5318" lon="5.54337">
        <ele>355</ele>
        <time>2018-02-20T12:29:43.000Z</time>
      </trkpt>
      <trkpt lat="43.53179" lon="5.54338">
        <ele>355</ele>
        <time>2018-02-20T12:29:44.000Z</time>
      </trkpt>
      <trkpt lat="43.53178" lon="5.5434">
        <ele>355</ele>
        <time>2018-02-20T12:29:45.000Z</time>
      </trkpt>
      <trkpt lat="43.53177" lon="5.54341">
        <ele>355</ele>
        <time>2018-02-20T12:29:46.000Z</time>
      </trkpt>
      <trkpt lat="43.53176" lon="5.54342">
        <ele>354</ele>
        <time>2018-02-20T12:29:47.000Z</time>
      </trkpt>
      <trkpt lat="43.53175" lon="5.54344">
        <ele>354</ele>
        <time>2018-02-20T12:29:48.000Z</time>
      </trkpt>
      <trkpt lat="43.53174" lon="5.54345">
        <ele>354</ele>
        <time>2018-02-20T12:29:49.000Z</time>
      </trkpt>
      <trkpt lat="43.53173" lon="5.54347">
        <ele>354</ele>
        <time>2018-02-20T12:29:50.000Z</time>
      </trkpt>
      <trkpt lat="43.53172" lon="5.54348">
        <ele>354</ele>
        <time>2018-02-20T12:29:51.000Z</time>
      </trkpt>
      <trkpt lat="43.53172" lon="5.54349">
        <ele>354</ele>
        <time>2018-02-20T12:29:52.000Z</time>
      </trkpt>
      <trkpt lat="43.53171" lon="5.54351">
        <ele>354</ele>
        <time>2018-02-20T12:29:53.000Z</time>
      </trkpt>
      <trkpt lat="43.5317" lon="5.54352">
        <ele>354</ele>
        <time>2018-02-20T12:29:54.000Z</time>
      </trkpt>
      <trkpt lat="43.53169" lon="5.54354">
        <ele>354</ele>
        <time>2018-02-20T12:29:55.000Z</time>
      </trkpt>
      <trkpt lat="43.53168" lon="5.54356">
        <ele>354</ele>
        <time>2018-02-20T12:29:56.000Z</time>
      </trkpt>
      <trkpt lat="43.53167" lon="5.54357">
        <ele>354</ele>
        <time>2018-02-20T12:29:57.000Z</time>
      </trkpt>
      <trkpt lat="43.53166" lon="5.54359">
        <ele>353</ele>
        <time>2018-02-20T12:29:58.000Z</time>
      </trkpt>
      <trkpt lat="43.53165" lon="5.5436">
        <ele>353</ele>
        <time>2018-02-20T12:29:59.000Z</time>
      </trkpt>
      <trkpt lat="43.53164" lon="5.54362">
        <ele>353</ele>
        <time>2018-02-20T12:30:00.000Z</time>
      </trkpt>
      <trkpt lat="43.53163" lon="5.54363">
        <ele>353</ele>
        <time>2018-02-20T12:30:01.000Z</time>
      </trkpt>
      <trkpt lat="43.53162" lon="5.54364">
        <ele>353</ele>
        <time>2018-02-20T12:30:02.000Z</time>
      </trkpt>
      <trkpt lat="43.53162" lon="5.54366">
        <ele>353</ele>
        <time>2018-02-20T12:30:03.000Z</time>
      </trkpt>
      <trkpt lat="43.5316" lon="5.54367">
        <ele>353</ele>
        <time>2018-02-20T12:30:04.000Z</time>
      </trkpt>
      <trkpt lat="43.53159" lon="5.54369">
        <ele>353</ele>
        <time>2018-02-20T12:30:05.000Z</time>
      </trkpt>
      <trkpt lat="43.53159" lon="5.5437">
        <ele>353</ele>
        <time>2018-02-20T12:30:06.000Z</time>
      </trkpt>
      <trkpt lat="43.53158" lon="5.54372">
        <ele>353</ele>
        <time>2018-02-20T12:30:07.000Z</time>
      </trkpt>
      <trkpt lat="43.53157" lon="5.54373">
        <ele>352</ele>
        <time>2018-02-20T12:30:08.000Z</time>
      </trkpt>
      <trkpt lat="43.53156" lon="5.54375">
        <ele>352</ele>
        <time>2018-02-20T12:30:09.000Z</time>
      </trkpt>
      <trkpt lat="43.53155" lon="5.54376">
        <ele>352</ele>
        <time>2018-02-20T12:30:10.000Z</time>
      </trkpt>
      <trkpt lat="43.53154" lon="5.54378">
        <ele>352</ele>
        <time>2018-02-20T12:30:11.000Z</time>
      </trkpt>
      <trkpt lat="43.53153" lon="5.54379">
        <ele>352</ele>
        <time>2018-02-20T12:30:12.000Z</time>
      </trkpt>
      <trkpt lat="43.53152" lon="5.5438">
        <ele>352</ele>
        <time>2018-02-20T12:30:13.000Z</time>
      </trkpt>
      <trkpt lat="43.53151" lon="5.54381">
        <ele>352</ele>
        <time>2018-02-20T12:30:14.000Z</time>
      </trkpt>
      <trkpt lat="43.53151" lon="5.54383">
        <ele>352</ele>
        <time>2018-02-20T12:30:15.000Z</time>
      </trkpt>
      <trkpt lat="43.5315" lon="5.54384">
        <ele>352</ele>
        <time>2018-02-20T12:30:16.000Z</time>
      </trkpt>
      <trkpt lat="43.5315" lon="5.54386">
        <ele>352</ele>
        <time>2018-02-20T12:30:17.000Z</time>
      </trkpt>
      <trkpt lat="43.53149" lon="5.54387">
        <ele>352</ele>
        <time>2018-02-20T12:30:18.000Z</time>
      </trkpt>
      <trkpt lat="43.53148" lon="5.54388">
        <ele>352</ele>
        <time>2018-02-20T12:30:19.000Z</time>
      </trkpt>
      <trkpt lat="43.53147" lon="5.5439">
        <ele>352</ele>
        <time>2018-02-20T12:30:20.000Z</time>
      </trkpt>
      <trkpt lat="43.53147" lon="5.54392">
        <ele>352</ele>
        <time>2018-02-20T12:30:21.000Z</time>
      </trkpt>
      <trkpt lat="43.53146" lon="5.54393">
        <ele>352</ele>
        <time>2018-02-20T12:30:22.000Z</time>
      </trkpt>
      <trkpt lat="43.53145" lon="5.54395">
        <ele>352</ele>
        <time>2018-02-20T12:30:23.000Z</time>
      </trkpt>
      <trkpt lat="43.53144" lon="5.54396">
        <ele>352</ele>
        <time>2018-02-20T12:30:24.000Z</time>
      </trkpt>
      <trkpt lat="43.53144" lon="5.54397">
        <ele>352</ele>
        <time>2018-02-20T12:30:25.000Z</time>
      </trkpt>
      <trkpt lat="43.53143" lon="5.54398">
        <ele>352</ele>
        <time>2018-02-20T12:30:26.000Z</time>
      </trkpt>
      <trkpt lat="43.53142" lon="5.544">
        <ele>352</ele>
        <time>2018-02-20T12:30:27.000Z</time>
      </trkpt>
      <trkpt lat="43.53141" lon="5.54401">
        <ele>352</ele>
        <time>2018-02-20T12:30:28.000Z</time>
      </trkpt>
      <trkpt lat="43.5314" lon="5.54402">
        <ele>352</ele>
        <time>2018-02-20T12:30:29.000Z</time>
      </trkpt>
      <trkpt lat="43.53139" lon="5.54404">
        <ele>352</ele>
        <time>2018-02-20T12:30:30.000Z</time>
      </trkpt>
      <trkpt lat="43.53138" lon="5.54405">
        <ele>352</ele>
        <time>2018-02-20T12:30:31.000Z</time>
      </trkpt>
      <trkpt lat="43.53137" lon="5.54406">
        <ele>352</ele>
        <time>2018-02-20T12:30:32.000Z</time>
      </trkpt>
      <trkpt lat="43.53137" lon="5.54408">
        <ele>352</ele>
        <time>2018-02-20T12:30:33.000Z</time>
      </trkpt>
      <trkpt lat="43.53136" lon="5.54409">
        <ele>352</ele>
        <time>2018-02-20T12:30:34.000Z</time>
      </trkpt>
      <trkpt lat="43.53134" lon="5.54411">
        <ele>351</ele>
        <time>2018-02-20T12:30:35.000Z</time>
      </trkpt>
      <trkpt lat="43.53134" lon="5.54412">
        <ele>351</ele>
        <time>2018-02-20T12:30:36.000Z</time>
      </trkpt>
      <trkpt lat="43.53133" lon="5.54413">
        <ele>351</ele>
        <time>2018-02-20T12:30:37.000Z</time>
      </trkpt>
      <trkpt lat="43.53132" lon="5.54414">
        <ele>351</ele>
        <time>2018-02-20T12:30:38.000Z</time>
      </trkpt>
      <trkpt lat="43.53131" lon="5.54416">
        <ele>351</ele>
        <time>2018-02-20T12:30:39.000Z</time>
      </trkpt>
      <trkpt lat="43.53131" lon="5.54417">
        <ele>351</ele>
        <time>2018-02-20T12:30:40.000Z</time>
      </trkpt>
      <trkpt lat="43.5313" lon="5.54418">
        <ele>351</ele>
        <time>2018-02-20T12:30:41.000Z</time>
      </trkpt>
      <trkpt lat="43.5313" lon="5.54419">
        <ele>351</ele>
        <time>2018-02-20T12:30:42.000Z</time>
      </trkpt>
      <trkpt lat="43.53129" lon="5.54421">
        <ele>351</ele>
        <time>2018-02-20T12:30:43.000Z</time>
      </trkpt>
      <trkpt lat="43.53129" lon="5.54423">
        <ele>351</ele>
        <time>2018-02-20T12:30:44.000Z</time>
      </trkpt>
      <trkpt lat="43.53128" lon="5.54424">
        <ele>351</ele>
        <time>2018-02-20T12:30:45.000Z</time>
      </trkpt>
      <trkpt lat="43.53128" lon="5.54425">
        <ele>351</ele>
        <time>2018-02-20T12:30:46.000Z</time>
      </trkpt>
      <trkpt lat="43.53128" lon="5.54427">
        <ele>351</ele>
        <time>2018-02-20T12:30:47.000Z</time>
      </trkpt>
      <trkpt lat="43.53128" lon="5.54428">
        <ele>351</ele>
        <time>2018-02-20T12:30:48.000Z</time>
      </trkpt>
      <trkpt lat="43.53128" lon="5.5443">
        <ele>350</ele>
        <time>2018-02-20T12:30:49.000Z</time>
      </trkpt>
      <trkpt lat="43.53128" lon="5.54431">
        <ele>350</ele>
        <time>2018-02-20T12:30:50.000Z</time>
      </trkpt>
      <trkpt lat="43.53128" lon="5.54433">
        <ele>350</ele>
        <time>2018-02-20T12:30:51.000Z</time>
      </trkpt>
      <trkpt lat="43.53128" lon="5.54434">
        <ele>350</ele>
        <time>2018-02-20T12:30:52.000Z</time>
      </trkpt>
      <trkpt lat="43.53127" lon="5.54435">
        <ele>350</ele>
        <time>2018-02-20T12:30:53.000Z</time>
      </trkpt>
      <trkpt lat="43.53127" lon="5.54436">
        <ele>350</ele>
        <time>2018-02-20T12:30:54.000Z</time>
      </trkpt>
      <trkpt lat="43.53127" lon="5.54437">
        <ele>349</ele>
        <time>2018-02-20T12:30:55.000Z</time>
      </trkpt>
      <trkpt lat="43.53127" lon="5.54439">
        <ele>349</ele>
        <time>2018-02-20T12:30:56.000Z</time>
      </trkpt>
      <trkpt lat="43.53128" lon="5.5444">
        <ele>349</ele>
        <time>2018-02-20T12:30:57.000Z</time>
      </trkpt>
      <trkpt lat="43.53128" lon="5.54442">
        <ele>349</ele>
        <time>2018-02-20T12:30:58.000Z</time>
      </trkpt>
      <trkpt lat="43.53127" lon="5.54443">
        <ele>349</ele>
        <time>2018-02-20T12:30:59.000Z</time>
      </trkpt>
      <trkpt lat="43.53127" lon="5.54445">
        <ele>348</ele>
        <time>2018-02-20T12:31:00.000Z</time>
      </trkpt>
      <trkpt lat="43.53128" lon="5.54446">
        <ele>348</ele>
        <time>2018-02-20T12:31:01.000Z</time>
      </trkpt>
      <trkpt lat="43.53128" lon="5.54447">
        <ele>348</ele>
        <time>2018-02-20T12:31:02.000Z</time>
      </trkpt>
      <trkpt lat="43.53128" lon="5.54448">
        <ele>348</ele>
        <time>2018-02-20T12:31:03.000Z</time>
      </trkpt>
      <trkpt lat="43.53127" lon="5.54449">
        <ele>348</ele>
        <time>2018-02-20T12:31:04.000Z</time>
      </trkpt>
      <trkpt lat="43.53128" lon="5.5445">
        <ele>348</ele>
        <time>2018-02-20T12:31:05.000Z</time>
      </trkpt>
      <trkpt lat="43.53128" lon="5.54452">
        <ele>348</ele>
        <time>2018-02-20T12:31:06.000Z</time>
      </trkpt>
      <trkpt lat="43.53128" lon="5.54453">
        <ele>348</ele>
        <time>2018-02-20T12:31:07.000Z</time>
      </trkpt>
      <trkpt lat="43.53129" lon="5.54454">
        <ele>348</ele>
        <time>2018-02-20T12:31:08.000Z</time>
      </trkpt>
      <trkpt lat="43.53129" lon="5.54455">
        <ele>347</ele>
        <time>2018-02-20T12:31:09.000Z</time>
      </trkpt>
      <trkpt lat="43.53129" lon="5.54457">
        <ele>347</ele>
        <time>2018-02-20T12:31:10.000Z</time>
      </trkpt>
      <trkpt lat="43.5313" lon="5.54458">
        <ele>347</ele>
        <time>2018-02-20T12:31:11.000Z</time>
      </trkpt>
      <trkpt lat="43.5313" lon="5.54459">
        <ele>347</ele>
        <time>2018-02-20T12:31:12.000Z</time>
      </trkpt>
      <trkpt lat="43.5313" lon="5.54461">
        <ele>347</ele>
        <time>2018-02-20T12:31:13.000Z</time>
      </trkpt>
      <trkpt lat="43.53131" lon="5.54462">
        <ele>347</ele>
        <time>2018-02-20T12:31:14.000Z</time>
      </trkpt>
      <trkpt lat="43.53131" lon="5.54463">
        <ele>347</ele>
        <time>2018-02-20T12:31:15.000Z</time>
      </trkpt>
      <trkpt lat="43.53132" lon="5.54464">
        <ele>347</ele>
        <time>2018-02-20T12:31:16.000Z</time>
      </trkpt>
      <trkpt lat="43.53133" lon="5.54465">
        <ele>347</ele>
        <time>2018-02-20T12:31:17.000Z</time>
      </trkpt>
      <trkpt lat="43.53134" lon="5.54467">
        <ele>347</ele>
        <time>2018-02-20T12:31:18.000Z</time>
      </trkpt>
      <trkpt lat="43.53134" lon="5.54468">
        <ele>347</ele>
        <time>2018-02-20T12:31:19.000Z</time>
      </trkpt>
      <trkpt lat="43.53135" lon="5.54469">
        <ele>347</ele>
        <time>2018-02-20T12:31:20.000Z</time>
      </trkpt>
      <trkpt lat="43.53135" lon="5.5447">
        <ele>347</ele>
        <time>2018-02-20T12:31:21.000Z</time>
      </trkpt>
      <trkpt lat="43.53135" lon="5.54471">
        <ele>347</ele>
        <time>2018-02-20T12:31:22.000Z</time>
      </trkpt>
      <trkpt lat="43.53136" lon="5.54473">
        <ele>347</ele>
        <time>2018-02-20T12:31:23.000Z</time>
      </trkpt>
      <trkpt lat="43.53136" lon="5.54474">
        <ele>347</ele>
        <time>2018-02-20T12:31:24.000Z</time>
      </trkpt>
      <trkpt lat="43.53136" lon="5.54474">
        <ele>347</ele>
        <time>2018-02-20T12:31:25.000Z</time>
      </trkpt>
      <trkpt lat="43.53136" lon="5.54475">
        <ele>347</ele>
        <time>2018-02-20T12:31:26.000Z</time>
      </trkpt>
      <trkpt lat="43.53137" lon="5.54476">
        <ele>347</ele>
        <time>2018-02-20T12:31:27.000Z</time>
      </trkpt>
      <trkpt lat="43.53138" lon="5.54476">
        <ele>347</ele>
        <time>2018-02-20T12:31:28.000Z</time>
      </trkpt>
      <trkpt lat="43.53138" lon="5.54477">
        <ele>347</ele>
        <time>2018-02-20T12:31:29.000Z</time>
      </trkpt>
      <trkpt lat="43.53139" lon="5.54478">
        <ele>347</ele>
        <time>2018-02-20T12:31:30.000Z</time>
      </trkpt>
      <trkpt lat="43.5314" lon="5.54479">
        <ele>347</ele>
        <time>2018-02-20T12:31:31.000Z</time>
      </trkpt>
      <trkpt lat="43.5314" lon="5.5448">
        <ele>347</ele>
        <time>2018-02-20T12:31:32.000Z</time>
      </trkpt>
      <trkpt lat="43.53141" lon="5.5448">
        <ele>347</ele>
        <time>2018-02-20T12:31:33.000Z</time>
      </trkpt>
      <trkpt lat="43.53142" lon="5.54481">
        <ele>347</ele>
        <time>2018-02-20T12:31:34.000Z</time>
      </trkpt>
      <trkpt lat="43.53143" lon="5.54482">
        <ele>347</ele>
        <time>2018-02-20T12:31:35.000Z</time>
      </trkpt>
      <trkpt lat="43.53143" lon="5.54483">
        <ele>347</ele>
        <time>2018-02-20T12:31:36.000Z</time>
      </trkpt>
      <trkpt lat="43.53144" lon="5.54484">
        <ele>347</ele>
        <time>2018-02-20T12:31:37.000Z</time>
      </trkpt>
      <trkpt lat="43.53145" lon="5.54485">
        <ele>347</ele>
        <time>2018-02-20T12:31:38.000Z</time>
      </trkpt>
      <trkpt lat="43.53146" lon="5.54486">
        <ele>347</ele>
        <time>2018-02-20T12:31:39.000Z</time>
      </trkpt>
      <trkpt lat="43.53146" lon="5.54487">
        <ele>347</ele>
        <time>2018-02-20T12:31:40.000Z</time>
      </trkpt>
      <trkpt lat="43.53147" lon="5.54488">
        <ele>347</ele>
        <time>2018-02-20T12:31:41.000Z</time>
      </trkpt>
      <trkpt lat="43.53148" lon="5.54489">
        <ele>347</ele>
        <time>2018-02-20T12:31:42.000Z</time>
      </trkpt>
      <trkpt lat="43.53149" lon="5.54491">
        <ele>347</ele>
        <time>2018-02-20T12:31:43.000Z</time>
      </trkpt>
      <trkpt lat="43.5315" lon="5.54491">
        <ele>347</ele>
        <time>2018-02-20T12:31:44.000Z</time>
      </trkpt>
      <trkpt lat="43.5315" lon="5.54492">
        <ele>347</ele>
        <time>2018-02-20T12:31:45.000Z</time>
      </trkpt>
      <trkpt lat="43.53151" lon="5.54493">
        <ele>347</ele>
        <time>2018-02-20T12:31:46.000Z</time>
      </trkpt>
      <trkpt lat="43.53152" lon="5.54494">
        <ele>347</ele>
        <time>2018-02-20T12:31:47.000Z</time>
      </trkpt>
      <trkpt lat="43.53153" lon="5.54495">
        <ele>346</ele>
        <time>2018-02-20T12:31:48.000Z</time>
      </trkpt>
      <trkpt lat="43.53154" lon="5.54496">
        <ele>346</ele>
        <time>2018-02-20T12:31:49.000Z</time>
      </trkpt>
      <trkpt lat="43.53154" lon="5.54497">
        <ele>346</ele>
        <time>2018-02-20T12:31:50.000Z</time>
      </trkpt>
      <trkpt lat="43.53155" lon="5.54498">
        <ele>346</ele>
        <time>2018-02-20T12:31:51.000Z</time>
      </trkpt>
      <trkpt lat="43.53156" lon="5.54499">
        <ele>346</ele>
        <time>2018-02-20T12:31:52.000Z</time>
      </trkpt>
      <trkpt lat="43.53156" lon="5.545">
        <ele>346</ele>
        <time>2018-02-20T12:31:53.000Z</time>
      </trkpt>
      <trkpt lat="43.53157" lon="5.54501">
        <ele>346</ele>
        <time>2018-02-20T12:31:54.000Z</time>
      </trkpt>
      <trkpt lat="43.53158" lon="5.54503">
        <ele>346</ele>
        <time>2018-02-20T12:31:55.000Z</time>
      </trkpt>
      <trkpt lat="43.53158" lon="5.54504">
        <ele>345</ele>
        <time>2018-02-20T12:31:56.000Z</time>
      </trkpt>
      <trkpt lat="43.53159" lon="5.54505">
        <ele>345</ele>
        <time>2018-02-20T12:31:57.000Z</time>
      </trkpt>
      <trkpt lat="43.53159" lon="5.54506">
        <ele>345</ele>
        <time>2018-02-20T12:31:58.000Z</time>
      </trkpt>
      <trkpt lat="43.5316" lon="5.54508">
        <ele>345</ele>
        <time>2018-02-20T12:31:59.000Z</time>
      </trkpt>
      <trkpt lat="43.53161" lon="5.54509">
        <ele>345</ele>
        <time>2018-02-20T12:32:00.000Z</time>
      </trkpt>
      <trkpt lat="43.53161" lon="5.5451">
        <ele>345</ele>
        <time>2018-02-20T12:32:01.000Z</time>
      </trkpt>
      <trkpt lat="43.53162" lon="5.54511">
        <ele>345</ele>
        <time>2018-02-20T12:32:02.000Z</time>
      </trkpt>
      <trkpt lat="43.53162" lon="5.54512">
        <ele>345</ele>
        <time>2018-02-20T12:32:03.000Z</time>
      </trkpt>
      <trkpt lat="43.53163" lon="5.54513">
        <ele>345</ele>
        <time>2018-02-20T12:32:04.000Z</time>
      </trkpt>
      <trkpt lat="43.53164" lon="5.54514">
        <ele>344</ele>
        <time>2018-02-20T12:32:05.000Z</time>
      </trkpt>
      <trkpt lat="43.53165" lon="5.54515">
        <ele>344</ele>
        <time>2018-02-20T12:32:06.000Z</time>
      </trkpt>
      <trkpt lat="43.53165" lon="5.54516">
        <ele>344</ele>
        <time>2018-02-20T12:32:07.000Z</time>
      </trkpt>
      <trkpt lat="43.53166" lon="5.54517">
        <ele>344</ele>
        <time>2018-02-20T12:32:08.000Z</time>
      </trkpt>
      <trkpt lat="43.53167" lon="5.54518">
        <ele>344</ele>
        <time>2018-02-20T12:32:09.000Z</time>
      </trkpt>
      <trkpt lat="43.53168" lon="5.54519">
        <ele>344</ele>
        <time>2018-02-20T12:32:10.000Z</time>
      </trkpt>
      <trkpt lat="43.53169" lon="5.54519">
        <ele>343</ele>
        <time>2018-02-20T12:32:11.000Z</time>
      </trkpt>
      <trkpt lat="43.5317" lon="5.5452">
        <ele>343</ele>
        <time>2018-02-20T12:32:12.000Z</time>
      </trkpt>
      <trkpt lat="43.53171" lon="5.5452">
        <ele>343</ele>
        <time>2018-02-20T12:32:13.000Z</time>
      </trkpt>
      <trkpt lat="43.53172" lon="5.54521">
        <ele>343</ele>
        <time>2018-02-20T12:32:14.000Z</time>
      </trkpt>
      <trkpt lat="43.53173" lon="5.54522">
        <ele>343</ele>
        <time>2018-02-20T12:32:15.000Z</time>
      </trkpt>
      <trkpt lat="43.53174" lon="5.54522">
        <ele>343</ele>
        <time>2018-02-20T12:32:16.000Z</time>
      </trkpt>
      <trkpt lat="43.53175" lon="5.54523">
        <ele>342</ele>
        <time>2018-02-20T12:32:17.000Z</time>
      </trkpt>
      <trkpt lat="43.53176" lon="5.54523">
        <ele>342</ele>
        <time>2018-02-20T12:32:18.000Z</time>
      </trkpt>
      <trkpt lat="43.53177" lon="5.54524">
        <ele>342</ele>
        <time>2018-02-20T12:32:19.000Z</time>
      </trkpt>
      <trkpt lat="43.53178" lon="5.54525">
        <ele>342</ele>
        <time>2018-02-20T12:32:20.000Z</time>
      </trkpt>
      <trkpt lat="43.53178" lon="5.54526">
        <ele>342</ele>
        <time>2018-02-20T12:32:21.000Z</time>
      </trkpt>
      <trkpt lat="43.53179" lon="5.54527">
        <ele>342</ele>
        <time>2018-02-20T12:32:22.000Z</time>
      </trkpt>
      <trkpt lat="43.5318" lon="5.54528">
        <ele>341</ele>
        <time>2018-02-20T12:32:23.000Z</time>
      </trkpt>
      <trkpt lat="43.53181" lon="5.54529">
        <ele>341</ele>
        <time>2018-02-20T12:32:24.000Z</time>
      </trkpt>
      <trkpt lat="43.53181" lon="5.54531">
        <ele>341</ele>
        <time>2018-02-20T12:32:25.000Z</time>
      </trkpt>
      <trkpt lat="43.53182" lon="5.54532">
        <ele>341</ele>
        <time>2018-02-20T12:32:26.000Z</time>
      </trkpt>
      <trkpt lat="43.53182" lon="5.54533">
        <ele>341</ele>
        <time>2018-02-20T12:32:27.000Z</time>
      </trkpt>
      <trkpt lat="43.53183" lon="5.54535">
        <ele>341</ele>
        <time>2018-02-20T12:32:28.000Z</time>
      </trkpt>
      <trkpt lat="43.53183" lon="5.54537">
        <ele>341</ele>
        <time>2018-02-20T12:32:29.000Z</time>
      </trkpt>
      <trkpt lat="43.53184" lon="5.54538">
        <ele>341</ele>
        <time>2018-02-20T12:32:30.000Z</time>
      </trkpt>
      <trkpt lat="43.53183" lon="5.5454">
        <ele>341</ele>
        <time>2018-02-20T12:32:31.000Z</time>
      </trkpt>
      <trkpt lat="43.53184" lon="5.54541">
        <ele>340</ele>
        <time>2018-02-20T12:32:32.000Z</time>
      </trkpt>
      <trkpt lat="43.53184" lon="5.54543">
        <ele>340</ele>
        <time>2018-02-20T12:32:33.000Z</time>
      </trkpt>
      <trkpt lat="43.53184" lon="5.54544">
        <ele>340</ele>
        <time>2018-02-20T12:32:34.000Z</time>
      </trkpt>
      <trkpt lat="43.53184" lon="5.54546">
        <ele>339</ele>
        <time>2018-02-20T12:32:35.000Z</time>
      </trkpt>
      <trkpt lat="43.53184" lon="5.54547">
        <ele>339</ele>
        <time>2018-02-20T12:32:36.000Z</time>
      </trkpt>
      <trkpt lat="43.53184" lon="5.54549">
        <ele>339</ele>
        <time>2018-02-20T12:32:37.000Z</time>
      </trkpt>
      <trkpt lat="43.53185" lon="5.5455">
        <ele>338</ele>
        <time>2018-02-20T12:32:38.000Z</time>
      </trkpt>
      <trkpt lat="43.53184" lon="5.54552">
        <ele>338</ele>
        <time>2018-02-20T12:32:39.000Z</time>
      </trkpt>
      <trkpt lat="43.53184" lon="5.54554">
        <ele>338</ele>
        <time>2018-02-20T12:32:40.000Z</time>
      </trkpt>
      <trkpt lat="43.53184" lon="5.54555">
        <ele>338</ele>
        <time>2018-02-20T12:32:41.000Z</time>
      </trkpt>
      <trkpt lat="43.53184" lon="5.54557">
        <ele>338</ele>
        <time>2018-02-20T12:32:42.000Z</time>
      </trkpt>
      <trkpt lat="43.53184" lon="5.54558">
        <ele>337</ele>
        <time>2018-02-20T12:32:43.000Z</time>
      </trkpt>
      <trkpt lat="43.53184" lon="5.5456">
        <ele>337</ele>
        <time>2018-02-20T12:32:44.000Z</time>
      </trkpt>
      <trkpt lat="43.53184" lon="5.54562">
        <ele>337</ele>
        <time>2018-02-20T12:32:45.000Z</time>
      </trkpt>
      <trkpt lat="43.53184" lon="5.54563">
        <ele>337</ele>
        <time>2018-02-20T12:32:46.000Z</time>
      </trkpt>
      <trkpt lat="43.53184" lon="5.54565">
        <ele>336</ele>
        <time>2018-02-20T12:32:47.000Z</time>
      </trkpt>
      <trkpt lat="43.53184" lon="5.54567">
        <ele>336</ele>
        <time>2018-02-20T12:32:48.000Z</time>
      </trkpt>
      <trkpt lat="43.53183" lon="5.54568">
        <ele>336</ele>
        <time>2018-02-20T12:32:49.000Z</time>
      </trkpt>
      <trkpt lat="43.53183" lon="5.5457">
        <ele>336</ele>
        <time>2018-02-20T12:32:50.000Z</time>
      </trkpt>
      <trkpt lat="43.53183" lon="5.54571">
        <ele>336</ele>
        <time>2018-02-20T12:32:51.000Z</time>
      </trkpt>
      <trkpt lat="43.53183" lon="5.54573">
        <ele>336</ele>
        <time>2018-02-20T12:32:52.000Z</time>
      </trkpt>
      <trkpt lat="43.53183" lon="5.54574">
        <ele>336</ele>
        <time>2018-02-20T12:32:53.000Z</time>
      </trkpt>
      <trkpt lat="43.53183" lon="5.54576">
        <ele>336</ele>
        <time>2018-02-20T12:32:54.000Z</time>
      </trkpt>
      <trkpt lat="43.53183" lon="5.54578">
        <ele>335</ele>
        <time>2018-02-20T12:32:55.000Z</time>
      </trkpt>
      <trkpt lat="43.53183" lon="5.54579">
        <ele>335</ele>
        <time>2018-02-20T12:32:56.000Z</time>
      </trkpt>
      <trkpt lat="43.53183" lon="5.54581">
        <ele>335</ele>
        <time>2018-02-20T12:32:57.000Z</time>
      </trkpt>
      <trkpt lat="43.53183" lon="5.54582">
        <ele>335</ele>
        <time>2018-02-20T12:32:58.000Z</time>
      </trkpt>
      <trkpt lat="43.53184" lon="5.54584">
        <ele>335</ele>
        <time>2018-02-20T12:32:59.000Z</time>
      </trkpt>
      <trkpt lat="43.53184" lon="5.54585">
        <ele>335</ele>
        <time>2018-02-20T12:33:00.000Z</time>
      </trkpt>
      <trkpt lat="43.53184" lon="5.54587">
        <ele>335</ele>
        <time>2018-02-20T12:33:01.000Z</time>
      </trkpt>
      <trkpt lat="43.53184" lon="5.54589">
        <ele>335</ele>
        <time>2018-02-20T12:33:02.000Z</time>
      </trkpt>
      <trkpt lat="43.53184" lon="5.5459">
        <ele>335</ele>
        <time>2018-02-20T12:33:03.000Z</time>
      </trkpt>
      <trkpt lat="43.53184" lon="5.54592">
        <ele>334</ele>
        <time>2018-02-20T12:33:04.000Z</time>
      </trkpt>
      <trkpt lat="43.53184" lon="5.54593">
        <ele>334</ele>
        <time>2018-02-20T12:33:05.000Z</time>
      </trkpt>
      <trkpt lat="43.53184" lon="5.54595">
        <ele>334</ele>
        <time>2018-02-20T12:33:06.000Z</time>
      </trkpt>
      <trkpt lat="43.53184" lon="5.54596">
        <ele>334</ele>
        <time>2018-02-20T12:33:07.000Z</time>
      </trkpt>
      <trkpt lat="43.53184" lon="5.54598">
        <ele>334</ele>
        <time>2018-02-20T12:33:08.000Z</time>
      </trkpt>
      <trkpt lat="43.53184" lon="5.546">
        <ele>334</ele>
        <time>2018-02-20T12:33:09.000Z</time>
      </trkpt>
      <trkpt lat="43.53184" lon="5.54601">
        <ele>333</ele>
        <time>2018-02-20T12:33:10.000Z</time>
      </trkpt>
      <trkpt lat="43.53184" lon="5.54603">
        <ele>333</ele>
        <time>2018-02-20T12:33:11.000Z</time>
      </trkpt>
      <trkpt lat="43.53184" lon="5.54604">
        <ele>333</ele>
        <time>2018-02-20T12:33:12.000Z</time>
      </trkpt>
      <trkpt lat="43.53185" lon="5.54605">
        <ele>333</ele>
        <time>2018-02-20T12:33:13.000Z</time>
      </trkpt>
      <trkpt lat="43.53185" lon="5.54606">
        <ele>333</ele>
        <time>2018-02-20T12:33:14.000Z</time>
      </trkpt>
      <trkpt lat="43.53185" lon="5.54608">
        <ele>333</ele>
        <time>2018-02-20T12:33:15.000Z</time>
      </trkpt>
      <trkpt lat="43.53185" lon="5.5461">
        <ele>333</ele>
        <time>2018-02-20T12:33:16.000Z</time>
      </trkpt>
      <trkpt lat="43.53186" lon="5.54611">
        <ele>333</ele>
        <time>2018-02-20T12:33:17.000Z</time>
      </trkpt>
      <trkpt lat="43.53186" lon="5.54613">
        <ele>332</ele>
        <time>2018-02-20T12:33:18.000Z</time>
      </trkpt>
      <trkpt lat="43.53186" lon="5.54615">
        <ele>332</ele>
        <time>2018-02-20T12:33:19.000Z</time>
      </trkpt>
      <trkpt lat="43.53186" lon="5.54616">
        <ele>332</ele>
        <time>2018-02-20T12:33:20.000Z</time>
      </trkpt>
      <trkpt lat="43.53186" lon="5.54618">
        <ele>332</ele>
        <time>2018-02-20T12:33:21.000Z</time>
      </trkpt>
      <trkpt lat="43.53187" lon="5.54619">
        <ele>332</ele>
        <time>2018-02-20T12:33:22.000Z</time>
      </trkpt>
      <trkpt lat="43.53187" lon="5.54621">
        <ele>332</ele>
        <time>2018-02-20T12:33:23.000Z</time>
      </trkpt>
      <trkpt lat="43.53187" lon="5.54622">
        <ele>331</ele>
        <time>2018-02-20T12:33:24.000Z</time>
      </trkpt>
      <trkpt lat="43.53187" lon="5.54624">
        <ele>331</ele>
        <time>2018-02-20T12:33:25.000Z</time>
      </trkpt>
      <trkpt lat="43.53188" lon="5.54625">
        <ele>331</ele>
        <time>2018-02-20T12:33:26.000Z</time>
      </trkpt>
      <trkpt lat="43.53188" lon="5.54627">
        <ele>331</ele>
        <time>2018-02-20T12:33:27.000Z</time>
      </trkpt>
      <trkpt lat="43.53188" lon="5.54629">
        <ele>331</ele>
        <time>2018-02-20T12:33:28.000Z</time>
      </trkpt>
      <trkpt lat="43.53189" lon="5.5463">
        <ele>331</ele>
        <time>2018-02-20T12:33:29.000Z</time>
      </trkpt>
      <trkpt lat="43.5319" lon="5.54631">
        <ele>331</ele>
        <time>2018-02-20T12:33:30.000Z</time>
      </trkpt>
      <trkpt lat="43.5319" lon="5.54633">
        <ele>331</ele>
        <time>2018-02-20T12:33:31.000Z</time>
      </trkpt>
      <trkpt lat="43.5319" lon="5.54634">
        <ele>330</ele>
        <time>2018-02-20T12:33:32.000Z</time>
      </trkpt>
      <trkpt lat="43.5319" lon="5.54636">
        <ele>330</ele>
        <time>2018-02-20T12:33:33.000Z</time>
      </trkpt>
      <trkpt lat="43.5319" lon="5.54637">
        <ele>330</ele>
        <time>2018-02-20T12:33:34.000Z</time>
      </trkpt>
      <trkpt lat="43.5319" lon="5.54639">
        <ele>330</ele>
        <time>2018-02-20T12:33:35.000Z</time>
      </trkpt>
      <trkpt lat="43.5319" lon="5.5464">
        <ele>330</ele>
        <time>2018-02-20T12:33:36.000Z</time>
      </trkpt>
      <trkpt lat="43.5319" lon="5.54642">
        <ele>330</ele>
        <time>2018-02-20T12:33:37.000Z</time>
      </trkpt>
      <trkpt lat="43.5319" lon="5.54644">
        <ele>330</ele>
        <time>2018-02-20T12:33:38.000Z</time>
      </trkpt>
      <trkpt lat="43.5319" lon="5.54645">
        <ele>329</ele>
        <time>2018-02-20T12:33:39.000Z</time>
      </trkpt>
      <trkpt lat="43.5319" lon="5.54646">
        <ele>329</ele>
        <time>2018-02-20T12:33:40.000Z</time>
      </trkpt>
      <trkpt lat="43.5319" lon="5.54648">
        <ele>329</ele>
        <time>2018-02-20T12:33:41.000Z</time>
      </trkpt>
      <trkpt lat="43.5319" lon="5.54649">
        <ele>329</ele>
        <time>2018-02-20T12:33:42.000Z</time>
      </trkpt>
      <trkpt lat="43.5319" lon="5.54651">
        <ele>329</ele>
        <time>2018-02-20T12:33:43.000Z</time>
      </trkpt>
      <trkpt lat="43.5319" lon="5.54652">
        <ele>329</ele>
        <time>2018-02-20T12:33:44.000Z</time>
      </trkpt>
      <trkpt lat="43.5319" lon="5.54654">
        <ele>329</ele>
        <time>2018-02-20T12:33:45.000Z</time>
      </trkpt>
      <trkpt lat="43.53191" lon="5.54655">
        <ele>328</ele>
        <time>2018-02-20T12:33:46.000Z</time>
      </trkpt>
      <trkpt lat="43.53191" lon="5.54656">
        <ele>328</ele>
        <time>2018-02-20T12:33:47.000Z</time>
      </trkpt>
      <trkpt lat="43.53191" lon="5.54658">
        <ele>328</ele>
        <time>2018-02-20T12:33:48.000Z</time>
      </trkpt>
      <trkpt lat="43.53191" lon="5.54659">
        <ele>328</ele>
        <time>2018-02-20T12:33:49.000Z</time>
      </trkpt>
      <trkpt lat="43.53191" lon="5.54661">
        <ele>328</ele>
        <time>2018-02-20T12:33:50.000Z</time>
      </trkpt>
      <trkpt lat="43.53191" lon="5.54662">
        <ele>328</ele>
        <time>2018-02-20T12:33:51.000Z</time>
      </trkpt>
      <trkpt lat="43.53191" lon="5.54663">
        <ele>327</ele>
        <time>2018-02-20T12:33:52.000Z</time>
      </trkpt>
      <trkpt lat="43.53191" lon="5.54665">
        <ele>327</ele>
        <time>2018-02-20T12:33:53.000Z</time>
      </trkpt>
      <trkpt lat="43.5319" lon="5.54667">
        <ele>327</ele>
        <time>2018-02-20T12:33:54.000Z</time>
      </trkpt>
      <trkpt lat="43.5319" lon="5.54669">
        <ele>327</ele>
        <time>2018-02-20T12:33:55.000Z</time>
      </trkpt>
      <trkpt lat="43.5319" lon="5.5467">
        <ele>327</ele>
        <time>2018-02-20T12:33:56.000Z</time>
      </trkpt>
      <trkpt lat="43.5319" lon="5.54671">
        <ele>326</ele>
        <time>2018-02-20T12:33:57.000Z</time>
      </trkpt>
      <trkpt lat="43.5319" lon="5.54673">
        <ele>326</ele>
        <time>2018-02-20T12:33:58.000Z</time>
      </trkpt>
      <trkpt lat="43.5319" lon="5.54674">
        <ele>326</ele>
        <time>2018-02-20T12:33:59.000Z</time>
      </trkpt>
      <trkpt lat="43.5319" lon="5.54676">
        <ele>326</ele>
        <time>2018-02-20T12:34:00.000Z</time>
      </trkpt>
      <trkpt lat="43.53189" lon="5.54677">
        <ele>326</ele>
        <time>2018-02-20T12:34:01.000Z</time>
      </trkpt>
      <trkpt lat="43.53189" lon="5.54679">
        <ele>326</ele>
        <time>2018-02-20T12:34:02.000Z</time>
      </trkpt>
      <trkpt lat="43.53189" lon="5.54681">
        <ele>325</ele>
        <time>2018-02-20T12:34:03.000Z</time>
      </trkpt>
      <trkpt lat="43.53189" lon="5.54682">
        <ele>325</ele>
        <time>2018-02-20T12:34:04.000Z</time>
      </trkpt>
      <trkpt lat="43.53189" lon="5.54684">
        <ele>325</ele>
        <time>2018-02-20T12:34:05.000Z</time>
      </trkpt>
      <trkpt lat="43.53189" lon="5.54685">
        <ele>325</ele>
        <time>2018-02-20T12:34:06.000Z</time>
      </trkpt>
      <trkpt lat="43.53189" lon="5.54687">
        <ele>325</ele>
        <time>2018-02-20T12:34:07.000Z</time>
      </trkpt>
      <trkpt lat="43.53189" lon="5.54688">
        <ele>325</ele>
        <time>2018-02-20T12:34:08.000Z</time>
      </trkpt>
      <trkpt lat="43.53189" lon="5.5469">
        <ele>325</ele>
        <time>2018-02-20T12:34:09.000Z</time>
      </trkpt>
      <trkpt lat="43.53189" lon="5.54691">
        <ele>324</ele>
        <time>2018-02-20T12:34:10.000Z</time>
      </trkpt>
      <trkpt lat="43.53189" lon="5.54692">
        <ele>324</ele>
        <time>2018-02-20T12:34:11.000Z</time>
      </trkpt>
      <trkpt lat="43.5319" lon="5.54693">
        <ele>324</ele>
        <time>2018-02-20T12:34:12.000Z</time>
      </trkpt>
      <trkpt lat="43.5319" lon="5.54695">
        <ele>324</ele>
        <time>2018-02-20T12:34:13.000Z</time>
      </trkpt>
      <trkpt lat="43.5319" lon="5.54697">
        <ele>324</ele>
        <time>2018-02-20T12:34:14.000Z</time>
      </trkpt>
      <trkpt lat="43.53191" lon="5.54698">
        <ele>324</ele>
        <time>2018-02-20T12:34:15.000Z</time>
      </trkpt>
      <trkpt lat="43.53191" lon="5.54699">
        <ele>324</ele>
        <time>2018-02-20T12:34:16.000Z</time>
      </trkpt>
      <trkpt lat="43.53192" lon="5.547">
        <ele>324</ele>
        <time>2018-02-20T12:34:17.000Z</time>
      </trkpt>
      <trkpt lat="43.53192" lon="5.54702">
        <ele>324</ele>
        <time>2018-02-20T12:34:18.000Z</time>
      </trkpt>
      <trkpt lat="43.53193" lon="5.54703">
        <ele>324</ele>
        <time>2018-02-20T12:34:19.000Z</time>
      </trkpt>
      <trkpt lat="43.53193" lon="5.54705">
        <ele>324</ele>
        <time>2018-02-20T12:34:20.000Z</time>
      </trkpt>
      <trkpt lat="43.53194" lon="5.54706">
        <ele>323</ele>
        <time>2018-02-20T12:34:21.000Z</time>
      </trkpt>
      <trkpt lat="43.53194" lon="5.54708">
        <ele>323</ele>
        <time>2018-02-20T12:34:22.000Z</time>
      </trkpt>
      <trkpt lat="43.53195" lon="5.54709">
        <ele>323</ele>
        <time>2018-02-20T12:34:23.000Z</time>
      </trkpt>
      <trkpt lat="43.53195" lon="5.5471">
        <ele>323</ele>
        <time>2018-02-20T12:34:24.000Z</time>
      </trkpt>
      <trkpt lat="43.53196" lon="5.54711">
        <ele>323</ele>
        <time>2018-02-20T12:34:25.000Z</time>
      </trkpt>
      <trkpt lat="43.53197" lon="5.54713">
        <ele>323</ele>
        <time>2018-02-20T12:34:26.000Z</time>
      </trkpt>
      <trkpt lat="43.53197" lon="5.54714">
        <ele>323</ele>
        <time>2018-02-20T12:34:27.000Z</time>
      </trkpt>
      <trkpt lat="43.53197" lon="5.54715">
        <ele>323</ele>
        <time>2018-02-20T12:34:28.000Z</time>
      </trkpt>
      <trkpt lat="43.53198" lon="5.54717">
        <ele>323</ele>
        <time>2018-02-20T12:34:29.000Z</time>
      </trkpt>
      <trkpt lat="43.53198" lon="5.54718">
        <ele>323</ele>
        <time>2018-02-20T12:34:30.000Z</time>
      </trkpt>
      <trkpt lat="43.53199" lon="5.5472">
        <ele>322</ele>
        <time>2018-02-20T12:34:31.000Z</time>
      </trkpt>
      <trkpt lat="43.53199" lon="5.54721">
        <ele>322</ele>
        <time>2018-02-20T12:34:32.000Z</time>
      </trkpt>
      <trkpt lat="43.532" lon="5.54722">
        <ele>322</ele>
        <time>2018-02-20T12:34:33.000Z</time>
      </trkpt>
      <trkpt lat="43.532" lon="5.54724">
        <ele>322</ele>
        <time>2018-02-20T12:34:34.000Z</time>
      </trkpt>
      <trkpt lat="43.53201" lon="5.54725">
        <ele>322</ele>
        <time>2018-02-20T12:34:35.000Z</time>
      </trkpt>
      <trkpt lat="43.53201" lon="5.54726">
        <ele>322</ele>
        <time>2018-02-20T12:34:36.000Z</time>
      </trkpt>
      <trkpt lat="43.53202" lon="5.54728">
        <ele>321</ele>
        <time>2018-02-20T12:34:37.000Z</time>
      </trkpt>
      <trkpt lat="43.53202" lon="5.54729">
        <ele>321</ele>
        <time>2018-02-20T12:34:38.000Z</time>
      </trkpt>
      <trkpt lat="43.53202" lon="5.54731">
        <ele>321</ele>
        <time>2018-02-20T12:34:39.000Z</time>
      </trkpt>
      <trkpt lat="43.53202" lon="5.54732">
        <ele>321</ele>
        <time>2018-02-20T12:34:40.000Z</time>
      </trkpt>
      <trkpt lat="43.53203" lon="5.54734">
        <ele>321</ele>
        <time>2018-02-20T12:34:41.000Z</time>
      </trkpt>
      <trkpt lat="43.53203" lon="5.54735">
        <ele>321</ele>
        <time>2018-02-20T12:34:42.000Z</time>
      </trkpt>
      <trkpt lat="43.53203" lon="5.54737">
        <ele>321</ele>
        <time>2018-02-20T12:34:43.000Z</time>
      </trkpt>
      <trkpt lat="43.53204" lon="5.54738">
        <ele>320</ele>
        <time>2018-02-20T12:34:44.000Z</time>
      </trkpt>
      <trkpt lat="43.53204" lon="5.5474">
        <ele>320</ele>
        <time>2018-02-20T12:34:45.000Z</time>
      </trkpt>
      <trkpt lat="43.53205" lon="5.54741">
        <ele>320</ele>
        <time>2018-02-20T12:34:46.000Z</time>
      </trkpt>
      <trkpt lat="43.53205" lon="5.54742">
        <ele>320</ele>
        <time>2018-02-20T12:34:47.000Z</time>
      </trkpt>
      <trkpt lat="43.53206" lon="5.54744">
        <ele>320</ele>
        <time>2018-02-20T12:34:48.000Z</time>
      </trkpt>
      <trkpt lat="43.53206" lon="5.54745">
        <ele>320</ele>
        <time>2018-02-20T12:34:49.000Z</time>
      </trkpt>
      <trkpt lat="43.53207" lon="5.54747">
        <ele>320</ele>
        <time>2018-02-20T12:34:50.000Z</time>
      </trkpt>
      <trkpt lat="43.53207" lon="5.54748">
        <ele>319</ele>
        <time>2018-02-20T12:34:51.000Z</time>
      </trkpt>
      <trkpt lat="43.53207" lon="5.54749">
        <ele>319</ele>
        <time>2018-02-20T12:34:52.000Z</time>
      </trkpt>
      <trkpt lat="43.53208" lon="5.54751">
        <ele>319</ele>
        <time>2018-02-20T12:34:53.000Z</time>
      </trkpt>
      <trkpt lat="43.53208" lon="5.54752">
        <ele>319</ele>
        <time>2018-02-20T12:34:54.000Z</time>
      </trkpt>
      <trkpt lat="43.53209" lon="5.54753">
        <ele>319</ele>
        <time>2018-02-20T12:34:55.000Z</time>
      </trkpt>
      <trkpt lat="43.53209" lon="5.54755">
        <ele>318</ele>
        <time>2018-02-20T12:34:56.000Z</time>
      </trkpt>
      <trkpt lat="43.53209" lon="5.54756">
        <ele>318</ele>
        <time>2018-02-20T12:34:57.000Z</time>
      </trkpt>
      <trkpt lat="43.53209" lon="5.54758">
        <ele>318</ele>
        <time>2018-02-20T12:34:58.000Z</time>
      </trkpt>
      <trkpt lat="43.53209" lon="5.54759">
        <ele>318</ele>
        <time>2018-02-20T12:34:59.000Z</time>
      </trkpt>
      <trkpt lat="43.5321" lon="5.5476">
        <ele>318</ele>
        <time>2018-02-20T12:35:00.000Z</time>
      </trkpt>
      <trkpt lat="43.5321" lon="5.54761">
        <ele>317</ele>
        <time>2018-02-20T12:35:01.000Z</time>
      </trkpt>
      <trkpt lat="43.5321" lon="5.54762">
        <ele>317</ele>
        <time>2018-02-20T12:35:02.000Z</time>
      </trkpt>
      <trkpt lat="43.53209" lon="5.54763">
        <ele>317</ele>
        <time>2018-02-20T12:35:03.000Z</time>
      </trkpt>
      <trkpt lat="43.53209" lon="5.54764">
        <ele>317</ele>
        <time>2018-02-20T12:35:04.000Z</time>
      </trkpt>
      <trkpt lat="43.53209" lon="5.54765">
        <ele>317</ele>
        <time>2018-02-20T12:35:05.000Z</time>
      </trkpt>
      <trkpt lat="43.53209" lon="5.54765">
        <ele>317</ele>
        <time>2018-02-20T12:35:06.000Z</time>
      </trkpt>
      <trkpt lat="43.53209" lon="5.54766">
        <ele>317</ele>
        <time>2018-02-20T12:35:07.000Z</time>
      </trkpt>
      <trkpt lat="43.53209" lon="5.54766">
        <ele>316</ele>
        <time>2018-02-20T12:35:08.000Z</time>
      </trkpt>
      <trkpt lat="43.53209" lon="5.54766">
        <ele>316</ele>
        <time>2018-02-20T12:35:09.000Z</time>
      </trkpt>
      <trkpt lat="43.53209" lon="5.54767">
        <ele>316</ele>
        <time>2018-02-20T12:35:10.000Z</time>
      </trkpt>
      <trkpt lat="43.53208" lon="5.54768">
        <ele>316</ele>
        <time>2018-02-20T12:35:11.000Z</time>
      </trkpt>
      <trkpt lat="43.53208" lon="5.5477">
        <ele>316</ele>
        <time>2018-02-20T12:35:12.000Z</time>
      </trkpt>
      <trkpt lat="43.53207" lon="5.54771">
        <ele>316</ele>
        <time>2018-02-20T12:35:13.000Z</time>
      </trkpt>
      <trkpt lat="43.53207" lon="5.54772">
        <ele>315</ele>
        <time>2018-02-20T12:35:14.000Z</time>
      </trkpt>
      <trkpt lat="43.53207" lon="5.54773">
        <ele>315</ele>
        <time>2018-02-20T12:35:15.000Z</time>
      </trkpt>
      <trkpt lat="43.53206" lon="5.54774">
        <ele>315</ele>
        <time>2018-02-20T12:35:16.000Z</time>
      </trkpt>
      <trkpt lat="43.53206" lon="5.54775">
        <ele>315</ele>
        <time>2018-02-20T12:35:17.000Z</time>
      </trkpt>
      <trkpt lat="43.53206" lon="5.54777">
        <ele>315</ele>
        <time>2018-02-20T12:35:18.000Z</time>
      </trkpt>
      <trkpt lat="43.53205" lon="5.54778">
        <ele>314</ele>
        <time>2018-02-20T12:35:19.000Z</time>
      </trkpt>
      <trkpt lat="43.53205" lon="5.54779">
        <ele>314</ele>
        <time>2018-02-20T12:35:20.000Z</time>
      </trkpt>
      <trkpt lat="43.53205" lon="5.5478">
        <ele>314</ele>
        <time>2018-02-20T12:35:21.000Z</time>
      </trkpt>
      <trkpt lat="43.53204" lon="5.54781">
        <ele>314</ele>
        <time>2018-02-20T12:35:22.000Z</time>
      </trkpt>
      <trkpt lat="43.53204" lon="5.54782">
        <ele>314</ele>
        <time>2018-02-20T12:35:23.000Z</time>
      </trkpt>
      <trkpt lat="43.53203" lon="5.54784">
        <ele>314</ele>
        <time>2018-02-20T12:35:24.000Z</time>
      </trkpt>
      <trkpt lat="43.53203" lon="5.54785">
        <ele>314</ele>
        <time>2018-02-20T12:35:25.000Z</time>
      </trkpt>
      <trkpt lat="43.53203" lon="5.54786">
        <ele>313</ele>
        <time>2018-02-20T12:35:26.000Z</time>
      </trkpt>
      <trkpt lat="43.53202" lon="5.54787">
        <ele>313</ele>
        <time>2018-02-20T12:35:27.000Z</time>
      </trkpt>
      <trkpt lat="43.53202" lon="5.54788">
        <ele>313</ele>
        <time>2018-02-20T12:35:28.000Z</time>
      </trkpt>
      <trkpt lat="43.53201" lon="5.5479">
        <ele>313</ele>
        <time>2018-02-20T12:35:29.000Z</time>
      </trkpt>
      <trkpt lat="43.53201" lon="5.54791">
        <ele>313</ele>
        <time>2018-02-20T12:35:30.000Z</time>
      </trkpt>
      <trkpt lat="43.532" lon="5.54792">
        <ele>313</ele>
        <time>2018-02-20T12:35:31.000Z</time>
      </trkpt>
      <trkpt lat="43.532" lon="5.54793">
        <ele>313</ele>
        <time>2018-02-20T12:35:32.000Z</time>
      </trkpt>
      <trkpt lat="43.53199" lon="5.54794">
        <ele>313</ele>
        <time>2018-02-20T12:35:33.000Z</time>
      </trkpt>
      <trkpt lat="43.53198" lon="5.54796">
        <ele>313</ele>
        <time>2018-02-20T12:35:34.000Z</time>
      </trkpt>
      <trkpt lat="43.53197" lon="5.54797">
        <ele>313</ele>
        <time>2018-02-20T12:35:35.000Z</time>
      </trkpt>
      <trkpt lat="43.53197" lon="5.54798">
        <ele>313</ele>
        <time>2018-02-20T12:35:36.000Z</time>
      </trkpt>
      <trkpt lat="43.53196" lon="5.54799">
        <ele>313</ele>
        <time>2018-02-20T12:35:37.000Z</time>
      </trkpt>
      <trkpt lat="43.53195" lon="5.548">
        <ele>313</ele>
        <time>2018-02-20T12:35:38.000Z</time>
      </trkpt>
      <trkpt lat="43.53194" lon="5.54801">
        <ele>313</ele>
        <time>2018-02-20T12:35:39.000Z</time>
      </trkpt>
      <trkpt lat="43.53193" lon="5.54801">
        <ele>313</ele>
        <time>2018-02-20T12:35:40.000Z</time>
      </trkpt>
      <trkpt lat="43.53192" lon="5.54802">
        <ele>313</ele>
        <time>2018-02-20T12:35:41.000Z</time>
      </trkpt>
      <trkpt lat="43.53191" lon="5.54803">
        <ele>312</ele>
        <time>2018-02-20T12:35:42.000Z</time>
      </trkpt>
      <trkpt lat="43.5319" lon="5.54804">
        <ele>312</ele>
        <time>2018-02-20T12:35:43.000Z</time>
      </trkpt>
      <trkpt lat="43.53188" lon="5.54804">
        <ele>312</ele>
        <time>2018-02-20T12:35:44.000Z</time>
      </trkpt>
      <trkpt lat="43.53187" lon="5.54804">
        <ele>312</ele>
        <time>2018-02-20T12:35:45.000Z</time>
      </trkpt>
      <trkpt lat="43.53186" lon="5.54805">
        <ele>312</ele>
        <time>2018-02-20T12:35:46.000Z</time>
      </trkpt>
      <trkpt lat="43.53185" lon="5.54805">
        <ele>312</ele>
        <time>2018-02-20T12:35:47.000Z</time>
      </trkpt>
      <trkpt lat="43.53184" lon="5.54806">
        <ele>312</ele>
        <time>2018-02-20T12:35:48.000Z</time>
      </trkpt>
      <trkpt lat="43.53183" lon="5.54806">
        <ele>312</ele>
        <time>2018-02-20T12:35:49.000Z</time>
      </trkpt>
      <trkpt lat="43.53182" lon="5.54806">
        <ele>312</ele>
        <time>2018-02-20T12:35:50.000Z</time>
      </trkpt>
      <trkpt lat="43.53181" lon="5.54807">
        <ele>312</ele>
        <time>2018-02-20T12:35:51.000Z</time>
      </trkpt>
      <trkpt lat="43.5318" lon="5.54807">
        <ele>311</ele>
        <time>2018-02-20T12:35:52.000Z</time>
      </trkpt>
      <trkpt lat="43.53179" lon="5.54807">
        <ele>311</ele>
        <time>2018-02-20T12:35:53.000Z</time>
      </trkpt>
      <trkpt lat="43.53178" lon="5.54807">
        <ele>311</ele>
        <time>2018-02-20T12:35:54.000Z</time>
      </trkpt>
      <trkpt lat="43.53177" lon="5.54807">
        <ele>311</ele>
        <time>2018-02-20T12:35:55.000Z</time>
      </trkpt>
      <trkpt lat="43.53175" lon="5.54807">
        <ele>310</ele>
        <time>2018-02-20T12:35:56.000Z</time>
      </trkpt>
      <trkpt lat="43.53174" lon="5.54807">
        <ele>310</ele>
        <time>2018-02-20T12:35:57.000Z</time>
      </trkpt>
      <trkpt lat="43.53173" lon="5.54807">
        <ele>310</ele>
        <time>2018-02-20T12:35:58.000Z</time>
      </trkpt>
      <trkpt lat="43.53172" lon="5.54807">
        <ele>310</ele>
        <time>2018-02-20T12:35:59.000Z</time>
      </trkpt>
      <trkpt lat="43.53171" lon="5.54806">
        <ele>309</ele>
        <time>2018-02-20T12:36:00.000Z</time>
      </trkpt>
      <trkpt lat="43.53169" lon="5.54806">
        <ele>309</ele>
        <time>2018-02-20T12:36:01.000Z</time>
      </trkpt>
      <trkpt lat="43.53168" lon="5.54806">
        <ele>309</ele>
        <time>2018-02-20T12:36:02.000Z</time>
      </trkpt>
      <trkpt lat="43.53168" lon="5.54805">
        <ele>309</ele>
        <time>2018-02-20T12:36:03.000Z</time>
      </trkpt>
      <trkpt lat="43.53167" lon="5.54805">
        <ele>308</ele>
        <time>2018-02-20T12:36:04.000Z</time>
      </trkpt>
      <trkpt lat="43.53166" lon="5.54805">
        <ele>308</ele>
        <time>2018-02-20T12:36:05.000Z</time>
      </trkpt>
      <trkpt lat="43.53165" lon="5.54804">
        <ele>308</ele>
        <time>2018-02-20T12:36:06.000Z</time>
      </trkpt>
      <trkpt lat="43.53164" lon="5.54804">
        <ele>308</ele>
        <time>2018-02-20T12:36:07.000Z</time>
      </trkpt>
      <trkpt lat="43.53163" lon="5.54804">
        <ele>308</ele>
        <time>2018-02-20T12:36:08.000Z</time>
      </trkpt>
      <trkpt lat="43.53162" lon="5.54803">
        <ele>307</ele>
        <time>2018-02-20T12:36:09.000Z</time>
      </trkpt>
      <trkpt lat="43.53161" lon="5.54803">
        <ele>307</ele>
        <time>2018-02-20T12:36:10.000Z</time>
      </trkpt>
      <trkpt lat="43.5316" lon="5.54803">
        <ele>307</ele>
        <time>2018-02-20T12:36:11.000Z</time>
      </trkpt>
      <trkpt lat="43.53159" lon="5.54802">
        <ele>307</ele>
        <time>2018-02-20T12:36:12.000Z</time>
      </trkpt>
      <trkpt lat="43.53158" lon="5.54802">
        <ele>307</ele>
        <time>2018-02-20T12:36:13.000Z</time>
      </trkpt>
      <trkpt lat="43.53157" lon="5.54802">
        <ele>307</ele>
        <time>2018-02-20T12:36:14.000Z</time>
      </trkpt>
      <trkpt lat="43.53155" lon="5.54801">
        <ele>306</ele>
        <time>2018-02-20T12:36:15.000Z</time>
      </trkpt>
      <trkpt lat="43.53154" lon="5.54801">
        <ele>306</ele>
        <time>2018-02-20T12:36:16.000Z</time>
      </trkpt>
      <trkpt lat="43.53153" lon="5.54801">
        <ele>306</ele>
        <time>2018-02-20T12:36:17.000Z</time>
      </trkpt>
      <trkpt lat="43.53152" lon="5.54801">
        <ele>306</ele>
        <time>2018-02-20T12:36:18.000Z</time>
      </trkpt>
      <trkpt lat="43.53152" lon="5.54801">
        <ele>305</ele>
        <time>2018-02-20T12:36:19.000Z</time>
      </trkpt>
      <trkpt lat="43.53151" lon="5.54802">
        <ele>305</ele>
        <time>2018-02-20T12:36:20.000Z</time>
      </trkpt>
      <trkpt lat="43.5315" lon="5.54802">
        <ele>305</ele>
        <time>2018-02-20T12:36:21.000Z</time>
      </trkpt>
      <trkpt lat="43.53149" lon="5.54802">
        <ele>305</ele>
        <time>2018-02-20T12:36:22.000Z</time>
      </trkpt>
      <trkpt lat="43.53148" lon="5.54803">
        <ele>305</ele>
        <time>2018-02-20T12:36:23.000Z</time>
      </trkpt>
      <trkpt lat="43.53147" lon="5.54803">
        <ele>305</ele>
        <time>2018-02-20T12:36:24.000Z</time>
      </trkpt>
      <trkpt lat="43.53146" lon="5.54804">
        <ele>304</ele>
        <time>2018-02-20T12:36:25.000Z</time>
      </trkpt>
      <trkpt lat="43.53146" lon="5.54804">
        <ele>304</ele>
        <time>2018-02-20T12:36:26.000Z</time>
      </trkpt>
      <trkpt lat="43.53145" lon="5.54805">
        <ele>304</ele>
        <time>2018-02-20T12:36:27.000Z</time>
      </trkpt>
      <trkpt lat="43.53144" lon="5.54805">
        <ele>304</ele>
        <time>2018-02-20T12:36:28.000Z</time>
      </trkpt>
      <trkpt lat="43.53143" lon="5.54806">
        <ele>304</ele>
        <time>2018-02-20T12:36:29.000Z</time>
      </trkpt>
      <trkpt lat="43.53142" lon="5.54806">
        <ele>303</ele>
        <time>2018-02-20T12:36:30.000Z</time>
      </trkpt>
      <trkpt lat="43.53141" lon="5.54807">
        <ele>303</ele>
        <time>2018-02-20T12:36:31.000Z</time>
      </trkpt>
      <trkpt lat="43.5314" lon="5.54807">
        <ele>303</ele>
        <time>2018-02-20T12:36:32.000Z</time>
      </trkpt>
      <trkpt lat="43.53139" lon="5.54808">
        <ele>303</ele>
        <time>2018-02-20T12:36:33.000Z</time>
      </trkpt>
      <trkpt lat="43.53138" lon="5.54809">
        <ele>303</ele>
        <time>2018-02-20T12:36:34.000Z</time>
      </trkpt>
      <trkpt lat="43.53137" lon="5.54809">
        <ele>303</ele>
        <time>2018-02-20T12:36:35.000Z</time>
      </trkpt>
      <trkpt lat="43.53137" lon="5.5481">
        <ele>303</ele>
        <time>2018-02-20T12:36:36.000Z</time>
      </trkpt>
      <trkpt lat="43.53136" lon="5.5481">
        <ele>303</ele>
        <time>2018-02-20T12:36:37.000Z</time>
      </trkpt>
      <trkpt lat="43.53135" lon="5.54811">
        <ele>303</ele>
        <time>2018-02-20T12:36:38.000Z</time>
      </trkpt>
      <trkpt lat="43.53134" lon="5.54811">
        <ele>303</ele>
        <time>2018-02-20T12:36:39.000Z</time>
      </trkpt>
      <trkpt lat="43.53133" lon="5.54811">
        <ele>303</ele>
        <time>2018-02-20T12:36:40.000Z</time>
      </trkpt>
      <trkpt lat="43.53132" lon="5.54812">
        <ele>303</ele>
        <time>2018-02-20T12:36:41.000Z</time>
      </trkpt>
      <trkpt lat="43.53131" lon="5.54812">
        <ele>303</ele>
        <time>2018-02-20T12:36:42.000Z</time>
      </trkpt>
      <trkpt lat="43.5313" lon="5.54812">
        <ele>303</ele>
        <time>2018-02-20T12:36:43.000Z</time>
      </trkpt>
      <trkpt lat="43.53129" lon="5.54813">
        <ele>303</ele>
        <time>2018-02-20T12:36:44.000Z</time>
      </trkpt>
      <trkpt lat="43.53128" lon="5.54813">
        <ele>303</ele>
        <time>2018-02-20T12:36:45.000Z</time>
      </trkpt>
      <trkpt lat="43.53127" lon="5.54814">
        <ele>303</ele>
        <time>2018-02-20T12:36:46.000Z</time>
      </trkpt>
      <trkpt lat="43.53126" lon="5.54815">
        <ele>303</ele>
        <time>2018-02-20T12:36:47.000Z</time>
      </trkpt>
      <trkpt lat="43.53125" lon="5.54815">
        <ele>303</ele>
        <time>2018-02-20T12:36:48.000Z</time>
      </trkpt>
      <trkpt lat="43.53124" lon="5.54816">
        <ele>303</ele>
        <time>2018-02-20T12:36:49.000Z</time>
      </trkpt>
      <trkpt lat="43.53123" lon="5.54817">
        <ele>303</ele>
        <time>2018-02-20T12:36:50.000Z</time>
      </trkpt>
      <trkpt lat="43.53122" lon="5.54817">
        <ele>303</ele>
        <time>2018-02-20T12:36:51.000Z</time>
      </trkpt>
      <trkpt lat="43.53121" lon="5.54818">
        <ele>303</ele>
        <time>2018-02-20T12:36:52.000Z</time>
      </trkpt>
      <trkpt lat="43.5312" lon="5.54818">
        <ele>303</ele>
        <time>2018-02-20T12:36:53.000Z</time>
      </trkpt>
      <trkpt lat="43.53119" lon="5.54819">
        <ele>303</ele>
        <time>2018-02-20T12:36:54.000Z</time>
      </trkpt>
      <trkpt lat="43.53118" lon="5.54819">
        <ele>303</ele>
        <time>2018-02-20T12:36:55.000Z</time>
      </trkpt>
      <trkpt lat="43.53116" lon="5.5482">
        <ele>303</ele>
        <time>2018-02-20T12:36:56.000Z</time>
      </trkpt>
      <trkpt lat="43.53115" lon="5.54821">
        <ele>303</ele>
        <time>2018-02-20T12:36:57.000Z</time>
      </trkpt>
      <trkpt lat="43.53114" lon="5.54821">
        <ele>303</ele>
        <time>2018-02-20T12:36:58.000Z</time>
      </trkpt>
      <trkpt lat="43.53113" lon="5.54822">
        <ele>303</ele>
        <time>2018-02-20T12:36:59.000Z</time>
      </trkpt>
      <trkpt lat="43.53112" lon="5.54823">
        <ele>303</ele>
        <time>2018-02-20T12:37:00.000Z</time>
      </trkpt>
      <trkpt lat="43.53111" lon="5.54824">
        <ele>303</ele>
        <time>2018-02-20T12:37:01.000Z</time>
      </trkpt>
      <trkpt lat="43.5311" lon="5.54824">
        <ele>303</ele>
        <time>2018-02-20T12:37:02.000Z</time>
      </trkpt>
      <trkpt lat="43.53109" lon="5.54825">
        <ele>303</ele>
        <time>2018-02-20T12:37:03.000Z</time>
      </trkpt>
      <trkpt lat="43.53108" lon="5.54826">
        <ele>303</ele>
        <time>2018-02-20T12:37:04.000Z</time>
      </trkpt>
      <trkpt lat="43.53107" lon="5.54826">
        <ele>303</ele>
        <time>2018-02-20T12:37:05.000Z</time>
      </trkpt>
      <trkpt lat="43.53106" lon="5.54827">
        <ele>302</ele>
        <time>2018-02-20T12:37:06.000Z</time>
      </trkpt>
      <trkpt lat="43.53105" lon="5.54827">
        <ele>302</ele>
        <time>2018-02-20T12:37:07.000Z</time>
      </trkpt>
      <trkpt lat="43.53104" lon="5.54828">
        <ele>302</ele>
        <time>2018-02-20T12:37:08.000Z</time>
      </trkpt>
      <trkpt lat="43.53103" lon="5.54828">
        <ele>302</ele>
        <time>2018-02-20T12:37:09.000Z</time>
      </trkpt>
      <trkpt lat="43.53102" lon="5.54829">
        <ele>302</ele>
        <time>2018-02-20T12:37:10.000Z</time>
      </trkpt>
      <trkpt lat="43.53101" lon="5.54829">
        <ele>302</ele>
        <time>2018-02-20T12:37:11.000Z</time>
      </trkpt>
      <trkpt lat="43.531" lon="5.54829">
        <ele>301</ele>
        <time>2018-02-20T12:37:12.000Z</time>
      </trkpt>
      <trkpt lat="43.53099" lon="5.54829">
        <ele>301</ele>
        <time>2018-02-20T12:37:13.000Z</time>
      </trkpt>
      <trkpt lat="43.53098" lon="5.54829">
        <ele>301</ele>
        <time>2018-02-20T12:37:14.000Z</time>
      </trkpt>
      <trkpt lat="43.53097" lon="5.5483">
        <ele>300</ele>
        <time>2018-02-20T12:37:15.000Z</time>
      </trkpt>
      <trkpt lat="43.53095" lon="5.5483">
        <ele>300</ele>
        <time>2018-02-20T12:37:16.000Z</time>
      </trkpt>
      <trkpt lat="43.53094" lon="5.5483">
        <ele>300</ele>
        <time>2018-02-20T12:37:17.000Z</time>
      </trkpt>
      <trkpt lat="43.53093" lon="5.5483">
        <ele>300</ele>
        <time>2018-02-20T12:37:18.000Z</time>
      </trkpt>
      <trkpt lat="43.53092" lon="5.5483">
        <ele>299</ele>
        <time>2018-02-20T12:37:19.000Z</time>
      </trkpt>
      <trkpt lat="43.5309" lon="5.5483">
        <ele>299</ele>
        <time>2018-02-20T12:37:20.000Z</time>
      </trkpt>
      <trkpt lat="43.53089" lon="5.5483">
        <ele>299</ele>
        <time>2018-02-20T12:37:21.000Z</time>
      </trkpt>
      <trkpt lat="43.53087" lon="5.54829">
        <ele>298</ele>
        <time>2018-02-20T12:37:22.000Z</time>
      </trkpt>
      <trkpt lat="43.53086" lon="5.54829">
        <ele>298</ele>
        <time>2018-02-20T12:37:23.000Z</time>
      </trkpt>
      <trkpt lat="43.53085" lon="5.54829">
        <ele>298</ele>
        <time>2018-02-20T12:37:24.000Z</time>
      </trkpt>
      <trkpt lat="43.53084" lon="5.54829">
        <ele>297</ele>
        <time>2018-02-20T12:37:25.000Z</time>
      </trkpt>
      <trkpt lat="43.53083" lon="5.54829">
        <ele>297</ele>
        <time>2018-02-20T12:37:26.000Z</time>
      </trkpt>
      <trkpt lat="43.53082" lon="5.54829">
        <ele>297</ele>
        <time>2018-02-20T12:37:27.000Z</time>
      </trkpt>
      <trkpt lat="43.53081" lon="5.54829">
        <ele>297</ele>
        <time>2018-02-20T12:37:28.000Z</time>
      </trkpt>
      <trkpt lat="43.5308" lon="5.5483">
        <ele>296</ele>
        <time>2018-02-20T12:37:29.000Z</time>
      </trkpt>
      <trkpt lat="43.53078" lon="5.5483">
        <ele>296</ele>
        <time>2018-02-20T12:37:30.000Z</time>
      </trkpt>
      <trkpt lat="43.53077" lon="5.54831">
        <ele>296</ele>
        <time>2018-02-20T12:37:31.000Z</time>
      </trkpt>
      <trkpt lat="43.53076" lon="5.54831">
        <ele>296</ele>
        <time>2018-02-20T12:37:32.000Z</time>
      </trkpt>
      <trkpt lat="43.53075" lon="5.54832">
        <ele>296</ele>
        <time>2018-02-20T12:37:33.000Z</time>
      </trkpt>
      <trkpt lat="43.53074" lon="5.54832">
        <ele>296</ele>
        <time>2018-02-20T12:37:34.000Z</time>
      </trkpt>
      <trkpt lat="43.53072" lon="5.54832">
        <ele>296</ele>
        <time>2018-02-20T12:37:35.000Z</time>
      </trkpt>
      <trkpt lat="43.53071" lon="5.54833">
        <ele>296</ele>
        <time>2018-02-20T12:37:36.000Z</time>
      </trkpt>
      <trkpt lat="43.5307" lon="5.54833">
        <ele>296</ele>
        <time>2018-02-20T12:37:37.000Z</time>
      </trkpt>
      <trkpt lat="43.53069" lon="5.54834">
        <ele>296</ele>
        <time>2018-02-20T12:37:38.000Z</time>
      </trkpt>
      <trkpt lat="43.53068" lon="5.54835">
        <ele>295</ele>
        <time>2018-02-20T12:37:39.000Z</time>
      </trkpt>
      <trkpt lat="43.53067" lon="5.54836">
        <ele>295</ele>
        <time>2018-02-20T12:37:40.000Z</time>
      </trkpt>
      <trkpt lat="43.53066" lon="5.54837">
        <ele>295</ele>
        <time>2018-02-20T12:37:41.000Z</time>
      </trkpt>
      <trkpt lat="43.53065" lon="5.54837">
        <ele>295</ele>
        <time>2018-02-20T12:37:42.000Z</time>
      </trkpt>
      <trkpt lat="43.53065" lon="5.54838">
        <ele>295</ele>
        <time>2018-02-20T12:37:43.000Z</time>
      </trkpt>
      <trkpt lat="43.53064" lon="5.54839">
        <ele>295</ele>
        <time>2018-02-20T12:37:44.000Z</time>
      </trkpt>
      <trkpt lat="43.53064" lon="5.5484">
        <ele>294</ele>
        <time>2018-02-20T12:37:45.000Z</time>
      </trkpt>
      <trkpt lat="43.53063" lon="5.54841">
        <ele>294</ele>
        <time>2018-02-20T12:37:46.000Z</time>
      </trkpt>
      <trkpt lat="43.53063" lon="5.54843">
        <ele>294</ele>
        <time>2018-02-20T12:37:47.000Z</time>
      </trkpt>
      <trkpt lat="43.53062" lon="5.54844">
        <ele>294</ele>
        <time>2018-02-20T12:37:48.000Z</time>
      </trkpt>
      <trkpt lat="43.53061" lon="5.54845">
        <ele>294</ele>
        <time>2018-02-20T12:37:49.000Z</time>
      </trkpt>
      <trkpt lat="43.53061" lon="5.54846">
        <ele>293</ele>
        <time>2018-02-20T12:37:50.000Z</time>
      </trkpt>
      <trkpt lat="43.5306" lon="5.54847">
        <ele>293</ele>
        <time>2018-02-20T12:37:51.000Z</time>
      </trkpt>
      <trkpt lat="43.53059" lon="5.54848">
        <ele>293</ele>
        <time>2018-02-20T12:37:52.000Z</time>
      </trkpt>
      <trkpt lat="43.53058" lon="5.54849">
        <ele>293</ele>
        <time>2018-02-20T12:37:53.000Z</time>
      </trkpt>
      <trkpt lat="43.53058" lon="5.5485">
        <ele>292</ele>
        <time>2018-02-20T12:37:54.000Z</time>
      </trkpt>
      <trkpt lat="43.53057" lon="5.54851">
        <ele>292</ele>
        <time>2018-02-20T12:37:55.000Z</time>
      </trkpt>
      <trkpt lat="43.53056" lon="5.54852">
        <ele>292</ele>
        <time>2018-02-20T12:37:56.000Z</time>
      </trkpt>
      <trkpt lat="43.53055" lon="5.54854">
        <ele>292</ele>
        <time>2018-02-20T12:37:57.000Z</time>
      </trkpt>
      <trkpt lat="43.53054" lon="5.54855">
        <ele>292</ele>
        <time>2018-02-20T12:37:58.000Z</time>
      </trkpt>
      <trkpt lat="43.53053" lon="5.54856">
        <ele>292</ele>
        <time>2018-02-20T12:37:59.000Z</time>
      </trkpt>
      <trkpt lat="43.53053" lon="5.54858">
        <ele>292</ele>
        <time>2018-02-20T12:38:00.000Z</time>
      </trkpt>
      <trkpt lat="43.53052" lon="5.54859">
        <ele>291</ele>
        <time>2018-02-20T12:38:01.000Z</time>
      </trkpt>
      <trkpt lat="43.53051" lon="5.5486">
        <ele>291</ele>
        <time>2018-02-20T12:38:02.000Z</time>
      </trkpt>
      <trkpt lat="43.5305" lon="5.54861">
        <ele>291</ele>
        <time>2018-02-20T12:38:03.000Z</time>
      </trkpt>
      <trkpt lat="43.53049" lon="5.54863">
        <ele>291</ele>
        <time>2018-02-20T12:38:04.000Z</time>
      </trkpt>
      <trkpt lat="43.53048" lon="5.54864">
        <ele>291</ele>
        <time>2018-02-20T12:38:05.000Z</time>
      </trkpt>
      <trkpt lat="43.53047" lon="5.54866">
        <ele>290</ele>
        <time>2018-02-20T12:38:06.000Z</time>
      </trkpt>
      <trkpt lat="43.53046" lon="5.54867">
        <ele>290</ele>
        <time>2018-02-20T12:38:07.000Z</time>
      </trkpt>
      <trkpt lat="43.53045" lon="5.54868">
        <ele>290</ele>
        <time>2018-02-20T12:38:08.000Z</time>
      </trkpt>
      <trkpt lat="43.53044" lon="5.54869">
        <ele>290</ele>
        <time>2018-02-20T12:38:09.000Z</time>
      </trkpt>
      <trkpt lat="43.53043" lon="5.5487">
        <ele>289</ele>
        <time>2018-02-20T12:38:10.000Z</time>
      </trkpt>
      <trkpt lat="43.53042" lon="5.54871">
        <ele>289</ele>
        <time>2018-02-20T12:38:11.000Z</time>
      </trkpt>
      <trkpt lat="43.53041" lon="5.54872">
        <ele>289</ele>
        <time>2018-02-20T12:38:12.000Z</time>
      </trkpt>
      <trkpt lat="43.5304" lon="5.54873">
        <ele>289</ele>
        <time>2018-02-20T12:38:13.000Z</time>
      </trkpt>
      <trkpt lat="43.53039" lon="5.54874">
        <ele>288</ele>
        <time>2018-02-20T12:38:14.000Z</time>
      </trkpt>
      <trkpt lat="43.53037" lon="5.54875">
        <ele>288</ele>
        <time>2018-02-20T12:38:15.000Z</time>
      </trkpt>
      <trkpt lat="43.53036" lon="5.54876">
        <ele>288</ele>
        <time>2018-02-20T12:38:16.000Z</time>
      </trkpt>
      <trkpt lat="43.53035" lon="5.54877">
        <ele>287</ele>
        <time>2018-02-20T12:38:17.000Z</time>
      </trkpt>
      <trkpt lat="43.53034" lon="5.54878">
        <ele>287</ele>
        <time>2018-02-20T12:38:18.000Z</time>
      </trkpt>
      <trkpt lat="43.53033" lon="5.54879">
        <ele>287</ele>
        <time>2018-02-20T12:38:19.000Z</time>
      </trkpt>
      <trkpt lat="43.53032" lon="5.54879">
        <ele>286</ele>
        <time>2018-02-20T12:38:20.000Z</time>
      </trkpt>
      <trkpt lat="43.53032" lon="5.5488">
        <ele>286</ele>
        <time>2018-02-20T12:38:21.000Z</time>
      </trkpt>
      <trkpt lat="43.53031" lon="5.54881">
        <ele>286</ele>
        <time>2018-02-20T12:38:22.000Z</time>
      </trkpt>
      <trkpt lat="43.5303" lon="5.54881">
        <ele>286</ele>
        <time>2018-02-20T12:38:23.000Z</time>
      </trkpt>
      <trkpt lat="43.53029" lon="5.54882">
        <ele>285</ele>
        <time>2018-02-20T12:38:24.000Z</time>
      </trkpt>
      <trkpt lat="43.53029" lon="5.54883">
        <ele>285</ele>
        <time>2018-02-20T12:38:25.000Z</time>
      </trkpt>
      <trkpt lat="43.53028" lon="5.54883">
        <ele>285</ele>
        <time>2018-02-20T12:38:26.000Z</time>
      </trkpt>
      <trkpt lat="43.53027" lon="5.54884">
        <ele>285</ele>
        <time>2018-02-20T12:38:27.000Z</time>
      </trkpt>
      <trkpt lat="43.53026" lon="5.54884">
        <ele>284</ele>
        <time>2018-02-20T12:38:28.000Z</time>
      </trkpt>
      <trkpt lat="43.53025" lon="5.54886">
        <ele>284</ele>
        <time>2018-02-20T12:38:29.000Z</time>
      </trkpt>
      <trkpt lat="43.53024" lon="5.54887">
        <ele>284</ele>
        <time>2018-02-20T12:38:30.000Z</time>
      </trkpt>
      <trkpt lat="43.53023" lon="5.54888">
        <ele>284</ele>
        <time>2018-02-20T12:38:31.000Z</time>
      </trkpt>
      <trkpt lat="43.53023" lon="5.54888">
        <ele>283</ele>
        <time>2018-02-20T12:38:32.000Z</time>
      </trkpt>
      <trkpt lat="43.53022" lon="5.54889">
        <ele>283</ele>
        <time>2018-02-20T12:38:33.000Z</time>
      </trkpt>
      <trkpt lat="43.53021" lon="5.54889">
        <ele>283</ele>
        <time>2018-02-20T12:38:34.000Z</time>
      </trkpt>
      <trkpt lat="43.5302" lon="5.5489">
        <ele>283</ele>
        <time>2018-02-20T12:38:35.000Z</time>
      </trkpt>
      <trkpt lat="43.53019" lon="5.5489">
        <ele>283</ele>
        <time>2018-02-20T12:38:36.000Z</time>
      </trkpt>
      <trkpt lat="43.53018" lon="5.54891">
        <ele>283</ele>
        <time>2018-02-20T12:38:37.000Z</time>
      </trkpt>
      <trkpt lat="43.53017" lon="5.54893">
        <ele>283</ele>
        <time>2018-02-20T12:38:38.000Z</time>
      </trkpt>
      <trkpt lat="43.53016" lon="5.54895">
        <ele>282</ele>
        <time>2018-02-20T12:38:39.000Z</time>
      </trkpt>
      <trkpt lat="43.53015" lon="5.54896">
        <ele>282</ele>
        <time>2018-02-20T12:38:40.000Z</time>
      </trkpt>
      <trkpt lat="43.53014" lon="5.54898">
        <ele>282</ele>
        <time>2018-02-20T12:38:41.000Z</time>
      </trkpt>
      <trkpt lat="43.53014" lon="5.54899">
        <ele>282</ele>
        <time>2018-02-20T12:38:42.000Z</time>
      </trkpt>
      <trkpt lat="43.53013" lon="5.54901">
        <ele>282</ele>
        <time>2018-02-20T12:38:43.000Z</time>
      </trkpt>
      <trkpt lat="43.53013" lon="5.54902">
        <ele>282</ele>
        <time>2018-02-20T12:38:44.000Z</time>
      </trkpt>
      <trkpt lat="43.53013" lon="5.54903">
        <ele>282</ele>
        <time>2018-02-20T12:38:45.000Z</time>
      </trkpt>
      <trkpt lat="43.53013" lon="5.54905">
        <ele>282</ele>
        <time>2018-02-20T12:38:46.000Z</time>
      </trkpt>
      <trkpt lat="43.53013" lon="5.54906">
        <ele>282</ele>
        <time>2018-02-20T12:38:47.000Z</time>
      </trkpt>
      <trkpt lat="43.53012" lon="5.54907">
        <ele>282</ele>
        <time>2018-02-20T12:38:48.000Z</time>
      </trkpt>
      <trkpt lat="43.53012" lon="5.54907">
        <ele>282</ele>
        <time>2018-02-20T12:38:49.000Z</time>
      </trkpt>
      <trkpt lat="43.53012" lon="5.54908">
        <ele>282</ele>
        <time>2018-02-20T12:38:50.000Z</time>
      </trkpt>
      <trkpt lat="43.53012" lon="5.54909">
        <ele>282</ele>
        <time>2018-02-20T12:38:51.000Z</time>
      </trkpt>
      <trkpt lat="43.53011" lon="5.5491">
        <ele>282</ele>
        <time>2018-02-20T12:38:52.000Z</time>
      </trkpt>
      <trkpt lat="43.53011" lon="5.54911">
        <ele>282</ele>
        <time>2018-02-20T12:38:53.000Z</time>
      </trkpt>
      <trkpt lat="43.53011" lon="5.54912">
        <ele>282</ele>
        <time>2018-02-20T12:38:54.000Z</time>
      </trkpt>
      <trkpt lat="43.53011" lon="5.54914">
        <ele>282</ele>
        <time>2018-02-20T12:38:55.000Z</time>
      </trkpt>
      <trkpt lat="43.5301" lon="5.54915">
        <ele>282</ele>
        <time>2018-02-20T12:38:56.000Z</time>
      </trkpt>
      <trkpt lat="43.5301" lon="5.54916">
        <ele>281</ele>
        <time>2018-02-20T12:38:57.000Z</time>
      </trkpt>
      <trkpt lat="43.5301" lon="5.54917">
        <ele>281</ele>
        <time>2018-02-20T12:38:58.000Z</time>
      </trkpt>
      <trkpt lat="43.5301" lon="5.54918">
        <ele>281</ele>
        <time>2018-02-20T12:38:59.000Z</time>
      </trkpt>
      <trkpt lat="43.53011" lon="5.54919">
        <ele>281</ele>
        <time>2018-02-20T12:39:00.000Z</time>
      </trkpt>
      <trkpt lat="43.53011" lon="5.5492">
        <ele>281</ele>
        <time>2018-02-20T12:39:01.000Z</time>
      </trkpt>
      <trkpt lat="43.53012" lon="5.5492">
        <ele>281</ele>
        <time>2018-02-20T12:39:02.000Z</time>
      </trkpt>
      <trkpt lat="43.53012" lon="5.54921">
        <ele>281</ele>
        <time>2018-02-20T12:39:03.000Z</time>
      </trkpt>
      <trkpt lat="43.53013" lon="5.54921">
        <ele>281</ele>
        <time>2018-02-20T12:39:04.000Z</time>
      </trkpt>
      <trkpt lat="43.53013" lon="5.54922">
        <ele>281</ele>
        <time>2018-02-20T12:39:05.000Z</time>
      </trkpt>
      <trkpt lat="43.53014" lon="5.54923">
        <ele>281</ele>
        <time>2018-02-20T12:39:06.000Z</time>
      </trkpt>
      <trkpt lat="43.53014" lon="5.54923">
        <ele>280</ele>
        <time>2018-02-20T12:39:07.000Z</time>
      </trkpt>
      <trkpt lat="43.53014" lon="5.54923">
        <ele>280</ele>
        <time>2018-02-20T12:39:08.000Z</time>
      </trkpt>
      <trkpt lat="43.53015" lon="5.54923">
        <ele>280</ele>
        <time>2018-02-20T12:39:09.000Z</time>
      </trkpt>
      <trkpt lat="43.53016" lon="5.54924">
        <ele>280</ele>
        <time>2018-02-20T12:39:10.000Z</time>
      </trkpt>
      <trkpt lat="43.53016" lon="5.54924">
        <ele>280</ele>
        <time>2018-02-20T12:39:11.000Z</time>
      </trkpt>
      <trkpt lat="43.53016" lon="5.54924">
        <ele>280</ele>
        <time>2018-02-20T12:39:12.000Z</time>
      </trkpt>
      <trkpt lat="43.53015" lon="5.54925">
        <ele>279</ele>
        <time>2018-02-20T12:39:13.000Z</time>
      </trkpt>
      <trkpt lat="43.53015" lon="5.54926">
        <ele>279</ele>
        <time>2018-02-20T12:39:14.000Z</time>
      </trkpt>
      <trkpt lat="43.53014" lon="5.54927">
        <ele>279</ele>
        <time>2018-02-20T12:39:15.000Z</time>
      </trkpt>
      <trkpt lat="43.53013" lon="5.54928">
        <ele>279</ele>
        <time>2018-02-20T12:39:16.000Z</time>
      </trkpt>
      <trkpt lat="43.53012" lon="5.54929">
        <ele>279</ele>
        <time>2018-02-20T12:39:17.000Z</time>
      </trkpt>
      <trkpt lat="43.53011" lon="5.5493">
        <ele>278</ele>
        <time>2018-02-20T12:39:18.000Z</time>
      </trkpt>
      <trkpt lat="43.5301" lon="5.54931">
        <ele>278</ele>
        <time>2018-02-20T12:39:19.000Z</time>
      </trkpt>
      <trkpt lat="43.5301" lon="5.54933">
        <ele>278</ele>
        <time>2018-02-20T12:39:20.000Z</time>
      </trkpt>
      <trkpt lat="43.53009" lon="5.54934">
        <ele>278</ele>
        <time>2018-02-20T12:39:21.000Z</time>
      </trkpt>
      <trkpt lat="43.53009" lon="5.54935">
        <ele>278</ele>
        <time>2018-02-20T12:39:22.000Z</time>
      </trkpt>
      <trkpt lat="43.53008" lon="5.54935">
        <ele>278</ele>
        <time>2018-02-20T12:39:23.000Z</time>
      </trkpt>
      <trkpt lat="43.53008" lon="5.54935">
        <ele>278</ele>
        <time>2018-02-20T12:39:24.000Z</time>
      </trkpt>
      <trkpt lat="43.53008" lon="5.54935">
        <ele>277</ele>
        <time>2018-02-20T12:39:25.000Z</time>
      </trkpt>
      <trkpt lat="43.53008" lon="5.54935">
        <ele>277</ele>
        <time>2018-02-20T12:39:26.000Z</time>
      </trkpt>
      <trkpt lat="43.53008" lon="5.54936">
        <ele>277</ele>
        <time>2018-02-20T12:39:27.000Z</time>
      </trkpt>
      <trkpt lat="43.53008" lon="5.54935">
        <ele>277</ele>
        <time>2018-02-20T12:39:28.000Z</time>
      </trkpt>
      <trkpt lat="43.53008" lon="5.54934">
        <ele>277</ele>
        <time>2018-02-20T12:39:29.000Z</time>
      </trkpt>
      <trkpt lat="43.53008" lon="5.54934">
        <ele>277</ele>
        <time>2018-02-20T12:39:30.000Z</time>
      </trkpt>
      <trkpt lat="43.53008" lon="5.54934">
        <ele>277</ele>
        <time>2018-02-20T12:39:31.000Z</time>
      </trkpt>
      <trkpt lat="43.53008" lon="5.54934">
        <ele>277</ele>
        <time>2018-02-20T12:39:32.000Z</time>
      </trkpt>
      <trkpt lat="43.53008" lon="5.54934">
        <ele>277</ele>
        <time>2018-02-20T12:39:33.000Z</time>
      </trkpt>
      <trkpt lat="43.53008" lon="5.54934">
        <ele>277</ele>
        <time>2018-02-20T12:39:34.000Z</time>
      </trkpt>
      <trkpt lat="43.53008" lon="5.54934">
        <ele>277</ele>
        <time>2018-02-20T12:39:35.000Z</time>
      </trkpt>
      <trkpt lat="43.53008" lon="5.54934">
        <ele>277</ele>
        <time>2018-02-20T12:39:36.000Z</time>
      </trkpt>
      <trkpt lat="43.53008" lon="5.54934">
        <ele>277</ele>
        <time>2018-02-20T12:39:37.000Z</time>
      </trkpt>
      <trkpt lat="43.53008" lon="5.54934">
        <ele>277</ele>
        <time>2018-02-20T12:39:38.000Z</time>
      </trkpt>
      <trkpt lat="43.53008" lon="5.54934">
        <ele>277</ele>
        <time>2018-02-20T12:39:39.000Z</time>
      </trkpt>
      <trkpt lat="43.53008" lon="5.54933">
        <ele>277</ele>
        <time>2018-02-20T12:39:40.000Z</time>
      </trkpt>
      <trkpt lat="43.53009" lon="5.54933">
        <ele>277</ele>
        <time>2018-02-20T12:39:41.000Z</time>
      </trkpt>
      <trkpt lat="43.53009" lon="5.54932">
        <ele>276</ele>
        <time>2018-02-20T12:39:42.000Z</time>
      </trkpt>
      <trkpt lat="43.53009" lon="5.54932">
        <ele>276</ele>
        <time>2018-02-20T12:39:43.000Z</time>
      </trkpt>
      <trkpt lat="43.53009" lon="5.54931">
        <ele>276</ele>
        <time>2018-02-20T12:39:44.000Z</time>
      </trkpt>
      <trkpt lat="43.53009" lon="5.5493">
        <ele>276</ele>
        <time>2018-02-20T12:39:45.000Z</time>
      </trkpt>
      <trkpt lat="43.5301" lon="5.54929">
        <ele>276</ele>
        <time>2018-02-20T12:39:46.000Z</time>
      </trkpt>
      <trkpt lat="43.5301" lon="5.5493">
        <ele>275</ele>
        <time>2018-02-20T12:39:47.000Z</time>
      </trkpt>
      <trkpt lat="43.5301" lon="5.5493">
        <ele>275</ele>
        <time>2018-02-20T12:39:48.000Z</time>
      </trkpt>
      <trkpt lat="43.5301" lon="5.5493">
        <ele>275</ele>
        <time>2018-02-20T12:39:49.000Z</time>
      </trkpt>
      <trkpt lat="43.5301" lon="5.5493">
        <ele>275</ele>
        <time>2018-02-20T12:39:50.000Z</time>
      </trkpt>
      <trkpt lat="43.5301" lon="5.5493">
        <ele>275</ele>
        <time>2018-02-20T12:39:51.000Z</time>
      </trkpt>
      <trkpt lat="43.5301" lon="5.5493">
        <ele>275</ele>
        <time>2018-02-20T12:39:52.000Z</time>
      </trkpt>
      <trkpt lat="43.5301" lon="5.5493">
        <ele>275</ele>
        <time>2018-02-20T12:39:53.000Z</time>
      </trkpt>
      <trkpt lat="43.5301" lon="5.5493">
        <ele>274</ele>
        <time>2018-02-20T12:39:54.000Z</time>
      </trkpt>
      <trkpt lat="43.5301" lon="5.5493">
        <ele>274</ele>
        <time>2018-02-20T12:39:55.000Z</time>
      </trkpt>
      <trkpt lat="43.5301" lon="5.54931">
        <ele>274</ele>
        <time>2018-02-20T12:39:56.000Z</time>
      </trkpt>
      <trkpt lat="43.5301" lon="5.5493">
        <ele>274</ele>
        <time>2018-02-20T12:39:57.000Z</time>
      </trkpt>
      <trkpt lat="43.5301" lon="5.5493">
        <ele>274</ele>
        <time>2018-02-20T12:39:58.000Z</time>
      </trkpt>
      <trkpt lat="43.5301" lon="5.5493">
        <ele>274</ele>
        <time>2018-02-20T12:39:59.000Z</time>
      </trkpt>
      <trkpt lat="43.5301" lon="5.5493">
        <ele>274</ele>
        <time>2018-02-20T12:40:00.000Z</time>
      </trkpt>
      <trkpt lat="43.5301" lon="5.5493">
        <ele>274</ele>
        <time>2018-02-20T12:40:01.000Z</time>
      </trkpt>
      <trkpt lat="43.5301" lon="5.5493">
        <ele>274</ele>
        <time>2018-02-20T12:40:02.000Z</time>
      </trkpt>
      <trkpt lat="43.5301" lon="5.5493">
        <ele>274</ele>
        <time>2018-02-20T12:40:03.000Z</time>
      </trkpt>
      <trkpt lat="43.53011" lon="5.5493">
        <ele>274</ele>
        <time>2018-02-20T12:40:04.000Z</time>
      </trkpt>
      <trkpt lat="43.53011" lon="5.5493">
        <ele>274</ele>
        <time>2018-02-20T12:40:05.000Z</time>
      </trkpt>
      <trkpt lat="43.53011" lon="5.5493">
        <ele>273</ele>
        <time>2018-02-20T12:40:06.000Z</time>
      </trkpt>
      <trkpt lat="43.53011" lon="5.5493">
        <ele>273</ele>
        <time>2018-02-20T12:40:07.000Z</time>
      </trkpt>
      <trkpt lat="43.53011" lon="5.5493">
        <ele>273</ele>
        <time>2018-02-20T12:40:08.000Z</time>
      </trkpt>
      <trkpt lat="43.53011" lon="5.5493">
        <ele>273</ele>
        <time>2018-02-20T12:40:09.000Z</time>
      </trkpt>
      <trkpt lat="43.53011" lon="5.5493">
        <ele>273</ele>
        <time>2018-02-20T12:40:10.000Z</time>
      </trkpt>
      <trkpt lat="43.53011" lon="5.5493">
        <ele>273</ele>
        <time>2018-02-20T12:40:11.000Z</time>
      </trkpt>
      <trkpt lat="43.53011" lon="5.5493">
        <ele>273</ele>
        <time>2018-02-20T12:40:12.000Z</time>
      </trkpt>
      <trkpt lat="43.53011" lon="5.5493">
        <ele>273</ele>
        <time>2018-02-20T12:40:13.000Z</time>
      </trkpt>
      <trkpt lat="43.53011" lon="5.5493">
        <ele>273</ele>
        <time>2018-02-20T12:40:14.000Z</time>
      </trkpt>
      <trkpt lat="43.53011" lon="5.5493">
        <ele>273</ele>
        <time>2018-02-20T12:40:15.000Z</time>
      </trkpt>
      <trkpt lat="43.53011" lon="5.5493">
        <ele>273</ele>
        <time>2018-02-20T12:40:16.000Z</time>
      </trkpt>
      <trkpt lat="43.53011" lon="5.5493">
        <ele>273</ele>
        <time>2018-02-20T12:40:17.000Z</time>
      </trkpt>
      <trkpt lat="43.53011" lon="5.5493">
        <ele>273</ele>
        <time>2018-02-20T12:40:18.000Z</time>
      </trkpt>
      <trkpt lat="43.53011" lon="5.5493">
        <ele>273</ele>
        <time>2018-02-20T12:40:19.000Z</time>
      </trkpt>
      <trkpt lat="43.53011" lon="5.5493">
        <ele>273</ele>
        <time>2018-02-20T12:40:20.000Z</time>
      </trkpt>
      <trkpt lat="43.53011" lon="5.5493">
        <ele>273</ele>
        <time>2018-02-20T12:40:21.000Z</time>
      </trkpt>
      <trkpt lat="43.53011" lon="5.5493">
        <ele>273</ele>
        <time>2018-02-20T12:40:22.000Z</time>
      </trkpt>
      <trkpt lat="43.53011" lon="5.5493">
        <ele>273</ele>
        <time>2018-02-20T12:40:23.000Z</time>
      </trkpt>
      <trkpt lat="43.53011" lon="5.5493">
        <ele>273</ele>
        <time>2018-02-20T12:40:24.000Z</time>
      </trkpt>
      <trkpt lat="43.53011" lon="5.5493">
        <ele>273</ele>
        <time>2018-02-20T12:40:25.000Z</time>
      </trkpt>
      <trkpt lat="43.53011" lon="5.5493">
        <ele>273</ele>
        <time>2018-02-20T12:40:26.000Z</time>
      </trkpt>
      <trkpt lat="43.53011" lon="5.54931">
        <ele>273</ele>
        <time>2018-02-20T12:40:27.000Z</time>
      </trkpt>
      <trkpt lat="43.53011" lon="5.54931">
        <ele>273</ele>
        <time>2018-02-20T12:40:28.000Z</time>
      </trkpt>
      <trkpt lat="43.53011" lon="5.54931">
        <ele>273</ele>
        <time>2018-02-20T12:40:29.000Z</time>
      </trkpt>
      <trkpt lat="43.53011" lon="5.54931">
        <ele>273</ele>
        <time>2018-02-20T12:40:30.000Z</time>
      </trkpt>
      <trkpt lat="43.53011" lon="5.54931">
        <ele>273</ele>
        <time>2018-02-20T12:40:31.000Z</time>
      </trkpt>
      <trkpt lat="43.53011" lon="5.54931">
        <ele>273</ele>
        <time>2018-02-20T12:40:32.000Z</time>
      </trkpt>
      <trkpt lat="43.53011" lon="5.54931">
        <ele>273</ele>
        <time>2018-02-20T12:40:33.000Z</time>
      </trkpt>
      <trkpt lat="43.53011" lon="5.54931">
        <ele>273</ele>
        <time>2018-02-20T12:40:34.000Z</time>
      </trkpt>
      <trkpt lat="43.53011" lon="5.54931">
        <ele>273</ele>
        <time>2018-02-20T12:40:35.000Z</time>
      </trkpt>
      <trkpt lat="43.53011" lon="5.54931">
        <ele>273</ele>
        <time>2018-02-20T12:40:36.000Z</time>
      </trkpt>
      <trkpt lat="43.53011" lon="5.54931">
        <ele>273</ele>
        <time>2018-02-20T12:40:37.000Z</time>
      </trkpt>
      <trkpt lat="43.53011" lon="5.54931">
        <ele>273</ele>
        <time>2018-02-20T12:40:38.000Z</time>
      </trkpt>
      <trkpt lat="43.53011" lon="5.54931">
        <ele>273</ele>
        <time>2018-02-20T12:40:39.000Z</time>
      </trkpt>
      <trkpt lat="43.53011" lon="5.54931">
        <ele>273</ele>
        <time>2018-02-20T12:40:40.000Z</time>
      </trkpt>
      <trkpt lat="43.53011" lon="5.54931">
        <ele>273</ele>
        <time>2018-02-20T12:40:41.000Z</time>
      </trkpt>
      <trkpt lat="43.53011" lon="5.54931">
        <ele>273</ele>
        <time>2018-02-20T12:40:42.000Z</time>
      </trkpt>
      <trkpt lat="43.53011" lon="5.54931">
        <ele>273</ele>
        <time>2018-02-20T12:40:43.000Z</time>
      </trkpt>
      <trkpt lat="43.53011" lon="5.54931">
        <ele>273</ele>
        <time>2018-02-20T12:40:44.000Z</time>
      </trkpt>
      <trkpt lat="43.53011" lon="5.54931">
        <ele>273</ele>
        <time>2018-02-20T12:40:45.000Z</time>
      </trkpt>
      <trkpt lat="43.53011" lon="5.54931">
        <ele>273</ele>
        <time>2018-02-20T12:40:46.000Z</time>
      </trkpt>
      <trkpt lat="43.53011" lon="5.54931">
        <ele>273</ele>
        <time>2018-02-20T12:40:47.000Z</time>
      </trkpt>
      <trkpt lat="43.53011" lon="5.54931">
        <ele>273</ele>
        <time>2018-02-20T12:40:48.000Z</time>
      </trkpt>
      <trkpt lat="43.53011" lon="5.54931">
        <ele>273</ele>
        <time>2018-02-20T12:40:49.000Z</time>
      </trkpt>
      <trkpt lat="43.53011" lon="5.54931">
        <ele>273</ele>
        <time>2018-02-20T12:40:50.000Z</time>
      </trkpt>
      <trkpt lat="43.53011" lon="5.54931">
        <ele>274</ele>
        <time>2018-02-20T12:40:51.000Z</time>
      </trkpt>
      <trkpt lat="43.53011" lon="5.54932">
        <ele>274</ele>
        <time>2018-02-20T12:40:52.000Z</time>
      </trkpt>
      <trkpt lat="43.53011" lon="5.54932">
        <ele>274</ele>
        <time>2018-02-20T12:40:53.000Z</time>
      </trkpt>
      <trkpt lat="43.53011" lon="5.54932">
        <ele>274</ele>
        <time>2018-02-20T12:40:54.000Z</time>
      </trkpt>
      <trkpt lat="43.53011" lon="5.54932">
        <ele>274</ele>
        <time>2018-02-20T12:40:55.000Z</time>
      </trkpt>
      <trkpt lat="43.53011" lon="5.54932">
        <ele>274</ele>
        <time>2018-02-20T12:40:56.000Z</time>
      </trkpt>
      <trkpt lat="43.53011" lon="5.54932">
        <ele>274</ele>
        <time>2018-02-20T12:40:57.000Z</time>
      </trkpt>
      <trkpt lat="43.53011" lon="5.54932">
        <ele>274</ele>
        <time>2018-02-20T12:40:58.000Z</time>
      </trkpt>
      <trkpt lat="43.53011" lon="5.54932">
        <ele>274</ele>
        <time>2018-02-20T12:40:59.000Z</time>
      </trkpt>
      <trkpt lat="43.5301" lon="5.54932">
        <ele>274</ele>
        <time>2018-02-20T12:41:00.000Z</time>
      </trkpt>
      <trkpt lat="43.5301" lon="5.54932">
        <ele>274</ele>
        <time>2018-02-20T12:41:01.000Z</time>
      </trkpt>
      <trkpt lat="43.5301" lon="5.54932">
        <ele>274</ele>
        <time>2018-02-20T12:41:02.000Z</time>
      </trkpt>
      <trkpt lat="43.5301" lon="5.54932">
        <ele>274</ele>
        <time>2018-02-20T12:41:03.000Z</time>
      </trkpt>
      <trkpt lat="43.5301" lon="5.54932">
        <ele>274</ele>
        <time>2018-02-20T12:41:04.000Z</time>
      </trkpt>
      <trkpt lat="43.5301" lon="5.54932">
        <ele>274</ele>
        <time>2018-02-20T12:41:05.000Z</time>
      </trkpt>
      <trkpt lat="43.5301" lon="5.54932">
        <ele>275</ele>
        <time>2018-02-20T12:41:06.000Z</time>
      </trkpt>
      <trkpt lat="43.5301" lon="5.54932">
        <ele>275</ele>
        <time>2018-02-20T12:41:07.000Z</time>
      </trkpt>
      <trkpt lat="43.5301" lon="5.54932">
        <ele>275</ele>
        <time>2018-02-20T12:41:08.000Z</time>
      </trkpt>
      <trkpt lat="43.5301" lon="5.54932">
        <ele>275</ele>
        <time>2018-02-20T12:41:09.000Z</time>
      </trkpt>
      <trkpt lat="43.5301" lon="5.54932">
        <ele>275</ele>
        <time>2018-02-20T12:41:10.000Z</time>
      </trkpt>
      <trkpt lat="43.5301" lon="5.54932">
        <ele>275</ele>
        <time>2018-02-20T12:41:11.000Z</time>
      </trkpt>
      <trkpt lat="43.5301" lon="5.54932">
        <ele>275</ele>
        <time>2018-02-20T12:41:12.000Z</time>
      </trkpt>
      <trkpt lat="43.5301" lon="5.54933">
        <ele>275</ele>
        <time>2018-02-20T12:41:13.000Z</time>
      </trkpt>
      <trkpt lat="43.5301" lon="5.54933">
        <ele>275</ele>
        <time>2018-02-20T12:41:14.000Z</time>
      </trkpt>
      <trkpt lat="43.5301" lon="5.54933">
        <ele>275</ele>
        <time>2018-02-20T12:41:15.000Z</time>
      </trkpt>
      <trkpt lat="43.5301" lon="5.54932">
        <ele>275</ele>
        <time>2018-02-20T12:41:16.000Z</time>
      </trkpt>
      <trkpt lat="43.5301" lon="5.54932">
        <ele>275</ele>
        <time>2018-02-20T12:41:17.000Z</time>
      </trkpt>
      <trkpt lat="43.5301" lon="5.54932">
        <ele>275</ele>
        <time>2018-02-20T12:41:18.000Z</time>
      </trkpt>
      <trkpt lat="43.5301" lon="5.54932">
        <ele>275</ele>
        <time>2018-02-20T12:41:19.000Z</time>
      </trkpt>
      <trkpt lat="43.5301" lon="5.54932">
        <ele>275</ele>
        <time>2018-02-20T12:41:20.000Z</time>
      </trkpt>
      <trkpt lat="43.5301" lon="5.54932">
        <ele>275</ele>
        <time>2018-02-20T12:41:21.000Z</time>
      </trkpt>
      <trkpt lat="43.5301" lon="5.54932">
        <ele>275</ele>
        <time>2018-02-20T12:41:22.000Z</time>
      </trkpt>
      <trkpt lat="43.5301" lon="5.54932">
        <ele>275</ele>
        <time>2018-02-20T12:41:23.000Z</time>
      </trkpt>
      <trkpt lat="43.5301" lon="5.54932">
        <ele>275</ele>
        <time>2018-02-20T12:41:24.000Z</time>
      </trkpt>
      <trkpt lat="43.5301" lon="5.54932">
        <ele>275</ele>
        <time>2018-02-20T12:41:25.000Z</time>
      </trkpt>
      <trkpt lat="43.5301" lon="5.54932">
        <ele>275</ele>
        <time>2018-02-20T12:41:26.000Z</time>
      </trkpt>
      <trkpt lat="43.5301" lon="5.54932">
        <ele>275</ele>
        <time>2018-02-20T12:41:27.000Z</time>
      </trkpt>
      <trkpt lat="43.5301" lon="5.54932">
        <ele>275</ele>
        <time>2018-02-20T12:41:28.000Z</time>
      </trkpt>
      <trkpt lat="43.5301" lon="5.54931">
        <ele>275</ele>
        <time>2018-02-20T12:41:29.000Z</time>
      </trkpt>
      <trkpt lat="43.5301" lon="5.54932">
        <ele>275</ele>
        <time>2018-02-20T12:41:30.000Z</time>
      </trkpt>
      <trkpt lat="43.5301" lon="5.54932">
        <ele>275</ele>
        <time>2018-02-20T12:41:31.000Z</time>
      </trkpt>
      <trkpt lat="43.5301" lon="5.54932">
        <ele>275</ele>
        <time>2018-02-20T12:41:32.000Z</time>
      </trkpt>
      <trkpt lat="43.5301" lon="5.54932">
        <ele>275</ele>
        <time>2018-02-20T12:41:33.000Z</time>
      </trkpt>
      <trkpt lat="43.5301" lon="5.54932">
        <ele>275</ele>
        <time>2018-02-20T12:41:34.000Z</time>
      </trkpt>
      <trkpt lat="43.5301" lon="5.54932">
        <ele>275</ele>
        <time>2018-02-20T12:41:35.000Z</time>
      </trkpt>
      <trkpt lat="43.5301" lon="5.54932">
        <ele>275</ele>
        <time>2018-02-20T12:41:36.000Z</time>
      </trkpt>
      <trkpt lat="43.5301" lon="5.54932">
        <ele>275</ele>
        <time>2018-02-20T12:41:37.000Z</time>
      </trkpt>
      <trkpt lat="43.5301" lon="5.54932">
        <ele>275</ele>
        <time>2018-02-20T12:41:38.000Z</time>
      </trkpt>
      <trkpt lat="43.5301" lon="5.54932">
        <ele>275</ele>
        <time>2018-02-20T12:41:39.000Z</time>
      </trkpt>
      <trkpt lat="43.5301" lon="5.54932">
        <ele>275</ele>
        <time>2018-02-20T12:41:40.000Z</time>
      </trkpt>
      <trkpt lat="43.5301" lon="5.54932">
        <ele>275</ele>
        <time>2018-02-20T12:41:41.000Z</time>
      </trkpt>
      <trkpt lat="43.5301" lon="5.54932">
        <ele>275</ele>
        <time>2018-02-20T12:41:42.000Z</time>
      </trkpt>
      <trkpt lat="43.5301" lon="5.54932">
        <ele>275</ele>
        <time>2018-02-20T12:41:43.000Z</time>
      </trkpt>
      <trkpt lat="43.5301" lon="5.54932">
        <ele>275</ele>
        <time>2018-02-20T12:41:44.000Z</time>
      </trkpt>
      <trkpt lat="43.5301" lon="5.54932">
        <ele>275</ele>
        <time>2018-02-20T12:41:45.000Z</time>
      </trkpt>
      <trkpt lat="43.5301" lon="5.54932">
        <ele>275</ele>
        <time>2018-02-20T12:41:46.000Z</time>
      </trkpt>
      <trkpt lat="43.5301" lon="5.54931">
        <ele>275</ele>
        <time>2018-02-20T12:41:47.000Z</time>
      </trkpt>
      <trkpt lat="43.5301" lon="5.54932">
        <ele>275</ele>
        <time>2018-02-20T12:41:48.000Z</time>
      </trkpt>
      <trkpt lat="43.5301" lon="5.54932">
        <ele>275</ele>
        <time>2018-02-20T12:41:49.000Z</time>
      </trkpt>
      <trkpt lat="43.5301" lon="5.54932">
        <ele>275</ele>
        <time>2018-02-20T12:41:50.000Z</time>
      </trkpt>
      <trkpt lat="43.5301" lon="5.54932">
        <ele>275</ele>
        <time>2018-02-20T12:41:51.000Z</time>
      </trkpt>
      <trkpt lat="43.5301" lon="5.54931">
        <ele>275</ele>
        <time>2018-02-20T12:41:52.000Z</time>
      </trkpt>
      <trkpt lat="43.53009" lon="5.54932">
        <ele>275</ele>
        <time>2018-02-20T12:41:53.000Z</time>
      </trkpt>
      <trkpt lat="43.53009" lon="5.54931">
        <ele>275</ele>
        <time>2018-02-20T12:41:54.000Z</time>
      </trkpt>
      <trkpt lat="43.53009" lon="5.54931">
        <ele>275</ele>
        <time>2018-02-20T12:41:55.000Z</time>
      </trkpt>
      <trkpt lat="43.53009" lon="5.54931">
        <ele>275</ele>
        <time>2018-02-20T12:41:56.000Z</time>
      </trkpt>
      <trkpt lat="43.53009" lon="5.54931">
        <ele>275</ele>
        <time>2018-02-20T12:41:57.000Z</time>
      </trkpt>
      <trkpt lat="43.53009" lon="5.54931">
        <ele>275</ele>
        <time>2018-02-20T12:41:58.000Z</time>
      </trkpt>
      <trkpt lat="43.53009" lon="5.54931">
        <ele>275</ele>
        <time>2018-02-20T12:41:59.000Z</time>
      </trkpt>
      <trkpt lat="43.53009" lon="5.54931">
        <ele>275</ele>
        <time>2018-02-20T12:42:00.000Z</time>
      </trkpt>
      <trkpt lat="43.53009" lon="5.54931">
        <ele>275</ele>
        <time>2018-02-20T12:42:01.000Z</time>
      </trkpt>
      <trkpt lat="43.53009" lon="5.54931">
        <ele>275</ele>
        <time>2018-02-20T12:42:02.000Z</time>
      </trkpt>
      <trkpt lat="43.53009" lon="5.54931">
        <ele>275</ele>
        <time>2018-02-20T12:42:03.000Z</time>
      </trkpt>
      <trkpt lat="43.53009" lon="5.54931">
        <ele>275</ele>
        <time>2018-02-20T12:42:04.000Z</time>
      </trkpt>
      <trkpt lat="43.53009" lon="5.54931">
        <ele>275</ele>
        <time>2018-02-20T12:42:05.000Z</time>
      </trkpt>
      <trkpt lat="43.53009" lon="5.54931">
        <ele>275</ele>
        <time>2018-02-20T12:42:06.000Z</time>
      </trkpt>
      <trkpt lat="43.53009" lon="5.54931">
        <ele>275</ele>
        <time>2018-02-20T12:42:07.000Z</time>
      </trkpt>
      <trkpt lat="43.53009" lon="5.54931">
        <ele>275</ele>
        <time>2018-02-20T12:42:08.000Z</time>
      </trkpt>
      <trkpt lat="43.53009" lon="5.54931">
        <ele>275</ele>
        <time>2018-02-20T12:42:09.000Z</time>
      </trkpt>
      <trkpt lat="43.53009" lon="5.54931">
        <ele>275</ele>
        <time>2018-02-20T12:42:10.000Z</time>
      </trkpt>
      <trkpt lat="43.53009" lon="5.54931">
        <ele>275</ele>
        <time>2018-02-20T12:42:11.000Z</time>
      </trkpt>
      <trkpt lat="43.53009" lon="5.54931">
        <ele>276</ele>
        <time>2018-02-20T12:42:12.000Z</time>
      </trkpt>
      <trkpt lat="43.53009" lon="5.54931">
        <ele>276</ele>
        <time>2018-02-20T12:42:13.000Z</time>
      </trkpt>
      <trkpt lat="43.53009" lon="5.54931">
        <ele>276</ele>
        <time>2018-02-20T12:42:14.000Z</time>
      </trkpt>
      <trkpt lat="43.53009" lon="5.54931">
        <ele>276</ele>
        <time>2018-02-20T12:42:15.000Z</time>
      </trkpt>
      <trkpt lat="43.53009" lon="5.54931">
        <ele>276</ele>
        <time>2018-02-20T12:42:16.000Z</time>
      </trkpt>
      <trkpt lat="43.53009" lon="5.54931">
        <ele>276</ele>
        <time>2018-02-20T12:42:17.000Z</time>
      </trkpt>
      <trkpt lat="43.53009" lon="5.54931">
        <ele>276</ele>
        <time>2018-02-20T12:42:18.000Z</time>
      </trkpt>
      <trkpt lat="43.53009" lon="5.54931">
        <ele>276</ele>
        <time>2018-02-20T12:42:19.000Z</time>
      </trkpt>
      <trkpt lat="43.53009" lon="5.54931">
        <ele>276</ele>
        <time>2018-02-20T12:42:20.000Z</time>
      </trkpt>
      <trkpt lat="43.53009" lon="5.54931">
        <ele>276</ele>
        <time>2018-02-20T12:42:21.000Z</time>
      </trkpt>
      <trkpt lat="43.53009" lon="5.54931">
        <ele>276</ele>
        <time>2018-02-20T12:42:22.000Z</time>
      </trkpt>
      <trkpt lat="43.53009" lon="5.54931">
        <ele>276</ele>
        <time>2018-02-20T12:42:23.000Z</time>
      </trkpt>
      <trkpt lat="43.53009" lon="5.54931">
        <ele>276</ele>
        <time>2018-02-20T12:42:24.000Z</time>
      </trkpt>
      <trkpt lat="43.53009" lon="5.54931">
        <ele>276</ele>
        <time>2018-02-20T12:42:25.000Z</time>
      </trkpt>
      <trkpt lat="43.53009" lon="5.54931">
        <ele>276</ele>
        <time>2018-02-20T12:42:26.000Z</time>
      </trkpt>
      <trkpt lat="43.53008" lon="5.54931">
        <ele>276</ele>
        <time>2018-02-20T12:42:27.000Z</time>
      </trkpt>
      <trkpt lat="43.53008" lon="5.54931">
        <ele>276</ele>
        <time>2018-02-20T12:42:28.000Z</time>
      </trkpt>
      <trkpt lat="43.53008" lon="5.54931">
        <ele>276</ele>
        <time>2018-02-20T12:42:29.000Z</time>
      </trkpt>
      <trkpt lat="43.53008" lon="5.54931">
        <ele>276</ele>
        <time>2018-02-20T12:42:30.000Z</time>
      </trkpt>
      <trkpt lat="43.53008" lon="5.54931">
        <ele>276</ele>
        <time>2018-02-20T12:42:31.000Z</time>
      </trkpt>
      <trkpt lat="43.53008" lon="5.54931">
        <ele>276</ele>
        <time>2018-02-20T12:42:32.000Z</time>
      </trkpt>
      <trkpt lat="43.53008" lon="5.54931">
        <ele>276</ele>
        <time>2018-02-20T12:42:33.000Z</time>
      </trkpt>
      <trkpt lat="43.53008" lon="5.54931">
        <ele>276</ele>
        <time>2018-02-20T12:42:34.000Z</time>
      </trkpt>
      <trkpt lat="43.53008" lon="5.54931">
        <ele>276</ele>
        <time>2018-02-20T12:42:35.000Z</time>
      </trkpt>
      <trkpt lat="43.53008" lon="5.54931">
        <ele>276</ele>
        <time>2018-02-20T12:42:36.000Z</time>
      </trkpt>
      <trkpt lat="43.53008" lon="5.54931">
        <ele>276</ele>
        <time>2018-02-20T12:42:37.000Z</time>
      </trkpt>
      <trkpt lat="43.53008" lon="5.54931">
        <ele>276</ele>
        <time>2018-02-20T12:42:38.000Z</time>
      </trkpt>
      <trkpt lat="43.53008" lon="5.54931">
        <ele>276</ele>
        <time>2018-02-20T12:42:39.000Z</time>
      </trkpt>
      <trkpt lat="43.53008" lon="5.54931">
        <ele>276</ele>
        <time>2018-02-20T12:42:40.000Z</time>
      </trkpt>
      <trkpt lat="43.53008" lon="5.54931">
        <ele>276</ele>
        <time>2018-02-20T12:42:41.000Z</time>
      </trkpt>
      <trkpt lat="43.53008" lon="5.54931">
        <ele>276</ele>
        <time>2018-02-20T12:42:42.000Z</time>
      </trkpt>
      <trkpt lat="43.53008" lon="5.54931">
        <ele>276</ele>
        <time>2018-02-20T12:42:43.000Z</time>
      </trkpt>
      <trkpt lat="43.53008" lon="5.54931">
        <ele>276</ele>
        <time>2018-02-20T12:42:44.000Z</time>
      </trkpt>
      <trkpt lat="43.53008" lon="5.54931">
        <ele>276</ele>
        <time>2018-02-20T12:42:45.000Z</time>
      </trkpt>
      <trkpt lat="43.53008" lon="5.54931">
        <ele>276</ele>
        <time>2018-02-20T12:42:46.000Z</time>
      </trkpt>
      <trkpt lat="43.53008" lon="5.54931">
        <ele>276</ele>
        <time>2018-02-20T12:42:47.000Z</time>
      </trkpt>
      <trkpt lat="43.53008" lon="5.54931">
        <ele>276</ele>
        <time>2018-02-20T12:42:48.000Z</time>
      </trkpt>
      <trkpt lat="43.53008" lon="5.54931">
        <ele>277</ele>
        <time>2018-02-20T12:42:49.000Z</time>
      </trkpt>
      <trkpt lat="43.53008" lon="5.54931">
        <ele>277</ele>
        <time>2018-02-20T12:42:50.000Z</time>
      </trkpt>
      <trkpt lat="43.53007" lon="5.54931">
        <ele>277</ele>
        <time>2018-02-20T12:42:51.000Z</time>
      </trkpt>
      <trkpt lat="43.53007" lon="5.54931">
        <ele>277</ele>
        <time>2018-02-20T12:42:52.000Z</time>
      </trkpt>
      <trkpt lat="43.53007" lon="5.54931">
        <ele>277</ele>
        <time>2018-02-20T12:42:53.000Z</time>
      </trkpt>
      <trkpt lat="43.53007" lon="5.54931">
        <ele>277</ele>
        <time>2018-02-20T12:42:54.000Z</time>
      </trkpt>
      <trkpt lat="43.53007" lon="5.54931">
        <ele>277</ele>
        <time>2018-02-20T12:42:55.000Z</time>
      </trkpt>
      <trkpt lat="43.53007" lon="5.54931">
        <ele>277</ele>
        <time>2018-02-20T12:42:56.000Z</time>
      </trkpt>
      <trkpt lat="43.53007" lon="5.54931">
        <ele>277</ele>
        <time>2018-02-20T12:42:57.000Z</time>
      </trkpt>
      <trkpt lat="43.53007" lon="5.54931">
        <ele>277</ele>
        <time>2018-02-20T12:42:58.000Z</time>
      </trkpt>
      <trkpt lat="43.53007" lon="5.54931">
        <ele>276</ele>
        <time>2018-02-20T12:42:59.000Z</time>
      </trkpt>
      <trkpt lat="43.53007" lon="5.54931">
        <ele>276</ele>
        <time>2018-02-20T12:43:00.000Z</time>
      </trkpt>
      <trkpt lat="43.53007" lon="5.54931">
        <ele>276</ele>
        <time>2018-02-20T12:43:01.000Z</time>
      </trkpt>
      <trkpt lat="43.53007" lon="5.54931">
        <ele>276</ele>
        <time>2018-02-20T12:43:02.000Z</time>
      </trkpt>
      <trkpt lat="43.53007" lon="5.54931">
        <ele>276</ele>
        <time>2018-02-20T12:43:03.000Z</time>
      </trkpt>
      <trkpt lat="43.53007" lon="5.54931">
        <ele>277</ele>
        <time>2018-02-20T12:43:04.000Z</time>
      </trkpt>
      <trkpt lat="43.53007" lon="5.54931">
        <ele>277</ele>
        <time>2018-02-20T12:43:05.000Z</time>
      </trkpt>
      <trkpt lat="43.53007" lon="5.54932">
        <ele>277</ele>
        <time>2018-02-20T12:43:06.000Z</time>
      </trkpt>
      <trkpt lat="43.53007" lon="5.54932">
        <ele>277</ele>
        <time>2018-02-20T12:43:07.000Z</time>
      </trkpt>
      <trkpt lat="43.53007" lon="5.54932">
        <ele>277</ele>
        <time>2018-02-20T12:43:08.000Z</time>
      </trkpt>
      <trkpt lat="43.53007" lon="5.54932">
        <ele>277</ele>
        <time>2018-02-20T12:43:09.000Z</time>
      </trkpt>
      <trkpt lat="43.53007" lon="5.54932">
        <ele>276</ele>
        <time>2018-02-20T12:43:10.000Z</time>
      </trkpt>
      <trkpt lat="43.53007" lon="5.54932">
        <ele>276</ele>
        <time>2018-02-20T12:43:11.000Z</time>
      </trkpt>
      <trkpt lat="43.53007" lon="5.54932">
        <ele>276</ele>
        <time>2018-02-20T12:43:12.000Z</time>
      </trkpt>
      <trkpt lat="43.53007" lon="5.54932">
        <ele>276</ele>
        <time>2018-02-20T12:43:13.000Z</time>
      </trkpt>
      <trkpt lat="43.53007" lon="5.54932">
        <ele>276</ele>
        <time>2018-02-20T12:43:14.000Z</time>
      </trkpt>
      <trkpt lat="43.53007" lon="5.54932">
        <ele>276</ele>
        <time>2018-02-20T12:43:15.000Z</time>
      </trkpt>
      <trkpt lat="43.53007" lon="5.54932">
        <ele>276</ele>
        <time>2018-02-20T12:43:16.000Z</time>
      </trkpt>
      <trkpt lat="43.53007" lon="5.54932">
        <ele>276</ele>
        <time>2018-02-20T12:43:17.000Z</time>
      </trkpt>
      <trkpt lat="43.53007" lon="5.54932">
        <ele>276</ele>
        <time>2018-02-20T12:43:18.000Z</time>
      </trkpt>
      <trkpt lat="43.53007" lon="5.54932">
        <ele>276</ele>
        <time>2018-02-20T12:43:19.000Z</time>
      </trkpt>
      <trkpt lat="43.53007" lon="5.54932">
        <ele>276</ele>
        <time>2018-02-20T12:43:20.000Z</time>
      </trkpt>
      <trkpt lat="43.53007" lon="5.54932">
        <ele>276</ele>
        <time>2018-02-20T12:43:21.000Z</time>
      </trkpt>
      <trkpt lat="43.53007" lon="5.54932">
        <ele>276</ele>
        <time>2018-02-20T12:43:22.000Z</time>
      </trkpt>
      <trkpt lat="43.53007" lon="5.54932">
        <ele>276</ele>
        <time>2018-02-20T12:43:23.000Z</time>
      </trkpt>
      <trkpt lat="43.53007" lon="5.54932">
        <ele>276</ele>
        <time>2018-02-20T12:43:24.000Z</time>
      </trkpt>
      <trkpt lat="43.53007" lon="5.54932">
        <ele>276</ele>
        <time>2018-02-20T12:43:25.000Z</time>
      </trkpt>
      <trkpt lat="43.53007" lon="5.54932">
        <ele>276</ele>
        <time>2018-02-20T12:43:26.000Z</time>
      </trkpt>
      <trkpt lat="43.53007" lon="5.54932">
        <ele>276</ele>
        <time>2018-02-20T12:43:27.000Z</time>
      </trkpt>
      <trkpt lat="43.53007" lon="5.54932">
        <ele>276</ele>
        <time>2018-02-20T12:43:28.000Z</time>
      </trkpt>
      <trkpt lat="43.53007" lon="5.54932">
        <ele>276</ele>
        <time>2018-02-20T12:43:29.000Z</time>
      </trkpt>
      <trkpt lat="43.53007" lon="5.54932">
        <ele>276</ele>
        <time>2018-02-20T12:43:30.000Z</time>
      </trkpt>
      <trkpt lat="43.53007" lon="5.54932">
        <ele>276</ele>
        <time>2018-02-20T12:43:31.000Z</time>
      </trkpt>
      <trkpt lat="43.53007" lon="5.54932">
        <ele>276</ele>
        <time>2018-02-20T12:43:32.000Z</time>
      </trkpt>
      <trkpt lat="43.53007" lon="5.54932">
        <ele>276</ele>
        <time>2018-02-20T12:43:33.000Z</time>
      </trkpt>
      <trkpt lat="43.53007" lon="5.54932">
        <ele>276</ele>
        <time>2018-02-20T12:43:34.000Z</time>
      </trkpt>
      <trkpt lat="43.53007" lon="5.54932">
        <ele>276</ele>
        <time>2018-02-20T12:43:35.000Z</time>
      </trkpt>
      <trkpt lat="43.53007" lon="5.54932">
        <ele>276</ele>
        <time>2018-02-20T12:43:36.000Z</time>
      </trkpt>
      <trkpt lat="43.53007" lon="5.54932">
        <ele>276</ele>
        <time>2018-02-20T12:43:37.000Z</time>
      </trkpt>
      <trkpt lat="43.53007" lon="5.54932">
        <ele>276</ele>
        <time>2018-02-20T12:43:38.000Z</time>
      </trkpt>
      <trkpt lat="43.53007" lon="5.54932">
        <ele>276</ele>
        <time>2018-02-20T12:43:39.000Z</time>
      </trkpt>
      <trkpt lat="43.53006" lon="5.54932">
        <ele>276</ele>
        <time>2018-02-20T12:43:40.000Z</time>
      </trkpt>
      <trkpt lat="43.53006" lon="5.54933">
        <ele>276</ele>
        <time>2018-02-20T12:43:41.000Z</time>
      </trkpt>
      <trkpt lat="43.53006" lon="5.54933">
        <ele>276</ele>
        <time>2018-02-20T12:43:42.000Z</time>
      </trkpt>
      <trkpt lat="43.53006" lon="5.54932">
        <ele>276</ele>
        <time>2018-02-20T12:43:43.000Z</time>
      </trkpt>
      <trkpt lat="43.53006" lon="5.54932">
        <ele>276</ele>
        <time>2018-02-20T12:43:44.000Z</time>
      </trkpt>
      <trkpt lat="43.53006" lon="5.54932">
        <ele>276</ele>
        <time>2018-02-20T12:43:45.000Z</time>
      </trkpt>
      <trkpt lat="43.53006" lon="5.54932">
        <ele>276</ele>
        <time>2018-02-20T12:43:46.000Z</time>
      </trkpt>
      <trkpt lat="43.53006" lon="5.54932">
        <ele>276</ele>
        <time>2018-02-20T12:43:47.000Z</time>
      </trkpt>
      <trkpt lat="43.53006" lon="5.54932">
        <ele>276</ele>
        <time>2018-02-20T12:43:48.000Z</time>
      </trkpt>
      <trkpt lat="43.53006" lon="5.54932">
        <ele>276</ele>
        <time>2018-02-20T12:43:49.000Z</time>
      </trkpt>
      <trkpt lat="43.53006" lon="5.54932">
        <ele>276</ele>
        <time>2018-02-20T12:43:50.000Z</time>
      </trkpt>
      <trkpt lat="43.53006" lon="5.54932">
        <ele>276</ele>
        <time>2018-02-20T12:43:51.000Z</time>
      </trkpt>
      <trkpt lat="43.53006" lon="5.54932">
        <ele>275</ele>
        <time>2018-02-20T12:43:52.000Z</time>
      </trkpt>
      <trkpt lat="43.53006" lon="5.54932">
        <ele>275</ele>
        <time>2018-02-20T12:43:53.000Z</time>
      </trkpt>
      <trkpt lat="43.53006" lon="5.54932">
        <ele>275</ele>
        <time>2018-02-20T12:43:54.000Z</time>
      </trkpt>
      <trkpt lat="43.53006" lon="5.54932">
        <ele>275</ele>
        <time>2018-02-20T12:43:55.000Z</time>
      </trkpt>
      <trkpt lat="43.53006" lon="5.54932">
        <ele>275</ele>
        <time>2018-02-20T12:43:56.000Z</time>
      </trkpt>
      <trkpt lat="43.53006" lon="5.54932">
        <ele>276</ele>
        <time>2018-02-20T12:43:57.000Z</time>
      </trkpt>
      <trkpt lat="43.53007" lon="5.54932">
        <ele>276</ele>
        <time>2018-02-20T12:43:58.000Z</time>
      </trkpt>
      <trkpt lat="43.53007" lon="5.54931">
        <ele>276</ele>
        <time>2018-02-20T12:43:59.000Z</time>
      </trkpt>
      <trkpt lat="43.53007" lon="5.54931">
        <ele>276</ele>
        <time>2018-02-20T12:44:00.000Z</time>
      </trkpt>
      <trkpt lat="43.53007" lon="5.54931">
        <ele>276</ele>
        <time>2018-02-20T12:44:01.000Z</time>
      </trkpt>
      <trkpt lat="43.53007" lon="5.54932">
        <ele>276</ele>
        <time>2018-02-20T12:44:02.000Z</time>
      </trkpt>
      <trkpt lat="43.53007" lon="5.54932">
        <ele>276</ele>
        <time>2018-02-20T12:44:03.000Z</time>
      </trkpt>
      <trkpt lat="43.53007" lon="5.54932">
        <ele>276</ele>
        <time>2018-02-20T12:44:04.000Z</time>
      </trkpt>
      <trkpt lat="43.53007" lon="5.54932">
        <ele>276</ele>
        <time>2018-02-20T12:44:05.000Z</time>
      </trkpt>
      <trkpt lat="43.53007" lon="5.54932">
        <ele>276</ele>
        <time>2018-02-20T12:44:06.000Z</time>
      </trkpt>
      <trkpt lat="43.53007" lon="5.54932">
        <ele>276</ele>
        <time>2018-02-20T12:44:07.000Z</time>
      </trkpt>
      <trkpt lat="43.53007" lon="5.54932">
        <ele>276</ele>
        <time>2018-02-20T12:44:08.000Z</time>
      </trkpt>
      <trkpt lat="43.53007" lon="5.54932">
        <ele>276</ele>
        <time>2018-02-20T12:44:09.000Z</time>
      </trkpt>
      <trkpt lat="43.53007" lon="5.54932">
        <ele>276</ele>
        <time>2018-02-20T12:44:10.000Z</time>
      </trkpt>
      <trkpt lat="43.53007" lon="5.54932">
        <ele>276</ele>
        <time>2018-02-20T12:44:11.000Z</time>
      </trkpt>
      <trkpt lat="43.53007" lon="5.54932">
        <ele>276</ele>
        <time>2018-02-20T12:44:12.000Z</time>
      </trkpt>
      <trkpt lat="43.53007" lon="5.54932">
        <ele>276</ele>
        <time>2018-02-20T12:44:13.000Z</time>
      </trkpt>
      <trkpt lat="43.53007" lon="5.54932">
        <ele>276</ele>
        <time>2018-02-20T12:44:14.000Z</time>
      </trkpt>
      <trkpt lat="43.53007" lon="5.54932">
        <ele>276</ele>
        <time>2018-02-20T12:44:15.000Z</time>
      </trkpt>
      <trkpt lat="43.53007" lon="5.54932">
        <ele>276</ele>
        <time>2018-02-20T12:44:16.000Z</time>
      </trkpt>
      <trkpt lat="43.53007" lon="5.54932">
        <ele>276</ele>
        <time>2018-02-20T12:44:17.000Z</time>
      </trkpt>
      <trkpt lat="43.53007" lon="5.54932">
        <ele>276</ele>
        <time>2018-02-20T12:44:18.000Z</time>
      </trkpt>
      <trkpt lat="43.53007" lon="5.54931">
        <ele>276</ele>
        <time>2018-02-20T12:44:19.000Z</time>
      </trkpt>
      <trkpt lat="43.53007" lon="5.54931">
        <ele>276</ele>
        <time>2018-02-20T12:44:20.000Z</time>
      </trkpt>
      <trkpt lat="43.53007" lon="5.54931">
        <ele>276</ele>
        <time>2018-02-20T12:44:21.000Z</time>
      </trkpt>
      <trkpt lat="43.53007" lon="5.54932">
        <ele>276</ele>
        <time>2018-02-20T12:44:22.000Z</time>
      </trkpt>
      <trkpt lat="43.53007" lon="5.54932">
        <ele>276</ele>
        <time>2018-02-20T12:44:23.000Z</time>
      </trkpt>
      <trkpt lat="43.53007" lon="5.54932">
        <ele>276</ele>
        <time>2018-02-20T12:44:24.000Z</time>
      </trkpt>
      <trkpt lat="43.53007" lon="5.54932">
        <ele>276</ele>
        <time>2018-02-20T12:44:25.000Z</time>
      </trkpt>
      <trkpt lat="43.53007" lon="5.54932">
        <ele>276</ele>
        <time>2018-02-20T12:44:26.000Z</time>
      </trkpt>
      <trkpt lat="43.53007" lon="5.54932">
        <ele>276</ele>
        <time>2018-02-20T12:44:27.000Z</time>
      </trkpt>
      <trkpt lat="43.53007" lon="5.54931">
        <ele>276</ele>
        <time>2018-02-20T12:44:28.000Z</time>
      </trkpt>
      <trkpt lat="43.53007" lon="5.54931">
        <ele>276</ele>
        <time>2018-02-20T12:44:29.000Z</time>
      </trkpt>
      <trkpt lat="43.53007" lon="5.54931">
        <ele>276</ele>
        <time>2018-02-20T12:44:30.000Z</time>
      </trkpt>
      <trkpt lat="43.53007" lon="5.54931">
        <ele>276</ele>
        <time>2018-02-20T12:44:31.000Z</time>
      </trkpt>
      <trkpt lat="43.53007" lon="5.54931">
        <ele>275</ele>
        <time>2018-02-20T12:44:32.000Z</time>
      </trkpt>
      <trkpt lat="43.53007" lon="5.54931">
        <ele>275</ele>
        <time>2018-02-20T12:44:33.000Z</time>
      </trkpt>
      <trkpt lat="43.53007" lon="5.54931">
        <ele>275</ele>
        <time>2018-02-20T12:44:34.000Z</time>
      </trkpt>
      <trkpt lat="43.53007" lon="5.54931">
        <ele>275</ele>
        <time>2018-02-20T12:44:35.000Z</time>
      </trkpt>
      <trkpt lat="43.53007" lon="5.54931">
        <ele>275</ele>
        <time>2018-02-20T12:44:36.000Z</time>
      </trkpt>
      <trkpt lat="43.53007" lon="5.54931">
        <ele>275</ele>
        <time>2018-02-20T12:44:37.000Z</time>
      </trkpt>
      <trkpt lat="43.53007" lon="5.54931">
        <ele>275</ele>
        <time>2018-02-20T12:44:38.000Z</time>
      </trkpt>
      <trkpt lat="43.53008" lon="5.54931">
        <ele>275</ele>
        <time>2018-02-20T12:44:39.000Z</time>
      </trkpt>
      <trkpt lat="43.53008" lon="5.54931">
        <ele>275</ele>
        <time>2018-02-20T12:44:40.000Z</time>
      </trkpt>
      <trkpt lat="43.53008" lon="5.54931">
        <ele>275</ele>
        <time>2018-02-20T12:44:41.000Z</time>
      </trkpt>
      <trkpt lat="43.53008" lon="5.54931">
        <ele>275</ele>
        <time>2018-02-20T12:44:42.000Z</time>
      </trkpt>
      <trkpt lat="43.53008" lon="5.54931">
        <ele>275</ele>
        <time>2018-02-20T12:44:43.000Z</time>
      </trkpt>
      <trkpt lat="43.53008" lon="5.54931">
        <ele>275</ele>
        <time>2018-02-20T12:44:44.000Z</time>
      </trkpt>
      <trkpt lat="43.53008" lon="5.54931">
        <ele>275</ele>
        <time>2018-02-20T12:44:45.000Z</time>
      </trkpt>
      <trkpt lat="43.53008" lon="5.54931">
        <ele>275</ele>
        <time>2018-02-20T12:44:46.000Z</time>
      </trkpt>
      <trkpt lat="43.53008" lon="5.54931">
        <ele>275</ele>
        <time>2018-02-20T12:44:47.000Z</time>
      </trkpt>
      <trkpt lat="43.53008" lon="5.54931">
        <ele>275</ele>
        <time>2018-02-20T12:44:48.000Z</time>
      </trkpt>
      <trkpt lat="43.53008" lon="5.54931">
        <ele>275</ele>
        <time>2018-02-20T12:44:49.000Z</time>
      </trkpt>
      <trkpt lat="43.53008" lon="5.54931">
        <ele>275</ele>
        <time>2018-02-20T12:44:50.000Z</time>
      </trkpt>
      <trkpt lat="43.53008" lon="5.54931">
        <ele>275</ele>
        <time>2018-02-20T12:44:51.000Z</time>
      </trkpt>
      <trkpt lat="43.53008" lon="5.54931">
        <ele>275</ele>
        <time>2018-02-20T12:44:52.000Z</time>
      </trkpt>
      <trkpt lat="43.53008" lon="5.54931">
        <ele>275</ele>
        <time>2018-02-20T12:44:53.000Z</time>
      </trkpt>
      <trkpt lat="43.53008" lon="5.54931">
        <ele>275</ele>
        <time>2018-02-20T12:44:54.000Z</time>
      </trkpt>
      <trkpt lat="43.53008" lon="5.54931">
        <ele>275</ele>
        <time>2018-02-20T12:44:55.000Z</time>
      </trkpt>
      <trkpt lat="43.53008" lon="5.54931">
        <ele>275</ele>
        <time>2018-02-20T12:44:56.000Z</time>
      </trkpt>
      <trkpt lat="43.53008" lon="5.54931">
        <ele>275</ele>
        <time>2018-02-20T12:44:57.000Z</time>
      </trkpt>
      <trkpt lat="43.53008" lon="5.54931">
        <ele>275</ele>
        <time>2018-02-20T12:44:58.000Z</time>
      </trkpt>
      <trkpt lat="43.53008" lon="5.54931">
        <ele>275</ele>
        <time>2018-02-20T12:44:59.000Z</time>
      </trkpt>
      <trkpt lat="43.53008" lon="5.54931">
        <ele>275</ele>
        <time>2018-02-20T12:45:00.000Z</time>
      </trkpt>
      <trkpt lat="43.53008" lon="5.54931">
        <ele>275</ele>
        <time>2018-02-20T12:45:01.000Z</time>
      </trkpt>
      <trkpt lat="43.53008" lon="5.54931">
        <ele>275</ele>
        <time>2018-02-20T12:45:02.000Z</time>
      </trkpt>
      <trkpt lat="43.53008" lon="5.54931">
        <ele>275</ele>
        <time>2018-02-20T12:45:03.000Z</time>
      </trkpt>
      <trkpt lat="43.53008" lon="5.54931">
        <ele>275</ele>
        <time>2018-02-20T12:45:04.000Z</time>
      </trkpt>
      <trkpt lat="43.53008" lon="5.54931">
        <ele>275</ele>
        <time>2018-02-20T12:45:05.000Z</time>
      </trkpt>
      <trkpt lat="43.53008" lon="5.54931">
        <ele>275</ele>
        <time>2018-02-20T12:45:06.000Z</time>
      </trkpt>
      <trkpt lat="43.53008" lon="5.54931">
        <ele>275</ele>
        <time>2018-02-20T12:45:07.000Z</time>
      </trkpt>
      <trkpt lat="43.53008" lon="5.54931">
        <ele>275</ele>
        <time>2018-02-20T12:45:08.000Z</time>
      </trkpt>
      <trkpt lat="43.53008" lon="5.54931">
        <ele>275</ele>
        <time>2018-02-20T12:45:09.000Z</time>
      </trkpt>
      <trkpt lat="43.53008" lon="5.54931">
        <ele>275</ele>
        <time>2018-02-20T12:45:10.000Z</time>
      </trkpt>
      <trkpt lat="43.53008" lon="5.54931">
        <ele>275</ele>
        <time>2018-02-20T12:45:11.000Z</time>
      </trkpt>
      <trkpt lat="43.53008" lon="5.54931">
        <ele>275</ele>
        <time>2018-02-20T12:45:12.000Z</time>
      </trkpt>
      <trkpt lat="43.53008" lon="5.54931">
        <ele>275</ele>
        <time>2018-02-20T12:45:13.000Z</time>
      </trkpt>
      <trkpt lat="43.53008" lon="5.54931">
        <ele>275</ele>
        <time>2018-02-20T12:45:14.000Z</time>
      </trkpt>
      <trkpt lat="43.53008" lon="5.54931">
        <ele>275</ele>
        <time>2018-02-20T12:45:15.000Z</time>
      </trkpt>
      <trkpt lat="43.53008" lon="5.54931">
        <ele>274</ele>
        <time>2018-02-20T12:45:16.000Z</time>
      </trkpt>
      <trkpt lat="43.53008" lon="5.54931">
        <ele>274</ele>
        <time>2018-02-20T12:45:17.000Z</time>
      </trkpt>
      <trkpt lat="43.53008" lon="5.5493">
        <ele>274</ele>
        <time>2018-02-20T12:45:18.000Z</time>
      </trkpt>
      <trkpt lat="43.53007" lon="5.5493">
        <ele>274</ele>
        <time>2018-02-20T12:45:19.000Z</time>
      </trkpt>
      <trkpt lat="43.53007" lon="5.5493">
        <ele>274</ele>
        <time>2018-02-20T12:45:20.000Z</time>
      </trkpt>
      <trkpt lat="43.53007" lon="5.5493">
        <ele>274</ele>
        <time>2018-02-20T12:45:21.000Z</time>
      </trkpt>
      <trkpt lat="43.53007" lon="5.5493">
        <ele>274</ele>
        <time>2018-02-20T12:45:22.000Z</time>
      </trkpt>
      <trkpt lat="43.53007" lon="5.54931">
        <ele>274</ele>
        <time>2018-02-20T12:45:23.000Z</time>
      </trkpt>
      <trkpt lat="43.53007" lon="5.54931">
        <ele>274</ele>
        <time>2018-02-20T12:45:24.000Z</time>
      </trkpt>
      <trkpt lat="43.53007" lon="5.54931">
        <ele>274</ele>
        <time>2018-02-20T12:45:25.000Z</time>
      </trkpt>
      <trkpt lat="43.53007" lon="5.54931">
        <ele>274</ele>
        <time>2018-02-20T12:45:26.000Z</time>
      </trkpt>
      <trkpt lat="43.53007" lon="5.54931">
        <ele>274</ele>
        <time>2018-02-20T12:45:27.000Z</time>
      </trkpt>
      <trkpt lat="43.53007" lon="5.54931">
        <ele>274</ele>
        <time>2018-02-20T12:45:28.000Z</time>
      </trkpt>
      <trkpt lat="43.53007" lon="5.54931">
        <ele>274</ele>
        <time>2018-02-20T12:45:29.000Z</time>
      </trkpt>
      <trkpt lat="43.53007" lon="5.54931">
        <ele>274</ele>
        <time>2018-02-20T12:45:30.000Z</time>
      </trkpt>
      <trkpt lat="43.53007" lon="5.54931">
        <ele>274</ele>
        <time>2018-02-20T12:45:31.000Z</time>
      </trkpt>
      <trkpt lat="43.53007" lon="5.54931">
        <ele>274</ele>
        <time>2018-02-20T12:45:32.000Z</time>
      </trkpt>
      <trkpt lat="43.53007" lon="5.54931">
        <ele>274</ele>
        <time>2018-02-20T12:45:33.000Z</time>
      </trkpt>
      <trkpt lat="43.53007" lon="5.54931">
        <ele>274</ele>
        <time>2018-02-20T12:45:34.000Z</time>
      </trkpt>
      <trkpt lat="43.53007" lon="5.54931">
        <ele>274</ele>
        <time>2018-02-20T12:45:35.000Z</time>
      </trkpt>
      <trkpt lat="43.53007" lon="5.54931">
        <ele>274</ele>
        <time>2018-02-20T12:45:36.000Z</time>
      </trkpt>
      <trkpt lat="43.53007" lon="5.5493">
        <ele>274</ele>
        <time>2018-02-20T12:45:37.000Z</time>
      </trkpt>
      <trkpt lat="43.53007" lon="5.5493">
        <ele>274</ele>
        <time>2018-02-20T12:45:38.000Z</time>
      </trkpt>
      <trkpt lat="43.53007" lon="5.5493">
        <ele>274</ele>
        <time>2018-02-20T12:45:39.000Z</time>
      </trkpt>
      <trkpt lat="43.53007" lon="5.5493">
        <ele>274</ele>
        <time>2018-02-20T12:45:40.000Z</time>
      </trkpt>
      <trkpt lat="43.53007" lon="5.5493">
        <ele>274</ele>
        <time>2018-02-20T12:45:41.000Z</time>
      </trkpt>
      <trkpt lat="43.53007" lon="5.5493">
        <ele>274</ele>
        <time>2018-02-20T12:45:42.000Z</time>
      </trkpt>
      <trkpt lat="43.53007" lon="5.5493">
        <ele>274</ele>
        <time>2018-02-20T12:45:43.000Z</time>
      </trkpt>
      <trkpt lat="43.53007" lon="5.5493">
        <ele>274</ele>
        <time>2018-02-20T12:45:44.000Z</time>
      </trkpt>
      <trkpt lat="43.53007" lon="5.5493">
        <ele>274</ele>
        <time>2018-02-20T12:45:45.000Z</time>
      </trkpt>
      <trkpt lat="43.53007" lon="5.5493">
        <ele>274</ele>
        <time>2018-02-20T12:45:46.000Z</time>
      </trkpt>
      <trkpt lat="43.53007" lon="5.5493">
        <ele>274</ele>
        <time>2018-02-20T12:45:47.000Z</time>
      </trkpt>
      <trkpt lat="43.53007" lon="5.5493">
        <ele>274</ele>
        <time>2018-02-20T12:45:48.000Z</time>
      </trkpt>
      <trkpt lat="43.53007" lon="5.5493">
        <ele>274</ele>
        <time>2018-02-20T12:45:49.000Z</time>
      </trkpt>
      <trkpt lat="43.53007" lon="5.5493">
        <ele>274</ele>
        <time>2018-02-20T12:45:50.000Z</time>
      </trkpt>
      <trkpt lat="43.53007" lon="5.5493">
        <ele>274</ele>
        <time>2018-02-20T12:45:51.000Z</time>
      </trkpt>
      <trkpt lat="43.53007" lon="5.5493">
        <ele>274</ele>
        <time>2018-02-20T12:45:52.000Z</time>
      </trkpt>
      <trkpt lat="43.53007" lon="5.5493">
        <ele>274</ele>
        <time>2018-02-20T12:45:53.000Z</time>
      </trkpt>
      <trkpt lat="43.53007" lon="5.5493">
        <ele>274</ele>
        <time>2018-02-20T12:45:54.000Z</time>
      </trkpt>
      <trkpt lat="43.53007" lon="5.5493">
        <ele>274</ele>
        <time>2018-02-20T12:45:55.000Z</time>
      </trkpt>
      <trkpt lat="43.53007" lon="5.5493">
        <ele>274</ele>
        <time>2018-02-20T12:45:56.000Z</time>
      </trkpt>
      <trkpt lat="43.53007" lon="5.5493">
        <ele>274</ele>
        <time>2018-02-20T12:45:57.000Z</time>
      </trkpt>
      <trkpt lat="43.53007" lon="5.5493">
        <ele>274</ele>
        <time>2018-02-20T12:45:58.000Z</time>
      </trkpt>
      <trkpt lat="43.53007" lon="5.5493">
        <ele>274</ele>
        <time>2018-02-20T12:45:59.000Z</time>
      </trkpt>
      <trkpt lat="43.53007" lon="5.5493">
        <ele>274</ele>
        <time>2018-02-20T12:46:00.000Z</time>
      </trkpt>
      <trkpt lat="43.53007" lon="5.54931">
        <ele>274</ele>
        <time>2018-02-20T12:46:01.000Z</time>
      </trkpt>
      <trkpt lat="43.53007" lon="5.54931">
        <ele>274</ele>
        <time>2018-02-20T12:46:02.000Z</time>
      </trkpt>
      <trkpt lat="43.53007" lon="5.54931">
        <ele>274</ele>
        <time>2018-02-20T12:46:03.000Z</time>
      </trkpt>
      <trkpt lat="43.53006" lon="5.54931">
        <ele>274</ele>
        <time>2018-02-20T12:46:04.000Z</time>
      </trkpt>
      <trkpt lat="43.53005" lon="5.54931">
        <ele>274</ele>
        <time>2018-02-20T12:46:05.000Z</time>
      </trkpt>
      <trkpt lat="43.53004" lon="5.54932">
        <ele>274</ele>
        <time>2018-02-20T12:46:06.000Z</time>
      </trkpt>
      <trkpt lat="43.53003" lon="5.54933">
        <ele>274</ele>
        <time>2018-02-20T12:46:07.000Z</time>
      </trkpt>
      <trkpt lat="43.53003" lon="5.54933">
        <ele>275</ele>
        <time>2018-02-20T12:46:08.000Z</time>
      </trkpt>
      <trkpt lat="43.53002" lon="5.54934">
        <ele>275</ele>
        <time>2018-02-20T12:46:09.000Z</time>
      </trkpt>
      <trkpt lat="43.53001" lon="5.54935">
        <ele>275</ele>
        <time>2018-02-20T12:46:10.000Z</time>
      </trkpt>
      <trkpt lat="43.53" lon="5.54936">
        <ele>275</ele>
        <time>2018-02-20T12:46:11.000Z</time>
      </trkpt>
      <trkpt lat="43.52999" lon="5.54937">
        <ele>275</ele>
        <time>2018-02-20T12:46:12.000Z</time>
      </trkpt>
      <trkpt lat="43.52998" lon="5.54938">
        <ele>275</ele>
        <time>2018-02-20T12:46:13.000Z</time>
      </trkpt>
      <trkpt lat="43.52997" lon="5.54939">
        <ele>275</ele>
        <time>2018-02-20T12:46:14.000Z</time>
      </trkpt>
      <trkpt lat="43.52996" lon="5.5494">
        <ele>275</ele>
        <time>2018-02-20T12:46:15.000Z</time>
      </trkpt>
      <trkpt lat="43.52995" lon="5.54941">
        <ele>275</ele>
        <time>2018-02-20T12:46:16.000Z</time>
      </trkpt>
      <trkpt lat="43.52994" lon="5.54942">
        <ele>275</ele>
        <time>2018-02-20T12:46:17.000Z</time>
      </trkpt>
      <trkpt lat="43.52993" lon="5.54943">
        <ele>275</ele>
        <time>2018-02-20T12:46:18.000Z</time>
      </trkpt>
      <trkpt lat="43.52992" lon="5.54943">
        <ele>275</ele>
        <time>2018-02-20T12:46:19.000Z</time>
      </trkpt>
      <trkpt lat="43.52991" lon="5.54944">
        <ele>275</ele>
        <time>2018-02-20T12:46:20.000Z</time>
      </trkpt>
      <trkpt lat="43.5299" lon="5.54944">
        <ele>275</ele>
        <time>2018-02-20T12:46:21.000Z</time>
      </trkpt>
      <trkpt lat="43.52989" lon="5.54944">
        <ele>275</ele>
        <time>2018-02-20T12:46:22.000Z</time>
      </trkpt>
      <trkpt lat="43.52988" lon="5.54944">
        <ele>275</ele>
        <time>2018-02-20T12:46:23.000Z</time>
      </trkpt>
      <trkpt lat="43.52987" lon="5.54944">
        <ele>275</ele>
        <time>2018-02-20T12:46:24.000Z</time>
      </trkpt>
      <trkpt lat="43.52986" lon="5.54944">
        <ele>275</ele>
        <time>2018-02-20T12:46:25.000Z</time>
      </trkpt>
      <trkpt lat="43.52985" lon="5.54944">
        <ele>275</ele>
        <time>2018-02-20T12:46:26.000Z</time>
      </trkpt>
      <trkpt lat="43.52984" lon="5.54943">
        <ele>275</ele>
        <time>2018-02-20T12:46:27.000Z</time>
      </trkpt>
      <trkpt lat="43.52983" lon="5.54943">
        <ele>275</ele>
        <time>2018-02-20T12:46:28.000Z</time>
      </trkpt>
      <trkpt lat="43.52982" lon="5.54942">
        <ele>275</ele>
        <time>2018-02-20T12:46:29.000Z</time>
      </trkpt>
      <trkpt lat="43.5298" lon="5.54942">
        <ele>275</ele>
        <time>2018-02-20T12:46:30.000Z</time>
      </trkpt>
      <trkpt lat="43.52979" lon="5.54942">
        <ele>275</ele>
        <time>2018-02-20T12:46:31.000Z</time>
      </trkpt>
      <trkpt lat="43.52978" lon="5.54941">
        <ele>274</ele>
        <time>2018-02-20T12:46:32.000Z</time>
      </trkpt>
      <trkpt lat="43.52977" lon="5.54941">
        <ele>274</ele>
        <time>2018-02-20T12:46:33.000Z</time>
      </trkpt>
      <trkpt lat="43.52976" lon="5.54941">
        <ele>274</ele>
        <time>2018-02-20T12:46:34.000Z</time>
      </trkpt>
      <trkpt lat="43.52975" lon="5.54941">
        <ele>274</ele>
        <time>2018-02-20T12:46:35.000Z</time>
      </trkpt>
      <trkpt lat="43.52974" lon="5.54941">
        <ele>274</ele>
        <time>2018-02-20T12:46:36.000Z</time>
      </trkpt>
      <trkpt lat="43.52973" lon="5.54941">
        <ele>273</ele>
        <time>2018-02-20T12:46:37.000Z</time>
      </trkpt>
      <trkpt lat="43.52971" lon="5.54941">
        <ele>273</ele>
        <time>2018-02-20T12:46:38.000Z</time>
      </trkpt>
      <trkpt lat="43.5297" lon="5.54942">
        <ele>273</ele>
        <time>2018-02-20T12:46:39.000Z</time>
      </trkpt>
      <trkpt lat="43.52969" lon="5.54942">
        <ele>273</ele>
        <time>2018-02-20T12:46:40.000Z</time>
      </trkpt>
      <trkpt lat="43.52968" lon="5.54942">
        <ele>273</ele>
        <time>2018-02-20T12:46:41.000Z</time>
      </trkpt>
      <trkpt lat="43.52967" lon="5.54943">
        <ele>273</ele>
        <time>2018-02-20T12:46:42.000Z</time>
      </trkpt>
      <trkpt lat="43.52965" lon="5.54943">
        <ele>273</ele>
        <time>2018-02-20T12:46:43.000Z</time>
      </trkpt>
      <trkpt lat="43.52964" lon="5.54943">
        <ele>273</ele>
        <time>2018-02-20T12:46:44.000Z</time>
      </trkpt>
      <trkpt lat="43.52963" lon="5.54944">
        <ele>273</ele>
        <time>2018-02-20T12:46:45.000Z</time>
      </trkpt>
      <trkpt lat="43.52962" lon="5.54944">
        <ele>273</ele>
        <time>2018-02-20T12:46:46.000Z</time>
      </trkpt>
      <trkpt lat="43.52961" lon="5.54944">
        <ele>273</ele>
        <time>2018-02-20T12:46:47.000Z</time>
      </trkpt>
      <trkpt lat="43.5296" lon="5.54944">
        <ele>273</ele>
        <time>2018-02-20T12:46:48.000Z</time>
      </trkpt>
      <trkpt lat="43.52959" lon="5.54944">
        <ele>272</ele>
        <time>2018-02-20T12:46:49.000Z</time>
      </trkpt>
      <trkpt lat="43.52958" lon="5.54945">
        <ele>272</ele>
        <time>2018-02-20T12:46:50.000Z</time>
      </trkpt>
      <trkpt lat="43.52957" lon="5.54945">
        <ele>272</ele>
        <time>2018-02-20T12:46:51.000Z</time>
      </trkpt>
      <trkpt lat="43.52956" lon="5.54946">
        <ele>272</ele>
        <time>2018-02-20T12:46:52.000Z</time>
      </trkpt>
      <trkpt lat="43.52955" lon="5.54946">
        <ele>272</ele>
        <time>2018-02-20T12:46:53.000Z</time>
      </trkpt>
      <trkpt lat="43.52954" lon="5.54947">
        <ele>272</ele>
        <time>2018-02-20T12:46:54.000Z</time>
      </trkpt>
      <trkpt lat="43.52953" lon="5.54948">
        <ele>272</ele>
        <time>2018-02-20T12:46:55.000Z</time>
      </trkpt>
      <trkpt lat="43.52952" lon="5.54949">
        <ele>272</ele>
        <time>2018-02-20T12:46:56.000Z</time>
      </trkpt>
      <trkpt lat="43.52951" lon="5.54949">
        <ele>273</ele>
        <time>2018-02-20T12:46:57.000Z</time>
      </trkpt>
      <trkpt lat="43.5295" lon="5.5495">
        <ele>273</ele>
        <time>2018-02-20T12:46:58.000Z</time>
      </trkpt>
      <trkpt lat="43.52949" lon="5.54951">
        <ele>273</ele>
        <time>2018-02-20T12:46:59.000Z</time>
      </trkpt>
      <trkpt lat="43.52948" lon="5.54953">
        <ele>272</ele>
        <time>2018-02-20T12:47:00.000Z</time>
      </trkpt>
      <trkpt lat="43.52947" lon="5.54954">
        <ele>272</ele>
        <time>2018-02-20T12:47:01.000Z</time>
      </trkpt>
      <trkpt lat="43.52946" lon="5.54955">
        <ele>272</ele>
        <time>2018-02-20T12:47:02.000Z</time>
      </trkpt>
      <trkpt lat="43.52946" lon="5.54956">
        <ele>272</ele>
        <time>2018-02-20T12:47:03.000Z</time>
      </trkpt>
      <trkpt lat="43.52945" lon="5.54956">
        <ele>272</ele>
        <time>2018-02-20T12:47:04.000Z</time>
      </trkpt>
      <trkpt lat="43.52944" lon="5.54957">
        <ele>272</ele>
        <time>2018-02-20T12:47:05.000Z</time>
      </trkpt>
      <trkpt lat="43.52943" lon="5.54958">
        <ele>272</ele>
        <time>2018-02-20T12:47:06.000Z</time>
      </trkpt>
      <trkpt lat="43.52942" lon="5.54959">
        <ele>272</ele>
        <time>2018-02-20T12:47:07.000Z</time>
      </trkpt>
      <trkpt lat="43.52941" lon="5.5496">
        <ele>272</ele>
        <time>2018-02-20T12:47:08.000Z</time>
      </trkpt>
      <trkpt lat="43.5294" lon="5.5496">
        <ele>272</ele>
        <time>2018-02-20T12:47:09.000Z</time>
      </trkpt>
      <trkpt lat="43.52939" lon="5.54961">
        <ele>272</ele>
        <time>2018-02-20T12:47:10.000Z</time>
      </trkpt>
      <trkpt lat="43.52938" lon="5.54962">
        <ele>272</ele>
        <time>2018-02-20T12:47:11.000Z</time>
      </trkpt>
      <trkpt lat="43.52937" lon="5.54962">
        <ele>272</ele>
        <time>2018-02-20T12:47:12.000Z</time>
      </trkpt>
      <trkpt lat="43.52936" lon="5.54962">
        <ele>272</ele>
        <time>2018-02-20T12:47:13.000Z</time>
      </trkpt>
      <trkpt lat="43.52934" lon="5.54962">
        <ele>272</ele>
        <time>2018-02-20T12:47:14.000Z</time>
      </trkpt>
      <trkpt lat="43.52933" lon="5.54962">
        <ele>272</ele>
        <time>2018-02-20T12:47:15.000Z</time>
      </trkpt>
      <trkpt lat="43.52932" lon="5.54961">
        <ele>271</ele>
        <time>2018-02-20T12:47:16.000Z</time>
      </trkpt>
      <trkpt lat="43.52931" lon="5.5496">
        <ele>271</ele>
        <time>2018-02-20T12:47:17.000Z</time>
      </trkpt>
      <trkpt lat="43.5293" lon="5.5496">
        <ele>271</ele>
        <time>2018-02-20T12:47:18.000Z</time>
      </trkpt>
      <trkpt lat="43.52929" lon="5.54959">
        <ele>271</ele>
        <time>2018-02-20T12:47:19.000Z</time>
      </trkpt>
      <trkpt lat="43.52928" lon="5.54957">
        <ele>271</ele>
        <time>2018-02-20T12:47:20.000Z</time>
      </trkpt>
      <trkpt lat="43.52927" lon="5.54956">
        <ele>271</ele>
        <time>2018-02-20T12:47:21.000Z</time>
      </trkpt>
      <trkpt lat="43.52927" lon="5.54955">
        <ele>271</ele>
        <time>2018-02-20T12:47:22.000Z</time>
      </trkpt>
      <trkpt lat="43.52926" lon="5.54953">
        <ele>271</ele>
        <time>2018-02-20T12:47:23.000Z</time>
      </trkpt>
      <trkpt lat="43.52925" lon="5.54951">
        <ele>271</ele>
        <time>2018-02-20T12:47:24.000Z</time>
      </trkpt>
      <trkpt lat="43.52924" lon="5.5495">
        <ele>271</ele>
        <time>2018-02-20T12:47:25.000Z</time>
      </trkpt>
      <trkpt lat="43.52923" lon="5.54948">
        <ele>271</ele>
        <time>2018-02-20T12:47:26.000Z</time>
      </trkpt>
      <trkpt lat="43.52922" lon="5.54947">
        <ele>271</ele>
        <time>2018-02-20T12:47:27.000Z</time>
      </trkpt>
      <trkpt lat="43.52921" lon="5.54946">
        <ele>271</ele>
        <time>2018-02-20T12:47:28.000Z</time>
      </trkpt>
      <trkpt lat="43.52921" lon="5.54945">
        <ele>271</ele>
        <time>2018-02-20T12:47:29.000Z</time>
      </trkpt>
      <trkpt lat="43.5292" lon="5.54944">
        <ele>271</ele>
        <time>2018-02-20T12:47:30.000Z</time>
      </trkpt>
      <trkpt lat="43.52919" lon="5.54944">
        <ele>271</ele>
        <time>2018-02-20T12:47:31.000Z</time>
      </trkpt>
      <trkpt lat="43.52918" lon="5.54943">
        <ele>271</ele>
        <time>2018-02-20T12:47:32.000Z</time>
      </trkpt>
      <trkpt lat="43.52917" lon="5.54943">
        <ele>271</ele>
        <time>2018-02-20T12:47:33.000Z</time>
      </trkpt>
      <trkpt lat="43.52916" lon="5.54943">
        <ele>271</ele>
        <time>2018-02-20T12:47:34.000Z</time>
      </trkpt>
      <trkpt lat="43.52916" lon="5.54943">
        <ele>270</ele>
        <time>2018-02-20T12:47:35.000Z</time>
      </trkpt>
      <trkpt lat="43.52915" lon="5.54944">
        <ele>270</ele>
        <time>2018-02-20T12:47:36.000Z</time>
      </trkpt>
      <trkpt lat="43.52914" lon="5.54943">
        <ele>270</ele>
        <time>2018-02-20T12:47:37.000Z</time>
      </trkpt>
      <trkpt lat="43.52914" lon="5.54943">
        <ele>270</ele>
        <time>2018-02-20T12:47:38.000Z</time>
      </trkpt>
      <trkpt lat="43.52913" lon="5.54942">
        <ele>270</ele>
        <time>2018-02-20T12:47:39.000Z</time>
      </trkpt>
      <trkpt lat="43.52912" lon="5.5494">
        <ele>270</ele>
        <time>2018-02-20T12:47:40.000Z</time>
      </trkpt>
      <trkpt lat="43.52911" lon="5.54939">
        <ele>270</ele>
        <time>2018-02-20T12:47:41.000Z</time>
      </trkpt>
      <trkpt lat="43.5291" lon="5.54938">
        <ele>270</ele>
        <time>2018-02-20T12:47:42.000Z</time>
      </trkpt>
      <trkpt lat="43.5291" lon="5.54937">
        <ele>270</ele>
        <time>2018-02-20T12:47:43.000Z</time>
      </trkpt>
      <trkpt lat="43.52909" lon="5.54936">
        <ele>270</ele>
        <time>2018-02-20T12:47:44.000Z</time>
      </trkpt>
      <trkpt lat="43.52908" lon="5.54935">
        <ele>270</ele>
        <time>2018-02-20T12:47:45.000Z</time>
      </trkpt>
      <trkpt lat="43.52908" lon="5.54934">
        <ele>270</ele>
        <time>2018-02-20T12:47:46.000Z</time>
      </trkpt>
      <trkpt lat="43.52907" lon="5.54933">
        <ele>270</ele>
        <time>2018-02-20T12:47:47.000Z</time>
      </trkpt>
      <trkpt lat="43.52906" lon="5.54933">
        <ele>270</ele>
        <time>2018-02-20T12:47:48.000Z</time>
      </trkpt>
      <trkpt lat="43.52905" lon="5.54932">
        <ele>270</ele>
        <time>2018-02-20T12:47:49.000Z</time>
      </trkpt>
      <trkpt lat="43.52904" lon="5.5493">
        <ele>270</ele>
        <time>2018-02-20T12:47:50.000Z</time>
      </trkpt>
      <trkpt lat="43.52903" lon="5.54929">
        <ele>270</ele>
        <time>2018-02-20T12:47:51.000Z</time>
      </trkpt>
      <trkpt lat="43.52903" lon="5.54928">
        <ele>270</ele>
        <time>2018-02-20T12:47:52.000Z</time>
      </trkpt>
      <trkpt lat="43.52902" lon="5.54927">
        <ele>269</ele>
        <time>2018-02-20T12:47:53.000Z</time>
      </trkpt>
      <trkpt lat="43.529" lon="5.54926">
        <ele>269</ele>
        <time>2018-02-20T12:47:54.000Z</time>
      </trkpt>
      <trkpt lat="43.52899" lon="5.54926">
        <ele>269</ele>
        <time>2018-02-20T12:47:55.000Z</time>
      </trkpt>
      <trkpt lat="43.52898" lon="5.54926">
        <ele>269</ele>
        <time>2018-02-20T12:47:56.000Z</time>
      </trkpt>
      <trkpt lat="43.52897" lon="5.54926">
        <ele>269</ele>
        <time>2018-02-20T12:47:57.000Z</time>
      </trkpt>
      <trkpt lat="43.52896" lon="5.54925">
        <ele>269</ele>
        <time>2018-02-20T12:47:58.000Z</time>
      </trkpt>
      <trkpt lat="43.52896" lon="5.54924">
        <ele>269</ele>
        <time>2018-02-20T12:47:59.000Z</time>
      </trkpt>
      <trkpt lat="43.52895" lon="5.54923">
        <ele>269</ele>
        <time>2018-02-20T12:48:00.000Z</time>
      </trkpt>
      <trkpt lat="43.52895" lon="5.54922">
        <ele>269</ele>
        <time>2018-02-20T12:48:01.000Z</time>
      </trkpt>
      <trkpt lat="43.52894" lon="5.54921">
        <ele>269</ele>
        <time>2018-02-20T12:48:02.000Z</time>
      </trkpt>
      <trkpt lat="43.52894" lon="5.5492">
        <ele>269</ele>
        <time>2018-02-20T12:48:03.000Z</time>
      </trkpt>
      <trkpt lat="43.52893" lon="5.54919">
        <ele>269</ele>
        <time>2018-02-20T12:48:04.000Z</time>
      </trkpt>
      <trkpt lat="43.52892" lon="5.54918">
        <ele>269</ele>
        <time>2018-02-20T12:48:05.000Z</time>
      </trkpt>
      <trkpt lat="43.52891" lon="5.54917">
        <ele>269</ele>
        <time>2018-02-20T12:48:06.000Z</time>
      </trkpt>
      <trkpt lat="43.5289" lon="5.54916">
        <ele>269</ele>
        <time>2018-02-20T12:48:07.000Z</time>
      </trkpt>
      <trkpt lat="43.52889" lon="5.54915">
        <ele>270</ele>
        <time>2018-02-20T12:48:08.000Z</time>
      </trkpt>
      <trkpt lat="43.52888" lon="5.54914">
        <ele>270</ele>
        <time>2018-02-20T12:48:09.000Z</time>
      </trkpt>
      <trkpt lat="43.52887" lon="5.54913">
        <ele>270</ele>
        <time>2018-02-20T12:48:10.000Z</time>
      </trkpt>
      <trkpt lat="43.52886" lon="5.54912">
        <ele>270</ele>
        <time>2018-02-20T12:48:11.000Z</time>
      </trkpt>
      <trkpt lat="43.52885" lon="5.54911">
        <ele>270</ele>
        <time>2018-02-20T12:48:12.000Z</time>
      </trkpt>
      <trkpt lat="43.52884" lon="5.5491">
        <ele>270</ele>
        <time>2018-02-20T12:48:13.000Z</time>
      </trkpt>
      <trkpt lat="43.52883" lon="5.54909">
        <ele>270</ele>
        <time>2018-02-20T12:48:14.000Z</time>
      </trkpt>
      <trkpt lat="43.52882" lon="5.54908">
        <ele>270</ele>
        <time>2018-02-20T12:48:15.000Z</time>
      </trkpt>
      <trkpt lat="43.52881" lon="5.54906">
        <ele>270</ele>
        <time>2018-02-20T12:48:16.000Z</time>
      </trkpt>
      <trkpt lat="43.5288" lon="5.54905">
        <ele>270</ele>
        <time>2018-02-20T12:48:17.000Z</time>
      </trkpt>
      <trkpt lat="43.52879" lon="5.54904">
        <ele>270</ele>
        <time>2018-02-20T12:48:18.000Z</time>
      </trkpt>
      <trkpt lat="43.52878" lon="5.54903">
        <ele>270</ele>
        <time>2018-02-20T12:48:19.000Z</time>
      </trkpt>
      <trkpt lat="43.52877" lon="5.54902">
        <ele>270</ele>
        <time>2018-02-20T12:48:20.000Z</time>
      </trkpt>
      <trkpt lat="43.52877" lon="5.54901">
        <ele>270</ele>
        <time>2018-02-20T12:48:21.000Z</time>
      </trkpt>
      <trkpt lat="43.52876" lon="5.549">
        <ele>270</ele>
        <time>2018-02-20T12:48:22.000Z</time>
      </trkpt>
      <trkpt lat="43.52875" lon="5.54899">
        <ele>270</ele>
        <time>2018-02-20T12:48:23.000Z</time>
      </trkpt>
      <trkpt lat="43.52874" lon="5.54899">
        <ele>270</ele>
        <time>2018-02-20T12:48:24.000Z</time>
      </trkpt>
      <trkpt lat="43.52873" lon="5.54898">
        <ele>270</ele>
        <time>2018-02-20T12:48:25.000Z</time>
      </trkpt>
      <trkpt lat="43.52871" lon="5.54897">
        <ele>270</ele>
        <time>2018-02-20T12:48:26.000Z</time>
      </trkpt>
      <trkpt lat="43.5287" lon="5.54897">
        <ele>270</ele>
        <time>2018-02-20T12:48:27.000Z</time>
      </trkpt>
      <trkpt lat="43.52869" lon="5.54897">
        <ele>270</ele>
        <time>2018-02-20T12:48:28.000Z</time>
      </trkpt>
      <trkpt lat="43.52868" lon="5.54896">
        <ele>270</ele>
        <time>2018-02-20T12:48:29.000Z</time>
      </trkpt>
      <trkpt lat="43.52867" lon="5.54895">
        <ele>270</ele>
        <time>2018-02-20T12:48:30.000Z</time>
      </trkpt>
      <trkpt lat="43.52866" lon="5.54894">
        <ele>270</ele>
        <time>2018-02-20T12:48:31.000Z</time>
      </trkpt>
      <trkpt lat="43.52866" lon="5.54893">
        <ele>270</ele>
        <time>2018-02-20T12:48:32.000Z</time>
      </trkpt>
      <trkpt lat="43.52865" lon="5.54892">
        <ele>270</ele>
        <time>2018-02-20T12:48:33.000Z</time>
      </trkpt>
      <trkpt lat="43.52864" lon="5.54891">
        <ele>270</ele>
        <time>2018-02-20T12:48:34.000Z</time>
      </trkpt>
      <trkpt lat="43.52863" lon="5.5489">
        <ele>270</ele>
        <time>2018-02-20T12:48:35.000Z</time>
      </trkpt>
      <trkpt lat="43.52862" lon="5.54889">
        <ele>270</ele>
        <time>2018-02-20T12:48:36.000Z</time>
      </trkpt>
      <trkpt lat="43.52861" lon="5.54887">
        <ele>270</ele>
        <time>2018-02-20T12:48:37.000Z</time>
      </trkpt>
      <trkpt lat="43.52861" lon="5.54886">
        <ele>270</ele>
        <time>2018-02-20T12:48:38.000Z</time>
      </trkpt>
      <trkpt lat="43.5286" lon="5.54885">
        <ele>270</ele>
        <time>2018-02-20T12:48:39.000Z</time>
      </trkpt>
      <trkpt lat="43.52859" lon="5.54884">
        <ele>270</ele>
        <time>2018-02-20T12:48:40.000Z</time>
      </trkpt>
      <trkpt lat="43.52858" lon="5.54883">
        <ele>270</ele>
        <time>2018-02-20T12:48:41.000Z</time>
      </trkpt>
      <trkpt lat="43.52857" lon="5.54882">
        <ele>270</ele>
        <time>2018-02-20T12:48:42.000Z</time>
      </trkpt>
      <trkpt lat="43.52856" lon="5.5488">
        <ele>270</ele>
        <time>2018-02-20T12:48:43.000Z</time>
      </trkpt>
      <trkpt lat="43.52855" lon="5.54879">
        <ele>270</ele>
        <time>2018-02-20T12:48:44.000Z</time>
      </trkpt>
      <trkpt lat="43.52855" lon="5.54878">
        <ele>269</ele>
        <time>2018-02-20T12:48:45.000Z</time>
      </trkpt>
      <trkpt lat="43.52854" lon="5.54876">
        <ele>269</ele>
        <time>2018-02-20T12:48:46.000Z</time>
      </trkpt>
      <trkpt lat="43.52854" lon="5.54875">
        <ele>269</ele>
        <time>2018-02-20T12:48:47.000Z</time>
      </trkpt>
      <trkpt lat="43.52853" lon="5.54874">
        <ele>269</ele>
        <time>2018-02-20T12:48:48.000Z</time>
      </trkpt>
      <trkpt lat="43.52852" lon="5.54872">
        <ele>269</ele>
        <time>2018-02-20T12:48:49.000Z</time>
      </trkpt>
      <trkpt lat="43.52851" lon="5.54871">
        <ele>269</ele>
        <time>2018-02-20T12:48:50.000Z</time>
      </trkpt>
      <trkpt lat="43.5285" lon="5.5487">
        <ele>269</ele>
        <time>2018-02-20T12:48:51.000Z</time>
      </trkpt>
      <trkpt lat="43.52849" lon="5.54869">
        <ele>269</ele>
        <time>2018-02-20T12:48:52.000Z</time>
      </trkpt>
      <trkpt lat="43.52849" lon="5.54868">
        <ele>269</ele>
        <time>2018-02-20T12:48:53.000Z</time>
      </trkpt>
      <trkpt lat="43.52848" lon="5.54868">
        <ele>269</ele>
        <time>2018-02-20T12:48:54.000Z</time>
      </trkpt>
      <trkpt lat="43.52847" lon="5.54867">
        <ele>269</ele>
        <time>2018-02-20T12:48:55.000Z</time>
      </trkpt>
      <trkpt lat="43.52846" lon="5.54866">
        <ele>269</ele>
        <time>2018-02-20T12:48:56.000Z</time>
      </trkpt>
      <trkpt lat="43.52845" lon="5.54865">
        <ele>269</ele>
        <time>2018-02-20T12:48:57.000Z</time>
      </trkpt>
      <trkpt lat="43.52844" lon="5.54864">
        <ele>269</ele>
        <time>2018-02-20T12:48:58.000Z</time>
      </trkpt>
      <trkpt lat="43.52843" lon="5.54862">
        <ele>269</ele>
        <time>2018-02-20T12:48:59.000Z</time>
      </trkpt>
      <trkpt lat="43.52842" lon="5.54861">
        <ele>269</ele>
        <time>2018-02-20T12:49:00.000Z</time>
      </trkpt>
      <trkpt lat="43.52841" lon="5.5486">
        <ele>269</ele>
        <time>2018-02-20T12:49:01.000Z</time>
      </trkpt>
      <trkpt lat="43.5284" lon="5.5486">
        <ele>269</ele>
        <time>2018-02-20T12:49:02.000Z</time>
      </trkpt>
      <trkpt lat="43.52839" lon="5.54859">
        <ele>269</ele>
        <time>2018-02-20T12:49:03.000Z</time>
      </trkpt>
      <trkpt lat="43.52838" lon="5.54858">
        <ele>269</ele>
        <time>2018-02-20T12:49:04.000Z</time>
      </trkpt>
      <trkpt lat="43.52838" lon="5.54857">
        <ele>269</ele>
        <time>2018-02-20T12:49:05.000Z</time>
      </trkpt>
      <trkpt lat="43.52837" lon="5.54855">
        <ele>269</ele>
        <time>2018-02-20T12:49:06.000Z</time>
      </trkpt>
      <trkpt lat="43.52837" lon="5.54854">
        <ele>269</ele>
        <time>2018-02-20T12:49:07.000Z</time>
      </trkpt>
      <trkpt lat="43.52836" lon="5.54853">
        <ele>269</ele>
        <time>2018-02-20T12:49:08.000Z</time>
      </trkpt>
      <trkpt lat="43.52836" lon="5.54851">
        <ele>269</ele>
        <time>2018-02-20T12:49:09.000Z</time>
      </trkpt>
      <trkpt lat="43.52835" lon="5.54849">
        <ele>269</ele>
        <time>2018-02-20T12:49:10.000Z</time>
      </trkpt>
      <trkpt lat="43.52835" lon="5.54848">
        <ele>269</ele>
        <time>2018-02-20T12:49:11.000Z</time>
      </trkpt>
      <trkpt lat="43.52834" lon="5.54846">
        <ele>269</ele>
        <time>2018-02-20T12:49:12.000Z</time>
      </trkpt>
      <trkpt lat="43.52832" lon="5.54844">
        <ele>269</ele>
        <time>2018-02-20T12:49:13.000Z</time>
      </trkpt>
      <trkpt lat="43.52831" lon="5.54843">
        <ele>269</ele>
        <time>2018-02-20T12:49:14.000Z</time>
      </trkpt>
      <trkpt lat="43.5283" lon="5.54842">
        <ele>269</ele>
        <time>2018-02-20T12:49:15.000Z</time>
      </trkpt>
      <trkpt lat="43.52828" lon="5.54841">
        <ele>269</ele>
        <time>2018-02-20T12:49:16.000Z</time>
      </trkpt>
      <trkpt lat="43.52827" lon="5.5484">
        <ele>269</ele>
        <time>2018-02-20T12:49:17.000Z</time>
      </trkpt>
      <trkpt lat="43.52826" lon="5.54838">
        <ele>269</ele>
        <time>2018-02-20T12:49:18.000Z</time>
      </trkpt>
      <trkpt lat="43.52825" lon="5.54837">
        <ele>269</ele>
        <time>2018-02-20T12:49:19.000Z</time>
      </trkpt>
      <trkpt lat="43.52824" lon="5.54836">
        <ele>269</ele>
        <time>2018-02-20T12:49:20.000Z</time>
      </trkpt>
      <trkpt lat="43.52823" lon="5.54834">
        <ele>269</ele>
        <time>2018-02-20T12:49:21.000Z</time>
      </trkpt>
      <trkpt lat="43.52822" lon="5.54832">
        <ele>269</ele>
        <time>2018-02-20T12:49:22.000Z</time>
      </trkpt>
      <trkpt lat="43.52822" lon="5.54831">
        <ele>269</ele>
        <time>2018-02-20T12:49:23.000Z</time>
      </trkpt>
      <trkpt lat="43.52821" lon="5.54829">
        <ele>269</ele>
        <time>2018-02-20T12:49:24.000Z</time>
      </trkpt>
      <trkpt lat="43.5282" lon="5.54828">
        <ele>268</ele>
        <time>2018-02-20T12:49:25.000Z</time>
      </trkpt>
      <trkpt lat="43.52819" lon="5.54826">
        <ele>268</ele>
        <time>2018-02-20T12:49:26.000Z</time>
      </trkpt>
      <trkpt lat="43.52818" lon="5.54825">
        <ele>268</ele>
        <time>2018-02-20T12:49:27.000Z</time>
      </trkpt>
      <trkpt lat="43.52817" lon="5.54824">
        <ele>268</ele>
        <time>2018-02-20T12:49:28.000Z</time>
      </trkpt>
      <trkpt lat="43.52817" lon="5.54823">
        <ele>268</ele>
        <time>2018-02-20T12:49:29.000Z</time>
      </trkpt>
      <trkpt lat="43.52816" lon="5.54822">
        <ele>268</ele>
        <time>2018-02-20T12:49:30.000Z</time>
      </trkpt>
      <trkpt lat="43.52815" lon="5.54821">
        <ele>268</ele>
        <time>2018-02-20T12:49:31.000Z</time>
      </trkpt>
      <trkpt lat="43.52814" lon="5.5482">
        <ele>268</ele>
        <time>2018-02-20T12:49:32.000Z</time>
      </trkpt>
      <trkpt lat="43.52813" lon="5.54819">
        <ele>267</ele>
        <time>2018-02-20T12:49:33.000Z</time>
      </trkpt>
      <trkpt lat="43.52812" lon="5.54818">
        <ele>267</ele>
        <time>2018-02-20T12:49:34.000Z</time>
      </trkpt>
      <trkpt lat="43.52811" lon="5.54817">
        <ele>267</ele>
        <time>2018-02-20T12:49:35.000Z</time>
      </trkpt>
      <trkpt lat="43.5281" lon="5.54816">
        <ele>267</ele>
        <time>2018-02-20T12:49:36.000Z</time>
      </trkpt>
      <trkpt lat="43.52809" lon="5.54816">
        <ele>267</ele>
        <time>2018-02-20T12:49:37.000Z</time>
      </trkpt>
      <trkpt lat="43.52808" lon="5.54815">
        <ele>266</ele>
        <time>2018-02-20T12:49:38.000Z</time>
      </trkpt>
      <trkpt lat="43.52807" lon="5.54814">
        <ele>266</ele>
        <time>2018-02-20T12:49:39.000Z</time>
      </trkpt>
      <trkpt lat="43.52805" lon="5.54813">
        <ele>266</ele>
        <time>2018-02-20T12:49:40.000Z</time>
      </trkpt>
      <trkpt lat="43.52804" lon="5.54812">
        <ele>266</ele>
        <time>2018-02-20T12:49:41.000Z</time>
      </trkpt>
      <trkpt lat="43.52803" lon="5.54811">
        <ele>266</ele>
        <time>2018-02-20T12:49:42.000Z</time>
      </trkpt>
      <trkpt lat="43.52803" lon="5.54811">
        <ele>265</ele>
        <time>2018-02-20T12:49:43.000Z</time>
      </trkpt>
      <trkpt lat="43.52802" lon="5.54811">
        <ele>265</ele>
        <time>2018-02-20T12:49:44.000Z</time>
      </trkpt>
      <trkpt lat="43.52801" lon="5.54811">
        <ele>265</ele>
        <time>2018-02-20T12:49:45.000Z</time>
      </trkpt>
      <trkpt lat="43.528" lon="5.54811">
        <ele>265</ele>
        <time>2018-02-20T12:49:46.000Z</time>
      </trkpt>
      <trkpt lat="43.52799" lon="5.54811">
        <ele>266</ele>
        <time>2018-02-20T12:49:47.000Z</time>
      </trkpt>
      <trkpt lat="43.52798" lon="5.54811">
        <ele>266</ele>
        <time>2018-02-20T12:49:48.000Z</time>
      </trkpt>
      <trkpt lat="43.52797" lon="5.54811">
        <ele>266</ele>
        <time>2018-02-20T12:49:49.000Z</time>
      </trkpt>
      <trkpt lat="43.52796" lon="5.54811">
        <ele>266</ele>
        <time>2018-02-20T12:49:50.000Z</time>
      </trkpt>
      <trkpt lat="43.52795" lon="5.5481">
        <ele>266</ele>
        <time>2018-02-20T12:49:51.000Z</time>
      </trkpt>
      <trkpt lat="43.52794" lon="5.5481">
        <ele>266</ele>
        <time>2018-02-20T12:49:52.000Z</time>
      </trkpt>
      <trkpt lat="43.52794" lon="5.5481">
        <ele>266</ele>
        <time>2018-02-20T12:49:53.000Z</time>
      </trkpt>
      <trkpt lat="43.52793" lon="5.54809">
        <ele>266</ele>
        <time>2018-02-20T12:49:54.000Z</time>
      </trkpt>
      <trkpt lat="43.52793" lon="5.54808">
        <ele>266</ele>
        <time>2018-02-20T12:49:55.000Z</time>
      </trkpt>
      <trkpt lat="43.52792" lon="5.54808">
        <ele>266</ele>
        <time>2018-02-20T12:49:56.000Z</time>
      </trkpt>
      <trkpt lat="43.52792" lon="5.54808">
        <ele>266</ele>
        <time>2018-02-20T12:49:57.000Z</time>
      </trkpt>
      <trkpt lat="43.52792" lon="5.54807">
        <ele>266</ele>
        <time>2018-02-20T12:49:58.000Z</time>
      </trkpt>
      <trkpt lat="43.52792" lon="5.54807">
        <ele>266</ele>
        <time>2018-02-20T12:49:59.000Z</time>
      </trkpt>
      <trkpt lat="43.52792" lon="5.54807">
        <ele>266</ele>
        <time>2018-02-20T12:50:00.000Z</time>
      </trkpt>
      <trkpt lat="43.52792" lon="5.54807">
        <ele>266</ele>
        <time>2018-02-20T12:50:01.000Z</time>
      </trkpt>
      <trkpt lat="43.52792" lon="5.54807">
        <ele>267</ele>
        <time>2018-02-20T12:50:02.000Z</time>
      </trkpt>
      <trkpt lat="43.52792" lon="5.54806">
        <ele>267</ele>
        <time>2018-02-20T12:50:03.000Z</time>
      </trkpt>
      <trkpt lat="43.52792" lon="5.54806">
        <ele>267</ele>
        <time>2018-02-20T12:50:04.000Z</time>
      </trkpt>
      <trkpt lat="43.52792" lon="5.54806">
        <ele>267</ele>
        <time>2018-02-20T12:50:05.000Z</time>
      </trkpt>
      <trkpt lat="43.52792" lon="5.54806">
        <ele>267</ele>
        <time>2018-02-20T12:50:06.000Z</time>
      </trkpt>
      <trkpt lat="43.52792" lon="5.54806">
        <ele>267</ele>
        <time>2018-02-20T12:50:07.000Z</time>
      </trkpt>
      <trkpt lat="43.52792" lon="5.54806">
        <ele>267</ele>
        <time>2018-02-20T12:50:08.000Z</time>
      </trkpt>
      <trkpt lat="43.52792" lon="5.54805">
        <ele>267</ele>
        <time>2018-02-20T12:50:09.000Z</time>
      </trkpt>
      <trkpt lat="43.52792" lon="5.54805">
        <ele>268</ele>
        <time>2018-02-20T12:50:10.000Z</time>
      </trkpt>
      <trkpt lat="43.52792" lon="5.54805">
        <ele>268</ele>
        <time>2018-02-20T12:50:11.000Z</time>
      </trkpt>
      <trkpt lat="43.52792" lon="5.54805">
        <ele>268</ele>
        <time>2018-02-20T12:50:12.000Z</time>
      </trkpt>
      <trkpt lat="43.52792" lon="5.54805">
        <ele>268</ele>
        <time>2018-02-20T12:50:13.000Z</time>
      </trkpt>
      <trkpt lat="43.52791" lon="5.54804">
        <ele>268</ele>
        <time>2018-02-20T12:50:14.000Z</time>
      </trkpt>
      <trkpt lat="43.52791" lon="5.54804">
        <ele>268</ele>
        <time>2018-02-20T12:50:15.000Z</time>
      </trkpt>
      <trkpt lat="43.52791" lon="5.54804">
        <ele>268</ele>
        <time>2018-02-20T12:50:16.000Z</time>
      </trkpt>
      <trkpt lat="43.52791" lon="5.54804">
        <ele>268</ele>
        <time>2018-02-20T12:50:17.000Z</time>
      </trkpt>
      <trkpt lat="43.52791" lon="5.54803">
        <ele>268</ele>
        <time>2018-02-20T12:50:18.000Z</time>
      </trkpt>
      <trkpt lat="43.52791" lon="5.54803">
        <ele>268</ele>
        <time>2018-02-20T12:50:19.000Z</time>
      </trkpt>
      <trkpt lat="43.52792" lon="5.54803">
        <ele>268</ele>
        <time>2018-02-20T12:50:20.000Z</time>
      </trkpt>
      <trkpt lat="43.52792" lon="5.54802">
        <ele>268</ele>
        <time>2018-02-20T12:50:21.000Z</time>
      </trkpt>
      <trkpt lat="43.52791" lon="5.54802">
        <ele>268</ele>
        <time>2018-02-20T12:50:22.000Z</time>
      </trkpt>
      <trkpt lat="43.52791" lon="5.54801">
        <ele>268</ele>
        <time>2018-02-20T12:50:23.000Z</time>
      </trkpt>
      <trkpt lat="43.52791" lon="5.548">
        <ele>268</ele>
        <time>2018-02-20T12:50:24.000Z</time>
      </trkpt>
      <trkpt lat="43.5279" lon="5.54799">
        <ele>268</ele>
        <time>2018-02-20T12:50:25.000Z</time>
      </trkpt>
      <trkpt lat="43.5279" lon="5.54799">
        <ele>268</ele>
        <time>2018-02-20T12:50:26.000Z</time>
      </trkpt>
      <trkpt lat="43.52789" lon="5.54798">
        <ele>268</ele>
        <time>2018-02-20T12:50:27.000Z</time>
      </trkpt>
      <trkpt lat="43.52789" lon="5.54797">
        <ele>268</ele>
        <time>2018-02-20T12:50:28.000Z</time>
      </trkpt>
      <trkpt lat="43.52788" lon="5.54796">
        <ele>268</ele>
        <time>2018-02-20T12:50:29.000Z</time>
      </trkpt>
      <trkpt lat="43.52788" lon="5.54795">
        <ele>268</ele>
        <time>2018-02-20T12:50:30.000Z</time>
      </trkpt>
      <trkpt lat="43.52788" lon="5.54794">
        <ele>268</ele>
        <time>2018-02-20T12:50:31.000Z</time>
      </trkpt>
      <trkpt lat="43.52788" lon="5.54793">
        <ele>268</ele>
        <time>2018-02-20T12:50:32.000Z</time>
      </trkpt>
      <trkpt lat="43.52788" lon="5.54793">
        <ele>267</ele>
        <time>2018-02-20T12:50:33.000Z</time>
      </trkpt>
      <trkpt lat="43.52787" lon="5.54793">
        <ele>267</ele>
        <time>2018-02-20T12:50:34.000Z</time>
      </trkpt>
      <trkpt lat="43.52787" lon="5.54793">
        <ele>267</ele>
        <time>2018-02-20T12:50:35.000Z</time>
      </trkpt>
      <trkpt lat="43.52787" lon="5.54793">
        <ele>267</ele>
        <time>2018-02-20T12:50:36.000Z</time>
      </trkpt>
      <trkpt lat="43.52787" lon="5.54793">
        <ele>267</ele>
        <time>2018-02-20T12:50:37.000Z</time>
      </trkpt>
      <trkpt lat="43.52787" lon="5.54793">
        <ele>267</ele>
        <time>2018-02-20T12:50:38.000Z</time>
      </trkpt>
      <trkpt lat="43.52787" lon="5.54793">
        <ele>267</ele>
        <time>2018-02-20T12:50:39.000Z</time>
      </trkpt>
      <trkpt lat="43.52787" lon="5.54793">
        <ele>267</ele>
        <time>2018-02-20T12:50:40.000Z</time>
      </trkpt>
      <trkpt lat="43.52787" lon="5.54792">
        <ele>267</ele>
        <time>2018-02-20T12:50:41.000Z</time>
      </trkpt>
      <trkpt lat="43.52787" lon="5.54793">
        <ele>267</ele>
        <time>2018-02-20T12:50:42.000Z</time>
      </trkpt>
      <trkpt lat="43.52787" lon="5.54793">
        <ele>267</ele>
        <time>2018-02-20T12:50:43.000Z</time>
      </trkpt>
      <trkpt lat="43.52787" lon="5.54793">
        <ele>267</ele>
        <time>2018-02-20T12:50:44.000Z</time>
      </trkpt>
      <trkpt lat="43.52787" lon="5.54793">
        <ele>267</ele>
        <time>2018-02-20T12:50:45.000Z</time>
      </trkpt>
      <trkpt lat="43.52787" lon="5.54793">
        <ele>267</ele>
        <time>2018-02-20T12:50:46.000Z</time>
      </trkpt>
      <trkpt lat="43.52786" lon="5.54793">
        <ele>267</ele>
        <time>2018-02-20T12:50:47.000Z</time>
      </trkpt>
      <trkpt lat="43.52786" lon="5.54793">
        <ele>267</ele>
        <time>2018-02-20T12:50:48.000Z</time>
      </trkpt>
      <trkpt lat="43.52785" lon="5.54793">
        <ele>267</ele>
        <time>2018-02-20T12:50:49.000Z</time>
      </trkpt>
      <trkpt lat="43.52785" lon="5.54794">
        <ele>268</ele>
        <time>2018-02-20T12:50:50.000Z</time>
      </trkpt>
      <trkpt lat="43.52784" lon="5.54794">
        <ele>268</ele>
        <time>2018-02-20T12:50:51.000Z</time>
      </trkpt>
      <trkpt lat="43.52783" lon="5.54794">
        <ele>268</ele>
        <time>2018-02-20T12:50:52.000Z</time>
      </trkpt>
      <trkpt lat="43.52782" lon="5.54794">
        <ele>268</ele>
        <time>2018-02-20T12:50:53.000Z</time>
      </trkpt>
      <trkpt lat="43.52781" lon="5.54794">
        <ele>268</ele>
        <time>2018-02-20T12:50:54.000Z</time>
      </trkpt>
      <trkpt lat="43.5278" lon="5.54794">
        <ele>268</ele>
        <time>2018-02-20T12:50:55.000Z</time>
      </trkpt>
      <trkpt lat="43.52779" lon="5.54794">
        <ele>268</ele>
        <time>2018-02-20T12:50:56.000Z</time>
      </trkpt>
      <trkpt lat="43.52778" lon="5.54794">
        <ele>268</ele>
        <time>2018-02-20T12:50:57.000Z</time>
      </trkpt>
      <trkpt lat="43.52777" lon="5.54794">
        <ele>268</ele>
        <time>2018-02-20T12:50:58.000Z</time>
      </trkpt>
      <trkpt lat="43.52777" lon="5.54793">
        <ele>268</ele>
        <time>2018-02-20T12:50:59.000Z</time>
      </trkpt>
      <trkpt lat="43.52776" lon="5.54793">
        <ele>268</ele>
        <time>2018-02-20T12:51:00.000Z</time>
      </trkpt>
      <trkpt lat="43.52776" lon="5.54793">
        <ele>268</ele>
        <time>2018-02-20T12:51:01.000Z</time>
      </trkpt>
      <trkpt lat="43.52775" lon="5.54793">
        <ele>268</ele>
        <time>2018-02-20T12:51:02.000Z</time>
      </trkpt>
      <trkpt lat="43.52774" lon="5.54792">
        <ele>268</ele>
        <time>2018-02-20T12:51:03.000Z</time>
      </trkpt>
      <trkpt lat="43.52773" lon="5.54792">
        <ele>268</ele>
        <time>2018-02-20T12:51:04.000Z</time>
      </trkpt>
      <trkpt lat="43.52773" lon="5.54792">
        <ele>267</ele>
        <time>2018-02-20T12:51:05.000Z</time>
      </trkpt>
      <trkpt lat="43.52772" lon="5.54792">
        <ele>267</ele>
        <time>2018-02-20T12:51:06.000Z</time>
      </trkpt>
      <trkpt lat="43.52771" lon="5.54792">
        <ele>267</ele>
        <time>2018-02-20T12:51:07.000Z</time>
      </trkpt>
      <trkpt lat="43.5277" lon="5.54792">
        <ele>267</ele>
        <time>2018-02-20T12:51:08.000Z</time>
      </trkpt>
      <trkpt lat="43.52769" lon="5.54792">
        <ele>267</ele>
        <time>2018-02-20T12:51:09.000Z</time>
      </trkpt>
      <trkpt lat="43.52768" lon="5.54792">
        <ele>267</ele>
        <time>2018-02-20T12:51:10.000Z</time>
      </trkpt>
      <trkpt lat="43.52767" lon="5.54792">
        <ele>267</ele>
        <time>2018-02-20T12:51:11.000Z</time>
      </trkpt>
      <trkpt lat="43.52767" lon="5.54792">
        <ele>267</ele>
        <time>2018-02-20T12:51:12.000Z</time>
      </trkpt>
      <trkpt lat="43.52766" lon="5.54793">
        <ele>267</ele>
        <time>2018-02-20T12:51:13.000Z</time>
      </trkpt>
      <trkpt lat="43.52765" lon="5.54793">
        <ele>267</ele>
        <time>2018-02-20T12:51:14.000Z</time>
      </trkpt>
      <trkpt lat="43.52764" lon="5.54793">
        <ele>267</ele>
        <time>2018-02-20T12:51:15.000Z</time>
      </trkpt>
      <trkpt lat="43.52764" lon="5.54792">
        <ele>267</ele>
        <time>2018-02-20T12:51:16.000Z</time>
      </trkpt>
      <trkpt lat="43.52764" lon="5.54792">
        <ele>267</ele>
        <time>2018-02-20T12:51:17.000Z</time>
      </trkpt>
      <trkpt lat="43.52763" lon="5.54792">
        <ele>267</ele>
        <time>2018-02-20T12:51:18.000Z</time>
      </trkpt>
      <trkpt lat="43.52763" lon="5.54792">
        <ele>267</ele>
        <time>2018-02-20T12:51:19.000Z</time>
      </trkpt>
      <trkpt lat="43.52763" lon="5.54792">
        <ele>267</ele>
        <time>2018-02-20T12:51:20.000Z</time>
      </trkpt>
      <trkpt lat="43.52763" lon="5.54792">
        <ele>267</ele>
        <time>2018-02-20T12:51:21.000Z</time>
      </trkpt>
      <trkpt lat="43.52763" lon="5.54792">
        <ele>267</ele>
        <time>2018-02-20T12:51:22.000Z</time>
      </trkpt>
      <trkpt lat="43.52763" lon="5.54792">
        <ele>267</ele>
        <time>2018-02-20T12:51:23.000Z</time>
      </trkpt>
      <trkpt lat="43.52762" lon="5.54791">
        <ele>267</ele>
        <time>2018-02-20T12:51:24.000Z</time>
      </trkpt>
      <trkpt lat="43.52762" lon="5.54791">
        <ele>267</ele>
        <time>2018-02-20T12:51:25.000Z</time>
      </trkpt>
      <trkpt lat="43.52761" lon="5.5479">
        <ele>267</ele>
        <time>2018-02-20T12:51:26.000Z</time>
      </trkpt>
      <trkpt lat="43.52761" lon="5.5479">
        <ele>267</ele>
        <time>2018-02-20T12:51:27.000Z</time>
      </trkpt>
      <trkpt lat="43.5276" lon="5.54789">
        <ele>266</ele>
        <time>2018-02-20T12:51:28.000Z</time>
      </trkpt>
      <trkpt lat="43.52759" lon="5.54789">
        <ele>266</ele>
        <time>2018-02-20T12:51:29.000Z</time>
      </trkpt>
      <trkpt lat="43.52759" lon="5.54788">
        <ele>266</ele>
        <time>2018-02-20T12:51:30.000Z</time>
      </trkpt>
      <trkpt lat="43.52758" lon="5.54788">
        <ele>266</ele>
        <time>2018-02-20T12:51:31.000Z</time>
      </trkpt>
      <trkpt lat="43.52757" lon="5.54788">
        <ele>266</ele>
        <time>2018-02-20T12:51:32.000Z</time>
      </trkpt>
      <trkpt lat="43.52756" lon="5.54787">
        <ele>266</ele>
        <time>2018-02-20T12:51:33.000Z</time>
      </trkpt>
      <trkpt lat="43.52755" lon="5.54787">
        <ele>266</ele>
        <time>2018-02-20T12:51:34.000Z</time>
      </trkpt>
      <trkpt lat="43.52754" lon="5.54786">
        <ele>266</ele>
        <time>2018-02-20T12:51:35.000Z</time>
      </trkpt>
      <trkpt lat="43.52753" lon="5.54786">
        <ele>266</ele>
        <time>2018-02-20T12:51:36.000Z</time>
      </trkpt>
      <trkpt lat="43.52752" lon="5.54786">
        <ele>266</ele>
        <time>2018-02-20T12:51:37.000Z</time>
      </trkpt>
      <trkpt lat="43.52751" lon="5.54785">
        <ele>266</ele>
        <time>2018-02-20T12:51:38.000Z</time>
      </trkpt>
      <trkpt lat="43.5275" lon="5.54785">
        <ele>266</ele>
        <time>2018-02-20T12:51:39.000Z</time>
      </trkpt>
      <trkpt lat="43.52749" lon="5.54784">
        <ele>266</ele>
        <time>2018-02-20T12:51:40.000Z</time>
      </trkpt>
      <trkpt lat="43.52748" lon="5.54784">
        <ele>266</ele>
        <time>2018-02-20T12:51:41.000Z</time>
      </trkpt>
      <trkpt lat="43.52747" lon="5.54783">
        <ele>266</ele>
        <time>2018-02-20T12:51:42.000Z</time>
      </trkpt>
      <trkpt lat="43.52746" lon="5.54783">
        <ele>266</ele>
        <time>2018-02-20T12:51:43.000Z</time>
      </trkpt>
      <trkpt lat="43.52745" lon="5.54782">
        <ele>266</ele>
        <time>2018-02-20T12:51:44.000Z</time>
      </trkpt>
      <trkpt lat="43.52744" lon="5.54782">
        <ele>266</ele>
        <time>2018-02-20T12:51:45.000Z</time>
      </trkpt>
      <trkpt lat="43.52743" lon="5.54781">
        <ele>266</ele>
        <time>2018-02-20T12:51:46.000Z</time>
      </trkpt>
      <trkpt lat="43.52743" lon="5.54781">
        <ele>266</ele>
        <time>2018-02-20T12:51:47.000Z</time>
      </trkpt>
      <trkpt lat="43.52742" lon="5.54781">
        <ele>266</ele>
        <time>2018-02-20T12:51:48.000Z</time>
      </trkpt>
      <trkpt lat="43.52741" lon="5.5478">
        <ele>266</ele>
        <time>2018-02-20T12:51:49.000Z</time>
      </trkpt>
      <trkpt lat="43.52741" lon="5.5478">
        <ele>266</ele>
        <time>2018-02-20T12:51:50.000Z</time>
      </trkpt>
      <trkpt lat="43.52741" lon="5.5478">
        <ele>267</ele>
        <time>2018-02-20T12:51:51.000Z</time>
      </trkpt>
      <trkpt lat="43.5274" lon="5.5478">
        <ele>267</ele>
        <time>2018-02-20T12:51:52.000Z</time>
      </trkpt>
      <trkpt lat="43.5274" lon="5.5478">
        <ele>267</ele>
        <time>2018-02-20T12:51:53.000Z</time>
      </trkpt>
      <trkpt lat="43.5274" lon="5.5478">
        <ele>267</ele>
        <time>2018-02-20T12:51:54.000Z</time>
      </trkpt>
      <trkpt lat="43.52739" lon="5.5478">
        <ele>268</ele>
        <time>2018-02-20T12:51:55.000Z</time>
      </trkpt>
      <trkpt lat="43.52739" lon="5.5478">
        <ele>268</ele>
        <time>2018-02-20T12:51:56.000Z</time>
      </trkpt>
      <trkpt lat="43.52739" lon="5.5478">
        <ele>268</ele>
        <time>2018-02-20T12:51:57.000Z</time>
      </trkpt>
      <trkpt lat="43.52739" lon="5.54781">
        <ele>268</ele>
        <time>2018-02-20T12:51:58.000Z</time>
      </trkpt>
      <trkpt lat="43.52739" lon="5.54781">
        <ele>268</ele>
        <time>2018-02-20T12:51:59.000Z</time>
      </trkpt>
      <trkpt lat="43.52739" lon="5.54781">
        <ele>268</ele>
        <time>2018-02-20T12:52:00.000Z</time>
      </trkpt>
      <trkpt lat="43.52738" lon="5.54781">
        <ele>269</ele>
        <time>2018-02-20T12:52:01.000Z</time>
      </trkpt>
      <trkpt lat="43.52738" lon="5.54781">
        <ele>269</ele>
        <time>2018-02-20T12:52:02.000Z</time>
      </trkpt>
      <trkpt lat="43.52738" lon="5.54781">
        <ele>269</ele>
        <time>2018-02-20T12:52:03.000Z</time>
      </trkpt>
      <trkpt lat="43.52738" lon="5.54781">
        <ele>269</ele>
        <time>2018-02-20T12:52:04.000Z</time>
      </trkpt>
      <trkpt lat="43.52738" lon="5.54781">
        <ele>270</ele>
        <time>2018-02-20T12:52:05.000Z</time>
      </trkpt>
      <trkpt lat="43.52738" lon="5.54781">
        <ele>270</ele>
        <time>2018-02-20T12:52:06.000Z</time>
      </trkpt>
      <trkpt lat="43.52738" lon="5.54782">
        <ele>270</ele>
        <time>2018-02-20T12:52:07.000Z</time>
      </trkpt>
      <trkpt lat="43.52737" lon="5.54782">
        <ele>270</ele>
        <time>2018-02-20T12:52:08.000Z</time>
      </trkpt>
      <trkpt lat="43.52737" lon="5.54782">
        <ele>270</ele>
        <time>2018-02-20T12:52:09.000Z</time>
      </trkpt>
      <trkpt lat="43.52736" lon="5.54782">
        <ele>270</ele>
        <time>2018-02-20T12:52:10.000Z</time>
      </trkpt>
      <trkpt lat="43.52736" lon="5.54781">
        <ele>271</ele>
        <time>2018-02-20T12:52:11.000Z</time>
      </trkpt>
      <trkpt lat="43.52735" lon="5.54781">
        <ele>271</ele>
        <time>2018-02-20T12:52:12.000Z</time>
      </trkpt>
      <trkpt lat="43.52734" lon="5.5478">
        <ele>271</ele>
        <time>2018-02-20T12:52:13.000Z</time>
      </trkpt>
      <trkpt lat="43.52732" lon="5.54779">
        <ele>271</ele>
        <time>2018-02-20T12:52:14.000Z</time>
      </trkpt>
      <trkpt lat="43.52731" lon="5.54779">
        <ele>271</ele>
        <time>2018-02-20T12:52:15.000Z</time>
      </trkpt>
      <trkpt lat="43.5273" lon="5.54778">
        <ele>271</ele>
        <time>2018-02-20T12:52:16.000Z</time>
      </trkpt>
      <trkpt lat="43.52729" lon="5.54778">
        <ele>271</ele>
        <time>2018-02-20T12:52:17.000Z</time>
      </trkpt>
      <trkpt lat="43.52728" lon="5.54777">
        <ele>271</ele>
        <time>2018-02-20T12:52:18.000Z</time>
      </trkpt>
      <trkpt lat="43.52727" lon="5.54777">
        <ele>271</ele>
        <time>2018-02-20T12:52:19.000Z</time>
      </trkpt>
      <trkpt lat="43.52726" lon="5.54776">
        <ele>271</ele>
        <time>2018-02-20T12:52:20.000Z</time>
      </trkpt>
      <trkpt lat="43.52725" lon="5.54776">
        <ele>271</ele>
        <time>2018-02-20T12:52:21.000Z</time>
      </trkpt>
      <trkpt lat="43.52724" lon="5.54776">
        <ele>271</ele>
        <time>2018-02-20T12:52:22.000Z</time>
      </trkpt>
      <trkpt lat="43.52723" lon="5.54775">
        <ele>271</ele>
        <time>2018-02-20T12:52:23.000Z</time>
      </trkpt>
      <trkpt lat="43.52722" lon="5.54775">
        <ele>271</ele>
        <time>2018-02-20T12:52:24.000Z</time>
      </trkpt>
      <trkpt lat="43.52721" lon="5.54774">
        <ele>271</ele>
        <time>2018-02-20T12:52:25.000Z</time>
      </trkpt>
      <trkpt lat="43.52719" lon="5.54773">
        <ele>271</ele>
        <time>2018-02-20T12:52:26.000Z</time>
      </trkpt>
      <trkpt lat="43.52718" lon="5.54772">
        <ele>271</ele>
        <time>2018-02-20T12:52:27.000Z</time>
      </trkpt>
      <trkpt lat="43.52717" lon="5.54772">
        <ele>271</ele>
        <time>2018-02-20T12:52:28.000Z</time>
      </trkpt>
      <trkpt lat="43.52716" lon="5.54771">
        <ele>271</ele>
        <time>2018-02-20T12:52:29.000Z</time>
      </trkpt>
      <trkpt lat="43.52715" lon="5.5477">
        <ele>271</ele>
        <time>2018-02-20T12:52:30.000Z</time>
      </trkpt>
      <trkpt lat="43.52713" lon="5.5477">
        <ele>271</ele>
        <time>2018-02-20T12:52:31.000Z</time>
      </trkpt>
      <trkpt lat="43.52711" lon="5.54769">
        <ele>271</ele>
        <time>2018-02-20T12:52:32.000Z</time>
      </trkpt>
      <trkpt lat="43.5271" lon="5.54767">
        <ele>271</ele>
        <time>2018-02-20T12:52:33.000Z</time>
      </trkpt>
      <trkpt lat="43.52709" lon="5.54767">
        <ele>271</ele>
        <time>2018-02-20T12:52:34.000Z</time>
      </trkpt>
      <trkpt lat="43.52707" lon="5.54766">
        <ele>271</ele>
        <time>2018-02-20T12:52:35.000Z</time>
      </trkpt>
      <trkpt lat="43.52706" lon="5.54765">
        <ele>270</ele>
        <time>2018-02-20T12:52:36.000Z</time>
      </trkpt>
      <trkpt lat="43.52705" lon="5.54763">
        <ele>270</ele>
        <time>2018-02-20T12:52:37.000Z</time>
      </trkpt>
      <trkpt lat="43.52704" lon="5.54762">
        <ele>270</ele>
        <time>2018-02-20T12:52:38.000Z</time>
      </trkpt>
      <trkpt lat="43.52703" lon="5.54761">
        <ele>270</ele>
        <time>2018-02-20T12:52:39.000Z</time>
      </trkpt>
      <trkpt lat="43.52702" lon="5.5476">
        <ele>270</ele>
        <time>2018-02-20T12:52:40.000Z</time>
      </trkpt>
      <trkpt lat="43.52701" lon="5.54759">
        <ele>270</ele>
        <time>2018-02-20T12:52:41.000Z</time>
      </trkpt>
      <trkpt lat="43.527" lon="5.54757">
        <ele>270</ele>
        <time>2018-02-20T12:52:42.000Z</time>
      </trkpt>
      <trkpt lat="43.527" lon="5.54756">
        <ele>269</ele>
        <time>2018-02-20T12:52:43.000Z</time>
      </trkpt>
      <trkpt lat="43.52699" lon="5.54755">
        <ele>269</ele>
        <time>2018-02-20T12:52:44.000Z</time>
      </trkpt>
      <trkpt lat="43.52698" lon="5.54753">
        <ele>269</ele>
        <time>2018-02-20T12:52:45.000Z</time>
      </trkpt>
      <trkpt lat="43.52697" lon="5.54752">
        <ele>269</ele>
        <time>2018-02-20T12:52:46.000Z</time>
      </trkpt>
      <trkpt lat="43.52696" lon="5.5475">
        <ele>268</ele>
        <time>2018-02-20T12:52:47.000Z</time>
      </trkpt>
      <trkpt lat="43.52695" lon="5.54749">
        <ele>268</ele>
        <time>2018-02-20T12:52:48.000Z</time>
      </trkpt>
      <trkpt lat="43.52694" lon="5.54748">
        <ele>268</ele>
        <time>2018-02-20T12:52:49.000Z</time>
      </trkpt>
      <trkpt lat="43.52693" lon="5.54747">
        <ele>268</ele>
        <time>2018-02-20T12:52:50.000Z</time>
      </trkpt>
      <trkpt lat="43.52692" lon="5.54745">
        <ele>268</ele>
        <time>2018-02-20T12:52:51.000Z</time>
      </trkpt>
      <trkpt lat="43.52691" lon="5.54744">
        <ele>268</ele>
        <time>2018-02-20T12:52:52.000Z</time>
      </trkpt>
      <trkpt lat="43.52691" lon="5.54743">
        <ele>268</ele>
        <time>2018-02-20T12:52:53.000Z</time>
      </trkpt>
      <trkpt lat="43.5269" lon="5.54742">
        <ele>268</ele>
        <time>2018-02-20T12:52:54.000Z</time>
      </trkpt>
      <trkpt lat="43.52689" lon="5.54741">
        <ele>268</ele>
        <time>2018-02-20T12:52:55.000Z</time>
      </trkpt>
      <trkpt lat="43.52688" lon="5.5474">
        <ele>268</ele>
        <time>2018-02-20T12:52:56.000Z</time>
      </trkpt>
      <trkpt lat="43.52687" lon="5.54738">
        <ele>268</ele>
        <time>2018-02-20T12:52:57.000Z</time>
      </trkpt>
      <trkpt lat="43.52686" lon="5.54737">
        <ele>268</ele>
        <time>2018-02-20T12:52:58.000Z</time>
      </trkpt>
      <trkpt lat="43.52686" lon="5.54736">
        <ele>268</ele>
        <time>2018-02-20T12:52:59.000Z</time>
      </trkpt>
      <trkpt lat="43.52685" lon="5.54735">
        <ele>268</ele>
        <time>2018-02-20T12:53:00.000Z</time>
      </trkpt>
      <trkpt lat="43.52684" lon="5.54733">
        <ele>268</ele>
        <time>2018-02-20T12:53:01.000Z</time>
      </trkpt>
      <trkpt lat="43.52683" lon="5.54732">
        <ele>268</ele>
        <time>2018-02-20T12:53:02.000Z</time>
      </trkpt>
      <trkpt lat="43.52682" lon="5.54731">
        <ele>268</ele>
        <time>2018-02-20T12:53:03.000Z</time>
      </trkpt>
      <trkpt lat="43.52682" lon="5.5473">
        <ele>268</ele>
        <time>2018-02-20T12:53:04.000Z</time>
      </trkpt>
      <trkpt lat="43.52681" lon="5.54728">
        <ele>268</ele>
        <time>2018-02-20T12:53:05.000Z</time>
      </trkpt>
      <trkpt lat="43.5268" lon="5.54727">
        <ele>268</ele>
        <time>2018-02-20T12:53:06.000Z</time>
      </trkpt>
      <trkpt lat="43.52679" lon="5.54726">
        <ele>268</ele>
        <time>2018-02-20T12:53:07.000Z</time>
      </trkpt>
      <trkpt lat="43.52679" lon="5.54725">
        <ele>268</ele>
        <time>2018-02-20T12:53:08.000Z</time>
      </trkpt>
      <trkpt lat="43.52678" lon="5.54724">
        <ele>268</ele>
        <time>2018-02-20T12:53:09.000Z</time>
      </trkpt>
      <trkpt lat="43.52677" lon="5.54723">
        <ele>268</ele>
        <time>2018-02-20T12:53:10.000Z</time>
      </trkpt>
      <trkpt lat="43.52676" lon="5.54722">
        <ele>268</ele>
        <time>2018-02-20T12:53:11.000Z</time>
      </trkpt>
      <trkpt lat="43.52676" lon="5.54721">
        <ele>268</ele>
        <time>2018-02-20T12:53:12.000Z</time>
      </trkpt>
      <trkpt lat="43.52675" lon="5.5472">
        <ele>268</ele>
        <time>2018-02-20T12:53:13.000Z</time>
      </trkpt>
      <trkpt lat="43.52674" lon="5.54718">
        <ele>268</ele>
        <time>2018-02-20T12:53:14.000Z</time>
      </trkpt>
      <trkpt lat="43.52674" lon="5.54717">
        <ele>268</ele>
        <time>2018-02-20T12:53:15.000Z</time>
      </trkpt>
      <trkpt lat="43.52673" lon="5.54716">
        <ele>268</ele>
        <time>2018-02-20T12:53:16.000Z</time>
      </trkpt>
      <trkpt lat="43.52672" lon="5.54715">
        <ele>268</ele>
        <time>2018-02-20T12:53:17.000Z</time>
      </trkpt>
      <trkpt lat="43.52672" lon="5.54713">
        <ele>268</ele>
        <time>2018-02-20T12:53:18.000Z</time>
      </trkpt>
      <trkpt lat="43.52671" lon="5.54712">
        <ele>268</ele>
        <time>2018-02-20T12:53:19.000Z</time>
      </trkpt>
      <trkpt lat="43.5267" lon="5.54711">
        <ele>268</ele>
        <time>2018-02-20T12:53:20.000Z</time>
      </trkpt>
      <trkpt lat="43.5267" lon="5.5471">
        <ele>268</ele>
        <time>2018-02-20T12:53:21.000Z</time>
      </trkpt>
      <trkpt lat="43.52669" lon="5.54708">
        <ele>268</ele>
        <time>2018-02-20T12:53:22.000Z</time>
      </trkpt>
      <trkpt lat="43.52668" lon="5.54707">
        <ele>268</ele>
        <time>2018-02-20T12:53:23.000Z</time>
      </trkpt>
      <trkpt lat="43.52667" lon="5.54706">
        <ele>268</ele>
        <time>2018-02-20T12:53:24.000Z</time>
      </trkpt>
      <trkpt lat="43.52666" lon="5.54705">
        <ele>268</ele>
        <time>2018-02-20T12:53:25.000Z</time>
      </trkpt>
      <trkpt lat="43.52665" lon="5.54704">
        <ele>268</ele>
        <time>2018-02-20T12:53:26.000Z</time>
      </trkpt>
      <trkpt lat="43.52664" lon="5.54702">
        <ele>268</ele>
        <time>2018-02-20T12:53:27.000Z</time>
      </trkpt>
      <trkpt lat="43.52664" lon="5.54701">
        <ele>268</ele>
        <time>2018-02-20T12:53:28.000Z</time>
      </trkpt>
      <trkpt lat="43.52663" lon="5.547">
        <ele>268</ele>
        <time>2018-02-20T12:53:29.000Z</time>
      </trkpt>
      <trkpt lat="43.52663" lon="5.54699">
        <ele>268</ele>
        <time>2018-02-20T12:53:30.000Z</time>
      </trkpt>
      <trkpt lat="43.52662" lon="5.54698">
        <ele>268</ele>
        <time>2018-02-20T12:53:31.000Z</time>
      </trkpt>
      <trkpt lat="43.52661" lon="5.54697">
        <ele>267</ele>
        <time>2018-02-20T12:53:32.000Z</time>
      </trkpt>
      <trkpt lat="43.5266" lon="5.54695">
        <ele>267</ele>
        <time>2018-02-20T12:53:33.000Z</time>
      </trkpt>
      <trkpt lat="43.5266" lon="5.54694">
        <ele>267</ele>
        <time>2018-02-20T12:53:34.000Z</time>
      </trkpt>
      <trkpt lat="43.52659" lon="5.54693">
        <ele>267</ele>
        <time>2018-02-20T12:53:35.000Z</time>
      </trkpt>
      <trkpt lat="43.52659" lon="5.54692">
        <ele>267</ele>
        <time>2018-02-20T12:53:36.000Z</time>
      </trkpt>
      <trkpt lat="43.52658" lon="5.54691">
        <ele>267</ele>
        <time>2018-02-20T12:53:37.000Z</time>
      </trkpt>
      <trkpt lat="43.52657" lon="5.5469">
        <ele>267</ele>
        <time>2018-02-20T12:53:38.000Z</time>
      </trkpt>
      <trkpt lat="43.52657" lon="5.54688">
        <ele>267</ele>
        <time>2018-02-20T12:53:39.000Z</time>
      </trkpt>
      <trkpt lat="43.52656" lon="5.54686">
        <ele>266</ele>
        <time>2018-02-20T12:53:40.000Z</time>
      </trkpt>
      <trkpt lat="43.52656" lon="5.54685">
        <ele>266</ele>
        <time>2018-02-20T12:53:41.000Z</time>
      </trkpt>
      <trkpt lat="43.52655" lon="5.54684">
        <ele>266</ele>
        <time>2018-02-20T12:53:42.000Z</time>
      </trkpt>
      <trkpt lat="43.52655" lon="5.54683">
        <ele>266</ele>
        <time>2018-02-20T12:53:43.000Z</time>
      </trkpt>
      <trkpt lat="43.52654" lon="5.54682">
        <ele>266</ele>
        <time>2018-02-20T12:53:44.000Z</time>
      </trkpt>
      <trkpt lat="43.52653" lon="5.54681">
        <ele>266</ele>
        <time>2018-02-20T12:53:45.000Z</time>
      </trkpt>
      <trkpt lat="43.52652" lon="5.54679">
        <ele>266</ele>
        <time>2018-02-20T12:53:46.000Z</time>
      </trkpt>
      <trkpt lat="43.52652" lon="5.54678">
        <ele>265</ele>
        <time>2018-02-20T12:53:47.000Z</time>
      </trkpt>
      <trkpt lat="43.52651" lon="5.54677">
        <ele>265</ele>
        <time>2018-02-20T12:53:48.000Z</time>
      </trkpt>
      <trkpt lat="43.5265" lon="5.54676">
        <ele>265</ele>
        <time>2018-02-20T12:53:49.000Z</time>
      </trkpt>
      <trkpt lat="43.52649" lon="5.54674">
        <ele>265</ele>
        <time>2018-02-20T12:53:50.000Z</time>
      </trkpt>
      <trkpt lat="43.52648" lon="5.54673">
        <ele>265</ele>
        <time>2018-02-20T12:53:51.000Z</time>
      </trkpt>
      <trkpt lat="43.52647" lon="5.54671">
        <ele>265</ele>
        <time>2018-02-20T12:53:52.000Z</time>
      </trkpt>
      <trkpt lat="43.52646" lon="5.5467">
        <ele>264</ele>
        <time>2018-02-20T12:53:53.000Z</time>
      </trkpt>
      <trkpt lat="43.52645" lon="5.54669">
        <ele>264</ele>
        <time>2018-02-20T12:53:54.000Z</time>
      </trkpt>
      <trkpt lat="43.52645" lon="5.54668">
        <ele>264</ele>
        <time>2018-02-20T12:53:55.000Z</time>
      </trkpt>
      <trkpt lat="43.52644" lon="5.54666">
        <ele>264</ele>
        <time>2018-02-20T12:53:56.000Z</time>
      </trkpt>
      <trkpt lat="43.52643" lon="5.54665">
        <ele>264</ele>
        <time>2018-02-20T12:53:57.000Z</time>
      </trkpt>
      <trkpt lat="43.52642" lon="5.54663">
        <ele>264</ele>
        <time>2018-02-20T12:53:58.000Z</time>
      </trkpt>
      <trkpt lat="43.52641" lon="5.54662">
        <ele>264</ele>
        <time>2018-02-20T12:53:59.000Z</time>
      </trkpt>
      <trkpt lat="43.52641" lon="5.54661">
        <ele>263</ele>
        <time>2018-02-20T12:54:00.000Z</time>
      </trkpt>
      <trkpt lat="43.5264" lon="5.54659">
        <ele>263</ele>
        <time>2018-02-20T12:54:01.000Z</time>
      </trkpt>
      <trkpt lat="43.52639" lon="5.54658">
        <ele>263</ele>
        <time>2018-02-20T12:54:02.000Z</time>
      </trkpt>
      <trkpt lat="43.52638" lon="5.54657">
        <ele>263</ele>
        <time>2018-02-20T12:54:03.000Z</time>
      </trkpt>
      <trkpt lat="43.52638" lon="5.54655">
        <ele>263</ele>
        <time>2018-02-20T12:54:04.000Z</time>
      </trkpt>
      <trkpt lat="43.52637" lon="5.54654">
        <ele>263</ele>
        <time>2018-02-20T12:54:05.000Z</time>
      </trkpt>
      <trkpt lat="43.52636" lon="5.54652">
        <ele>263</ele>
        <time>2018-02-20T12:54:06.000Z</time>
      </trkpt>
      <trkpt lat="43.52636" lon="5.54651">
        <ele>263</ele>
        <time>2018-02-20T12:54:07.000Z</time>
      </trkpt>
      <trkpt lat="43.52635" lon="5.54649">
        <ele>263</ele>
        <time>2018-02-20T12:54:08.000Z</time>
      </trkpt>
      <trkpt lat="43.52634" lon="5.54648">
        <ele>263</ele>
        <time>2018-02-20T12:54:09.000Z</time>
      </trkpt>
      <trkpt lat="43.52634" lon="5.54647">
        <ele>263</ele>
        <time>2018-02-20T12:54:10.000Z</time>
      </trkpt>
      <trkpt lat="43.52633" lon="5.54645">
        <ele>263</ele>
        <time>2018-02-20T12:54:11.000Z</time>
      </trkpt>
      <trkpt lat="43.52633" lon="5.54644">
        <ele>263</ele>
        <time>2018-02-20T12:54:12.000Z</time>
      </trkpt>
      <trkpt lat="43.52632" lon="5.54642">
        <ele>263</ele>
        <time>2018-02-20T12:54:13.000Z</time>
      </trkpt>
      <trkpt lat="43.52631" lon="5.54641">
        <ele>263</ele>
        <time>2018-02-20T12:54:14.000Z</time>
      </trkpt>
      <trkpt lat="43.5263" lon="5.5464">
        <ele>263</ele>
        <time>2018-02-20T12:54:15.000Z</time>
      </trkpt>
      <trkpt lat="43.52629" lon="5.54638">
        <ele>263</ele>
        <time>2018-02-20T12:54:16.000Z</time>
      </trkpt>
      <trkpt lat="43.52629" lon="5.54637">
        <ele>263</ele>
        <time>2018-02-20T12:54:17.000Z</time>
      </trkpt>
      <trkpt lat="43.52628" lon="5.54635">
        <ele>263</ele>
        <time>2018-02-20T12:54:18.000Z</time>
      </trkpt>
      <trkpt lat="43.52627" lon="5.54634">
        <ele>263</ele>
        <time>2018-02-20T12:54:19.000Z</time>
      </trkpt>
      <trkpt lat="43.52626" lon="5.54632">
        <ele>263</ele>
        <time>2018-02-20T12:54:20.000Z</time>
      </trkpt>
      <trkpt lat="43.52626" lon="5.54631">
        <ele>263</ele>
        <time>2018-02-20T12:54:21.000Z</time>
      </trkpt>
      <trkpt lat="43.52625" lon="5.54629">
        <ele>263</ele>
        <time>2018-02-20T12:54:22.000Z</time>
      </trkpt>
      <trkpt lat="43.52624" lon="5.54628">
        <ele>263</ele>
        <time>2018-02-20T12:54:23.000Z</time>
      </trkpt>
      <trkpt lat="43.52623" lon="5.54626">
        <ele>263</ele>
        <time>2018-02-20T12:54:24.000Z</time>
      </trkpt>
      <trkpt lat="43.52623" lon="5.54625">
        <ele>263</ele>
        <time>2018-02-20T12:54:25.000Z</time>
      </trkpt>
      <trkpt lat="43.52622" lon="5.54624">
        <ele>263</ele>
        <time>2018-02-20T12:54:26.000Z</time>
      </trkpt>
      <trkpt lat="43.52621" lon="5.54623">
        <ele>263</ele>
        <time>2018-02-20T12:54:27.000Z</time>
      </trkpt>
      <trkpt lat="43.52621" lon="5.54621">
        <ele>263</ele>
        <time>2018-02-20T12:54:28.000Z</time>
      </trkpt>
      <trkpt lat="43.5262" lon="5.5462">
        <ele>263</ele>
        <time>2018-02-20T12:54:29.000Z</time>
      </trkpt>
      <trkpt lat="43.52619" lon="5.54618">
        <ele>263</ele>
        <time>2018-02-20T12:54:30.000Z</time>
      </trkpt>
      <trkpt lat="43.52618" lon="5.54617">
        <ele>263</ele>
        <time>2018-02-20T12:54:31.000Z</time>
      </trkpt>
      <trkpt lat="43.52618" lon="5.54615">
        <ele>264</ele>
        <time>2018-02-20T12:54:32.000Z</time>
      </trkpt>
      <trkpt lat="43.52617" lon="5.54614">
        <ele>264</ele>
        <time>2018-02-20T12:54:33.000Z</time>
      </trkpt>
      <trkpt lat="43.52616" lon="5.54613">
        <ele>264</ele>
        <time>2018-02-20T12:54:34.000Z</time>
      </trkpt>
      <trkpt lat="43.52615" lon="5.54611">
        <ele>264</ele>
        <time>2018-02-20T12:54:35.000Z</time>
      </trkpt>
      <trkpt lat="43.52615" lon="5.5461">
        <ele>264</ele>
        <time>2018-02-20T12:54:36.000Z</time>
      </trkpt>
      <trkpt lat="43.52614" lon="5.54608">
        <ele>264</ele>
        <time>2018-02-20T12:54:37.000Z</time>
      </trkpt>
      <trkpt lat="43.52613" lon="5.54607">
        <ele>264</ele>
        <time>2018-02-20T12:54:38.000Z</time>
      </trkpt>
      <trkpt lat="43.52613" lon="5.54606">
        <ele>264</ele>
        <time>2018-02-20T12:54:39.000Z</time>
      </trkpt>
      <trkpt lat="43.52612" lon="5.54604">
        <ele>264</ele>
        <time>2018-02-20T12:54:40.000Z</time>
      </trkpt>
      <trkpt lat="43.52611" lon="5.54603">
        <ele>264</ele>
        <time>2018-02-20T12:54:41.000Z</time>
      </trkpt>
      <trkpt lat="43.5261" lon="5.54601">
        <ele>264</ele>
        <time>2018-02-20T12:54:42.000Z</time>
      </trkpt>
      <trkpt lat="43.52609" lon="5.546">
        <ele>264</ele>
        <time>2018-02-20T12:54:43.000Z</time>
      </trkpt>
      <trkpt lat="43.52609" lon="5.54599">
        <ele>264</ele>
        <time>2018-02-20T12:54:44.000Z</time>
      </trkpt>
      <trkpt lat="43.52608" lon="5.54598">
        <ele>264</ele>
        <time>2018-02-20T12:54:45.000Z</time>
      </trkpt>
      <trkpt lat="43.52607" lon="5.54596">
        <ele>264</ele>
        <time>2018-02-20T12:54:46.000Z</time>
      </trkpt>
      <trkpt lat="43.52606" lon="5.54595">
        <ele>264</ele>
        <time>2018-02-20T12:54:47.000Z</time>
      </trkpt>
      <trkpt lat="43.52606" lon="5.54594">
        <ele>264</ele>
        <time>2018-02-20T12:54:48.000Z</time>
      </trkpt>
      <trkpt lat="43.52606" lon="5.54594">
        <ele>264</ele>
        <time>2018-02-20T12:54:49.000Z</time>
      </trkpt>
      <trkpt lat="43.52605" lon="5.54593">
        <ele>264</ele>
        <time>2018-02-20T12:54:50.000Z</time>
      </trkpt>
      <trkpt lat="43.52604" lon="5.54591">
        <ele>264</ele>
        <time>2018-02-20T12:54:51.000Z</time>
      </trkpt>
      <trkpt lat="43.52604" lon="5.5459">
        <ele>264</ele>
        <time>2018-02-20T12:54:52.000Z</time>
      </trkpt>
      <trkpt lat="43.52603" lon="5.54589">
        <ele>264</ele>
        <time>2018-02-20T12:54:53.000Z</time>
      </trkpt>
      <trkpt lat="43.52602" lon="5.54587">
        <ele>264</ele>
        <time>2018-02-20T12:54:54.000Z</time>
      </trkpt>
      <trkpt lat="43.52601" lon="5.54586">
        <ele>264</ele>
        <time>2018-02-20T12:54:55.000Z</time>
      </trkpt>
      <trkpt lat="43.526" lon="5.54585">
        <ele>264</ele>
        <time>2018-02-20T12:54:56.000Z</time>
      </trkpt>
      <trkpt lat="43.526" lon="5.54583">
        <ele>264</ele>
        <time>2018-02-20T12:54:57.000Z</time>
      </trkpt>
      <trkpt lat="43.52599" lon="5.54581">
        <ele>264</ele>
        <time>2018-02-20T12:54:58.000Z</time>
      </trkpt>
      <trkpt lat="43.52598" lon="5.5458">
        <ele>264</ele>
        <time>2018-02-20T12:54:59.000Z</time>
      </trkpt>
      <trkpt lat="43.52598" lon="5.54578">
        <ele>264</ele>
        <time>2018-02-20T12:55:00.000Z</time>
      </trkpt>
      <trkpt lat="43.52597" lon="5.54577">
        <ele>264</ele>
        <time>2018-02-20T12:55:01.000Z</time>
      </trkpt>
      <trkpt lat="43.52596" lon="5.54576">
        <ele>264</ele>
        <time>2018-02-20T12:55:02.000Z</time>
      </trkpt>
      <trkpt lat="43.52595" lon="5.54574">
        <ele>264</ele>
        <time>2018-02-20T12:55:03.000Z</time>
      </trkpt>
      <trkpt lat="43.52594" lon="5.54573">
        <ele>264</ele>
        <time>2018-02-20T12:55:04.000Z</time>
      </trkpt>
      <trkpt lat="43.52594" lon="5.54572">
        <ele>264</ele>
        <time>2018-02-20T12:55:05.000Z</time>
      </trkpt>
      <trkpt lat="43.52593" lon="5.5457">
        <ele>264</ele>
        <time>2018-02-20T12:55:06.000Z</time>
      </trkpt>
      <trkpt lat="43.52592" lon="5.54569">
        <ele>264</ele>
        <time>2018-02-20T12:55:07.000Z</time>
      </trkpt>
      <trkpt lat="43.52591" lon="5.54567">
        <ele>264</ele>
        <time>2018-02-20T12:55:08.000Z</time>
      </trkpt>
      <trkpt lat="43.52591" lon="5.54566">
        <ele>264</ele>
        <time>2018-02-20T12:55:09.000Z</time>
      </trkpt>
      <trkpt lat="43.5259" lon="5.54565">
        <ele>265</ele>
        <time>2018-02-20T12:55:10.000Z</time>
      </trkpt>
      <trkpt lat="43.52589" lon="5.54563">
        <ele>265</ele>
        <time>2018-02-20T12:55:11.000Z</time>
      </trkpt>
      <trkpt lat="43.52588" lon="5.54562">
        <ele>265</ele>
        <time>2018-02-20T12:55:12.000Z</time>
      </trkpt>
      <trkpt lat="43.52587" lon="5.54561">
        <ele>265</ele>
        <time>2018-02-20T12:55:13.000Z</time>
      </trkpt>
      <trkpt lat="43.52586" lon="5.54559">
        <ele>265</ele>
        <time>2018-02-20T12:55:14.000Z</time>
      </trkpt>
      <trkpt lat="43.52586" lon="5.54558">
        <ele>265</ele>
        <time>2018-02-20T12:55:15.000Z</time>
      </trkpt>
      <trkpt lat="43.52585" lon="5.54556">
        <ele>265</ele>
        <time>2018-02-20T12:55:16.000Z</time>
      </trkpt>
      <trkpt lat="43.52584" lon="5.54555">
        <ele>265</ele>
        <time>2018-02-20T12:55:17.000Z</time>
      </trkpt>
      <trkpt lat="43.52583" lon="5.54553">
        <ele>265</ele>
        <time>2018-02-20T12:55:18.000Z</time>
      </trkpt>
      <trkpt lat="43.52582" lon="5.54552">
        <ele>265</ele>
        <time>2018-02-20T12:55:19.000Z</time>
      </trkpt>
      <trkpt lat="43.52582" lon="5.5455">
        <ele>265</ele>
        <time>2018-02-20T12:55:20.000Z</time>
      </trkpt>
      <trkpt lat="43.52581" lon="5.54549">
        <ele>265</ele>
        <time>2018-02-20T12:55:21.000Z</time>
      </trkpt>
      <trkpt lat="43.5258" lon="5.54548">
        <ele>265</ele>
        <time>2018-02-20T12:55:22.000Z</time>
      </trkpt>
      <trkpt lat="43.52579" lon="5.54546">
        <ele>265</ele>
        <time>2018-02-20T12:55:23.000Z</time>
      </trkpt>
      <trkpt lat="43.52578" lon="5.54545">
        <ele>265</ele>
        <time>2018-02-20T12:55:24.000Z</time>
      </trkpt>
      <trkpt lat="43.52578" lon="5.54543">
        <ele>265</ele>
        <time>2018-02-20T12:55:25.000Z</time>
      </trkpt>
      <trkpt lat="43.52577" lon="5.54542">
        <ele>265</ele>
        <time>2018-02-20T12:55:26.000Z</time>
      </trkpt>
      <trkpt lat="43.52576" lon="5.54541">
        <ele>265</ele>
        <time>2018-02-20T12:55:27.000Z</time>
      </trkpt>
      <trkpt lat="43.52575" lon="5.5454">
        <ele>265</ele>
        <time>2018-02-20T12:55:28.000Z</time>
      </trkpt>
      <trkpt lat="43.52574" lon="5.54539">
        <ele>265</ele>
        <time>2018-02-20T12:55:29.000Z</time>
      </trkpt>
      <trkpt lat="43.52574" lon="5.54537">
        <ele>265</ele>
        <time>2018-02-20T12:55:30.000Z</time>
      </trkpt>
      <trkpt lat="43.52573" lon="5.54536">
        <ele>265</ele>
        <time>2018-02-20T12:55:31.000Z</time>
      </trkpt>
      <trkpt lat="43.52572" lon="5.54534">
        <ele>265</ele>
        <time>2018-02-20T12:55:32.000Z</time>
      </trkpt>
      <trkpt lat="43.52572" lon="5.54533">
        <ele>265</ele>
        <time>2018-02-20T12:55:33.000Z</time>
      </trkpt>
      <trkpt lat="43.52571" lon="5.54531">
        <ele>265</ele>
        <time>2018-02-20T12:55:34.000Z</time>
      </trkpt>
      <trkpt lat="43.52571" lon="5.5453">
        <ele>265</ele>
        <time>2018-02-20T12:55:35.000Z</time>
      </trkpt>
      <trkpt lat="43.52571" lon="5.54529">
        <ele>265</ele>
        <time>2018-02-20T12:55:36.000Z</time>
      </trkpt>
      <trkpt lat="43.5257" lon="5.54527">
        <ele>265</ele>
        <time>2018-02-20T12:55:37.000Z</time>
      </trkpt>
      <trkpt lat="43.5257" lon="5.54525">
        <ele>265</ele>
        <time>2018-02-20T12:55:38.000Z</time>
      </trkpt>
      <trkpt lat="43.52569" lon="5.54524">
        <ele>265</ele>
        <time>2018-02-20T12:55:39.000Z</time>
      </trkpt>
      <trkpt lat="43.52569" lon="5.54523">
        <ele>265</ele>
        <time>2018-02-20T12:55:40.000Z</time>
      </trkpt>
      <trkpt lat="43.52569" lon="5.54521">
        <ele>265</ele>
        <time>2018-02-20T12:55:41.000Z</time>
      </trkpt>
      <trkpt lat="43.52568" lon="5.5452">
        <ele>265</ele>
        <time>2018-02-20T12:55:42.000Z</time>
      </trkpt>
      <trkpt lat="43.52568" lon="5.54518">
        <ele>265</ele>
        <time>2018-02-20T12:55:43.000Z</time>
      </trkpt>
      <trkpt lat="43.52568" lon="5.54517">
        <ele>266</ele>
        <time>2018-02-20T12:55:44.000Z</time>
      </trkpt>
      <trkpt lat="43.52567" lon="5.54516">
        <ele>266</ele>
        <time>2018-02-20T12:55:45.000Z</time>
      </trkpt>
      <trkpt lat="43.52567" lon="5.54514">
        <ele>266</ele>
        <time>2018-02-20T12:55:46.000Z</time>
      </trkpt>
      <trkpt lat="43.52567" lon="5.54513">
        <ele>266</ele>
        <time>2018-02-20T12:55:47.000Z</time>
      </trkpt>
      <trkpt lat="43.52567" lon="5.54512">
        <ele>266</ele>
        <time>2018-02-20T12:55:48.000Z</time>
      </trkpt>
      <trkpt lat="43.52567" lon="5.54511">
        <ele>266</ele>
        <time>2018-02-20T12:55:49.000Z</time>
      </trkpt>
      <trkpt lat="43.52566" lon="5.54509">
        <ele>267</ele>
        <time>2018-02-20T12:55:50.000Z</time>
      </trkpt>
      <trkpt lat="43.52566" lon="5.54508">
        <ele>267</ele>
        <time>2018-02-20T12:55:51.000Z</time>
      </trkpt>
      <trkpt lat="43.52566" lon="5.54507">
        <ele>267</ele>
        <time>2018-02-20T12:55:52.000Z</time>
      </trkpt>
      <trkpt lat="43.52566" lon="5.54506">
        <ele>267</ele>
        <time>2018-02-20T12:55:53.000Z</time>
      </trkpt>
      <trkpt lat="43.52566" lon="5.54504">
        <ele>267</ele>
        <time>2018-02-20T12:55:54.000Z</time>
      </trkpt>
      <trkpt lat="43.52566" lon="5.54503">
        <ele>267</ele>
        <time>2018-02-20T12:55:55.000Z</time>
      </trkpt>
      <trkpt lat="43.52566" lon="5.54501">
        <ele>267</ele>
        <time>2018-02-20T12:55:56.000Z</time>
      </trkpt>
      <trkpt lat="43.52566" lon="5.545">
        <ele>268</ele>
        <time>2018-02-20T12:55:57.000Z</time>
      </trkpt>
      <trkpt lat="43.52566" lon="5.54499">
        <ele>268</ele>
        <time>2018-02-20T12:55:58.000Z</time>
      </trkpt>
      <trkpt lat="43.52565" lon="5.54497">
        <ele>268</ele>
        <time>2018-02-20T12:55:59.000Z</time>
      </trkpt>
      <trkpt lat="43.52565" lon="5.54496">
        <ele>268</ele>
        <time>2018-02-20T12:56:00.000Z</time>
      </trkpt>
      <trkpt lat="43.52565" lon="5.54494">
        <ele>268</ele>
        <time>2018-02-20T12:56:01.000Z</time>
      </trkpt>
      <trkpt lat="43.52565" lon="5.54493">
        <ele>268</ele>
        <time>2018-02-20T12:56:02.000Z</time>
      </trkpt>
      <trkpt lat="43.52565" lon="5.54492">
        <ele>268</ele>
        <time>2018-02-20T12:56:03.000Z</time>
      </trkpt>
      <trkpt lat="43.52565" lon="5.54491">
        <ele>268</ele>
        <time>2018-02-20T12:56:04.000Z</time>
      </trkpt>
      <trkpt lat="43.52565" lon="5.54489">
        <ele>268</ele>
        <time>2018-02-20T12:56:05.000Z</time>
      </trkpt>
      <trkpt lat="43.52565" lon="5.54488">
        <ele>268</ele>
        <time>2018-02-20T12:56:06.000Z</time>
      </trkpt>
      <trkpt lat="43.52564" lon="5.54488">
        <ele>269</ele>
        <time>2018-02-20T12:56:07.000Z</time>
      </trkpt>
      <trkpt lat="43.52564" lon="5.54487">
        <ele>269</ele>
        <time>2018-02-20T12:56:08.000Z</time>
      </trkpt>
      <trkpt lat="43.52563" lon="5.54485">
        <ele>269</ele>
        <time>2018-02-20T12:56:09.000Z</time>
      </trkpt>
      <trkpt lat="43.52563" lon="5.54484">
        <ele>269</ele>
        <time>2018-02-20T12:56:10.000Z</time>
      </trkpt>
      <trkpt lat="43.52562" lon="5.54483">
        <ele>269</ele>
        <time>2018-02-20T12:56:11.000Z</time>
      </trkpt>
      <trkpt lat="43.52561" lon="5.54483">
        <ele>269</ele>
        <time>2018-02-20T12:56:12.000Z</time>
      </trkpt>
      <trkpt lat="43.52561" lon="5.54482">
        <ele>269</ele>
        <time>2018-02-20T12:56:13.000Z</time>
      </trkpt>
      <trkpt lat="43.52561" lon="5.54482">
        <ele>269</ele>
        <time>2018-02-20T12:56:14.000Z</time>
      </trkpt>
      <trkpt lat="43.52561" lon="5.54482">
        <ele>270</ele>
        <time>2018-02-20T12:56:15.000Z</time>
      </trkpt>
      <trkpt lat="43.52561" lon="5.54482">
        <ele>270</ele>
        <time>2018-02-20T12:56:16.000Z</time>
      </trkpt>
      <trkpt lat="43.5256" lon="5.54481">
        <ele>270</ele>
        <time>2018-02-20T12:56:17.000Z</time>
      </trkpt>
      <trkpt lat="43.5256" lon="5.54481">
        <ele>270</ele>
        <time>2018-02-20T12:56:18.000Z</time>
      </trkpt>
      <trkpt lat="43.5256" lon="5.5448">
        <ele>270</ele>
        <time>2018-02-20T12:56:19.000Z</time>
      </trkpt>
      <trkpt lat="43.5256" lon="5.54479">
        <ele>270</ele>
        <time>2018-02-20T12:56:20.000Z</time>
      </trkpt>
      <trkpt lat="43.5256" lon="5.54477">
        <ele>270</ele>
        <time>2018-02-20T12:56:21.000Z</time>
      </trkpt>
      <trkpt lat="43.5256" lon="5.54476">
        <ele>270</ele>
        <time>2018-02-20T12:56:22.000Z</time>
      </trkpt>
      <trkpt lat="43.5256" lon="5.54474">
        <ele>270</ele>
        <time>2018-02-20T12:56:23.000Z</time>
      </trkpt>
      <trkpt lat="43.5256" lon="5.54473">
        <ele>270</ele>
        <time>2018-02-20T12:56:24.000Z</time>
      </trkpt>
      <trkpt lat="43.52559" lon="5.54472">
        <ele>270</ele>
        <time>2018-02-20T12:56:25.000Z</time>
      </trkpt>
      <trkpt lat="43.52559" lon="5.54471">
        <ele>270</ele>
        <time>2018-02-20T12:56:26.000Z</time>
      </trkpt>
      <trkpt lat="43.52558" lon="5.54469">
        <ele>270</ele>
        <time>2018-02-20T12:56:27.000Z</time>
      </trkpt>
      <trkpt lat="43.52558" lon="5.54468">
        <ele>270</ele>
        <time>2018-02-20T12:56:28.000Z</time>
      </trkpt>
      <trkpt lat="43.52558" lon="5.54466">
        <ele>270</ele>
        <time>2018-02-20T12:56:29.000Z</time>
      </trkpt>
      <trkpt lat="43.52558" lon="5.54465">
        <ele>270</ele>
        <time>2018-02-20T12:56:30.000Z</time>
      </trkpt>
      <trkpt lat="43.52558" lon="5.54463">
        <ele>270</ele>
        <time>2018-02-20T12:56:31.000Z</time>
      </trkpt>
      <trkpt lat="43.52558" lon="5.54462">
        <ele>270</ele>
        <time>2018-02-20T12:56:32.000Z</time>
      </trkpt>
      <trkpt lat="43.52558" lon="5.5446">
        <ele>270</ele>
        <time>2018-02-20T12:56:33.000Z</time>
      </trkpt>
      <trkpt lat="43.52558" lon="5.54459">
        <ele>270</ele>
        <time>2018-02-20T12:56:34.000Z</time>
      </trkpt>
      <trkpt lat="43.52558" lon="5.54458">
        <ele>270</ele>
        <time>2018-02-20T12:56:35.000Z</time>
      </trkpt>
      <trkpt lat="43.52558" lon="5.54456">
        <ele>270</ele>
        <time>2018-02-20T12:56:36.000Z</time>
      </trkpt>
      <trkpt lat="43.52558" lon="5.54455">
        <ele>270</ele>
        <time>2018-02-20T12:56:37.000Z</time>
      </trkpt>
      <trkpt lat="43.52558" lon="5.54453">
        <ele>270</ele>
        <time>2018-02-20T12:56:38.000Z</time>
      </trkpt>
      <trkpt lat="43.52558" lon="5.54452">
        <ele>270</ele>
        <time>2018-02-20T12:56:39.000Z</time>
      </trkpt>
      <trkpt lat="43.52557" lon="5.54451">
        <ele>270</ele>
        <time>2018-02-20T12:56:40.000Z</time>
      </trkpt>
      <trkpt lat="43.52557" lon="5.5445">
        <ele>270</ele>
        <time>2018-02-20T12:56:41.000Z</time>
      </trkpt>
      <trkpt lat="43.52557" lon="5.54448">
        <ele>270</ele>
        <time>2018-02-20T12:56:42.000Z</time>
      </trkpt>
      <trkpt lat="43.52557" lon="5.54447">
        <ele>270</ele>
        <time>2018-02-20T12:56:43.000Z</time>
      </trkpt>
      <trkpt lat="43.52557" lon="5.54446">
        <ele>270</ele>
        <time>2018-02-20T12:56:44.000Z</time>
      </trkpt>
      <trkpt lat="43.52556" lon="5.54444">
        <ele>270</ele>
        <time>2018-02-20T12:56:45.000Z</time>
      </trkpt>
      <trkpt lat="43.52556" lon="5.54442">
        <ele>270</ele>
        <time>2018-02-20T12:56:46.000Z</time>
      </trkpt>
      <trkpt lat="43.52556" lon="5.54441">
        <ele>270</ele>
        <time>2018-02-20T12:56:47.000Z</time>
      </trkpt>
      <trkpt lat="43.52555" lon="5.54439">
        <ele>270</ele>
        <time>2018-02-20T12:56:48.000Z</time>
      </trkpt>
      <trkpt lat="43.52555" lon="5.54438">
        <ele>270</ele>
        <time>2018-02-20T12:56:49.000Z</time>
      </trkpt>
      <trkpt lat="43.52554" lon="5.54436">
        <ele>270</ele>
        <time>2018-02-20T12:56:50.000Z</time>
      </trkpt>
      <trkpt lat="43.52554" lon="5.54435">
        <ele>271</ele>
        <time>2018-02-20T12:56:51.000Z</time>
      </trkpt>
      <trkpt lat="43.52554" lon="5.54433">
        <ele>271</ele>
        <time>2018-02-20T12:56:52.000Z</time>
      </trkpt>
      <trkpt lat="43.52553" lon="5.54432">
        <ele>271</ele>
        <time>2018-02-20T12:56:53.000Z</time>
      </trkpt>
      <trkpt lat="43.52553" lon="5.5443">
        <ele>271</ele>
        <time>2018-02-20T12:56:54.000Z</time>
      </trkpt>
      <trkpt lat="43.52553" lon="5.54429">
        <ele>271</ele>
        <time>2018-02-20T12:56:55.000Z</time>
      </trkpt>
      <trkpt lat="43.52553" lon="5.54428">
        <ele>271</ele>
        <time>2018-02-20T12:56:56.000Z</time>
      </trkpt>
      <trkpt lat="43.52553" lon="5.54427">
        <ele>271</ele>
        <time>2018-02-20T12:56:57.000Z</time>
      </trkpt>
      <trkpt lat="43.52553" lon="5.54425">
        <ele>271</ele>
        <time>2018-02-20T12:56:58.000Z</time>
      </trkpt>
      <trkpt lat="43.52553" lon="5.54424">
        <ele>271</ele>
        <time>2018-02-20T12:56:59.000Z</time>
      </trkpt>
      <trkpt lat="43.52553" lon="5.54422">
        <ele>271</ele>
        <time>2018-02-20T12:57:00.000Z</time>
      </trkpt>
      <trkpt lat="43.52553" lon="5.54421">
        <ele>271</ele>
        <time>2018-02-20T12:57:01.000Z</time>
      </trkpt>
      <trkpt lat="43.52552" lon="5.5442">
        <ele>272</ele>
        <time>2018-02-20T12:57:02.000Z</time>
      </trkpt>
      <trkpt lat="43.52552" lon="5.54419">
        <ele>272</ele>
        <time>2018-02-20T12:57:03.000Z</time>
      </trkpt>
      <trkpt lat="43.52551" lon="5.54418">
        <ele>272</ele>
        <time>2018-02-20T12:57:04.000Z</time>
      </trkpt>
      <trkpt lat="43.52551" lon="5.54416">
        <ele>272</ele>
        <time>2018-02-20T12:57:05.000Z</time>
      </trkpt>
      <trkpt lat="43.52551" lon="5.54415">
        <ele>272</ele>
        <time>2018-02-20T12:57:06.000Z</time>
      </trkpt>
      <trkpt lat="43.52551" lon="5.54414">
        <ele>273</ele>
        <time>2018-02-20T12:57:07.000Z</time>
      </trkpt>
      <trkpt lat="43.5255" lon="5.54413">
        <ele>273</ele>
        <time>2018-02-20T12:57:08.000Z</time>
      </trkpt>
      <trkpt lat="43.5255" lon="5.54412">
        <ele>273</ele>
        <time>2018-02-20T12:57:09.000Z</time>
      </trkpt>
      <trkpt lat="43.52549" lon="5.54411">
        <ele>273</ele>
        <time>2018-02-20T12:57:10.000Z</time>
      </trkpt>
      <trkpt lat="43.52549" lon="5.54409">
        <ele>274</ele>
        <time>2018-02-20T12:57:11.000Z</time>
      </trkpt>
      <trkpt lat="43.52548" lon="5.54408">
        <ele>274</ele>
        <time>2018-02-20T12:57:12.000Z</time>
      </trkpt>
      <trkpt lat="43.52548" lon="5.54407">
        <ele>274</ele>
        <time>2018-02-20T12:57:13.000Z</time>
      </trkpt>
      <trkpt lat="43.52548" lon="5.54406">
        <ele>274</ele>
        <time>2018-02-20T12:57:14.000Z</time>
      </trkpt>
      <trkpt lat="43.52548" lon="5.54405">
        <ele>275</ele>
        <time>2018-02-20T12:57:15.000Z</time>
      </trkpt>
      <trkpt lat="43.52547" lon="5.54404">
        <ele>275</ele>
        <time>2018-02-20T12:57:16.000Z</time>
      </trkpt>
      <trkpt lat="43.52547" lon="5.54402">
        <ele>275</ele>
        <time>2018-02-20T12:57:17.000Z</time>
      </trkpt>
      <trkpt lat="43.52547" lon="5.54401">
        <ele>275</ele>
        <time>2018-02-20T12:57:18.000Z</time>
      </trkpt>
      <trkpt lat="43.52546" lon="5.544">
        <ele>275</ele>
        <time>2018-02-20T12:57:19.000Z</time>
      </trkpt>
      <trkpt lat="43.52546" lon="5.54398">
        <ele>276</ele>
        <time>2018-02-20T12:57:20.000Z</time>
      </trkpt>
      <trkpt lat="43.52546" lon="5.54397">
        <ele>276</ele>
        <time>2018-02-20T12:57:21.000Z</time>
      </trkpt>
      <trkpt lat="43.52546" lon="5.54395">
        <ele>276</ele>
        <time>2018-02-20T12:57:22.000Z</time>
      </trkpt>
      <trkpt lat="43.52546" lon="5.54394">
        <ele>276</ele>
        <time>2018-02-20T12:57:23.000Z</time>
      </trkpt>
      <trkpt lat="43.52547" lon="5.54393">
        <ele>276</ele>
        <time>2018-02-20T12:57:24.000Z</time>
      </trkpt>
      <trkpt lat="43.52546" lon="5.54392">
        <ele>276</ele>
        <time>2018-02-20T12:57:25.000Z</time>
      </trkpt>
      <trkpt lat="43.52546" lon="5.54391">
        <ele>276</ele>
        <time>2018-02-20T12:57:26.000Z</time>
      </trkpt>
      <trkpt lat="43.52547" lon="5.54389">
        <ele>276</ele>
        <time>2018-02-20T12:57:27.000Z</time>
      </trkpt>
      <trkpt lat="43.52547" lon="5.54388">
        <ele>276</ele>
        <time>2018-02-20T12:57:28.000Z</time>
      </trkpt>
      <trkpt lat="43.52547" lon="5.54387">
        <ele>276</ele>
        <time>2018-02-20T12:57:29.000Z</time>
      </trkpt>
      <trkpt lat="43.52547" lon="5.54386">
        <ele>276</ele>
        <time>2018-02-20T12:57:30.000Z</time>
      </trkpt>
      <trkpt lat="43.52547" lon="5.54385">
        <ele>276</ele>
        <time>2018-02-20T12:57:31.000Z</time>
      </trkpt>
      <trkpt lat="43.52547" lon="5.54384">
        <ele>276</ele>
        <time>2018-02-20T12:57:32.000Z</time>
      </trkpt>
      <trkpt lat="43.52547" lon="5.54382">
        <ele>276</ele>
        <time>2018-02-20T12:57:33.000Z</time>
      </trkpt>
      <trkpt lat="43.52547" lon="5.54381">
        <ele>276</ele>
        <time>2018-02-20T12:57:34.000Z</time>
      </trkpt>
      <trkpt lat="43.52546" lon="5.5438">
        <ele>276</ele>
        <time>2018-02-20T12:57:35.000Z</time>
      </trkpt>
      <trkpt lat="43.52546" lon="5.54378">
        <ele>277</ele>
        <time>2018-02-20T12:57:36.000Z</time>
      </trkpt>
      <trkpt lat="43.52546" lon="5.54377">
        <ele>277</ele>
        <time>2018-02-20T12:57:37.000Z</time>
      </trkpt>
      <trkpt lat="43.52546" lon="5.54376">
        <ele>277</ele>
        <time>2018-02-20T12:57:38.000Z</time>
      </trkpt>
      <trkpt lat="43.52546" lon="5.54374">
        <ele>277</ele>
        <time>2018-02-20T12:57:39.000Z</time>
      </trkpt>
      <trkpt lat="43.52546" lon="5.54373">
        <ele>277</ele>
        <time>2018-02-20T12:57:40.000Z</time>
      </trkpt>
      <trkpt lat="43.52546" lon="5.54372">
        <ele>277</ele>
        <time>2018-02-20T12:57:41.000Z</time>
      </trkpt>
      <trkpt lat="43.52545" lon="5.5437">
        <ele>277</ele>
        <time>2018-02-20T12:57:42.000Z</time>
      </trkpt>
      <trkpt lat="43.52545" lon="5.54369">
        <ele>277</ele>
        <time>2018-02-20T12:57:43.000Z</time>
      </trkpt>
      <trkpt lat="43.52545" lon="5.54367">
        <ele>277</ele>
        <time>2018-02-20T12:57:44.000Z</time>
      </trkpt>
      <trkpt lat="43.52545" lon="5.54366">
        <ele>277</ele>
        <time>2018-02-20T12:57:45.000Z</time>
      </trkpt>
      <trkpt lat="43.52545" lon="5.54364">
        <ele>277</ele>
        <time>2018-02-20T12:57:46.000Z</time>
      </trkpt>
      <trkpt lat="43.52544" lon="5.54363">
        <ele>277</ele>
        <time>2018-02-20T12:57:47.000Z</time>
      </trkpt>
      <trkpt lat="43.52544" lon="5.54362">
        <ele>278</ele>
        <time>2018-02-20T12:57:48.000Z</time>
      </trkpt>
      <trkpt lat="43.52544" lon="5.54361">
        <ele>278</ele>
        <time>2018-02-20T12:57:49.000Z</time>
      </trkpt>
      <trkpt lat="43.52544" lon="5.54359">
        <ele>278</ele>
        <time>2018-02-20T12:57:50.000Z</time>
      </trkpt>
      <trkpt lat="43.52543" lon="5.54358">
        <ele>278</ele>
        <time>2018-02-20T12:57:51.000Z</time>
      </trkpt>
      <trkpt lat="43.52543" lon="5.54357">
        <ele>278</ele>
        <time>2018-02-20T12:57:52.000Z</time>
      </trkpt>
      <trkpt lat="43.52543" lon="5.54355">
        <ele>278</ele>
        <time>2018-02-20T12:57:53.000Z</time>
      </trkpt>
      <trkpt lat="43.52543" lon="5.54354">
        <ele>278</ele>
        <time>2018-02-20T12:57:54.000Z</time>
      </trkpt>
      <trkpt lat="43.52543" lon="5.54352">
        <ele>278</ele>
        <time>2018-02-20T12:57:55.000Z</time>
      </trkpt>
      <trkpt lat="43.52543" lon="5.54351">
        <ele>278</ele>
        <time>2018-02-20T12:57:56.000Z</time>
      </trkpt>
      <trkpt lat="43.52542" lon="5.5435">
        <ele>279</ele>
        <time>2018-02-20T12:57:57.000Z</time>
      </trkpt>
      <trkpt lat="43.52542" lon="5.54349">
        <ele>279</ele>
        <time>2018-02-20T12:57:58.000Z</time>
      </trkpt>
      <trkpt lat="43.52542" lon="5.54348">
        <ele>279</ele>
        <time>2018-02-20T12:57:59.000Z</time>
      </trkpt>
      <trkpt lat="43.52542" lon="5.54347">
        <ele>279</ele>
        <time>2018-02-20T12:58:00.000Z</time>
      </trkpt>
      <trkpt lat="43.52542" lon="5.54346">
        <ele>279</ele>
        <time>2018-02-20T12:58:01.000Z</time>
      </trkpt>
      <trkpt lat="43.52542" lon="5.54344">
        <ele>280</ele>
        <time>2018-02-20T12:58:02.000Z</time>
      </trkpt>
      <trkpt lat="43.52542" lon="5.54343">
        <ele>280</ele>
        <time>2018-02-20T12:58:03.000Z</time>
      </trkpt>
      <trkpt lat="43.52542" lon="5.54342">
        <ele>280</ele>
        <time>2018-02-20T12:58:04.000Z</time>
      </trkpt>
      <trkpt lat="43.52542" lon="5.54341">
        <ele>280</ele>
        <time>2018-02-20T12:58:05.000Z</time>
      </trkpt>
      <trkpt lat="43.52542" lon="5.5434">
        <ele>280</ele>
        <time>2018-02-20T12:58:06.000Z</time>
      </trkpt>
      <trkpt lat="43.52542" lon="5.54339">
        <ele>281</ele>
        <time>2018-02-20T12:58:07.000Z</time>
      </trkpt>
      <trkpt lat="43.52542" lon="5.54337">
        <ele>281</ele>
        <time>2018-02-20T12:58:08.000Z</time>
      </trkpt>
      <trkpt lat="43.52542" lon="5.54336">
        <ele>281</ele>
        <time>2018-02-20T12:58:09.000Z</time>
      </trkpt>
      <trkpt lat="43.52542" lon="5.54335">
        <ele>281</ele>
        <time>2018-02-20T12:58:10.000Z</time>
      </trkpt>
      <trkpt lat="43.52542" lon="5.54334">
        <ele>281</ele>
        <time>2018-02-20T12:58:11.000Z</time>
      </trkpt>
      <trkpt lat="43.52542" lon="5.54333">
        <ele>281</ele>
        <time>2018-02-20T12:58:12.000Z</time>
      </trkpt>
      <trkpt lat="43.52542" lon="5.54331">
        <ele>281</ele>
        <time>2018-02-20T12:58:13.000Z</time>
      </trkpt>
      <trkpt lat="43.52542" lon="5.5433">
        <ele>281</ele>
        <time>2018-02-20T12:58:14.000Z</time>
      </trkpt>
      <trkpt lat="43.52542" lon="5.54329">
        <ele>282</ele>
        <time>2018-02-20T12:58:15.000Z</time>
      </trkpt>
      <trkpt lat="43.52543" lon="5.54328">
        <ele>282</ele>
        <time>2018-02-20T12:58:16.000Z</time>
      </trkpt>
      <trkpt lat="43.52543" lon="5.54327">
        <ele>282</ele>
        <time>2018-02-20T12:58:17.000Z</time>
      </trkpt>
      <trkpt lat="43.52543" lon="5.54326">
        <ele>282</ele>
        <time>2018-02-20T12:58:18.000Z</time>
      </trkpt>
      <trkpt lat="43.52543" lon="5.54324">
        <ele>282</ele>
        <time>2018-02-20T12:58:19.000Z</time>
      </trkpt>
      <trkpt lat="43.52543" lon="5.54323">
        <ele>282</ele>
        <time>2018-02-20T12:58:20.000Z</time>
      </trkpt>
      <trkpt lat="43.52543" lon="5.54322">
        <ele>282</ele>
        <time>2018-02-20T12:58:21.000Z</time>
      </trkpt>
      <trkpt lat="43.52543" lon="5.5432">
        <ele>282</ele>
        <time>2018-02-20T12:58:22.000Z</time>
      </trkpt>
      <trkpt lat="43.52543" lon="5.54319">
        <ele>282</ele>
        <time>2018-02-20T12:58:23.000Z</time>
      </trkpt>
      <trkpt lat="43.52543" lon="5.54318">
        <ele>282</ele>
        <time>2018-02-20T12:58:24.000Z</time>
      </trkpt>
      <trkpt lat="43.52543" lon="5.54317">
        <ele>283</ele>
        <time>2018-02-20T12:58:25.000Z</time>
      </trkpt>
      <trkpt lat="43.52543" lon="5.54315">
        <ele>283</ele>
        <time>2018-02-20T12:58:26.000Z</time>
      </trkpt>
      <trkpt lat="43.52543" lon="5.54314">
        <ele>283</ele>
        <time>2018-02-20T12:58:27.000Z</time>
      </trkpt>
      <trkpt lat="43.52543" lon="5.54313">
        <ele>283</ele>
        <time>2018-02-20T12:58:28.000Z</time>
      </trkpt>
      <trkpt lat="43.52543" lon="5.54311">
        <ele>283</ele>
        <time>2018-02-20T12:58:29.000Z</time>
      </trkpt>
      <trkpt lat="43.52542" lon="5.5431">
        <ele>284</ele>
        <time>2018-02-20T12:58:30.000Z</time>
      </trkpt>
      <trkpt lat="43.52542" lon="5.54308">
        <ele>284</ele>
        <time>2018-02-20T12:58:31.000Z</time>
      </trkpt>
      <trkpt lat="43.52543" lon="5.54307">
        <ele>284</ele>
        <time>2018-02-20T12:58:32.000Z</time>
      </trkpt>
      <trkpt lat="43.52543" lon="5.54306">
        <ele>284</ele>
        <time>2018-02-20T12:58:33.000Z</time>
      </trkpt>
      <trkpt lat="43.52543" lon="5.54304">
        <ele>284</ele>
        <time>2018-02-20T12:58:34.000Z</time>
      </trkpt>
      <trkpt lat="43.52543" lon="5.54303">
        <ele>284</ele>
        <time>2018-02-20T12:58:35.000Z</time>
      </trkpt>
      <trkpt lat="43.52543" lon="5.54302">
        <ele>284</ele>
        <time>2018-02-20T12:58:36.000Z</time>
      </trkpt>
      <trkpt lat="43.52543" lon="5.54301">
        <ele>284</ele>
        <time>2018-02-20T12:58:37.000Z</time>
      </trkpt>
      <trkpt lat="43.52543" lon="5.543">
        <ele>285</ele>
        <time>2018-02-20T12:58:38.000Z</time>
      </trkpt>
      <trkpt lat="43.52544" lon="5.54298">
        <ele>285</ele>
        <time>2018-02-20T12:58:39.000Z</time>
      </trkpt>
      <trkpt lat="43.52544" lon="5.54297">
        <ele>285</ele>
        <time>2018-02-20T12:58:40.000Z</time>
      </trkpt>
      <trkpt lat="43.52544" lon="5.54296">
        <ele>285</ele>
        <time>2018-02-20T12:58:41.000Z</time>
      </trkpt>
      <trkpt lat="43.52545" lon="5.54295">
        <ele>285</ele>
        <time>2018-02-20T12:58:42.000Z</time>
      </trkpt>
      <trkpt lat="43.52545" lon="5.54294">
        <ele>285</ele>
        <time>2018-02-20T12:58:43.000Z</time>
      </trkpt>
      <trkpt lat="43.52546" lon="5.54293">
        <ele>285</ele>
        <time>2018-02-20T12:58:44.000Z</time>
      </trkpt>
      <trkpt lat="43.52546" lon="5.54292">
        <ele>285</ele>
        <time>2018-02-20T12:58:45.000Z</time>
      </trkpt>
      <trkpt lat="43.52546" lon="5.5429">
        <ele>285</ele>
        <time>2018-02-20T12:58:46.000Z</time>
      </trkpt>
      <trkpt lat="43.52546" lon="5.54289">
        <ele>285</ele>
        <time>2018-02-20T12:58:47.000Z</time>
      </trkpt>
      <trkpt lat="43.52546" lon="5.54288">
        <ele>286</ele>
        <time>2018-02-20T12:58:48.000Z</time>
      </trkpt>
      <trkpt lat="43.52547" lon="5.54287">
        <ele>286</ele>
        <time>2018-02-20T12:58:49.000Z</time>
      </trkpt>
      <trkpt lat="43.52547" lon="5.54285">
        <ele>286</ele>
        <time>2018-02-20T12:58:50.000Z</time>
      </trkpt>
      <trkpt lat="43.52547" lon="5.54284">
        <ele>286</ele>
        <time>2018-02-20T12:58:51.000Z</time>
      </trkpt>
      <trkpt lat="43.52548" lon="5.54283">
        <ele>286</ele>
        <time>2018-02-20T12:58:52.000Z</time>
      </trkpt>
      <trkpt lat="43.52548" lon="5.54282">
        <ele>287</ele>
        <time>2018-02-20T12:58:53.000Z</time>
      </trkpt>
      <trkpt lat="43.52548" lon="5.54281">
        <ele>287</ele>
        <time>2018-02-20T12:58:54.000Z</time>
      </trkpt>
      <trkpt lat="43.52549" lon="5.54281">
        <ele>287</ele>
        <time>2018-02-20T12:58:55.000Z</time>
      </trkpt>
      <trkpt lat="43.52549" lon="5.5428">
        <ele>287</ele>
        <time>2018-02-20T12:58:56.000Z</time>
      </trkpt>
      <trkpt lat="43.5255" lon="5.54279">
        <ele>287</ele>
        <time>2018-02-20T12:58:57.000Z</time>
      </trkpt>
      <trkpt lat="43.5255" lon="5.54278">
        <ele>287</ele>
        <time>2018-02-20T12:58:58.000Z</time>
      </trkpt>
      <trkpt lat="43.5255" lon="5.54277">
        <ele>287</ele>
        <time>2018-02-20T12:58:59.000Z</time>
      </trkpt>
      <trkpt lat="43.52551" lon="5.54276">
        <ele>287</ele>
        <time>2018-02-20T12:59:00.000Z</time>
      </trkpt>
      <trkpt lat="43.52551" lon="5.54275">
        <ele>287</ele>
        <time>2018-02-20T12:59:01.000Z</time>
      </trkpt>
      <trkpt lat="43.52551" lon="5.54274">
        <ele>287</ele>
        <time>2018-02-20T12:59:02.000Z</time>
      </trkpt>
      <trkpt lat="43.52552" lon="5.54273">
        <ele>288</ele>
        <time>2018-02-20T12:59:03.000Z</time>
      </trkpt>
      <trkpt lat="43.52552" lon="5.54271">
        <ele>288</ele>
        <time>2018-02-20T12:59:04.000Z</time>
      </trkpt>
      <trkpt lat="43.52552" lon="5.5427">
        <ele>288</ele>
        <time>2018-02-20T12:59:05.000Z</time>
      </trkpt>
      <trkpt lat="43.52553" lon="5.54269">
        <ele>288</ele>
        <time>2018-02-20T12:59:06.000Z</time>
      </trkpt>
      <trkpt lat="43.52553" lon="5.54267">
        <ele>288</ele>
        <time>2018-02-20T12:59:07.000Z</time>
      </trkpt>
      <trkpt lat="43.52553" lon="5.54266">
        <ele>288</ele>
        <time>2018-02-20T12:59:08.000Z</time>
      </trkpt>
      <trkpt lat="43.52553" lon="5.54265">
        <ele>289</ele>
        <time>2018-02-20T12:59:09.000Z</time>
      </trkpt>
      <trkpt lat="43.52553" lon="5.54264">
        <ele>289</ele>
        <time>2018-02-20T12:59:10.000Z</time>
      </trkpt>
      <trkpt lat="43.52554" lon="5.54263">
        <ele>289</ele>
        <time>2018-02-20T12:59:11.000Z</time>
      </trkpt>
      <trkpt lat="43.52554" lon="5.54262">
        <ele>289</ele>
        <time>2018-02-20T12:59:12.000Z</time>
      </trkpt>
      <trkpt lat="43.52555" lon="5.54261">
        <ele>289</ele>
        <time>2018-02-20T12:59:13.000Z</time>
      </trkpt>
      <trkpt lat="43.52555" lon="5.5426">
        <ele>289</ele>
        <time>2018-02-20T12:59:14.000Z</time>
      </trkpt>
      <trkpt lat="43.52555" lon="5.54258">
        <ele>289</ele>
        <time>2018-02-20T12:59:15.000Z</time>
      </trkpt>
      <trkpt lat="43.52556" lon="5.54257">
        <ele>290</ele>
        <time>2018-02-20T12:59:16.000Z</time>
      </trkpt>
      <trkpt lat="43.52556" lon="5.54256">
        <ele>290</ele>
        <time>2018-02-20T12:59:17.000Z</time>
      </trkpt>
      <trkpt lat="43.52556" lon="5.54255">
        <ele>290</ele>
        <time>2018-02-20T12:59:18.000Z</time>
      </trkpt>
      <trkpt lat="43.52556" lon="5.54254">
        <ele>290</ele>
        <time>2018-02-20T12:59:19.000Z</time>
      </trkpt>
      <trkpt lat="43.52556" lon="5.54253">
        <ele>290</ele>
        <time>2018-02-20T12:59:20.000Z</time>
      </trkpt>
      <trkpt lat="43.52556" lon="5.54253">
        <ele>290</ele>
        <time>2018-02-20T12:59:21.000Z</time>
      </trkpt>
      <trkpt lat="43.52556" lon="5.54253">
        <ele>291</ele>
        <time>2018-02-20T12:59:22.000Z</time>
      </trkpt>
      <trkpt lat="43.52556" lon="5.54253">
        <ele>291</ele>
        <time>2018-02-20T12:59:23.000Z</time>
      </trkpt>
      <trkpt lat="43.52556" lon="5.54253">
        <ele>291</ele>
        <time>2018-02-20T12:59:24.000Z</time>
      </trkpt>
      <trkpt lat="43.52556" lon="5.54252">
        <ele>291</ele>
        <time>2018-02-20T12:59:25.000Z</time>
      </trkpt>
      <trkpt lat="43.52556" lon="5.54251">
        <ele>291</ele>
        <time>2018-02-20T12:59:26.000Z</time>
      </trkpt>
      <trkpt lat="43.52556" lon="5.5425">
        <ele>291</ele>
        <time>2018-02-20T12:59:27.000Z</time>
      </trkpt>
      <trkpt lat="43.52556" lon="5.54249">
        <ele>292</ele>
        <time>2018-02-20T12:59:28.000Z</time>
      </trkpt>
      <trkpt lat="43.52556" lon="5.54247">
        <ele>292</ele>
        <time>2018-02-20T12:59:29.000Z</time>
      </trkpt>
      <trkpt lat="43.52557" lon="5.54246">
        <ele>292</ele>
        <time>2018-02-20T12:59:30.000Z</time>
      </trkpt>
      <trkpt lat="43.52557" lon="5.54244">
        <ele>292</ele>
        <time>2018-02-20T12:59:31.000Z</time>
      </trkpt>
      <trkpt lat="43.52557" lon="5.54243">
        <ele>292</ele>
        <time>2018-02-20T12:59:32.000Z</time>
      </trkpt>
      <trkpt lat="43.52557" lon="5.54241">
        <ele>292</ele>
        <time>2018-02-20T12:59:33.000Z</time>
      </trkpt>
      <trkpt lat="43.52557" lon="5.5424">
        <ele>292</ele>
        <time>2018-02-20T12:59:34.000Z</time>
      </trkpt>
      <trkpt lat="43.52558" lon="5.54238">
        <ele>292</ele>
        <time>2018-02-20T12:59:35.000Z</time>
      </trkpt>
      <trkpt lat="43.52558" lon="5.54237">
        <ele>293</ele>
        <time>2018-02-20T12:59:36.000Z</time>
      </trkpt>
      <trkpt lat="43.52558" lon="5.54236">
        <ele>293</ele>
        <time>2018-02-20T12:59:37.000Z</time>
      </trkpt>
      <trkpt lat="43.52558" lon="5.54234">
        <ele>293</ele>
        <time>2018-02-20T12:59:38.000Z</time>
      </trkpt>
      <trkpt lat="43.52558" lon="5.54233">
        <ele>293</ele>
        <time>2018-02-20T12:59:39.000Z</time>
      </trkpt>
      <trkpt lat="43.52558" lon="5.54232">
        <ele>293</ele>
        <time>2018-02-20T12:59:40.000Z</time>
      </trkpt>
      <trkpt lat="43.52558" lon="5.5423">
        <ele>293</ele>
        <time>2018-02-20T12:59:41.000Z</time>
      </trkpt>
      <trkpt lat="43.52559" lon="5.54229">
        <ele>294</ele>
        <time>2018-02-20T12:59:42.000Z</time>
      </trkpt>
      <trkpt lat="43.52559" lon="5.54228">
        <ele>294</ele>
        <time>2018-02-20T12:59:43.000Z</time>
      </trkpt>
      <trkpt lat="43.52559" lon="5.54226">
        <ele>294</ele>
        <time>2018-02-20T12:59:44.000Z</time>
      </trkpt>
      <trkpt lat="43.5256" lon="5.54225">
        <ele>294</ele>
        <time>2018-02-20T12:59:45.000Z</time>
      </trkpt>
      <trkpt lat="43.5256" lon="5.54224">
        <ele>294</ele>
        <time>2018-02-20T12:59:46.000Z</time>
      </trkpt>
      <trkpt lat="43.5256" lon="5.54223">
        <ele>294</ele>
        <time>2018-02-20T12:59:47.000Z</time>
      </trkpt>
      <trkpt lat="43.5256" lon="5.54221">
        <ele>294</ele>
        <time>2018-02-20T12:59:48.000Z</time>
      </trkpt>
      <trkpt lat="43.5256" lon="5.5422">
        <ele>294</ele>
        <time>2018-02-20T12:59:49.000Z</time>
      </trkpt>
      <trkpt lat="43.5256" lon="5.54219">
        <ele>294</ele>
        <time>2018-02-20T12:59:50.000Z</time>
      </trkpt>
      <trkpt lat="43.5256" lon="5.54217">
        <ele>294</ele>
        <time>2018-02-20T12:59:51.000Z</time>
      </trkpt>
      <trkpt lat="43.5256" lon="5.54216">
        <ele>294</ele>
        <time>2018-02-20T12:59:52.000Z</time>
      </trkpt>
      <trkpt lat="43.5256" lon="5.54214">
        <ele>294</ele>
        <time>2018-02-20T12:59:53.000Z</time>
      </trkpt>
      <trkpt lat="43.52561" lon="5.54213">
        <ele>294</ele>
        <time>2018-02-20T12:59:54.000Z</time>
      </trkpt>
      <trkpt lat="43.52561" lon="5.54211">
        <ele>294</ele>
        <time>2018-02-20T12:59:55.000Z</time>
      </trkpt>
      <trkpt lat="43.52561" lon="5.5421">
        <ele>294</ele>
        <time>2018-02-20T12:59:56.000Z</time>
      </trkpt>
      <trkpt lat="43.52562" lon="5.54209">
        <ele>294</ele>
        <time>2018-02-20T12:59:57.000Z</time>
      </trkpt>
      <trkpt lat="43.52562" lon="5.54208">
        <ele>294</ele>
        <time>2018-02-20T12:59:58.000Z</time>
      </trkpt>
      <trkpt lat="43.52563" lon="5.54207">
        <ele>294</ele>
        <time>2018-02-20T12:59:59.000Z</time>
      </trkpt>
      <trkpt lat="43.52563" lon="5.54205">
        <ele>294</ele>
        <time>2018-02-20T13:00:00.000Z</time>
      </trkpt>
      <trkpt lat="43.52564" lon="5.54204">
        <ele>294</ele>
        <time>2018-02-20T13:00:01.000Z</time>
      </trkpt>
      <trkpt lat="43.52564" lon="5.54203">
        <ele>294</ele>
        <time>2018-02-20T13:00:02.000Z</time>
      </trkpt>
      <trkpt lat="43.52564" lon="5.54202">
        <ele>294</ele>
        <time>2018-02-20T13:00:03.000Z</time>
      </trkpt>
      <trkpt lat="43.52565" lon="5.542">
        <ele>294</ele>
        <time>2018-02-20T13:00:04.000Z</time>
      </trkpt>
      <trkpt lat="43.52565" lon="5.54199">
        <ele>294</ele>
        <time>2018-02-20T13:00:05.000Z</time>
      </trkpt>
      <trkpt lat="43.52565" lon="5.54198">
        <ele>294</ele>
        <time>2018-02-20T13:00:06.000Z</time>
      </trkpt>
      <trkpt lat="43.52565" lon="5.54197">
        <ele>295</ele>
        <time>2018-02-20T13:00:07.000Z</time>
      </trkpt>
      <trkpt lat="43.52565" lon="5.54195">
        <ele>295</ele>
        <time>2018-02-20T13:00:08.000Z</time>
      </trkpt>
      <trkpt lat="43.52565" lon="5.54194">
        <ele>295</ele>
        <time>2018-02-20T13:00:09.000Z</time>
      </trkpt>
      <trkpt lat="43.52566" lon="5.54193">
        <ele>295</ele>
        <time>2018-02-20T13:00:10.000Z</time>
      </trkpt>
      <trkpt lat="43.52566" lon="5.54191">
        <ele>295</ele>
        <time>2018-02-20T13:00:11.000Z</time>
      </trkpt>
      <trkpt lat="43.52566" lon="5.5419">
        <ele>295</ele>
        <time>2018-02-20T13:00:12.000Z</time>
      </trkpt>
      <trkpt lat="43.52566" lon="5.54189">
        <ele>295</ele>
        <time>2018-02-20T13:00:13.000Z</time>
      </trkpt>
      <trkpt lat="43.52566" lon="5.54189">
        <ele>295</ele>
        <time>2018-02-20T13:00:14.000Z</time>
      </trkpt>
      <trkpt lat="43.52565" lon="5.54189">
        <ele>295</ele>
        <time>2018-02-20T13:00:15.000Z</time>
      </trkpt>
      <trkpt lat="43.52565" lon="5.54189">
        <ele>295</ele>
        <time>2018-02-20T13:00:16.000Z</time>
      </trkpt>
      <trkpt lat="43.52565" lon="5.54188">
        <ele>296</ele>
        <time>2018-02-20T13:00:17.000Z</time>
      </trkpt>
      <trkpt lat="43.52565" lon="5.54187">
        <ele>296</ele>
        <time>2018-02-20T13:00:18.000Z</time>
      </trkpt>
      <trkpt lat="43.52564" lon="5.54186">
        <ele>296</ele>
        <time>2018-02-20T13:00:19.000Z</time>
      </trkpt>
      <trkpt lat="43.52564" lon="5.54185">
        <ele>296</ele>
        <time>2018-02-20T13:00:20.000Z</time>
      </trkpt>
      <trkpt lat="43.52564" lon="5.54184">
        <ele>296</ele>
        <time>2018-02-20T13:00:21.000Z</time>
      </trkpt>
      <trkpt lat="43.52563" lon="5.54182">
        <ele>296</ele>
        <time>2018-02-20T13:00:22.000Z</time>
      </trkpt>
      <trkpt lat="43.52563" lon="5.54181">
        <ele>297</ele>
        <time>2018-02-20T13:00:23.000Z</time>
      </trkpt>
      <trkpt lat="43.52562" lon="5.5418">
        <ele>297</ele>
        <time>2018-02-20T13:00:24.000Z</time>
      </trkpt>
      <trkpt lat="43.52561" lon="5.54179">
        <ele>297</ele>
        <time>2018-02-20T13:00:25.000Z</time>
      </trkpt>
      <trkpt lat="43.5256" lon="5.54178">
        <ele>297</ele>
        <time>2018-02-20T13:00:26.000Z</time>
      </trkpt>
      <trkpt lat="43.52559" lon="5.54176">
        <ele>297</ele>
        <time>2018-02-20T13:00:27.000Z</time>
      </trkpt>
      <trkpt lat="43.52558" lon="5.54175">
        <ele>297</ele>
        <time>2018-02-20T13:00:28.000Z</time>
      </trkpt>
      <trkpt lat="43.52558" lon="5.54174">
        <ele>297</ele>
        <time>2018-02-20T13:00:29.000Z</time>
      </trkpt>
      <trkpt lat="43.52557" lon="5.54173">
        <ele>297</ele>
        <time>2018-02-20T13:00:30.000Z</time>
      </trkpt>
      <trkpt lat="43.52557" lon="5.54172">
        <ele>297</ele>
        <time>2018-02-20T13:00:31.000Z</time>
      </trkpt>
      <trkpt lat="43.52556" lon="5.54171">
        <ele>297</ele>
        <time>2018-02-20T13:00:32.000Z</time>
      </trkpt>
      <trkpt lat="43.52555" lon="5.5417">
        <ele>297</ele>
        <time>2018-02-20T13:00:33.000Z</time>
      </trkpt>
      <trkpt lat="43.52554" lon="5.54168">
        <ele>297</ele>
        <time>2018-02-20T13:00:34.000Z</time>
      </trkpt>
      <trkpt lat="43.52554" lon="5.54167">
        <ele>296</ele>
        <time>2018-02-20T13:00:35.000Z</time>
      </trkpt>
      <trkpt lat="43.52553" lon="5.54166">
        <ele>296</ele>
        <time>2018-02-20T13:00:36.000Z</time>
      </trkpt>
      <trkpt lat="43.52552" lon="5.54165">
        <ele>296</ele>
        <time>2018-02-20T13:00:37.000Z</time>
      </trkpt>
      <trkpt lat="43.52551" lon="5.54164">
        <ele>296</ele>
        <time>2018-02-20T13:00:38.000Z</time>
      </trkpt>
      <trkpt lat="43.5255" lon="5.54162">
        <ele>296</ele>
        <time>2018-02-20T13:00:39.000Z</time>
      </trkpt>
      <trkpt lat="43.5255" lon="5.54161">
        <ele>296</ele>
        <time>2018-02-20T13:00:40.000Z</time>
      </trkpt>
      <trkpt lat="43.5255" lon="5.5416">
        <ele>296</ele>
        <time>2018-02-20T13:00:41.000Z</time>
      </trkpt>
      <trkpt lat="43.5255" lon="5.5416">
        <ele>296</ele>
        <time>2018-02-20T13:00:42.000Z</time>
      </trkpt>
      <trkpt lat="43.52549" lon="5.5416">
        <ele>296</ele>
        <time>2018-02-20T13:00:43.000Z</time>
      </trkpt>
      <trkpt lat="43.52549" lon="5.5416">
        <ele>296</ele>
        <time>2018-02-20T13:00:44.000Z</time>
      </trkpt>
      <trkpt lat="43.52549" lon="5.54159">
        <ele>296</ele>
        <time>2018-02-20T13:00:45.000Z</time>
      </trkpt>
      <trkpt lat="43.52548" lon="5.54159">
        <ele>296</ele>
        <time>2018-02-20T13:00:46.000Z</time>
      </trkpt>
      <trkpt lat="43.52548" lon="5.54157">
        <ele>296</ele>
        <time>2018-02-20T13:00:47.000Z</time>
      </trkpt>
      <trkpt lat="43.52548" lon="5.54156">
        <ele>296</ele>
        <time>2018-02-20T13:00:48.000Z</time>
      </trkpt>
      <trkpt lat="43.52547" lon="5.54155">
        <ele>296</ele>
        <time>2018-02-20T13:00:49.000Z</time>
      </trkpt>
      <trkpt lat="43.52547" lon="5.54153">
        <ele>296</ele>
        <time>2018-02-20T13:00:50.000Z</time>
      </trkpt>
      <trkpt lat="43.52547" lon="5.54152">
        <ele>296</ele>
        <time>2018-02-20T13:00:51.000Z</time>
      </trkpt>
      <trkpt lat="43.52546" lon="5.54151">
        <ele>296</ele>
        <time>2018-02-20T13:00:52.000Z</time>
      </trkpt>
      <trkpt lat="43.52546" lon="5.5415">
        <ele>296</ele>
        <time>2018-02-20T13:00:53.000Z</time>
      </trkpt>
      <trkpt lat="43.52546" lon="5.54148">
        <ele>296</ele>
        <time>2018-02-20T13:00:54.000Z</time>
      </trkpt>
      <trkpt lat="43.52545" lon="5.54147">
        <ele>296</ele>
        <time>2018-02-20T13:00:55.000Z</time>
      </trkpt>
      <trkpt lat="43.52545" lon="5.54146">
        <ele>296</ele>
        <time>2018-02-20T13:00:56.000Z</time>
      </trkpt>
      <trkpt lat="43.52545" lon="5.54144">
        <ele>296</ele>
        <time>2018-02-20T13:00:57.000Z</time>
      </trkpt>
      <trkpt lat="43.52545" lon="5.54143">
        <ele>296</ele>
        <time>2018-02-20T13:00:58.000Z</time>
      </trkpt>
      <trkpt lat="43.52545" lon="5.54143">
        <ele>296</ele>
        <time>2018-02-20T13:00:59.000Z</time>
      </trkpt>
      <trkpt lat="43.52545" lon="5.54143">
        <ele>296</ele>
        <time>2018-02-20T13:01:00.000Z</time>
      </trkpt>
      <trkpt lat="43.52545" lon="5.54143">
        <ele>296</ele>
        <time>2018-02-20T13:01:01.000Z</time>
      </trkpt>
      <trkpt lat="43.52545" lon="5.54144">
        <ele>297</ele>
        <time>2018-02-20T13:01:02.000Z</time>
      </trkpt>
      <trkpt lat="43.52545" lon="5.54145">
        <ele>297</ele>
        <time>2018-02-20T13:01:03.000Z</time>
      </trkpt>
      <trkpt lat="43.52545" lon="5.54146">
        <ele>297</ele>
        <time>2018-02-20T13:01:04.000Z</time>
      </trkpt>
      <trkpt lat="43.52544" lon="5.54147">
        <ele>297</ele>
        <time>2018-02-20T13:01:05.000Z</time>
      </trkpt>
      <trkpt lat="43.52544" lon="5.54148">
        <ele>297</ele>
        <time>2018-02-20T13:01:06.000Z</time>
      </trkpt>
      <trkpt lat="43.52543" lon="5.54149">
        <ele>297</ele>
        <time>2018-02-20T13:01:07.000Z</time>
      </trkpt>
      <trkpt lat="43.52543" lon="5.5415">
        <ele>297</ele>
        <time>2018-02-20T13:01:08.000Z</time>
      </trkpt>
      <trkpt lat="43.52542" lon="5.54152">
        <ele>297</ele>
        <time>2018-02-20T13:01:09.000Z</time>
      </trkpt>
      <trkpt lat="43.52541" lon="5.54153">
        <ele>297</ele>
        <time>2018-02-20T13:01:10.000Z</time>
      </trkpt>
      <trkpt lat="43.52541" lon="5.54154">
        <ele>297</ele>
        <time>2018-02-20T13:01:11.000Z</time>
      </trkpt>
      <trkpt lat="43.52541" lon="5.54154">
        <ele>297</ele>
        <time>2018-02-20T13:01:12.000Z</time>
      </trkpt>
      <trkpt lat="43.5254" lon="5.54155">
        <ele>297</ele>
        <time>2018-02-20T13:01:13.000Z</time>
      </trkpt>
      <trkpt lat="43.5254" lon="5.54155">
        <ele>297</ele>
        <time>2018-02-20T13:01:14.000Z</time>
      </trkpt>
      <trkpt lat="43.5254" lon="5.54155">
        <ele>297</ele>
        <time>2018-02-20T13:01:15.000Z</time>
      </trkpt>
      <trkpt lat="43.5254" lon="5.54156">
        <ele>297</ele>
        <time>2018-02-20T13:01:16.000Z</time>
      </trkpt>
      <trkpt lat="43.5254" lon="5.54155">
        <ele>297</ele>
        <time>2018-02-20T13:01:17.000Z</time>
      </trkpt>
      <trkpt lat="43.52539" lon="5.54155">
        <ele>297</ele>
        <time>2018-02-20T13:01:18.000Z</time>
      </trkpt>
      <trkpt lat="43.5254" lon="5.54155">
        <ele>297</ele>
        <time>2018-02-20T13:01:19.000Z</time>
      </trkpt>
      <trkpt lat="43.5254" lon="5.54156">
        <ele>297</ele>
        <time>2018-02-20T13:01:20.000Z</time>
      </trkpt>
      <trkpt lat="43.5254" lon="5.54155">
        <ele>297</ele>
        <time>2018-02-20T13:01:21.000Z</time>
      </trkpt>
      <trkpt lat="43.5254" lon="5.54155">
        <ele>297</ele>
        <time>2018-02-20T13:01:22.000Z</time>
      </trkpt>
      <trkpt lat="43.5254" lon="5.54156">
        <ele>297</ele>
        <time>2018-02-20T13:01:23.000Z</time>
      </trkpt>
      <trkpt lat="43.5254" lon="5.54155">
        <ele>297</ele>
        <time>2018-02-20T13:01:24.000Z</time>
      </trkpt>
      <trkpt lat="43.5254" lon="5.54155">
        <ele>297</ele>
        <time>2018-02-20T13:01:25.000Z</time>
      </trkpt>
      <trkpt lat="43.5254" lon="5.54156">
        <ele>297</ele>
        <time>2018-02-20T13:01:26.000Z</time>
      </trkpt>
      <trkpt lat="43.5254" lon="5.54156">
        <ele>297</ele>
        <time>2018-02-20T13:01:27.000Z</time>
      </trkpt>
      <trkpt lat="43.5254" lon="5.54155">
        <ele>297</ele>
        <time>2018-02-20T13:01:28.000Z</time>
      </trkpt>
      <trkpt lat="43.5254" lon="5.54155">
        <ele>297</ele>
        <time>2018-02-20T13:01:29.000Z</time>
      </trkpt>
      <trkpt lat="43.5254" lon="5.54155">
        <ele>297</ele>
        <time>2018-02-20T13:01:30.000Z</time>
      </trkpt>
      <trkpt lat="43.5254" lon="5.54155">
        <ele>297</ele>
        <time>2018-02-20T13:01:31.000Z</time>
      </trkpt>
      <trkpt lat="43.5254" lon="5.54155">
        <ele>297</ele>
        <time>2018-02-20T13:01:32.000Z</time>
      </trkpt>
      <trkpt lat="43.5254" lon="5.54155">
        <ele>297</ele>
        <time>2018-02-20T13:01:33.000Z</time>
      </trkpt>
      <trkpt lat="43.5254" lon="5.54155">
        <ele>297</ele>
        <time>2018-02-20T13:01:34.000Z</time>
      </trkpt>
      <trkpt lat="43.5254" lon="5.54155">
        <ele>296</ele>
        <time>2018-02-20T13:01:35.000Z</time>
      </trkpt>
      <trkpt lat="43.5254" lon="5.54155">
        <ele>296</ele>
        <time>2018-02-20T13:01:36.000Z</time>
      </trkpt>
      <trkpt lat="43.5254" lon="5.54155">
        <ele>296</ele>
        <time>2018-02-20T13:01:37.000Z</time>
      </trkpt>
      <trkpt lat="43.5254" lon="5.54155">
        <ele>296</ele>
        <time>2018-02-20T13:01:38.000Z</time>
      </trkpt>
      <trkpt lat="43.5254" lon="5.54155">
        <ele>296</ele>
        <time>2018-02-20T13:01:39.000Z</time>
      </trkpt>
      <trkpt lat="43.5254" lon="5.54155">
        <ele>296</ele>
        <time>2018-02-20T13:01:40.000Z</time>
      </trkpt>
      <trkpt lat="43.5254" lon="5.54155">
        <ele>296</ele>
        <time>2018-02-20T13:01:41.000Z</time>
      </trkpt>
      <trkpt lat="43.5254" lon="5.54155">
        <ele>296</ele>
        <time>2018-02-20T13:01:42.000Z</time>
      </trkpt>
      <trkpt lat="43.5254" lon="5.54155">
        <ele>296</ele>
        <time>2018-02-20T13:01:43.000Z</time>
      </trkpt>
      <trkpt lat="43.5254" lon="5.54155">
        <ele>296</ele>
        <time>2018-02-20T13:01:44.000Z</time>
      </trkpt>
      <trkpt lat="43.5254" lon="5.54155">
        <ele>296</ele>
        <time>2018-02-20T13:01:45.000Z</time>
      </trkpt>
      <trkpt lat="43.5254" lon="5.54155">
        <ele>296</ele>
        <time>2018-02-20T13:01:46.000Z</time>
      </trkpt>
      <trkpt lat="43.5254" lon="5.54155">
        <ele>296</ele>
        <time>2018-02-20T13:01:47.000Z</time>
      </trkpt>
      <trkpt lat="43.5254" lon="5.54155">
        <ele>296</ele>
        <time>2018-02-20T13:01:48.000Z</time>
      </trkpt>
      <trkpt lat="43.5254" lon="5.54155">
        <ele>296</ele>
        <time>2018-02-20T13:01:49.000Z</time>
      </trkpt>
      <trkpt lat="43.5254" lon="5.54154">
        <ele>296</ele>
        <time>2018-02-20T13:01:50.000Z</time>
      </trkpt>
      <trkpt lat="43.52541" lon="5.54154">
        <ele>296</ele>
        <time>2018-02-20T13:01:51.000Z</time>
      </trkpt>
      <trkpt lat="43.52541" lon="5.54153">
        <ele>296</ele>
        <time>2018-02-20T13:01:52.000Z</time>
      </trkpt>
      <trkpt lat="43.52542" lon="5.54152">
        <ele>296</ele>
        <time>2018-02-20T13:01:53.000Z</time>
      </trkpt>
      <trkpt lat="43.52542" lon="5.54152">
        <ele>296</ele>
        <time>2018-02-20T13:01:54.000Z</time>
      </trkpt>
      <trkpt lat="43.52542" lon="5.54152">
        <ele>296</ele>
        <time>2018-02-20T13:01:55.000Z</time>
      </trkpt>
      <trkpt lat="43.52542" lon="5.54152">
        <ele>296</ele>
        <time>2018-02-20T13:01:56.000Z</time>
      </trkpt>
      <trkpt lat="43.52542" lon="5.54152">
        <ele>296</ele>
        <time>2018-02-20T13:01:57.000Z</time>
      </trkpt>
      <trkpt lat="43.52542" lon="5.54152">
        <ele>296</ele>
        <time>2018-02-20T13:01:58.000Z</time>
      </trkpt>
      <trkpt lat="43.52542" lon="5.54152">
        <ele>296</ele>
        <time>2018-02-20T13:01:59.000Z</time>
      </trkpt>
      <trkpt lat="43.52543" lon="5.54153">
        <ele>296</ele>
        <time>2018-02-20T13:02:00.000Z</time>
      </trkpt>
      <trkpt lat="43.52543" lon="5.54153">
        <ele>296</ele>
        <time>2018-02-20T13:02:01.000Z</time>
      </trkpt>
      <trkpt lat="43.52543" lon="5.54153">
        <ele>296</ele>
        <time>2018-02-20T13:02:02.000Z</time>
      </trkpt>
      <trkpt lat="43.52543" lon="5.54153">
        <ele>296</ele>
        <time>2018-02-20T13:02:03.000Z</time>
      </trkpt>
      <trkpt lat="43.52543" lon="5.54153">
        <ele>296</ele>
        <time>2018-02-20T13:02:04.000Z</time>
      </trkpt>
      <trkpt lat="43.52543" lon="5.54152">
        <ele>296</ele>
        <time>2018-02-20T13:02:05.000Z</time>
      </trkpt>
      <trkpt lat="43.52543" lon="5.54152">
        <ele>296</ele>
        <time>2018-02-20T13:02:06.000Z</time>
      </trkpt>
      <trkpt lat="43.52543" lon="5.54152">
        <ele>296</ele>
        <time>2018-02-20T13:02:07.000Z</time>
      </trkpt>
      <trkpt lat="43.52543" lon="5.54153">
        <ele>296</ele>
        <time>2018-02-20T13:02:08.000Z</time>
      </trkpt>
      <trkpt lat="43.52543" lon="5.54154">
        <ele>296</ele>
        <time>2018-02-20T13:02:09.000Z</time>
      </trkpt>
      <trkpt lat="43.52544" lon="5.54155">
        <ele>296</ele>
        <time>2018-02-20T13:02:10.000Z</time>
      </trkpt>
      <trkpt lat="43.52544" lon="5.54156">
        <ele>296</ele>
        <time>2018-02-20T13:02:11.000Z</time>
      </trkpt>
      <trkpt lat="43.52544" lon="5.54157">
        <ele>296</ele>
        <time>2018-02-20T13:02:12.000Z</time>
      </trkpt>
      <trkpt lat="43.52545" lon="5.54158">
        <ele>296</ele>
        <time>2018-02-20T13:02:13.000Z</time>
      </trkpt>
      <trkpt lat="43.52545" lon="5.54159">
        <ele>296</ele>
        <time>2018-02-20T13:02:14.000Z</time>
      </trkpt>
      <trkpt lat="43.52545" lon="5.5416">
        <ele>296</ele>
        <time>2018-02-20T13:02:15.000Z</time>
      </trkpt>
      <trkpt lat="43.52546" lon="5.54161">
        <ele>296</ele>
        <time>2018-02-20T13:02:16.000Z</time>
      </trkpt>
      <trkpt lat="43.52546" lon="5.54162">
        <ele>296</ele>
        <time>2018-02-20T13:02:17.000Z</time>
      </trkpt>
      <trkpt lat="43.52546" lon="5.54163">
        <ele>296</ele>
        <time>2018-02-20T13:02:18.000Z</time>
      </trkpt>
      <trkpt lat="43.52547" lon="5.54163">
        <ele>296</ele>
        <time>2018-02-20T13:02:19.000Z</time>
      </trkpt>
      <trkpt lat="43.52547" lon="5.54163">
        <ele>296</ele>
        <time>2018-02-20T13:02:20.000Z</time>
      </trkpt>
      <trkpt lat="43.52547" lon="5.54163">
        <ele>296</ele>
        <time>2018-02-20T13:02:21.000Z</time>
      </trkpt>
      <trkpt lat="43.52547" lon="5.54163">
        <ele>296</ele>
        <time>2018-02-20T13:02:22.000Z</time>
      </trkpt>
      <trkpt lat="43.52548" lon="5.54163">
        <ele>296</ele>
        <time>2018-02-20T13:02:23.000Z</time>
      </trkpt>
      <trkpt lat="43.52548" lon="5.54163">
        <ele>296</ele>
        <time>2018-02-20T13:02:24.000Z</time>
      </trkpt>
      <trkpt lat="43.52548" lon="5.54163">
        <ele>296</ele>
        <time>2018-02-20T13:02:25.000Z</time>
      </trkpt>
      <trkpt lat="43.52548" lon="5.54163">
        <ele>296</ele>
        <time>2018-02-20T13:02:26.000Z</time>
      </trkpt>
      <trkpt lat="43.52548" lon="5.54163">
        <ele>296</ele>
        <time>2018-02-20T13:02:27.000Z</time>
      </trkpt>
      <trkpt lat="43.52548" lon="5.54163">
        <ele>296</ele>
        <time>2018-02-20T13:02:28.000Z</time>
      </trkpt>
      <trkpt lat="43.52548" lon="5.54163">
        <ele>296</ele>
        <time>2018-02-20T13:02:29.000Z</time>
      </trkpt>
      <trkpt lat="43.52548" lon="5.54163">
        <ele>296</ele>
        <time>2018-02-20T13:02:30.000Z</time>
      </trkpt>
      <trkpt lat="43.52548" lon="5.54163">
        <ele>296</ele>
        <time>2018-02-20T13:02:31.000Z</time>
      </trkpt>
      <trkpt lat="43.52548" lon="5.54163">
        <ele>295</ele>
        <time>2018-02-20T13:02:32.000Z</time>
      </trkpt>
      <trkpt lat="43.52548" lon="5.54163">
        <ele>295</ele>
        <time>2018-02-20T13:02:33.000Z</time>
      </trkpt>
      <trkpt lat="43.52548" lon="5.54163">
        <ele>295</ele>
        <time>2018-02-20T13:02:34.000Z</time>
      </trkpt>
      <trkpt lat="43.52548" lon="5.54163">
        <ele>295</ele>
        <time>2018-02-20T13:02:35.000Z</time>
      </trkpt>
      <trkpt lat="43.52548" lon="5.54163">
        <ele>295</ele>
        <time>2018-02-20T13:02:36.000Z</time>
      </trkpt>
      <trkpt lat="43.52548" lon="5.54163">
        <ele>295</ele>
        <time>2018-02-20T13:02:37.000Z</time>
      </trkpt>
      <trkpt lat="43.52548" lon="5.54163">
        <ele>295</ele>
        <time>2018-02-20T13:02:38.000Z</time>
      </trkpt>
      <trkpt lat="43.52547" lon="5.54162">
        <ele>295</ele>
        <time>2018-02-20T13:02:39.000Z</time>
      </trkpt>
      <trkpt lat="43.52547" lon="5.54162">
        <ele>295</ele>
        <time>2018-02-20T13:02:40.000Z</time>
      </trkpt>
      <trkpt lat="43.52547" lon="5.54162">
        <ele>295</ele>
        <time>2018-02-20T13:02:41.000Z</time>
      </trkpt>
      <trkpt lat="43.52547" lon="5.54162">
        <ele>295</ele>
        <time>2018-02-20T13:02:42.000Z</time>
      </trkpt>
      <trkpt lat="43.52547" lon="5.54162">
        <ele>295</ele>
        <time>2018-02-20T13:02:43.000Z</time>
      </trkpt>
      <trkpt lat="43.52547" lon="5.54162">
        <ele>295</ele>
        <time>2018-02-20T13:02:44.000Z</time>
      </trkpt>
      <trkpt lat="43.52547" lon="5.54162">
        <ele>294</ele>
        <time>2018-02-20T13:02:45.000Z</time>
      </trkpt>
      <trkpt lat="43.52547" lon="5.54161">
        <ele>294</ele>
        <time>2018-02-20T13:02:46.000Z</time>
      </trkpt>
      <trkpt lat="43.52547" lon="5.54161">
        <ele>294</ele>
        <time>2018-02-20T13:02:47.000Z</time>
      </trkpt>
      <trkpt lat="43.52547" lon="5.54161">
        <ele>294</ele>
        <time>2018-02-20T13:02:48.000Z</time>
      </trkpt>
      <trkpt lat="43.52547" lon="5.54161">
        <ele>294</ele>
        <time>2018-02-20T13:02:49.000Z</time>
      </trkpt>
      <trkpt lat="43.52547" lon="5.54161">
        <ele>294</ele>
        <time>2018-02-20T13:02:50.000Z</time>
      </trkpt>
      <trkpt lat="43.52547" lon="5.54161">
        <ele>294</ele>
        <time>2018-02-20T13:02:51.000Z</time>
      </trkpt>
      <trkpt lat="43.52547" lon="5.54161">
        <ele>294</ele>
        <time>2018-02-20T13:02:52.000Z</time>
      </trkpt>
      <trkpt lat="43.52547" lon="5.5416">
        <ele>294</ele>
        <time>2018-02-20T13:02:53.000Z</time>
      </trkpt>
      <trkpt lat="43.52547" lon="5.5416">
        <ele>294</ele>
        <time>2018-02-20T13:02:54.000Z</time>
      </trkpt>
      <trkpt lat="43.52547" lon="5.54161">
        <ele>294</ele>
        <time>2018-02-20T13:02:55.000Z</time>
      </trkpt>
      <trkpt lat="43.52547" lon="5.54161">
        <ele>294</ele>
        <time>2018-02-20T13:02:56.000Z</time>
      </trkpt>
      <trkpt lat="43.52547" lon="5.5416">
        <ele>294</ele>
        <time>2018-02-20T13:02:57.000Z</time>
      </trkpt>
      <trkpt lat="43.52547" lon="5.5416">
        <ele>294</ele>
        <time>2018-02-20T13:02:58.000Z</time>
      </trkpt>
      <trkpt lat="43.52547" lon="5.5416">
        <ele>294</ele>
        <time>2018-02-20T13:02:59.000Z</time>
      </trkpt>
      <trkpt lat="43.52547" lon="5.5416">
        <ele>294</ele>
        <time>2018-02-20T13:03:00.000Z</time>
      </trkpt>
      <trkpt lat="43.52547" lon="5.5416">
        <ele>294</ele>
        <time>2018-02-20T13:03:01.000Z</time>
      </trkpt>
      <trkpt lat="43.52547" lon="5.5416">
        <ele>294</ele>
        <time>2018-02-20T13:03:02.000Z</time>
      </trkpt>
      <trkpt lat="43.52547" lon="5.5416">
        <ele>294</ele>
        <time>2018-02-20T13:03:03.000Z</time>
      </trkpt>
      <trkpt lat="43.52547" lon="5.5416">
        <ele>294</ele>
        <time>2018-02-20T13:03:04.000Z</time>
      </trkpt>
      <trkpt lat="43.52547" lon="5.5416">
        <ele>294</ele>
        <time>2018-02-20T13:03:05.000Z</time>
      </trkpt>
      <trkpt lat="43.52547" lon="5.5416">
        <ele>294</ele>
        <time>2018-02-20T13:03:06.000Z</time>
      </trkpt>
      <trkpt lat="43.52547" lon="5.5416">
        <ele>294</ele>
        <time>2018-02-20T13:03:07.000Z</time>
      </trkpt>
      <trkpt lat="43.52547" lon="5.5416">
        <ele>294</ele>
        <time>2018-02-20T13:03:08.000Z</time>
      </trkpt>
      <trkpt lat="43.52547" lon="5.5416">
        <ele>294</ele>
        <time>2018-02-20T13:03:09.000Z</time>
      </trkpt>
      <trkpt lat="43.52547" lon="5.5416">
        <ele>294</ele>
        <time>2018-02-20T13:03:10.000Z</time>
      </trkpt>
      <trkpt lat="43.52547" lon="5.5416">
        <ele>294</ele>
        <time>2018-02-20T13:03:11.000Z</time>
      </trkpt>
      <trkpt lat="43.52547" lon="5.5416">
        <ele>294</ele>
        <time>2018-02-20T13:03:12.000Z</time>
      </trkpt>
      <trkpt lat="43.52547" lon="5.5416">
        <ele>294</ele>
        <time>2018-02-20T13:03:13.000Z</time>
      </trkpt>
      <trkpt lat="43.52547" lon="5.5416">
        <ele>294</ele>
        <time>2018-02-20T13:03:14.000Z</time>
      </trkpt>
      <trkpt lat="43.52547" lon="5.5416">
        <ele>294</ele>
        <time>2018-02-20T13:03:15.000Z</time>
      </trkpt>
      <trkpt lat="43.52547" lon="5.5416">
        <ele>294</ele>
        <time>2018-02-20T13:03:16.000Z</time>
      </trkpt>
      <trkpt lat="43.52547" lon="5.5416">
        <ele>294</ele>
        <time>2018-02-20T13:03:17.000Z</time>
      </trkpt>
      <trkpt lat="43.52547" lon="5.5416">
        <ele>294</ele>
        <time>2018-02-20T13:03:18.000Z</time>
      </trkpt>
      <trkpt lat="43.52547" lon="5.5416">
        <ele>294</ele>
        <time>2018-02-20T13:03:19.000Z</time>
      </trkpt>
      <trkpt lat="43.52547" lon="5.5416">
        <ele>294</ele>
        <time>2018-02-20T13:03:20.000Z</time>
      </trkpt>
      <trkpt lat="43.52547" lon="5.5416">
        <ele>294</ele>
        <time>2018-02-20T13:03:21.000Z</time>
      </trkpt>
      <trkpt lat="43.52547" lon="5.5416">
        <ele>294</ele>
        <time>2018-02-20T13:03:22.000Z</time>
      </trkpt>
      <trkpt lat="43.52547" lon="5.5416">
        <ele>294</ele>
        <time>2018-02-20T13:03:23.000Z</time>
      </trkpt>
      <trkpt lat="43.52547" lon="5.5416">
        <ele>294</ele>
        <time>2018-02-20T13:03:24.000Z</time>
      </trkpt>
      <trkpt lat="43.52547" lon="5.5416">
        <ele>294</ele>
        <time>2018-02-20T13:03:25.000Z</time>
      </trkpt>
      <trkpt lat="43.52547" lon="5.5416">
        <ele>294</ele>
        <time>2018-02-20T13:03:26.000Z</time>
      </trkpt>
      <trkpt lat="43.52547" lon="5.5416">
        <ele>294</ele>
        <time>2018-02-20T13:03:27.000Z</time>
      </trkpt>
      <trkpt lat="43.52547" lon="5.5416">
        <ele>294</ele>
        <time>2018-02-20T13:03:28.000Z</time>
      </trkpt>
      <trkpt lat="43.52547" lon="5.5416">
        <ele>294</ele>
        <time>2018-02-20T13:03:29.000Z</time>
      </trkpt>
      <trkpt lat="43.52547" lon="5.5416">
        <ele>294</ele>
        <time>2018-02-20T13:03:30.000Z</time>
      </trkpt>
      <trkpt lat="43.52547" lon="5.5416">
        <ele>294</ele>
        <time>2018-02-20T13:03:31.000Z</time>
      </trkpt>
      <trkpt lat="43.52547" lon="5.5416">
        <ele>294</ele>
        <time>2018-02-20T13:03:32.000Z</time>
      </trkpt>
      <trkpt lat="43.52547" lon="5.5416">
        <ele>294</ele>
        <time>2018-02-20T13:03:33.000Z</time>
      </trkpt>
      <trkpt lat="43.52547" lon="5.5416">
        <ele>294</ele>
        <time>2018-02-20T13:03:34.000Z</time>
      </trkpt>
      <trkpt lat="43.52547" lon="5.5416">
        <ele>294</ele>
        <time>2018-02-20T13:03:35.000Z</time>
      </trkpt>
      <trkpt lat="43.52547" lon="5.5416">
        <ele>294</ele>
        <time>2018-02-20T13:03:36.000Z</time>
      </trkpt>
      <trkpt lat="43.52547" lon="5.5416">
        <ele>294</ele>
        <time>2018-02-20T13:03:37.000Z</time>
      </trkpt>
      <trkpt lat="43.52547" lon="5.5416">
        <ele>294</ele>
        <time>2018-02-20T13:03:38.000Z</time>
      </trkpt>
      <trkpt lat="43.52547" lon="5.5416">
        <ele>294</ele>
        <time>2018-02-20T13:03:39.000Z</time>
      </trkpt>
      <trkpt lat="43.52547" lon="5.5416">
        <ele>294</ele>
        <time>2018-02-20T13:03:40.000Z</time>
      </trkpt>
      <trkpt lat="43.52547" lon="5.5416">
        <ele>294</ele>
        <time>2018-02-20T13:03:41.000Z</time>
      </trkpt>
      <trkpt lat="43.52547" lon="5.5416">
        <ele>294</ele>
        <time>2018-02-20T13:03:42.000Z</time>
      </trkpt>
      <trkpt lat="43.52547" lon="5.5416">
        <ele>294</ele>
        <time>2018-02-20T13:03:43.000Z</time>
      </trkpt>
      <trkpt lat="43.52547" lon="5.5416">
        <ele>294</ele>
        <time>2018-02-20T13:03:44.000Z</time>
      </trkpt>
      <trkpt lat="43.52547" lon="5.5416">
        <ele>294</ele>
        <time>2018-02-20T13:03:45.000Z</time>
      </trkpt>
      <trkpt lat="43.52547" lon="5.5416">
        <ele>294</ele>
        <time>2018-02-20T13:03:46.000Z</time>
      </trkpt>
      <trkpt lat="43.52547" lon="5.5416">
        <ele>294</ele>
        <time>2018-02-20T13:03:47.000Z</time>
      </trkpt>
      <trkpt lat="43.52547" lon="5.5416">
        <ele>294</ele>
        <time>2018-02-20T13:03:48.000Z</time>
      </trkpt>
      <trkpt lat="43.52547" lon="5.54159">
        <ele>294</ele>
        <time>2018-02-20T13:03:49.000Z</time>
      </trkpt>
      <trkpt lat="43.52547" lon="5.54159">
        <ele>294</ele>
        <time>2018-02-20T13:03:50.000Z</time>
      </trkpt>
      <trkpt lat="43.52547" lon="5.54159">
        <ele>294</ele>
        <time>2018-02-20T13:03:51.000Z</time>
      </trkpt>
      <trkpt lat="43.52547" lon="5.54159">
        <ele>294</ele>
        <time>2018-02-20T13:03:52.000Z</time>
      </trkpt>
      <trkpt lat="43.52547" lon="5.54159">
        <ele>294</ele>
        <time>2018-02-20T13:03:53.000Z</time>
      </trkpt>
      <trkpt lat="43.52547" lon="5.54159">
        <ele>294</ele>
        <time>2018-02-20T13:03:54.000Z</time>
      </trkpt>
      <trkpt lat="43.52547" lon="5.54159">
        <ele>294</ele>
        <time>2018-02-20T13:03:55.000Z</time>
      </trkpt>
      <trkpt lat="43.52547" lon="5.54159">
        <ele>294</ele>
        <time>2018-02-20T13:03:56.000Z</time>
      </trkpt>
      <trkpt lat="43.52547" lon="5.54159">
        <ele>294</ele>
        <time>2018-02-20T13:03:57.000Z</time>
      </trkpt>
      <trkpt lat="43.52547" lon="5.54159">
        <ele>294</ele>
        <time>2018-02-20T13:03:58.000Z</time>
      </trkpt>
      <trkpt lat="43.52547" lon="5.54159">
        <ele>294</ele>
        <time>2018-02-20T13:03:59.000Z</time>
      </trkpt>
      <trkpt lat="43.52547" lon="5.54159">
        <ele>294</ele>
        <time>2018-02-20T13:04:00.000Z</time>
      </trkpt>
      <trkpt lat="43.52547" lon="5.54159">
        <ele>294</ele>
        <time>2018-02-20T13:04:01.000Z</time>
      </trkpt>
      <trkpt lat="43.52547" lon="5.54159">
        <ele>294</ele>
        <time>2018-02-20T13:04:02.000Z</time>
      </trkpt>
      <trkpt lat="43.52547" lon="5.54159">
        <ele>294</ele>
        <time>2018-02-20T13:04:03.000Z</time>
      </trkpt>
      <trkpt lat="43.52547" lon="5.54159">
        <ele>294</ele>
        <time>2018-02-20T13:04:04.000Z</time>
      </trkpt>
      <trkpt lat="43.52547" lon="5.54159">
        <ele>294</ele>
        <time>2018-02-20T13:04:05.000Z</time>
      </trkpt>
      <trkpt lat="43.52547" lon="5.54159">
        <ele>294</ele>
        <time>2018-02-20T13:04:06.000Z</time>
      </trkpt>
      <trkpt lat="43.52547" lon="5.54159">
        <ele>294</ele>
        <time>2018-02-20T13:04:07.000Z</time>
      </trkpt>
      <trkpt lat="43.52547" lon="5.54159">
        <ele>294</ele>
        <time>2018-02-20T13:04:08.000Z</time>
      </trkpt>
      <trkpt lat="43.52547" lon="5.54159">
        <ele>294</ele>
        <time>2018-02-20T13:04:09.000Z</time>
      </trkpt>
      <trkpt lat="43.52547" lon="5.54159">
        <ele>294</ele>
        <time>2018-02-20T13:04:10.000Z</time>
      </trkpt>
      <trkpt lat="43.52547" lon="5.54159">
        <ele>294</ele>
        <time>2018-02-20T13:04:11.000Z</time>
      </trkpt>
      <trkpt lat="43.52547" lon="5.54159">
        <ele>294</ele>
        <time>2018-02-20T13:04:12.000Z</time>
      </trkpt>
      <trkpt lat="43.52547" lon="5.54159">
        <ele>294</ele>
        <time>2018-02-20T13:04:13.000Z</time>
      </trkpt>
      <trkpt lat="43.52547" lon="5.54159">
        <ele>294</ele>
        <time>2018-02-20T13:04:14.000Z</time>
      </trkpt>
      <trkpt lat="43.52547" lon="5.54159">
        <ele>294</ele>
        <time>2018-02-20T13:04:15.000Z</time>
      </trkpt>
      <trkpt lat="43.52548" lon="5.54159">
        <ele>294</ele>
        <time>2018-02-20T13:04:16.000Z</time>
      </trkpt>
      <trkpt lat="43.52548" lon="5.54159">
        <ele>294</ele>
        <time>2018-02-20T13:04:17.000Z</time>
      </trkpt>
      <trkpt lat="43.52548" lon="5.54159">
        <ele>294</ele>
        <time>2018-02-20T13:04:18.000Z</time>
      </trkpt>
      <trkpt lat="43.52548" lon="5.54159">
        <ele>294</ele>
        <time>2018-02-20T13:04:19.000Z</time>
      </trkpt>
      <trkpt lat="43.52548" lon="5.54159">
        <ele>294</ele>
        <time>2018-02-20T13:04:20.000Z</time>
      </trkpt>
      <trkpt lat="43.52548" lon="5.54159">
        <ele>294</ele>
        <time>2018-02-20T13:04:21.000Z</time>
      </trkpt>
      <trkpt lat="43.52548" lon="5.54159">
        <ele>294</ele>
        <time>2018-02-20T13:04:22.000Z</time>
      </trkpt>
      <trkpt lat="43.52547" lon="5.54159">
        <ele>294</ele>
        <time>2018-02-20T13:04:23.000Z</time>
      </trkpt>
      <trkpt lat="43.52547" lon="5.54159">
        <ele>294</ele>
        <time>2018-02-20T13:04:24.000Z</time>
      </trkpt>
      <trkpt lat="43.52547" lon="5.54159">
        <ele>294</ele>
        <time>2018-02-20T13:04:25.000Z</time>
      </trkpt>
      <trkpt lat="43.52547" lon="5.54159">
        <ele>294</ele>
        <time>2018-02-20T13:04:26.000Z</time>
      </trkpt>
      <trkpt lat="43.52547" lon="5.54159">
        <ele>294</ele>
        <time>2018-02-20T13:04:27.000Z</time>
      </trkpt>
      <trkpt lat="43.52547" lon="5.54159">
        <ele>294</ele>
        <time>2018-02-20T13:04:28.000Z</time>
      </trkpt>
      <trkpt lat="43.52547" lon="5.54159">
        <ele>294</ele>
        <time>2018-02-20T13:04:29.000Z</time>
      </trkpt>
      <trkpt lat="43.52547" lon="5.54159">
        <ele>294</ele>
        <time>2018-02-20T13:04:30.000Z</time>
      </trkpt>
      <trkpt lat="43.52547" lon="5.54159">
        <ele>294</ele>
        <time>2018-02-20T13:04:31.000Z</time>
      </trkpt>
      <trkpt lat="43.52547" lon="5.54159">
        <ele>294</ele>
        <time>2018-02-20T13:04:32.000Z</time>
      </trkpt>
      <trkpt lat="43.52547" lon="5.54159">
        <ele>294</ele>
        <time>2018-02-20T13:04:33.000Z</time>
      </trkpt>
      <trkpt lat="43.52547" lon="5.54158">
        <ele>294</ele>
        <time>2018-02-20T13:04:34.000Z</time>
      </trkpt>
      <trkpt lat="43.52547" lon="5.54158">
        <ele>294</ele>
        <time>2018-02-20T13:04:35.000Z</time>
      </trkpt>
      <trkpt lat="43.52547" lon="5.54158">
        <ele>294</ele>
        <time>2018-02-20T13:04:36.000Z</time>
      </trkpt>
      <trkpt lat="43.52547" lon="5.54158">
        <ele>294</ele>
        <time>2018-02-20T13:04:37.000Z</time>
      </trkpt>
      <trkpt lat="43.52547" lon="5.54158">
        <ele>294</ele>
        <time>2018-02-20T13:04:38.000Z</time>
      </trkpt>
      <trkpt lat="43.52547" lon="5.54158">
        <ele>294</ele>
        <time>2018-02-20T13:04:39.000Z</time>
      </trkpt>
      <trkpt lat="43.52547" lon="5.54158">
        <ele>294</ele>
        <time>2018-02-20T13:04:40.000Z</time>
      </trkpt>
      <trkpt lat="43.52547" lon="5.54158">
        <ele>294</ele>
        <time>2018-02-20T13:04:41.000Z</time>
      </trkpt>
      <trkpt lat="43.52546" lon="5.54158">
        <ele>294</ele>
        <time>2018-02-20T13:04:42.000Z</time>
      </trkpt>
      <trkpt lat="43.52546" lon="5.54158">
        <ele>294</ele>
        <time>2018-02-20T13:04:43.000Z</time>
      </trkpt>
      <trkpt lat="43.52546" lon="5.54158">
        <ele>294</ele>
        <time>2018-02-20T13:04:44.000Z</time>
      </trkpt>
      <trkpt lat="43.52547" lon="5.54158">
        <ele>294</ele>
        <time>2018-02-20T13:04:45.000Z</time>
      </trkpt>
      <trkpt lat="43.52547" lon="5.54158">
        <ele>294</ele>
        <time>2018-02-20T13:04:46.000Z</time>
      </trkpt>
      <trkpt lat="43.52547" lon="5.54158">
        <ele>294</ele>
        <time>2018-02-20T13:04:47.000Z</time>
      </trkpt>
      <trkpt lat="43.52547" lon="5.54158">
        <ele>294</ele>
        <time>2018-02-20T13:04:48.000Z</time>
      </trkpt>
      <trkpt lat="43.52547" lon="5.54158">
        <ele>294</ele>
        <time>2018-02-20T13:04:49.000Z</time>
      </trkpt>
      <trkpt lat="43.52547" lon="5.54158">
        <ele>294</ele>
        <time>2018-02-20T13:04:50.000Z</time>
      </trkpt>
      <trkpt lat="43.52547" lon="5.54158">
        <ele>294</ele>
        <time>2018-02-20T13:04:51.000Z</time>
      </trkpt>
      <trkpt lat="43.52547" lon="5.54157">
        <ele>294</ele>
        <time>2018-02-20T13:04:52.000Z</time>
      </trkpt>
      <trkpt lat="43.52547" lon="5.54157">
        <ele>294</ele>
        <time>2018-02-20T13:04:53.000Z</time>
      </trkpt>
      <trkpt lat="43.52546" lon="5.54157">
        <ele>294</ele>
        <time>2018-02-20T13:04:54.000Z</time>
      </trkpt>
      <trkpt lat="43.52546" lon="5.54156">
        <ele>294</ele>
        <time>2018-02-20T13:04:55.000Z</time>
      </trkpt>
      <trkpt lat="43.52546" lon="5.54155">
        <ele>295</ele>
        <time>2018-02-20T13:04:56.000Z</time>
      </trkpt>
      <trkpt lat="43.52546" lon="5.54154">
        <ele>295</ele>
        <time>2018-02-20T13:04:57.000Z</time>
      </trkpt>
      <trkpt lat="43.52546" lon="5.54154">
        <ele>295</ele>
        <time>2018-02-20T13:04:58.000Z</time>
      </trkpt>
      <trkpt lat="43.52546" lon="5.54153">
        <ele>295</ele>
        <time>2018-02-20T13:04:59.000Z</time>
      </trkpt>
      <trkpt lat="43.52546" lon="5.54152">
        <ele>295</ele>
        <time>2018-02-20T13:05:00.000Z</time>
      </trkpt>
      <trkpt lat="43.52546" lon="5.54151">
        <ele>295</ele>
        <time>2018-02-20T13:05:01.000Z</time>
      </trkpt>
      <trkpt lat="43.52546" lon="5.5415">
        <ele>295</ele>
        <time>2018-02-20T13:05:02.000Z</time>
      </trkpt>
      <trkpt lat="43.52547" lon="5.54149">
        <ele>295</ele>
        <time>2018-02-20T13:05:03.000Z</time>
      </trkpt>
      <trkpt lat="43.52548" lon="5.54149">
        <ele>295</ele>
        <time>2018-02-20T13:05:04.000Z</time>
      </trkpt>
      <trkpt lat="43.52548" lon="5.54149">
        <ele>295</ele>
        <time>2018-02-20T13:05:05.000Z</time>
      </trkpt>
      <trkpt lat="43.52549" lon="5.54148">
        <ele>295</ele>
        <time>2018-02-20T13:05:06.000Z</time>
      </trkpt>
      <trkpt lat="43.52551" lon="5.54148">
        <ele>295</ele>
        <time>2018-02-20T13:05:07.000Z</time>
      </trkpt>
      <trkpt lat="43.52551" lon="5.54148">
        <ele>295</ele>
        <time>2018-02-20T13:05:08.000Z</time>
      </trkpt>
      <trkpt lat="43.52552" lon="5.54148">
        <ele>295</ele>
        <time>2018-02-20T13:05:09.000Z</time>
      </trkpt>
      <trkpt lat="43.52554" lon="5.54148">
        <ele>295</ele>
        <time>2018-02-20T13:05:10.000Z</time>
      </trkpt>
      <trkpt lat="43.52555" lon="5.54148">
        <ele>295</ele>
        <time>2018-02-20T13:05:11.000Z</time>
      </trkpt>
      <trkpt lat="43.52556" lon="5.54147">
        <ele>295</ele>
        <time>2018-02-20T13:05:12.000Z</time>
      </trkpt>
      <trkpt lat="43.52556" lon="5.54147">
        <ele>295</ele>
        <time>2018-02-20T13:05:13.000Z</time>
      </trkpt>
      <trkpt lat="43.52557" lon="5.54146">
        <ele>295</ele>
        <time>2018-02-20T13:05:14.000Z</time>
      </trkpt>
      <trkpt lat="43.52558" lon="5.54146">
        <ele>295</ele>
        <time>2018-02-20T13:05:15.000Z</time>
      </trkpt>
      <trkpt lat="43.52559" lon="5.54145">
        <ele>296</ele>
        <time>2018-02-20T13:05:16.000Z</time>
      </trkpt>
      <trkpt lat="43.5256" lon="5.54144">
        <ele>296</ele>
        <time>2018-02-20T13:05:17.000Z</time>
      </trkpt>
      <trkpt lat="43.5256" lon="5.54143">
        <ele>296</ele>
        <time>2018-02-20T13:05:18.000Z</time>
      </trkpt>
      <trkpt lat="43.52561" lon="5.54142">
        <ele>296</ele>
        <time>2018-02-20T13:05:19.000Z</time>
      </trkpt>
      <trkpt lat="43.52561" lon="5.54141">
        <ele>296</ele>
        <time>2018-02-20T13:05:20.000Z</time>
      </trkpt>
      <trkpt lat="43.52562" lon="5.5414">
        <ele>296</ele>
        <time>2018-02-20T13:05:21.000Z</time>
      </trkpt>
      <trkpt lat="43.52562" lon="5.54139">
        <ele>296</ele>
        <time>2018-02-20T13:05:22.000Z</time>
      </trkpt>
      <trkpt lat="43.52563" lon="5.54138">
        <ele>296</ele>
        <time>2018-02-20T13:05:23.000Z</time>
      </trkpt>
      <trkpt lat="43.52563" lon="5.54137">
        <ele>296</ele>
        <time>2018-02-20T13:05:24.000Z</time>
      </trkpt>
      <trkpt lat="43.52564" lon="5.54137">
        <ele>296</ele>
        <time>2018-02-20T13:05:25.000Z</time>
      </trkpt>
      <trkpt lat="43.52565" lon="5.54136">
        <ele>296</ele>
        <time>2018-02-20T13:05:26.000Z</time>
      </trkpt>
      <trkpt lat="43.52566" lon="5.54134">
        <ele>296</ele>
        <time>2018-02-20T13:05:27.000Z</time>
      </trkpt>
      <trkpt lat="43.52566" lon="5.54133">
        <ele>296</ele>
        <time>2018-02-20T13:05:28.000Z</time>
      </trkpt>
      <trkpt lat="43.52567" lon="5.54132">
        <ele>297</ele>
        <time>2018-02-20T13:05:29.000Z</time>
      </trkpt>
      <trkpt lat="43.52567" lon="5.54131">
        <ele>297</ele>
        <time>2018-02-20T13:05:30.000Z</time>
      </trkpt>
      <trkpt lat="43.52568" lon="5.5413">
        <ele>297</ele>
        <time>2018-02-20T13:05:31.000Z</time>
      </trkpt>
      <trkpt lat="43.52568" lon="5.54128">
        <ele>297</ele>
        <time>2018-02-20T13:05:32.000Z</time>
      </trkpt>
      <trkpt lat="43.52569" lon="5.54127">
        <ele>297</ele>
        <time>2018-02-20T13:05:33.000Z</time>
      </trkpt>
      <trkpt lat="43.52569" lon="5.54126">
        <ele>297</ele>
        <time>2018-02-20T13:05:34.000Z</time>
      </trkpt>
      <trkpt lat="43.52569" lon="5.54125">
        <ele>297</ele>
        <time>2018-02-20T13:05:35.000Z</time>
      </trkpt>
      <trkpt lat="43.5257" lon="5.54124">
        <ele>297</ele>
        <time>2018-02-20T13:05:36.000Z</time>
      </trkpt>
      <trkpt lat="43.5257" lon="5.54122">
        <ele>297</ele>
        <time>2018-02-20T13:05:37.000Z</time>
      </trkpt>
      <trkpt lat="43.5257" lon="5.54121">
        <ele>297</ele>
        <time>2018-02-20T13:05:38.000Z</time>
      </trkpt>
      <trkpt lat="43.5257" lon="5.5412">
        <ele>297</ele>
        <time>2018-02-20T13:05:39.000Z</time>
      </trkpt>
      <trkpt lat="43.5257" lon="5.54119">
        <ele>297</ele>
        <time>2018-02-20T13:05:40.000Z</time>
      </trkpt>
      <trkpt lat="43.52571" lon="5.54118">
        <ele>297</ele>
        <time>2018-02-20T13:05:41.000Z</time>
      </trkpt>
      <trkpt lat="43.52571" lon="5.54117">
        <ele>297</ele>
        <time>2018-02-20T13:05:42.000Z</time>
      </trkpt>
      <trkpt lat="43.52572" lon="5.54116">
        <ele>297</ele>
        <time>2018-02-20T13:05:43.000Z</time>
      </trkpt>
      <trkpt lat="43.52572" lon="5.54115">
        <ele>297</ele>
        <time>2018-02-20T13:05:44.000Z</time>
      </trkpt>
      <trkpt lat="43.52573" lon="5.54114">
        <ele>297</ele>
        <time>2018-02-20T13:05:45.000Z</time>
      </trkpt>
      <trkpt lat="43.52573" lon="5.54113">
        <ele>297</ele>
        <time>2018-02-20T13:05:46.000Z</time>
      </trkpt>
      <trkpt lat="43.52574" lon="5.54112">
        <ele>297</ele>
        <time>2018-02-20T13:05:47.000Z</time>
      </trkpt>
      <trkpt lat="43.52574" lon="5.54111">
        <ele>297</ele>
        <time>2018-02-20T13:05:48.000Z</time>
      </trkpt>
      <trkpt lat="43.52575" lon="5.5411">
        <ele>297</ele>
        <time>2018-02-20T13:05:49.000Z</time>
      </trkpt>
      <trkpt lat="43.52575" lon="5.5411">
        <ele>297</ele>
        <time>2018-02-20T13:05:50.000Z</time>
      </trkpt>
      <trkpt lat="43.52575" lon="5.5411">
        <ele>297</ele>
        <time>2018-02-20T13:05:51.000Z</time>
      </trkpt>
      <trkpt lat="43.52575" lon="5.5411">
        <ele>297</ele>
        <time>2018-02-20T13:05:52.000Z</time>
      </trkpt>
      <trkpt lat="43.52575" lon="5.5411">
        <ele>297</ele>
        <time>2018-02-20T13:05:53.000Z</time>
      </trkpt>
      <trkpt lat="43.52575" lon="5.5411">
        <ele>297</ele>
        <time>2018-02-20T13:05:54.000Z</time>
      </trkpt>
      <trkpt lat="43.52575" lon="5.5411">
        <ele>297</ele>
        <time>2018-02-20T13:05:55.000Z</time>
      </trkpt>
      <trkpt lat="43.52575" lon="5.5411">
        <ele>297</ele>
        <time>2018-02-20T13:05:56.000Z</time>
      </trkpt>
      <trkpt lat="43.52575" lon="5.5411">
        <ele>296</ele>
        <time>2018-02-20T13:05:57.000Z</time>
      </trkpt>
      <trkpt lat="43.52575" lon="5.5411">
        <ele>296</ele>
        <time>2018-02-20T13:05:58.000Z</time>
      </trkpt>
      <trkpt lat="43.52575" lon="5.5411">
        <ele>296</ele>
        <time>2018-02-20T13:05:59.000Z</time>
      </trkpt>
      <trkpt lat="43.52575" lon="5.5411">
        <ele>296</ele>
        <time>2018-02-20T13:06:00.000Z</time>
      </trkpt>
      <trkpt lat="43.52575" lon="5.5411">
        <ele>296</ele>
        <time>2018-02-20T13:06:01.000Z</time>
      </trkpt>
      <trkpt lat="43.52575" lon="5.5411">
        <ele>296</ele>
        <time>2018-02-20T13:06:02.000Z</time>
      </trkpt>
      <trkpt lat="43.52575" lon="5.5411">
        <ele>296</ele>
        <time>2018-02-20T13:06:03.000Z</time>
      </trkpt>
      <trkpt lat="43.52575" lon="5.5411">
        <ele>296</ele>
        <time>2018-02-20T13:06:04.000Z</time>
      </trkpt>
      <trkpt lat="43.52575" lon="5.5411">
        <ele>296</ele>
        <time>2018-02-20T13:06:05.000Z</time>
      </trkpt>
      <trkpt lat="43.52575" lon="5.5411">
        <ele>296</ele>
        <time>2018-02-20T13:06:06.000Z</time>
      </trkpt>
      <trkpt lat="43.52575" lon="5.5411">
        <ele>296</ele>
        <time>2018-02-20T13:06:07.000Z</time>
      </trkpt>
      <trkpt lat="43.52575" lon="5.5411">
        <ele>296</ele>
        <time>2018-02-20T13:06:08.000Z</time>
      </trkpt>
      <trkpt lat="43.52575" lon="5.5411">
        <ele>296</ele>
        <time>2018-02-20T13:06:09.000Z</time>
      </trkpt>
      <trkpt lat="43.52575" lon="5.5411">
        <ele>296</ele>
        <time>2018-02-20T13:06:10.000Z</time>
      </trkpt>
      <trkpt lat="43.52575" lon="5.5411">
        <ele>296</ele>
        <time>2018-02-20T13:06:11.000Z</time>
      </trkpt>
      <trkpt lat="43.52575" lon="5.5411">
        <ele>296</ele>
        <time>2018-02-20T13:06:12.000Z</time>
      </trkpt>
      <trkpt lat="43.52575" lon="5.5411">
        <ele>296</ele>
        <time>2018-02-20T13:06:13.000Z</time>
      </trkpt>
      <trkpt lat="43.52575" lon="5.5411">
        <ele>296</ele>
        <time>2018-02-20T13:06:14.000Z</time>
      </trkpt>
      <trkpt lat="43.52575" lon="5.5411">
        <ele>296</ele>
        <time>2018-02-20T13:06:15.000Z</time>
      </trkpt>
      <trkpt lat="43.52575" lon="5.5411">
        <ele>296</ele>
        <time>2018-02-20T13:06:16.000Z</time>
      </trkpt>
      <trkpt lat="43.52575" lon="5.5411">
        <ele>296</ele>
        <time>2018-02-20T13:06:17.000Z</time>
      </trkpt>
      <trkpt lat="43.52575" lon="5.5411">
        <ele>296</ele>
        <time>2018-02-20T13:06:18.000Z</time>
      </trkpt>
      <trkpt lat="43.52575" lon="5.5411">
        <ele>296</ele>
        <time>2018-02-20T13:06:19.000Z</time>
      </trkpt>
      <trkpt lat="43.52575" lon="5.5411">
        <ele>296</ele>
        <time>2018-02-20T13:06:20.000Z</time>
      </trkpt>
      <trkpt lat="43.52575" lon="5.5411">
        <ele>296</ele>
        <time>2018-02-20T13:06:21.000Z</time>
      </trkpt>
      <trkpt lat="43.52575" lon="5.5411">
        <ele>296</ele>
        <time>2018-02-20T13:06:22.000Z</time>
      </trkpt>
      <trkpt lat="43.52575" lon="5.5411">
        <ele>296</ele>
        <time>2018-02-20T13:06:23.000Z</time>
      </trkpt>
      <trkpt lat="43.52575" lon="5.5411">
        <ele>296</ele>
        <time>2018-02-20T13:06:24.000Z</time>
      </trkpt>
      <trkpt lat="43.52575" lon="5.5411">
        <ele>296</ele>
        <time>2018-02-20T13:06:25.000Z</time>
      </trkpt>
      <trkpt lat="43.52575" lon="5.5411">
        <ele>296</ele>
        <time>2018-02-20T13:06:26.000Z</time>
      </trkpt>
      <trkpt lat="43.52576" lon="5.5411">
        <ele>296</ele>
        <time>2018-02-20T13:06:27.000Z</time>
      </trkpt>
      <trkpt lat="43.52576" lon="5.5411">
        <ele>296</ele>
        <time>2018-02-20T13:06:28.000Z</time>
      </trkpt>
      <trkpt lat="43.52576" lon="5.5411">
        <ele>296</ele>
        <time>2018-02-20T13:06:29.000Z</time>
      </trkpt>
      <trkpt lat="43.52576" lon="5.5411">
        <ele>296</ele>
        <time>2018-02-20T13:06:30.000Z</time>
      </trkpt>
      <trkpt lat="43.52576" lon="5.5411">
        <ele>296</ele>
        <time>2018-02-20T13:06:31.000Z</time>
      </trkpt>
      <trkpt lat="43.52576" lon="5.5411">
        <ele>296</ele>
        <time>2018-02-20T13:06:32.000Z</time>
      </trkpt>
      <trkpt lat="43.52576" lon="5.5411">
        <ele>296</ele>
        <time>2018-02-20T13:06:33.000Z</time>
      </trkpt>
      <trkpt lat="43.52575" lon="5.54111">
        <ele>296</ele>
        <time>2018-02-20T13:06:34.000Z</time>
      </trkpt>
      <trkpt lat="43.52575" lon="5.54111">
        <ele>296</ele>
        <time>2018-02-20T13:06:35.000Z</time>
      </trkpt>
      <trkpt lat="43.52574" lon="5.5411">
        <ele>296</ele>
        <time>2018-02-20T13:06:36.000Z</time>
      </trkpt>
      <trkpt lat="43.52573" lon="5.54109">
        <ele>296</ele>
        <time>2018-02-20T13:06:37.000Z</time>
      </trkpt>
      <trkpt lat="43.52572" lon="5.54109">
        <ele>296</ele>
        <time>2018-02-20T13:06:38.000Z</time>
      </trkpt>
      <trkpt lat="43.52571" lon="5.54109">
        <ele>296</ele>
        <time>2018-02-20T13:06:39.000Z</time>
      </trkpt>
      <trkpt lat="43.5257" lon="5.54109">
        <ele>296</ele>
        <time>2018-02-20T13:06:40.000Z</time>
      </trkpt>
      <trkpt lat="43.52569" lon="5.54108">
        <ele>296</ele>
        <time>2018-02-20T13:06:41.000Z</time>
      </trkpt>
      <trkpt lat="43.52568" lon="5.54107">
        <ele>296</ele>
        <time>2018-02-20T13:06:42.000Z</time>
      </trkpt>
      <trkpt lat="43.52567" lon="5.54107">
        <ele>296</ele>
        <time>2018-02-20T13:06:43.000Z</time>
      </trkpt>
      <trkpt lat="43.52567" lon="5.54106">
        <ele>296</ele>
        <time>2018-02-20T13:06:44.000Z</time>
      </trkpt>
      <trkpt lat="43.52566" lon="5.54105">
        <ele>296</ele>
        <time>2018-02-20T13:06:45.000Z</time>
      </trkpt>
      <trkpt lat="43.52565" lon="5.54104">
        <ele>296</ele>
        <time>2018-02-20T13:06:46.000Z</time>
      </trkpt>
      <trkpt lat="43.52564" lon="5.54104">
        <ele>296</ele>
        <time>2018-02-20T13:06:47.000Z</time>
      </trkpt>
      <trkpt lat="43.52563" lon="5.54103">
        <ele>296</ele>
        <time>2018-02-20T13:06:48.000Z</time>
      </trkpt>
      <trkpt lat="43.52563" lon="5.54102">
        <ele>296</ele>
        <time>2018-02-20T13:06:49.000Z</time>
      </trkpt>
      <trkpt lat="43.52562" lon="5.54101">
        <ele>296</ele>
        <time>2018-02-20T13:06:50.000Z</time>
      </trkpt>
      <trkpt lat="43.52562" lon="5.541">
        <ele>296</ele>
        <time>2018-02-20T13:06:51.000Z</time>
      </trkpt>
      <trkpt lat="43.52561" lon="5.54099">
        <ele>296</ele>
        <time>2018-02-20T13:06:52.000Z</time>
      </trkpt>
      <trkpt lat="43.5256" lon="5.54098">
        <ele>296</ele>
        <time>2018-02-20T13:06:53.000Z</time>
      </trkpt>
      <trkpt lat="43.5256" lon="5.54098">
        <ele>296</ele>
        <time>2018-02-20T13:06:54.000Z</time>
      </trkpt>
      <trkpt lat="43.52559" lon="5.54098">
        <ele>297</ele>
        <time>2018-02-20T13:06:55.000Z</time>
      </trkpt>
      <trkpt lat="43.52559" lon="5.54098">
        <ele>297</ele>
        <time>2018-02-20T13:06:56.000Z</time>
      </trkpt>
      <trkpt lat="43.52559" lon="5.54097">
        <ele>297</ele>
        <time>2018-02-20T13:06:57.000Z</time>
      </trkpt>
      <trkpt lat="43.52559" lon="5.54097">
        <ele>297</ele>
        <time>2018-02-20T13:06:58.000Z</time>
      </trkpt>
      <trkpt lat="43.52559" lon="5.54097">
        <ele>297</ele>
        <time>2018-02-20T13:06:59.000Z</time>
      </trkpt>
      <trkpt lat="43.52559" lon="5.54097">
        <ele>297</ele>
        <time>2018-02-20T13:07:00.000Z</time>
      </trkpt>
      <trkpt lat="43.52559" lon="5.54097">
        <ele>297</ele>
        <time>2018-02-20T13:07:01.000Z</time>
      </trkpt>
      <trkpt lat="43.52559" lon="5.54097">
        <ele>297</ele>
        <time>2018-02-20T13:07:02.000Z</time>
      </trkpt>
      <trkpt lat="43.52559" lon="5.54097">
        <ele>297</ele>
        <time>2018-02-20T13:07:03.000Z</time>
      </trkpt>
      <trkpt lat="43.52559" lon="5.54097">
        <ele>297</ele>
        <time>2018-02-20T13:07:04.000Z</time>
      </trkpt>
      <trkpt lat="43.52559" lon="5.54097">
        <ele>297</ele>
        <time>2018-02-20T13:07:05.000Z</time>
      </trkpt>
      <trkpt lat="43.52559" lon="5.54097">
        <ele>297</ele>
        <time>2018-02-20T13:07:06.000Z</time>
      </trkpt>
      <trkpt lat="43.52559" lon="5.54097">
        <ele>297</ele>
        <time>2018-02-20T13:07:07.000Z</time>
      </trkpt>
      <trkpt lat="43.52559" lon="5.54097">
        <ele>296</ele>
        <time>2018-02-20T13:07:08.000Z</time>
      </trkpt>
      <trkpt lat="43.52559" lon="5.54098">
        <ele>296</ele>
        <time>2018-02-20T13:07:09.000Z</time>
      </trkpt>
      <trkpt lat="43.52559" lon="5.54098">
        <ele>296</ele>
        <time>2018-02-20T13:07:10.000Z</time>
      </trkpt>
      <trkpt lat="43.52559" lon="5.54099">
        <ele>296</ele>
        <time>2018-02-20T13:07:11.000Z</time>
      </trkpt>
      <trkpt lat="43.52559" lon="5.54099">
        <ele>296</ele>
        <time>2018-02-20T13:07:12.000Z</time>
      </trkpt>
      <trkpt lat="43.5256" lon="5.541">
        <ele>296</ele>
        <time>2018-02-20T13:07:13.000Z</time>
      </trkpt>
      <trkpt lat="43.5256" lon="5.541">
        <ele>296</ele>
        <time>2018-02-20T13:07:14.000Z</time>
      </trkpt>
      <trkpt lat="43.52561" lon="5.54101">
        <ele>296</ele>
        <time>2018-02-20T13:07:15.000Z</time>
      </trkpt>
      <trkpt lat="43.52562" lon="5.54102">
        <ele>296</ele>
        <time>2018-02-20T13:07:16.000Z</time>
      </trkpt>
      <trkpt lat="43.52563" lon="5.54103">
        <ele>296</ele>
        <time>2018-02-20T13:07:17.000Z</time>
      </trkpt>
      <trkpt lat="43.52564" lon="5.54104">
        <ele>296</ele>
        <time>2018-02-20T13:07:18.000Z</time>
      </trkpt>
      <trkpt lat="43.52565" lon="5.54105">
        <ele>296</ele>
        <time>2018-02-20T13:07:19.000Z</time>
      </trkpt>
      <trkpt lat="43.52566" lon="5.54106">
        <ele>296</ele>
        <time>2018-02-20T13:07:20.000Z</time>
      </trkpt>
      <trkpt lat="43.52567" lon="5.54107">
        <ele>296</ele>
        <time>2018-02-20T13:07:21.000Z</time>
      </trkpt>
      <trkpt lat="43.52568" lon="5.54108">
        <ele>296</ele>
        <time>2018-02-20T13:07:22.000Z</time>
      </trkpt>
      <trkpt lat="43.52568" lon="5.54108">
        <ele>296</ele>
        <time>2018-02-20T13:07:23.000Z</time>
      </trkpt>
      <trkpt lat="43.52569" lon="5.54109">
        <ele>296</ele>
        <time>2018-02-20T13:07:24.000Z</time>
      </trkpt>
      <trkpt lat="43.5257" lon="5.54109">
        <ele>296</ele>
        <time>2018-02-20T13:07:25.000Z</time>
      </trkpt>
      <trkpt lat="43.52571" lon="5.5411">
        <ele>296</ele>
        <time>2018-02-20T13:07:26.000Z</time>
      </trkpt>
      <trkpt lat="43.52572" lon="5.5411">
        <ele>296</ele>
        <time>2018-02-20T13:07:27.000Z</time>
      </trkpt>
      <trkpt lat="43.52573" lon="5.54111">
        <ele>296</ele>
        <time>2018-02-20T13:07:28.000Z</time>
      </trkpt>
      <trkpt lat="43.52573" lon="5.54111">
        <ele>297</ele>
        <time>2018-02-20T13:07:29.000Z</time>
      </trkpt>
      <trkpt lat="43.52573" lon="5.54111">
        <ele>297</ele>
        <time>2018-02-20T13:07:30.000Z</time>
      </trkpt>
      <trkpt lat="43.52573" lon="5.5411">
        <ele>297</ele>
        <time>2018-02-20T13:07:31.000Z</time>
      </trkpt>
      <trkpt lat="43.52574" lon="5.54109">
        <ele>297</ele>
        <time>2018-02-20T13:07:32.000Z</time>
      </trkpt>
      <trkpt lat="43.52574" lon="5.54109">
        <ele>297</ele>
        <time>2018-02-20T13:07:33.000Z</time>
      </trkpt>
      <trkpt lat="43.52574" lon="5.54109">
        <ele>297</ele>
        <time>2018-02-20T13:07:34.000Z</time>
      </trkpt>
      <trkpt lat="43.52574" lon="5.54109">
        <ele>298</ele>
        <time>2018-02-20T13:07:35.000Z</time>
      </trkpt>
      <trkpt lat="43.52574" lon="5.54109">
        <ele>298</ele>
        <time>2018-02-20T13:07:36.000Z</time>
      </trkpt>
      <trkpt lat="43.52574" lon="5.54109">
        <ele>298</ele>
        <time>2018-02-20T13:07:37.000Z</time>
      </trkpt>
      <trkpt lat="43.52574" lon="5.54109">
        <ele>298</ele>
        <time>2018-02-20T13:07:38.000Z</time>
      </trkpt>
      <trkpt lat="43.52574" lon="5.5411">
        <ele>298</ele>
        <time>2018-02-20T13:07:39.000Z</time>
      </trkpt>
      <trkpt lat="43.52575" lon="5.5411">
        <ele>298</ele>
        <time>2018-02-20T13:07:40.000Z</time>
      </trkpt>
      <trkpt lat="43.52576" lon="5.5411">
        <ele>298</ele>
        <time>2018-02-20T13:07:41.000Z</time>
      </trkpt>
      <trkpt lat="43.52576" lon="5.54111">
        <ele>297</ele>
        <time>2018-02-20T13:07:42.000Z</time>
      </trkpt>
      <trkpt lat="43.52577" lon="5.54111">
        <ele>297</ele>
        <time>2018-02-20T13:07:43.000Z</time>
      </trkpt>
      <trkpt lat="43.52577" lon="5.54112">
        <ele>297</ele>
        <time>2018-02-20T13:07:44.000Z</time>
      </trkpt>
      <trkpt lat="43.52578" lon="5.54113">
        <ele>297</ele>
        <time>2018-02-20T13:07:45.000Z</time>
      </trkpt>
      <trkpt lat="43.52578" lon="5.54113">
        <ele>297</ele>
        <time>2018-02-20T13:07:46.000Z</time>
      </trkpt>
      <trkpt lat="43.52579" lon="5.54114">
        <ele>297</ele>
        <time>2018-02-20T13:07:47.000Z</time>
      </trkpt>
      <trkpt lat="43.5258" lon="5.54113">
        <ele>297</ele>
        <time>2018-02-20T13:07:48.000Z</time>
      </trkpt>
      <trkpt lat="43.5258" lon="5.54113">
        <ele>297</ele>
        <time>2018-02-20T13:07:49.000Z</time>
      </trkpt>
      <trkpt lat="43.52581" lon="5.54113">
        <ele>297</ele>
        <time>2018-02-20T13:07:50.000Z</time>
      </trkpt>
      <trkpt lat="43.52581" lon="5.54113">
        <ele>297</ele>
        <time>2018-02-20T13:07:51.000Z</time>
      </trkpt>
      <trkpt lat="43.52582" lon="5.54113">
        <ele>297</ele>
        <time>2018-02-20T13:07:52.000Z</time>
      </trkpt>
      <trkpt lat="43.52582" lon="5.54113">
        <ele>297</ele>
        <time>2018-02-20T13:07:53.000Z</time>
      </trkpt>
      <trkpt lat="43.52583" lon="5.54112">
        <ele>297</ele>
        <time>2018-02-20T13:07:54.000Z</time>
      </trkpt>
      <trkpt lat="43.52583" lon="5.54112">
        <ele>297</ele>
        <time>2018-02-20T13:07:55.000Z</time>
      </trkpt>
      <trkpt lat="43.52584" lon="5.54112">
        <ele>297</ele>
        <time>2018-02-20T13:07:56.000Z</time>
      </trkpt>
      <trkpt lat="43.52584" lon="5.54112">
        <ele>297</ele>
        <time>2018-02-20T13:07:57.000Z</time>
      </trkpt>
      <trkpt lat="43.52585" lon="5.54112">
        <ele>297</ele>
        <time>2018-02-20T13:07:58.000Z</time>
      </trkpt>
      <trkpt lat="43.52586" lon="5.54112">
        <ele>297</ele>
        <time>2018-02-20T13:07:59.000Z</time>
      </trkpt>
      <trkpt lat="43.52587" lon="5.54113">
        <ele>297</ele>
        <time>2018-02-20T13:08:00.000Z</time>
      </trkpt>
      <trkpt lat="43.52588" lon="5.54113">
        <ele>297</ele>
        <time>2018-02-20T13:08:01.000Z</time>
      </trkpt>
      <trkpt lat="43.52589" lon="5.54112">
        <ele>297</ele>
        <time>2018-02-20T13:08:02.000Z</time>
      </trkpt>
      <trkpt lat="43.5259" lon="5.54112">
        <ele>297</ele>
        <time>2018-02-20T13:08:03.000Z</time>
      </trkpt>
      <trkpt lat="43.52591" lon="5.54112">
        <ele>298</ele>
        <time>2018-02-20T13:08:04.000Z</time>
      </trkpt>
      <trkpt lat="43.52591" lon="5.54112">
        <ele>298</ele>
        <time>2018-02-20T13:08:05.000Z</time>
      </trkpt>
      <trkpt lat="43.52592" lon="5.54112">
        <ele>298</ele>
        <time>2018-02-20T13:08:06.000Z</time>
      </trkpt>
      <trkpt lat="43.52593" lon="5.54112">
        <ele>298</ele>
        <time>2018-02-20T13:08:07.000Z</time>
      </trkpt>
      <trkpt lat="43.52594" lon="5.54112">
        <ele>298</ele>
        <time>2018-02-20T13:08:08.000Z</time>
      </trkpt>
      <trkpt lat="43.52594" lon="5.54112">
        <ele>298</ele>
        <time>2018-02-20T13:08:09.000Z</time>
      </trkpt>
      <trkpt lat="43.52595" lon="5.54112">
        <ele>298</ele>
        <time>2018-02-20T13:08:10.000Z</time>
      </trkpt>
      <trkpt lat="43.52595" lon="5.54112">
        <ele>299</ele>
        <time>2018-02-20T13:08:11.000Z</time>
      </trkpt>
      <trkpt lat="43.52595" lon="5.54112">
        <ele>299</ele>
        <time>2018-02-20T13:08:12.000Z</time>
      </trkpt>
      <trkpt lat="43.52595" lon="5.54112">
        <ele>299</ele>
        <time>2018-02-20T13:08:13.000Z</time>
      </trkpt>
      <trkpt lat="43.52595" lon="5.54112">
        <ele>299</ele>
        <time>2018-02-20T13:08:14.000Z</time>
      </trkpt>
      <trkpt lat="43.52595" lon="5.54113">
        <ele>299</ele>
        <time>2018-02-20T13:08:15.000Z</time>
      </trkpt>
      <trkpt lat="43.52595" lon="5.54113">
        <ele>299</ele>
        <time>2018-02-20T13:08:16.000Z</time>
      </trkpt>
      <trkpt lat="43.52596" lon="5.54112">
        <ele>300</ele>
        <time>2018-02-20T13:08:17.000Z</time>
      </trkpt>
      <trkpt lat="43.52596" lon="5.54112">
        <ele>300</ele>
        <time>2018-02-20T13:08:18.000Z</time>
      </trkpt>
      <trkpt lat="43.52596" lon="5.54112">
        <ele>300</ele>
        <time>2018-02-20T13:08:19.000Z</time>
      </trkpt>
      <trkpt lat="43.52596" lon="5.54112">
        <ele>301</ele>
        <time>2018-02-20T13:08:20.000Z</time>
      </trkpt>
      <trkpt lat="43.52597" lon="5.54112">
        <ele>301</ele>
        <time>2018-02-20T13:08:21.000Z</time>
      </trkpt>
      <trkpt lat="43.52597" lon="5.54112">
        <ele>301</ele>
        <time>2018-02-20T13:08:22.000Z</time>
      </trkpt>
      <trkpt lat="43.52598" lon="5.54111">
        <ele>301</ele>
        <time>2018-02-20T13:08:23.000Z</time>
      </trkpt>
      <trkpt lat="43.52598" lon="5.54111">
        <ele>302</ele>
        <time>2018-02-20T13:08:24.000Z</time>
      </trkpt>
      <trkpt lat="43.52599" lon="5.54111">
        <ele>302</ele>
        <time>2018-02-20T13:08:25.000Z</time>
      </trkpt>
      <trkpt lat="43.52599" lon="5.54111">
        <ele>302</ele>
        <time>2018-02-20T13:08:26.000Z</time>
      </trkpt>
      <trkpt lat="43.52599" lon="5.54111">
        <ele>303</ele>
        <time>2018-02-20T13:08:27.000Z</time>
      </trkpt>
      <trkpt lat="43.52599" lon="5.5411">
        <ele>303</ele>
        <time>2018-02-20T13:08:28.000Z</time>
      </trkpt>
      <trkpt lat="43.52599" lon="5.5411">
        <ele>304</ele>
        <time>2018-02-20T13:08:29.000Z</time>
      </trkpt>
      <trkpt lat="43.52599" lon="5.5411">
        <ele>304</ele>
        <time>2018-02-20T13:08:30.000Z</time>
      </trkpt>
      <trkpt lat="43.52599" lon="5.54109">
        <ele>304</ele>
        <time>2018-02-20T13:08:31.000Z</time>
      </trkpt>
      <trkpt lat="43.52599" lon="5.54109">
        <ele>305</ele>
        <time>2018-02-20T13:08:32.000Z</time>
      </trkpt>
      <trkpt lat="43.52598" lon="5.54108">
        <ele>305</ele>
        <time>2018-02-20T13:08:33.000Z</time>
      </trkpt>
      <trkpt lat="43.52598" lon="5.54108">
        <ele>306</ele>
        <time>2018-02-20T13:08:34.000Z</time>
      </trkpt>
      <trkpt lat="43.52599" lon="5.54107">
        <ele>306</ele>
        <time>2018-02-20T13:08:35.000Z</time>
      </trkpt>
      <trkpt lat="43.52599" lon="5.54107">
        <ele>306</ele>
        <time>2018-02-20T13:08:36.000Z</time>
      </trkpt>
      <trkpt lat="43.52599" lon="5.54106">
        <ele>307</ele>
        <time>2018-02-20T13:08:37.000Z</time>
      </trkpt>
      <trkpt lat="43.52599" lon="5.54105">
        <ele>307</ele>
        <time>2018-02-20T13:08:38.000Z</time>
      </trkpt>
      <trkpt lat="43.52599" lon="5.54104">
        <ele>307</ele>
        <time>2018-02-20T13:08:39.000Z</time>
      </trkpt>
      <trkpt lat="43.526" lon="5.54103">
        <ele>308</ele>
        <time>2018-02-20T13:08:40.000Z</time>
      </trkpt>
      <trkpt lat="43.52601" lon="5.54101">
        <ele>308</ele>
        <time>2018-02-20T13:08:41.000Z</time>
      </trkpt>
      <trkpt lat="43.52601" lon="5.541">
        <ele>308</ele>
        <time>2018-02-20T13:08:42.000Z</time>
      </trkpt>
      <trkpt lat="43.52602" lon="5.541">
        <ele>308</ele>
        <time>2018-02-20T13:08:43.000Z</time>
      </trkpt>
      <trkpt lat="43.52602" lon="5.541">
        <ele>309</ele>
        <time>2018-02-20T13:08:44.000Z</time>
      </trkpt>
      <trkpt lat="43.52603" lon="5.541">
        <ele>309</ele>
        <time>2018-02-20T13:08:45.000Z</time>
      </trkpt>
      <trkpt lat="43.52603" lon="5.541">
        <ele>309</ele>
        <time>2018-02-20T13:08:46.000Z</time>
      </trkpt>
      <trkpt lat="43.52603" lon="5.541">
        <ele>309</ele>
        <time>2018-02-20T13:08:47.000Z</time>
      </trkpt>
      <trkpt lat="43.52603" lon="5.541">
        <ele>309</ele>
        <time>2018-02-20T13:08:48.000Z</time>
      </trkpt>
      <trkpt lat="43.52604" lon="5.541">
        <ele>309</ele>
        <time>2018-02-20T13:08:49.000Z</time>
      </trkpt>
      <trkpt lat="43.52604" lon="5.541">
        <ele>309</ele>
        <time>2018-02-20T13:08:50.000Z</time>
      </trkpt>
      <trkpt lat="43.52604" lon="5.541">
        <ele>310</ele>
        <time>2018-02-20T13:08:51.000Z</time>
      </trkpt>
      <trkpt lat="43.52605" lon="5.541">
        <ele>310</ele>
        <time>2018-02-20T13:08:52.000Z</time>
      </trkpt>
      <trkpt lat="43.52605" lon="5.541">
        <ele>310</ele>
        <time>2018-02-20T13:08:53.000Z</time>
      </trkpt>
      <trkpt lat="43.52605" lon="5.541">
        <ele>310</ele>
        <time>2018-02-20T13:08:54.000Z</time>
      </trkpt>
      <trkpt lat="43.52605" lon="5.54101">
        <ele>310</ele>
        <time>2018-02-20T13:08:55.000Z</time>
      </trkpt>
      <trkpt lat="43.52606" lon="5.54101">
        <ele>310</ele>
        <time>2018-02-20T13:08:56.000Z</time>
      </trkpt>
      <trkpt lat="43.52606" lon="5.54101">
        <ele>310</ele>
        <time>2018-02-20T13:08:57.000Z</time>
      </trkpt>
      <trkpt lat="43.52606" lon="5.54101">
        <ele>310</ele>
        <time>2018-02-20T13:08:58.000Z</time>
      </trkpt>
      <trkpt lat="43.52606" lon="5.54102">
        <ele>310</ele>
        <time>2018-02-20T13:08:59.000Z</time>
      </trkpt>
      <trkpt lat="43.52606" lon="5.54102">
        <ele>310</ele>
        <time>2018-02-20T13:09:00.000Z</time>
      </trkpt>
      <trkpt lat="43.52606" lon="5.54102">
        <ele>310</ele>
        <time>2018-02-20T13:09:01.000Z</time>
      </trkpt>
      <trkpt lat="43.52606" lon="5.54102">
        <ele>310</ele>
        <time>2018-02-20T13:09:02.000Z</time>
      </trkpt>
      <trkpt lat="43.52606" lon="5.54103">
        <ele>310</ele>
        <time>2018-02-20T13:09:03.000Z</time>
      </trkpt>
      <trkpt lat="43.52606" lon="5.54103">
        <ele>310</ele>
        <time>2018-02-20T13:09:04.000Z</time>
      </trkpt>
      <trkpt lat="43.52605" lon="5.54104">
        <ele>310</ele>
        <time>2018-02-20T13:09:05.000Z</time>
      </trkpt>
      <trkpt lat="43.52605" lon="5.54104">
        <ele>311</ele>
        <time>2018-02-20T13:09:06.000Z</time>
      </trkpt>
      <trkpt lat="43.52605" lon="5.54104">
        <ele>311</ele>
        <time>2018-02-20T13:09:07.000Z</time>
      </trkpt>
      <trkpt lat="43.52605" lon="5.54105">
        <ele>311</ele>
        <time>2018-02-20T13:09:08.000Z</time>
      </trkpt>
      <trkpt lat="43.52605" lon="5.54105">
        <ele>311</ele>
        <time>2018-02-20T13:09:09.000Z</time>
      </trkpt>
      <trkpt lat="43.52605" lon="5.54105">
        <ele>311</ele>
        <time>2018-02-20T13:09:10.000Z</time>
      </trkpt>
      <trkpt lat="43.52605" lon="5.54105">
        <ele>311</ele>
        <time>2018-02-20T13:09:11.000Z</time>
      </trkpt>
      <trkpt lat="43.52605" lon="5.54105">
        <ele>311</ele>
        <time>2018-02-20T13:09:12.000Z</time>
      </trkpt>
      <trkpt lat="43.52605" lon="5.54106">
        <ele>311</ele>
        <time>2018-02-20T13:09:13.000Z</time>
      </trkpt>
      <trkpt lat="43.52605" lon="5.54106">
        <ele>311</ele>
        <time>2018-02-20T13:09:14.000Z</time>
      </trkpt>
      <trkpt lat="43.52605" lon="5.54106">
        <ele>311</ele>
        <time>2018-02-20T13:09:15.000Z</time>
      </trkpt>
      <trkpt lat="43.52606" lon="5.54106">
        <ele>311</ele>
        <time>2018-02-20T13:09:16.000Z</time>
      </trkpt>
      <trkpt lat="43.52606" lon="5.54107">
        <ele>311</ele>
        <time>2018-02-20T13:09:17.000Z</time>
      </trkpt>
      <trkpt lat="43.52606" lon="5.54107">
        <ele>311</ele>
        <time>2018-02-20T13:09:18.000Z</time>
      </trkpt>
      <trkpt lat="43.52606" lon="5.54107">
        <ele>311</ele>
        <time>2018-02-20T13:09:19.000Z</time>
      </trkpt>
      <trkpt lat="43.52606" lon="5.54107">
        <ele>311</ele>
        <time>2018-02-20T13:09:20.000Z</time>
      </trkpt>
      <trkpt lat="43.52606" lon="5.54107">
        <ele>311</ele>
        <time>2018-02-20T13:09:21.000Z</time>
      </trkpt>
      <trkpt lat="43.52606" lon="5.54107">
        <ele>311</ele>
        <time>2018-02-20T13:09:22.000Z</time>
      </trkpt>
      <trkpt lat="43.52606" lon="5.54107">
        <ele>311</ele>
        <time>2018-02-20T13:09:23.000Z</time>
      </trkpt>
      <trkpt lat="43.52606" lon="5.54107">
        <ele>311</ele>
        <time>2018-02-20T13:09:24.000Z</time>
      </trkpt>
      <trkpt lat="43.52607" lon="5.54107">
        <ele>311</ele>
        <time>2018-02-20T13:09:25.000Z</time>
      </trkpt>
      <trkpt lat="43.52607" lon="5.54108">
        <ele>311</ele>
        <time>2018-02-20T13:09:26.000Z</time>
      </trkpt>
      <trkpt lat="43.52607" lon="5.54108">
        <ele>311</ele>
        <time>2018-02-20T13:09:27.000Z</time>
      </trkpt>
      <trkpt lat="43.52607" lon="5.54108">
        <ele>311</ele>
        <time>2018-02-20T13:09:28.000Z</time>
      </trkpt>
      <trkpt lat="43.52607" lon="5.54108">
        <ele>311</ele>
        <time>2018-02-20T13:09:29.000Z</time>
      </trkpt>
      <trkpt lat="43.52607" lon="5.54108">
        <ele>311</ele>
        <time>2018-02-20T13:09:30.000Z</time>
      </trkpt>
      <trkpt lat="43.52607" lon="5.54108">
        <ele>311</ele>
        <time>2018-02-20T13:09:31.000Z</time>
      </trkpt>
      <trkpt lat="43.52607" lon="5.54108">
        <ele>311</ele>
        <time>2018-02-20T13:09:32.000Z</time>
      </trkpt>
      <trkpt lat="43.52607" lon="5.54108">
        <ele>311</ele>
        <time>2018-02-20T13:09:33.000Z</time>
      </trkpt>
      <trkpt lat="43.52607" lon="5.54108">
        <ele>311</ele>
        <time>2018-02-20T13:09:34.000Z</time>
      </trkpt>
      <trkpt lat="43.52607" lon="5.54108">
        <ele>311</ele>
        <time>2018-02-20T13:09:35.000Z</time>
      </trkpt>
      <trkpt lat="43.52607" lon="5.54108">
        <ele>311</ele>
        <time>2018-02-20T13:09:36.000Z</time>
      </trkpt>
      <trkpt lat="43.52607" lon="5.54108">
        <ele>311</ele>
        <time>2018-02-20T13:09:37.000Z</time>
      </trkpt>
      <trkpt lat="43.52607" lon="5.54108">
        <ele>311</ele>
        <time>2018-02-20T13:09:38.000Z</time>
      </trkpt>
      <trkpt lat="43.52607" lon="5.54109">
        <ele>311</ele>
        <time>2018-02-20T13:09:39.000Z</time>
      </trkpt>
      <trkpt lat="43.52607" lon="5.5411">
        <ele>311</ele>
        <time>2018-02-20T13:09:40.000Z</time>
      </trkpt>
      <trkpt lat="43.52608" lon="5.54111">
        <ele>311</ele>
        <time>2018-02-20T13:09:41.000Z</time>
      </trkpt>
      <trkpt lat="43.52608" lon="5.54112">
        <ele>311</ele>
        <time>2018-02-20T13:09:42.000Z</time>
      </trkpt>
      <trkpt lat="43.52608" lon="5.54113">
        <ele>311</ele>
        <time>2018-02-20T13:09:43.000Z</time>
      </trkpt>
      <trkpt lat="43.52608" lon="5.54114">
        <ele>311</ele>
        <time>2018-02-20T13:09:44.000Z</time>
      </trkpt>
      <trkpt lat="43.52608" lon="5.54115">
        <ele>310</ele>
        <time>2018-02-20T13:09:45.000Z</time>
      </trkpt>
      <trkpt lat="43.52608" lon="5.54116">
        <ele>310</ele>
        <time>2018-02-20T13:09:46.000Z</time>
      </trkpt>
      <trkpt lat="43.52607" lon="5.54116">
        <ele>310</ele>
        <time>2018-02-20T13:09:47.000Z</time>
      </trkpt>
      <trkpt lat="43.52607" lon="5.54117">
        <ele>311</ele>
        <time>2018-02-20T13:09:48.000Z</time>
      </trkpt>
      <trkpt lat="43.52608" lon="5.54117">
        <ele>311</ele>
        <time>2018-02-20T13:09:49.000Z</time>
      </trkpt>
      <trkpt lat="43.52608" lon="5.54118">
        <ele>311</ele>
        <time>2018-02-20T13:09:50.000Z</time>
      </trkpt>
      <trkpt lat="43.52608" lon="5.54118">
        <ele>311</ele>
        <time>2018-02-20T13:09:51.000Z</time>
      </trkpt>
      <trkpt lat="43.52608" lon="5.54118">
        <ele>311</ele>
        <time>2018-02-20T13:09:52.000Z</time>
      </trkpt>
      <trkpt lat="43.52608" lon="5.54119">
        <ele>311</ele>
        <time>2018-02-20T13:09:53.000Z</time>
      </trkpt>
      <trkpt lat="43.52608" lon="5.54119">
        <ele>311</ele>
        <time>2018-02-20T13:09:54.000Z</time>
      </trkpt>
      <trkpt lat="43.52608" lon="5.54119">
        <ele>311</ele>
        <time>2018-02-20T13:09:55.000Z</time>
      </trkpt>
      <trkpt lat="43.52608" lon="5.54119">
        <ele>312</ele>
        <time>2018-02-20T13:09:56.000Z</time>
      </trkpt>
      <trkpt lat="43.52607" lon="5.5412">
        <ele>312</ele>
        <time>2018-02-20T13:09:57.000Z</time>
      </trkpt>
      <trkpt lat="43.52607" lon="5.5412">
        <ele>312</ele>
        <time>2018-02-20T13:09:58.000Z</time>
      </trkpt>
      <trkpt lat="43.52606" lon="5.5412">
        <ele>312</ele>
        <time>2018-02-20T13:09:59.000Z</time>
      </trkpt>
      <trkpt lat="43.52606" lon="5.5412">
        <ele>312</ele>
        <time>2018-02-20T13:10:00.000Z</time>
      </trkpt>
      <trkpt lat="43.52605" lon="5.54121">
        <ele>312</ele>
        <time>2018-02-20T13:10:01.000Z</time>
      </trkpt>
      <trkpt lat="43.52604" lon="5.54121">
        <ele>312</ele>
        <time>2018-02-20T13:10:02.000Z</time>
      </trkpt>
      <trkpt lat="43.52603" lon="5.54121">
        <ele>313</ele>
        <time>2018-02-20T13:10:03.000Z</time>
      </trkpt>
      <trkpt lat="43.52602" lon="5.54121">
        <ele>313</ele>
        <time>2018-02-20T13:10:04.000Z</time>
      </trkpt>
      <trkpt lat="43.52601" lon="5.54121">
        <ele>313</ele>
        <time>2018-02-20T13:10:05.000Z</time>
      </trkpt>
      <trkpt lat="43.526" lon="5.54121">
        <ele>313</ele>
        <time>2018-02-20T13:10:06.000Z</time>
      </trkpt>
      <trkpt lat="43.52599" lon="5.54121">
        <ele>313</ele>
        <time>2018-02-20T13:10:07.000Z</time>
      </trkpt>
      <trkpt lat="43.52598" lon="5.5412">
        <ele>313</ele>
        <time>2018-02-20T13:10:08.000Z</time>
      </trkpt>
      <trkpt lat="43.52597" lon="5.5412">
        <ele>313</ele>
        <time>2018-02-20T13:10:09.000Z</time>
      </trkpt>
      <trkpt lat="43.52597" lon="5.5412">
        <ele>313</ele>
        <time>2018-02-20T13:10:10.000Z</time>
      </trkpt>
      <trkpt lat="43.52596" lon="5.5412">
        <ele>313</ele>
        <time>2018-02-20T13:10:11.000Z</time>
      </trkpt>
      <trkpt lat="43.52595" lon="5.54119">
        <ele>313</ele>
        <time>2018-02-20T13:10:12.000Z</time>
      </trkpt>
      <trkpt lat="43.52593" lon="5.54119">
        <ele>313</ele>
        <time>2018-02-20T13:10:13.000Z</time>
      </trkpt>
      <trkpt lat="43.52592" lon="5.54119">
        <ele>313</ele>
        <time>2018-02-20T13:10:14.000Z</time>
      </trkpt>
      <trkpt lat="43.52591" lon="5.54118">
        <ele>312</ele>
        <time>2018-02-20T13:10:15.000Z</time>
      </trkpt>
      <trkpt lat="43.52589" lon="5.54118">
        <ele>312</ele>
        <time>2018-02-20T13:10:16.000Z</time>
      </trkpt>
      <trkpt lat="43.52588" lon="5.54117">
        <ele>312</ele>
        <time>2018-02-20T13:10:17.000Z</time>
      </trkpt>
      <trkpt lat="43.52587" lon="5.54116">
        <ele>312</ele>
        <time>2018-02-20T13:10:18.000Z</time>
      </trkpt>
      <trkpt lat="43.52586" lon="5.54116">
        <ele>312</ele>
        <time>2018-02-20T13:10:19.000Z</time>
      </trkpt>
      <trkpt lat="43.52584" lon="5.54116">
        <ele>311</ele>
        <time>2018-02-20T13:10:20.000Z</time>
      </trkpt>
      <trkpt lat="43.52584" lon="5.54116">
        <ele>311</ele>
        <time>2018-02-20T13:10:21.000Z</time>
      </trkpt>
      <trkpt lat="43.52584" lon="5.54116">
        <ele>311</ele>
        <time>2018-02-20T13:10:22.000Z</time>
      </trkpt>
      <trkpt lat="43.52583" lon="5.54117">
        <ele>311</ele>
        <time>2018-02-20T13:10:23.000Z</time>
      </trkpt>
      <trkpt lat="43.52582" lon="5.54117">
        <ele>311</ele>
        <time>2018-02-20T13:10:24.000Z</time>
      </trkpt>
      <trkpt lat="43.5258" lon="5.54116">
        <ele>310</ele>
        <time>2018-02-20T13:10:25.000Z</time>
      </trkpt>
      <trkpt lat="43.52579" lon="5.54115">
        <ele>310</ele>
        <time>2018-02-20T13:10:26.000Z</time>
      </trkpt>
      <trkpt lat="43.52579" lon="5.54114">
        <ele>310</ele>
        <time>2018-02-20T13:10:27.000Z</time>
      </trkpt>
      <trkpt lat="43.52578" lon="5.54114">
        <ele>310</ele>
        <time>2018-02-20T13:10:28.000Z</time>
      </trkpt>
      <trkpt lat="43.52578" lon="5.54114">
        <ele>309</ele>
        <time>2018-02-20T13:10:29.000Z</time>
      </trkpt>
      <trkpt lat="43.52578" lon="5.54114">
        <ele>309</ele>
        <time>2018-02-20T13:10:30.000Z</time>
      </trkpt>
      <trkpt lat="43.52579" lon="5.54114">
        <ele>309</ele>
        <time>2018-02-20T13:10:31.000Z</time>
      </trkpt>
      <trkpt lat="43.52579" lon="5.54113">
        <ele>309</ele>
        <time>2018-02-20T13:10:32.000Z</time>
      </trkpt>
      <trkpt lat="43.52578" lon="5.54113">
        <ele>309</ele>
        <time>2018-02-20T13:10:33.000Z</time>
      </trkpt>
      <trkpt lat="43.52578" lon="5.54113">
        <ele>308</ele>
        <time>2018-02-20T13:10:34.000Z</time>
      </trkpt>
      <trkpt lat="43.52578" lon="5.54114">
        <ele>308</ele>
        <time>2018-02-20T13:10:35.000Z</time>
      </trkpt>
      <trkpt lat="43.52577" lon="5.54115">
        <ele>308</ele>
        <time>2018-02-20T13:10:36.000Z</time>
      </trkpt>
      <trkpt lat="43.52576" lon="5.54115">
        <ele>307</ele>
        <time>2018-02-20T13:10:37.000Z</time>
      </trkpt>
      <trkpt lat="43.52575" lon="5.54114">
        <ele>307</ele>
        <time>2018-02-20T13:10:38.000Z</time>
      </trkpt>
      <trkpt lat="43.52574" lon="5.54113">
        <ele>307</ele>
        <time>2018-02-20T13:10:39.000Z</time>
      </trkpt>
      <trkpt lat="43.52574" lon="5.54113">
        <ele>306</ele>
        <time>2018-02-20T13:10:40.000Z</time>
      </trkpt>
      <trkpt lat="43.52573" lon="5.54113">
        <ele>306</ele>
        <time>2018-02-20T13:10:41.000Z</time>
      </trkpt>
      <trkpt lat="43.52572" lon="5.54112">
        <ele>305</ele>
        <time>2018-02-20T13:10:42.000Z</time>
      </trkpt>
      <trkpt lat="43.52571" lon="5.54112">
        <ele>305</ele>
        <time>2018-02-20T13:10:43.000Z</time>
      </trkpt>
      <trkpt lat="43.5257" lon="5.54111">
        <ele>305</ele>
        <time>2018-02-20T13:10:44.000Z</time>
      </trkpt>
      <trkpt lat="43.52569" lon="5.54111">
        <ele>304</ele>
        <time>2018-02-20T13:10:45.000Z</time>
      </trkpt>
      <trkpt lat="43.52568" lon="5.5411">
        <ele>304</ele>
        <time>2018-02-20T13:10:46.000Z</time>
      </trkpt>
      <trkpt lat="43.52567" lon="5.5411">
        <ele>304</ele>
        <time>2018-02-20T13:10:47.000Z</time>
      </trkpt>
      <trkpt lat="43.52565" lon="5.54109">
        <ele>303</ele>
        <time>2018-02-20T13:10:48.000Z</time>
      </trkpt>
      <trkpt lat="43.52564" lon="5.54108">
        <ele>303</ele>
        <time>2018-02-20T13:10:49.000Z</time>
      </trkpt>
      <trkpt lat="43.52564" lon="5.54108">
        <ele>303</ele>
        <time>2018-02-20T13:10:50.000Z</time>
      </trkpt>
      <trkpt lat="43.52564" lon="5.54107">
        <ele>302</ele>
        <time>2018-02-20T13:10:51.000Z</time>
      </trkpt>
      <trkpt lat="43.52563" lon="5.54107">
        <ele>302</ele>
        <time>2018-02-20T13:10:52.000Z</time>
      </trkpt>
      <trkpt lat="43.52563" lon="5.54106">
        <ele>302</ele>
        <time>2018-02-20T13:10:53.000Z</time>
      </trkpt>
      <trkpt lat="43.52562" lon="5.54104">
        <ele>302</ele>
        <time>2018-02-20T13:10:54.000Z</time>
      </trkpt>
      <trkpt lat="43.52561" lon="5.54104">
        <ele>302</ele>
        <time>2018-02-20T13:10:55.000Z</time>
      </trkpt>
      <trkpt lat="43.52561" lon="5.54103">
        <ele>302</ele>
        <time>2018-02-20T13:10:56.000Z</time>
      </trkpt>
      <trkpt lat="43.5256" lon="5.54102">
        <ele>302</ele>
        <time>2018-02-20T13:10:57.000Z</time>
      </trkpt>
      <trkpt lat="43.52559" lon="5.54101">
        <ele>301</ele>
        <time>2018-02-20T13:10:58.000Z</time>
      </trkpt>
      <trkpt lat="43.52558" lon="5.54099">
        <ele>301</ele>
        <time>2018-02-20T13:10:59.000Z</time>
      </trkpt>
      <trkpt lat="43.52558" lon="5.54098">
        <ele>301</ele>
        <time>2018-02-20T13:11:00.000Z</time>
      </trkpt>
      <trkpt lat="43.52557" lon="5.54097">
        <ele>301</ele>
        <time>2018-02-20T13:11:01.000Z</time>
      </trkpt>
      <trkpt lat="43.52557" lon="5.54095">
        <ele>301</ele>
        <time>2018-02-20T13:11:02.000Z</time>
      </trkpt>
      <trkpt lat="43.52556" lon="5.54094">
        <ele>301</ele>
        <time>2018-02-20T13:11:03.000Z</time>
      </trkpt>
      <trkpt lat="43.52556" lon="5.54092">
        <ele>301</ele>
        <time>2018-02-20T13:11:04.000Z</time>
      </trkpt>
      <trkpt lat="43.52556" lon="5.54092">
        <ele>300</ele>
        <time>2018-02-20T13:11:05.000Z</time>
      </trkpt>
      <trkpt lat="43.52556" lon="5.54091">
        <ele>300</ele>
        <time>2018-02-20T13:11:06.000Z</time>
      </trkpt>
      <trkpt lat="43.52556" lon="5.54091">
        <ele>300</ele>
        <time>2018-02-20T13:11:07.000Z</time>
      </trkpt>
      <trkpt lat="43.52556" lon="5.54091">
        <ele>300</ele>
        <time>2018-02-20T13:11:08.000Z</time>
      </trkpt>
      <trkpt lat="43.52556" lon="5.5409">
        <ele>300</ele>
        <time>2018-02-20T13:11:09.000Z</time>
      </trkpt>
      <trkpt lat="43.52556" lon="5.5409">
        <ele>300</ele>
        <time>2018-02-20T13:11:10.000Z</time>
      </trkpt>
      <trkpt lat="43.52556" lon="5.5409">
        <ele>300</ele>
        <time>2018-02-20T13:11:11.000Z</time>
      </trkpt>
      <trkpt lat="43.52555" lon="5.5409">
        <ele>300</ele>
        <time>2018-02-20T13:11:12.000Z</time>
      </trkpt>
      <trkpt lat="43.52555" lon="5.5409">
        <ele>299</ele>
        <time>2018-02-20T13:11:13.000Z</time>
      </trkpt>
      <trkpt lat="43.52555" lon="5.5409">
        <ele>299</ele>
        <time>2018-02-20T13:11:14.000Z</time>
      </trkpt>
      <trkpt lat="43.52555" lon="5.5409">
        <ele>299</ele>
        <time>2018-02-20T13:11:15.000Z</time>
      </trkpt>
      <trkpt lat="43.52555" lon="5.54089">
        <ele>299</ele>
        <time>2018-02-20T13:11:16.000Z</time>
      </trkpt>
      <trkpt lat="43.52555" lon="5.54089">
        <ele>299</ele>
        <time>2018-02-20T13:11:17.000Z</time>
      </trkpt>
      <trkpt lat="43.52555" lon="5.54089">
        <ele>299</ele>
        <time>2018-02-20T13:11:18.000Z</time>
      </trkpt>
      <trkpt lat="43.52555" lon="5.54089">
        <ele>299</ele>
        <time>2018-02-20T13:11:19.000Z</time>
      </trkpt>
      <trkpt lat="43.52555" lon="5.54089">
        <ele>299</ele>
        <time>2018-02-20T13:11:20.000Z</time>
      </trkpt>
      <trkpt lat="43.52555" lon="5.54089">
        <ele>299</ele>
        <time>2018-02-20T13:11:21.000Z</time>
      </trkpt>
      <trkpt lat="43.52555" lon="5.54089">
        <ele>299</ele>
        <time>2018-02-20T13:11:22.000Z</time>
      </trkpt>
      <trkpt lat="43.52555" lon="5.54089">
        <ele>298</ele>
        <time>2018-02-20T13:11:23.000Z</time>
      </trkpt>
      <trkpt lat="43.52555" lon="5.54089">
        <ele>298</ele>
        <time>2018-02-20T13:11:24.000Z</time>
      </trkpt>
      <trkpt lat="43.52555" lon="5.54089">
        <ele>298</ele>
        <time>2018-02-20T13:11:25.000Z</time>
      </trkpt>
      <trkpt lat="43.52555" lon="5.54089">
        <ele>298</ele>
        <time>2018-02-20T13:11:26.000Z</time>
      </trkpt>
      <trkpt lat="43.52555" lon="5.54088">
        <ele>298</ele>
        <time>2018-02-20T13:11:27.000Z</time>
      </trkpt>
      <trkpt lat="43.52555" lon="5.54088">
        <ele>298</ele>
        <time>2018-02-20T13:11:28.000Z</time>
      </trkpt>
      <trkpt lat="43.52555" lon="5.54088">
        <ele>298</ele>
        <time>2018-02-20T13:11:29.000Z</time>
      </trkpt>
      <trkpt lat="43.52555" lon="5.54088">
        <ele>298</ele>
        <time>2018-02-20T13:11:30.000Z</time>
      </trkpt>
      <trkpt lat="43.52555" lon="5.54088">
        <ele>298</ele>
        <time>2018-02-20T13:11:31.000Z</time>
      </trkpt>
      <trkpt lat="43.52555" lon="5.54088">
        <ele>298</ele>
        <time>2018-02-20T13:11:32.000Z</time>
      </trkpt>
      <trkpt lat="43.52555" lon="5.54088">
        <ele>298</ele>
        <time>2018-02-20T13:11:33.000Z</time>
      </trkpt>
      <trkpt lat="43.52555" lon="5.54088">
        <ele>298</ele>
        <time>2018-02-20T13:11:34.000Z</time>
      </trkpt>
      <trkpt lat="43.52555" lon="5.54088">
        <ele>298</ele>
        <time>2018-02-20T13:11:35.000Z</time>
      </trkpt>
      <trkpt lat="43.52555" lon="5.54088">
        <ele>298</ele>
        <time>2018-02-20T13:11:36.000Z</time>
      </trkpt>
      <trkpt lat="43.52555" lon="5.54088">
        <ele>298</ele>
        <time>2018-02-20T13:11:37.000Z</time>
      </trkpt>
      <trkpt lat="43.52555" lon="5.54088">
        <ele>298</ele>
        <time>2018-02-20T13:11:38.000Z</time>
      </trkpt>
      <trkpt lat="43.52555" lon="5.54088">
        <ele>298</ele>
        <time>2018-02-20T13:11:39.000Z</time>
      </trkpt>
      <trkpt lat="43.52555" lon="5.54088">
        <ele>298</ele>
        <time>2018-02-20T13:11:40.000Z</time>
      </trkpt>
      <trkpt lat="43.52555" lon="5.54088">
        <ele>298</ele>
        <time>2018-02-20T13:11:41.000Z</time>
      </trkpt>
      <trkpt lat="43.52555" lon="5.54088">
        <ele>298</ele>
        <time>2018-02-20T13:11:42.000Z</time>
      </trkpt>
      <trkpt lat="43.52555" lon="5.54088">
        <ele>298</ele>
        <time>2018-02-20T13:11:43.000Z</time>
      </trkpt>
      <trkpt lat="43.52555" lon="5.54088">
        <ele>298</ele>
        <time>2018-02-20T13:11:44.000Z</time>
      </trkpt>
      <trkpt lat="43.52555" lon="5.54088">
        <ele>298</ele>
        <time>2018-02-20T13:11:45.000Z</time>
      </trkpt>
      <trkpt lat="43.52555" lon="5.54088">
        <ele>298</ele>
        <time>2018-02-20T13:11:46.000Z</time>
      </trkpt>
      <trkpt lat="43.52556" lon="5.54088">
        <ele>298</ele>
        <time>2018-02-20T13:11:47.000Z</time>
      </trkpt>
      <trkpt lat="43.52556" lon="5.54088">
        <ele>298</ele>
        <time>2018-02-20T13:11:48.000Z</time>
      </trkpt>
      <trkpt lat="43.52556" lon="5.54088">
        <ele>298</ele>
        <time>2018-02-20T13:11:49.000Z</time>
      </trkpt>
      <trkpt lat="43.52556" lon="5.54088">
        <ele>298</ele>
        <time>2018-02-20T13:11:50.000Z</time>
      </trkpt>
      <trkpt lat="43.52556" lon="5.54088">
        <ele>298</ele>
        <time>2018-02-20T13:11:51.000Z</time>
      </trkpt>
      <trkpt lat="43.52556" lon="5.54088">
        <ele>298</ele>
        <time>2018-02-20T13:11:52.000Z</time>
      </trkpt>
      <trkpt lat="43.52556" lon="5.54088">
        <ele>298</ele>
        <time>2018-02-20T13:11:53.000Z</time>
      </trkpt>
      <trkpt lat="43.52556" lon="5.54088">
        <ele>298</ele>
        <time>2018-02-20T13:11:54.000Z</time>
      </trkpt>
      <trkpt lat="43.52556" lon="5.54088">
        <ele>297</ele>
        <time>2018-02-20T13:11:55.000Z</time>
      </trkpt>
      <trkpt lat="43.52556" lon="5.54088">
        <ele>297</ele>
        <time>2018-02-20T13:11:56.000Z</time>
      </trkpt>
      <trkpt lat="43.52556" lon="5.54088">
        <ele>297</ele>
        <time>2018-02-20T13:11:57.000Z</time>
      </trkpt>
      <trkpt lat="43.52556" lon="5.54088">
        <ele>297</ele>
        <time>2018-02-20T13:11:58.000Z</time>
      </trkpt>
      <trkpt lat="43.52556" lon="5.54088">
        <ele>297</ele>
        <time>2018-02-20T13:11:59.000Z</time>
      </trkpt>
      <trkpt lat="43.52556" lon="5.54088">
        <ele>297</ele>
        <time>2018-02-20T13:12:00.000Z</time>
      </trkpt>
      <trkpt lat="43.52556" lon="5.54088">
        <ele>297</ele>
        <time>2018-02-20T13:12:01.000Z</time>
      </trkpt>
      <trkpt lat="43.52556" lon="5.54088">
        <ele>297</ele>
        <time>2018-02-20T13:12:02.000Z</time>
      </trkpt>
      <trkpt lat="43.52556" lon="5.54088">
        <ele>297</ele>
        <time>2018-02-20T13:12:03.000Z</time>
      </trkpt>
      <trkpt lat="43.52556" lon="5.54088">
        <ele>297</ele>
        <time>2018-02-20T13:12:04.000Z</time>
      </trkpt>
      <trkpt lat="43.52556" lon="5.54088">
        <ele>297</ele>
        <time>2018-02-20T13:12:05.000Z</time>
      </trkpt>
      <trkpt lat="43.52556" lon="5.54088">
        <ele>297</ele>
        <time>2018-02-20T13:12:06.000Z</time>
      </trkpt>
      <trkpt lat="43.52556" lon="5.54088">
        <ele>297</ele>
        <time>2018-02-20T13:12:07.000Z</time>
      </trkpt>
      <trkpt lat="43.52556" lon="5.54088">
        <ele>297</ele>
        <time>2018-02-20T13:12:08.000Z</time>
      </trkpt>
      <trkpt lat="43.52555" lon="5.54087">
        <ele>297</ele>
        <time>2018-02-20T13:12:09.000Z</time>
      </trkpt>
      <trkpt lat="43.52555" lon="5.54086">
        <ele>297</ele>
        <time>2018-02-20T13:12:10.000Z</time>
      </trkpt>
      <trkpt lat="43.52555" lon="5.54085">
        <ele>297</ele>
        <time>2018-02-20T13:12:11.000Z</time>
      </trkpt>
      <trkpt lat="43.52556" lon="5.54084">
        <ele>297</ele>
        <time>2018-02-20T13:12:12.000Z</time>
      </trkpt>
      <trkpt lat="43.52556" lon="5.54083">
        <ele>298</ele>
        <time>2018-02-20T13:12:13.000Z</time>
      </trkpt>
      <trkpt lat="43.52557" lon="5.54082">
        <ele>298</ele>
        <time>2018-02-20T13:12:14.000Z</time>
      </trkpt>
      <trkpt lat="43.52557" lon="5.5408">
        <ele>298</ele>
        <time>2018-02-20T13:12:15.000Z</time>
      </trkpt>
      <trkpt lat="43.52557" lon="5.54079">
        <ele>298</ele>
        <time>2018-02-20T13:12:16.000Z</time>
      </trkpt>
      <trkpt lat="43.52558" lon="5.54077">
        <ele>298</ele>
        <time>2018-02-20T13:12:17.000Z</time>
      </trkpt>
      <trkpt lat="43.52558" lon="5.54076">
        <ele>298</ele>
        <time>2018-02-20T13:12:18.000Z</time>
      </trkpt>
      <trkpt lat="43.52559" lon="5.54075">
        <ele>298</ele>
        <time>2018-02-20T13:12:19.000Z</time>
      </trkpt>
      <trkpt lat="43.52559" lon="5.54074">
        <ele>298</ele>
        <time>2018-02-20T13:12:20.000Z</time>
      </trkpt>
      <trkpt lat="43.5256" lon="5.54073">
        <ele>298</ele>
        <time>2018-02-20T13:12:21.000Z</time>
      </trkpt>
      <trkpt lat="43.5256" lon="5.54072">
        <ele>298</ele>
        <time>2018-02-20T13:12:22.000Z</time>
      </trkpt>
      <trkpt lat="43.5256" lon="5.5407">
        <ele>298</ele>
        <time>2018-02-20T13:12:23.000Z</time>
      </trkpt>
      <trkpt lat="43.52561" lon="5.54069">
        <ele>298</ele>
        <time>2018-02-20T13:12:24.000Z</time>
      </trkpt>
      <trkpt lat="43.52561" lon="5.54067">
        <ele>298</ele>
        <time>2018-02-20T13:12:25.000Z</time>
      </trkpt>
      <trkpt lat="43.52561" lon="5.54066">
        <ele>298</ele>
        <time>2018-02-20T13:12:26.000Z</time>
      </trkpt>
      <trkpt lat="43.52562" lon="5.54065">
        <ele>298</ele>
        <time>2018-02-20T13:12:27.000Z</time>
      </trkpt>
      <trkpt lat="43.52562" lon="5.54064">
        <ele>298</ele>
        <time>2018-02-20T13:12:28.000Z</time>
      </trkpt>
      <trkpt lat="43.52563" lon="5.54062">
        <ele>298</ele>
        <time>2018-02-20T13:12:29.000Z</time>
      </trkpt>
      <trkpt lat="43.52563" lon="5.54061">
        <ele>298</ele>
        <time>2018-02-20T13:12:30.000Z</time>
      </trkpt>
      <trkpt lat="43.52563" lon="5.5406">
        <ele>298</ele>
        <time>2018-02-20T13:12:31.000Z</time>
      </trkpt>
      <trkpt lat="43.52563" lon="5.54058">
        <ele>298</ele>
        <time>2018-02-20T13:12:32.000Z</time>
      </trkpt>
      <trkpt lat="43.52564" lon="5.54057">
        <ele>298</ele>
        <time>2018-02-20T13:12:33.000Z</time>
      </trkpt>
      <trkpt lat="43.52564" lon="5.54056">
        <ele>298</ele>
        <time>2018-02-20T13:12:34.000Z</time>
      </trkpt>
      <trkpt lat="43.52565" lon="5.54055">
        <ele>298</ele>
        <time>2018-02-20T13:12:35.000Z</time>
      </trkpt>
      <trkpt lat="43.52565" lon="5.54054">
        <ele>298</ele>
        <time>2018-02-20T13:12:36.000Z</time>
      </trkpt>
      <trkpt lat="43.52565" lon="5.54052">
        <ele>299</ele>
        <time>2018-02-20T13:12:37.000Z</time>
      </trkpt>
      <trkpt lat="43.52566" lon="5.54052">
        <ele>299</ele>
        <time>2018-02-20T13:12:38.000Z</time>
      </trkpt>
      <trkpt lat="43.52566" lon="5.54051">
        <ele>299</ele>
        <time>2018-02-20T13:12:39.000Z</time>
      </trkpt>
      <trkpt lat="43.52567" lon="5.5405">
        <ele>299</ele>
        <time>2018-02-20T13:12:40.000Z</time>
      </trkpt>
      <trkpt lat="43.52567" lon="5.54049">
        <ele>299</ele>
        <time>2018-02-20T13:12:41.000Z</time>
      </trkpt>
      <trkpt lat="43.52567" lon="5.54048">
        <ele>300</ele>
        <time>2018-02-20T13:12:42.000Z</time>
      </trkpt>
      <trkpt lat="43.52567" lon="5.54047">
        <ele>300</ele>
        <time>2018-02-20T13:12:43.000Z</time>
      </trkpt>
      <trkpt lat="43.52568" lon="5.54046">
        <ele>300</ele>
        <time>2018-02-20T13:12:44.000Z</time>
      </trkpt>
      <trkpt lat="43.52568" lon="5.54045">
        <ele>301</ele>
        <time>2018-02-20T13:12:45.000Z</time>
      </trkpt>
      <trkpt lat="43.52568" lon="5.54044">
        <ele>301</ele>
        <time>2018-02-20T13:12:46.000Z</time>
      </trkpt>
      <trkpt lat="43.52568" lon="5.54043">
        <ele>301</ele>
        <time>2018-02-20T13:12:47.000Z</time>
      </trkpt>
      <trkpt lat="43.52568" lon="5.54043">
        <ele>301</ele>
        <time>2018-02-20T13:12:48.000Z</time>
      </trkpt>
      <trkpt lat="43.52569" lon="5.54041">
        <ele>301</ele>
        <time>2018-02-20T13:12:49.000Z</time>
      </trkpt>
      <trkpt lat="43.52569" lon="5.5404">
        <ele>302</ele>
        <time>2018-02-20T13:12:50.000Z</time>
      </trkpt>
      <trkpt lat="43.52569" lon="5.54039">
        <ele>302</ele>
        <time>2018-02-20T13:12:51.000Z</time>
      </trkpt>
      <trkpt lat="43.5257" lon="5.54038">
        <ele>302</ele>
        <time>2018-02-20T13:12:52.000Z</time>
      </trkpt>
      <trkpt lat="43.5257" lon="5.54037">
        <ele>302</ele>
        <time>2018-02-20T13:12:53.000Z</time>
      </trkpt>
      <trkpt lat="43.52571" lon="5.54036">
        <ele>302</ele>
        <time>2018-02-20T13:12:54.000Z</time>
      </trkpt>
      <trkpt lat="43.52571" lon="5.54035">
        <ele>302</ele>
        <time>2018-02-20T13:12:55.000Z</time>
      </trkpt>
      <trkpt lat="43.52572" lon="5.54034">
        <ele>302</ele>
        <time>2018-02-20T13:12:56.000Z</time>
      </trkpt>
      <trkpt lat="43.52572" lon="5.54033">
        <ele>303</ele>
        <time>2018-02-20T13:12:57.000Z</time>
      </trkpt>
      <trkpt lat="43.52573" lon="5.54032">
        <ele>303</ele>
        <time>2018-02-20T13:12:58.000Z</time>
      </trkpt>
      <trkpt lat="43.52573" lon="5.54031">
        <ele>303</ele>
        <time>2018-02-20T13:12:59.000Z</time>
      </trkpt>
      <trkpt lat="43.52574" lon="5.5403">
        <ele>303</ele>
        <time>2018-02-20T13:13:00.000Z</time>
      </trkpt>
      <trkpt lat="43.52574" lon="5.54028">
        <ele>304</ele>
        <time>2018-02-20T13:13:01.000Z</time>
      </trkpt>
      <trkpt lat="43.52575" lon="5.54027">
        <ele>304</ele>
        <time>2018-02-20T13:13:02.000Z</time>
      </trkpt>
      <trkpt lat="43.52575" lon="5.54026">
        <ele>304</ele>
        <time>2018-02-20T13:13:03.000Z</time>
      </trkpt>
      <trkpt lat="43.52576" lon="5.54025">
        <ele>304</ele>
        <time>2018-02-20T13:13:04.000Z</time>
      </trkpt>
      <trkpt lat="43.52576" lon="5.54024">
        <ele>304</ele>
        <time>2018-02-20T13:13:05.000Z</time>
      </trkpt>
      <trkpt lat="43.52576" lon="5.54023">
        <ele>305</ele>
        <time>2018-02-20T13:13:06.000Z</time>
      </trkpt>
      <trkpt lat="43.52576" lon="5.54022">
        <ele>305</ele>
        <time>2018-02-20T13:13:07.000Z</time>
      </trkpt>
      <trkpt lat="43.52576" lon="5.54021">
        <ele>305</ele>
        <time>2018-02-20T13:13:08.000Z</time>
      </trkpt>
      <trkpt lat="43.52577" lon="5.5402">
        <ele>305</ele>
        <time>2018-02-20T13:13:09.000Z</time>
      </trkpt>
      <trkpt lat="43.52577" lon="5.54019">
        <ele>305</ele>
        <time>2018-02-20T13:13:10.000Z</time>
      </trkpt>
      <trkpt lat="43.52577" lon="5.54018">
        <ele>306</ele>
        <time>2018-02-20T13:13:11.000Z</time>
      </trkpt>
      <trkpt lat="43.52577" lon="5.54016">
        <ele>306</ele>
        <time>2018-02-20T13:13:12.000Z</time>
      </trkpt>
      <trkpt lat="43.52576" lon="5.54015">
        <ele>306</ele>
        <time>2018-02-20T13:13:13.000Z</time>
      </trkpt>
      <trkpt lat="43.52576" lon="5.54014">
        <ele>306</ele>
        <time>2018-02-20T13:13:14.000Z</time>
      </trkpt>
      <trkpt lat="43.52576" lon="5.54013">
        <ele>307</ele>
        <time>2018-02-20T13:13:15.000Z</time>
      </trkpt>
      <trkpt lat="43.52576" lon="5.54012">
        <ele>307</ele>
        <time>2018-02-20T13:13:16.000Z</time>
      </trkpt>
      <trkpt lat="43.52576" lon="5.54011">
        <ele>307</ele>
        <time>2018-02-20T13:13:17.000Z</time>
      </trkpt>
      <trkpt lat="43.52576" lon="5.5401">
        <ele>307</ele>
        <time>2018-02-20T13:13:18.000Z</time>
      </trkpt>
      <trkpt lat="43.52577" lon="5.54009">
        <ele>307</ele>
        <time>2018-02-20T13:13:19.000Z</time>
      </trkpt>
      <trkpt lat="43.52577" lon="5.54008">
        <ele>308</ele>
        <time>2018-02-20T13:13:20.000Z</time>
      </trkpt>
      <trkpt lat="43.52577" lon="5.54007">
        <ele>308</ele>
        <time>2018-02-20T13:13:21.000Z</time>
      </trkpt>
      <trkpt lat="43.52578" lon="5.54006">
        <ele>308</ele>
        <time>2018-02-20T13:13:22.000Z</time>
      </trkpt>
      <trkpt lat="43.52578" lon="5.54005">
        <ele>308</ele>
        <time>2018-02-20T13:13:23.000Z</time>
      </trkpt>
      <trkpt lat="43.52578" lon="5.54003">
        <ele>308</ele>
        <time>2018-02-20T13:13:24.000Z</time>
      </trkpt>
      <trkpt lat="43.52578" lon="5.54002">
        <ele>308</ele>
        <time>2018-02-20T13:13:25.000Z</time>
      </trkpt>
      <trkpt lat="43.52579" lon="5.54001">
        <ele>308</ele>
        <time>2018-02-20T13:13:26.000Z</time>
      </trkpt>
      <trkpt lat="43.52579" lon="5.54">
        <ele>308</ele>
        <time>2018-02-20T13:13:27.000Z</time>
      </trkpt>
      <trkpt lat="43.52579" lon="5.53999">
        <ele>308</ele>
        <time>2018-02-20T13:13:28.000Z</time>
      </trkpt>
      <trkpt lat="43.52579" lon="5.53998">
        <ele>309</ele>
        <time>2018-02-20T13:13:29.000Z</time>
      </trkpt>
      <trkpt lat="43.52579" lon="5.53997">
        <ele>309</ele>
        <time>2018-02-20T13:13:30.000Z</time>
      </trkpt>
      <trkpt lat="43.52579" lon="5.53996">
        <ele>309</ele>
        <time>2018-02-20T13:13:31.000Z</time>
      </trkpt>
      <trkpt lat="43.52579" lon="5.53995">
        <ele>309</ele>
        <time>2018-02-20T13:13:32.000Z</time>
      </trkpt>
      <trkpt lat="43.52579" lon="5.53994">
        <ele>309</ele>
        <time>2018-02-20T13:13:33.000Z</time>
      </trkpt>
      <trkpt lat="43.52579" lon="5.53992">
        <ele>309</ele>
        <time>2018-02-20T13:13:34.000Z</time>
      </trkpt>
      <trkpt lat="43.52579" lon="5.53991">
        <ele>309</ele>
        <time>2018-02-20T13:13:35.000Z</time>
      </trkpt>
      <trkpt lat="43.52579" lon="5.5399">
        <ele>309</ele>
        <time>2018-02-20T13:13:36.000Z</time>
      </trkpt>
      <trkpt lat="43.52579" lon="5.53989">
        <ele>310</ele>
        <time>2018-02-20T13:13:37.000Z</time>
      </trkpt>
      <trkpt lat="43.52579" lon="5.53988">
        <ele>310</ele>
        <time>2018-02-20T13:13:38.000Z</time>
      </trkpt>
      <trkpt lat="43.52579" lon="5.53987">
        <ele>310</ele>
        <time>2018-02-20T13:13:39.000Z</time>
      </trkpt>
      <trkpt lat="43.52579" lon="5.53985">
        <ele>310</ele>
        <time>2018-02-20T13:13:40.000Z</time>
      </trkpt>
      <trkpt lat="43.52579" lon="5.53984">
        <ele>310</ele>
        <time>2018-02-20T13:13:41.000Z</time>
      </trkpt>
      <trkpt lat="43.52579" lon="5.53983">
        <ele>310</ele>
        <time>2018-02-20T13:13:42.000Z</time>
      </trkpt>
      <trkpt lat="43.52579" lon="5.53982">
        <ele>310</ele>
        <time>2018-02-20T13:13:43.000Z</time>
      </trkpt>
      <trkpt lat="43.52579" lon="5.5398">
        <ele>310</ele>
        <time>2018-02-20T13:13:44.000Z</time>
      </trkpt>
      <trkpt lat="43.52579" lon="5.53979">
        <ele>311</ele>
        <time>2018-02-20T13:13:45.000Z</time>
      </trkpt>
      <trkpt lat="43.52578" lon="5.53978">
        <ele>311</ele>
        <time>2018-02-20T13:13:46.000Z</time>
      </trkpt>
      <trkpt lat="43.52578" lon="5.53976">
        <ele>311</ele>
        <time>2018-02-20T13:13:47.000Z</time>
      </trkpt>
      <trkpt lat="43.52578" lon="5.53975">
        <ele>311</ele>
        <time>2018-02-20T13:13:48.000Z</time>
      </trkpt>
      <trkpt lat="43.52578" lon="5.53974">
        <ele>311</ele>
        <time>2018-02-20T13:13:49.000Z</time>
      </trkpt>
      <trkpt lat="43.52578" lon="5.53972">
        <ele>311</ele>
        <time>2018-02-20T13:13:50.000Z</time>
      </trkpt>
      <trkpt lat="43.52578" lon="5.53971">
        <ele>312</ele>
        <time>2018-02-20T13:13:51.000Z</time>
      </trkpt>
      <trkpt lat="43.52578" lon="5.5397">
        <ele>312</ele>
        <time>2018-02-20T13:13:52.000Z</time>
      </trkpt>
      <trkpt lat="43.52578" lon="5.53969">
        <ele>312</ele>
        <time>2018-02-20T13:13:53.000Z</time>
      </trkpt>
      <trkpt lat="43.52579" lon="5.53968">
        <ele>312</ele>
        <time>2018-02-20T13:13:54.000Z</time>
      </trkpt>
      <trkpt lat="43.52579" lon="5.53967">
        <ele>312</ele>
        <time>2018-02-20T13:13:55.000Z</time>
      </trkpt>
      <trkpt lat="43.52578" lon="5.53966">
        <ele>312</ele>
        <time>2018-02-20T13:13:56.000Z</time>
      </trkpt>
      <trkpt lat="43.52578" lon="5.53965">
        <ele>312</ele>
        <time>2018-02-20T13:13:57.000Z</time>
      </trkpt>
      <trkpt lat="43.52578" lon="5.53964">
        <ele>312</ele>
        <time>2018-02-20T13:13:58.000Z</time>
      </trkpt>
      <trkpt lat="43.52577" lon="5.53963">
        <ele>313</ele>
        <time>2018-02-20T13:13:59.000Z</time>
      </trkpt>
      <trkpt lat="43.52577" lon="5.53963">
        <ele>313</ele>
        <time>2018-02-20T13:14:00.000Z</time>
      </trkpt>
      <trkpt lat="43.52577" lon="5.53961">
        <ele>313</ele>
        <time>2018-02-20T13:14:01.000Z</time>
      </trkpt>
      <trkpt lat="43.52577" lon="5.5396">
        <ele>313</ele>
        <time>2018-02-20T13:14:02.000Z</time>
      </trkpt>
      <trkpt lat="43.52577" lon="5.53959">
        <ele>313</ele>
        <time>2018-02-20T13:14:03.000Z</time>
      </trkpt>
      <trkpt lat="43.52577" lon="5.53958">
        <ele>313</ele>
        <time>2018-02-20T13:14:04.000Z</time>
      </trkpt>
      <trkpt lat="43.52577" lon="5.53956">
        <ele>314</ele>
        <time>2018-02-20T13:14:05.000Z</time>
      </trkpt>
      <trkpt lat="43.52577" lon="5.53955">
        <ele>314</ele>
        <time>2018-02-20T13:14:06.000Z</time>
      </trkpt>
      <trkpt lat="43.52577" lon="5.53954">
        <ele>314</ele>
        <time>2018-02-20T13:14:07.000Z</time>
      </trkpt>
      <trkpt lat="43.52577" lon="5.53953">
        <ele>314</ele>
        <time>2018-02-20T13:14:08.000Z</time>
      </trkpt>
      <trkpt lat="43.52577" lon="5.53952">
        <ele>314</ele>
        <time>2018-02-20T13:14:09.000Z</time>
      </trkpt>
      <trkpt lat="43.52578" lon="5.5395">
        <ele>314</ele>
        <time>2018-02-20T13:14:10.000Z</time>
      </trkpt>
      <trkpt lat="43.52578" lon="5.53949">
        <ele>314</ele>
        <time>2018-02-20T13:14:11.000Z</time>
      </trkpt>
      <trkpt lat="43.52578" lon="5.53948">
        <ele>314</ele>
        <time>2018-02-20T13:14:12.000Z</time>
      </trkpt>
      <trkpt lat="43.52579" lon="5.53947">
        <ele>314</ele>
        <time>2018-02-20T13:14:13.000Z</time>
      </trkpt>
      <trkpt lat="43.52579" lon="5.53946">
        <ele>314</ele>
        <time>2018-02-20T13:14:14.000Z</time>
      </trkpt>
      <trkpt lat="43.52579" lon="5.53945">
        <ele>314</ele>
        <time>2018-02-20T13:14:15.000Z</time>
      </trkpt>
      <trkpt lat="43.52579" lon="5.53944">
        <ele>314</ele>
        <time>2018-02-20T13:14:16.000Z</time>
      </trkpt>
      <trkpt lat="43.52579" lon="5.53943">
        <ele>315</ele>
        <time>2018-02-20T13:14:17.000Z</time>
      </trkpt>
      <trkpt lat="43.52579" lon="5.53942">
        <ele>315</ele>
        <time>2018-02-20T13:14:18.000Z</time>
      </trkpt>
      <trkpt lat="43.52579" lon="5.53941">
        <ele>315</ele>
        <time>2018-02-20T13:14:19.000Z</time>
      </trkpt>
      <trkpt lat="43.5258" lon="5.5394">
        <ele>315</ele>
        <time>2018-02-20T13:14:20.000Z</time>
      </trkpt>
      <trkpt lat="43.5258" lon="5.53939">
        <ele>315</ele>
        <time>2018-02-20T13:14:21.000Z</time>
      </trkpt>
      <trkpt lat="43.5258" lon="5.53938">
        <ele>315</ele>
        <time>2018-02-20T13:14:22.000Z</time>
      </trkpt>
      <trkpt lat="43.5258" lon="5.53936">
        <ele>315</ele>
        <time>2018-02-20T13:14:23.000Z</time>
      </trkpt>
      <trkpt lat="43.52581" lon="5.53935">
        <ele>315</ele>
        <time>2018-02-20T13:14:24.000Z</time>
      </trkpt>
      <trkpt lat="43.52581" lon="5.53934">
        <ele>315</ele>
        <time>2018-02-20T13:14:25.000Z</time>
      </trkpt>
      <trkpt lat="43.52581" lon="5.53933">
        <ele>315</ele>
        <time>2018-02-20T13:14:26.000Z</time>
      </trkpt>
      <trkpt lat="43.52581" lon="5.53932">
        <ele>315</ele>
        <time>2018-02-20T13:14:27.000Z</time>
      </trkpt>
      <trkpt lat="43.52581" lon="5.53931">
        <ele>315</ele>
        <time>2018-02-20T13:14:28.000Z</time>
      </trkpt>
      <trkpt lat="43.52582" lon="5.5393">
        <ele>315</ele>
        <time>2018-02-20T13:14:29.000Z</time>
      </trkpt>
      <trkpt lat="43.52582" lon="5.53928">
        <ele>315</ele>
        <time>2018-02-20T13:14:30.000Z</time>
      </trkpt>
      <trkpt lat="43.52582" lon="5.53927">
        <ele>315</ele>
        <time>2018-02-20T13:14:31.000Z</time>
      </trkpt>
      <trkpt lat="43.52581" lon="5.53926">
        <ele>315</ele>
        <time>2018-02-20T13:14:32.000Z</time>
      </trkpt>
      <trkpt lat="43.52581" lon="5.53924">
        <ele>315</ele>
        <time>2018-02-20T13:14:33.000Z</time>
      </trkpt>
      <trkpt lat="43.52582" lon="5.53923">
        <ele>316</ele>
        <time>2018-02-20T13:14:34.000Z</time>
      </trkpt>
      <trkpt lat="43.52582" lon="5.53922">
        <ele>316</ele>
        <time>2018-02-20T13:14:35.000Z</time>
      </trkpt>
      <trkpt lat="43.52581" lon="5.53921">
        <ele>316</ele>
        <time>2018-02-20T13:14:36.000Z</time>
      </trkpt>
      <trkpt lat="43.52582" lon="5.5392">
        <ele>316</ele>
        <time>2018-02-20T13:14:37.000Z</time>
      </trkpt>
      <trkpt lat="43.52582" lon="5.53918">
        <ele>316</ele>
        <time>2018-02-20T13:14:38.000Z</time>
      </trkpt>
      <trkpt lat="43.52582" lon="5.53918">
        <ele>316</ele>
        <time>2018-02-20T13:14:39.000Z</time>
      </trkpt>
      <trkpt lat="43.52581" lon="5.53916">
        <ele>317</ele>
        <time>2018-02-20T13:14:40.000Z</time>
      </trkpt>
      <trkpt lat="43.52581" lon="5.53915">
        <ele>317</ele>
        <time>2018-02-20T13:14:41.000Z</time>
      </trkpt>
      <trkpt lat="43.52581" lon="5.53915">
        <ele>317</ele>
        <time>2018-02-20T13:14:42.000Z</time>
      </trkpt>
      <trkpt lat="43.52581" lon="5.53914">
        <ele>317</ele>
        <time>2018-02-20T13:14:43.000Z</time>
      </trkpt>
      <trkpt lat="43.52581" lon="5.53912">
        <ele>317</ele>
        <time>2018-02-20T13:14:44.000Z</time>
      </trkpt>
      <trkpt lat="43.5258" lon="5.53911">
        <ele>318</ele>
        <time>2018-02-20T13:14:45.000Z</time>
      </trkpt>
      <trkpt lat="43.5258" lon="5.5391">
        <ele>318</ele>
        <time>2018-02-20T13:14:46.000Z</time>
      </trkpt>
      <trkpt lat="43.5258" lon="5.53909">
        <ele>318</ele>
        <time>2018-02-20T13:14:47.000Z</time>
      </trkpt>
      <trkpt lat="43.5258" lon="5.53908">
        <ele>318</ele>
        <time>2018-02-20T13:14:48.000Z</time>
      </trkpt>
      <trkpt lat="43.5258" lon="5.53907">
        <ele>318</ele>
        <time>2018-02-20T13:14:49.000Z</time>
      </trkpt>
      <trkpt lat="43.5258" lon="5.53905">
        <ele>319</ele>
        <time>2018-02-20T13:14:50.000Z</time>
      </trkpt>
      <trkpt lat="43.5258" lon="5.53904">
        <ele>319</ele>
        <time>2018-02-20T13:14:51.000Z</time>
      </trkpt>
      <trkpt lat="43.5258" lon="5.53903">
        <ele>319</ele>
        <time>2018-02-20T13:14:52.000Z</time>
      </trkpt>
      <trkpt lat="43.5258" lon="5.53902">
        <ele>319</ele>
        <time>2018-02-20T13:14:53.000Z</time>
      </trkpt>
      <trkpt lat="43.5258" lon="5.53901">
        <ele>319</ele>
        <time>2018-02-20T13:14:54.000Z</time>
      </trkpt>
      <trkpt lat="43.5258" lon="5.539">
        <ele>320</ele>
        <time>2018-02-20T13:14:55.000Z</time>
      </trkpt>
      <trkpt lat="43.5258" lon="5.53899">
        <ele>320</ele>
        <time>2018-02-20T13:14:56.000Z</time>
      </trkpt>
      <trkpt lat="43.5258" lon="5.53898">
        <ele>320</ele>
        <time>2018-02-20T13:14:57.000Z</time>
      </trkpt>
      <trkpt lat="43.5258" lon="5.53897">
        <ele>320</ele>
        <time>2018-02-20T13:14:58.000Z</time>
      </trkpt>
      <trkpt lat="43.5258" lon="5.53896">
        <ele>320</ele>
        <time>2018-02-20T13:14:59.000Z</time>
      </trkpt>
      <trkpt lat="43.5258" lon="5.53894">
        <ele>320</ele>
        <time>2018-02-20T13:15:00.000Z</time>
      </trkpt>
      <trkpt lat="43.52581" lon="5.53893">
        <ele>321</ele>
        <time>2018-02-20T13:15:01.000Z</time>
      </trkpt>
      <trkpt lat="43.52581" lon="5.53892">
        <ele>321</ele>
        <time>2018-02-20T13:15:02.000Z</time>
      </trkpt>
      <trkpt lat="43.52581" lon="5.53891">
        <ele>321</ele>
        <time>2018-02-20T13:15:03.000Z</time>
      </trkpt>
      <trkpt lat="43.52581" lon="5.5389">
        <ele>321</ele>
        <time>2018-02-20T13:15:04.000Z</time>
      </trkpt>
      <trkpt lat="43.52581" lon="5.53888">
        <ele>321</ele>
        <time>2018-02-20T13:15:05.000Z</time>
      </trkpt>
      <trkpt lat="43.52581" lon="5.53887">
        <ele>321</ele>
        <time>2018-02-20T13:15:06.000Z</time>
      </trkpt>
      <trkpt lat="43.52581" lon="5.53886">
        <ele>321</ele>
        <time>2018-02-20T13:15:07.000Z</time>
      </trkpt>
      <trkpt lat="43.52581" lon="5.53885">
        <ele>321</ele>
        <time>2018-02-20T13:15:08.000Z</time>
      </trkpt>
      <trkpt lat="43.52581" lon="5.53884">
        <ele>321</ele>
        <time>2018-02-20T13:15:09.000Z</time>
      </trkpt>
      <trkpt lat="43.52581" lon="5.53883">
        <ele>322</ele>
        <time>2018-02-20T13:15:10.000Z</time>
      </trkpt>
      <trkpt lat="43.52581" lon="5.53882">
        <ele>322</ele>
        <time>2018-02-20T13:15:11.000Z</time>
      </trkpt>
      <trkpt lat="43.52581" lon="5.5388">
        <ele>322</ele>
        <time>2018-02-20T13:15:12.000Z</time>
      </trkpt>
      <trkpt lat="43.52581" lon="5.53879">
        <ele>322</ele>
        <time>2018-02-20T13:15:13.000Z</time>
      </trkpt>
      <trkpt lat="43.5258" lon="5.53878">
        <ele>323</ele>
        <time>2018-02-20T13:15:14.000Z</time>
      </trkpt>
      <trkpt lat="43.5258" lon="5.53877">
        <ele>323</ele>
        <time>2018-02-20T13:15:15.000Z</time>
      </trkpt>
      <trkpt lat="43.5258" lon="5.53876">
        <ele>323</ele>
        <time>2018-02-20T13:15:16.000Z</time>
      </trkpt>
      <trkpt lat="43.5258" lon="5.53875">
        <ele>323</ele>
        <time>2018-02-20T13:15:17.000Z</time>
      </trkpt>
      <trkpt lat="43.5258" lon="5.53874">
        <ele>323</ele>
        <time>2018-02-20T13:15:18.000Z</time>
      </trkpt>
      <trkpt lat="43.5258" lon="5.53872">
        <ele>323</ele>
        <time>2018-02-20T13:15:19.000Z</time>
      </trkpt>
      <trkpt lat="43.5258" lon="5.53871">
        <ele>324</ele>
        <time>2018-02-20T13:15:20.000Z</time>
      </trkpt>
      <trkpt lat="43.5258" lon="5.5387">
        <ele>324</ele>
        <time>2018-02-20T13:15:21.000Z</time>
      </trkpt>
      <trkpt lat="43.5258" lon="5.53868">
        <ele>324</ele>
        <time>2018-02-20T13:15:22.000Z</time>
      </trkpt>
      <trkpt lat="43.5258" lon="5.53867">
        <ele>324</ele>
        <time>2018-02-20T13:15:23.000Z</time>
      </trkpt>
      <trkpt lat="43.5258" lon="5.53866">
        <ele>324</ele>
        <time>2018-02-20T13:15:24.000Z</time>
      </trkpt>
      <trkpt lat="43.5258" lon="5.53865">
        <ele>324</ele>
        <time>2018-02-20T13:15:25.000Z</time>
      </trkpt>
      <trkpt lat="43.5258" lon="5.53863">
        <ele>324</ele>
        <time>2018-02-20T13:15:26.000Z</time>
      </trkpt>
      <trkpt lat="43.5258" lon="5.53862">
        <ele>324</ele>
        <time>2018-02-20T13:15:27.000Z</time>
      </trkpt>
      <trkpt lat="43.5258" lon="5.53861">
        <ele>325</ele>
        <time>2018-02-20T13:15:28.000Z</time>
      </trkpt>
      <trkpt lat="43.5258" lon="5.53859">
        <ele>325</ele>
        <time>2018-02-20T13:15:29.000Z</time>
      </trkpt>
      <trkpt lat="43.5258" lon="5.53858">
        <ele>325</ele>
        <time>2018-02-20T13:15:30.000Z</time>
      </trkpt>
      <trkpt lat="43.5258" lon="5.53857">
        <ele>325</ele>
        <time>2018-02-20T13:15:31.000Z</time>
      </trkpt>
      <trkpt lat="43.5258" lon="5.53856">
        <ele>325</ele>
        <time>2018-02-20T13:15:32.000Z</time>
      </trkpt>
      <trkpt lat="43.52579" lon="5.53854">
        <ele>325</ele>
        <time>2018-02-20T13:15:33.000Z</time>
      </trkpt>
      <trkpt lat="43.52579" lon="5.53853">
        <ele>325</ele>
        <time>2018-02-20T13:15:34.000Z</time>
      </trkpt>
      <trkpt lat="43.52579" lon="5.53852">
        <ele>325</ele>
        <time>2018-02-20T13:15:35.000Z</time>
      </trkpt>
      <trkpt lat="43.52579" lon="5.5385">
        <ele>325</ele>
        <time>2018-02-20T13:15:36.000Z</time>
      </trkpt>
      <trkpt lat="43.52579" lon="5.53849">
        <ele>325</ele>
        <time>2018-02-20T13:15:37.000Z</time>
      </trkpt>
      <trkpt lat="43.52579" lon="5.53848">
        <ele>325</ele>
        <time>2018-02-20T13:15:38.000Z</time>
      </trkpt>
      <trkpt lat="43.52579" lon="5.53846">
        <ele>325</ele>
        <time>2018-02-20T13:15:39.000Z</time>
      </trkpt>
      <trkpt lat="43.52579" lon="5.53845">
        <ele>325</ele>
        <time>2018-02-20T13:15:40.000Z</time>
      </trkpt>
      <trkpt lat="43.52578" lon="5.53844">
        <ele>325</ele>
        <time>2018-02-20T13:15:41.000Z</time>
      </trkpt>
      <trkpt lat="43.52578" lon="5.53843">
        <ele>325</ele>
        <time>2018-02-20T13:15:42.000Z</time>
      </trkpt>
      <trkpt lat="43.52578" lon="5.53841">
        <ele>326</ele>
        <time>2018-02-20T13:15:43.000Z</time>
      </trkpt>
      <trkpt lat="43.52578" lon="5.5384">
        <ele>326</ele>
        <time>2018-02-20T13:15:44.000Z</time>
      </trkpt>
      <trkpt lat="43.52577" lon="5.53839">
        <ele>326</ele>
        <time>2018-02-20T13:15:45.000Z</time>
      </trkpt>
      <trkpt lat="43.52577" lon="5.53838">
        <ele>326</ele>
        <time>2018-02-20T13:15:46.000Z</time>
      </trkpt>
      <trkpt lat="43.52577" lon="5.53837">
        <ele>326</ele>
        <time>2018-02-20T13:15:47.000Z</time>
      </trkpt>
      <trkpt lat="43.52577" lon="5.53835">
        <ele>326</ele>
        <time>2018-02-20T13:15:48.000Z</time>
      </trkpt>
      <trkpt lat="43.52576" lon="5.53834">
        <ele>326</ele>
        <time>2018-02-20T13:15:49.000Z</time>
      </trkpt>
      <trkpt lat="43.52576" lon="5.53833">
        <ele>326</ele>
        <time>2018-02-20T13:15:50.000Z</time>
      </trkpt>
      <trkpt lat="43.52576" lon="5.53832">
        <ele>326</ele>
        <time>2018-02-20T13:15:51.000Z</time>
      </trkpt>
      <trkpt lat="43.52575" lon="5.53831">
        <ele>326</ele>
        <time>2018-02-20T13:15:52.000Z</time>
      </trkpt>
      <trkpt lat="43.52575" lon="5.53829">
        <ele>326</ele>
        <time>2018-02-20T13:15:53.000Z</time>
      </trkpt>
      <trkpt lat="43.52575" lon="5.53828">
        <ele>326</ele>
        <time>2018-02-20T13:15:54.000Z</time>
      </trkpt>
      <trkpt lat="43.52574" lon="5.53827">
        <ele>326</ele>
        <time>2018-02-20T13:15:55.000Z</time>
      </trkpt>
      <trkpt lat="43.52574" lon="5.53826">
        <ele>326</ele>
        <time>2018-02-20T13:15:56.000Z</time>
      </trkpt>
      <trkpt lat="43.52574" lon="5.53824">
        <ele>326</ele>
        <time>2018-02-20T13:15:57.000Z</time>
      </trkpt>
      <trkpt lat="43.52574" lon="5.53823">
        <ele>326</ele>
        <time>2018-02-20T13:15:58.000Z</time>
      </trkpt>
      <trkpt lat="43.52574" lon="5.53822">
        <ele>326</ele>
        <time>2018-02-20T13:15:59.000Z</time>
      </trkpt>
      <trkpt lat="43.52574" lon="5.5382">
        <ele>326</ele>
        <time>2018-02-20T13:16:00.000Z</time>
      </trkpt>
      <trkpt lat="43.52574" lon="5.53819">
        <ele>326</ele>
        <time>2018-02-20T13:16:01.000Z</time>
      </trkpt>
      <trkpt lat="43.52574" lon="5.53818">
        <ele>325</ele>
        <time>2018-02-20T13:16:02.000Z</time>
      </trkpt>
      <trkpt lat="43.52573" lon="5.53816">
        <ele>325</ele>
        <time>2018-02-20T13:16:03.000Z</time>
      </trkpt>
      <trkpt lat="43.52573" lon="5.53815">
        <ele>325</ele>
        <time>2018-02-20T13:16:04.000Z</time>
      </trkpt>
      <trkpt lat="43.52573" lon="5.53814">
        <ele>325</ele>
        <time>2018-02-20T13:16:05.000Z</time>
      </trkpt>
      <trkpt lat="43.52573" lon="5.53812">
        <ele>325</ele>
        <time>2018-02-20T13:16:06.000Z</time>
      </trkpt>
      <trkpt lat="43.52573" lon="5.53811">
        <ele>325</ele>
        <time>2018-02-20T13:16:07.000Z</time>
      </trkpt>
      <trkpt lat="43.52573" lon="5.53809">
        <ele>325</ele>
        <time>2018-02-20T13:16:08.000Z</time>
      </trkpt>
      <trkpt lat="43.52573" lon="5.53808">
        <ele>325</ele>
        <time>2018-02-20T13:16:09.000Z</time>
      </trkpt>
      <trkpt lat="43.52573" lon="5.53808">
        <ele>325</ele>
        <time>2018-02-20T13:16:10.000Z</time>
      </trkpt>
      <trkpt lat="43.52573" lon="5.53807">
        <ele>325</ele>
        <time>2018-02-20T13:16:11.000Z</time>
      </trkpt>
      <trkpt lat="43.52573" lon="5.53807">
        <ele>325</ele>
        <time>2018-02-20T13:16:12.000Z</time>
      </trkpt>
      <trkpt lat="43.52573" lon="5.53807">
        <ele>325</ele>
        <time>2018-02-20T13:16:13.000Z</time>
      </trkpt>
      <trkpt lat="43.52573" lon="5.53807">
        <ele>325</ele>
        <time>2018-02-20T13:16:14.000Z</time>
      </trkpt>
      <trkpt lat="43.52573" lon="5.53807">
        <ele>325</ele>
        <time>2018-02-20T13:16:15.000Z</time>
      </trkpt>
      <trkpt lat="43.52573" lon="5.53807">
        <ele>325</ele>
        <time>2018-02-20T13:16:16.000Z</time>
      </trkpt>
      <trkpt lat="43.52573" lon="5.53807">
        <ele>325</ele>
        <time>2018-02-20T13:16:17.000Z</time>
      </trkpt>
      <trkpt lat="43.52574" lon="5.53807">
        <ele>325</ele>
        <time>2018-02-20T13:16:18.000Z</time>
      </trkpt>
      <trkpt lat="43.52574" lon="5.53807">
        <ele>325</ele>
        <time>2018-02-20T13:16:19.000Z</time>
      </trkpt>
      <trkpt lat="43.52574" lon="5.53807">
        <ele>325</ele>
        <time>2018-02-20T13:16:20.000Z</time>
      </trkpt>
      <trkpt lat="43.52574" lon="5.53807">
        <ele>325</ele>
        <time>2018-02-20T13:16:21.000Z</time>
      </trkpt>
      <trkpt lat="43.52574" lon="5.53807">
        <ele>325</ele>
        <time>2018-02-20T13:16:22.000Z</time>
      </trkpt>
      <trkpt lat="43.52573" lon="5.53807">
        <ele>325</ele>
        <time>2018-02-20T13:16:23.000Z</time>
      </trkpt>
      <trkpt lat="43.52573" lon="5.53807">
        <ele>325</ele>
        <time>2018-02-20T13:16:24.000Z</time>
      </trkpt>
      <trkpt lat="43.52573" lon="5.53807">
        <ele>325</ele>
        <time>2018-02-20T13:16:25.000Z</time>
      </trkpt>
      <trkpt lat="43.52573" lon="5.53807">
        <ele>325</ele>
        <time>2018-02-20T13:16:26.000Z</time>
      </trkpt>
      <trkpt lat="43.52573" lon="5.53807">
        <ele>325</ele>
        <time>2018-02-20T13:16:27.000Z</time>
      </trkpt>
      <trkpt lat="43.52573" lon="5.53807">
        <ele>325</ele>
        <time>2018-02-20T13:16:28.000Z</time>
      </trkpt>
      <trkpt lat="43.52573" lon="5.53807">
        <ele>325</ele>
        <time>2018-02-20T13:16:29.000Z</time>
      </trkpt>
      <trkpt lat="43.52573" lon="5.53807">
        <ele>325</ele>
        <time>2018-02-20T13:16:30.000Z</time>
      </trkpt>
      <trkpt lat="43.52573" lon="5.53807">
        <ele>325</ele>
        <time>2018-02-20T13:16:31.000Z</time>
      </trkpt>
      <trkpt lat="43.52573" lon="5.53807">
        <ele>325</ele>
        <time>2018-02-20T13:16:32.000Z</time>
      </trkpt>
      <trkpt lat="43.52573" lon="5.53807">
        <ele>325</ele>
        <time>2018-02-20T13:16:33.000Z</time>
      </trkpt>
      <trkpt lat="43.52573" lon="5.53807">
        <ele>325</ele>
        <time>2018-02-20T13:16:34.000Z</time>
      </trkpt>
      <trkpt lat="43.52573" lon="5.53807">
        <ele>325</ele>
        <time>2018-02-20T13:16:35.000Z</time>
      </trkpt>
      <trkpt lat="43.52574" lon="5.53807">
        <ele>325</ele>
        <time>2018-02-20T13:16:36.000Z</time>
      </trkpt>
      <trkpt lat="43.52574" lon="5.53807">
        <ele>326</ele>
        <time>2018-02-20T13:16:37.000Z</time>
      </trkpt>
      <trkpt lat="43.52574" lon="5.53807">
        <ele>326</ele>
        <time>2018-02-20T13:16:38.000Z</time>
      </trkpt>
      <trkpt lat="43.52574" lon="5.53806">
        <ele>326</ele>
        <time>2018-02-20T13:16:39.000Z</time>
      </trkpt>
      <trkpt lat="43.52574" lon="5.53807">
        <ele>326</ele>
        <time>2018-02-20T13:16:40.000Z</time>
      </trkpt>
      <trkpt lat="43.52574" lon="5.53807">
        <ele>326</ele>
        <time>2018-02-20T13:16:41.000Z</time>
      </trkpt>
      <trkpt lat="43.52574" lon="5.53807">
        <ele>326</ele>
        <time>2018-02-20T13:16:42.000Z</time>
      </trkpt>
      <trkpt lat="43.52574" lon="5.53807">
        <ele>326</ele>
        <time>2018-02-20T13:16:43.000Z</time>
      </trkpt>
      <trkpt lat="43.52574" lon="5.53807">
        <ele>325</ele>
        <time>2018-02-20T13:16:44.000Z</time>
      </trkpt>
      <trkpt lat="43.52574" lon="5.53807">
        <ele>325</ele>
        <time>2018-02-20T13:16:45.000Z</time>
      </trkpt>
      <trkpt lat="43.52574" lon="5.53806">
        <ele>325</ele>
        <time>2018-02-20T13:16:46.000Z</time>
      </trkpt>
      <trkpt lat="43.52574" lon="5.53806">
        <ele>325</ele>
        <time>2018-02-20T13:16:47.000Z</time>
      </trkpt>
      <trkpt lat="43.52575" lon="5.53806">
        <ele>325</ele>
        <time>2018-02-20T13:16:48.000Z</time>
      </trkpt>
      <trkpt lat="43.52575" lon="5.53806">
        <ele>325</ele>
        <time>2018-02-20T13:16:49.000Z</time>
      </trkpt>
      <trkpt lat="43.52575" lon="5.53806">
        <ele>325</ele>
        <time>2018-02-20T13:16:50.000Z</time>
      </trkpt>
      <trkpt lat="43.52575" lon="5.53806">
        <ele>325</ele>
        <time>2018-02-20T13:16:51.000Z</time>
      </trkpt>
      <trkpt lat="43.52575" lon="5.53806">
        <ele>325</ele>
        <time>2018-02-20T13:16:52.000Z</time>
      </trkpt>
      <trkpt lat="43.52575" lon="5.53806">
        <ele>325</ele>
        <time>2018-02-20T13:16:53.000Z</time>
      </trkpt>
      <trkpt lat="43.52575" lon="5.53806">
        <ele>325</ele>
        <time>2018-02-20T13:16:54.000Z</time>
      </trkpt>
      <trkpt lat="43.52575" lon="5.53806">
        <ele>325</ele>
        <time>2018-02-20T13:16:55.000Z</time>
      </trkpt>
      <trkpt lat="43.52575" lon="5.53806">
        <ele>325</ele>
        <time>2018-02-20T13:16:56.000Z</time>
      </trkpt>
      <trkpt lat="43.52575" lon="5.53806">
        <ele>325</ele>
        <time>2018-02-20T13:16:57.000Z</time>
      </trkpt>
      <trkpt lat="43.52575" lon="5.53806">
        <ele>325</ele>
        <time>2018-02-20T13:16:58.000Z</time>
      </trkpt>
      <trkpt lat="43.52575" lon="5.53806">
        <ele>325</ele>
        <time>2018-02-20T13:16:59.000Z</time>
      </trkpt>
      <trkpt lat="43.52575" lon="5.53805">
        <ele>325</ele>
        <time>2018-02-20T13:17:00.000Z</time>
      </trkpt>
      <trkpt lat="43.52575" lon="5.53806">
        <ele>325</ele>
        <time>2018-02-20T13:17:01.000Z</time>
      </trkpt>
      <trkpt lat="43.52575" lon="5.53806">
        <ele>325</ele>
        <time>2018-02-20T13:17:02.000Z</time>
      </trkpt>
      <trkpt lat="43.52575" lon="5.53806">
        <ele>325</ele>
        <time>2018-02-20T13:17:03.000Z</time>
      </trkpt>
      <trkpt lat="43.52575" lon="5.53806">
        <ele>325</ele>
        <time>2018-02-20T13:17:04.000Z</time>
      </trkpt>
      <trkpt lat="43.52575" lon="5.53806">
        <ele>325</ele>
        <time>2018-02-20T13:17:05.000Z</time>
      </trkpt>
      <trkpt lat="43.52575" lon="5.53806">
        <ele>325</ele>
        <time>2018-02-20T13:17:06.000Z</time>
      </trkpt>
      <trkpt lat="43.52575" lon="5.53806">
        <ele>325</ele>
        <time>2018-02-20T13:17:07.000Z</time>
      </trkpt>
      <trkpt lat="43.52575" lon="5.53806">
        <ele>325</ele>
        <time>2018-02-20T13:17:08.000Z</time>
      </trkpt>
      <trkpt lat="43.52575" lon="5.53806">
        <ele>324</ele>
        <time>2018-02-20T13:17:09.000Z</time>
      </trkpt>
      <trkpt lat="43.52574" lon="5.53806">
        <ele>325</ele>
        <time>2018-02-20T13:17:10.000Z</time>
      </trkpt>
      <trkpt lat="43.52574" lon="5.53806">
        <ele>325</ele>
        <time>2018-02-20T13:17:11.000Z</time>
      </trkpt>
      <trkpt lat="43.52574" lon="5.53806">
        <ele>325</ele>
        <time>2018-02-20T13:17:12.000Z</time>
      </trkpt>
      <trkpt lat="43.52574" lon="5.53806">
        <ele>325</ele>
        <time>2018-02-20T13:17:13.000Z</time>
      </trkpt>
      <trkpt lat="43.52574" lon="5.53806">
        <ele>325</ele>
        <time>2018-02-20T13:17:14.000Z</time>
      </trkpt>
      <trkpt lat="43.52574" lon="5.53806">
        <ele>325</ele>
        <time>2018-02-20T13:17:15.000Z</time>
      </trkpt>
      <trkpt lat="43.52574" lon="5.53806">
        <ele>325</ele>
        <time>2018-02-20T13:17:16.000Z</time>
      </trkpt>
      <trkpt lat="43.52574" lon="5.53806">
        <ele>325</ele>
        <time>2018-02-20T13:17:17.000Z</time>
      </trkpt>
      <trkpt lat="43.52574" lon="5.53806">
        <ele>325</ele>
        <time>2018-02-20T13:17:18.000Z</time>
      </trkpt>
      <trkpt lat="43.52574" lon="5.53806">
        <ele>325</ele>
        <time>2018-02-20T13:17:19.000Z</time>
      </trkpt>
      <trkpt lat="43.52574" lon="5.53806">
        <ele>325</ele>
        <time>2018-02-20T13:17:20.000Z</time>
      </trkpt>
      <trkpt lat="43.52574" lon="5.53806">
        <ele>325</ele>
        <time>2018-02-20T13:17:21.000Z</time>
      </trkpt>
      <trkpt lat="43.52574" lon="5.53806">
        <ele>325</ele>
        <time>2018-02-20T13:17:22.000Z</time>
      </trkpt>
      <trkpt lat="43.52574" lon="5.53806">
        <ele>325</ele>
        <time>2018-02-20T13:17:23.000Z</time>
      </trkpt>
      <trkpt lat="43.52574" lon="5.53806">
        <ele>325</ele>
        <time>2018-02-20T13:17:24.000Z</time>
      </trkpt>
      <trkpt lat="43.52574" lon="5.53806">
        <ele>325</ele>
        <time>2018-02-20T13:17:25.000Z</time>
      </trkpt>
      <trkpt lat="43.52574" lon="5.53806">
        <ele>325</ele>
        <time>2018-02-20T13:17:26.000Z</time>
      </trkpt>
      <trkpt lat="43.52574" lon="5.53806">
        <ele>325</ele>
        <time>2018-02-20T13:17:27.000Z</time>
      </trkpt>
      <trkpt lat="43.52574" lon="5.53806">
        <ele>325</ele>
        <time>2018-02-20T13:17:28.000Z</time>
      </trkpt>
      <trkpt lat="43.52574" lon="5.53805">
        <ele>325</ele>
        <time>2018-02-20T13:17:29.000Z</time>
      </trkpt>
      <trkpt lat="43.52574" lon="5.53805">
        <ele>325</ele>
        <time>2018-02-20T13:17:30.000Z</time>
      </trkpt>
      <trkpt lat="43.52574" lon="5.53805">
        <ele>325</ele>
        <time>2018-02-20T13:17:31.000Z</time>
      </trkpt>
      <trkpt lat="43.52575" lon="5.53806">
        <ele>325</ele>
        <time>2018-02-20T13:17:32.000Z</time>
      </trkpt>
      <trkpt lat="43.52575" lon="5.53806">
        <ele>325</ele>
        <time>2018-02-20T13:17:33.000Z</time>
      </trkpt>
      <trkpt lat="43.52575" lon="5.53806">
        <ele>325</ele>
        <time>2018-02-20T13:17:34.000Z</time>
      </trkpt>
      <trkpt lat="43.52574" lon="5.53805">
        <ele>325</ele>
        <time>2018-02-20T13:17:35.000Z</time>
      </trkpt>
      <trkpt lat="43.52574" lon="5.53805">
        <ele>325</ele>
        <time>2018-02-20T13:17:36.000Z</time>
      </trkpt>
      <trkpt lat="43.52574" lon="5.53805">
        <ele>325</ele>
        <time>2018-02-20T13:17:37.000Z</time>
      </trkpt>
      <trkpt lat="43.52574" lon="5.53805">
        <ele>325</ele>
        <time>2018-02-20T13:17:38.000Z</time>
      </trkpt>
      <trkpt lat="43.52574" lon="5.53805">
        <ele>325</ele>
        <time>2018-02-20T13:17:39.000Z</time>
      </trkpt>
      <trkpt lat="43.52574" lon="5.53805">
        <ele>325</ele>
        <time>2018-02-20T13:17:40.000Z</time>
      </trkpt>
      <trkpt lat="43.52574" lon="5.53805">
        <ele>325</ele>
        <time>2018-02-20T13:17:41.000Z</time>
      </trkpt>
      <trkpt lat="43.52575" lon="5.53805">
        <ele>325</ele>
        <time>2018-02-20T13:17:42.000Z</time>
      </trkpt>
      <trkpt lat="43.52575" lon="5.53805">
        <ele>325</ele>
        <time>2018-02-20T13:17:43.000Z</time>
      </trkpt>
      <trkpt lat="43.52575" lon="5.53805">
        <ele>325</ele>
        <time>2018-02-20T13:17:44.000Z</time>
      </trkpt>
      <trkpt lat="43.52575" lon="5.53805">
        <ele>325</ele>
        <time>2018-02-20T13:17:45.000Z</time>
      </trkpt>
      <trkpt lat="43.52575" lon="5.53805">
        <ele>325</ele>
        <time>2018-02-20T13:17:46.000Z</time>
      </trkpt>
      <trkpt lat="43.52575" lon="5.53805">
        <ele>325</ele>
        <time>2018-02-20T13:17:47.000Z</time>
      </trkpt>
      <trkpt lat="43.52575" lon="5.53805">
        <ele>325</ele>
        <time>2018-02-20T13:17:48.000Z</time>
      </trkpt>
      <trkpt lat="43.52575" lon="5.53805">
        <ele>325</ele>
        <time>2018-02-20T13:17:49.000Z</time>
      </trkpt>
      <trkpt lat="43.52575" lon="5.53805">
        <ele>325</ele>
        <time>2018-02-20T13:17:50.000Z</time>
      </trkpt>
      <trkpt lat="43.52574" lon="5.53805">
        <ele>325</ele>
        <time>2018-02-20T13:17:51.000Z</time>
      </trkpt>
      <trkpt lat="43.52574" lon="5.53805">
        <ele>325</ele>
        <time>2018-02-20T13:17:52.000Z</time>
      </trkpt>
      <trkpt lat="43.52574" lon="5.53805">
        <ele>325</ele>
        <time>2018-02-20T13:17:53.000Z</time>
      </trkpt>
      <trkpt lat="43.52574" lon="5.53805">
        <ele>325</ele>
        <time>2018-02-20T13:17:54.000Z</time>
      </trkpt>
      <trkpt lat="43.52574" lon="5.53805">
        <ele>325</ele>
        <time>2018-02-20T13:17:55.000Z</time>
      </trkpt>
      <trkpt lat="43.52575" lon="5.53805">
        <ele>325</ele>
        <time>2018-02-20T13:17:56.000Z</time>
      </trkpt>
      <trkpt lat="43.52575" lon="5.53805">
        <ele>325</ele>
        <time>2018-02-20T13:17:57.000Z</time>
      </trkpt>
      <trkpt lat="43.52575" lon="5.53805">
        <ele>325</ele>
        <time>2018-02-20T13:17:58.000Z</time>
      </trkpt>
      <trkpt lat="43.52575" lon="5.53805">
        <ele>325</ele>
        <time>2018-02-20T13:17:59.000Z</time>
      </trkpt>
      <trkpt lat="43.52575" lon="5.53805">
        <ele>325</ele>
        <time>2018-02-20T13:18:00.000Z</time>
      </trkpt>
      <trkpt lat="43.52574" lon="5.53805">
        <ele>325</ele>
        <time>2018-02-20T13:18:01.000Z</time>
      </trkpt>
      <trkpt lat="43.52574" lon="5.53803">
        <ele>325</ele>
        <time>2018-02-20T13:18:02.000Z</time>
      </trkpt>
      <trkpt lat="43.52573" lon="5.53802">
        <ele>325</ele>
        <time>2018-02-20T13:18:03.000Z</time>
      </trkpt>
      <trkpt lat="43.52573" lon="5.53801">
        <ele>325</ele>
        <time>2018-02-20T13:18:04.000Z</time>
      </trkpt>
      <trkpt lat="43.52572" lon="5.53799">
        <ele>325</ele>
        <time>2018-02-20T13:18:05.000Z</time>
      </trkpt>
      <trkpt lat="43.52572" lon="5.53798">
        <ele>325</ele>
        <time>2018-02-20T13:18:06.000Z</time>
      </trkpt>
      <trkpt lat="43.52571" lon="5.53796">
        <ele>325</ele>
        <time>2018-02-20T13:18:07.000Z</time>
      </trkpt>
      <trkpt lat="43.52571" lon="5.53795">
        <ele>325</ele>
        <time>2018-02-20T13:18:08.000Z</time>
      </trkpt>
      <trkpt lat="43.5257" lon="5.53794">
        <ele>325</ele>
        <time>2018-02-20T13:18:09.000Z</time>
      </trkpt>
      <trkpt lat="43.52569" lon="5.53793">
        <ele>325</ele>
        <time>2018-02-20T13:18:10.000Z</time>
      </trkpt>
      <trkpt lat="43.52569" lon="5.53792">
        <ele>325</ele>
        <time>2018-02-20T13:18:11.000Z</time>
      </trkpt>
      <trkpt lat="43.52569" lon="5.5379">
        <ele>325</ele>
        <time>2018-02-20T13:18:12.000Z</time>
      </trkpt>
      <trkpt lat="43.52568" lon="5.53788">
        <ele>325</ele>
        <time>2018-02-20T13:18:13.000Z</time>
      </trkpt>
      <trkpt lat="43.52568" lon="5.53787">
        <ele>325</ele>
        <time>2018-02-20T13:18:14.000Z</time>
      </trkpt>
      <trkpt lat="43.52567" lon="5.53785">
        <ele>325</ele>
        <time>2018-02-20T13:18:15.000Z</time>
      </trkpt>
      <trkpt lat="43.52566" lon="5.53784">
        <ele>324</ele>
        <time>2018-02-20T13:18:16.000Z</time>
      </trkpt>
      <trkpt lat="43.52566" lon="5.53783">
        <ele>324</ele>
        <time>2018-02-20T13:18:17.000Z</time>
      </trkpt>
      <trkpt lat="43.52565" lon="5.53781">
        <ele>324</ele>
        <time>2018-02-20T13:18:18.000Z</time>
      </trkpt>
      <trkpt lat="43.52565" lon="5.5378">
        <ele>324</ele>
        <time>2018-02-20T13:18:19.000Z</time>
      </trkpt>
      <trkpt lat="43.52564" lon="5.53779">
        <ele>324</ele>
        <time>2018-02-20T13:18:20.000Z</time>
      </trkpt>
      <trkpt lat="43.52564" lon="5.53777">
        <ele>324</ele>
        <time>2018-02-20T13:18:21.000Z</time>
      </trkpt>
      <trkpt lat="43.52563" lon="5.53776">
        <ele>324</ele>
        <time>2018-02-20T13:18:22.000Z</time>
      </trkpt>
      <trkpt lat="43.52562" lon="5.53774">
        <ele>324</ele>
        <time>2018-02-20T13:18:23.000Z</time>
      </trkpt>
      <trkpt lat="43.52562" lon="5.53773">
        <ele>324</ele>
        <time>2018-02-20T13:18:24.000Z</time>
      </trkpt>
      <trkpt lat="43.52562" lon="5.53772">
        <ele>324</ele>
        <time>2018-02-20T13:18:25.000Z</time>
      </trkpt>
      <trkpt lat="43.52561" lon="5.53771">
        <ele>324</ele>
        <time>2018-02-20T13:18:26.000Z</time>
      </trkpt>
      <trkpt lat="43.52561" lon="5.5377">
        <ele>324</ele>
        <time>2018-02-20T13:18:27.000Z</time>
      </trkpt>
      <trkpt lat="43.52561" lon="5.53769">
        <ele>324</ele>
        <time>2018-02-20T13:18:28.000Z</time>
      </trkpt>
      <trkpt lat="43.52561" lon="5.53769">
        <ele>324</ele>
        <time>2018-02-20T13:18:29.000Z</time>
      </trkpt>
      <trkpt lat="43.52561" lon="5.53769">
        <ele>324</ele>
        <time>2018-02-20T13:18:30.000Z</time>
      </trkpt>
      <trkpt lat="43.5256" lon="5.53768">
        <ele>324</ele>
        <time>2018-02-20T13:18:31.000Z</time>
      </trkpt>
      <trkpt lat="43.5256" lon="5.53766">
        <ele>323</ele>
        <time>2018-02-20T13:18:32.000Z</time>
      </trkpt>
      <trkpt lat="43.5256" lon="5.53765">
        <ele>323</ele>
        <time>2018-02-20T13:18:33.000Z</time>
      </trkpt>
      <trkpt lat="43.52559" lon="5.53764">
        <ele>323</ele>
        <time>2018-02-20T13:18:34.000Z</time>
      </trkpt>
      <trkpt lat="43.52559" lon="5.53762">
        <ele>323</ele>
        <time>2018-02-20T13:18:35.000Z</time>
      </trkpt>
      <trkpt lat="43.52558" lon="5.5376">
        <ele>323</ele>
        <time>2018-02-20T13:18:36.000Z</time>
      </trkpt>
      <trkpt lat="43.52558" lon="5.53759">
        <ele>323</ele>
        <time>2018-02-20T13:18:37.000Z</time>
      </trkpt>
      <trkpt lat="43.52558" lon="5.53757">
        <ele>324</ele>
        <time>2018-02-20T13:18:38.000Z</time>
      </trkpt>
      <trkpt lat="43.52557" lon="5.53756">
        <ele>324</ele>
        <time>2018-02-20T13:18:39.000Z</time>
      </trkpt>
      <trkpt lat="43.52557" lon="5.53754">
        <ele>324</ele>
        <time>2018-02-20T13:18:40.000Z</time>
      </trkpt>
      <trkpt lat="43.52557" lon="5.53753">
        <ele>324</ele>
        <time>2018-02-20T13:18:41.000Z</time>
      </trkpt>
      <trkpt lat="43.52556" lon="5.53752">
        <ele>324</ele>
        <time>2018-02-20T13:18:42.000Z</time>
      </trkpt>
      <trkpt lat="43.52556" lon="5.5375">
        <ele>324</ele>
        <time>2018-02-20T13:18:43.000Z</time>
      </trkpt>
      <trkpt lat="43.52556" lon="5.5375">
        <ele>323</ele>
        <time>2018-02-20T13:18:44.000Z</time>
      </trkpt>
      <trkpt lat="43.52555" lon="5.53749">
        <ele>323</ele>
        <time>2018-02-20T13:18:45.000Z</time>
      </trkpt>
      <trkpt lat="43.52555" lon="5.53748">
        <ele>323</ele>
        <time>2018-02-20T13:18:46.000Z</time>
      </trkpt>
      <trkpt lat="43.52555" lon="5.53748">
        <ele>323</ele>
        <time>2018-02-20T13:18:47.000Z</time>
      </trkpt>
      <trkpt lat="43.52555" lon="5.53748">
        <ele>323</ele>
        <time>2018-02-20T13:18:48.000Z</time>
      </trkpt>
      <trkpt lat="43.52555" lon="5.53748">
        <ele>323</ele>
        <time>2018-02-20T13:18:49.000Z</time>
      </trkpt>
      <trkpt lat="43.52555" lon="5.53748">
        <ele>323</ele>
        <time>2018-02-20T13:18:50.000Z</time>
      </trkpt>
      <trkpt lat="43.52555" lon="5.53748">
        <ele>323</ele>
        <time>2018-02-20T13:18:51.000Z</time>
      </trkpt>
      <trkpt lat="43.52555" lon="5.53748">
        <ele>323</ele>
        <time>2018-02-20T13:18:52.000Z</time>
      </trkpt>
      <trkpt lat="43.52555" lon="5.53748">
        <ele>323</ele>
        <time>2018-02-20T13:18:53.000Z</time>
      </trkpt>
      <trkpt lat="43.52554" lon="5.53747">
        <ele>323</ele>
        <time>2018-02-20T13:18:54.000Z</time>
      </trkpt>
      <trkpt lat="43.52554" lon="5.53747">
        <ele>323</ele>
        <time>2018-02-20T13:18:55.000Z</time>
      </trkpt>
      <trkpt lat="43.52554" lon="5.53747">
        <ele>323</ele>
        <time>2018-02-20T13:18:56.000Z</time>
      </trkpt>
      <trkpt lat="43.52554" lon="5.53747">
        <ele>323</ele>
        <time>2018-02-20T13:18:57.000Z</time>
      </trkpt>
      <trkpt lat="43.52554" lon="5.53746">
        <ele>323</ele>
        <time>2018-02-20T13:18:58.000Z</time>
      </trkpt>
      <trkpt lat="43.52554" lon="5.53746">
        <ele>323</ele>
        <time>2018-02-20T13:18:59.000Z</time>
      </trkpt>
      <trkpt lat="43.52553" lon="5.53746">
        <ele>323</ele>
        <time>2018-02-20T13:19:00.000Z</time>
      </trkpt>
      <trkpt lat="43.52553" lon="5.53746">
        <ele>323</ele>
        <time>2018-02-20T13:19:01.000Z</time>
      </trkpt>
      <trkpt lat="43.52553" lon="5.53746">
        <ele>323</ele>
        <time>2018-02-20T13:19:02.000Z</time>
      </trkpt>
      <trkpt lat="43.52553" lon="5.53746">
        <ele>324</ele>
        <time>2018-02-20T13:19:03.000Z</time>
      </trkpt>
      <trkpt lat="43.52553" lon="5.53746">
        <ele>324</ele>
        <time>2018-02-20T13:19:04.000Z</time>
      </trkpt>
      <trkpt lat="43.52553" lon="5.53746">
        <ele>324</ele>
        <time>2018-02-20T13:19:05.000Z</time>
      </trkpt>
      <trkpt lat="43.52553" lon="5.53746">
        <ele>324</ele>
        <time>2018-02-20T13:19:06.000Z</time>
      </trkpt>
      <trkpt lat="43.52553" lon="5.53746">
        <ele>324</ele>
        <time>2018-02-20T13:19:07.000Z</time>
      </trkpt>
      <trkpt lat="43.52553" lon="5.53746">
        <ele>324</ele>
        <time>2018-02-20T13:19:08.000Z</time>
      </trkpt>
      <trkpt lat="43.52553" lon="5.53745">
        <ele>324</ele>
        <time>2018-02-20T13:19:09.000Z</time>
      </trkpt>
      <trkpt lat="43.52553" lon="5.53745">
        <ele>324</ele>
        <time>2018-02-20T13:19:10.000Z</time>
      </trkpt>
      <trkpt lat="43.52552" lon="5.53744">
        <ele>324</ele>
        <time>2018-02-20T13:19:11.000Z</time>
      </trkpt>
      <trkpt lat="43.52552" lon="5.53744">
        <ele>324</ele>
        <time>2018-02-20T13:19:12.000Z</time>
      </trkpt>
      <trkpt lat="43.52552" lon="5.53743">
        <ele>324</ele>
        <time>2018-02-20T13:19:13.000Z</time>
      </trkpt>
      <trkpt lat="43.52552" lon="5.53743">
        <ele>324</ele>
        <time>2018-02-20T13:19:14.000Z</time>
      </trkpt>
      <trkpt lat="43.52552" lon="5.53743">
        <ele>324</ele>
        <time>2018-02-20T13:19:15.000Z</time>
      </trkpt>
      <trkpt lat="43.52552" lon="5.53743">
        <ele>324</ele>
        <time>2018-02-20T13:19:16.000Z</time>
      </trkpt>
      <trkpt lat="43.52551" lon="5.53742">
        <ele>324</ele>
        <time>2018-02-20T13:19:17.000Z</time>
      </trkpt>
      <trkpt lat="43.52551" lon="5.53742">
        <ele>324</ele>
        <time>2018-02-20T13:19:18.000Z</time>
      </trkpt>
      <trkpt lat="43.52551" lon="5.53741">
        <ele>324</ele>
        <time>2018-02-20T13:19:19.000Z</time>
      </trkpt>
      <trkpt lat="43.52551" lon="5.53741">
        <ele>324</ele>
        <time>2018-02-20T13:19:20.000Z</time>
      </trkpt>
      <trkpt lat="43.5255" lon="5.53741">
        <ele>324</ele>
        <time>2018-02-20T13:19:21.000Z</time>
      </trkpt>
      <trkpt lat="43.5255" lon="5.53741">
        <ele>324</ele>
        <time>2018-02-20T13:19:22.000Z</time>
      </trkpt>
      <trkpt lat="43.5255" lon="5.53741">
        <ele>324</ele>
        <time>2018-02-20T13:19:23.000Z</time>
      </trkpt>
      <trkpt lat="43.5255" lon="5.53741">
        <ele>324</ele>
        <time>2018-02-20T13:19:24.000Z</time>
      </trkpt>
      <trkpt lat="43.5255" lon="5.5374">
        <ele>324</ele>
        <time>2018-02-20T13:19:25.000Z</time>
      </trkpt>
      <trkpt lat="43.5255" lon="5.53739">
        <ele>324</ele>
        <time>2018-02-20T13:19:26.000Z</time>
      </trkpt>
      <trkpt lat="43.5255" lon="5.53738">
        <ele>324</ele>
        <time>2018-02-20T13:19:27.000Z</time>
      </trkpt>
      <trkpt lat="43.5255" lon="5.53736">
        <ele>324</ele>
        <time>2018-02-20T13:19:28.000Z</time>
      </trkpt>
      <trkpt lat="43.5255" lon="5.53735">
        <ele>324</ele>
        <time>2018-02-20T13:19:29.000Z</time>
      </trkpt>
      <trkpt lat="43.5255" lon="5.53735">
        <ele>324</ele>
        <time>2018-02-20T13:19:30.000Z</time>
      </trkpt>
      <trkpt lat="43.5255" lon="5.53735">
        <ele>324</ele>
        <time>2018-02-20T13:19:31.000Z</time>
      </trkpt>
      <trkpt lat="43.52549" lon="5.53735">
        <ele>324</ele>
        <time>2018-02-20T13:19:32.000Z</time>
      </trkpt>
      <trkpt lat="43.52549" lon="5.53734">
        <ele>324</ele>
        <time>2018-02-20T13:19:33.000Z</time>
      </trkpt>
      <trkpt lat="43.52548" lon="5.53733">
        <ele>324</ele>
        <time>2018-02-20T13:19:34.000Z</time>
      </trkpt>
      <trkpt lat="43.52548" lon="5.53732">
        <ele>324</ele>
        <time>2018-02-20T13:19:35.000Z</time>
      </trkpt>
      <trkpt lat="43.52547" lon="5.53731">
        <ele>324</ele>
        <time>2018-02-20T13:19:36.000Z</time>
      </trkpt>
      <trkpt lat="43.52547" lon="5.53729">
        <ele>323</ele>
        <time>2018-02-20T13:19:37.000Z</time>
      </trkpt>
      <trkpt lat="43.52547" lon="5.53728">
        <ele>323</ele>
        <time>2018-02-20T13:19:38.000Z</time>
      </trkpt>
      <trkpt lat="43.52547" lon="5.53726">
        <ele>323</ele>
        <time>2018-02-20T13:19:39.000Z</time>
      </trkpt>
      <trkpt lat="43.52547" lon="5.53725">
        <ele>323</ele>
        <time>2018-02-20T13:19:40.000Z</time>
      </trkpt>
      <trkpt lat="43.52547" lon="5.53724">
        <ele>323</ele>
        <time>2018-02-20T13:19:41.000Z</time>
      </trkpt>
      <trkpt lat="43.52546" lon="5.53722">
        <ele>323</ele>
        <time>2018-02-20T13:19:42.000Z</time>
      </trkpt>
      <trkpt lat="43.52546" lon="5.5372">
        <ele>323</ele>
        <time>2018-02-20T13:19:43.000Z</time>
      </trkpt>
      <trkpt lat="43.52546" lon="5.53719">
        <ele>323</ele>
        <time>2018-02-20T13:19:44.000Z</time>
      </trkpt>
      <trkpt lat="43.52546" lon="5.53718">
        <ele>323</ele>
        <time>2018-02-20T13:19:45.000Z</time>
      </trkpt>
      <trkpt lat="43.52546" lon="5.53717">
        <ele>322</ele>
        <time>2018-02-20T13:19:46.000Z</time>
      </trkpt>
      <trkpt lat="43.52546" lon="5.53716">
        <ele>322</ele>
        <time>2018-02-20T13:19:47.000Z</time>
      </trkpt>
      <trkpt lat="43.52546" lon="5.53714">
        <ele>322</ele>
        <time>2018-02-20T13:19:48.000Z</time>
      </trkpt>
      <trkpt lat="43.52546" lon="5.53713">
        <ele>322</ele>
        <time>2018-02-20T13:19:49.000Z</time>
      </trkpt>
      <trkpt lat="43.52546" lon="5.53711">
        <ele>322</ele>
        <time>2018-02-20T13:19:50.000Z</time>
      </trkpt>
      <trkpt lat="43.52546" lon="5.5371">
        <ele>322</ele>
        <time>2018-02-20T13:19:51.000Z</time>
      </trkpt>
      <trkpt lat="43.52546" lon="5.53708">
        <ele>322</ele>
        <time>2018-02-20T13:19:52.000Z</time>
      </trkpt>
      <trkpt lat="43.52546" lon="5.53707">
        <ele>322</ele>
        <time>2018-02-20T13:19:53.000Z</time>
      </trkpt>
      <trkpt lat="43.52546" lon="5.53706">
        <ele>322</ele>
        <time>2018-02-20T13:19:54.000Z</time>
      </trkpt>
      <trkpt lat="43.52546" lon="5.53704">
        <ele>322</ele>
        <time>2018-02-20T13:19:55.000Z</time>
      </trkpt>
      <trkpt lat="43.52546" lon="5.53703">
        <ele>322</ele>
        <time>2018-02-20T13:19:56.000Z</time>
      </trkpt>
      <trkpt lat="43.52546" lon="5.53702">
        <ele>322</ele>
        <time>2018-02-20T13:19:57.000Z</time>
      </trkpt>
      <trkpt lat="43.52547" lon="5.537">
        <ele>321</ele>
        <time>2018-02-20T13:19:58.000Z</time>
      </trkpt>
      <trkpt lat="43.52547" lon="5.53699">
        <ele>321</ele>
        <time>2018-02-20T13:19:59.000Z</time>
      </trkpt>
      <trkpt lat="43.52547" lon="5.53698">
        <ele>321</ele>
        <time>2018-02-20T13:20:00.000Z</time>
      </trkpt>
      <trkpt lat="43.52548" lon="5.53696">
        <ele>321</ele>
        <time>2018-02-20T13:20:01.000Z</time>
      </trkpt>
      <trkpt lat="43.52548" lon="5.53695">
        <ele>321</ele>
        <time>2018-02-20T13:20:02.000Z</time>
      </trkpt>
      <trkpt lat="43.52548" lon="5.53693">
        <ele>320</ele>
        <time>2018-02-20T13:20:03.000Z</time>
      </trkpt>
      <trkpt lat="43.52548" lon="5.53692">
        <ele>320</ele>
        <time>2018-02-20T13:20:04.000Z</time>
      </trkpt>
      <trkpt lat="43.52547" lon="5.5369">
        <ele>320</ele>
        <time>2018-02-20T13:20:05.000Z</time>
      </trkpt>
      <trkpt lat="43.52547" lon="5.53688">
        <ele>320</ele>
        <time>2018-02-20T13:20:06.000Z</time>
      </trkpt>
      <trkpt lat="43.52547" lon="5.53687">
        <ele>320</ele>
        <time>2018-02-20T13:20:07.000Z</time>
      </trkpt>
      <trkpt lat="43.52547" lon="5.53686">
        <ele>320</ele>
        <time>2018-02-20T13:20:08.000Z</time>
      </trkpt>
      <trkpt lat="43.52546" lon="5.53685">
        <ele>320</ele>
        <time>2018-02-20T13:20:09.000Z</time>
      </trkpt>
      <trkpt lat="43.52546" lon="5.53685">
        <ele>320</ele>
        <time>2018-02-20T13:20:10.000Z</time>
      </trkpt>
      <trkpt lat="43.52546" lon="5.53685">
        <ele>320</ele>
        <time>2018-02-20T13:20:11.000Z</time>
      </trkpt>
      <trkpt lat="43.52546" lon="5.53685">
        <ele>319</ele>
        <time>2018-02-20T13:20:12.000Z</time>
      </trkpt>
      <trkpt lat="43.52546" lon="5.53685">
        <ele>319</ele>
        <time>2018-02-20T13:20:13.000Z</time>
      </trkpt>
      <trkpt lat="43.52546" lon="5.53685">
        <ele>319</ele>
        <time>2018-02-20T13:20:14.000Z</time>
      </trkpt>
      <trkpt lat="43.52546" lon="5.53685">
        <ele>319</ele>
        <time>2018-02-20T13:20:15.000Z</time>
      </trkpt>
      <trkpt lat="43.52547" lon="5.53685">
        <ele>319</ele>
        <time>2018-02-20T13:20:16.000Z</time>
      </trkpt>
      <trkpt lat="43.52547" lon="5.53685">
        <ele>319</ele>
        <time>2018-02-20T13:20:17.000Z</time>
      </trkpt>
      <trkpt lat="43.52547" lon="5.53685">
        <ele>319</ele>
        <time>2018-02-20T13:20:18.000Z</time>
      </trkpt>
      <trkpt lat="43.52547" lon="5.53685">
        <ele>319</ele>
        <time>2018-02-20T13:20:19.000Z</time>
      </trkpt>
      <trkpt lat="43.52547" lon="5.53685">
        <ele>319</ele>
        <time>2018-02-20T13:20:20.000Z</time>
      </trkpt>
      <trkpt lat="43.52547" lon="5.53685">
        <ele>319</ele>
        <time>2018-02-20T13:20:21.000Z</time>
      </trkpt>
      <trkpt lat="43.52547" lon="5.53685">
        <ele>319</ele>
        <time>2018-02-20T13:20:22.000Z</time>
      </trkpt>
      <trkpt lat="43.52547" lon="5.53685">
        <ele>319</ele>
        <time>2018-02-20T13:20:23.000Z</time>
      </trkpt>
      <trkpt lat="43.52547" lon="5.53685">
        <ele>319</ele>
        <time>2018-02-20T13:20:24.000Z</time>
      </trkpt>
      <trkpt lat="43.52547" lon="5.53685">
        <ele>319</ele>
        <time>2018-02-20T13:20:25.000Z</time>
      </trkpt>
      <trkpt lat="43.52547" lon="5.53685">
        <ele>319</ele>
        <time>2018-02-20T13:20:26.000Z</time>
      </trkpt>
      <trkpt lat="43.52547" lon="5.53685">
        <ele>318</ele>
        <time>2018-02-20T13:20:27.000Z</time>
      </trkpt>
      <trkpt lat="43.52547" lon="5.53685">
        <ele>318</ele>
        <time>2018-02-20T13:20:28.000Z</time>
      </trkpt>
      <trkpt lat="43.52548" lon="5.53685">
        <ele>318</ele>
        <time>2018-02-20T13:20:29.000Z</time>
      </trkpt>
      <trkpt lat="43.52548" lon="5.53685">
        <ele>318</ele>
        <time>2018-02-20T13:20:30.000Z</time>
      </trkpt>
      <trkpt lat="43.52548" lon="5.53685">
        <ele>318</ele>
        <time>2018-02-20T13:20:31.000Z</time>
      </trkpt>
      <trkpt lat="43.52548" lon="5.53685">
        <ele>318</ele>
        <time>2018-02-20T13:20:32.000Z</time>
      </trkpt>
      <trkpt lat="43.52548" lon="5.53686">
        <ele>318</ele>
        <time>2018-02-20T13:20:33.000Z</time>
      </trkpt>
      <trkpt lat="43.52547" lon="5.53687">
        <ele>318</ele>
        <time>2018-02-20T13:20:34.000Z</time>
      </trkpt>
      <trkpt lat="43.52547" lon="5.53688">
        <ele>318</ele>
        <time>2018-02-20T13:20:35.000Z</time>
      </trkpt>
      <trkpt lat="43.52546" lon="5.53689">
        <ele>318</ele>
        <time>2018-02-20T13:20:36.000Z</time>
      </trkpt>
      <trkpt lat="43.52546" lon="5.53691">
        <ele>318</ele>
        <time>2018-02-20T13:20:37.000Z</time>
      </trkpt>
      <trkpt lat="43.52545" lon="5.53692">
        <ele>318</ele>
        <time>2018-02-20T13:20:38.000Z</time>
      </trkpt>
      <trkpt lat="43.52544" lon="5.53694">
        <ele>318</ele>
        <time>2018-02-20T13:20:39.000Z</time>
      </trkpt>
      <trkpt lat="43.52543" lon="5.53695">
        <ele>318</ele>
        <time>2018-02-20T13:20:40.000Z</time>
      </trkpt>
      <trkpt lat="43.52542" lon="5.53697">
        <ele>318</ele>
        <time>2018-02-20T13:20:41.000Z</time>
      </trkpt>
      <trkpt lat="43.52541" lon="5.53698">
        <ele>318</ele>
        <time>2018-02-20T13:20:42.000Z</time>
      </trkpt>
      <trkpt lat="43.5254" lon="5.537">
        <ele>318</ele>
        <time>2018-02-20T13:20:43.000Z</time>
      </trkpt>
      <trkpt lat="43.52539" lon="5.53702">
        <ele>318</ele>
        <time>2018-02-20T13:20:44.000Z</time>
      </trkpt>
      <trkpt lat="43.52538" lon="5.53703">
        <ele>318</ele>
        <time>2018-02-20T13:20:45.000Z</time>
      </trkpt>
      <trkpt lat="43.52538" lon="5.53705">
        <ele>318</ele>
        <time>2018-02-20T13:20:46.000Z</time>
      </trkpt>
      <trkpt lat="43.52537" lon="5.53706">
        <ele>318</ele>
        <time>2018-02-20T13:20:47.000Z</time>
      </trkpt>
      <trkpt lat="43.52537" lon="5.53707">
        <ele>318</ele>
        <time>2018-02-20T13:20:48.000Z</time>
      </trkpt>
      <trkpt lat="43.52536" lon="5.53708">
        <ele>318</ele>
        <time>2018-02-20T13:20:49.000Z</time>
      </trkpt>
      <trkpt lat="43.52535" lon="5.5371">
        <ele>318</ele>
        <time>2018-02-20T13:20:50.000Z</time>
      </trkpt>
      <trkpt lat="43.52535" lon="5.53711">
        <ele>318</ele>
        <time>2018-02-20T13:20:51.000Z</time>
      </trkpt>
      <trkpt lat="43.52534" lon="5.53713">
        <ele>318</ele>
        <time>2018-02-20T13:20:52.000Z</time>
      </trkpt>
      <trkpt lat="43.52533" lon="5.53714">
        <ele>318</ele>
        <time>2018-02-20T13:20:53.000Z</time>
      </trkpt>
      <trkpt lat="43.52533" lon="5.53715">
        <ele>318</ele>
        <time>2018-02-20T13:20:54.000Z</time>
      </trkpt>
      <trkpt lat="43.52532" lon="5.53717">
        <ele>318</ele>
        <time>2018-02-20T13:20:55.000Z</time>
      </trkpt>
      <trkpt lat="43.52532" lon="5.53718">
        <ele>318</ele>
        <time>2018-02-20T13:20:56.000Z</time>
      </trkpt>
      <trkpt lat="43.52531" lon="5.5372">
        <ele>318</ele>
        <time>2018-02-20T13:20:57.000Z</time>
      </trkpt>
      <trkpt lat="43.52531" lon="5.53722">
        <ele>318</ele>
        <time>2018-02-20T13:20:58.000Z</time>
      </trkpt>
      <trkpt lat="43.52531" lon="5.53723">
        <ele>318</ele>
        <time>2018-02-20T13:20:59.000Z</time>
      </trkpt>
      <trkpt lat="43.5253" lon="5.53725">
        <ele>318</ele>
        <time>2018-02-20T13:21:00.000Z</time>
      </trkpt>
      <trkpt lat="43.5253" lon="5.53727">
        <ele>318</ele>
        <time>2018-02-20T13:21:01.000Z</time>
      </trkpt>
      <trkpt lat="43.5253" lon="5.53728">
        <ele>318</ele>
        <time>2018-02-20T13:21:02.000Z</time>
      </trkpt>
      <trkpt lat="43.52529" lon="5.5373">
        <ele>318</ele>
        <time>2018-02-20T13:21:03.000Z</time>
      </trkpt>
      <trkpt lat="43.52528" lon="5.53731">
        <ele>318</ele>
        <time>2018-02-20T13:21:04.000Z</time>
      </trkpt>
      <trkpt lat="43.52527" lon="5.53733">
        <ele>318</ele>
        <time>2018-02-20T13:21:05.000Z</time>
      </trkpt>
      <trkpt lat="43.52527" lon="5.53734">
        <ele>318</ele>
        <time>2018-02-20T13:21:06.000Z</time>
      </trkpt>
      <trkpt lat="43.52526" lon="5.53735">
        <ele>318</ele>
        <time>2018-02-20T13:21:07.000Z</time>
      </trkpt>
      <trkpt lat="43.52525" lon="5.53736">
        <ele>318</ele>
        <time>2018-02-20T13:21:08.000Z</time>
      </trkpt>
      <trkpt lat="43.52524" lon="5.53738">
        <ele>318</ele>
        <time>2018-02-20T13:21:09.000Z</time>
      </trkpt>
      <trkpt lat="43.52523" lon="5.53738">
        <ele>318</ele>
        <time>2018-02-20T13:21:10.000Z</time>
      </trkpt>
      <trkpt lat="43.52522" lon="5.5374">
        <ele>318</ele>
        <time>2018-02-20T13:21:11.000Z</time>
      </trkpt>
      <trkpt lat="43.52522" lon="5.53741">
        <ele>318</ele>
        <time>2018-02-20T13:21:12.000Z</time>
      </trkpt>
      <trkpt lat="43.52521" lon="5.53742">
        <ele>318</ele>
        <time>2018-02-20T13:21:13.000Z</time>
      </trkpt>
      <trkpt lat="43.5252" lon="5.53743">
        <ele>318</ele>
        <time>2018-02-20T13:21:14.000Z</time>
      </trkpt>
      <trkpt lat="43.52519" lon="5.53743">
        <ele>318</ele>
        <time>2018-02-20T13:21:15.000Z</time>
      </trkpt>
      <trkpt lat="43.52518" lon="5.53744">
        <ele>318</ele>
        <time>2018-02-20T13:21:16.000Z</time>
      </trkpt>
      <trkpt lat="43.52517" lon="5.53745">
        <ele>318</ele>
        <time>2018-02-20T13:21:17.000Z</time>
      </trkpt>
      <trkpt lat="43.52516" lon="5.53745">
        <ele>318</ele>
        <time>2018-02-20T13:21:18.000Z</time>
      </trkpt>
      <trkpt lat="43.52515" lon="5.53745">
        <ele>318</ele>
        <time>2018-02-20T13:21:19.000Z</time>
      </trkpt>
      <trkpt lat="43.52514" lon="5.53746">
        <ele>318</ele>
        <time>2018-02-20T13:21:20.000Z</time>
      </trkpt>
      <trkpt lat="43.52513" lon="5.53746">
        <ele>318</ele>
        <time>2018-02-20T13:21:21.000Z</time>
      </trkpt>
      <trkpt lat="43.52512" lon="5.53747">
        <ele>318</ele>
        <time>2018-02-20T13:21:22.000Z</time>
      </trkpt>
      <trkpt lat="43.52511" lon="5.53747">
        <ele>318</ele>
        <time>2018-02-20T13:21:23.000Z</time>
      </trkpt>
      <trkpt lat="43.52509" lon="5.53747">
        <ele>318</ele>
        <time>2018-02-20T13:21:24.000Z</time>
      </trkpt>
      <trkpt lat="43.52508" lon="5.53746">
        <ele>318</ele>
        <time>2018-02-20T13:21:25.000Z</time>
      </trkpt>
      <trkpt lat="43.52507" lon="5.53746">
        <ele>318</ele>
        <time>2018-02-20T13:21:26.000Z</time>
      </trkpt>
      <trkpt lat="43.52506" lon="5.53745">
        <ele>317</ele>
        <time>2018-02-20T13:21:27.000Z</time>
      </trkpt>
      <trkpt lat="43.52505" lon="5.53744">
        <ele>317</ele>
        <time>2018-02-20T13:21:28.000Z</time>
      </trkpt>
      <trkpt lat="43.52504" lon="5.53743">
        <ele>317</ele>
        <time>2018-02-20T13:21:29.000Z</time>
      </trkpt>
      <trkpt lat="43.52503" lon="5.53742">
        <ele>316</ele>
        <time>2018-02-20T13:21:30.000Z</time>
      </trkpt>
      <trkpt lat="43.52503" lon="5.53741">
        <ele>316</ele>
        <time>2018-02-20T13:21:31.000Z</time>
      </trkpt>
      <trkpt lat="43.52502" lon="5.5374">
        <ele>316</ele>
        <time>2018-02-20T13:21:32.000Z</time>
      </trkpt>
      <trkpt lat="43.52502" lon="5.53738">
        <ele>316</ele>
        <time>2018-02-20T13:21:33.000Z</time>
      </trkpt>
      <trkpt lat="43.52501" lon="5.53737">
        <ele>316</ele>
        <time>2018-02-20T13:21:34.000Z</time>
      </trkpt>
      <trkpt lat="43.525" lon="5.53735">
        <ele>315</ele>
        <time>2018-02-20T13:21:35.000Z</time>
      </trkpt>
      <trkpt lat="43.525" lon="5.53734">
        <ele>315</ele>
        <time>2018-02-20T13:21:36.000Z</time>
      </trkpt>
      <trkpt lat="43.52499" lon="5.53732">
        <ele>315</ele>
        <time>2018-02-20T13:21:37.000Z</time>
      </trkpt>
      <trkpt lat="43.52499" lon="5.5373">
        <ele>315</ele>
        <time>2018-02-20T13:21:38.000Z</time>
      </trkpt>
      <trkpt lat="43.52499" lon="5.53728">
        <ele>314</ele>
        <time>2018-02-20T13:21:39.000Z</time>
      </trkpt>
      <trkpt lat="43.52498" lon="5.53727">
        <ele>314</ele>
        <time>2018-02-20T13:21:40.000Z</time>
      </trkpt>
      <trkpt lat="43.52498" lon="5.53725">
        <ele>314</ele>
        <time>2018-02-20T13:21:41.000Z</time>
      </trkpt>
      <trkpt lat="43.52498" lon="5.53724">
        <ele>313</ele>
        <time>2018-02-20T13:21:42.000Z</time>
      </trkpt>
      <trkpt lat="43.52498" lon="5.53722">
        <ele>313</ele>
        <time>2018-02-20T13:21:43.000Z</time>
      </trkpt>
      <trkpt lat="43.52498" lon="5.53721">
        <ele>313</ele>
        <time>2018-02-20T13:21:44.000Z</time>
      </trkpt>
      <trkpt lat="43.52498" lon="5.53719">
        <ele>313</ele>
        <time>2018-02-20T13:21:45.000Z</time>
      </trkpt>
      <trkpt lat="43.52498" lon="5.53718">
        <ele>313</ele>
        <time>2018-02-20T13:21:46.000Z</time>
      </trkpt>
      <trkpt lat="43.52499" lon="5.53716">
        <ele>312</ele>
        <time>2018-02-20T13:21:47.000Z</time>
      </trkpt>
      <trkpt lat="43.52499" lon="5.53714">
        <ele>312</ele>
        <time>2018-02-20T13:21:48.000Z</time>
      </trkpt>
      <trkpt lat="43.52499" lon="5.53712">
        <ele>312</ele>
        <time>2018-02-20T13:21:49.000Z</time>
      </trkpt>
      <trkpt lat="43.52498" lon="5.53711">
        <ele>312</ele>
        <time>2018-02-20T13:21:50.000Z</time>
      </trkpt>
      <trkpt lat="43.52498" lon="5.53709">
        <ele>311</ele>
        <time>2018-02-20T13:21:51.000Z</time>
      </trkpt>
      <trkpt lat="43.52499" lon="5.53707">
        <ele>311</ele>
        <time>2018-02-20T13:21:52.000Z</time>
      </trkpt>
      <trkpt lat="43.52499" lon="5.53706">
        <ele>311</ele>
        <time>2018-02-20T13:21:53.000Z</time>
      </trkpt>
      <trkpt lat="43.52499" lon="5.53704">
        <ele>311</ele>
        <time>2018-02-20T13:21:54.000Z</time>
      </trkpt>
      <trkpt lat="43.52499" lon="5.53702">
        <ele>310</ele>
        <time>2018-02-20T13:21:55.000Z</time>
      </trkpt>
      <trkpt lat="43.52499" lon="5.53701">
        <ele>310</ele>
        <time>2018-02-20T13:21:56.000Z</time>
      </trkpt>
      <trkpt lat="43.525" lon="5.53699">
        <ele>310</ele>
        <time>2018-02-20T13:21:57.000Z</time>
      </trkpt>
      <trkpt lat="43.525" lon="5.53697">
        <ele>310</ele>
        <time>2018-02-20T13:21:58.000Z</time>
      </trkpt>
      <trkpt lat="43.525" lon="5.53696">
        <ele>310</ele>
        <time>2018-02-20T13:21:59.000Z</time>
      </trkpt>
      <trkpt lat="43.525" lon="5.53694">
        <ele>310</ele>
        <time>2018-02-20T13:22:00.000Z</time>
      </trkpt>
      <trkpt lat="43.525" lon="5.53692">
        <ele>310</ele>
        <time>2018-02-20T13:22:01.000Z</time>
      </trkpt>
      <trkpt lat="43.52501" lon="5.5369">
        <ele>310</ele>
        <time>2018-02-20T13:22:02.000Z</time>
      </trkpt>
      <trkpt lat="43.52501" lon="5.53689">
        <ele>310</ele>
        <time>2018-02-20T13:22:03.000Z</time>
      </trkpt>
      <trkpt lat="43.52501" lon="5.53687">
        <ele>310</ele>
        <time>2018-02-20T13:22:04.000Z</time>
      </trkpt>
      <trkpt lat="43.52502" lon="5.53686">
        <ele>309</ele>
        <time>2018-02-20T13:22:05.000Z</time>
      </trkpt>
      <trkpt lat="43.52502" lon="5.53684">
        <ele>309</ele>
        <time>2018-02-20T13:22:06.000Z</time>
      </trkpt>
      <trkpt lat="43.52503" lon="5.53682">
        <ele>309</ele>
        <time>2018-02-20T13:22:07.000Z</time>
      </trkpt>
      <trkpt lat="43.52503" lon="5.53681">
        <ele>309</ele>
        <time>2018-02-20T13:22:08.000Z</time>
      </trkpt>
      <trkpt lat="43.52503" lon="5.53679">
        <ele>309</ele>
        <time>2018-02-20T13:22:09.000Z</time>
      </trkpt>
      <trkpt lat="43.52504" lon="5.53677">
        <ele>309</ele>
        <time>2018-02-20T13:22:10.000Z</time>
      </trkpt>
      <trkpt lat="43.52504" lon="5.53675">
        <ele>308</ele>
        <time>2018-02-20T13:22:11.000Z</time>
      </trkpt>
      <trkpt lat="43.52504" lon="5.53674">
        <ele>308</ele>
        <time>2018-02-20T13:22:12.000Z</time>
      </trkpt>
      <trkpt lat="43.52505" lon="5.53672">
        <ele>308</ele>
        <time>2018-02-20T13:22:13.000Z</time>
      </trkpt>
      <trkpt lat="43.52505" lon="5.5367">
        <ele>308</ele>
        <time>2018-02-20T13:22:14.000Z</time>
      </trkpt>
      <trkpt lat="43.52506" lon="5.53669">
        <ele>308</ele>
        <time>2018-02-20T13:22:15.000Z</time>
      </trkpt>
      <trkpt lat="43.52506" lon="5.53667">
        <ele>307</ele>
        <time>2018-02-20T13:22:16.000Z</time>
      </trkpt>
      <trkpt lat="43.52507" lon="5.53666">
        <ele>307</ele>
        <time>2018-02-20T13:22:17.000Z</time>
      </trkpt>
      <trkpt lat="43.52507" lon="5.53665">
        <ele>307</ele>
        <time>2018-02-20T13:22:18.000Z</time>
      </trkpt>
      <trkpt lat="43.52508" lon="5.53663">
        <ele>307</ele>
        <time>2018-02-20T13:22:19.000Z</time>
      </trkpt>
      <trkpt lat="43.52508" lon="5.53662">
        <ele>307</ele>
        <time>2018-02-20T13:22:20.000Z</time>
      </trkpt>
      <trkpt lat="43.52509" lon="5.5366">
        <ele>307</ele>
        <time>2018-02-20T13:22:21.000Z</time>
      </trkpt>
      <trkpt lat="43.52509" lon="5.53658">
        <ele>307</ele>
        <time>2018-02-20T13:22:22.000Z</time>
      </trkpt>
      <trkpt lat="43.5251" lon="5.53657">
        <ele>307</ele>
        <time>2018-02-20T13:22:23.000Z</time>
      </trkpt>
      <trkpt lat="43.5251" lon="5.53655">
        <ele>307</ele>
        <time>2018-02-20T13:22:24.000Z</time>
      </trkpt>
      <trkpt lat="43.52511" lon="5.53654">
        <ele>307</ele>
        <time>2018-02-20T13:22:25.000Z</time>
      </trkpt>
      <trkpt lat="43.52511" lon="5.53653">
        <ele>307</ele>
        <time>2018-02-20T13:22:26.000Z</time>
      </trkpt>
      <trkpt lat="43.52511" lon="5.53651">
        <ele>306</ele>
        <time>2018-02-20T13:22:27.000Z</time>
      </trkpt>
      <trkpt lat="43.52512" lon="5.5365">
        <ele>306</ele>
        <time>2018-02-20T13:22:28.000Z</time>
      </trkpt>
      <trkpt lat="43.52512" lon="5.53648">
        <ele>306</ele>
        <time>2018-02-20T13:22:29.000Z</time>
      </trkpt>
      <trkpt lat="43.52513" lon="5.53647">
        <ele>306</ele>
        <time>2018-02-20T13:22:30.000Z</time>
      </trkpt>
      <trkpt lat="43.52513" lon="5.53645">
        <ele>306</ele>
        <time>2018-02-20T13:22:31.000Z</time>
      </trkpt>
      <trkpt lat="43.52513" lon="5.53643">
        <ele>306</ele>
        <time>2018-02-20T13:22:32.000Z</time>
      </trkpt>
      <trkpt lat="43.52514" lon="5.53642">
        <ele>306</ele>
        <time>2018-02-20T13:22:33.000Z</time>
      </trkpt>
      <trkpt lat="43.52514" lon="5.5364">
        <ele>306</ele>
        <time>2018-02-20T13:22:34.000Z</time>
      </trkpt>
      <trkpt lat="43.52514" lon="5.53639">
        <ele>306</ele>
        <time>2018-02-20T13:22:35.000Z</time>
      </trkpt>
      <trkpt lat="43.52514" lon="5.53637">
        <ele>306</ele>
        <time>2018-02-20T13:22:36.000Z</time>
      </trkpt>
      <trkpt lat="43.52514" lon="5.53636">
        <ele>306</ele>
        <time>2018-02-20T13:22:37.000Z</time>
      </trkpt>
      <trkpt lat="43.52514" lon="5.53634">
        <ele>306</ele>
        <time>2018-02-20T13:22:38.000Z</time>
      </trkpt>
      <trkpt lat="43.52515" lon="5.53633">
        <ele>306</ele>
        <time>2018-02-20T13:22:39.000Z</time>
      </trkpt>
      <trkpt lat="43.52515" lon="5.53631">
        <ele>306</ele>
        <time>2018-02-20T13:22:40.000Z</time>
      </trkpt>
      <trkpt lat="43.52515" lon="5.53629">
        <ele>306</ele>
        <time>2018-02-20T13:22:41.000Z</time>
      </trkpt>
      <trkpt lat="43.52515" lon="5.53627">
        <ele>306</ele>
        <time>2018-02-20T13:22:42.000Z</time>
      </trkpt>
      <trkpt lat="43.52515" lon="5.53626">
        <ele>306</ele>
        <time>2018-02-20T13:22:43.000Z</time>
      </trkpt>
      <trkpt lat="43.52515" lon="5.53624">
        <ele>306</ele>
        <time>2018-02-20T13:22:44.000Z</time>
      </trkpt>
      <trkpt lat="43.52515" lon="5.53623">
        <ele>306</ele>
        <time>2018-02-20T13:22:45.000Z</time>
      </trkpt>
      <trkpt lat="43.52514" lon="5.53622">
        <ele>305</ele>
        <time>2018-02-20T13:22:46.000Z</time>
      </trkpt>
      <trkpt lat="43.52514" lon="5.5362">
        <ele>305</ele>
        <time>2018-02-20T13:22:47.000Z</time>
      </trkpt>
      <trkpt lat="43.52514" lon="5.53618">
        <ele>305</ele>
        <time>2018-02-20T13:22:48.000Z</time>
      </trkpt>
      <trkpt lat="43.52514" lon="5.53617">
        <ele>305</ele>
        <time>2018-02-20T13:22:49.000Z</time>
      </trkpt>
      <trkpt lat="43.52514" lon="5.53615">
        <ele>305</ele>
        <time>2018-02-20T13:22:50.000Z</time>
      </trkpt>
      <trkpt lat="43.52513" lon="5.53613">
        <ele>305</ele>
        <time>2018-02-20T13:22:51.000Z</time>
      </trkpt>
      <trkpt lat="43.52513" lon="5.53611">
        <ele>305</ele>
        <time>2018-02-20T13:22:52.000Z</time>
      </trkpt>
      <trkpt lat="43.52513" lon="5.5361">
        <ele>305</ele>
        <time>2018-02-20T13:22:53.000Z</time>
      </trkpt>
      <trkpt lat="43.52513" lon="5.53609">
        <ele>305</ele>
        <time>2018-02-20T13:22:54.000Z</time>
      </trkpt>
      <trkpt lat="43.52512" lon="5.53608">
        <ele>305</ele>
        <time>2018-02-20T13:22:55.000Z</time>
      </trkpt>
      <trkpt lat="43.52512" lon="5.53606">
        <ele>305</ele>
        <time>2018-02-20T13:22:56.000Z</time>
      </trkpt>
      <trkpt lat="43.52511" lon="5.53605">
        <ele>305</ele>
        <time>2018-02-20T13:22:57.000Z</time>
      </trkpt>
      <trkpt lat="43.52511" lon="5.53603">
        <ele>304</ele>
        <time>2018-02-20T13:22:58.000Z</time>
      </trkpt>
      <trkpt lat="43.5251" lon="5.53602">
        <ele>304</ele>
        <time>2018-02-20T13:22:59.000Z</time>
      </trkpt>
      <trkpt lat="43.5251" lon="5.53601">
        <ele>304</ele>
        <time>2018-02-20T13:23:00.000Z</time>
      </trkpt>
      <trkpt lat="43.52509" lon="5.536">
        <ele>304</ele>
        <time>2018-02-20T13:23:01.000Z</time>
      </trkpt>
      <trkpt lat="43.52508" lon="5.53598">
        <ele>304</ele>
        <time>2018-02-20T13:23:02.000Z</time>
      </trkpt>
      <trkpt lat="43.52508" lon="5.53597">
        <ele>304</ele>
        <time>2018-02-20T13:23:03.000Z</time>
      </trkpt>
      <trkpt lat="43.52507" lon="5.53596">
        <ele>304</ele>
        <time>2018-02-20T13:23:04.000Z</time>
      </trkpt>
      <trkpt lat="43.52506" lon="5.53595">
        <ele>305</ele>
        <time>2018-02-20T13:23:05.000Z</time>
      </trkpt>
      <trkpt lat="43.52505" lon="5.53593">
        <ele>305</ele>
        <time>2018-02-20T13:23:06.000Z</time>
      </trkpt>
      <trkpt lat="43.52505" lon="5.53592">
        <ele>305</ele>
        <time>2018-02-20T13:23:07.000Z</time>
      </trkpt>
      <trkpt lat="43.52504" lon="5.53591">
        <ele>305</ele>
        <time>2018-02-20T13:23:08.000Z</time>
      </trkpt>
      <trkpt lat="43.52503" lon="5.53589">
        <ele>305</ele>
        <time>2018-02-20T13:23:09.000Z</time>
      </trkpt>
      <trkpt lat="43.52502" lon="5.53588">
        <ele>305</ele>
        <time>2018-02-20T13:23:10.000Z</time>
      </trkpt>
      <trkpt lat="43.52502" lon="5.53587">
        <ele>305</ele>
        <time>2018-02-20T13:23:11.000Z</time>
      </trkpt>
      <trkpt lat="43.525" lon="5.53585">
        <ele>305</ele>
        <time>2018-02-20T13:23:12.000Z</time>
      </trkpt>
      <trkpt lat="43.525" lon="5.53584">
        <ele>305</ele>
        <time>2018-02-20T13:23:13.000Z</time>
      </trkpt>
      <trkpt lat="43.52499" lon="5.53583">
        <ele>305</ele>
        <time>2018-02-20T13:23:14.000Z</time>
      </trkpt>
      <trkpt lat="43.52498" lon="5.53581">
        <ele>305</ele>
        <time>2018-02-20T13:23:15.000Z</time>
      </trkpt>
      <trkpt lat="43.52498" lon="5.5358">
        <ele>305</ele>
        <time>2018-02-20T13:23:16.000Z</time>
      </trkpt>
      <trkpt lat="43.52497" lon="5.53579">
        <ele>305</ele>
        <time>2018-02-20T13:23:17.000Z</time>
      </trkpt>
      <trkpt lat="43.52496" lon="5.53578">
        <ele>305</ele>
        <time>2018-02-20T13:23:18.000Z</time>
      </trkpt>
      <trkpt lat="43.52495" lon="5.53576">
        <ele>305</ele>
        <time>2018-02-20T13:23:19.000Z</time>
      </trkpt>
      <trkpt lat="43.52495" lon="5.53575">
        <ele>305</ele>
        <time>2018-02-20T13:23:20.000Z</time>
      </trkpt>
      <trkpt lat="43.52494" lon="5.53574">
        <ele>305</ele>
        <time>2018-02-20T13:23:21.000Z</time>
      </trkpt>
      <trkpt lat="43.52494" lon="5.53572">
        <ele>305</ele>
        <time>2018-02-20T13:23:22.000Z</time>
      </trkpt>
      <trkpt lat="43.52493" lon="5.53571">
        <ele>305</ele>
        <time>2018-02-20T13:23:23.000Z</time>
      </trkpt>
      <trkpt lat="43.52492" lon="5.53569">
        <ele>304</ele>
        <time>2018-02-20T13:23:24.000Z</time>
      </trkpt>
      <trkpt lat="43.52491" lon="5.53568">
        <ele>304</ele>
        <time>2018-02-20T13:23:25.000Z</time>
      </trkpt>
      <trkpt lat="43.52491" lon="5.53566">
        <ele>304</ele>
        <time>2018-02-20T13:23:26.000Z</time>
      </trkpt>
      <trkpt lat="43.5249" lon="5.53565">
        <ele>304</ele>
        <time>2018-02-20T13:23:27.000Z</time>
      </trkpt>
      <trkpt lat="43.5249" lon="5.53563">
        <ele>304</ele>
        <time>2018-02-20T13:23:28.000Z</time>
      </trkpt>
      <trkpt lat="43.52489" lon="5.53561">
        <ele>303</ele>
        <time>2018-02-20T13:23:29.000Z</time>
      </trkpt>
      <trkpt lat="43.52489" lon="5.5356">
        <ele>303</ele>
        <time>2018-02-20T13:23:30.000Z</time>
      </trkpt>
      <trkpt lat="43.52489" lon="5.53558">
        <ele>303</ele>
        <time>2018-02-20T13:23:31.000Z</time>
      </trkpt>
      <trkpt lat="43.52489" lon="5.53557">
        <ele>303</ele>
        <time>2018-02-20T13:23:32.000Z</time>
      </trkpt>
      <trkpt lat="43.52489" lon="5.53555">
        <ele>303</ele>
        <time>2018-02-20T13:23:33.000Z</time>
      </trkpt>
      <trkpt lat="43.52488" lon="5.53553">
        <ele>302</ele>
        <time>2018-02-20T13:23:34.000Z</time>
      </trkpt>
      <trkpt lat="43.52488" lon="5.53552">
        <ele>302</ele>
        <time>2018-02-20T13:23:35.000Z</time>
      </trkpt>
      <trkpt lat="43.52488" lon="5.5355">
        <ele>302</ele>
        <time>2018-02-20T13:23:36.000Z</time>
      </trkpt>
      <trkpt lat="43.52488" lon="5.53548">
        <ele>302</ele>
        <time>2018-02-20T13:23:37.000Z</time>
      </trkpt>
      <trkpt lat="43.52488" lon="5.53547">
        <ele>302</ele>
        <time>2018-02-20T13:23:38.000Z</time>
      </trkpt>
      <trkpt lat="43.52488" lon="5.53545">
        <ele>302</ele>
        <time>2018-02-20T13:23:39.000Z</time>
      </trkpt>
      <trkpt lat="43.52487" lon="5.53544">
        <ele>301</ele>
        <time>2018-02-20T13:23:40.000Z</time>
      </trkpt>
      <trkpt lat="43.52487" lon="5.53542">
        <ele>301</ele>
        <time>2018-02-20T13:23:41.000Z</time>
      </trkpt>
      <trkpt lat="43.52487" lon="5.53541">
        <ele>301</ele>
        <time>2018-02-20T13:23:42.000Z</time>
      </trkpt>
      <trkpt lat="43.52487" lon="5.53539">
        <ele>301</ele>
        <time>2018-02-20T13:23:43.000Z</time>
      </trkpt>
      <trkpt lat="43.52487" lon="5.53538">
        <ele>301</ele>
        <time>2018-02-20T13:23:44.000Z</time>
      </trkpt>
      <trkpt lat="43.52486" lon="5.53536">
        <ele>301</ele>
        <time>2018-02-20T13:23:45.000Z</time>
      </trkpt>
      <trkpt lat="43.52486" lon="5.53535">
        <ele>301</ele>
        <time>2018-02-20T13:23:46.000Z</time>
      </trkpt>
      <trkpt lat="43.52486" lon="5.53533">
        <ele>300</ele>
        <time>2018-02-20T13:23:47.000Z</time>
      </trkpt>
      <trkpt lat="43.52486" lon="5.53532">
        <ele>300</ele>
        <time>2018-02-20T13:23:48.000Z</time>
      </trkpt>
      <trkpt lat="43.52486" lon="5.5353">
        <ele>300</ele>
        <time>2018-02-20T13:23:49.000Z</time>
      </trkpt>
      <trkpt lat="43.52486" lon="5.53529">
        <ele>300</ele>
        <time>2018-02-20T13:23:50.000Z</time>
      </trkpt>
      <trkpt lat="43.52486" lon="5.53528">
        <ele>300</ele>
        <time>2018-02-20T13:23:51.000Z</time>
      </trkpt>
      <trkpt lat="43.52485" lon="5.53526">
        <ele>300</ele>
        <time>2018-02-20T13:23:52.000Z</time>
      </trkpt>
      <trkpt lat="43.52485" lon="5.53525">
        <ele>300</ele>
        <time>2018-02-20T13:23:53.000Z</time>
      </trkpt>
      <trkpt lat="43.52485" lon="5.53523">
        <ele>300</ele>
        <time>2018-02-20T13:23:54.000Z</time>
      </trkpt>
      <trkpt lat="43.52485" lon="5.53522">
        <ele>300</ele>
        <time>2018-02-20T13:23:55.000Z</time>
      </trkpt>
      <trkpt lat="43.52486" lon="5.5352">
        <ele>300</ele>
        <time>2018-02-20T13:23:56.000Z</time>
      </trkpt>
      <trkpt lat="43.52486" lon="5.53519">
        <ele>299</ele>
        <time>2018-02-20T13:23:57.000Z</time>
      </trkpt>
      <trkpt lat="43.52486" lon="5.53517">
        <ele>299</ele>
        <time>2018-02-20T13:23:58.000Z</time>
      </trkpt>
      <trkpt lat="43.52486" lon="5.53515">
        <ele>299</ele>
        <time>2018-02-20T13:23:59.000Z</time>
      </trkpt>
      <trkpt lat="43.52486" lon="5.53514">
        <ele>299</ele>
        <time>2018-02-20T13:24:00.000Z</time>
      </trkpt>
      <trkpt lat="43.52486" lon="5.53513">
        <ele>299</ele>
        <time>2018-02-20T13:24:01.000Z</time>
      </trkpt>
      <trkpt lat="43.52486" lon="5.53511">
        <ele>299</ele>
        <time>2018-02-20T13:24:02.000Z</time>
      </trkpt>
      <trkpt lat="43.52486" lon="5.5351">
        <ele>298</ele>
        <time>2018-02-20T13:24:03.000Z</time>
      </trkpt>
      <trkpt lat="43.52486" lon="5.53508">
        <ele>298</ele>
        <time>2018-02-20T13:24:04.000Z</time>
      </trkpt>
      <trkpt lat="43.52486" lon="5.53506">
        <ele>298</ele>
        <time>2018-02-20T13:24:05.000Z</time>
      </trkpt>
      <trkpt lat="43.52486" lon="5.53504">
        <ele>298</ele>
        <time>2018-02-20T13:24:06.000Z</time>
      </trkpt>
      <trkpt lat="43.52486" lon="5.53503">
        <ele>298</ele>
        <time>2018-02-20T13:24:07.000Z</time>
      </trkpt>
      <trkpt lat="43.52486" lon="5.53502">
        <ele>298</ele>
        <time>2018-02-20T13:24:08.000Z</time>
      </trkpt>
      <trkpt lat="43.52486" lon="5.535">
        <ele>298</ele>
        <time>2018-02-20T13:24:09.000Z</time>
      </trkpt>
      <trkpt lat="43.52486" lon="5.53499">
        <ele>297</ele>
        <time>2018-02-20T13:24:10.000Z</time>
      </trkpt>
      <trkpt lat="43.52486" lon="5.53497">
        <ele>297</ele>
        <time>2018-02-20T13:24:11.000Z</time>
      </trkpt>
      <trkpt lat="43.52486" lon="5.53495">
        <ele>297</ele>
        <time>2018-02-20T13:24:12.000Z</time>
      </trkpt>
      <trkpt lat="43.52486" lon="5.53494">
        <ele>297</ele>
        <time>2018-02-20T13:24:13.000Z</time>
      </trkpt>
      <trkpt lat="43.52486" lon="5.53492">
        <ele>297</ele>
        <time>2018-02-20T13:24:14.000Z</time>
      </trkpt>
      <trkpt lat="43.52486" lon="5.5349">
        <ele>297</ele>
        <time>2018-02-20T13:24:15.000Z</time>
      </trkpt>
      <trkpt lat="43.52486" lon="5.53488">
        <ele>297</ele>
        <time>2018-02-20T13:24:16.000Z</time>
      </trkpt>
      <trkpt lat="43.52486" lon="5.53487">
        <ele>297</ele>
        <time>2018-02-20T13:24:17.000Z</time>
      </trkpt>
      <trkpt lat="43.52486" lon="5.53485">
        <ele>297</ele>
        <time>2018-02-20T13:24:18.000Z</time>
      </trkpt>
      <trkpt lat="43.52486" lon="5.53484">
        <ele>296</ele>
        <time>2018-02-20T13:24:19.000Z</time>
      </trkpt>
      <trkpt lat="43.52486" lon="5.53483">
        <ele>296</ele>
        <time>2018-02-20T13:24:20.000Z</time>
      </trkpt>
      <trkpt lat="43.52486" lon="5.53481">
        <ele>296</ele>
        <time>2018-02-20T13:24:21.000Z</time>
      </trkpt>
      <trkpt lat="43.52486" lon="5.53479">
        <ele>296</ele>
        <time>2018-02-20T13:24:22.000Z</time>
      </trkpt>
      <trkpt lat="43.52486" lon="5.53477">
        <ele>296</ele>
        <time>2018-02-20T13:24:23.000Z</time>
      </trkpt>
      <trkpt lat="43.52486" lon="5.53476">
        <ele>296</ele>
        <time>2018-02-20T13:24:24.000Z</time>
      </trkpt>
      <trkpt lat="43.52486" lon="5.53474">
        <ele>296</ele>
        <time>2018-02-20T13:24:25.000Z</time>
      </trkpt>
      <trkpt lat="43.52486" lon="5.53473">
        <ele>296</ele>
        <time>2018-02-20T13:24:26.000Z</time>
      </trkpt>
      <trkpt lat="43.52486" lon="5.53472">
        <ele>296</ele>
        <time>2018-02-20T13:24:27.000Z</time>
      </trkpt>
      <trkpt lat="43.52486" lon="5.53471">
        <ele>296</ele>
        <time>2018-02-20T13:24:28.000Z</time>
      </trkpt>
      <trkpt lat="43.52486" lon="5.5347">
        <ele>296</ele>
        <time>2018-02-20T13:24:29.000Z</time>
      </trkpt>
      <trkpt lat="43.52486" lon="5.53469">
        <ele>296</ele>
        <time>2018-02-20T13:24:30.000Z</time>
      </trkpt>
      <trkpt lat="43.52486" lon="5.53468">
        <ele>296</ele>
        <time>2018-02-20T13:24:31.000Z</time>
      </trkpt>
      <trkpt lat="43.52485" lon="5.53467">
        <ele>296</ele>
        <time>2018-02-20T13:24:32.000Z</time>
      </trkpt>
      <trkpt lat="43.52485" lon="5.53466">
        <ele>296</ele>
        <time>2018-02-20T13:24:33.000Z</time>
      </trkpt>
      <trkpt lat="43.52485" lon="5.53466">
        <ele>296</ele>
        <time>2018-02-20T13:24:34.000Z</time>
      </trkpt>
      <trkpt lat="43.52485" lon="5.53466">
        <ele>296</ele>
        <time>2018-02-20T13:24:35.000Z</time>
      </trkpt>
      <trkpt lat="43.52484" lon="5.53466">
        <ele>296</ele>
        <time>2018-02-20T13:24:36.000Z</time>
      </trkpt>
      <trkpt lat="43.52484" lon="5.53466">
        <ele>296</ele>
        <time>2018-02-20T13:24:37.000Z</time>
      </trkpt>
      <trkpt lat="43.52484" lon="5.53466">
        <ele>296</ele>
        <time>2018-02-20T13:24:38.000Z</time>
      </trkpt>
      <trkpt lat="43.52484" lon="5.53466">
        <ele>296</ele>
        <time>2018-02-20T13:24:39.000Z</time>
      </trkpt>
      <trkpt lat="43.52484" lon="5.53466">
        <ele>296</ele>
        <time>2018-02-20T13:24:40.000Z</time>
      </trkpt>
      <trkpt lat="43.52484" lon="5.53466">
        <ele>296</ele>
        <time>2018-02-20T13:24:41.000Z</time>
      </trkpt>
      <trkpt lat="43.52484" lon="5.53466">
        <ele>296</ele>
        <time>2018-02-20T13:24:42.000Z</time>
      </trkpt>
      <trkpt lat="43.52484" lon="5.53467">
        <ele>296</ele>
        <time>2018-02-20T13:24:43.000Z</time>
      </trkpt>
      <trkpt lat="43.52484" lon="5.53467">
        <ele>296</ele>
        <time>2018-02-20T13:24:44.000Z</time>
      </trkpt>
      <trkpt lat="43.52484" lon="5.53468">
        <ele>296</ele>
        <time>2018-02-20T13:24:45.000Z</time>
      </trkpt>
      <trkpt lat="43.52484" lon="5.53468">
        <ele>296</ele>
        <time>2018-02-20T13:24:46.000Z</time>
      </trkpt>
      <trkpt lat="43.52484" lon="5.53468">
        <ele>296</ele>
        <time>2018-02-20T13:24:47.000Z</time>
      </trkpt>
      <trkpt lat="43.52484" lon="5.53468">
        <ele>296</ele>
        <time>2018-02-20T13:24:48.000Z</time>
      </trkpt>
      <trkpt lat="43.52484" lon="5.53468">
        <ele>296</ele>
        <time>2018-02-20T13:24:49.000Z</time>
      </trkpt>
      <trkpt lat="43.52485" lon="5.53468">
        <ele>296</ele>
        <time>2018-02-20T13:24:50.000Z</time>
      </trkpt>
      <trkpt lat="43.52485" lon="5.53468">
        <ele>296</ele>
        <time>2018-02-20T13:24:51.000Z</time>
      </trkpt>
      <trkpt lat="43.52485" lon="5.53468">
        <ele>296</ele>
        <time>2018-02-20T13:24:52.000Z</time>
      </trkpt>
      <trkpt lat="43.52485" lon="5.53468">
        <ele>296</ele>
        <time>2018-02-20T13:24:53.000Z</time>
      </trkpt>
      <trkpt lat="43.52485" lon="5.53468">
        <ele>296</ele>
        <time>2018-02-20T13:24:54.000Z</time>
      </trkpt>
      <trkpt lat="43.52485" lon="5.53468">
        <ele>296</ele>
        <time>2018-02-20T13:24:55.000Z</time>
      </trkpt>
      <trkpt lat="43.52485" lon="5.53468">
        <ele>296</ele>
        <time>2018-02-20T13:24:56.000Z</time>
      </trkpt>
      <trkpt lat="43.52485" lon="5.53468">
        <ele>296</ele>
        <time>2018-02-20T13:24:57.000Z</time>
      </trkpt>
      <trkpt lat="43.52485" lon="5.53468">
        <ele>296</ele>
        <time>2018-02-20T13:24:58.000Z</time>
      </trkpt>
      <trkpt lat="43.52485" lon="5.53468">
        <ele>296</ele>
        <time>2018-02-20T13:24:59.000Z</time>
      </trkpt>
      <trkpt lat="43.52485" lon="5.53468">
        <ele>296</ele>
        <time>2018-02-20T13:25:00.000Z</time>
      </trkpt>
      <trkpt lat="43.52485" lon="5.53468">
        <ele>296</ele>
        <time>2018-02-20T13:25:01.000Z</time>
      </trkpt>
      <trkpt lat="43.52485" lon="5.53468">
        <ele>296</ele>
        <time>2018-02-20T13:25:02.000Z</time>
      </trkpt>
      <trkpt lat="43.52485" lon="5.53468">
        <ele>296</ele>
        <time>2018-02-20T13:25:03.000Z</time>
      </trkpt>
      <trkpt lat="43.52485" lon="5.53468">
        <ele>296</ele>
        <time>2018-02-20T13:25:04.000Z</time>
      </trkpt>
      <trkpt lat="43.52485" lon="5.53468">
        <ele>296</ele>
        <time>2018-02-20T13:25:05.000Z</time>
      </trkpt>
      <trkpt lat="43.52485" lon="5.53468">
        <ele>296</ele>
        <time>2018-02-20T13:25:06.000Z</time>
      </trkpt>
      <trkpt lat="43.52485" lon="5.53468">
        <ele>296</ele>
        <time>2018-02-20T13:25:07.000Z</time>
      </trkpt>
      <trkpt lat="43.52485" lon="5.53468">
        <ele>296</ele>
        <time>2018-02-20T13:25:08.000Z</time>
      </trkpt>
      <trkpt lat="43.52485" lon="5.53468">
        <ele>296</ele>
        <time>2018-02-20T13:25:09.000Z</time>
      </trkpt>
      <trkpt lat="43.52485" lon="5.53468">
        <ele>296</ele>
        <time>2018-02-20T13:25:10.000Z</time>
      </trkpt>
      <trkpt lat="43.52485" lon="5.53468">
        <ele>296</ele>
        <time>2018-02-20T13:25:11.000Z</time>
      </trkpt>
      <trkpt lat="43.52485" lon="5.53468">
        <ele>296</ele>
        <time>2018-02-20T13:25:12.000Z</time>
      </trkpt>
      <trkpt lat="43.52485" lon="5.53468">
        <ele>296</ele>
        <time>2018-02-20T13:25:13.000Z</time>
      </trkpt>
      <trkpt lat="43.52485" lon="5.53468">
        <ele>296</ele>
        <time>2018-02-20T13:25:14.000Z</time>
      </trkpt>
      <trkpt lat="43.52485" lon="5.53468">
        <ele>296</ele>
        <time>2018-02-20T13:25:15.000Z</time>
      </trkpt>
      <trkpt lat="43.52486" lon="5.53468">
        <ele>296</ele>
        <time>2018-02-20T13:25:16.000Z</time>
      </trkpt>
      <trkpt lat="43.52486" lon="5.53468">
        <ele>296</ele>
        <time>2018-02-20T13:25:17.000Z</time>
      </trkpt>
      <trkpt lat="43.52486" lon="5.53468">
        <ele>296</ele>
        <time>2018-02-20T13:25:18.000Z</time>
      </trkpt>
      <trkpt lat="43.52486" lon="5.53468">
        <ele>296</ele>
        <time>2018-02-20T13:25:19.000Z</time>
      </trkpt>
      <trkpt lat="43.52486" lon="5.53468">
        <ele>296</ele>
        <time>2018-02-20T13:25:20.000Z</time>
      </trkpt>
      <trkpt lat="43.52486" lon="5.53468">
        <ele>296</ele>
        <time>2018-02-20T13:25:21.000Z</time>
      </trkpt>
      <trkpt lat="43.52486" lon="5.53468">
        <ele>296</ele>
        <time>2018-02-20T13:25:22.000Z</time>
      </trkpt>
      <trkpt lat="43.52486" lon="5.53468">
        <ele>296</ele>
        <time>2018-02-20T13:25:23.000Z</time>
      </trkpt>
      <trkpt lat="43.52486" lon="5.53468">
        <ele>296</ele>
        <time>2018-02-20T13:25:24.000Z</time>
      </trkpt>
      <trkpt lat="43.52486" lon="5.53468">
        <ele>296</ele>
        <time>2018-02-20T13:25:25.000Z</time>
      </trkpt>
      <trkpt lat="43.52486" lon="5.53468">
        <ele>296</ele>
        <time>2018-02-20T13:25:26.000Z</time>
      </trkpt>
      <trkpt lat="43.52486" lon="5.53468">
        <ele>296</ele>
        <time>2018-02-20T13:25:27.000Z</time>
      </trkpt>
      <trkpt lat="43.52486" lon="5.53468">
        <ele>296</ele>
        <time>2018-02-20T13:25:28.000Z</time>
      </trkpt>
      <trkpt lat="43.52486" lon="5.53468">
        <ele>296</ele>
        <time>2018-02-20T13:25:29.000Z</time>
      </trkpt>
      <trkpt lat="43.52486" lon="5.53468">
        <ele>296</ele>
        <time>2018-02-20T13:25:30.000Z</time>
      </trkpt>
      <trkpt lat="43.52486" lon="5.53468">
        <ele>296</ele>
        <time>2018-02-20T13:25:31.000Z</time>
      </trkpt>
      <trkpt lat="43.52486" lon="5.53468">
        <ele>296</ele>
        <time>2018-02-20T13:25:32.000Z</time>
      </trkpt>
      <trkpt lat="43.52486" lon="5.53468">
        <ele>296</ele>
        <time>2018-02-20T13:25:33.000Z</time>
      </trkpt>
      <trkpt lat="43.52486" lon="5.53468">
        <ele>296</ele>
        <time>2018-02-20T13:25:34.000Z</time>
      </trkpt>
      <trkpt lat="43.52486" lon="5.53468">
        <ele>296</ele>
        <time>2018-02-20T13:25:35.000Z</time>
      </trkpt>
      <trkpt lat="43.52486" lon="5.53468">
        <ele>296</ele>
        <time>2018-02-20T13:25:36.000Z</time>
      </trkpt>
      <trkpt lat="43.52487" lon="5.53468">
        <ele>296</ele>
        <time>2018-02-20T13:25:37.000Z</time>
      </trkpt>
      <trkpt lat="43.52488" lon="5.53468">
        <ele>296</ele>
        <time>2018-02-20T13:25:38.000Z</time>
      </trkpt>
      <trkpt lat="43.52489" lon="5.53468">
        <ele>296</ele>
        <time>2018-02-20T13:25:39.000Z</time>
      </trkpt>
      <trkpt lat="43.52489" lon="5.53468">
        <ele>296</ele>
        <time>2018-02-20T13:25:40.000Z</time>
      </trkpt>
      <trkpt lat="43.5249" lon="5.53467">
        <ele>296</ele>
        <time>2018-02-20T13:25:41.000Z</time>
      </trkpt>
      <trkpt lat="43.5249" lon="5.53466">
        <ele>296</ele>
        <time>2018-02-20T13:25:42.000Z</time>
      </trkpt>
      <trkpt lat="43.5249" lon="5.53464">
        <ele>296</ele>
        <time>2018-02-20T13:25:43.000Z</time>
      </trkpt>
      <trkpt lat="43.5249" lon="5.53462">
        <ele>295</ele>
        <time>2018-02-20T13:25:44.000Z</time>
      </trkpt>
      <trkpt lat="43.5249" lon="5.5346">
        <ele>296</ele>
        <time>2018-02-20T13:25:45.000Z</time>
      </trkpt>
      <trkpt lat="43.5249" lon="5.53458">
        <ele>295</ele>
        <time>2018-02-20T13:25:46.000Z</time>
      </trkpt>
      <trkpt lat="43.52489" lon="5.53457">
        <ele>295</ele>
        <time>2018-02-20T13:25:47.000Z</time>
      </trkpt>
      <trkpt lat="43.52489" lon="5.53455">
        <ele>295</ele>
        <time>2018-02-20T13:25:48.000Z</time>
      </trkpt>
      <trkpt lat="43.52489" lon="5.53453">
        <ele>295</ele>
        <time>2018-02-20T13:25:49.000Z</time>
      </trkpt>
      <trkpt lat="43.5249" lon="5.53451">
        <ele>295</ele>
        <time>2018-02-20T13:25:50.000Z</time>
      </trkpt>
      <trkpt lat="43.5249" lon="5.53449">
        <ele>295</ele>
        <time>2018-02-20T13:25:51.000Z</time>
      </trkpt>
      <trkpt lat="43.5249" lon="5.53447">
        <ele>294</ele>
        <time>2018-02-20T13:25:52.000Z</time>
      </trkpt>
      <trkpt lat="43.5249" lon="5.53445">
        <ele>294</ele>
        <time>2018-02-20T13:25:53.000Z</time>
      </trkpt>
      <trkpt lat="43.5249" lon="5.53443">
        <ele>294</ele>
        <time>2018-02-20T13:25:54.000Z</time>
      </trkpt>
      <trkpt lat="43.5249" lon="5.53442">
        <ele>294</ele>
        <time>2018-02-20T13:25:55.000Z</time>
      </trkpt>
      <trkpt lat="43.5249" lon="5.5344">
        <ele>293</ele>
        <time>2018-02-20T13:25:56.000Z</time>
      </trkpt>
      <trkpt lat="43.52489" lon="5.53438">
        <ele>293</ele>
        <time>2018-02-20T13:25:57.000Z</time>
      </trkpt>
      <trkpt lat="43.52489" lon="5.53436">
        <ele>293</ele>
        <time>2018-02-20T13:25:58.000Z</time>
      </trkpt>
      <trkpt lat="43.52489" lon="5.53434">
        <ele>293</ele>
        <time>2018-02-20T13:25:59.000Z</time>
      </trkpt>
      <trkpt lat="43.52489" lon="5.53432">
        <ele>292</ele>
        <time>2018-02-20T13:26:00.000Z</time>
      </trkpt>
      <trkpt lat="43.52489" lon="5.5343">
        <ele>292</ele>
        <time>2018-02-20T13:26:01.000Z</time>
      </trkpt>
      <trkpt lat="43.52489" lon="5.53428">
        <ele>292</ele>
        <time>2018-02-20T13:26:02.000Z</time>
      </trkpt>
      <trkpt lat="43.52489" lon="5.53426">
        <ele>292</ele>
        <time>2018-02-20T13:26:03.000Z</time>
      </trkpt>
      <trkpt lat="43.52489" lon="5.53424">
        <ele>292</ele>
        <time>2018-02-20T13:26:04.000Z</time>
      </trkpt>
      <trkpt lat="43.52489" lon="5.53422">
        <ele>292</ele>
        <time>2018-02-20T13:26:05.000Z</time>
      </trkpt>
      <trkpt lat="43.52489" lon="5.5342">
        <ele>292</ele>
        <time>2018-02-20T13:26:06.000Z</time>
      </trkpt>
      <trkpt lat="43.52489" lon="5.53418">
        <ele>292</ele>
        <time>2018-02-20T13:26:07.000Z</time>
      </trkpt>
      <trkpt lat="43.52489" lon="5.53416">
        <ele>292</ele>
        <time>2018-02-20T13:26:08.000Z</time>
      </trkpt>
      <trkpt lat="43.52489" lon="5.53415">
        <ele>292</ele>
        <time>2018-02-20T13:26:09.000Z</time>
      </trkpt>
      <trkpt lat="43.52489" lon="5.53412">
        <ele>292</ele>
        <time>2018-02-20T13:26:10.000Z</time>
      </trkpt>
      <trkpt lat="43.52489" lon="5.53411">
        <ele>292</ele>
        <time>2018-02-20T13:26:11.000Z</time>
      </trkpt>
      <trkpt lat="43.52489" lon="5.53409">
        <ele>292</ele>
        <time>2018-02-20T13:26:12.000Z</time>
      </trkpt>
      <trkpt lat="43.52489" lon="5.53407">
        <ele>291</ele>
        <time>2018-02-20T13:26:13.000Z</time>
      </trkpt>
      <trkpt lat="43.52489" lon="5.53405">
        <ele>291</ele>
        <time>2018-02-20T13:26:14.000Z</time>
      </trkpt>
      <trkpt lat="43.52489" lon="5.53404">
        <ele>291</ele>
        <time>2018-02-20T13:26:15.000Z</time>
      </trkpt>
      <trkpt lat="43.52489" lon="5.53402">
        <ele>291</ele>
        <time>2018-02-20T13:26:16.000Z</time>
      </trkpt>
      <trkpt lat="43.52489" lon="5.534">
        <ele>291</ele>
        <time>2018-02-20T13:26:17.000Z</time>
      </trkpt>
      <trkpt lat="43.52489" lon="5.53398">
        <ele>291</ele>
        <time>2018-02-20T13:26:18.000Z</time>
      </trkpt>
      <trkpt lat="43.52489" lon="5.53396">
        <ele>291</ele>
        <time>2018-02-20T13:26:19.000Z</time>
      </trkpt>
      <trkpt lat="43.52489" lon="5.53395">
        <ele>291</ele>
        <time>2018-02-20T13:26:20.000Z</time>
      </trkpt>
      <trkpt lat="43.52489" lon="5.53393">
        <ele>291</ele>
        <time>2018-02-20T13:26:21.000Z</time>
      </trkpt>
      <trkpt lat="43.52489" lon="5.53391">
        <ele>291</ele>
        <time>2018-02-20T13:26:22.000Z</time>
      </trkpt>
      <trkpt lat="43.52489" lon="5.53389">
        <ele>290</ele>
        <time>2018-02-20T13:26:23.000Z</time>
      </trkpt>
      <trkpt lat="43.5249" lon="5.53387">
        <ele>290</ele>
        <time>2018-02-20T13:26:24.000Z</time>
      </trkpt>
      <trkpt lat="43.5249" lon="5.53385">
        <ele>290</ele>
        <time>2018-02-20T13:26:25.000Z</time>
      </trkpt>
      <trkpt lat="43.5249" lon="5.53383">
        <ele>290</ele>
        <time>2018-02-20T13:26:26.000Z</time>
      </trkpt>
      <trkpt lat="43.5249" lon="5.53381">
        <ele>289</ele>
        <time>2018-02-20T13:26:27.000Z</time>
      </trkpt>
      <trkpt lat="43.52491" lon="5.5338">
        <ele>289</ele>
        <time>2018-02-20T13:26:28.000Z</time>
      </trkpt>
      <trkpt lat="43.52491" lon="5.53378">
        <ele>289</ele>
        <time>2018-02-20T13:26:29.000Z</time>
      </trkpt>
      <trkpt lat="43.52491" lon="5.53376">
        <ele>289</ele>
        <time>2018-02-20T13:26:30.000Z</time>
      </trkpt>
      <trkpt lat="43.52491" lon="5.53374">
        <ele>289</ele>
        <time>2018-02-20T13:26:31.000Z</time>
      </trkpt>
      <trkpt lat="43.52491" lon="5.53373">
        <ele>289</ele>
        <time>2018-02-20T13:26:32.000Z</time>
      </trkpt>
      <trkpt lat="43.52491" lon="5.53371">
        <ele>289</ele>
        <time>2018-02-20T13:26:33.000Z</time>
      </trkpt>
      <trkpt lat="43.52491" lon="5.53369">
        <ele>288</ele>
        <time>2018-02-20T13:26:34.000Z</time>
      </trkpt>
      <trkpt lat="43.52491" lon="5.53367">
        <ele>288</ele>
        <time>2018-02-20T13:26:35.000Z</time>
      </trkpt>
      <trkpt lat="43.52491" lon="5.53365">
        <ele>288</ele>
        <time>2018-02-20T13:26:36.000Z</time>
      </trkpt>
      <trkpt lat="43.52492" lon="5.53363">
        <ele>288</ele>
        <time>2018-02-20T13:26:37.000Z</time>
      </trkpt>
      <trkpt lat="43.52492" lon="5.53362">
        <ele>288</ele>
        <time>2018-02-20T13:26:38.000Z</time>
      </trkpt>
      <trkpt lat="43.52492" lon="5.5336">
        <ele>288</ele>
        <time>2018-02-20T13:26:39.000Z</time>
      </trkpt>
      <trkpt lat="43.52492" lon="5.53358">
        <ele>287</ele>
        <time>2018-02-20T13:26:40.000Z</time>
      </trkpt>
      <trkpt lat="43.52492" lon="5.53356">
        <ele>287</ele>
        <time>2018-02-20T13:26:41.000Z</time>
      </trkpt>
      <trkpt lat="43.52492" lon="5.53354">
        <ele>287</ele>
        <time>2018-02-20T13:26:42.000Z</time>
      </trkpt>
      <trkpt lat="43.52492" lon="5.53353">
        <ele>287</ele>
        <time>2018-02-20T13:26:43.000Z</time>
      </trkpt>
      <trkpt lat="43.52492" lon="5.53351">
        <ele>286</ele>
        <time>2018-02-20T13:26:44.000Z</time>
      </trkpt>
      <trkpt lat="43.52493" lon="5.53349">
        <ele>286</ele>
        <time>2018-02-20T13:26:45.000Z</time>
      </trkpt>
      <trkpt lat="43.52492" lon="5.53347">
        <ele>286</ele>
        <time>2018-02-20T13:26:46.000Z</time>
      </trkpt>
      <trkpt lat="43.52492" lon="5.53345">
        <ele>286</ele>
        <time>2018-02-20T13:26:47.000Z</time>
      </trkpt>
      <trkpt lat="43.52493" lon="5.53343">
        <ele>286</ele>
        <time>2018-02-20T13:26:48.000Z</time>
      </trkpt>
      <trkpt lat="43.52492" lon="5.53341">
        <ele>286</ele>
        <time>2018-02-20T13:26:49.000Z</time>
      </trkpt>
      <trkpt lat="43.52492" lon="5.5334">
        <ele>286</ele>
        <time>2018-02-20T13:26:50.000Z</time>
      </trkpt>
      <trkpt lat="43.52492" lon="5.53338">
        <ele>285</ele>
        <time>2018-02-20T13:26:51.000Z</time>
      </trkpt>
      <trkpt lat="43.52492" lon="5.53336">
        <ele>285</ele>
        <time>2018-02-20T13:26:52.000Z</time>
      </trkpt>
      <trkpt lat="43.52492" lon="5.53335">
        <ele>285</ele>
        <time>2018-02-20T13:26:53.000Z</time>
      </trkpt>
      <trkpt lat="43.52492" lon="5.53333">
        <ele>285</ele>
        <time>2018-02-20T13:26:54.000Z</time>
      </trkpt>
      <trkpt lat="43.52492" lon="5.53331">
        <ele>285</ele>
        <time>2018-02-20T13:26:55.000Z</time>
      </trkpt>
      <trkpt lat="43.52492" lon="5.53329">
        <ele>284</ele>
        <time>2018-02-20T13:26:56.000Z</time>
      </trkpt>
      <trkpt lat="43.52493" lon="5.53327">
        <ele>284</ele>
        <time>2018-02-20T13:26:57.000Z</time>
      </trkpt>
      <trkpt lat="43.52493" lon="5.53325">
        <ele>284</ele>
        <time>2018-02-20T13:26:58.000Z</time>
      </trkpt>
      <trkpt lat="43.52493" lon="5.53323">
        <ele>284</ele>
        <time>2018-02-20T13:26:59.000Z</time>
      </trkpt>
      <trkpt lat="43.52493" lon="5.53321">
        <ele>284</ele>
        <time>2018-02-20T13:27:00.000Z</time>
      </trkpt>
      <trkpt lat="43.52493" lon="5.5332">
        <ele>284</ele>
        <time>2018-02-20T13:27:01.000Z</time>
      </trkpt>
      <trkpt lat="43.52493" lon="5.53318">
        <ele>283</ele>
        <time>2018-02-20T13:27:02.000Z</time>
      </trkpt>
      <trkpt lat="43.52494" lon="5.53316">
        <ele>283</ele>
        <time>2018-02-20T13:27:03.000Z</time>
      </trkpt>
      <trkpt lat="43.52494" lon="5.53314">
        <ele>283</ele>
        <time>2018-02-20T13:27:04.000Z</time>
      </trkpt>
      <trkpt lat="43.52494" lon="5.53312">
        <ele>283</ele>
        <time>2018-02-20T13:27:05.000Z</time>
      </trkpt>
      <trkpt lat="43.52494" lon="5.5331">
        <ele>283</ele>
        <time>2018-02-20T13:27:06.000Z</time>
      </trkpt>
      <trkpt lat="43.52494" lon="5.53309">
        <ele>282</ele>
        <time>2018-02-20T13:27:07.000Z</time>
      </trkpt>
      <trkpt lat="43.52494" lon="5.53307">
        <ele>282</ele>
        <time>2018-02-20T13:27:08.000Z</time>
      </trkpt>
      <trkpt lat="43.52494" lon="5.53305">
        <ele>282</ele>
        <time>2018-02-20T13:27:09.000Z</time>
      </trkpt>
      <trkpt lat="43.52493" lon="5.53303">
        <ele>282</ele>
        <time>2018-02-20T13:27:10.000Z</time>
      </trkpt>
      <trkpt lat="43.52493" lon="5.53301">
        <ele>282</ele>
        <time>2018-02-20T13:27:11.000Z</time>
      </trkpt>
      <trkpt lat="43.52493" lon="5.53299">
        <ele>282</ele>
        <time>2018-02-20T13:27:12.000Z</time>
      </trkpt>
      <trkpt lat="43.52493" lon="5.53297">
        <ele>281</ele>
        <time>2018-02-20T13:27:13.000Z</time>
      </trkpt>
      <trkpt lat="43.52492" lon="5.53296">
        <ele>281</ele>
        <time>2018-02-20T13:27:14.000Z</time>
      </trkpt>
      <trkpt lat="43.52492" lon="5.53294">
        <ele>281</ele>
        <time>2018-02-20T13:27:15.000Z</time>
      </trkpt>
      <trkpt lat="43.52492" lon="5.53292">
        <ele>281</ele>
        <time>2018-02-20T13:27:16.000Z</time>
      </trkpt>
      <trkpt lat="43.52492" lon="5.5329">
        <ele>281</ele>
        <time>2018-02-20T13:27:17.000Z</time>
      </trkpt>
      <trkpt lat="43.52491" lon="5.53288">
        <ele>281</ele>
        <time>2018-02-20T13:27:18.000Z</time>
      </trkpt>
      <trkpt lat="43.52491" lon="5.53286">
        <ele>281</ele>
        <time>2018-02-20T13:27:19.000Z</time>
      </trkpt>
      <trkpt lat="43.52491" lon="5.53284">
        <ele>281</ele>
        <time>2018-02-20T13:27:20.000Z</time>
      </trkpt>
      <trkpt lat="43.5249" lon="5.53282">
        <ele>280</ele>
        <time>2018-02-20T13:27:21.000Z</time>
      </trkpt>
      <trkpt lat="43.5249" lon="5.5328">
        <ele>280</ele>
        <time>2018-02-20T13:27:22.000Z</time>
      </trkpt>
      <trkpt lat="43.5249" lon="5.53278">
        <ele>280</ele>
        <time>2018-02-20T13:27:23.000Z</time>
      </trkpt>
      <trkpt lat="43.5249" lon="5.53276">
        <ele>280</ele>
        <time>2018-02-20T13:27:24.000Z</time>
      </trkpt>
      <trkpt lat="43.52489" lon="5.53275">
        <ele>280</ele>
        <time>2018-02-20T13:27:25.000Z</time>
      </trkpt>
      <trkpt lat="43.52489" lon="5.53273">
        <ele>280</ele>
        <time>2018-02-20T13:27:26.000Z</time>
      </trkpt>
      <trkpt lat="43.52489" lon="5.53272">
        <ele>280</ele>
        <time>2018-02-20T13:27:27.000Z</time>
      </trkpt>
      <trkpt lat="43.52489" lon="5.5327">
        <ele>279</ele>
        <time>2018-02-20T13:27:28.000Z</time>
      </trkpt>
      <trkpt lat="43.52488" lon="5.53269">
        <ele>279</ele>
        <time>2018-02-20T13:27:29.000Z</time>
      </trkpt>
      <trkpt lat="43.52488" lon="5.53267">
        <ele>279</ele>
        <time>2018-02-20T13:27:30.000Z</time>
      </trkpt>
      <trkpt lat="43.52488" lon="5.53265">
        <ele>279</ele>
        <time>2018-02-20T13:27:31.000Z</time>
      </trkpt>
      <trkpt lat="43.52488" lon="5.53263">
        <ele>279</ele>
        <time>2018-02-20T13:27:32.000Z</time>
      </trkpt>
      <trkpt lat="43.52488" lon="5.53261">
        <ele>278</ele>
        <time>2018-02-20T13:27:33.000Z</time>
      </trkpt>
      <trkpt lat="43.52488" lon="5.5326">
        <ele>278</ele>
        <time>2018-02-20T13:27:34.000Z</time>
      </trkpt>
      <trkpt lat="43.52488" lon="5.53258">
        <ele>278</ele>
        <time>2018-02-20T13:27:35.000Z</time>
      </trkpt>
      <trkpt lat="43.52488" lon="5.53256">
        <ele>278</ele>
        <time>2018-02-20T13:27:36.000Z</time>
      </trkpt>
      <trkpt lat="43.52488" lon="5.53253">
        <ele>278</ele>
        <time>2018-02-20T13:27:37.000Z</time>
      </trkpt>
      <trkpt lat="43.52488" lon="5.53251">
        <ele>278</ele>
        <time>2018-02-20T13:27:38.000Z</time>
      </trkpt>
      <trkpt lat="43.52487" lon="5.53249">
        <ele>278</ele>
        <time>2018-02-20T13:27:39.000Z</time>
      </trkpt>
      <trkpt lat="43.52488" lon="5.53247">
        <ele>278</ele>
        <time>2018-02-20T13:27:40.000Z</time>
      </trkpt>
      <trkpt lat="43.52488" lon="5.53245">
        <ele>278</ele>
        <time>2018-02-20T13:27:41.000Z</time>
      </trkpt>
      <trkpt lat="43.52488" lon="5.53243">
        <ele>278</ele>
        <time>2018-02-20T13:27:42.000Z</time>
      </trkpt>
      <trkpt lat="43.52488" lon="5.53241">
        <ele>278</ele>
        <time>2018-02-20T13:27:43.000Z</time>
      </trkpt>
      <trkpt lat="43.52488" lon="5.53239">
        <ele>278</ele>
        <time>2018-02-20T13:27:44.000Z</time>
      </trkpt>
      <trkpt lat="43.52488" lon="5.53237">
        <ele>278</ele>
        <time>2018-02-20T13:27:45.000Z</time>
      </trkpt>
      <trkpt lat="43.52487" lon="5.53236">
        <ele>278</ele>
        <time>2018-02-20T13:27:46.000Z</time>
      </trkpt>
      <trkpt lat="43.52487" lon="5.53234">
        <ele>277</ele>
        <time>2018-02-20T13:27:47.000Z</time>
      </trkpt>
      <trkpt lat="43.52486" lon="5.53232">
        <ele>277</ele>
        <time>2018-02-20T13:27:48.000Z</time>
      </trkpt>
      <trkpt lat="43.52486" lon="5.5323">
        <ele>277</ele>
        <time>2018-02-20T13:27:49.000Z</time>
      </trkpt>
      <trkpt lat="43.52486" lon="5.53229">
        <ele>277</ele>
        <time>2018-02-20T13:27:50.000Z</time>
      </trkpt>
      <trkpt lat="43.52485" lon="5.53227">
        <ele>276</ele>
        <time>2018-02-20T13:27:51.000Z</time>
      </trkpt>
      <trkpt lat="43.52485" lon="5.53225">
        <ele>276</ele>
        <time>2018-02-20T13:27:52.000Z</time>
      </trkpt>
      <trkpt lat="43.52484" lon="5.53224">
        <ele>276</ele>
        <time>2018-02-20T13:27:53.000Z</time>
      </trkpt>
      <trkpt lat="43.52483" lon="5.53223">
        <ele>276</ele>
        <time>2018-02-20T13:27:54.000Z</time>
      </trkpt>
      <trkpt lat="43.52483" lon="5.53221">
        <ele>276</ele>
        <time>2018-02-20T13:27:55.000Z</time>
      </trkpt>
      <trkpt lat="43.52482" lon="5.5322">
        <ele>276</ele>
        <time>2018-02-20T13:27:56.000Z</time>
      </trkpt>
      <trkpt lat="43.52481" lon="5.53219">
        <ele>276</ele>
        <time>2018-02-20T13:27:57.000Z</time>
      </trkpt>
      <trkpt lat="43.5248" lon="5.53218">
        <ele>276</ele>
        <time>2018-02-20T13:27:58.000Z</time>
      </trkpt>
      <trkpt lat="43.52479" lon="5.53217">
        <ele>276</ele>
        <time>2018-02-20T13:27:59.000Z</time>
      </trkpt>
      <trkpt lat="43.52478" lon="5.53215">
        <ele>276</ele>
        <time>2018-02-20T13:28:00.000Z</time>
      </trkpt>
      <trkpt lat="43.52478" lon="5.53214">
        <ele>276</ele>
        <time>2018-02-20T13:28:01.000Z</time>
      </trkpt>
      <trkpt lat="43.52477" lon="5.53213">
        <ele>276</ele>
        <time>2018-02-20T13:28:02.000Z</time>
      </trkpt>
      <trkpt lat="43.52476" lon="5.53211">
        <ele>276</ele>
        <time>2018-02-20T13:28:03.000Z</time>
      </trkpt>
      <trkpt lat="43.52475" lon="5.53209">
        <ele>276</ele>
        <time>2018-02-20T13:28:04.000Z</time>
      </trkpt>
      <trkpt lat="43.52474" lon="5.53208">
        <ele>275</ele>
        <time>2018-02-20T13:28:05.000Z</time>
      </trkpt>
      <trkpt lat="43.52474" lon="5.53207">
        <ele>275</ele>
        <time>2018-02-20T13:28:06.000Z</time>
      </trkpt>
      <trkpt lat="43.52473" lon="5.53205">
        <ele>275</ele>
        <time>2018-02-20T13:28:07.000Z</time>
      </trkpt>
      <trkpt lat="43.52472" lon="5.53204">
        <ele>275</ele>
        <time>2018-02-20T13:28:08.000Z</time>
      </trkpt>
      <trkpt lat="43.52472" lon="5.53202">
        <ele>275</ele>
        <time>2018-02-20T13:28:09.000Z</time>
      </trkpt>
      <trkpt lat="43.52471" lon="5.53201">
        <ele>275</ele>
        <time>2018-02-20T13:28:10.000Z</time>
      </trkpt>
      <trkpt lat="43.52471" lon="5.532">
        <ele>275</ele>
        <time>2018-02-20T13:28:11.000Z</time>
      </trkpt>
      <trkpt lat="43.5247" lon="5.53199">
        <ele>275</ele>
        <time>2018-02-20T13:28:12.000Z</time>
      </trkpt>
      <trkpt lat="43.5247" lon="5.53198">
        <ele>274</ele>
        <time>2018-02-20T13:28:13.000Z</time>
      </trkpt>
      <trkpt lat="43.52469" lon="5.53196">
        <ele>274</ele>
        <time>2018-02-20T13:28:14.000Z</time>
      </trkpt>
      <trkpt lat="43.52468" lon="5.53195">
        <ele>274</ele>
        <time>2018-02-20T13:28:15.000Z</time>
      </trkpt>
      <trkpt lat="43.52468" lon="5.53194">
        <ele>274</ele>
        <time>2018-02-20T13:28:16.000Z</time>
      </trkpt>
      <trkpt lat="43.52467" lon="5.53192">
        <ele>274</ele>
        <time>2018-02-20T13:28:17.000Z</time>
      </trkpt>
      <trkpt lat="43.52466" lon="5.53191">
        <ele>274</ele>
        <time>2018-02-20T13:28:18.000Z</time>
      </trkpt>
      <trkpt lat="43.52466" lon="5.5319">
        <ele>274</ele>
        <time>2018-02-20T13:28:19.000Z</time>
      </trkpt>
      <trkpt lat="43.52465" lon="5.53188">
        <ele>273</ele>
        <time>2018-02-20T13:28:20.000Z</time>
      </trkpt>
      <trkpt lat="43.52465" lon="5.53187">
        <ele>273</ele>
        <time>2018-02-20T13:28:21.000Z</time>
      </trkpt>
      <trkpt lat="43.52464" lon="5.53186">
        <ele>273</ele>
        <time>2018-02-20T13:28:22.000Z</time>
      </trkpt>
      <trkpt lat="43.52464" lon="5.53184">
        <ele>273</ele>
        <time>2018-02-20T13:28:23.000Z</time>
      </trkpt>
      <trkpt lat="43.52463" lon="5.53183">
        <ele>273</ele>
        <time>2018-02-20T13:28:24.000Z</time>
      </trkpt>
      <trkpt lat="43.52463" lon="5.53182">
        <ele>272</ele>
        <time>2018-02-20T13:28:25.000Z</time>
      </trkpt>
      <trkpt lat="43.52462" lon="5.5318">
        <ele>272</ele>
        <time>2018-02-20T13:28:26.000Z</time>
      </trkpt>
      <trkpt lat="43.52462" lon="5.53179">
        <ele>272</ele>
        <time>2018-02-20T13:28:27.000Z</time>
      </trkpt>
      <trkpt lat="43.52462" lon="5.53177">
        <ele>272</ele>
        <time>2018-02-20T13:28:28.000Z</time>
      </trkpt>
      <trkpt lat="43.52461" lon="5.53175">
        <ele>272</ele>
        <time>2018-02-20T13:28:29.000Z</time>
      </trkpt>
      <trkpt lat="43.52461" lon="5.53173">
        <ele>272</ele>
        <time>2018-02-20T13:28:30.000Z</time>
      </trkpt>
      <trkpt lat="43.52461" lon="5.53172">
        <ele>272</ele>
        <time>2018-02-20T13:28:31.000Z</time>
      </trkpt>
      <trkpt lat="43.5246" lon="5.53171">
        <ele>272</ele>
        <time>2018-02-20T13:28:32.000Z</time>
      </trkpt>
      <trkpt lat="43.5246" lon="5.5317">
        <ele>271</ele>
        <time>2018-02-20T13:28:33.000Z</time>
      </trkpt>
      <trkpt lat="43.52459" lon="5.53168">
        <ele>271</ele>
        <time>2018-02-20T13:28:34.000Z</time>
      </trkpt>
      <trkpt lat="43.52459" lon="5.53167">
        <ele>271</ele>
        <time>2018-02-20T13:28:35.000Z</time>
      </trkpt>
      <trkpt lat="43.52458" lon="5.53165">
        <ele>271</ele>
        <time>2018-02-20T13:28:36.000Z</time>
      </trkpt>
      <trkpt lat="43.52458" lon="5.53164">
        <ele>271</ele>
        <time>2018-02-20T13:28:37.000Z</time>
      </trkpt>
      <trkpt lat="43.52458" lon="5.53162">
        <ele>271</ele>
        <time>2018-02-20T13:28:38.000Z</time>
      </trkpt>
      <trkpt lat="43.52457" lon="5.53161">
        <ele>271</ele>
        <time>2018-02-20T13:28:39.000Z</time>
      </trkpt>
      <trkpt lat="43.52457" lon="5.5316">
        <ele>271</ele>
        <time>2018-02-20T13:28:40.000Z</time>
      </trkpt>
      <trkpt lat="43.52456" lon="5.53158">
        <ele>271</ele>
        <time>2018-02-20T13:28:41.000Z</time>
      </trkpt>
      <trkpt lat="43.52456" lon="5.53157">
        <ele>271</ele>
        <time>2018-02-20T13:28:42.000Z</time>
      </trkpt>
      <trkpt lat="43.52456" lon="5.53155">
        <ele>270</ele>
        <time>2018-02-20T13:28:43.000Z</time>
      </trkpt>
      <trkpt lat="43.52455" lon="5.53154">
        <ele>270</ele>
        <time>2018-02-20T13:28:44.000Z</time>
      </trkpt>
      <trkpt lat="43.52455" lon="5.53152">
        <ele>270</ele>
        <time>2018-02-20T13:28:45.000Z</time>
      </trkpt>
      <trkpt lat="43.52454" lon="5.53151">
        <ele>270</ele>
        <time>2018-02-20T13:28:46.000Z</time>
      </trkpt>
      <trkpt lat="43.52454" lon="5.5315">
        <ele>270</ele>
        <time>2018-02-20T13:28:47.000Z</time>
      </trkpt>
      <trkpt lat="43.52454" lon="5.53148">
        <ele>270</ele>
        <time>2018-02-20T13:28:48.000Z</time>
      </trkpt>
      <trkpt lat="43.52453" lon="5.53147">
        <ele>270</ele>
        <time>2018-02-20T13:28:49.000Z</time>
      </trkpt>
      <trkpt lat="43.52453" lon="5.53145">
        <ele>270</ele>
        <time>2018-02-20T13:28:50.000Z</time>
      </trkpt>
      <trkpt lat="43.52452" lon="5.53144">
        <ele>270</ele>
        <time>2018-02-20T13:28:51.000Z</time>
      </trkpt>
      <trkpt lat="43.52452" lon="5.53142">
        <ele>270</ele>
        <time>2018-02-20T13:28:52.000Z</time>
      </trkpt>
      <trkpt lat="43.52452" lon="5.5314">
        <ele>270</ele>
        <time>2018-02-20T13:28:53.000Z</time>
      </trkpt>
      <trkpt lat="43.52451" lon="5.53139">
        <ele>270</ele>
        <time>2018-02-20T13:28:54.000Z</time>
      </trkpt>
      <trkpt lat="43.52451" lon="5.53137">
        <ele>270</ele>
        <time>2018-02-20T13:28:55.000Z</time>
      </trkpt>
      <trkpt lat="43.52451" lon="5.53136">
        <ele>269</ele>
        <time>2018-02-20T13:28:56.000Z</time>
      </trkpt>
      <trkpt lat="43.52451" lon="5.53134">
        <ele>269</ele>
        <time>2018-02-20T13:28:57.000Z</time>
      </trkpt>
      <trkpt lat="43.5245" lon="5.53133">
        <ele>269</ele>
        <time>2018-02-20T13:28:58.000Z</time>
      </trkpt>
      <trkpt lat="43.5245" lon="5.53131">
        <ele>269</ele>
        <time>2018-02-20T13:28:59.000Z</time>
      </trkpt>
      <trkpt lat="43.5245" lon="5.53129">
        <ele>269</ele>
        <time>2018-02-20T13:29:00.000Z</time>
      </trkpt>
      <trkpt lat="43.52449" lon="5.53128">
        <ele>269</ele>
        <time>2018-02-20T13:29:01.000Z</time>
      </trkpt>
      <trkpt lat="43.52449" lon="5.53126">
        <ele>269</ele>
        <time>2018-02-20T13:29:02.000Z</time>
      </trkpt>
      <trkpt lat="43.52449" lon="5.53125">
        <ele>269</ele>
        <time>2018-02-20T13:29:03.000Z</time>
      </trkpt>
      <trkpt lat="43.52449" lon="5.53123">
        <ele>269</ele>
        <time>2018-02-20T13:29:04.000Z</time>
      </trkpt>
      <trkpt lat="43.52448" lon="5.53122">
        <ele>269</ele>
        <time>2018-02-20T13:29:05.000Z</time>
      </trkpt>
      <trkpt lat="43.52448" lon="5.5312">
        <ele>269</ele>
        <time>2018-02-20T13:29:06.000Z</time>
      </trkpt>
      <trkpt lat="43.52448" lon="5.53119">
        <ele>268</ele>
        <time>2018-02-20T13:29:07.000Z</time>
      </trkpt>
      <trkpt lat="43.52447" lon="5.53117">
        <ele>268</ele>
        <time>2018-02-20T13:29:08.000Z</time>
      </trkpt>
      <trkpt lat="43.52447" lon="5.53115">
        <ele>268</ele>
        <time>2018-02-20T13:29:09.000Z</time>
      </trkpt>
      <trkpt lat="43.52447" lon="5.53113">
        <ele>268</ele>
        <time>2018-02-20T13:29:10.000Z</time>
      </trkpt>
      <trkpt lat="43.52446" lon="5.53112">
        <ele>268</ele>
        <time>2018-02-20T13:29:11.000Z</time>
      </trkpt>
      <trkpt lat="43.52446" lon="5.5311">
        <ele>268</ele>
        <time>2018-02-20T13:29:12.000Z</time>
      </trkpt>
      <trkpt lat="43.52446" lon="5.53109">
        <ele>268</ele>
        <time>2018-02-20T13:29:13.000Z</time>
      </trkpt>
      <trkpt lat="43.52445" lon="5.53107">
        <ele>268</ele>
        <time>2018-02-20T13:29:14.000Z</time>
      </trkpt>
      <trkpt lat="43.52445" lon="5.53105">
        <ele>268</ele>
        <time>2018-02-20T13:29:15.000Z</time>
      </trkpt>
      <trkpt lat="43.52445" lon="5.53104">
        <ele>268</ele>
        <time>2018-02-20T13:29:16.000Z</time>
      </trkpt>
      <trkpt lat="43.52445" lon="5.53102">
        <ele>268</ele>
        <time>2018-02-20T13:29:17.000Z</time>
      </trkpt>
      <trkpt lat="43.52444" lon="5.531">
        <ele>268</ele>
        <time>2018-02-20T13:29:18.000Z</time>
      </trkpt>
      <trkpt lat="43.52444" lon="5.53098">
        <ele>268</ele>
        <time>2018-02-20T13:29:19.000Z</time>
      </trkpt>
      <trkpt lat="43.52444" lon="5.53097">
        <ele>267</ele>
        <time>2018-02-20T13:29:20.000Z</time>
      </trkpt>
      <trkpt lat="43.52444" lon="5.53095">
        <ele>267</ele>
        <time>2018-02-20T13:29:21.000Z</time>
      </trkpt>
      <trkpt lat="43.52443" lon="5.53093">
        <ele>267</ele>
        <time>2018-02-20T13:29:22.000Z</time>
      </trkpt>
      <trkpt lat="43.52443" lon="5.53092">
        <ele>267</ele>
        <time>2018-02-20T13:29:23.000Z</time>
      </trkpt>
      <trkpt lat="43.52443" lon="5.5309">
        <ele>267</ele>
        <time>2018-02-20T13:29:24.000Z</time>
      </trkpt>
      <trkpt lat="43.52442" lon="5.53088">
        <ele>267</ele>
        <time>2018-02-20T13:29:25.000Z</time>
      </trkpt>
      <trkpt lat="43.52442" lon="5.53087">
        <ele>267</ele>
        <time>2018-02-20T13:29:26.000Z</time>
      </trkpt>
      <trkpt lat="43.52442" lon="5.53085">
        <ele>267</ele>
        <time>2018-02-20T13:29:27.000Z</time>
      </trkpt>
      <trkpt lat="43.52441" lon="5.53084">
        <ele>266</ele>
        <time>2018-02-20T13:29:28.000Z</time>
      </trkpt>
      <trkpt lat="43.52441" lon="5.53082">
        <ele>266</ele>
        <time>2018-02-20T13:29:29.000Z</time>
      </trkpt>
      <trkpt lat="43.52441" lon="5.5308">
        <ele>266</ele>
        <time>2018-02-20T13:29:30.000Z</time>
      </trkpt>
      <trkpt lat="43.5244" lon="5.53079">
        <ele>266</ele>
        <time>2018-02-20T13:29:31.000Z</time>
      </trkpt>
      <trkpt lat="43.5244" lon="5.53077">
        <ele>266</ele>
        <time>2018-02-20T13:29:32.000Z</time>
      </trkpt>
      <trkpt lat="43.5244" lon="5.53075">
        <ele>266</ele>
        <time>2018-02-20T13:29:33.000Z</time>
      </trkpt>
      <trkpt lat="43.52439" lon="5.53074">
        <ele>266</ele>
        <time>2018-02-20T13:29:34.000Z</time>
      </trkpt>
      <trkpt lat="43.52439" lon="5.53072">
        <ele>266</ele>
        <time>2018-02-20T13:29:35.000Z</time>
      </trkpt>
      <trkpt lat="43.52439" lon="5.53071">
        <ele>266</ele>
        <time>2018-02-20T13:29:36.000Z</time>
      </trkpt>
      <trkpt lat="43.52439" lon="5.53069">
        <ele>266</ele>
        <time>2018-02-20T13:29:37.000Z</time>
      </trkpt>
      <trkpt lat="43.52438" lon="5.53068">
        <ele>265</ele>
        <time>2018-02-20T13:29:38.000Z</time>
      </trkpt>
      <trkpt lat="43.52438" lon="5.53066">
        <ele>265</ele>
        <time>2018-02-20T13:29:39.000Z</time>
      </trkpt>
      <trkpt lat="43.52437" lon="5.53064">
        <ele>265</ele>
        <time>2018-02-20T13:29:40.000Z</time>
      </trkpt>
      <trkpt lat="43.52437" lon="5.53063">
        <ele>265</ele>
        <time>2018-02-20T13:29:41.000Z</time>
      </trkpt>
      <trkpt lat="43.52437" lon="5.53061">
        <ele>265</ele>
        <time>2018-02-20T13:29:42.000Z</time>
      </trkpt>
      <trkpt lat="43.52436" lon="5.5306">
        <ele>265</ele>
        <time>2018-02-20T13:29:43.000Z</time>
      </trkpt>
      <trkpt lat="43.52436" lon="5.53058">
        <ele>265</ele>
        <time>2018-02-20T13:29:44.000Z</time>
      </trkpt>
      <trkpt lat="43.52435" lon="5.53056">
        <ele>265</ele>
        <time>2018-02-20T13:29:45.000Z</time>
      </trkpt>
      <trkpt lat="43.52435" lon="5.53055">
        <ele>265</ele>
        <time>2018-02-20T13:29:46.000Z</time>
      </trkpt>
      <trkpt lat="43.52435" lon="5.53053">
        <ele>264</ele>
        <time>2018-02-20T13:29:47.000Z</time>
      </trkpt>
      <trkpt lat="43.52434" lon="5.53051">
        <ele>264</ele>
        <time>2018-02-20T13:29:48.000Z</time>
      </trkpt>
      <trkpt lat="43.52434" lon="5.53049">
        <ele>264</ele>
        <time>2018-02-20T13:29:49.000Z</time>
      </trkpt>
      <trkpt lat="43.52434" lon="5.53048">
        <ele>264</ele>
        <time>2018-02-20T13:29:50.000Z</time>
      </trkpt>
      <trkpt lat="43.52434" lon="5.53046">
        <ele>264</ele>
        <time>2018-02-20T13:29:51.000Z</time>
      </trkpt>
      <trkpt lat="43.52434" lon="5.53045">
        <ele>264</ele>
        <time>2018-02-20T13:29:52.000Z</time>
      </trkpt>
      <trkpt lat="43.52433" lon="5.53043">
        <ele>264</ele>
        <time>2018-02-20T13:29:53.000Z</time>
      </trkpt>
      <trkpt lat="43.52433" lon="5.53041">
        <ele>264</ele>
        <time>2018-02-20T13:29:54.000Z</time>
      </trkpt>
      <trkpt lat="43.52433" lon="5.5304">
        <ele>263</ele>
        <time>2018-02-20T13:29:55.000Z</time>
      </trkpt>
      <trkpt lat="43.52433" lon="5.53038">
        <ele>263</ele>
        <time>2018-02-20T13:29:56.000Z</time>
      </trkpt>
      <trkpt lat="43.52433" lon="5.53037">
        <ele>263</ele>
        <time>2018-02-20T13:29:57.000Z</time>
      </trkpt>
      <trkpt lat="43.52433" lon="5.53035">
        <ele>263</ele>
        <time>2018-02-20T13:29:58.000Z</time>
      </trkpt>
      <trkpt lat="43.52433" lon="5.53034">
        <ele>263</ele>
        <time>2018-02-20T13:29:59.000Z</time>
      </trkpt>
      <trkpt lat="43.52433" lon="5.53032">
        <ele>262</ele>
        <time>2018-02-20T13:30:00.000Z</time>
      </trkpt>
      <trkpt lat="43.52433" lon="5.53031">
        <ele>262</ele>
        <time>2018-02-20T13:30:01.000Z</time>
      </trkpt>
      <trkpt lat="43.52433" lon="5.53029">
        <ele>262</ele>
        <time>2018-02-20T13:30:02.000Z</time>
      </trkpt>
      <trkpt lat="43.52433" lon="5.53027">
        <ele>262</ele>
        <time>2018-02-20T13:30:03.000Z</time>
      </trkpt>
      <trkpt lat="43.52433" lon="5.53026">
        <ele>262</ele>
        <time>2018-02-20T13:30:04.000Z</time>
      </trkpt>
      <trkpt lat="43.52433" lon="5.53024">
        <ele>262</ele>
        <time>2018-02-20T13:30:05.000Z</time>
      </trkpt>
      <trkpt lat="43.52434" lon="5.53022">
        <ele>262</ele>
        <time>2018-02-20T13:30:06.000Z</time>
      </trkpt>
      <trkpt lat="43.52434" lon="5.5302">
        <ele>262</ele>
        <time>2018-02-20T13:30:07.000Z</time>
      </trkpt>
      <trkpt lat="43.52434" lon="5.53019">
        <ele>262</ele>
        <time>2018-02-20T13:30:08.000Z</time>
      </trkpt>
      <trkpt lat="43.52434" lon="5.53017">
        <ele>261</ele>
        <time>2018-02-20T13:30:09.000Z</time>
      </trkpt>
      <trkpt lat="43.52434" lon="5.53016">
        <ele>261</ele>
        <time>2018-02-20T13:30:10.000Z</time>
      </trkpt>
      <trkpt lat="43.52434" lon="5.53014">
        <ele>261</ele>
        <time>2018-02-20T13:30:11.000Z</time>
      </trkpt>
      <trkpt lat="43.52434" lon="5.53013">
        <ele>261</ele>
        <time>2018-02-20T13:30:12.000Z</time>
      </trkpt>
      <trkpt lat="43.52435" lon="5.53011">
        <ele>261</ele>
        <time>2018-02-20T13:30:13.000Z</time>
      </trkpt>
      <trkpt lat="43.52435" lon="5.53009">
        <ele>261</ele>
        <time>2018-02-20T13:30:14.000Z</time>
      </trkpt>
      <trkpt lat="43.52435" lon="5.53008">
        <ele>260</ele>
        <time>2018-02-20T13:30:15.000Z</time>
      </trkpt>
      <trkpt lat="43.52435" lon="5.53006">
        <ele>260</ele>
        <time>2018-02-20T13:30:16.000Z</time>
      </trkpt>
      <trkpt lat="43.52435" lon="5.53004">
        <ele>260</ele>
        <time>2018-02-20T13:30:17.000Z</time>
      </trkpt>
      <trkpt lat="43.52435" lon="5.53003">
        <ele>260</ele>
        <time>2018-02-20T13:30:18.000Z</time>
      </trkpt>
      <trkpt lat="43.52435" lon="5.53001">
        <ele>260</ele>
        <time>2018-02-20T13:30:19.000Z</time>
      </trkpt>
      <trkpt lat="43.52435" lon="5.52999">
        <ele>260</ele>
        <time>2018-02-20T13:30:20.000Z</time>
      </trkpt>
      <trkpt lat="43.52435" lon="5.52997">
        <ele>260</ele>
        <time>2018-02-20T13:30:21.000Z</time>
      </trkpt>
      <trkpt lat="43.52435" lon="5.52995">
        <ele>260</ele>
        <time>2018-02-20T13:30:22.000Z</time>
      </trkpt>
      <trkpt lat="43.52435" lon="5.52994">
        <ele>260</ele>
        <time>2018-02-20T13:30:23.000Z</time>
      </trkpt>
      <trkpt lat="43.52435" lon="5.52992">
        <ele>260</ele>
        <time>2018-02-20T13:30:24.000Z</time>
      </trkpt>
      <trkpt lat="43.52435" lon="5.5299">
        <ele>260</ele>
        <time>2018-02-20T13:30:25.000Z</time>
      </trkpt>
      <trkpt lat="43.52435" lon="5.52988">
        <ele>260</ele>
        <time>2018-02-20T13:30:26.000Z</time>
      </trkpt>
      <trkpt lat="43.52435" lon="5.52987">
        <ele>260</ele>
        <time>2018-02-20T13:30:27.000Z</time>
      </trkpt>
      <trkpt lat="43.52435" lon="5.52985">
        <ele>260</ele>
        <time>2018-02-20T13:30:28.000Z</time>
      </trkpt>
      <trkpt lat="43.52435" lon="5.52983">
        <ele>260</ele>
        <time>2018-02-20T13:30:29.000Z</time>
      </trkpt>
      <trkpt lat="43.52434" lon="5.52982">
        <ele>260</ele>
        <time>2018-02-20T13:30:30.000Z</time>
      </trkpt>
      <trkpt lat="43.52434" lon="5.5298">
        <ele>260</ele>
        <time>2018-02-20T13:30:31.000Z</time>
      </trkpt>
      <trkpt lat="43.52434" lon="5.52979">
        <ele>260</ele>
        <time>2018-02-20T13:30:32.000Z</time>
      </trkpt>
      <trkpt lat="43.52434" lon="5.52977">
        <ele>260</ele>
        <time>2018-02-20T13:30:33.000Z</time>
      </trkpt>
      <trkpt lat="43.52433" lon="5.52975">
        <ele>260</ele>
        <time>2018-02-20T13:30:34.000Z</time>
      </trkpt>
      <trkpt lat="43.52433" lon="5.52974">
        <ele>260</ele>
        <time>2018-02-20T13:30:35.000Z</time>
      </trkpt>
      <trkpt lat="43.52433" lon="5.52972">
        <ele>260</ele>
        <time>2018-02-20T13:30:36.000Z</time>
      </trkpt>
      <trkpt lat="43.52433" lon="5.5297">
        <ele>260</ele>
        <time>2018-02-20T13:30:37.000Z</time>
      </trkpt>
      <trkpt lat="43.52433" lon="5.52968">
        <ele>259</ele>
        <time>2018-02-20T13:30:38.000Z</time>
      </trkpt>
      <trkpt lat="43.52432" lon="5.52967">
        <ele>259</ele>
        <time>2018-02-20T13:30:39.000Z</time>
      </trkpt>
      <trkpt lat="43.52432" lon="5.52965">
        <ele>259</ele>
        <time>2018-02-20T13:30:40.000Z</time>
      </trkpt>
      <trkpt lat="43.52432" lon="5.52963">
        <ele>259</ele>
        <time>2018-02-20T13:30:41.000Z</time>
      </trkpt>
      <trkpt lat="43.52432" lon="5.52962">
        <ele>259</ele>
        <time>2018-02-20T13:30:42.000Z</time>
      </trkpt>
      <trkpt lat="43.52432" lon="5.5296">
        <ele>259</ele>
        <time>2018-02-20T13:30:43.000Z</time>
      </trkpt>
      <trkpt lat="43.52431" lon="5.52959">
        <ele>259</ele>
        <time>2018-02-20T13:30:44.000Z</time>
      </trkpt>
      <trkpt lat="43.52431" lon="5.52957">
        <ele>259</ele>
        <time>2018-02-20T13:30:45.000Z</time>
      </trkpt>
      <trkpt lat="43.52431" lon="5.52955">
        <ele>259</ele>
        <time>2018-02-20T13:30:46.000Z</time>
      </trkpt>
      <trkpt lat="43.52431" lon="5.52953">
        <ele>258</ele>
        <time>2018-02-20T13:30:47.000Z</time>
      </trkpt>
      <trkpt lat="43.52431" lon="5.52952">
        <ele>258</ele>
        <time>2018-02-20T13:30:48.000Z</time>
      </trkpt>
      <trkpt lat="43.52431" lon="5.5295">
        <ele>258</ele>
        <time>2018-02-20T13:30:49.000Z</time>
      </trkpt>
      <trkpt lat="43.5243" lon="5.52948">
        <ele>258</ele>
        <time>2018-02-20T13:30:50.000Z</time>
      </trkpt>
      <trkpt lat="43.5243" lon="5.52947">
        <ele>258</ele>
        <time>2018-02-20T13:30:51.000Z</time>
      </trkpt>
      <trkpt lat="43.5243" lon="5.52945">
        <ele>258</ele>
        <time>2018-02-20T13:30:52.000Z</time>
      </trkpt>
      <trkpt lat="43.5243" lon="5.52944">
        <ele>258</ele>
        <time>2018-02-20T13:30:53.000Z</time>
      </trkpt>
      <trkpt lat="43.5243" lon="5.52942">
        <ele>258</ele>
        <time>2018-02-20T13:30:54.000Z</time>
      </trkpt>
      <trkpt lat="43.52429" lon="5.5294">
        <ele>258</ele>
        <time>2018-02-20T13:30:55.000Z</time>
      </trkpt>
      <trkpt lat="43.52429" lon="5.52938">
        <ele>258</ele>
        <time>2018-02-20T13:30:56.000Z</time>
      </trkpt>
      <trkpt lat="43.52428" lon="5.52937">
        <ele>258</ele>
        <time>2018-02-20T13:30:57.000Z</time>
      </trkpt>
      <trkpt lat="43.52428" lon="5.52935">
        <ele>258</ele>
        <time>2018-02-20T13:30:58.000Z</time>
      </trkpt>
      <trkpt lat="43.52427" lon="5.52934">
        <ele>258</ele>
        <time>2018-02-20T13:30:59.000Z</time>
      </trkpt>
      <trkpt lat="43.52427" lon="5.52933">
        <ele>258</ele>
        <time>2018-02-20T13:31:00.000Z</time>
      </trkpt>
      <trkpt lat="43.52427" lon="5.52931">
        <ele>258</ele>
        <time>2018-02-20T13:31:01.000Z</time>
      </trkpt>
      <trkpt lat="43.52427" lon="5.5293">
        <ele>258</ele>
        <time>2018-02-20T13:31:02.000Z</time>
      </trkpt>
      <trkpt lat="43.52426" lon="5.52928">
        <ele>258</ele>
        <time>2018-02-20T13:31:03.000Z</time>
      </trkpt>
      <trkpt lat="43.52426" lon="5.52926">
        <ele>258</ele>
        <time>2018-02-20T13:31:04.000Z</time>
      </trkpt>
      <trkpt lat="43.52426" lon="5.52925">
        <ele>258</ele>
        <time>2018-02-20T13:31:05.000Z</time>
      </trkpt>
      <trkpt lat="43.52425" lon="5.52923">
        <ele>258</ele>
        <time>2018-02-20T13:31:06.000Z</time>
      </trkpt>
      <trkpt lat="43.52425" lon="5.52921">
        <ele>258</ele>
        <time>2018-02-20T13:31:07.000Z</time>
      </trkpt>
      <trkpt lat="43.52425" lon="5.5292">
        <ele>258</ele>
        <time>2018-02-20T13:31:08.000Z</time>
      </trkpt>
      <trkpt lat="43.52425" lon="5.52918">
        <ele>258</ele>
        <time>2018-02-20T13:31:09.000Z</time>
      </trkpt>
      <trkpt lat="43.52425" lon="5.52917">
        <ele>258</ele>
        <time>2018-02-20T13:31:10.000Z</time>
      </trkpt>
      <trkpt lat="43.52426" lon="5.52916">
        <ele>258</ele>
        <time>2018-02-20T13:31:11.000Z</time>
      </trkpt>
      <trkpt lat="43.52426" lon="5.52914">
        <ele>258</ele>
        <time>2018-02-20T13:31:12.000Z</time>
      </trkpt>
      <trkpt lat="43.52427" lon="5.52912">
        <ele>258</ele>
        <time>2018-02-20T13:31:13.000Z</time>
      </trkpt>
      <trkpt lat="43.52427" lon="5.5291">
        <ele>258</ele>
        <time>2018-02-20T13:31:14.000Z</time>
      </trkpt>
      <trkpt lat="43.52428" lon="5.52909">
        <ele>257</ele>
        <time>2018-02-20T13:31:15.000Z</time>
      </trkpt>
      <trkpt lat="43.52428" lon="5.52908">
        <ele>257</ele>
        <time>2018-02-20T13:31:16.000Z</time>
      </trkpt>
      <trkpt lat="43.52429" lon="5.52906">
        <ele>257</ele>
        <time>2018-02-20T13:31:17.000Z</time>
      </trkpt>
      <trkpt lat="43.5243" lon="5.52905">
        <ele>257</ele>
        <time>2018-02-20T13:31:18.000Z</time>
      </trkpt>
      <trkpt lat="43.5243" lon="5.52904">
        <ele>257</ele>
        <time>2018-02-20T13:31:19.000Z</time>
      </trkpt>
      <trkpt lat="43.52431" lon="5.52903">
        <ele>257</ele>
        <time>2018-02-20T13:31:20.000Z</time>
      </trkpt>
      <trkpt lat="43.52432" lon="5.52901">
        <ele>257</ele>
        <time>2018-02-20T13:31:21.000Z</time>
      </trkpt>
      <trkpt lat="43.52433" lon="5.529">
        <ele>256</ele>
        <time>2018-02-20T13:31:22.000Z</time>
      </trkpt>
      <trkpt lat="43.52433" lon="5.52898">
        <ele>256</ele>
        <time>2018-02-20T13:31:23.000Z</time>
      </trkpt>
      <trkpt lat="43.52434" lon="5.52896">
        <ele>256</ele>
        <time>2018-02-20T13:31:24.000Z</time>
      </trkpt>
      <trkpt lat="43.52434" lon="5.52895">
        <ele>256</ele>
        <time>2018-02-20T13:31:25.000Z</time>
      </trkpt>
      <trkpt lat="43.52435" lon="5.52894">
        <ele>256</ele>
        <time>2018-02-20T13:31:26.000Z</time>
      </trkpt>
      <trkpt lat="43.52435" lon="5.52892">
        <ele>256</ele>
        <time>2018-02-20T13:31:27.000Z</time>
      </trkpt>
      <trkpt lat="43.52435" lon="5.5289">
        <ele>256</ele>
        <time>2018-02-20T13:31:28.000Z</time>
      </trkpt>
      <trkpt lat="43.52436" lon="5.52888">
        <ele>256</ele>
        <time>2018-02-20T13:31:29.000Z</time>
      </trkpt>
      <trkpt lat="43.52436" lon="5.52887">
        <ele>256</ele>
        <time>2018-02-20T13:31:30.000Z</time>
      </trkpt>
      <trkpt lat="43.52436" lon="5.52885">
        <ele>256</ele>
        <time>2018-02-20T13:31:31.000Z</time>
      </trkpt>
      <trkpt lat="43.52436" lon="5.52883">
        <ele>256</ele>
        <time>2018-02-20T13:31:32.000Z</time>
      </trkpt>
      <trkpt lat="43.52437" lon="5.52882">
        <ele>256</ele>
        <time>2018-02-20T13:31:33.000Z</time>
      </trkpt>
      <trkpt lat="43.52437" lon="5.5288">
        <ele>256</ele>
        <time>2018-02-20T13:31:34.000Z</time>
      </trkpt>
      <trkpt lat="43.52437" lon="5.52879">
        <ele>256</ele>
        <time>2018-02-20T13:31:35.000Z</time>
      </trkpt>
      <trkpt lat="43.52437" lon="5.52877">
        <ele>256</ele>
        <time>2018-02-20T13:31:36.000Z</time>
      </trkpt>
      <trkpt lat="43.52437" lon="5.52876">
        <ele>256</ele>
        <time>2018-02-20T13:31:37.000Z</time>
      </trkpt>
      <trkpt lat="43.52437" lon="5.52874">
        <ele>256</ele>
        <time>2018-02-20T13:31:38.000Z</time>
      </trkpt>
      <trkpt lat="43.52437" lon="5.52872">
        <ele>256</ele>
        <time>2018-02-20T13:31:39.000Z</time>
      </trkpt>
      <trkpt lat="43.52437" lon="5.52871">
        <ele>256</ele>
        <time>2018-02-20T13:31:40.000Z</time>
      </trkpt>
      <trkpt lat="43.52438" lon="5.52869">
        <ele>256</ele>
        <time>2018-02-20T13:31:41.000Z</time>
      </trkpt>
      <trkpt lat="43.52438" lon="5.52867">
        <ele>256</ele>
        <time>2018-02-20T13:31:42.000Z</time>
      </trkpt>
      <trkpt lat="43.52438" lon="5.52866">
        <ele>256</ele>
        <time>2018-02-20T13:31:43.000Z</time>
      </trkpt>
      <trkpt lat="43.52438" lon="5.52864">
        <ele>256</ele>
        <time>2018-02-20T13:31:44.000Z</time>
      </trkpt>
      <trkpt lat="43.52439" lon="5.52863">
        <ele>256</ele>
        <time>2018-02-20T13:31:45.000Z</time>
      </trkpt>
      <trkpt lat="43.52439" lon="5.52861">
        <ele>256</ele>
        <time>2018-02-20T13:31:46.000Z</time>
      </trkpt>
      <trkpt lat="43.52439" lon="5.5286">
        <ele>256</ele>
        <time>2018-02-20T13:31:47.000Z</time>
      </trkpt>
      <trkpt lat="43.52439" lon="5.52858">
        <ele>256</ele>
        <time>2018-02-20T13:31:48.000Z</time>
      </trkpt>
      <trkpt lat="43.52439" lon="5.52857">
        <ele>256</ele>
        <time>2018-02-20T13:31:49.000Z</time>
      </trkpt>
      <trkpt lat="43.52439" lon="5.52855">
        <ele>256</ele>
        <time>2018-02-20T13:31:50.000Z</time>
      </trkpt>
      <trkpt lat="43.52439" lon="5.52854">
        <ele>256</ele>
        <time>2018-02-20T13:31:51.000Z</time>
      </trkpt>
      <trkpt lat="43.5244" lon="5.52852">
        <ele>256</ele>
        <time>2018-02-20T13:31:52.000Z</time>
      </trkpt>
      <trkpt lat="43.5244" lon="5.5285">
        <ele>256</ele>
        <time>2018-02-20T13:31:53.000Z</time>
      </trkpt>
      <trkpt lat="43.5244" lon="5.52849">
        <ele>257</ele>
        <time>2018-02-20T13:31:54.000Z</time>
      </trkpt>
      <trkpt lat="43.5244" lon="5.52848">
        <ele>257</ele>
        <time>2018-02-20T13:31:55.000Z</time>
      </trkpt>
      <trkpt lat="43.52441" lon="5.52846">
        <ele>257</ele>
        <time>2018-02-20T13:31:56.000Z</time>
      </trkpt>
      <trkpt lat="43.52441" lon="5.52845">
        <ele>257</ele>
        <time>2018-02-20T13:31:57.000Z</time>
      </trkpt>
      <trkpt lat="43.52441" lon="5.52843">
        <ele>257</ele>
        <time>2018-02-20T13:31:58.000Z</time>
      </trkpt>
      <trkpt lat="43.52441" lon="5.52842">
        <ele>257</ele>
        <time>2018-02-20T13:31:59.000Z</time>
      </trkpt>
      <trkpt lat="43.52441" lon="5.5284">
        <ele>257</ele>
        <time>2018-02-20T13:32:00.000Z</time>
      </trkpt>
      <trkpt lat="43.52442" lon="5.52839">
        <ele>257</ele>
        <time>2018-02-20T13:32:01.000Z</time>
      </trkpt>
      <trkpt lat="43.52442" lon="5.52837">
        <ele>257</ele>
        <time>2018-02-20T13:32:02.000Z</time>
      </trkpt>
      <trkpt lat="43.52442" lon="5.52836">
        <ele>257</ele>
        <time>2018-02-20T13:32:03.000Z</time>
      </trkpt>
      <trkpt lat="43.52442" lon="5.52834">
        <ele>258</ele>
        <time>2018-02-20T13:32:04.000Z</time>
      </trkpt>
      <trkpt lat="43.52442" lon="5.52832">
        <ele>258</ele>
        <time>2018-02-20T13:32:05.000Z</time>
      </trkpt>
      <trkpt lat="43.52443" lon="5.52831">
        <ele>258</ele>
        <time>2018-02-20T13:32:06.000Z</time>
      </trkpt>
      <trkpt lat="43.52443" lon="5.5283">
        <ele>258</ele>
        <time>2018-02-20T13:32:07.000Z</time>
      </trkpt>
      <trkpt lat="43.52443" lon="5.52828">
        <ele>258</ele>
        <time>2018-02-20T13:32:08.000Z</time>
      </trkpt>
      <trkpt lat="43.52443" lon="5.52827">
        <ele>258</ele>
        <time>2018-02-20T13:32:09.000Z</time>
      </trkpt>
      <trkpt lat="43.52443" lon="5.52825">
        <ele>259</ele>
        <time>2018-02-20T13:32:10.000Z</time>
      </trkpt>
      <trkpt lat="43.52443" lon="5.52824">
        <ele>259</ele>
        <time>2018-02-20T13:32:11.000Z</time>
      </trkpt>
      <trkpt lat="43.52443" lon="5.52822">
        <ele>259</ele>
        <time>2018-02-20T13:32:12.000Z</time>
      </trkpt>
      <trkpt lat="43.52443" lon="5.52821">
        <ele>259</ele>
        <time>2018-02-20T13:32:13.000Z</time>
      </trkpt>
      <trkpt lat="43.52443" lon="5.52819">
        <ele>259</ele>
        <time>2018-02-20T13:32:14.000Z</time>
      </trkpt>
      <trkpt lat="43.52443" lon="5.52818">
        <ele>260</ele>
        <time>2018-02-20T13:32:15.000Z</time>
      </trkpt>
      <trkpt lat="43.52444" lon="5.52816">
        <ele>260</ele>
        <time>2018-02-20T13:32:16.000Z</time>
      </trkpt>
      <trkpt lat="43.52443" lon="5.52815">
        <ele>260</ele>
        <time>2018-02-20T13:32:17.000Z</time>
      </trkpt>
      <trkpt lat="43.52443" lon="5.52814">
        <ele>260</ele>
        <time>2018-02-20T13:32:18.000Z</time>
      </trkpt>
      <trkpt lat="43.52443" lon="5.52813">
        <ele>260</ele>
        <time>2018-02-20T13:32:19.000Z</time>
      </trkpt>
      <trkpt lat="43.52443" lon="5.52811">
        <ele>261</ele>
        <time>2018-02-20T13:32:20.000Z</time>
      </trkpt>
      <trkpt lat="43.52443" lon="5.5281">
        <ele>261</ele>
        <time>2018-02-20T13:32:21.000Z</time>
      </trkpt>
      <trkpt lat="43.52443" lon="5.52809">
        <ele>261</ele>
        <time>2018-02-20T13:32:22.000Z</time>
      </trkpt>
      <trkpt lat="43.52443" lon="5.52807">
        <ele>261</ele>
        <time>2018-02-20T13:32:23.000Z</time>
      </trkpt>
      <trkpt lat="43.52443" lon="5.52806">
        <ele>261</ele>
        <time>2018-02-20T13:32:24.000Z</time>
      </trkpt>
      <trkpt lat="43.52443" lon="5.52804">
        <ele>262</ele>
        <time>2018-02-20T13:32:25.000Z</time>
      </trkpt>
      <trkpt lat="43.52443" lon="5.52803">
        <ele>262</ele>
        <time>2018-02-20T13:32:26.000Z</time>
      </trkpt>
      <trkpt lat="43.52443" lon="5.52802">
        <ele>262</ele>
        <time>2018-02-20T13:32:27.000Z</time>
      </trkpt>
      <trkpt lat="43.52443" lon="5.528">
        <ele>262</ele>
        <time>2018-02-20T13:32:28.000Z</time>
      </trkpt>
      <trkpt lat="43.52443" lon="5.52799">
        <ele>262</ele>
        <time>2018-02-20T13:32:29.000Z</time>
      </trkpt>
      <trkpt lat="43.52442" lon="5.52798">
        <ele>262</ele>
        <time>2018-02-20T13:32:30.000Z</time>
      </trkpt>
      <trkpt lat="43.52442" lon="5.52797">
        <ele>262</ele>
        <time>2018-02-20T13:32:31.000Z</time>
      </trkpt>
      <trkpt lat="43.52442" lon="5.52796">
        <ele>263</ele>
        <time>2018-02-20T13:32:32.000Z</time>
      </trkpt>
      <trkpt lat="43.52442" lon="5.52794">
        <ele>263</ele>
        <time>2018-02-20T13:32:33.000Z</time>
      </trkpt>
      <trkpt lat="43.52441" lon="5.52793">
        <ele>263</ele>
        <time>2018-02-20T13:32:34.000Z</time>
      </trkpt>
      <trkpt lat="43.52441" lon="5.52792">
        <ele>263</ele>
        <time>2018-02-20T13:32:35.000Z</time>
      </trkpt>
      <trkpt lat="43.52441" lon="5.52791">
        <ele>263</ele>
        <time>2018-02-20T13:32:36.000Z</time>
      </trkpt>
      <trkpt lat="43.52441" lon="5.5279">
        <ele>263</ele>
        <time>2018-02-20T13:32:37.000Z</time>
      </trkpt>
      <trkpt lat="43.52442" lon="5.52789">
        <ele>263</ele>
        <time>2018-02-20T13:32:38.000Z</time>
      </trkpt>
      <trkpt lat="43.52442" lon="5.52788">
        <ele>263</ele>
        <time>2018-02-20T13:32:39.000Z</time>
      </trkpt>
      <trkpt lat="43.52442" lon="5.52786">
        <ele>263</ele>
        <time>2018-02-20T13:32:40.000Z</time>
      </trkpt>
      <trkpt lat="43.52442" lon="5.52785">
        <ele>263</ele>
        <time>2018-02-20T13:32:41.000Z</time>
      </trkpt>
      <trkpt lat="43.52442" lon="5.52784">
        <ele>263</ele>
        <time>2018-02-20T13:32:42.000Z</time>
      </trkpt>
      <trkpt lat="43.52442" lon="5.52783">
        <ele>263</ele>
        <time>2018-02-20T13:32:43.000Z</time>
      </trkpt>
      <trkpt lat="43.52442" lon="5.52782">
        <ele>263</ele>
        <time>2018-02-20T13:32:44.000Z</time>
      </trkpt>
      <trkpt lat="43.52441" lon="5.52781">
        <ele>264</ele>
        <time>2018-02-20T13:32:45.000Z</time>
      </trkpt>
      <trkpt lat="43.52441" lon="5.52779">
        <ele>264</ele>
        <time>2018-02-20T13:32:46.000Z</time>
      </trkpt>
      <trkpt lat="43.52442" lon="5.52778">
        <ele>264</ele>
        <time>2018-02-20T13:32:47.000Z</time>
      </trkpt>
      <trkpt lat="43.52442" lon="5.52777">
        <ele>264</ele>
        <time>2018-02-20T13:32:48.000Z</time>
      </trkpt>
      <trkpt lat="43.52442" lon="5.52776">
        <ele>264</ele>
        <time>2018-02-20T13:32:49.000Z</time>
      </trkpt>
      <trkpt lat="43.52442" lon="5.52775">
        <ele>264</ele>
        <time>2018-02-20T13:32:50.000Z</time>
      </trkpt>
      <trkpt lat="43.52442" lon="5.52774">
        <ele>264</ele>
        <time>2018-02-20T13:32:51.000Z</time>
      </trkpt>
      <trkpt lat="43.52442" lon="5.52772">
        <ele>264</ele>
        <time>2018-02-20T13:32:52.000Z</time>
      </trkpt>
      <trkpt lat="43.52442" lon="5.52771">
        <ele>265</ele>
        <time>2018-02-20T13:32:53.000Z</time>
      </trkpt>
      <trkpt lat="43.52442" lon="5.5277">
        <ele>265</ele>
        <time>2018-02-20T13:32:54.000Z</time>
      </trkpt>
      <trkpt lat="43.52442" lon="5.52769">
        <ele>265</ele>
        <time>2018-02-20T13:32:55.000Z</time>
      </trkpt>
      <trkpt lat="43.52442" lon="5.52768">
        <ele>265</ele>
        <time>2018-02-20T13:32:56.000Z</time>
      </trkpt>
      <trkpt lat="43.52442" lon="5.52766">
        <ele>265</ele>
        <time>2018-02-20T13:32:57.000Z</time>
      </trkpt>
      <trkpt lat="43.52442" lon="5.52765">
        <ele>265</ele>
        <time>2018-02-20T13:32:58.000Z</time>
      </trkpt>
      <trkpt lat="43.52442" lon="5.52764">
        <ele>265</ele>
        <time>2018-02-20T13:32:59.000Z</time>
      </trkpt>
      <trkpt lat="43.52442" lon="5.52762">
        <ele>265</ele>
        <time>2018-02-20T13:33:00.000Z</time>
      </trkpt>
      <trkpt lat="43.52442" lon="5.52761">
        <ele>266</ele>
        <time>2018-02-20T13:33:01.000Z</time>
      </trkpt>
      <trkpt lat="43.52442" lon="5.5276">
        <ele>266</ele>
        <time>2018-02-20T13:33:02.000Z</time>
      </trkpt>
      <trkpt lat="43.52442" lon="5.52758">
        <ele>266</ele>
        <time>2018-02-20T13:33:03.000Z</time>
      </trkpt>
      <trkpt lat="43.52442" lon="5.52757">
        <ele>266</ele>
        <time>2018-02-20T13:33:04.000Z</time>
      </trkpt>
      <trkpt lat="43.52442" lon="5.52756">
        <ele>266</ele>
        <time>2018-02-20T13:33:05.000Z</time>
      </trkpt>
      <trkpt lat="43.52442" lon="5.52755">
        <ele>266</ele>
        <time>2018-02-20T13:33:06.000Z</time>
      </trkpt>
      <trkpt lat="43.52442" lon="5.52754">
        <ele>266</ele>
        <time>2018-02-20T13:33:07.000Z</time>
      </trkpt>
      <trkpt lat="43.52442" lon="5.52752">
        <ele>267</ele>
        <time>2018-02-20T13:33:08.000Z</time>
      </trkpt>
      <trkpt lat="43.52442" lon="5.52751">
        <ele>267</ele>
        <time>2018-02-20T13:33:09.000Z</time>
      </trkpt>
      <trkpt lat="43.52441" lon="5.5275">
        <ele>267</ele>
        <time>2018-02-20T13:33:10.000Z</time>
      </trkpt>
      <trkpt lat="43.52441" lon="5.52748">
        <ele>267</ele>
        <time>2018-02-20T13:33:11.000Z</time>
      </trkpt>
      <trkpt lat="43.52441" lon="5.52747">
        <ele>268</ele>
        <time>2018-02-20T13:33:12.000Z</time>
      </trkpt>
      <trkpt lat="43.52441" lon="5.52746">
        <ele>268</ele>
        <time>2018-02-20T13:33:13.000Z</time>
      </trkpt>
      <trkpt lat="43.52441" lon="5.52745">
        <ele>268</ele>
        <time>2018-02-20T13:33:14.000Z</time>
      </trkpt>
      <trkpt lat="43.52441" lon="5.52743">
        <ele>268</ele>
        <time>2018-02-20T13:33:15.000Z</time>
      </trkpt>
      <trkpt lat="43.5244" lon="5.52743">
        <ele>268</ele>
        <time>2018-02-20T13:33:16.000Z</time>
      </trkpt>
      <trkpt lat="43.5244" lon="5.52742">
        <ele>268</ele>
        <time>2018-02-20T13:33:17.000Z</time>
      </trkpt>
      <trkpt lat="43.52439" lon="5.52741">
        <ele>269</ele>
        <time>2018-02-20T13:33:18.000Z</time>
      </trkpt>
      <trkpt lat="43.52439" lon="5.5274">
        <ele>269</ele>
        <time>2018-02-20T13:33:19.000Z</time>
      </trkpt>
      <trkpt lat="43.52439" lon="5.52739">
        <ele>269</ele>
        <time>2018-02-20T13:33:20.000Z</time>
      </trkpt>
      <trkpt lat="43.52438" lon="5.52737">
        <ele>269</ele>
        <time>2018-02-20T13:33:21.000Z</time>
      </trkpt>
      <trkpt lat="43.52438" lon="5.52736">
        <ele>269</ele>
        <time>2018-02-20T13:33:22.000Z</time>
      </trkpt>
      <trkpt lat="43.52438" lon="5.52735">
        <ele>269</ele>
        <time>2018-02-20T13:33:23.000Z</time>
      </trkpt>
      <trkpt lat="43.52438" lon="5.52733">
        <ele>270</ele>
        <time>2018-02-20T13:33:24.000Z</time>
      </trkpt>
      <trkpt lat="43.52438" lon="5.52732">
        <ele>270</ele>
        <time>2018-02-20T13:33:25.000Z</time>
      </trkpt>
      <trkpt lat="43.52438" lon="5.52731">
        <ele>270</ele>
        <time>2018-02-20T13:33:26.000Z</time>
      </trkpt>
      <trkpt lat="43.52438" lon="5.5273">
        <ele>270</ele>
        <time>2018-02-20T13:33:27.000Z</time>
      </trkpt>
      <trkpt lat="43.52437" lon="5.52729">
        <ele>270</ele>
        <time>2018-02-20T13:33:28.000Z</time>
      </trkpt>
      <trkpt lat="43.52437" lon="5.52728">
        <ele>270</ele>
        <time>2018-02-20T13:33:29.000Z</time>
      </trkpt>
      <trkpt lat="43.52437" lon="5.52726">
        <ele>270</ele>
        <time>2018-02-20T13:33:30.000Z</time>
      </trkpt>
      <trkpt lat="43.52437" lon="5.52725">
        <ele>270</ele>
        <time>2018-02-20T13:33:31.000Z</time>
      </trkpt>
      <trkpt lat="43.52437" lon="5.52724">
        <ele>270</ele>
        <time>2018-02-20T13:33:32.000Z</time>
      </trkpt>
      <trkpt lat="43.52437" lon="5.52722">
        <ele>270</ele>
        <time>2018-02-20T13:33:33.000Z</time>
      </trkpt>
      <trkpt lat="43.52437" lon="5.52721">
        <ele>270</ele>
        <time>2018-02-20T13:33:34.000Z</time>
      </trkpt>
      <trkpt lat="43.52437" lon="5.5272">
        <ele>270</ele>
        <time>2018-02-20T13:33:35.000Z</time>
      </trkpt>
      <trkpt lat="43.52437" lon="5.52718">
        <ele>271</ele>
        <time>2018-02-20T13:33:36.000Z</time>
      </trkpt>
      <trkpt lat="43.52437" lon="5.52717">
        <ele>271</ele>
        <time>2018-02-20T13:33:37.000Z</time>
      </trkpt>
      <trkpt lat="43.52437" lon="5.52716">
        <ele>271</ele>
        <time>2018-02-20T13:33:38.000Z</time>
      </trkpt>
      <trkpt lat="43.52437" lon="5.52714">
        <ele>271</ele>
        <time>2018-02-20T13:33:39.000Z</time>
      </trkpt>
      <trkpt lat="43.52437" lon="5.52713">
        <ele>271</ele>
        <time>2018-02-20T13:33:40.000Z</time>
      </trkpt>
      <trkpt lat="43.52437" lon="5.52711">
        <ele>271</ele>
        <time>2018-02-20T13:33:41.000Z</time>
      </trkpt>
      <trkpt lat="43.52437" lon="5.5271">
        <ele>271</ele>
        <time>2018-02-20T13:33:42.000Z</time>
      </trkpt>
      <trkpt lat="43.52437" lon="5.52709">
        <ele>271</ele>
        <time>2018-02-20T13:33:43.000Z</time>
      </trkpt>
      <trkpt lat="43.52437" lon="5.52707">
        <ele>271</ele>
        <time>2018-02-20T13:33:44.000Z</time>
      </trkpt>
      <trkpt lat="43.52437" lon="5.52705">
        <ele>271</ele>
        <time>2018-02-20T13:33:45.000Z</time>
      </trkpt>
      <trkpt lat="43.52437" lon="5.52704">
        <ele>271</ele>
        <time>2018-02-20T13:33:46.000Z</time>
      </trkpt>
      <trkpt lat="43.52438" lon="5.52703">
        <ele>271</ele>
        <time>2018-02-20T13:33:47.000Z</time>
      </trkpt>
      <trkpt lat="43.52438" lon="5.52702">
        <ele>271</ele>
        <time>2018-02-20T13:33:48.000Z</time>
      </trkpt>
      <trkpt lat="43.52438" lon="5.527">
        <ele>271</ele>
        <time>2018-02-20T13:33:49.000Z</time>
      </trkpt>
      <trkpt lat="43.52438" lon="5.52698">
        <ele>271</ele>
        <time>2018-02-20T13:33:50.000Z</time>
      </trkpt>
      <trkpt lat="43.52439" lon="5.52697">
        <ele>271</ele>
        <time>2018-02-20T13:33:51.000Z</time>
      </trkpt>
      <trkpt lat="43.52439" lon="5.52695">
        <ele>271</ele>
        <time>2018-02-20T13:33:52.000Z</time>
      </trkpt>
      <trkpt lat="43.52439" lon="5.52694">
        <ele>271</ele>
        <time>2018-02-20T13:33:53.000Z</time>
      </trkpt>
      <trkpt lat="43.52439" lon="5.52692">
        <ele>271</ele>
        <time>2018-02-20T13:33:54.000Z</time>
      </trkpt>
      <trkpt lat="43.52439" lon="5.52691">
        <ele>271</ele>
        <time>2018-02-20T13:33:55.000Z</time>
      </trkpt>
      <trkpt lat="43.52439" lon="5.52689">
        <ele>271</ele>
        <time>2018-02-20T13:33:56.000Z</time>
      </trkpt>
      <trkpt lat="43.5244" lon="5.52688">
        <ele>272</ele>
        <time>2018-02-20T13:33:57.000Z</time>
      </trkpt>
      <trkpt lat="43.5244" lon="5.52687">
        <ele>272</ele>
        <time>2018-02-20T13:33:58.000Z</time>
      </trkpt>
      <trkpt lat="43.52441" lon="5.52686">
        <ele>272</ele>
        <time>2018-02-20T13:33:59.000Z</time>
      </trkpt>
      <trkpt lat="43.52441" lon="5.52684">
        <ele>272</ele>
        <time>2018-02-20T13:34:00.000Z</time>
      </trkpt>
      <trkpt lat="43.52441" lon="5.52683">
        <ele>272</ele>
        <time>2018-02-20T13:34:01.000Z</time>
      </trkpt>
      <trkpt lat="43.52442" lon="5.52681">
        <ele>272</ele>
        <time>2018-02-20T13:34:02.000Z</time>
      </trkpt>
      <trkpt lat="43.52442" lon="5.5268">
        <ele>272</ele>
        <time>2018-02-20T13:34:03.000Z</time>
      </trkpt>
      <trkpt lat="43.52443" lon="5.52679">
        <ele>272</ele>
        <time>2018-02-20T13:34:04.000Z</time>
      </trkpt>
      <trkpt lat="43.52443" lon="5.52677">
        <ele>272</ele>
        <time>2018-02-20T13:34:05.000Z</time>
      </trkpt>
      <trkpt lat="43.52444" lon="5.52676">
        <ele>271</ele>
        <time>2018-02-20T13:34:06.000Z</time>
      </trkpt>
      <trkpt lat="43.52444" lon="5.52674">
        <ele>271</ele>
        <time>2018-02-20T13:34:07.000Z</time>
      </trkpt>
      <trkpt lat="43.52445" lon="5.52673">
        <ele>271</ele>
        <time>2018-02-20T13:34:08.000Z</time>
      </trkpt>
      <trkpt lat="43.52445" lon="5.52671">
        <ele>271</ele>
        <time>2018-02-20T13:34:09.000Z</time>
      </trkpt>
      <trkpt lat="43.52445" lon="5.5267">
        <ele>271</ele>
        <time>2018-02-20T13:34:10.000Z</time>
      </trkpt>
      <trkpt lat="43.52446" lon="5.52669">
        <ele>271</ele>
        <time>2018-02-20T13:34:11.000Z</time>
      </trkpt>
      <trkpt lat="43.52446" lon="5.52668">
        <ele>271</ele>
        <time>2018-02-20T13:34:12.000Z</time>
      </trkpt>
      <trkpt lat="43.52447" lon="5.52666">
        <ele>271</ele>
        <time>2018-02-20T13:34:13.000Z</time>
      </trkpt>
      <trkpt lat="43.52448" lon="5.52665">
        <ele>271</ele>
        <time>2018-02-20T13:34:14.000Z</time>
      </trkpt>
      <trkpt lat="43.52449" lon="5.52664">
        <ele>271</ele>
        <time>2018-02-20T13:34:15.000Z</time>
      </trkpt>
      <trkpt lat="43.52449" lon="5.52663">
        <ele>271</ele>
        <time>2018-02-20T13:34:16.000Z</time>
      </trkpt>
      <trkpt lat="43.5245" lon="5.52662">
        <ele>271</ele>
        <time>2018-02-20T13:34:17.000Z</time>
      </trkpt>
      <trkpt lat="43.5245" lon="5.52661">
        <ele>271</ele>
        <time>2018-02-20T13:34:18.000Z</time>
      </trkpt>
      <trkpt lat="43.52451" lon="5.5266">
        <ele>271</ele>
        <time>2018-02-20T13:34:19.000Z</time>
      </trkpt>
      <trkpt lat="43.52452" lon="5.52658">
        <ele>272</ele>
        <time>2018-02-20T13:34:20.000Z</time>
      </trkpt>
      <trkpt lat="43.52452" lon="5.52657">
        <ele>272</ele>
        <time>2018-02-20T13:34:21.000Z</time>
      </trkpt>
      <trkpt lat="43.52453" lon="5.52656">
        <ele>272</ele>
        <time>2018-02-20T13:34:22.000Z</time>
      </trkpt>
      <trkpt lat="43.52454" lon="5.52655">
        <ele>272</ele>
        <time>2018-02-20T13:34:23.000Z</time>
      </trkpt>
      <trkpt lat="43.52455" lon="5.52653">
        <ele>272</ele>
        <time>2018-02-20T13:34:24.000Z</time>
      </trkpt>
      <trkpt lat="43.52455" lon="5.52651">
        <ele>272</ele>
        <time>2018-02-20T13:34:25.000Z</time>
      </trkpt>
      <trkpt lat="43.52456" lon="5.5265">
        <ele>272</ele>
        <time>2018-02-20T13:34:26.000Z</time>
      </trkpt>
      <trkpt lat="43.52457" lon="5.52649">
        <ele>272</ele>
        <time>2018-02-20T13:34:27.000Z</time>
      </trkpt>
      <trkpt lat="43.52457" lon="5.52648">
        <ele>272</ele>
        <time>2018-02-20T13:34:28.000Z</time>
      </trkpt>
      <trkpt lat="43.52458" lon="5.52646">
        <ele>272</ele>
        <time>2018-02-20T13:34:29.000Z</time>
      </trkpt>
      <trkpt lat="43.52459" lon="5.52645">
        <ele>272</ele>
        <time>2018-02-20T13:34:30.000Z</time>
      </trkpt>
      <trkpt lat="43.5246" lon="5.52644">
        <ele>272</ele>
        <time>2018-02-20T13:34:31.000Z</time>
      </trkpt>
      <trkpt lat="43.52461" lon="5.52643">
        <ele>272</ele>
        <time>2018-02-20T13:34:32.000Z</time>
      </trkpt>
      <trkpt lat="43.52461" lon="5.52641">
        <ele>272</ele>
        <time>2018-02-20T13:34:33.000Z</time>
      </trkpt>
      <trkpt lat="43.52462" lon="5.5264">
        <ele>272</ele>
        <time>2018-02-20T13:34:34.000Z</time>
      </trkpt>
      <trkpt lat="43.52463" lon="5.52639">
        <ele>272</ele>
        <time>2018-02-20T13:34:35.000Z</time>
      </trkpt>
      <trkpt lat="43.52463" lon="5.52637">
        <ele>272</ele>
        <time>2018-02-20T13:34:36.000Z</time>
      </trkpt>
      <trkpt lat="43.52464" lon="5.52636">
        <ele>272</ele>
        <time>2018-02-20T13:34:37.000Z</time>
      </trkpt>
      <trkpt lat="43.52465" lon="5.52634">
        <ele>272</ele>
        <time>2018-02-20T13:34:38.000Z</time>
      </trkpt>
      <trkpt lat="43.52466" lon="5.52633">
        <ele>272</ele>
        <time>2018-02-20T13:34:39.000Z</time>
      </trkpt>
      <trkpt lat="43.52466" lon="5.52632">
        <ele>273</ele>
        <time>2018-02-20T13:34:40.000Z</time>
      </trkpt>
      <trkpt lat="43.52467" lon="5.5263">
        <ele>273</ele>
        <time>2018-02-20T13:34:41.000Z</time>
      </trkpt>
      <trkpt lat="43.52468" lon="5.52629">
        <ele>273</ele>
        <time>2018-02-20T13:34:42.000Z</time>
      </trkpt>
      <trkpt lat="43.52469" lon="5.52628">
        <ele>273</ele>
        <time>2018-02-20T13:34:43.000Z</time>
      </trkpt>
      <trkpt lat="43.5247" lon="5.52626">
        <ele>273</ele>
        <time>2018-02-20T13:34:44.000Z</time>
      </trkpt>
      <trkpt lat="43.52471" lon="5.52626">
        <ele>273</ele>
        <time>2018-02-20T13:34:45.000Z</time>
      </trkpt>
      <trkpt lat="43.52471" lon="5.52625">
        <ele>273</ele>
        <time>2018-02-20T13:34:46.000Z</time>
      </trkpt>
      <trkpt lat="43.52472" lon="5.52623">
        <ele>273</ele>
        <time>2018-02-20T13:34:47.000Z</time>
      </trkpt>
      <trkpt lat="43.52472" lon="5.52622">
        <ele>273</ele>
        <time>2018-02-20T13:34:48.000Z</time>
      </trkpt>
      <trkpt lat="43.52473" lon="5.5262">
        <ele>273</ele>
        <time>2018-02-20T13:34:49.000Z</time>
      </trkpt>
      <trkpt lat="43.52474" lon="5.52619">
        <ele>273</ele>
        <time>2018-02-20T13:34:50.000Z</time>
      </trkpt>
      <trkpt lat="43.52475" lon="5.52618">
        <ele>273</ele>
        <time>2018-02-20T13:34:51.000Z</time>
      </trkpt>
      <trkpt lat="43.52476" lon="5.52617">
        <ele>273</ele>
        <time>2018-02-20T13:34:52.000Z</time>
      </trkpt>
      <trkpt lat="43.52476" lon="5.52616">
        <ele>273</ele>
        <time>2018-02-20T13:34:53.000Z</time>
      </trkpt>
      <trkpt lat="43.52477" lon="5.52615">
        <ele>273</ele>
        <time>2018-02-20T13:34:54.000Z</time>
      </trkpt>
      <trkpt lat="43.52478" lon="5.52613">
        <ele>273</ele>
        <time>2018-02-20T13:34:55.000Z</time>
      </trkpt>
      <trkpt lat="43.52479" lon="5.52612">
        <ele>273</ele>
        <time>2018-02-20T13:34:56.000Z</time>
      </trkpt>
      <trkpt lat="43.5248" lon="5.52611">
        <ele>273</ele>
        <time>2018-02-20T13:34:57.000Z</time>
      </trkpt>
      <trkpt lat="43.52481" lon="5.5261">
        <ele>273</ele>
        <time>2018-02-20T13:34:58.000Z</time>
      </trkpt>
      <trkpt lat="43.52482" lon="5.52609">
        <ele>272</ele>
        <time>2018-02-20T13:34:59.000Z</time>
      </trkpt>
      <trkpt lat="43.52482" lon="5.52608">
        <ele>272</ele>
        <time>2018-02-20T13:35:00.000Z</time>
      </trkpt>
      <trkpt lat="43.52483" lon="5.52607">
        <ele>272</ele>
        <time>2018-02-20T13:35:01.000Z</time>
      </trkpt>
      <trkpt lat="43.52484" lon="5.52606">
        <ele>272</ele>
        <time>2018-02-20T13:35:02.000Z</time>
      </trkpt>
      <trkpt lat="43.52485" lon="5.52605">
        <ele>272</ele>
        <time>2018-02-20T13:35:03.000Z</time>
      </trkpt>
      <trkpt lat="43.52486" lon="5.52604">
        <ele>272</ele>
        <time>2018-02-20T13:35:04.000Z</time>
      </trkpt>
      <trkpt lat="43.52487" lon="5.52603">
        <ele>272</ele>
        <time>2018-02-20T13:35:05.000Z</time>
      </trkpt>
      <trkpt lat="43.52487" lon="5.52602">
        <ele>272</ele>
        <time>2018-02-20T13:35:06.000Z</time>
      </trkpt>
      <trkpt lat="43.52488" lon="5.52601">
        <ele>272</ele>
        <time>2018-02-20T13:35:07.000Z</time>
      </trkpt>
      <trkpt lat="43.52489" lon="5.526">
        <ele>272</ele>
        <time>2018-02-20T13:35:08.000Z</time>
      </trkpt>
      <trkpt lat="43.5249" lon="5.52599">
        <ele>272</ele>
        <time>2018-02-20T13:35:09.000Z</time>
      </trkpt>
      <trkpt lat="43.5249" lon="5.52598">
        <ele>272</ele>
        <time>2018-02-20T13:35:10.000Z</time>
      </trkpt>
      <trkpt lat="43.52491" lon="5.52597">
        <ele>272</ele>
        <time>2018-02-20T13:35:11.000Z</time>
      </trkpt>
      <trkpt lat="43.52491" lon="5.52596">
        <ele>272</ele>
        <time>2018-02-20T13:35:12.000Z</time>
      </trkpt>
      <trkpt lat="43.52492" lon="5.52594">
        <ele>272</ele>
        <time>2018-02-20T13:35:13.000Z</time>
      </trkpt>
      <trkpt lat="43.52492" lon="5.52593">
        <ele>272</ele>
        <time>2018-02-20T13:35:14.000Z</time>
      </trkpt>
      <trkpt lat="43.52493" lon="5.52591">
        <ele>272</ele>
        <time>2018-02-20T13:35:15.000Z</time>
      </trkpt>
      <trkpt lat="43.52494" lon="5.5259">
        <ele>272</ele>
        <time>2018-02-20T13:35:16.000Z</time>
      </trkpt>
      <trkpt lat="43.52494" lon="5.52589">
        <ele>272</ele>
        <time>2018-02-20T13:35:17.000Z</time>
      </trkpt>
      <trkpt lat="43.52495" lon="5.52587">
        <ele>272</ele>
        <time>2018-02-20T13:35:18.000Z</time>
      </trkpt>
      <trkpt lat="43.52495" lon="5.52586">
        <ele>272</ele>
        <time>2018-02-20T13:35:19.000Z</time>
      </trkpt>
      <trkpt lat="43.52496" lon="5.52584">
        <ele>272</ele>
        <time>2018-02-20T13:35:20.000Z</time>
      </trkpt>
      <trkpt lat="43.52496" lon="5.52583">
        <ele>273</ele>
        <time>2018-02-20T13:35:21.000Z</time>
      </trkpt>
      <trkpt lat="43.52496" lon="5.52581">
        <ele>273</ele>
        <time>2018-02-20T13:35:22.000Z</time>
      </trkpt>
      <trkpt lat="43.52497" lon="5.5258">
        <ele>273</ele>
        <time>2018-02-20T13:35:23.000Z</time>
      </trkpt>
      <trkpt lat="43.52498" lon="5.52578">
        <ele>272</ele>
        <time>2018-02-20T13:35:24.000Z</time>
      </trkpt>
      <trkpt lat="43.52498" lon="5.52576">
        <ele>272</ele>
        <time>2018-02-20T13:35:25.000Z</time>
      </trkpt>
      <trkpt lat="43.52498" lon="5.52575">
        <ele>272</ele>
        <time>2018-02-20T13:35:26.000Z</time>
      </trkpt>
      <trkpt lat="43.52499" lon="5.52574">
        <ele>272</ele>
        <time>2018-02-20T13:35:27.000Z</time>
      </trkpt>
      <trkpt lat="43.52499" lon="5.52572">
        <ele>272</ele>
        <time>2018-02-20T13:35:28.000Z</time>
      </trkpt>
      <trkpt lat="43.52499" lon="5.5257">
        <ele>272</ele>
        <time>2018-02-20T13:35:29.000Z</time>
      </trkpt>
      <trkpt lat="43.525" lon="5.52569">
        <ele>273</ele>
        <time>2018-02-20T13:35:30.000Z</time>
      </trkpt>
      <trkpt lat="43.525" lon="5.52567">
        <ele>273</ele>
        <time>2018-02-20T13:35:31.000Z</time>
      </trkpt>
      <trkpt lat="43.525" lon="5.52565">
        <ele>273</ele>
        <time>2018-02-20T13:35:32.000Z</time>
      </trkpt>
      <trkpt lat="43.525" lon="5.52563">
        <ele>273</ele>
        <time>2018-02-20T13:35:33.000Z</time>
      </trkpt>
      <trkpt lat="43.52501" lon="5.52562">
        <ele>273</ele>
        <time>2018-02-20T13:35:34.000Z</time>
      </trkpt>
      <trkpt lat="43.52501" lon="5.5256">
        <ele>272</ele>
        <time>2018-02-20T13:35:35.000Z</time>
      </trkpt>
      <trkpt lat="43.52502" lon="5.52559">
        <ele>272</ele>
        <time>2018-02-20T13:35:36.000Z</time>
      </trkpt>
      <trkpt lat="43.52503" lon="5.52557">
        <ele>272</ele>
        <time>2018-02-20T13:35:37.000Z</time>
      </trkpt>
      <trkpt lat="43.52503" lon="5.52556">
        <ele>272</ele>
        <time>2018-02-20T13:35:38.000Z</time>
      </trkpt>
      <trkpt lat="43.52504" lon="5.52554">
        <ele>272</ele>
        <time>2018-02-20T13:35:39.000Z</time>
      </trkpt>
      <trkpt lat="43.52505" lon="5.52553">
        <ele>272</ele>
        <time>2018-02-20T13:35:40.000Z</time>
      </trkpt>
      <trkpt lat="43.52505" lon="5.52551">
        <ele>271</ele>
        <time>2018-02-20T13:35:41.000Z</time>
      </trkpt>
      <trkpt lat="43.52506" lon="5.5255">
        <ele>271</ele>
        <time>2018-02-20T13:35:42.000Z</time>
      </trkpt>
      <trkpt lat="43.52506" lon="5.52548">
        <ele>271</ele>
        <time>2018-02-20T13:35:43.000Z</time>
      </trkpt>
      <trkpt lat="43.52506" lon="5.52546">
        <ele>271</ele>
        <time>2018-02-20T13:35:44.000Z</time>
      </trkpt>
      <trkpt lat="43.52506" lon="5.52544">
        <ele>271</ele>
        <time>2018-02-20T13:35:45.000Z</time>
      </trkpt>
      <trkpt lat="43.52507" lon="5.52542">
        <ele>271</ele>
        <time>2018-02-20T13:35:46.000Z</time>
      </trkpt>
      <trkpt lat="43.52507" lon="5.52541">
        <ele>271</ele>
        <time>2018-02-20T13:35:47.000Z</time>
      </trkpt>
      <trkpt lat="43.52508" lon="5.52539">
        <ele>271</ele>
        <time>2018-02-20T13:35:48.000Z</time>
      </trkpt>
      <trkpt lat="43.52508" lon="5.52537">
        <ele>270</ele>
        <time>2018-02-20T13:35:49.000Z</time>
      </trkpt>
      <trkpt lat="43.52508" lon="5.52536">
        <ele>270</ele>
        <time>2018-02-20T13:35:50.000Z</time>
      </trkpt>
      <trkpt lat="43.52509" lon="5.52534">
        <ele>271</ele>
        <time>2018-02-20T13:35:51.000Z</time>
      </trkpt>
      <trkpt lat="43.52509" lon="5.52532">
        <ele>271</ele>
        <time>2018-02-20T13:35:52.000Z</time>
      </trkpt>
      <trkpt lat="43.52509" lon="5.5253">
        <ele>271</ele>
        <time>2018-02-20T13:35:53.000Z</time>
      </trkpt>
      <trkpt lat="43.5251" lon="5.52529">
        <ele>271</ele>
        <time>2018-02-20T13:35:54.000Z</time>
      </trkpt>
      <trkpt lat="43.52511" lon="5.52527">
        <ele>271</ele>
        <time>2018-02-20T13:35:55.000Z</time>
      </trkpt>
      <trkpt lat="43.52511" lon="5.52526">
        <ele>271</ele>
        <time>2018-02-20T13:35:56.000Z</time>
      </trkpt>
      <trkpt lat="43.52512" lon="5.52524">
        <ele>271</ele>
        <time>2018-02-20T13:35:57.000Z</time>
      </trkpt>
      <trkpt lat="43.52513" lon="5.52523">
        <ele>271</ele>
        <time>2018-02-20T13:35:58.000Z</time>
      </trkpt>
      <trkpt lat="43.52513" lon="5.52521">
        <ele>271</ele>
        <time>2018-02-20T13:35:59.000Z</time>
      </trkpt>
      <trkpt lat="43.52513" lon="5.52519">
        <ele>271</ele>
        <time>2018-02-20T13:36:00.000Z</time>
      </trkpt>
      <trkpt lat="43.52514" lon="5.52518">
        <ele>271</ele>
        <time>2018-02-20T13:36:01.000Z</time>
      </trkpt>
      <trkpt lat="43.52514" lon="5.52516">
        <ele>271</ele>
        <time>2018-02-20T13:36:02.000Z</time>
      </trkpt>
      <trkpt lat="43.52515" lon="5.52515">
        <ele>271</ele>
        <time>2018-02-20T13:36:03.000Z</time>
      </trkpt>
      <trkpt lat="43.52515" lon="5.52514">
        <ele>271</ele>
        <time>2018-02-20T13:36:04.000Z</time>
      </trkpt>
      <trkpt lat="43.52516" lon="5.52512">
        <ele>271</ele>
        <time>2018-02-20T13:36:05.000Z</time>
      </trkpt>
      <trkpt lat="43.52516" lon="5.52511">
        <ele>270</ele>
        <time>2018-02-20T13:36:06.000Z</time>
      </trkpt>
      <trkpt lat="43.52516" lon="5.52509">
        <ele>270</ele>
        <time>2018-02-20T13:36:07.000Z</time>
      </trkpt>
      <trkpt lat="43.52516" lon="5.52508">
        <ele>270</ele>
        <time>2018-02-20T13:36:08.000Z</time>
      </trkpt>
      <trkpt lat="43.52517" lon="5.52506">
        <ele>270</ele>
        <time>2018-02-20T13:36:09.000Z</time>
      </trkpt>
      <trkpt lat="43.52517" lon="5.52504">
        <ele>270</ele>
        <time>2018-02-20T13:36:10.000Z</time>
      </trkpt>
      <trkpt lat="43.52518" lon="5.52503">
        <ele>270</ele>
        <time>2018-02-20T13:36:11.000Z</time>
      </trkpt>
      <trkpt lat="43.52518" lon="5.52501">
        <ele>270</ele>
        <time>2018-02-20T13:36:12.000Z</time>
      </trkpt>
      <trkpt lat="43.52518" lon="5.525">
        <ele>270</ele>
        <time>2018-02-20T13:36:13.000Z</time>
      </trkpt>
      <trkpt lat="43.52519" lon="5.52498">
        <ele>270</ele>
        <time>2018-02-20T13:36:14.000Z</time>
      </trkpt>
      <trkpt lat="43.52519" lon="5.52497">
        <ele>270</ele>
        <time>2018-02-20T13:36:15.000Z</time>
      </trkpt>
      <trkpt lat="43.52519" lon="5.52495">
        <ele>270</ele>
        <time>2018-02-20T13:36:16.000Z</time>
      </trkpt>
      <trkpt lat="43.5252" lon="5.52493">
        <ele>270</ele>
        <time>2018-02-20T13:36:17.000Z</time>
      </trkpt>
      <trkpt lat="43.5252" lon="5.52492">
        <ele>270</ele>
        <time>2018-02-20T13:36:18.000Z</time>
      </trkpt>
      <trkpt lat="43.52521" lon="5.5249">
        <ele>270</ele>
        <time>2018-02-20T13:36:19.000Z</time>
      </trkpt>
      <trkpt lat="43.52521" lon="5.52489">
        <ele>270</ele>
        <time>2018-02-20T13:36:20.000Z</time>
      </trkpt>
      <trkpt lat="43.52522" lon="5.52488">
        <ele>270</ele>
        <time>2018-02-20T13:36:21.000Z</time>
      </trkpt>
      <trkpt lat="43.52522" lon="5.52486">
        <ele>270</ele>
        <time>2018-02-20T13:36:22.000Z</time>
      </trkpt>
      <trkpt lat="43.52523" lon="5.52485">
        <ele>270</ele>
        <time>2018-02-20T13:36:23.000Z</time>
      </trkpt>
      <trkpt lat="43.52523" lon="5.52483">
        <ele>270</ele>
        <time>2018-02-20T13:36:24.000Z</time>
      </trkpt>
      <trkpt lat="43.52523" lon="5.52482">
        <ele>270</ele>
        <time>2018-02-20T13:36:25.000Z</time>
      </trkpt>
      <trkpt lat="43.52524" lon="5.5248">
        <ele>270</ele>
        <time>2018-02-20T13:36:26.000Z</time>
      </trkpt>
      <trkpt lat="43.52524" lon="5.52479">
        <ele>270</ele>
        <time>2018-02-20T13:36:27.000Z</time>
      </trkpt>
      <trkpt lat="43.52525" lon="5.52477">
        <ele>270</ele>
        <time>2018-02-20T13:36:28.000Z</time>
      </trkpt>
      <trkpt lat="43.52525" lon="5.52476">
        <ele>270</ele>
        <time>2018-02-20T13:36:29.000Z</time>
      </trkpt>
      <trkpt lat="43.52525" lon="5.52475">
        <ele>270</ele>
        <time>2018-02-20T13:36:30.000Z</time>
      </trkpt>
      <trkpt lat="43.52525" lon="5.52473">
        <ele>271</ele>
        <time>2018-02-20T13:36:31.000Z</time>
      </trkpt>
      <trkpt lat="43.52526" lon="5.52472">
        <ele>271</ele>
        <time>2018-02-20T13:36:32.000Z</time>
      </trkpt>
      <trkpt lat="43.52526" lon="5.52471">
        <ele>271</ele>
        <time>2018-02-20T13:36:33.000Z</time>
      </trkpt>
      <trkpt lat="43.52526" lon="5.52469">
        <ele>271</ele>
        <time>2018-02-20T13:36:34.000Z</time>
      </trkpt>
      <trkpt lat="43.52527" lon="5.52468">
        <ele>271</ele>
        <time>2018-02-20T13:36:35.000Z</time>
      </trkpt>
      <trkpt lat="43.52527" lon="5.52466">
        <ele>272</ele>
        <time>2018-02-20T13:36:36.000Z</time>
      </trkpt>
      <trkpt lat="43.52527" lon="5.52465">
        <ele>272</ele>
        <time>2018-02-20T13:36:37.000Z</time>
      </trkpt>
      <trkpt lat="43.52528" lon="5.52463">
        <ele>272</ele>
        <time>2018-02-20T13:36:38.000Z</time>
      </trkpt>
      <trkpt lat="43.52528" lon="5.52462">
        <ele>272</ele>
        <time>2018-02-20T13:36:39.000Z</time>
      </trkpt>
      <trkpt lat="43.52529" lon="5.5246">
        <ele>272</ele>
        <time>2018-02-20T13:36:40.000Z</time>
      </trkpt>
      <trkpt lat="43.52529" lon="5.52459">
        <ele>273</ele>
        <time>2018-02-20T13:36:41.000Z</time>
      </trkpt>
      <trkpt lat="43.5253" lon="5.52457">
        <ele>273</ele>
        <time>2018-02-20T13:36:42.000Z</time>
      </trkpt>
      <trkpt lat="43.5253" lon="5.52456">
        <ele>273</ele>
        <time>2018-02-20T13:36:43.000Z</time>
      </trkpt>
      <trkpt lat="43.5253" lon="5.52455">
        <ele>273</ele>
        <time>2018-02-20T13:36:44.000Z</time>
      </trkpt>
      <trkpt lat="43.52531" lon="5.52453">
        <ele>273</ele>
        <time>2018-02-20T13:36:45.000Z</time>
      </trkpt>
      <trkpt lat="43.52532" lon="5.52452">
        <ele>273</ele>
        <time>2018-02-20T13:36:46.000Z</time>
      </trkpt>
      <trkpt lat="43.52532" lon="5.52451">
        <ele>273</ele>
        <time>2018-02-20T13:36:47.000Z</time>
      </trkpt>
      <trkpt lat="43.52533" lon="5.52449">
        <ele>273</ele>
        <time>2018-02-20T13:36:48.000Z</time>
      </trkpt>
      <trkpt lat="43.52533" lon="5.52448">
        <ele>273</ele>
        <time>2018-02-20T13:36:49.000Z</time>
      </trkpt>
      <trkpt lat="43.52534" lon="5.52446">
        <ele>273</ele>
        <time>2018-02-20T13:36:50.000Z</time>
      </trkpt>
      <trkpt lat="43.52535" lon="5.52445">
        <ele>274</ele>
        <time>2018-02-20T13:36:51.000Z</time>
      </trkpt>
      <trkpt lat="43.52535" lon="5.52443">
        <ele>274</ele>
        <time>2018-02-20T13:36:52.000Z</time>
      </trkpt>
      <trkpt lat="43.52535" lon="5.52442">
        <ele>274</ele>
        <time>2018-02-20T13:36:53.000Z</time>
      </trkpt>
      <trkpt lat="43.52535" lon="5.52441">
        <ele>274</ele>
        <time>2018-02-20T13:36:54.000Z</time>
      </trkpt>
      <trkpt lat="43.52536" lon="5.5244">
        <ele>274</ele>
        <time>2018-02-20T13:36:55.000Z</time>
      </trkpt>
      <trkpt lat="43.52536" lon="5.52439">
        <ele>274</ele>
        <time>2018-02-20T13:36:56.000Z</time>
      </trkpt>
      <trkpt lat="43.52536" lon="5.52437">
        <ele>275</ele>
        <time>2018-02-20T13:36:57.000Z</time>
      </trkpt>
      <trkpt lat="43.52537" lon="5.52436">
        <ele>275</ele>
        <time>2018-02-20T13:36:58.000Z</time>
      </trkpt>
      <trkpt lat="43.52537" lon="5.52435">
        <ele>275</ele>
        <time>2018-02-20T13:36:59.000Z</time>
      </trkpt>
      <trkpt lat="43.52537" lon="5.52434">
        <ele>275</ele>
        <time>2018-02-20T13:37:00.000Z</time>
      </trkpt>
      <trkpt lat="43.52538" lon="5.52433">
        <ele>275</ele>
        <time>2018-02-20T13:37:01.000Z</time>
      </trkpt>
      <trkpt lat="43.52538" lon="5.52432">
        <ele>275</ele>
        <time>2018-02-20T13:37:02.000Z</time>
      </trkpt>
      <trkpt lat="43.52539" lon="5.52431">
        <ele>275</ele>
        <time>2018-02-20T13:37:03.000Z</time>
      </trkpt>
      <trkpt lat="43.52539" lon="5.5243">
        <ele>275</ele>
        <time>2018-02-20T13:37:04.000Z</time>
      </trkpt>
      <trkpt lat="43.52539" lon="5.52429">
        <ele>275</ele>
        <time>2018-02-20T13:37:05.000Z</time>
      </trkpt>
      <trkpt lat="43.52539" lon="5.52428">
        <ele>275</ele>
        <time>2018-02-20T13:37:06.000Z</time>
      </trkpt>
      <trkpt lat="43.52539" lon="5.52427">
        <ele>275</ele>
        <time>2018-02-20T13:37:07.000Z</time>
      </trkpt>
      <trkpt lat="43.52539" lon="5.52426">
        <ele>275</ele>
        <time>2018-02-20T13:37:08.000Z</time>
      </trkpt>
      <trkpt lat="43.5254" lon="5.52425">
        <ele>275</ele>
        <time>2018-02-20T13:37:09.000Z</time>
      </trkpt>
      <trkpt lat="43.52541" lon="5.52424">
        <ele>275</ele>
        <time>2018-02-20T13:37:10.000Z</time>
      </trkpt>
      <trkpt lat="43.52541" lon="5.52423">
        <ele>275</ele>
        <time>2018-02-20T13:37:11.000Z</time>
      </trkpt>
      <trkpt lat="43.52541" lon="5.52422">
        <ele>275</ele>
        <time>2018-02-20T13:37:12.000Z</time>
      </trkpt>
      <trkpt lat="43.52542" lon="5.52421">
        <ele>275</ele>
        <time>2018-02-20T13:37:13.000Z</time>
      </trkpt>
      <trkpt lat="43.52542" lon="5.5242">
        <ele>275</ele>
        <time>2018-02-20T13:37:14.000Z</time>
      </trkpt>
      <trkpt lat="43.52542" lon="5.5242">
        <ele>275</ele>
        <time>2018-02-20T13:37:15.000Z</time>
      </trkpt>
      <trkpt lat="43.52543" lon="5.52419">
        <ele>275</ele>
        <time>2018-02-20T13:37:16.000Z</time>
      </trkpt>
      <trkpt lat="43.52543" lon="5.52418">
        <ele>275</ele>
        <time>2018-02-20T13:37:17.000Z</time>
      </trkpt>
      <trkpt lat="43.52543" lon="5.52418">
        <ele>275</ele>
        <time>2018-02-20T13:37:18.000Z</time>
      </trkpt>
      <trkpt lat="43.52543" lon="5.52417">
        <ele>276</ele>
        <time>2018-02-20T13:37:19.000Z</time>
      </trkpt>
      <trkpt lat="43.52543" lon="5.52417">
        <ele>276</ele>
        <time>2018-02-20T13:37:20.000Z</time>
      </trkpt>
      <trkpt lat="43.52543" lon="5.52417">
        <ele>276</ele>
        <time>2018-02-20T13:37:21.000Z</time>
      </trkpt>
      <trkpt lat="43.52543" lon="5.52416">
        <ele>276</ele>
        <time>2018-02-20T13:37:22.000Z</time>
      </trkpt>
      <trkpt lat="43.52543" lon="5.52416">
        <ele>276</ele>
        <time>2018-02-20T13:37:23.000Z</time>
      </trkpt>
      <trkpt lat="43.52543" lon="5.52415">
        <ele>277</ele>
        <time>2018-02-20T13:37:24.000Z</time>
      </trkpt>
      <trkpt lat="43.52542" lon="5.52414">
        <ele>277</ele>
        <time>2018-02-20T13:37:25.000Z</time>
      </trkpt>
      <trkpt lat="43.52542" lon="5.52414">
        <ele>277</ele>
        <time>2018-02-20T13:37:26.000Z</time>
      </trkpt>
      <trkpt lat="43.52541" lon="5.52413">
        <ele>277</ele>
        <time>2018-02-20T13:37:27.000Z</time>
      </trkpt>
      <trkpt lat="43.52541" lon="5.52412">
        <ele>277</ele>
        <time>2018-02-20T13:37:28.000Z</time>
      </trkpt>
      <trkpt lat="43.5254" lon="5.5241">
        <ele>277</ele>
        <time>2018-02-20T13:37:29.000Z</time>
      </trkpt>
      <trkpt lat="43.5254" lon="5.52408">
        <ele>277</ele>
        <time>2018-02-20T13:37:30.000Z</time>
      </trkpt>
      <trkpt lat="43.5254" lon="5.52406">
        <ele>277</ele>
        <time>2018-02-20T13:37:31.000Z</time>
      </trkpt>
      <trkpt lat="43.5254" lon="5.52404">
        <ele>278</ele>
        <time>2018-02-20T13:37:32.000Z</time>
      </trkpt>
      <trkpt lat="43.5254" lon="5.52403">
        <ele>278</ele>
        <time>2018-02-20T13:37:33.000Z</time>
      </trkpt>
      <trkpt lat="43.52539" lon="5.52402">
        <ele>278</ele>
        <time>2018-02-20T13:37:34.000Z</time>
      </trkpt>
      <trkpt lat="43.52539" lon="5.52402">
        <ele>278</ele>
        <time>2018-02-20T13:37:35.000Z</time>
      </trkpt>
      <trkpt lat="43.52539" lon="5.52401">
        <ele>278</ele>
        <time>2018-02-20T13:37:36.000Z</time>
      </trkpt>
      <trkpt lat="43.52539" lon="5.52401">
        <ele>278</ele>
        <time>2018-02-20T13:37:37.000Z</time>
      </trkpt>
      <trkpt lat="43.52539" lon="5.52401">
        <ele>278</ele>
        <time>2018-02-20T13:37:38.000Z</time>
      </trkpt>
      <trkpt lat="43.52539" lon="5.52401">
        <ele>278</ele>
        <time>2018-02-20T13:37:39.000Z</time>
      </trkpt>
      <trkpt lat="43.52539" lon="5.52401">
        <ele>278</ele>
        <time>2018-02-20T13:37:40.000Z</time>
      </trkpt>
      <trkpt lat="43.52539" lon="5.52401">
        <ele>278</ele>
        <time>2018-02-20T13:37:41.000Z</time>
      </trkpt>
      <trkpt lat="43.52539" lon="5.52401">
        <ele>278</ele>
        <time>2018-02-20T13:37:42.000Z</time>
      </trkpt>
      <trkpt lat="43.52539" lon="5.52401">
        <ele>278</ele>
        <time>2018-02-20T13:37:43.000Z</time>
      </trkpt>
      <trkpt lat="43.52539" lon="5.524">
        <ele>278</ele>
        <time>2018-02-20T13:37:44.000Z</time>
      </trkpt>
      <trkpt lat="43.52539" lon="5.524">
        <ele>278</ele>
        <time>2018-02-20T13:37:45.000Z</time>
      </trkpt>
      <trkpt lat="43.52539" lon="5.524">
        <ele>278</ele>
        <time>2018-02-20T13:37:46.000Z</time>
      </trkpt>
      <trkpt lat="43.52539" lon="5.524">
        <ele>279</ele>
        <time>2018-02-20T13:37:47.000Z</time>
      </trkpt>
      <trkpt lat="43.5254" lon="5.524">
        <ele>279</ele>
        <time>2018-02-20T13:37:48.000Z</time>
      </trkpt>
      <trkpt lat="43.5254" lon="5.524">
        <ele>279</ele>
        <time>2018-02-20T13:37:49.000Z</time>
      </trkpt>
      <trkpt lat="43.5254" lon="5.52399">
        <ele>279</ele>
        <time>2018-02-20T13:37:50.000Z</time>
      </trkpt>
      <trkpt lat="43.5254" lon="5.52399">
        <ele>279</ele>
        <time>2018-02-20T13:37:51.000Z</time>
      </trkpt>
      <trkpt lat="43.5254" lon="5.52399">
        <ele>279</ele>
        <time>2018-02-20T13:37:52.000Z</time>
      </trkpt>
      <trkpt lat="43.5254" lon="5.52399">
        <ele>279</ele>
        <time>2018-02-20T13:37:53.000Z</time>
      </trkpt>
      <trkpt lat="43.5254" lon="5.52399">
        <ele>279</ele>
        <time>2018-02-20T13:37:54.000Z</time>
      </trkpt>
      <trkpt lat="43.5254" lon="5.52399">
        <ele>279</ele>
        <time>2018-02-20T13:37:55.000Z</time>
      </trkpt>
      <trkpt lat="43.5254" lon="5.52398">
        <ele>279</ele>
        <time>2018-02-20T13:37:56.000Z</time>
      </trkpt>
      <trkpt lat="43.5254" lon="5.52398">
        <ele>279</ele>
        <time>2018-02-20T13:37:57.000Z</time>
      </trkpt>
      <trkpt lat="43.5254" lon="5.52399">
        <ele>279</ele>
        <time>2018-02-20T13:37:58.000Z</time>
      </trkpt>
      <trkpt lat="43.52539" lon="5.52399">
        <ele>279</ele>
        <time>2018-02-20T13:37:59.000Z</time>
      </trkpt>
      <trkpt lat="43.52539" lon="5.52398">
        <ele>280</ele>
        <time>2018-02-20T13:38:00.000Z</time>
      </trkpt>
      <trkpt lat="43.52538" lon="5.52398">
        <ele>280</ele>
        <time>2018-02-20T13:38:01.000Z</time>
      </trkpt>
      <trkpt lat="43.52538" lon="5.52397">
        <ele>280</ele>
        <time>2018-02-20T13:38:02.000Z</time>
      </trkpt>
      <trkpt lat="43.52537" lon="5.52397">
        <ele>280</ele>
        <time>2018-02-20T13:38:03.000Z</time>
      </trkpt>
      <trkpt lat="43.52536" lon="5.52397">
        <ele>280</ele>
        <time>2018-02-20T13:38:04.000Z</time>
      </trkpt>
      <trkpt lat="43.52535" lon="5.52397">
        <ele>280</ele>
        <time>2018-02-20T13:38:05.000Z</time>
      </trkpt>
      <trkpt lat="43.52535" lon="5.52397">
        <ele>280</ele>
        <time>2018-02-20T13:38:06.000Z</time>
      </trkpt>
      <trkpt lat="43.52534" lon="5.52396">
        <ele>280</ele>
        <time>2018-02-20T13:38:07.000Z</time>
      </trkpt>
      <trkpt lat="43.52533" lon="5.52396">
        <ele>280</ele>
        <time>2018-02-20T13:38:08.000Z</time>
      </trkpt>
      <trkpt lat="43.52533" lon="5.52396">
        <ele>281</ele>
        <time>2018-02-20T13:38:09.000Z</time>
      </trkpt>
      <trkpt lat="43.52532" lon="5.52396">
        <ele>281</ele>
        <time>2018-02-20T13:38:10.000Z</time>
      </trkpt>
      <trkpt lat="43.52531" lon="5.52396">
        <ele>281</ele>
        <time>2018-02-20T13:38:11.000Z</time>
      </trkpt>
      <trkpt lat="43.5253" lon="5.52395">
        <ele>281</ele>
        <time>2018-02-20T13:38:12.000Z</time>
      </trkpt>
      <trkpt lat="43.52529" lon="5.52395">
        <ele>281</ele>
        <time>2018-02-20T13:38:13.000Z</time>
      </trkpt>
      <trkpt lat="43.52528" lon="5.52395">
        <ele>281</ele>
        <time>2018-02-20T13:38:14.000Z</time>
      </trkpt>
      <trkpt lat="43.52527" lon="5.52395">
        <ele>281</ele>
        <time>2018-02-20T13:38:15.000Z</time>
      </trkpt>
      <trkpt lat="43.52526" lon="5.52395">
        <ele>281</ele>
        <time>2018-02-20T13:38:16.000Z</time>
      </trkpt>
      <trkpt lat="43.52524" lon="5.52395">
        <ele>281</ele>
        <time>2018-02-20T13:38:17.000Z</time>
      </trkpt>
      <trkpt lat="43.52523" lon="5.52394">
        <ele>281</ele>
        <time>2018-02-20T13:38:18.000Z</time>
      </trkpt>
      <trkpt lat="43.52522" lon="5.52394">
        <ele>281</ele>
        <time>2018-02-20T13:38:19.000Z</time>
      </trkpt>
      <trkpt lat="43.52521" lon="5.52394">
        <ele>282</ele>
        <time>2018-02-20T13:38:20.000Z</time>
      </trkpt>
      <trkpt lat="43.5252" lon="5.52394">
        <ele>282</ele>
        <time>2018-02-20T13:38:21.000Z</time>
      </trkpt>
      <trkpt lat="43.52519" lon="5.52394">
        <ele>282</ele>
        <time>2018-02-20T13:38:22.000Z</time>
      </trkpt>
      <trkpt lat="43.52518" lon="5.52394">
        <ele>282</ele>
        <time>2018-02-20T13:38:23.000Z</time>
      </trkpt>
      <trkpt lat="43.52517" lon="5.52394">
        <ele>282</ele>
        <time>2018-02-20T13:38:24.000Z</time>
      </trkpt>
      <trkpt lat="43.52515" lon="5.52394">
        <ele>282</ele>
        <time>2018-02-20T13:38:25.000Z</time>
      </trkpt>
      <trkpt lat="43.52514" lon="5.52394">
        <ele>282</ele>
        <time>2018-02-20T13:38:26.000Z</time>
      </trkpt>
      <trkpt lat="43.52512" lon="5.52393">
        <ele>282</ele>
        <time>2018-02-20T13:38:27.000Z</time>
      </trkpt>
      <trkpt lat="43.52511" lon="5.52394">
        <ele>282</ele>
        <time>2018-02-20T13:38:28.000Z</time>
      </trkpt>
      <trkpt lat="43.5251" lon="5.52394">
        <ele>282</ele>
        <time>2018-02-20T13:38:29.000Z</time>
      </trkpt>
      <trkpt lat="43.52509" lon="5.52394">
        <ele>282</ele>
        <time>2018-02-20T13:38:30.000Z</time>
      </trkpt>
      <trkpt lat="43.52508" lon="5.52395">
        <ele>282</ele>
        <time>2018-02-20T13:38:31.000Z</time>
      </trkpt>
      <trkpt lat="43.52506" lon="5.52395">
        <ele>282</ele>
        <time>2018-02-20T13:38:32.000Z</time>
      </trkpt>
      <trkpt lat="43.52505" lon="5.52396">
        <ele>282</ele>
        <time>2018-02-20T13:38:33.000Z</time>
      </trkpt>
      <trkpt lat="43.52504" lon="5.52396">
        <ele>283</ele>
        <time>2018-02-20T13:38:34.000Z</time>
      </trkpt>
      <trkpt lat="43.52502" lon="5.52396">
        <ele>283</ele>
        <time>2018-02-20T13:38:35.000Z</time>
      </trkpt>
      <trkpt lat="43.52501" lon="5.52396">
        <ele>283</ele>
        <time>2018-02-20T13:38:36.000Z</time>
      </trkpt>
      <trkpt lat="43.52499" lon="5.52396">
        <ele>283</ele>
        <time>2018-02-20T13:38:37.000Z</time>
      </trkpt>
      <trkpt lat="43.52498" lon="5.52396">
        <ele>283</ele>
        <time>2018-02-20T13:38:38.000Z</time>
      </trkpt>
      <trkpt lat="43.52497" lon="5.52396">
        <ele>283</ele>
        <time>2018-02-20T13:38:39.000Z</time>
      </trkpt>
      <trkpt lat="43.52495" lon="5.52396">
        <ele>283</ele>
        <time>2018-02-20T13:38:40.000Z</time>
      </trkpt>
      <trkpt lat="43.52494" lon="5.52396">
        <ele>283</ele>
        <time>2018-02-20T13:38:41.000Z</time>
      </trkpt>
      <trkpt lat="43.52493" lon="5.52396">
        <ele>283</ele>
        <time>2018-02-20T13:38:42.000Z</time>
      </trkpt>
      <trkpt lat="43.52493" lon="5.52396">
        <ele>283</ele>
        <time>2018-02-20T13:38:43.000Z</time>
      </trkpt>
      <trkpt lat="43.52492" lon="5.52395">
        <ele>283</ele>
        <time>2018-02-20T13:38:44.000Z</time>
      </trkpt>
      <trkpt lat="43.52491" lon="5.52395">
        <ele>283</ele>
        <time>2018-02-20T13:38:45.000Z</time>
      </trkpt>
      <trkpt lat="43.5249" lon="5.52395">
        <ele>283</ele>
        <time>2018-02-20T13:38:46.000Z</time>
      </trkpt>
      <trkpt lat="43.52489" lon="5.52395">
        <ele>283</ele>
        <time>2018-02-20T13:38:47.000Z</time>
      </trkpt>
      <trkpt lat="43.52488" lon="5.52395">
        <ele>283</ele>
        <time>2018-02-20T13:38:48.000Z</time>
      </trkpt>
      <trkpt lat="43.52487" lon="5.52394">
        <ele>283</ele>
        <time>2018-02-20T13:38:49.000Z</time>
      </trkpt>
      <trkpt lat="43.52486" lon="5.52394">
        <ele>283</ele>
        <time>2018-02-20T13:38:50.000Z</time>
      </trkpt>
      <trkpt lat="43.52485" lon="5.52394">
        <ele>284</ele>
        <time>2018-02-20T13:38:51.000Z</time>
      </trkpt>
      <trkpt lat="43.52484" lon="5.52394">
        <ele>284</ele>
        <time>2018-02-20T13:38:52.000Z</time>
      </trkpt>
      <trkpt lat="43.52483" lon="5.52394">
        <ele>284</ele>
        <time>2018-02-20T13:38:53.000Z</time>
      </trkpt>
      <trkpt lat="43.52482" lon="5.52394">
        <ele>283</ele>
        <time>2018-02-20T13:38:54.000Z</time>
      </trkpt>
      <trkpt lat="43.52481" lon="5.52394">
        <ele>283</ele>
        <time>2018-02-20T13:38:55.000Z</time>
      </trkpt>
      <trkpt lat="43.52479" lon="5.52394">
        <ele>283</ele>
        <time>2018-02-20T13:38:56.000Z</time>
      </trkpt>
      <trkpt lat="43.52478" lon="5.52394">
        <ele>283</ele>
        <time>2018-02-20T13:38:57.000Z</time>
      </trkpt>
      <trkpt lat="43.52477" lon="5.52394">
        <ele>283</ele>
        <time>2018-02-20T13:38:58.000Z</time>
      </trkpt>
      <trkpt lat="43.52476" lon="5.52394">
        <ele>283</ele>
        <time>2018-02-20T13:38:59.000Z</time>
      </trkpt>
      <trkpt lat="43.52475" lon="5.52394">
        <ele>283</ele>
        <time>2018-02-20T13:39:00.000Z</time>
      </trkpt>
      <trkpt lat="43.52474" lon="5.52394">
        <ele>283</ele>
        <time>2018-02-20T13:39:01.000Z</time>
      </trkpt>
      <trkpt lat="43.52473" lon="5.52394">
        <ele>282</ele>
        <time>2018-02-20T13:39:02.000Z</time>
      </trkpt>
      <trkpt lat="43.52472" lon="5.52394">
        <ele>282</ele>
        <time>2018-02-20T13:39:03.000Z</time>
      </trkpt>
      <trkpt lat="43.52471" lon="5.52393">
        <ele>282</ele>
        <time>2018-02-20T13:39:04.000Z</time>
      </trkpt>
      <trkpt lat="43.5247" lon="5.52393">
        <ele>283</ele>
        <time>2018-02-20T13:39:05.000Z</time>
      </trkpt>
      <trkpt lat="43.52469" lon="5.52393">
        <ele>283</ele>
        <time>2018-02-20T13:39:06.000Z</time>
      </trkpt>
      <trkpt lat="43.52468" lon="5.52393">
        <ele>283</ele>
        <time>2018-02-20T13:39:07.000Z</time>
      </trkpt>
      <trkpt lat="43.52467" lon="5.52393">
        <ele>283</ele>
        <time>2018-02-20T13:39:08.000Z</time>
      </trkpt>
      <trkpt lat="43.52466" lon="5.52393">
        <ele>283</ele>
        <time>2018-02-20T13:39:09.000Z</time>
      </trkpt>
      <trkpt lat="43.52465" lon="5.52393">
        <ele>283</ele>
        <time>2018-02-20T13:39:10.000Z</time>
      </trkpt>
      <trkpt lat="43.52464" lon="5.52393">
        <ele>284</ele>
        <time>2018-02-20T13:39:11.000Z</time>
      </trkpt>
      <trkpt lat="43.52463" lon="5.52393">
        <ele>284</ele>
        <time>2018-02-20T13:39:12.000Z</time>
      </trkpt>
      <trkpt lat="43.52462" lon="5.52393">
        <ele>284</ele>
        <time>2018-02-20T13:39:13.000Z</time>
      </trkpt>
      <trkpt lat="43.52461" lon="5.52394">
        <ele>284</ele>
        <time>2018-02-20T13:39:14.000Z</time>
      </trkpt>
      <trkpt lat="43.52459" lon="5.52394">
        <ele>285</ele>
        <time>2018-02-20T13:39:15.000Z</time>
      </trkpt>
      <trkpt lat="43.52458" lon="5.52394">
        <ele>285</ele>
        <time>2018-02-20T13:39:16.000Z</time>
      </trkpt>
      <trkpt lat="43.52457" lon="5.52394">
        <ele>285</ele>
        <time>2018-02-20T13:39:17.000Z</time>
      </trkpt>
      <trkpt lat="43.52455" lon="5.52394">
        <ele>285</ele>
        <time>2018-02-20T13:39:18.000Z</time>
      </trkpt>
      <trkpt lat="43.52454" lon="5.52394">
        <ele>286</ele>
        <time>2018-02-20T13:39:19.000Z</time>
      </trkpt>
      <trkpt lat="43.52453" lon="5.52394">
        <ele>286</ele>
        <time>2018-02-20T13:39:20.000Z</time>
      </trkpt>
      <trkpt lat="43.52451" lon="5.52395">
        <ele>286</ele>
        <time>2018-02-20T13:39:21.000Z</time>
      </trkpt>
      <trkpt lat="43.5245" lon="5.52395">
        <ele>286</ele>
        <time>2018-02-20T13:39:22.000Z</time>
      </trkpt>
      <trkpt lat="43.52449" lon="5.52394">
        <ele>286</ele>
        <time>2018-02-20T13:39:23.000Z</time>
      </trkpt>
      <trkpt lat="43.52448" lon="5.52394">
        <ele>286</ele>
        <time>2018-02-20T13:39:24.000Z</time>
      </trkpt>
      <trkpt lat="43.52447" lon="5.52394">
        <ele>287</ele>
        <time>2018-02-20T13:39:25.000Z</time>
      </trkpt>
      <trkpt lat="43.52446" lon="5.52394">
        <ele>287</ele>
        <time>2018-02-20T13:39:26.000Z</time>
      </trkpt>
      <trkpt lat="43.52445" lon="5.52394">
        <ele>287</ele>
        <time>2018-02-20T13:39:27.000Z</time>
      </trkpt>
      <trkpt lat="43.52444" lon="5.52393">
        <ele>287</ele>
        <time>2018-02-20T13:39:28.000Z</time>
      </trkpt>
      <trkpt lat="43.52443" lon="5.52393">
        <ele>286</ele>
        <time>2018-02-20T13:39:29.000Z</time>
      </trkpt>
      <trkpt lat="43.52442" lon="5.52393">
        <ele>286</ele>
        <time>2018-02-20T13:39:30.000Z</time>
      </trkpt>
      <trkpt lat="43.52441" lon="5.52393">
        <ele>286</ele>
        <time>2018-02-20T13:39:31.000Z</time>
      </trkpt>
      <trkpt lat="43.52441" lon="5.52393">
        <ele>286</ele>
        <time>2018-02-20T13:39:32.000Z</time>
      </trkpt>
      <trkpt lat="43.5244" lon="5.52393">
        <ele>286</ele>
        <time>2018-02-20T13:39:33.000Z</time>
      </trkpt>
      <trkpt lat="43.52439" lon="5.52393">
        <ele>286</ele>
        <time>2018-02-20T13:39:34.000Z</time>
      </trkpt>
      <trkpt lat="43.52438" lon="5.52393">
        <ele>286</ele>
        <time>2018-02-20T13:39:35.000Z</time>
      </trkpt>
      <trkpt lat="43.52438" lon="5.52392">
        <ele>286</ele>
        <time>2018-02-20T13:39:36.000Z</time>
      </trkpt>
      <trkpt lat="43.52437" lon="5.52392">
        <ele>286</ele>
        <time>2018-02-20T13:39:37.000Z</time>
      </trkpt>
      <trkpt lat="43.52436" lon="5.52391">
        <ele>286</ele>
        <time>2018-02-20T13:39:38.000Z</time>
      </trkpt>
      <trkpt lat="43.52436" lon="5.52391">
        <ele>286</ele>
        <time>2018-02-20T13:39:39.000Z</time>
      </trkpt>
      <trkpt lat="43.52435" lon="5.52391">
        <ele>286</ele>
        <time>2018-02-20T13:39:40.000Z</time>
      </trkpt>
      <trkpt lat="43.52435" lon="5.5239">
        <ele>286</ele>
        <time>2018-02-20T13:39:41.000Z</time>
      </trkpt>
      <trkpt lat="43.52434" lon="5.52389">
        <ele>286</ele>
        <time>2018-02-20T13:39:42.000Z</time>
      </trkpt>
      <trkpt lat="43.52434" lon="5.52389">
        <ele>287</ele>
        <time>2018-02-20T13:39:43.000Z</time>
      </trkpt>
      <trkpt lat="43.52434" lon="5.52388">
        <ele>287</ele>
        <time>2018-02-20T13:39:44.000Z</time>
      </trkpt>
      <trkpt lat="43.52433" lon="5.52388">
        <ele>287</ele>
        <time>2018-02-20T13:39:45.000Z</time>
      </trkpt>
      <trkpt lat="43.52433" lon="5.52388">
        <ele>287</ele>
        <time>2018-02-20T13:39:46.000Z</time>
      </trkpt>
      <trkpt lat="43.52432" lon="5.52388">
        <ele>287</ele>
        <time>2018-02-20T13:39:47.000Z</time>
      </trkpt>
      <trkpt lat="43.52432" lon="5.52388">
        <ele>287</ele>
        <time>2018-02-20T13:39:48.000Z</time>
      </trkpt>
      <trkpt lat="43.52431" lon="5.52388">
        <ele>287</ele>
        <time>2018-02-20T13:39:49.000Z</time>
      </trkpt>
      <trkpt lat="43.52431" lon="5.52388">
        <ele>287</ele>
        <time>2018-02-20T13:39:50.000Z</time>
      </trkpt>
      <trkpt lat="43.5243" lon="5.52389">
        <ele>287</ele>
        <time>2018-02-20T13:39:51.000Z</time>
      </trkpt>
      <trkpt lat="43.5243" lon="5.52388">
        <ele>287</ele>
        <time>2018-02-20T13:39:52.000Z</time>
      </trkpt>
      <trkpt lat="43.5243" lon="5.52388">
        <ele>287</ele>
        <time>2018-02-20T13:39:53.000Z</time>
      </trkpt>
      <trkpt lat="43.52429" lon="5.52388">
        <ele>287</ele>
        <time>2018-02-20T13:39:54.000Z</time>
      </trkpt>
      <trkpt lat="43.52429" lon="5.52388">
        <ele>287</ele>
        <time>2018-02-20T13:39:55.000Z</time>
      </trkpt>
      <trkpt lat="43.52428" lon="5.52388">
        <ele>287</ele>
        <time>2018-02-20T13:39:56.000Z</time>
      </trkpt>
      <trkpt lat="43.52428" lon="5.52388">
        <ele>287</ele>
        <time>2018-02-20T13:39:57.000Z</time>
      </trkpt>
      <trkpt lat="43.52427" lon="5.52388">
        <ele>287</ele>
        <time>2018-02-20T13:39:58.000Z</time>
      </trkpt>
      <trkpt lat="43.52427" lon="5.52388">
        <ele>287</ele>
        <time>2018-02-20T13:39:59.000Z</time>
      </trkpt>
      <trkpt lat="43.52427" lon="5.52388">
        <ele>287</ele>
        <time>2018-02-20T13:40:00.000Z</time>
      </trkpt>
      <trkpt lat="43.52427" lon="5.52389">
        <ele>287</ele>
        <time>2018-02-20T13:40:01.000Z</time>
      </trkpt>
      <trkpt lat="43.52427" lon="5.52389">
        <ele>287</ele>
        <time>2018-02-20T13:40:02.000Z</time>
      </trkpt>
      <trkpt lat="43.52427" lon="5.52389">
        <ele>287</ele>
        <time>2018-02-20T13:40:03.000Z</time>
      </trkpt>
      <trkpt lat="43.52427" lon="5.52389">
        <ele>287</ele>
        <time>2018-02-20T13:40:04.000Z</time>
      </trkpt>
      <trkpt lat="43.52427" lon="5.52389">
        <ele>287</ele>
        <time>2018-02-20T13:40:05.000Z</time>
      </trkpt>
      <trkpt lat="43.52427" lon="5.52389">
        <ele>287</ele>
        <time>2018-02-20T13:40:06.000Z</time>
      </trkpt>
      <trkpt lat="43.52427" lon="5.52389">
        <ele>287</ele>
        <time>2018-02-20T13:40:07.000Z</time>
      </trkpt>
      <trkpt lat="43.52427" lon="5.5239">
        <ele>287</ele>
        <time>2018-02-20T13:40:08.000Z</time>
      </trkpt>
      <trkpt lat="43.52427" lon="5.5239">
        <ele>287</ele>
        <time>2018-02-20T13:40:09.000Z</time>
      </trkpt>
      <trkpt lat="43.52427" lon="5.5239">
        <ele>287</ele>
        <time>2018-02-20T13:40:10.000Z</time>
      </trkpt>
      <trkpt lat="43.52427" lon="5.5239">
        <ele>287</ele>
        <time>2018-02-20T13:40:11.000Z</time>
      </trkpt>
      <trkpt lat="43.52427" lon="5.5239">
        <ele>287</ele>
        <time>2018-02-20T13:40:12.000Z</time>
      </trkpt>
      <trkpt lat="43.52427" lon="5.5239">
        <ele>288</ele>
        <time>2018-02-20T13:40:13.000Z</time>
      </trkpt>
      <trkpt lat="43.52427" lon="5.5239">
        <ele>288</ele>
        <time>2018-02-20T13:40:14.000Z</time>
      </trkpt>
      <trkpt lat="43.52427" lon="5.5239">
        <ele>288</ele>
        <time>2018-02-20T13:40:15.000Z</time>
      </trkpt>
      <trkpt lat="43.52427" lon="5.5239">
        <ele>288</ele>
        <time>2018-02-20T13:40:16.000Z</time>
      </trkpt>
      <trkpt lat="43.52427" lon="5.5239">
        <ele>288</ele>
        <time>2018-02-20T13:40:17.000Z</time>
      </trkpt>
      <trkpt lat="43.52426" lon="5.52391">
        <ele>288</ele>
        <time>2018-02-20T13:40:18.000Z</time>
      </trkpt>
      <trkpt lat="43.52426" lon="5.52391">
        <ele>288</ele>
        <time>2018-02-20T13:40:19.000Z</time>
      </trkpt>
      <trkpt lat="43.52426" lon="5.52391">
        <ele>288</ele>
        <time>2018-02-20T13:40:20.000Z</time>
      </trkpt>
      <trkpt lat="43.52426" lon="5.52391">
        <ele>288</ele>
        <time>2018-02-20T13:40:21.000Z</time>
      </trkpt>
      <trkpt lat="43.52426" lon="5.52391">
        <ele>288</ele>
        <time>2018-02-20T13:40:22.000Z</time>
      </trkpt>
      <trkpt lat="43.52426" lon="5.52391">
        <ele>289</ele>
        <time>2018-02-20T13:40:23.000Z</time>
      </trkpt>
      <trkpt lat="43.52426" lon="5.52391">
        <ele>289</ele>
        <time>2018-02-20T13:40:24.000Z</time>
      </trkpt>
      <trkpt lat="43.52426" lon="5.52391">
        <ele>289</ele>
        <time>2018-02-20T13:40:25.000Z</time>
      </trkpt>
      <trkpt lat="43.52426" lon="5.52391">
        <ele>289</ele>
        <time>2018-02-20T13:40:26.000Z</time>
      </trkpt>
      <trkpt lat="43.52426" lon="5.52391">
        <ele>289</ele>
        <time>2018-02-20T13:40:27.000Z</time>
      </trkpt>
      <trkpt lat="43.52426" lon="5.52391">
        <ele>289</ele>
        <time>2018-02-20T13:40:28.000Z</time>
      </trkpt>
      <trkpt lat="43.52426" lon="5.52391">
        <ele>289</ele>
        <time>2018-02-20T13:40:29.000Z</time>
      </trkpt>
      <trkpt lat="43.52426" lon="5.52391">
        <ele>289</ele>
        <time>2018-02-20T13:40:30.000Z</time>
      </trkpt>
      <trkpt lat="43.52426" lon="5.52391">
        <ele>289</ele>
        <time>2018-02-20T13:40:31.000Z</time>
      </trkpt>
      <trkpt lat="43.52426" lon="5.52391">
        <ele>289</ele>
        <time>2018-02-20T13:40:32.000Z</time>
      </trkpt>
      <trkpt lat="43.52426" lon="5.52391">
        <ele>289</ele>
        <time>2018-02-20T13:40:33.000Z</time>
      </trkpt>
      <trkpt lat="43.52426" lon="5.52391">
        <ele>289</ele>
        <time>2018-02-20T13:40:34.000Z</time>
      </trkpt>
      <trkpt lat="43.52426" lon="5.52391">
        <ele>289</ele>
        <time>2018-02-20T13:40:35.000Z</time>
      </trkpt>
      <trkpt lat="43.52425" lon="5.52392">
        <ele>289</ele>
        <time>2018-02-20T13:40:36.000Z</time>
      </trkpt>
      <trkpt lat="43.52425" lon="5.52392">
        <ele>290</ele>
        <time>2018-02-20T13:40:37.000Z</time>
      </trkpt>
      <trkpt lat="43.52425" lon="5.52392">
        <ele>290</ele>
        <time>2018-02-20T13:40:38.000Z</time>
      </trkpt>
      <trkpt lat="43.52425" lon="5.52392">
        <ele>290</ele>
        <time>2018-02-20T13:40:39.000Z</time>
      </trkpt>
      <trkpt lat="43.52425" lon="5.52393">
        <ele>290</ele>
        <time>2018-02-20T13:40:40.000Z</time>
      </trkpt>
      <trkpt lat="43.52425" lon="5.52393">
        <ele>290</ele>
        <time>2018-02-20T13:40:41.000Z</time>
      </trkpt>
      <trkpt lat="43.52425" lon="5.52393">
        <ele>290</ele>
        <time>2018-02-20T13:40:42.000Z</time>
      </trkpt>
      <trkpt lat="43.52425" lon="5.52393">
        <ele>290</ele>
        <time>2018-02-20T13:40:43.000Z</time>
      </trkpt>
      <trkpt lat="43.52425" lon="5.52393">
        <ele>290</ele>
        <time>2018-02-20T13:40:44.000Z</time>
      </trkpt>
      <trkpt lat="43.52425" lon="5.52393">
        <ele>290</ele>
        <time>2018-02-20T13:40:45.000Z</time>
      </trkpt>
      <trkpt lat="43.52425" lon="5.52393">
        <ele>290</ele>
        <time>2018-02-20T13:40:46.000Z</time>
      </trkpt>
      <trkpt lat="43.52425" lon="5.52393">
        <ele>290</ele>
        <time>2018-02-20T13:40:47.000Z</time>
      </trkpt>
      <trkpt lat="43.52425" lon="5.52393">
        <ele>290</ele>
        <time>2018-02-20T13:40:48.000Z</time>
      </trkpt>
      <trkpt lat="43.52425" lon="5.52393">
        <ele>290</ele>
        <time>2018-02-20T13:40:49.000Z</time>
      </trkpt>
      <trkpt lat="43.52425" lon="5.52393">
        <ele>290</ele>
        <time>2018-02-20T13:40:50.000Z</time>
      </trkpt>
      <trkpt lat="43.52425" lon="5.52392">
        <ele>290</ele>
        <time>2018-02-20T13:40:51.000Z</time>
      </trkpt>
      <trkpt lat="43.52425" lon="5.52392">
        <ele>291</ele>
        <time>2018-02-20T13:40:52.000Z</time>
      </trkpt>
      <trkpt lat="43.52425" lon="5.52392">
        <ele>291</ele>
        <time>2018-02-20T13:40:53.000Z</time>
      </trkpt>
      <trkpt lat="43.52425" lon="5.52392">
        <ele>291</ele>
        <time>2018-02-20T13:40:54.000Z</time>
      </trkpt>
      <trkpt lat="43.52425" lon="5.52392">
        <ele>291</ele>
        <time>2018-02-20T13:40:55.000Z</time>
      </trkpt>
      <trkpt lat="43.52425" lon="5.52392">
        <ele>291</ele>
        <time>2018-02-20T13:40:56.000Z</time>
      </trkpt>
      <trkpt lat="43.52425" lon="5.52391">
        <ele>291</ele>
        <time>2018-02-20T13:40:57.000Z</time>
      </trkpt>
      <trkpt lat="43.52425" lon="5.52391">
        <ele>291</ele>
        <time>2018-02-20T13:40:58.000Z</time>
      </trkpt>
      <trkpt lat="43.52426" lon="5.5239">
        <ele>291</ele>
        <time>2018-02-20T13:40:59.000Z</time>
      </trkpt>
      <trkpt lat="43.52426" lon="5.5239">
        <ele>291</ele>
        <time>2018-02-20T13:41:00.000Z</time>
      </trkpt>
      <trkpt lat="43.52426" lon="5.52389">
        <ele>291</ele>
        <time>2018-02-20T13:41:01.000Z</time>
      </trkpt>
      <trkpt lat="43.52426" lon="5.52389">
        <ele>291</ele>
        <time>2018-02-20T13:41:02.000Z</time>
      </trkpt>
      <trkpt lat="43.52426" lon="5.52389">
        <ele>291</ele>
        <time>2018-02-20T13:41:03.000Z</time>
      </trkpt>
      <trkpt lat="43.52426" lon="5.52389">
        <ele>291</ele>
        <time>2018-02-20T13:41:04.000Z</time>
      </trkpt>
      <trkpt lat="43.52426" lon="5.52389">
        <ele>292</ele>
        <time>2018-02-20T13:41:05.000Z</time>
      </trkpt>
      <trkpt lat="43.52426" lon="5.52389">
        <ele>292</ele>
        <time>2018-02-20T13:41:06.000Z</time>
      </trkpt>
      <trkpt lat="43.52426" lon="5.52389">
        <ele>292</ele>
        <time>2018-02-20T13:41:07.000Z</time>
      </trkpt>
      <trkpt lat="43.52426" lon="5.52389">
        <ele>292</ele>
        <time>2018-02-20T13:41:08.000Z</time>
      </trkpt>
      <trkpt lat="43.52426" lon="5.52389">
        <ele>292</ele>
        <time>2018-02-20T13:41:09.000Z</time>
      </trkpt>
      <trkpt lat="43.52426" lon="5.52389">
        <ele>292</ele>
        <time>2018-02-20T13:41:10.000Z</time>
      </trkpt>
      <trkpt lat="43.52425" lon="5.52389">
        <ele>292</ele>
        <time>2018-02-20T13:41:11.000Z</time>
      </trkpt>
      <trkpt lat="43.52425" lon="5.52389">
        <ele>292</ele>
        <time>2018-02-20T13:41:12.000Z</time>
      </trkpt>
      <trkpt lat="43.52425" lon="5.52389">
        <ele>292</ele>
        <time>2018-02-20T13:41:13.000Z</time>
      </trkpt>
      <trkpt lat="43.52425" lon="5.52389">
        <ele>292</ele>
        <time>2018-02-20T13:41:14.000Z</time>
      </trkpt>
      <trkpt lat="43.52425" lon="5.52389">
        <ele>292</ele>
        <time>2018-02-20T13:41:15.000Z</time>
      </trkpt>
      <trkpt lat="43.52425" lon="5.52389">
        <ele>292</ele>
        <time>2018-02-20T13:41:16.000Z</time>
      </trkpt>
      <trkpt lat="43.52425" lon="5.52389">
        <ele>292</ele>
        <time>2018-02-20T13:41:17.000Z</time>
      </trkpt>
      <trkpt lat="43.52425" lon="5.52389">
        <ele>292</ele>
        <time>2018-02-20T13:41:18.000Z</time>
      </trkpt>
      <trkpt lat="43.52425" lon="5.52389">
        <ele>292</ele>
        <time>2018-02-20T13:41:19.000Z</time>
      </trkpt>
      <trkpt lat="43.52425" lon="5.52389">
        <ele>292</ele>
        <time>2018-02-20T13:41:20.000Z</time>
      </trkpt>
      <trkpt lat="43.52425" lon="5.52389">
        <ele>292</ele>
        <time>2018-02-20T13:41:21.000Z</time>
      </trkpt>
      <trkpt lat="43.52425" lon="5.52389">
        <ele>291</ele>
        <time>2018-02-20T13:41:22.000Z</time>
      </trkpt>
      <trkpt lat="43.52425" lon="5.52389">
        <ele>291</ele>
        <time>2018-02-20T13:41:23.000Z</time>
      </trkpt>
      <trkpt lat="43.52425" lon="5.52389">
        <ele>291</ele>
        <time>2018-02-20T13:41:24.000Z</time>
      </trkpt>
      <trkpt lat="43.52425" lon="5.52389">
        <ele>291</ele>
        <time>2018-02-20T13:41:25.000Z</time>
      </trkpt>
      <trkpt lat="43.52425" lon="5.5239">
        <ele>291</ele>
        <time>2018-02-20T13:41:26.000Z</time>
      </trkpt>
      <trkpt lat="43.52425" lon="5.5239">
        <ele>291</ele>
        <time>2018-02-20T13:41:27.000Z</time>
      </trkpt>
      <trkpt lat="43.52425" lon="5.5239">
        <ele>291</ele>
        <time>2018-02-20T13:41:28.000Z</time>
      </trkpt>
      <trkpt lat="43.52425" lon="5.5239">
        <ele>291</ele>
        <time>2018-02-20T13:41:29.000Z</time>
      </trkpt>
      <trkpt lat="43.52425" lon="5.5239">
        <ele>291</ele>
        <time>2018-02-20T13:41:30.000Z</time>
      </trkpt>
      <trkpt lat="43.52425" lon="5.5239">
        <ele>291</ele>
        <time>2018-02-20T13:41:31.000Z</time>
      </trkpt>
      <trkpt lat="43.52425" lon="5.5239">
        <ele>291</ele>
        <time>2018-02-20T13:41:32.000Z</time>
      </trkpt>
      <trkpt lat="43.52425" lon="5.5239">
        <ele>291</ele>
        <time>2018-02-20T13:41:33.000Z</time>
      </trkpt>
      <trkpt lat="43.52425" lon="5.5239">
        <ele>291</ele>
        <time>2018-02-20T13:41:34.000Z</time>
      </trkpt>
      <trkpt lat="43.52425" lon="5.5239">
        <ele>291</ele>
        <time>2018-02-20T13:41:35.000Z</time>
      </trkpt>
      <trkpt lat="43.52425" lon="5.5239">
        <ele>291</ele>
        <time>2018-02-20T13:41:36.000Z</time>
      </trkpt>
      <trkpt lat="43.52425" lon="5.5239">
        <ele>291</ele>
        <time>2018-02-20T13:41:37.000Z</time>
      </trkpt>
      <trkpt lat="43.52425" lon="5.5239">
        <ele>291</ele>
        <time>2018-02-20T13:41:38.000Z</time>
      </trkpt>
      <trkpt lat="43.52425" lon="5.5239">
        <ele>291</ele>
        <time>2018-02-20T13:41:39.000Z</time>
      </trkpt>
      <trkpt lat="43.52425" lon="5.5239">
        <ele>291</ele>
        <time>2018-02-20T13:41:40.000Z</time>
      </trkpt>
      <trkpt lat="43.52425" lon="5.5239">
        <ele>291</ele>
        <time>2018-02-20T13:41:41.000Z</time>
      </trkpt>
      <trkpt lat="43.52425" lon="5.5239">
        <ele>291</ele>
        <time>2018-02-20T13:41:42.000Z</time>
      </trkpt>
      <trkpt lat="43.52425" lon="5.5239">
        <ele>291</ele>
        <time>2018-02-20T13:41:43.000Z</time>
      </trkpt>
      <trkpt lat="43.52426" lon="5.5239">
        <ele>291</ele>
        <time>2018-02-20T13:41:44.000Z</time>
      </trkpt>
      <trkpt lat="43.52426" lon="5.5239">
        <ele>291</ele>
        <time>2018-02-20T13:41:45.000Z</time>
      </trkpt>
      <trkpt lat="43.52426" lon="5.5239">
        <ele>291</ele>
        <time>2018-02-20T13:41:46.000Z</time>
      </trkpt>
      <trkpt lat="43.52426" lon="5.5239">
        <ele>291</ele>
        <time>2018-02-20T13:41:47.000Z</time>
      </trkpt>
      <trkpt lat="43.52426" lon="5.5239">
        <ele>291</ele>
        <time>2018-02-20T13:41:48.000Z</time>
      </trkpt>
      <trkpt lat="43.52426" lon="5.5239">
        <ele>291</ele>
        <time>2018-02-20T13:41:49.000Z</time>
      </trkpt>
      <trkpt lat="43.52426" lon="5.5239">
        <ele>291</ele>
        <time>2018-02-20T13:41:50.000Z</time>
      </trkpt>
      <trkpt lat="43.52426" lon="5.5239">
        <ele>291</ele>
        <time>2018-02-20T13:41:51.000Z</time>
      </trkpt>
      <trkpt lat="43.52426" lon="5.5239">
        <ele>291</ele>
        <time>2018-02-20T13:41:52.000Z</time>
      </trkpt>
      <trkpt lat="43.52426" lon="5.5239">
        <ele>291</ele>
        <time>2018-02-20T13:41:53.000Z</time>
      </trkpt>
      <trkpt lat="43.52426" lon="5.5239">
        <ele>291</ele>
        <time>2018-02-20T13:41:54.000Z</time>
      </trkpt>
      <trkpt lat="43.52426" lon="5.5239">
        <ele>291</ele>
        <time>2018-02-20T13:41:55.000Z</time>
      </trkpt>
      <trkpt lat="43.52426" lon="5.52389">
        <ele>291</ele>
        <time>2018-02-20T13:41:56.000Z</time>
      </trkpt>
      <trkpt lat="43.52425" lon="5.52389">
        <ele>291</ele>
        <time>2018-02-20T13:41:57.000Z</time>
      </trkpt>
      <trkpt lat="43.52425" lon="5.52388">
        <ele>291</ele>
        <time>2018-02-20T13:41:58.000Z</time>
      </trkpt>
      <trkpt lat="43.52425" lon="5.52387">
        <ele>291</ele>
        <time>2018-02-20T13:41:59.000Z</time>
      </trkpt>
      <trkpt lat="43.52425" lon="5.52386">
        <ele>291</ele>
        <time>2018-02-20T13:42:00.000Z</time>
      </trkpt>
      <trkpt lat="43.52425" lon="5.52385">
        <ele>291</ele>
        <time>2018-02-20T13:42:01.000Z</time>
      </trkpt>
      <trkpt lat="43.52425" lon="5.52384">
        <ele>291</ele>
        <time>2018-02-20T13:42:02.000Z</time>
      </trkpt>
      <trkpt lat="43.52425" lon="5.52383">
        <ele>291</ele>
        <time>2018-02-20T13:42:03.000Z</time>
      </trkpt>
      <trkpt lat="43.52425" lon="5.52382">
        <ele>291</ele>
        <time>2018-02-20T13:42:04.000Z</time>
      </trkpt>
      <trkpt lat="43.52426" lon="5.52381">
        <ele>291</ele>
        <time>2018-02-20T13:42:05.000Z</time>
      </trkpt>
      <trkpt lat="43.52426" lon="5.52381">
        <ele>291</ele>
        <time>2018-02-20T13:42:06.000Z</time>
      </trkpt>
      <trkpt lat="43.52426" lon="5.5238">
        <ele>291</ele>
        <time>2018-02-20T13:42:07.000Z</time>
      </trkpt>
      <trkpt lat="43.52426" lon="5.52379">
        <ele>291</ele>
        <time>2018-02-20T13:42:08.000Z</time>
      </trkpt>
      <trkpt lat="43.52427" lon="5.52378">
        <ele>291</ele>
        <time>2018-02-20T13:42:09.000Z</time>
      </trkpt>
      <trkpt lat="43.52427" lon="5.52377">
        <ele>291</ele>
        <time>2018-02-20T13:42:10.000Z</time>
      </trkpt>
      <trkpt lat="43.52427" lon="5.52376">
        <ele>291</ele>
        <time>2018-02-20T13:42:11.000Z</time>
      </trkpt>
      <trkpt lat="43.52428" lon="5.52375">
        <ele>291</ele>
        <time>2018-02-20T13:42:12.000Z</time>
      </trkpt>
      <trkpt lat="43.52428" lon="5.52374">
        <ele>290</ele>
        <time>2018-02-20T13:42:13.000Z</time>
      </trkpt>
      <trkpt lat="43.52428" lon="5.52373">
        <ele>290</ele>
        <time>2018-02-20T13:42:14.000Z</time>
      </trkpt>
      <trkpt lat="43.52428" lon="5.52372">
        <ele>290</ele>
        <time>2018-02-20T13:42:15.000Z</time>
      </trkpt>
      <trkpt lat="43.52427" lon="5.52372">
        <ele>290</ele>
        <time>2018-02-20T13:42:16.000Z</time>
      </trkpt>
      <trkpt lat="43.52426" lon="5.52371">
        <ele>290</ele>
        <time>2018-02-20T13:42:17.000Z</time>
      </trkpt>
      <trkpt lat="43.52425" lon="5.52371">
        <ele>290</ele>
        <time>2018-02-20T13:42:18.000Z</time>
      </trkpt>
      <trkpt lat="43.52424" lon="5.52371">
        <ele>290</ele>
        <time>2018-02-20T13:42:19.000Z</time>
      </trkpt>
      <trkpt lat="43.52423" lon="5.52371">
        <ele>290</ele>
        <time>2018-02-20T13:42:20.000Z</time>
      </trkpt>
      <trkpt lat="43.52422" lon="5.52371">
        <ele>290</ele>
        <time>2018-02-20T13:42:21.000Z</time>
      </trkpt>
      <trkpt lat="43.52421" lon="5.52371">
        <ele>290</ele>
        <time>2018-02-20T13:42:22.000Z</time>
      </trkpt>
      <trkpt lat="43.52421" lon="5.52371">
        <ele>290</ele>
        <time>2018-02-20T13:42:23.000Z</time>
      </trkpt>
      <trkpt lat="43.5242" lon="5.52371">
        <ele>290</ele>
        <time>2018-02-20T13:42:24.000Z</time>
      </trkpt>
      <trkpt lat="43.52419" lon="5.52371">
        <ele>290</ele>
        <time>2018-02-20T13:42:25.000Z</time>
      </trkpt>
      <trkpt lat="43.52419" lon="5.5237">
        <ele>290</ele>
        <time>2018-02-20T13:42:26.000Z</time>
      </trkpt>
      <trkpt lat="43.52419" lon="5.52369">
        <ele>290</ele>
        <time>2018-02-20T13:42:27.000Z</time>
      </trkpt>
      <trkpt lat="43.52418" lon="5.52369">
        <ele>289</ele>
        <time>2018-02-20T13:42:28.000Z</time>
      </trkpt>
      <trkpt lat="43.52418" lon="5.52369">
        <ele>289</ele>
        <time>2018-02-20T13:42:29.000Z</time>
      </trkpt>
      <trkpt lat="43.52418" lon="5.52368">
        <ele>289</ele>
        <time>2018-02-20T13:42:30.000Z</time>
      </trkpt>
      <trkpt lat="43.52419" lon="5.52368">
        <ele>289</ele>
        <time>2018-02-20T13:42:31.000Z</time>
      </trkpt>
      <trkpt lat="43.52419" lon="5.52368">
        <ele>289</ele>
        <time>2018-02-20T13:42:32.000Z</time>
      </trkpt>
      <trkpt lat="43.52419" lon="5.52369">
        <ele>289</ele>
        <time>2018-02-20T13:42:33.000Z</time>
      </trkpt>
      <trkpt lat="43.5242" lon="5.52369">
        <ele>289</ele>
        <time>2018-02-20T13:42:34.000Z</time>
      </trkpt>
      <trkpt lat="43.5242" lon="5.52369">
        <ele>289</ele>
        <time>2018-02-20T13:42:35.000Z</time>
      </trkpt>
      <trkpt lat="43.52421" lon="5.52369">
        <ele>289</ele>
        <time>2018-02-20T13:42:36.000Z</time>
      </trkpt>
      <trkpt lat="43.52421" lon="5.52369">
        <ele>289</ele>
        <time>2018-02-20T13:42:37.000Z</time>
      </trkpt>
      <trkpt lat="43.52421" lon="5.52369">
        <ele>289</ele>
        <time>2018-02-20T13:42:38.000Z</time>
      </trkpt>
      <trkpt lat="43.52422" lon="5.52368">
        <ele>289</ele>
        <time>2018-02-20T13:42:39.000Z</time>
      </trkpt>
      <trkpt lat="43.52422" lon="5.52368">
        <ele>289</ele>
        <time>2018-02-20T13:42:40.000Z</time>
      </trkpt>
      <trkpt lat="43.52422" lon="5.52368">
        <ele>289</ele>
        <time>2018-02-20T13:42:41.000Z</time>
      </trkpt>
      <trkpt lat="43.52423" lon="5.52368">
        <ele>289</ele>
        <time>2018-02-20T13:42:42.000Z</time>
      </trkpt>
      <trkpt lat="43.52423" lon="5.52368">
        <ele>289</ele>
        <time>2018-02-20T13:42:43.000Z</time>
      </trkpt>
      <trkpt lat="43.52424" lon="5.52368">
        <ele>289</ele>
        <time>2018-02-20T13:42:44.000Z</time>
      </trkpt>
      <trkpt lat="43.52424" lon="5.52368">
        <ele>288</ele>
        <time>2018-02-20T13:42:45.000Z</time>
      </trkpt>
      <trkpt lat="43.52424" lon="5.52367">
        <ele>288</ele>
        <time>2018-02-20T13:42:46.000Z</time>
      </trkpt>
      <trkpt lat="43.52424" lon="5.52367">
        <ele>288</ele>
        <time>2018-02-20T13:42:47.000Z</time>
      </trkpt>
      <trkpt lat="43.52425" lon="5.52367">
        <ele>288</ele>
        <time>2018-02-20T13:42:48.000Z</time>
      </trkpt>
      <trkpt lat="43.52425" lon="5.52367">
        <ele>288</ele>
        <time>2018-02-20T13:42:49.000Z</time>
      </trkpt>
      <trkpt lat="43.52425" lon="5.52367">
        <ele>288</ele>
        <time>2018-02-20T13:42:50.000Z</time>
      </trkpt>
      <trkpt lat="43.52425" lon="5.52367">
        <ele>288</ele>
        <time>2018-02-20T13:42:51.000Z</time>
      </trkpt>
      <trkpt lat="43.52426" lon="5.52366">
        <ele>288</ele>
        <time>2018-02-20T13:42:52.000Z</time>
      </trkpt>
      <trkpt lat="43.52426" lon="5.52366">
        <ele>288</ele>
        <time>2018-02-20T13:42:53.000Z</time>
      </trkpt>
      <trkpt lat="43.52426" lon="5.52365">
        <ele>288</ele>
        <time>2018-02-20T13:42:54.000Z</time>
      </trkpt>
      <trkpt lat="43.52426" lon="5.52365">
        <ele>288</ele>
        <time>2018-02-20T13:42:55.000Z</time>
      </trkpt>
      <trkpt lat="43.52427" lon="5.52365">
        <ele>288</ele>
        <time>2018-02-20T13:42:56.000Z</time>
      </trkpt>
      <trkpt lat="43.52427" lon="5.52365">
        <ele>288</ele>
        <time>2018-02-20T13:42:57.000Z</time>
      </trkpt>
      <trkpt lat="43.52428" lon="5.52365">
        <ele>288</ele>
        <time>2018-02-20T13:42:58.000Z</time>
      </trkpt>
      <trkpt lat="43.52428" lon="5.52364">
        <ele>288</ele>
        <time>2018-02-20T13:42:59.000Z</time>
      </trkpt>
      <trkpt lat="43.52428" lon="5.52364">
        <ele>288</ele>
        <time>2018-02-20T13:43:00.000Z</time>
      </trkpt>
      <trkpt lat="43.52429" lon="5.52363">
        <ele>288</ele>
        <time>2018-02-20T13:43:01.000Z</time>
      </trkpt>
      <trkpt lat="43.52429" lon="5.52363">
        <ele>288</ele>
        <time>2018-02-20T13:43:02.000Z</time>
      </trkpt>
      <trkpt lat="43.52429" lon="5.52363">
        <ele>288</ele>
        <time>2018-02-20T13:43:03.000Z</time>
      </trkpt>
      <trkpt lat="43.52429" lon="5.52363">
        <ele>288</ele>
        <time>2018-02-20T13:43:04.000Z</time>
      </trkpt>
      <trkpt lat="43.52429" lon="5.52362">
        <ele>288</ele>
        <time>2018-02-20T13:43:05.000Z</time>
      </trkpt>
      <trkpt lat="43.52429" lon="5.52362">
        <ele>288</ele>
        <time>2018-02-20T13:43:06.000Z</time>
      </trkpt>
      <trkpt lat="43.52429" lon="5.52362">
        <ele>288</ele>
        <time>2018-02-20T13:43:07.000Z</time>
      </trkpt>
      <trkpt lat="43.52429" lon="5.52361">
        <ele>288</ele>
        <time>2018-02-20T13:43:08.000Z</time>
      </trkpt>
      <trkpt lat="43.5243" lon="5.52361">
        <ele>288</ele>
        <time>2018-02-20T13:43:09.000Z</time>
      </trkpt>
      <trkpt lat="43.52431" lon="5.52361">
        <ele>288</ele>
        <time>2018-02-20T13:43:10.000Z</time>
      </trkpt>
      <trkpt lat="43.52431" lon="5.5236">
        <ele>288</ele>
        <time>2018-02-20T13:43:11.000Z</time>
      </trkpt>
      <trkpt lat="43.52432" lon="5.5236">
        <ele>289</ele>
        <time>2018-02-20T13:43:12.000Z</time>
      </trkpt>
      <trkpt lat="43.52432" lon="5.5236">
        <ele>289</ele>
        <time>2018-02-20T13:43:13.000Z</time>
      </trkpt>
      <trkpt lat="43.52433" lon="5.52359">
        <ele>289</ele>
        <time>2018-02-20T13:43:14.000Z</time>
      </trkpt>
      <trkpt lat="43.52433" lon="5.52359">
        <ele>289</ele>
        <time>2018-02-20T13:43:15.000Z</time>
      </trkpt>
      <trkpt lat="43.52434" lon="5.52359">
        <ele>289</ele>
        <time>2018-02-20T13:43:16.000Z</time>
      </trkpt>
      <trkpt lat="43.52434" lon="5.52358">
        <ele>289</ele>
        <time>2018-02-20T13:43:17.000Z</time>
      </trkpt>
      <trkpt lat="43.52434" lon="5.52358">
        <ele>289</ele>
        <time>2018-02-20T13:43:18.000Z</time>
      </trkpt>
      <trkpt lat="43.52434" lon="5.52357">
        <ele>289</ele>
        <time>2018-02-20T13:43:19.000Z</time>
      </trkpt>
      <trkpt lat="43.52435" lon="5.52356">
        <ele>289</ele>
        <time>2018-02-20T13:43:20.000Z</time>
      </trkpt>
      <trkpt lat="43.52435" lon="5.52356">
        <ele>289</ele>
        <time>2018-02-20T13:43:21.000Z</time>
      </trkpt>
      <trkpt lat="43.52435" lon="5.52355">
        <ele>289</ele>
        <time>2018-02-20T13:43:22.000Z</time>
      </trkpt>
      <trkpt lat="43.52435" lon="5.52355">
        <ele>289</ele>
        <time>2018-02-20T13:43:23.000Z</time>
      </trkpt>
      <trkpt lat="43.52435" lon="5.52354">
        <ele>289</ele>
        <time>2018-02-20T13:43:24.000Z</time>
      </trkpt>
      <trkpt lat="43.52435" lon="5.52354">
        <ele>289</ele>
        <time>2018-02-20T13:43:25.000Z</time>
      </trkpt>
      <trkpt lat="43.52435" lon="5.52354">
        <ele>289</ele>
        <time>2018-02-20T13:43:26.000Z</time>
      </trkpt>
      <trkpt lat="43.52435" lon="5.52354">
        <ele>289</ele>
        <time>2018-02-20T13:43:27.000Z</time>
      </trkpt>
      <trkpt lat="43.52435" lon="5.52353">
        <ele>289</ele>
        <time>2018-02-20T13:43:28.000Z</time>
      </trkpt>
      <trkpt lat="43.52435" lon="5.52353">
        <ele>289</ele>
        <time>2018-02-20T13:43:29.000Z</time>
      </trkpt>
      <trkpt lat="43.52434" lon="5.52352">
        <ele>288</ele>
        <time>2018-02-20T13:43:30.000Z</time>
      </trkpt>
      <trkpt lat="43.52434" lon="5.52351">
        <ele>288</ele>
        <time>2018-02-20T13:43:31.000Z</time>
      </trkpt>
      <trkpt lat="43.52433" lon="5.5235">
        <ele>288</ele>
        <time>2018-02-20T13:43:32.000Z</time>
      </trkpt>
      <trkpt lat="43.52433" lon="5.52349">
        <ele>288</ele>
        <time>2018-02-20T13:43:33.000Z</time>
      </trkpt>
      <trkpt lat="43.52432" lon="5.52348">
        <ele>288</ele>
        <time>2018-02-20T13:43:34.000Z</time>
      </trkpt>
      <trkpt lat="43.52432" lon="5.52347">
        <ele>288</ele>
        <time>2018-02-20T13:43:35.000Z</time>
      </trkpt>
      <trkpt lat="43.52432" lon="5.52346">
        <ele>288</ele>
        <time>2018-02-20T13:43:36.000Z</time>
      </trkpt>
      <trkpt lat="43.52432" lon="5.52345">
        <ele>288</ele>
        <time>2018-02-20T13:43:37.000Z</time>
      </trkpt>
      <trkpt lat="43.52432" lon="5.52344">
        <ele>288</ele>
        <time>2018-02-20T13:43:38.000Z</time>
      </trkpt>
      <trkpt lat="43.52433" lon="5.52343">
        <ele>287</ele>
        <time>2018-02-20T13:43:39.000Z</time>
      </trkpt>
      <trkpt lat="43.52433" lon="5.52342">
        <ele>287</ele>
        <time>2018-02-20T13:43:40.000Z</time>
      </trkpt>
      <trkpt lat="43.52433" lon="5.52341">
        <ele>287</ele>
        <time>2018-02-20T13:43:41.000Z</time>
      </trkpt>
      <trkpt lat="43.52432" lon="5.5234">
        <ele>287</ele>
        <time>2018-02-20T13:43:42.000Z</time>
      </trkpt>
      <trkpt lat="43.52432" lon="5.52338">
        <ele>287</ele>
        <time>2018-02-20T13:43:43.000Z</time>
      </trkpt>
      <trkpt lat="43.52432" lon="5.52337">
        <ele>286</ele>
        <time>2018-02-20T13:43:44.000Z</time>
      </trkpt>
      <trkpt lat="43.52432" lon="5.52336">
        <ele>286</ele>
        <time>2018-02-20T13:43:45.000Z</time>
      </trkpt>
      <trkpt lat="43.52433" lon="5.52335">
        <ele>286</ele>
        <time>2018-02-20T13:43:46.000Z</time>
      </trkpt>
      <trkpt lat="43.52433" lon="5.52335">
        <ele>286</ele>
        <time>2018-02-20T13:43:47.000Z</time>
      </trkpt>
      <trkpt lat="43.52433" lon="5.52334">
        <ele>286</ele>
        <time>2018-02-20T13:43:48.000Z</time>
      </trkpt>
      <trkpt lat="43.52433" lon="5.52333">
        <ele>286</ele>
        <time>2018-02-20T13:43:49.000Z</time>
      </trkpt>
      <trkpt lat="43.52433" lon="5.52332">
        <ele>285</ele>
        <time>2018-02-20T13:43:50.000Z</time>
      </trkpt>
      <trkpt lat="43.52433" lon="5.52331">
        <ele>285</ele>
        <time>2018-02-20T13:43:51.000Z</time>
      </trkpt>
      <trkpt lat="43.52433" lon="5.52331">
        <ele>285</ele>
        <time>2018-02-20T13:43:52.000Z</time>
      </trkpt>
      <trkpt lat="43.52434" lon="5.5233">
        <ele>285</ele>
        <time>2018-02-20T13:43:53.000Z</time>
      </trkpt>
      <trkpt lat="43.52434" lon="5.52329">
        <ele>284</ele>
        <time>2018-02-20T13:43:54.000Z</time>
      </trkpt>
      <trkpt lat="43.52433" lon="5.52329">
        <ele>284</ele>
        <time>2018-02-20T13:43:55.000Z</time>
      </trkpt>
      <trkpt lat="43.52434" lon="5.52328">
        <ele>284</ele>
        <time>2018-02-20T13:43:56.000Z</time>
      </trkpt>
      <trkpt lat="43.52434" lon="5.52328">
        <ele>284</ele>
        <time>2018-02-20T13:43:57.000Z</time>
      </trkpt>
      <trkpt lat="43.52434" lon="5.52327">
        <ele>283</ele>
        <time>2018-02-20T13:43:58.000Z</time>
      </trkpt>
      <trkpt lat="43.52434" lon="5.52326">
        <ele>283</ele>
        <time>2018-02-20T13:43:59.000Z</time>
      </trkpt>
      <trkpt lat="43.52434" lon="5.52326">
        <ele>283</ele>
        <time>2018-02-20T13:44:00.000Z</time>
      </trkpt>
      <trkpt lat="43.52435" lon="5.52325">
        <ele>282</ele>
        <time>2018-02-20T13:44:01.000Z</time>
      </trkpt>
      <trkpt lat="43.52435" lon="5.52323">
        <ele>282</ele>
        <time>2018-02-20T13:44:02.000Z</time>
      </trkpt>
      <trkpt lat="43.52436" lon="5.52322">
        <ele>282</ele>
        <time>2018-02-20T13:44:03.000Z</time>
      </trkpt>
      <trkpt lat="43.52436" lon="5.52321">
        <ele>281</ele>
        <time>2018-02-20T13:44:04.000Z</time>
      </trkpt>
      <trkpt lat="43.52436" lon="5.5232">
        <ele>281</ele>
        <time>2018-02-20T13:44:05.000Z</time>
      </trkpt>
      <trkpt lat="43.52436" lon="5.52319">
        <ele>281</ele>
        <time>2018-02-20T13:44:06.000Z</time>
      </trkpt>
      <trkpt lat="43.52436" lon="5.52318">
        <ele>281</ele>
        <time>2018-02-20T13:44:07.000Z</time>
      </trkpt>
      <trkpt lat="43.52436" lon="5.52317">
        <ele>281</ele>
        <time>2018-02-20T13:44:08.000Z</time>
      </trkpt>
      <trkpt lat="43.52436" lon="5.52317">
        <ele>281</ele>
        <time>2018-02-20T13:44:09.000Z</time>
      </trkpt>
      <trkpt lat="43.52436" lon="5.52316">
        <ele>281</ele>
        <time>2018-02-20T13:44:10.000Z</time>
      </trkpt>
      <trkpt lat="43.52436" lon="5.52315">
        <ele>281</ele>
        <time>2018-02-20T13:44:11.000Z</time>
      </trkpt>
      <trkpt lat="43.52437" lon="5.52313">
        <ele>281</ele>
        <time>2018-02-20T13:44:12.000Z</time>
      </trkpt>
      <trkpt lat="43.52437" lon="5.52312">
        <ele>280</ele>
        <time>2018-02-20T13:44:13.000Z</time>
      </trkpt>
      <trkpt lat="43.52437" lon="5.52311">
        <ele>280</ele>
        <time>2018-02-20T13:44:14.000Z</time>
      </trkpt>
      <trkpt lat="43.52437" lon="5.5231">
        <ele>280</ele>
        <time>2018-02-20T13:44:15.000Z</time>
      </trkpt>
      <trkpt lat="43.52437" lon="5.52309">
        <ele>280</ele>
        <time>2018-02-20T13:44:16.000Z</time>
      </trkpt>
      <trkpt lat="43.52437" lon="5.52308">
        <ele>280</ele>
        <time>2018-02-20T13:44:17.000Z</time>
      </trkpt>
      <trkpt lat="43.52437" lon="5.52306">
        <ele>280</ele>
        <time>2018-02-20T13:44:18.000Z</time>
      </trkpt>
      <trkpt lat="43.52437" lon="5.52305">
        <ele>280</ele>
        <time>2018-02-20T13:44:19.000Z</time>
      </trkpt>
      <trkpt lat="43.52438" lon="5.52304">
        <ele>279</ele>
        <time>2018-02-20T13:44:20.000Z</time>
      </trkpt>
      <trkpt lat="43.52438" lon="5.52303">
        <ele>279</ele>
        <time>2018-02-20T13:44:21.000Z</time>
      </trkpt>
      <trkpt lat="43.52438" lon="5.52301">
        <ele>279</ele>
        <time>2018-02-20T13:44:22.000Z</time>
      </trkpt>
      <trkpt lat="43.52438" lon="5.52299">
        <ele>279</ele>
        <time>2018-02-20T13:44:23.000Z</time>
      </trkpt>
      <trkpt lat="43.52438" lon="5.52298">
        <ele>279</ele>
        <time>2018-02-20T13:44:24.000Z</time>
      </trkpt>
      <trkpt lat="43.52438" lon="5.52296">
        <ele>279</ele>
        <time>2018-02-20T13:44:25.000Z</time>
      </trkpt>
      <trkpt lat="43.52438" lon="5.52295">
        <ele>279</ele>
        <time>2018-02-20T13:44:26.000Z</time>
      </trkpt>
      <trkpt lat="43.52439" lon="5.52293">
        <ele>278</ele>
        <time>2018-02-20T13:44:27.000Z</time>
      </trkpt>
      <trkpt lat="43.52438" lon="5.52292">
        <ele>278</ele>
        <time>2018-02-20T13:44:28.000Z</time>
      </trkpt>
      <trkpt lat="43.52439" lon="5.52291">
        <ele>278</ele>
        <time>2018-02-20T13:44:29.000Z</time>
      </trkpt>
      <trkpt lat="43.52439" lon="5.52289">
        <ele>278</ele>
        <time>2018-02-20T13:44:30.000Z</time>
      </trkpt>
      <trkpt lat="43.52439" lon="5.52288">
        <ele>277</ele>
        <time>2018-02-20T13:44:31.000Z</time>
      </trkpt>
      <trkpt lat="43.52439" lon="5.52286">
        <ele>277</ele>
        <time>2018-02-20T13:44:32.000Z</time>
      </trkpt>
      <trkpt lat="43.5244" lon="5.52285">
        <ele>277</ele>
        <time>2018-02-20T13:44:33.000Z</time>
      </trkpt>
      <trkpt lat="43.52441" lon="5.52285">
        <ele>277</ele>
        <time>2018-02-20T13:44:34.000Z</time>
      </trkpt>
      <trkpt lat="43.52441" lon="5.52284">
        <ele>276</ele>
        <time>2018-02-20T13:44:35.000Z</time>
      </trkpt>
      <trkpt lat="43.52442" lon="5.52283">
        <ele>276</ele>
        <time>2018-02-20T13:44:36.000Z</time>
      </trkpt>
      <trkpt lat="43.52442" lon="5.52281">
        <ele>276</ele>
        <time>2018-02-20T13:44:37.000Z</time>
      </trkpt>
      <trkpt lat="43.52442" lon="5.52279">
        <ele>276</ele>
        <time>2018-02-20T13:44:38.000Z</time>
      </trkpt>
      <trkpt lat="43.52442" lon="5.52278">
        <ele>276</ele>
        <time>2018-02-20T13:44:39.000Z</time>
      </trkpt>
      <trkpt lat="43.52443" lon="5.52276">
        <ele>275</ele>
        <time>2018-02-20T13:44:40.000Z</time>
      </trkpt>
      <trkpt lat="43.52444" lon="5.52275">
        <ele>275</ele>
        <time>2018-02-20T13:44:41.000Z</time>
      </trkpt>
      <trkpt lat="43.52444" lon="5.52274">
        <ele>275</ele>
        <time>2018-02-20T13:44:42.000Z</time>
      </trkpt>
      <trkpt lat="43.52444" lon="5.52273">
        <ele>275</ele>
        <time>2018-02-20T13:44:43.000Z</time>
      </trkpt>
      <trkpt lat="43.52445" lon="5.52272">
        <ele>275</ele>
        <time>2018-02-20T13:44:44.000Z</time>
      </trkpt>
      <trkpt lat="43.52446" lon="5.52271">
        <ele>274</ele>
        <time>2018-02-20T13:44:45.000Z</time>
      </trkpt>
      <trkpt lat="43.52446" lon="5.52271">
        <ele>274</ele>
        <time>2018-02-20T13:44:46.000Z</time>
      </trkpt>
      <trkpt lat="43.52446" lon="5.5227">
        <ele>274</ele>
        <time>2018-02-20T13:44:47.000Z</time>
      </trkpt>
      <trkpt lat="43.52447" lon="5.52269">
        <ele>274</ele>
        <time>2018-02-20T13:44:48.000Z</time>
      </trkpt>
      <trkpt lat="43.52447" lon="5.52268">
        <ele>273</ele>
        <time>2018-02-20T13:44:49.000Z</time>
      </trkpt>
      <trkpt lat="43.52448" lon="5.52267">
        <ele>273</ele>
        <time>2018-02-20T13:44:50.000Z</time>
      </trkpt>
      <trkpt lat="43.52448" lon="5.52266">
        <ele>273</ele>
        <time>2018-02-20T13:44:51.000Z</time>
      </trkpt>
      <trkpt lat="43.52448" lon="5.52265">
        <ele>273</ele>
        <time>2018-02-20T13:44:52.000Z</time>
      </trkpt>
      <trkpt lat="43.52449" lon="5.52264">
        <ele>273</ele>
        <time>2018-02-20T13:44:53.000Z</time>
      </trkpt>
      <trkpt lat="43.52449" lon="5.52262">
        <ele>273</ele>
        <time>2018-02-20T13:44:54.000Z</time>
      </trkpt>
      <trkpt lat="43.52449" lon="5.52261">
        <ele>273</ele>
        <time>2018-02-20T13:44:55.000Z</time>
      </trkpt>
      <trkpt lat="43.52449" lon="5.5226">
        <ele>272</ele>
        <time>2018-02-20T13:44:56.000Z</time>
      </trkpt>
      <trkpt lat="43.5245" lon="5.52259">
        <ele>272</ele>
        <time>2018-02-20T13:44:57.000Z</time>
      </trkpt>
      <trkpt lat="43.5245" lon="5.52258">
        <ele>272</ele>
        <time>2018-02-20T13:44:58.000Z</time>
      </trkpt>
      <trkpt lat="43.5245" lon="5.52256">
        <ele>272</ele>
        <time>2018-02-20T13:44:59.000Z</time>
      </trkpt>
      <trkpt lat="43.5245" lon="5.52255">
        <ele>272</ele>
        <time>2018-02-20T13:45:00.000Z</time>
      </trkpt>
      <trkpt lat="43.5245" lon="5.52254">
        <ele>272</ele>
        <time>2018-02-20T13:45:01.000Z</time>
      </trkpt>
      <trkpt lat="43.5245" lon="5.52253">
        <ele>272</ele>
        <time>2018-02-20T13:45:02.000Z</time>
      </trkpt>
      <trkpt lat="43.5245" lon="5.52251">
        <ele>271</ele>
        <time>2018-02-20T13:45:03.000Z</time>
      </trkpt>
      <trkpt lat="43.5245" lon="5.5225">
        <ele>271</ele>
        <time>2018-02-20T13:45:04.000Z</time>
      </trkpt>
      <trkpt lat="43.5245" lon="5.52249">
        <ele>271</ele>
        <time>2018-02-20T13:45:05.000Z</time>
      </trkpt>
      <trkpt lat="43.52451" lon="5.52248">
        <ele>271</ele>
        <time>2018-02-20T13:45:06.000Z</time>
      </trkpt>
      <trkpt lat="43.52451" lon="5.52247">
        <ele>271</ele>
        <time>2018-02-20T13:45:07.000Z</time>
      </trkpt>
      <trkpt lat="43.52452" lon="5.52245">
        <ele>271</ele>
        <time>2018-02-20T13:45:08.000Z</time>
      </trkpt>
      <trkpt lat="43.52453" lon="5.52244">
        <ele>271</ele>
        <time>2018-02-20T13:45:09.000Z</time>
      </trkpt>
      <trkpt lat="43.52453" lon="5.52244">
        <ele>271</ele>
        <time>2018-02-20T13:45:10.000Z</time>
      </trkpt>
      <trkpt lat="43.52454" lon="5.52243">
        <ele>271</ele>
        <time>2018-02-20T13:45:11.000Z</time>
      </trkpt>
      <trkpt lat="43.52454" lon="5.52241">
        <ele>271</ele>
        <time>2018-02-20T13:45:12.000Z</time>
      </trkpt>
      <trkpt lat="43.52454" lon="5.5224">
        <ele>270</ele>
        <time>2018-02-20T13:45:13.000Z</time>
      </trkpt>
      <trkpt lat="43.52454" lon="5.52239">
        <ele>270</ele>
        <time>2018-02-20T13:45:14.000Z</time>
      </trkpt>
      <trkpt lat="43.52454" lon="5.52237">
        <ele>270</ele>
        <time>2018-02-20T13:45:15.000Z</time>
      </trkpt>
      <trkpt lat="43.52454" lon="5.52236">
        <ele>270</ele>
        <time>2018-02-20T13:45:16.000Z</time>
      </trkpt>
      <trkpt lat="43.52454" lon="5.52235">
        <ele>270</ele>
        <time>2018-02-20T13:45:17.000Z</time>
      </trkpt>
      <trkpt lat="43.52453" lon="5.52234">
        <ele>269</ele>
        <time>2018-02-20T13:45:18.000Z</time>
      </trkpt>
      <trkpt lat="43.52453" lon="5.52233">
        <ele>269</ele>
        <time>2018-02-20T13:45:19.000Z</time>
      </trkpt>
      <trkpt lat="43.52452" lon="5.52233">
        <ele>269</ele>
        <time>2018-02-20T13:45:20.000Z</time>
      </trkpt>
      <trkpt lat="43.52452" lon="5.52232">
        <ele>269</ele>
        <time>2018-02-20T13:45:21.000Z</time>
      </trkpt>
      <trkpt lat="43.52452" lon="5.52231">
        <ele>268</ele>
        <time>2018-02-20T13:45:22.000Z</time>
      </trkpt>
      <trkpt lat="43.52452" lon="5.5223">
        <ele>268</ele>
        <time>2018-02-20T13:45:23.000Z</time>
      </trkpt>
      <trkpt lat="43.52452" lon="5.52229">
        <ele>268</ele>
        <time>2018-02-20T13:45:24.000Z</time>
      </trkpt>
      <trkpt lat="43.52451" lon="5.52228">
        <ele>268</ele>
        <time>2018-02-20T13:45:25.000Z</time>
      </trkpt>
      <trkpt lat="43.52451" lon="5.52227">
        <ele>268</ele>
        <time>2018-02-20T13:45:26.000Z</time>
      </trkpt>
      <trkpt lat="43.52451" lon="5.52226">
        <ele>267</ele>
        <time>2018-02-20T13:45:27.000Z</time>
      </trkpt>
      <trkpt lat="43.5245" lon="5.52225">
        <ele>267</ele>
        <time>2018-02-20T13:45:28.000Z</time>
      </trkpt>
      <trkpt lat="43.5245" lon="5.52224">
        <ele>267</ele>
        <time>2018-02-20T13:45:29.000Z</time>
      </trkpt>
      <trkpt lat="43.52449" lon="5.52222">
        <ele>267</ele>
        <time>2018-02-20T13:45:30.000Z</time>
      </trkpt>
      <trkpt lat="43.52449" lon="5.52222">
        <ele>267</ele>
        <time>2018-02-20T13:45:31.000Z</time>
      </trkpt>
      <trkpt lat="43.52448" lon="5.52221">
        <ele>267</ele>
        <time>2018-02-20T13:45:32.000Z</time>
      </trkpt>
      <trkpt lat="43.52447" lon="5.52221">
        <ele>266</ele>
        <time>2018-02-20T13:45:33.000Z</time>
      </trkpt>
      <trkpt lat="43.52446" lon="5.5222">
        <ele>266</ele>
        <time>2018-02-20T13:45:34.000Z</time>
      </trkpt>
      <trkpt lat="43.52446" lon="5.52219">
        <ele>266</ele>
        <time>2018-02-20T13:45:35.000Z</time>
      </trkpt>
      <trkpt lat="43.52446" lon="5.52218">
        <ele>266</ele>
        <time>2018-02-20T13:45:36.000Z</time>
      </trkpt>
      <trkpt lat="43.52446" lon="5.52217">
        <ele>266</ele>
        <time>2018-02-20T13:45:37.000Z</time>
      </trkpt>
      <trkpt lat="43.52445" lon="5.52216">
        <ele>266</ele>
        <time>2018-02-20T13:45:38.000Z</time>
      </trkpt>
      <trkpt lat="43.52445" lon="5.52215">
        <ele>265</ele>
        <time>2018-02-20T13:45:39.000Z</time>
      </trkpt>
      <trkpt lat="43.52445" lon="5.52214">
        <ele>265</ele>
        <time>2018-02-20T13:45:40.000Z</time>
      </trkpt>
      <trkpt lat="43.52445" lon="5.52213">
        <ele>265</ele>
        <time>2018-02-20T13:45:41.000Z</time>
      </trkpt>
      <trkpt lat="43.52444" lon="5.52212">
        <ele>265</ele>
        <time>2018-02-20T13:45:42.000Z</time>
      </trkpt>
      <trkpt lat="43.52444" lon="5.5221">
        <ele>265</ele>
        <time>2018-02-20T13:45:43.000Z</time>
      </trkpt>
      <trkpt lat="43.52443" lon="5.52209">
        <ele>265</ele>
        <time>2018-02-20T13:45:44.000Z</time>
      </trkpt>
      <trkpt lat="43.52443" lon="5.52207">
        <ele>265</ele>
        <time>2018-02-20T13:45:45.000Z</time>
      </trkpt>
      <trkpt lat="43.52442" lon="5.52206">
        <ele>265</ele>
        <time>2018-02-20T13:45:46.000Z</time>
      </trkpt>
      <trkpt lat="43.52442" lon="5.52204">
        <ele>265</ele>
        <time>2018-02-20T13:45:47.000Z</time>
      </trkpt>
      <trkpt lat="43.52442" lon="5.52203">
        <ele>265</ele>
        <time>2018-02-20T13:45:48.000Z</time>
      </trkpt>
      <trkpt lat="43.52442" lon="5.52202">
        <ele>265</ele>
        <time>2018-02-20T13:45:49.000Z</time>
      </trkpt>
      <trkpt lat="43.52442" lon="5.52201">
        <ele>264</ele>
        <time>2018-02-20T13:45:50.000Z</time>
      </trkpt>
      <trkpt lat="43.52442" lon="5.522">
        <ele>264</ele>
        <time>2018-02-20T13:45:51.000Z</time>
      </trkpt>
      <trkpt lat="43.52442" lon="5.52199">
        <ele>264</ele>
        <time>2018-02-20T13:45:52.000Z</time>
      </trkpt>
      <trkpt lat="43.52442" lon="5.52197">
        <ele>264</ele>
        <time>2018-02-20T13:45:53.000Z</time>
      </trkpt>
      <trkpt lat="43.52442" lon="5.52196">
        <ele>264</ele>
        <time>2018-02-20T13:45:54.000Z</time>
      </trkpt>
      <trkpt lat="43.52442" lon="5.52194">
        <ele>264</ele>
        <time>2018-02-20T13:45:55.000Z</time>
      </trkpt>
      <trkpt lat="43.52443" lon="5.52193">
        <ele>264</ele>
        <time>2018-02-20T13:45:56.000Z</time>
      </trkpt>
      <trkpt lat="43.52444" lon="5.52191">
        <ele>264</ele>
        <time>2018-02-20T13:45:57.000Z</time>
      </trkpt>
      <trkpt lat="43.52445" lon="5.52189">
        <ele>264</ele>
        <time>2018-02-20T13:45:58.000Z</time>
      </trkpt>
      <trkpt lat="43.52446" lon="5.52187">
        <ele>264</ele>
        <time>2018-02-20T13:45:59.000Z</time>
      </trkpt>
      <trkpt lat="43.52447" lon="5.52185">
        <ele>263</ele>
        <time>2018-02-20T13:46:00.000Z</time>
      </trkpt>
      <trkpt lat="43.52447" lon="5.52184">
        <ele>263</ele>
        <time>2018-02-20T13:46:01.000Z</time>
      </trkpt>
      <trkpt lat="43.52448" lon="5.52182">
        <ele>263</ele>
        <time>2018-02-20T13:46:02.000Z</time>
      </trkpt>
      <trkpt lat="43.52448" lon="5.5218">
        <ele>263</ele>
        <time>2018-02-20T13:46:03.000Z</time>
      </trkpt>
      <trkpt lat="43.52448" lon="5.52178">
        <ele>263</ele>
        <time>2018-02-20T13:46:04.000Z</time>
      </trkpt>
      <trkpt lat="43.52448" lon="5.52176">
        <ele>263</ele>
        <time>2018-02-20T13:46:05.000Z</time>
      </trkpt>
      <trkpt lat="43.52448" lon="5.52174">
        <ele>263</ele>
        <time>2018-02-20T13:46:06.000Z</time>
      </trkpt>
      <trkpt lat="43.52448" lon="5.52172">
        <ele>263</ele>
        <time>2018-02-20T13:46:07.000Z</time>
      </trkpt>
      <trkpt lat="43.52447" lon="5.5217">
        <ele>263</ele>
        <time>2018-02-20T13:46:08.000Z</time>
      </trkpt>
      <trkpt lat="43.52448" lon="5.52168">
        <ele>262</ele>
        <time>2018-02-20T13:46:09.000Z</time>
      </trkpt>
      <trkpt lat="43.52448" lon="5.52166">
        <ele>262</ele>
        <time>2018-02-20T13:46:10.000Z</time>
      </trkpt>
      <trkpt lat="43.52449" lon="5.52165">
        <ele>262</ele>
        <time>2018-02-20T13:46:11.000Z</time>
      </trkpt>
      <trkpt lat="43.52449" lon="5.52163">
        <ele>262</ele>
        <time>2018-02-20T13:46:12.000Z</time>
      </trkpt>
      <trkpt lat="43.52449" lon="5.52161">
        <ele>262</ele>
        <time>2018-02-20T13:46:13.000Z</time>
      </trkpt>
      <trkpt lat="43.52449" lon="5.52159">
        <ele>261</ele>
        <time>2018-02-20T13:46:14.000Z</time>
      </trkpt>
      <trkpt lat="43.52449" lon="5.52158">
        <ele>261</ele>
        <time>2018-02-20T13:46:15.000Z</time>
      </trkpt>
      <trkpt lat="43.52449" lon="5.52156">
        <ele>261</ele>
        <time>2018-02-20T13:46:16.000Z</time>
      </trkpt>
      <trkpt lat="43.52449" lon="5.52154">
        <ele>261</ele>
        <time>2018-02-20T13:46:17.000Z</time>
      </trkpt>
      <trkpt lat="43.52449" lon="5.52152">
        <ele>260</ele>
        <time>2018-02-20T13:46:18.000Z</time>
      </trkpt>
      <trkpt lat="43.52449" lon="5.52151">
        <ele>260</ele>
        <time>2018-02-20T13:46:19.000Z</time>
      </trkpt>
      <trkpt lat="43.52449" lon="5.5215">
        <ele>260</ele>
        <time>2018-02-20T13:46:20.000Z</time>
      </trkpt>
      <trkpt lat="43.52449" lon="5.52148">
        <ele>260</ele>
        <time>2018-02-20T13:46:21.000Z</time>
      </trkpt>
      <trkpt lat="43.52449" lon="5.52147">
        <ele>259</ele>
        <time>2018-02-20T13:46:22.000Z</time>
      </trkpt>
      <trkpt lat="43.52449" lon="5.52145">
        <ele>259</ele>
        <time>2018-02-20T13:46:23.000Z</time>
      </trkpt>
      <trkpt lat="43.52449" lon="5.52143">
        <ele>259</ele>
        <time>2018-02-20T13:46:24.000Z</time>
      </trkpt>
      <trkpt lat="43.52449" lon="5.52142">
        <ele>258</ele>
        <time>2018-02-20T13:46:25.000Z</time>
      </trkpt>
      <trkpt lat="43.52449" lon="5.5214">
        <ele>258</ele>
        <time>2018-02-20T13:46:26.000Z</time>
      </trkpt>
      <trkpt lat="43.52448" lon="5.52139">
        <ele>258</ele>
        <time>2018-02-20T13:46:27.000Z</time>
      </trkpt>
      <trkpt lat="43.52448" lon="5.52137">
        <ele>257</ele>
        <time>2018-02-20T13:46:28.000Z</time>
      </trkpt>
      <trkpt lat="43.52448" lon="5.52136">
        <ele>257</ele>
        <time>2018-02-20T13:46:29.000Z</time>
      </trkpt>
      <trkpt lat="43.52448" lon="5.52135">
        <ele>257</ele>
        <time>2018-02-20T13:46:30.000Z</time>
      </trkpt>
      <trkpt lat="43.52448" lon="5.52133">
        <ele>257</ele>
        <time>2018-02-20T13:46:31.000Z</time>
      </trkpt>
      <trkpt lat="43.52447" lon="5.52132">
        <ele>257</ele>
        <time>2018-02-20T13:46:32.000Z</time>
      </trkpt>
      <trkpt lat="43.52447" lon="5.52131">
        <ele>257</ele>
        <time>2018-02-20T13:46:33.000Z</time>
      </trkpt>
      <trkpt lat="43.52447" lon="5.52129">
        <ele>257</ele>
        <time>2018-02-20T13:46:34.000Z</time>
      </trkpt>
      <trkpt lat="43.52447" lon="5.52128">
        <ele>257</ele>
        <time>2018-02-20T13:46:35.000Z</time>
      </trkpt>
      <trkpt lat="43.52447" lon="5.52126">
        <ele>256</ele>
        <time>2018-02-20T13:46:36.000Z</time>
      </trkpt>
      <trkpt lat="43.52447" lon="5.52124">
        <ele>256</ele>
        <time>2018-02-20T13:46:37.000Z</time>
      </trkpt>
      <trkpt lat="43.52447" lon="5.52122">
        <ele>256</ele>
        <time>2018-02-20T13:46:38.000Z</time>
      </trkpt>
      <trkpt lat="43.52447" lon="5.52121">
        <ele>256</ele>
        <time>2018-02-20T13:46:39.000Z</time>
      </trkpt>
      <trkpt lat="43.52448" lon="5.5212">
        <ele>256</ele>
        <time>2018-02-20T13:46:40.000Z</time>
      </trkpt>
      <trkpt lat="43.52448" lon="5.52118">
        <ele>256</ele>
        <time>2018-02-20T13:46:41.000Z</time>
      </trkpt>
      <trkpt lat="43.52448" lon="5.52117">
        <ele>256</ele>
        <time>2018-02-20T13:46:42.000Z</time>
      </trkpt>
      <trkpt lat="43.52448" lon="5.52116">
        <ele>256</ele>
        <time>2018-02-20T13:46:43.000Z</time>
      </trkpt>
      <trkpt lat="43.52448" lon="5.52115">
        <ele>256</ele>
        <time>2018-02-20T13:46:44.000Z</time>
      </trkpt>
      <trkpt lat="43.52447" lon="5.52114">
        <ele>255</ele>
        <time>2018-02-20T13:46:45.000Z</time>
      </trkpt>
      <trkpt lat="43.52447" lon="5.52112">
        <ele>255</ele>
        <time>2018-02-20T13:46:46.000Z</time>
      </trkpt>
      <trkpt lat="43.52447" lon="5.52111">
        <ele>255</ele>
        <time>2018-02-20T13:46:47.000Z</time>
      </trkpt>
      <trkpt lat="43.52447" lon="5.5211">
        <ele>255</ele>
        <time>2018-02-20T13:46:48.000Z</time>
      </trkpt>
      <trkpt lat="43.52447" lon="5.52109">
        <ele>255</ele>
        <time>2018-02-20T13:46:49.000Z</time>
      </trkpt>
      <trkpt lat="43.52447" lon="5.52108">
        <ele>255</ele>
        <time>2018-02-20T13:46:50.000Z</time>
      </trkpt>
      <trkpt lat="43.52447" lon="5.52106">
        <ele>255</ele>
        <time>2018-02-20T13:46:51.000Z</time>
      </trkpt>
      <trkpt lat="43.52447" lon="5.52104">
        <ele>255</ele>
        <time>2018-02-20T13:46:52.000Z</time>
      </trkpt>
      <trkpt lat="43.52448" lon="5.52103">
        <ele>255</ele>
        <time>2018-02-20T13:46:53.000Z</time>
      </trkpt>
      <trkpt lat="43.52448" lon="5.52101">
        <ele>255</ele>
        <time>2018-02-20T13:46:54.000Z</time>
      </trkpt>
      <trkpt lat="43.52449" lon="5.521">
        <ele>255</ele>
        <time>2018-02-20T13:46:55.000Z</time>
      </trkpt>
      <trkpt lat="43.5245" lon="5.52098">
        <ele>255</ele>
        <time>2018-02-20T13:46:56.000Z</time>
      </trkpt>
      <trkpt lat="43.5245" lon="5.52097">
        <ele>255</ele>
        <time>2018-02-20T13:46:57.000Z</time>
      </trkpt>
      <trkpt lat="43.52451" lon="5.52096">
        <ele>255</ele>
        <time>2018-02-20T13:46:58.000Z</time>
      </trkpt>
      <trkpt lat="43.52451" lon="5.52095">
        <ele>255</ele>
        <time>2018-02-20T13:46:59.000Z</time>
      </trkpt>
      <trkpt lat="43.52451" lon="5.52094">
        <ele>255</ele>
        <time>2018-02-20T13:47:00.000Z</time>
      </trkpt>
      <trkpt lat="43.52451" lon="5.52093">
        <ele>255</ele>
        <time>2018-02-20T13:47:01.000Z</time>
      </trkpt>
      <trkpt lat="43.52452" lon="5.52092">
        <ele>255</ele>
        <time>2018-02-20T13:47:02.000Z</time>
      </trkpt>
      <trkpt lat="43.52452" lon="5.52091">
        <ele>255</ele>
        <time>2018-02-20T13:47:03.000Z</time>
      </trkpt>
      <trkpt lat="43.52452" lon="5.5209">
        <ele>255</ele>
        <time>2018-02-20T13:47:04.000Z</time>
      </trkpt>
      <trkpt lat="43.52452" lon="5.52089">
        <ele>255</ele>
        <time>2018-02-20T13:47:05.000Z</time>
      </trkpt>
      <trkpt lat="43.52451" lon="5.52087">
        <ele>255</ele>
        <time>2018-02-20T13:47:06.000Z</time>
      </trkpt>
      <trkpt lat="43.52451" lon="5.52086">
        <ele>255</ele>
        <time>2018-02-20T13:47:07.000Z</time>
      </trkpt>
      <trkpt lat="43.52451" lon="5.52085">
        <ele>255</ele>
        <time>2018-02-20T13:47:08.000Z</time>
      </trkpt>
      <trkpt lat="43.5245" lon="5.52083">
        <ele>255</ele>
        <time>2018-02-20T13:47:09.000Z</time>
      </trkpt>
      <trkpt lat="43.5245" lon="5.52082">
        <ele>255</ele>
        <time>2018-02-20T13:47:10.000Z</time>
      </trkpt>
      <trkpt lat="43.52449" lon="5.52081">
        <ele>255</ele>
        <time>2018-02-20T13:47:11.000Z</time>
      </trkpt>
      <trkpt lat="43.52449" lon="5.5208">
        <ele>255</ele>
        <time>2018-02-20T13:47:12.000Z</time>
      </trkpt>
      <trkpt lat="43.52448" lon="5.52079">
        <ele>254</ele>
        <time>2018-02-20T13:47:13.000Z</time>
      </trkpt>
      <trkpt lat="43.52447" lon="5.52077">
        <ele>254</ele>
        <time>2018-02-20T13:47:14.000Z</time>
      </trkpt>
      <trkpt lat="43.52447" lon="5.52076">
        <ele>254</ele>
        <time>2018-02-20T13:47:15.000Z</time>
      </trkpt>
      <trkpt lat="43.52447" lon="5.52074">
        <ele>253</ele>
        <time>2018-02-20T13:47:16.000Z</time>
      </trkpt>
      <trkpt lat="43.52446" lon="5.52073">
        <ele>253</ele>
        <time>2018-02-20T13:47:17.000Z</time>
      </trkpt>
      <trkpt lat="43.52446" lon="5.52072">
        <ele>253</ele>
        <time>2018-02-20T13:47:18.000Z</time>
      </trkpt>
      <trkpt lat="43.52445" lon="5.52072">
        <ele>252</ele>
        <time>2018-02-20T13:47:19.000Z</time>
      </trkpt>
      <trkpt lat="43.52444" lon="5.52071">
        <ele>252</ele>
        <time>2018-02-20T13:47:20.000Z</time>
      </trkpt>
      <trkpt lat="43.52443" lon="5.5207">
        <ele>251</ele>
        <time>2018-02-20T13:47:21.000Z</time>
      </trkpt>
      <trkpt lat="43.52442" lon="5.5207">
        <ele>251</ele>
        <time>2018-02-20T13:47:22.000Z</time>
      </trkpt>
      <trkpt lat="43.52442" lon="5.52069">
        <ele>251</ele>
        <time>2018-02-20T13:47:23.000Z</time>
      </trkpt>
      <trkpt lat="43.52441" lon="5.52068">
        <ele>250</ele>
        <time>2018-02-20T13:47:24.000Z</time>
      </trkpt>
      <trkpt lat="43.5244" lon="5.52067">
        <ele>250</ele>
        <time>2018-02-20T13:47:25.000Z</time>
      </trkpt>
      <trkpt lat="43.52439" lon="5.52066">
        <ele>249</ele>
        <time>2018-02-20T13:47:26.000Z</time>
      </trkpt>
      <trkpt lat="43.52438" lon="5.52066">
        <ele>249</ele>
        <time>2018-02-20T13:47:27.000Z</time>
      </trkpt>
      <trkpt lat="43.52437" lon="5.52065">
        <ele>249</ele>
        <time>2018-02-20T13:47:28.000Z</time>
      </trkpt>
      <trkpt lat="43.52437" lon="5.52063">
        <ele>248</ele>
        <time>2018-02-20T13:47:29.000Z</time>
      </trkpt>
      <trkpt lat="43.52436" lon="5.52062">
        <ele>248</ele>
        <time>2018-02-20T13:47:30.000Z</time>
      </trkpt>
      <trkpt lat="43.52435" lon="5.52061">
        <ele>248</ele>
        <time>2018-02-20T13:47:31.000Z</time>
      </trkpt>
      <trkpt lat="43.52435" lon="5.5206">
        <ele>248</ele>
        <time>2018-02-20T13:47:32.000Z</time>
      </trkpt>
      <trkpt lat="43.52434" lon="5.52059">
        <ele>247</ele>
        <time>2018-02-20T13:47:33.000Z</time>
      </trkpt>
      <trkpt lat="43.52433" lon="5.52058">
        <ele>247</ele>
        <time>2018-02-20T13:47:34.000Z</time>
      </trkpt>
      <trkpt lat="43.52431" lon="5.52057">
        <ele>247</ele>
        <time>2018-02-20T13:47:35.000Z</time>
      </trkpt>
      <trkpt lat="43.5243" lon="5.52056">
        <ele>247</ele>
        <time>2018-02-20T13:47:36.000Z</time>
      </trkpt>
      <trkpt lat="43.52429" lon="5.52056">
        <ele>247</ele>
        <time>2018-02-20T13:47:37.000Z</time>
      </trkpt>
      <trkpt lat="43.52428" lon="5.52055">
        <ele>246</ele>
        <time>2018-02-20T13:47:38.000Z</time>
      </trkpt>
      <trkpt lat="43.52427" lon="5.52054">
        <ele>246</ele>
        <time>2018-02-20T13:47:39.000Z</time>
      </trkpt>
      <trkpt lat="43.52426" lon="5.52053">
        <ele>246</ele>
        <time>2018-02-20T13:47:40.000Z</time>
      </trkpt>
      <trkpt lat="43.52425" lon="5.52052">
        <ele>246</ele>
        <time>2018-02-20T13:47:41.000Z</time>
      </trkpt>
      <trkpt lat="43.52424" lon="5.52052">
        <ele>245</ele>
        <time>2018-02-20T13:47:42.000Z</time>
      </trkpt>
      <trkpt lat="43.52423" lon="5.5205">
        <ele>245</ele>
        <time>2018-02-20T13:47:43.000Z</time>
      </trkpt>
      <trkpt lat="43.52423" lon="5.52049">
        <ele>245</ele>
        <time>2018-02-20T13:47:44.000Z</time>
      </trkpt>
      <trkpt lat="43.52422" lon="5.52048">
        <ele>245</ele>
        <time>2018-02-20T13:47:45.000Z</time>
      </trkpt>
      <trkpt lat="43.52422" lon="5.52046">
        <ele>244</ele>
        <time>2018-02-20T13:47:46.000Z</time>
      </trkpt>
      <trkpt lat="43.52422" lon="5.52045">
        <ele>244</ele>
        <time>2018-02-20T13:47:47.000Z</time>
      </trkpt>
      <trkpt lat="43.52421" lon="5.52043">
        <ele>244</ele>
        <time>2018-02-20T13:47:48.000Z</time>
      </trkpt>
      <trkpt lat="43.52421" lon="5.52041">
        <ele>244</ele>
        <time>2018-02-20T13:47:49.000Z</time>
      </trkpt>
      <trkpt lat="43.52421" lon="5.5204">
        <ele>244</ele>
        <time>2018-02-20T13:47:50.000Z</time>
      </trkpt>
      <trkpt lat="43.52421" lon="5.52037">
        <ele>244</ele>
        <time>2018-02-20T13:47:51.000Z</time>
      </trkpt>
      <trkpt lat="43.52422" lon="5.52036">
        <ele>244</ele>
        <time>2018-02-20T13:47:52.000Z</time>
      </trkpt>
      <trkpt lat="43.52422" lon="5.52034">
        <ele>244</ele>
        <time>2018-02-20T13:47:53.000Z</time>
      </trkpt>
      <trkpt lat="43.52422" lon="5.52032">
        <ele>244</ele>
        <time>2018-02-20T13:47:54.000Z</time>
      </trkpt>
      <trkpt lat="43.52423" lon="5.5203">
        <ele>244</ele>
        <time>2018-02-20T13:47:55.000Z</time>
      </trkpt>
      <trkpt lat="43.52423" lon="5.52028">
        <ele>244</ele>
        <time>2018-02-20T13:47:56.000Z</time>
      </trkpt>
      <trkpt lat="43.52424" lon="5.52027">
        <ele>244</ele>
        <time>2018-02-20T13:47:57.000Z</time>
      </trkpt>
      <trkpt lat="43.52424" lon="5.52026">
        <ele>244</ele>
        <time>2018-02-20T13:47:58.000Z</time>
      </trkpt>
      <trkpt lat="43.52425" lon="5.52024">
        <ele>244</ele>
        <time>2018-02-20T13:47:59.000Z</time>
      </trkpt>
      <trkpt lat="43.52425" lon="5.52023">
        <ele>244</ele>
        <time>2018-02-20T13:48:00.000Z</time>
      </trkpt>
      <trkpt lat="43.52426" lon="5.52022">
        <ele>244</ele>
        <time>2018-02-20T13:48:01.000Z</time>
      </trkpt>
      <trkpt lat="43.52426" lon="5.52021">
        <ele>244</ele>
        <time>2018-02-20T13:48:02.000Z</time>
      </trkpt>
      <trkpt lat="43.52427" lon="5.5202">
        <ele>244</ele>
        <time>2018-02-20T13:48:03.000Z</time>
      </trkpt>
      <trkpt lat="43.52427" lon="5.52019">
        <ele>244</ele>
        <time>2018-02-20T13:48:04.000Z</time>
      </trkpt>
      <trkpt lat="43.52427" lon="5.52018">
        <ele>244</ele>
        <time>2018-02-20T13:48:05.000Z</time>
      </trkpt>
      <trkpt lat="43.52428" lon="5.52016">
        <ele>244</ele>
        <time>2018-02-20T13:48:06.000Z</time>
      </trkpt>
      <trkpt lat="43.52428" lon="5.52015">
        <ele>245</ele>
        <time>2018-02-20T13:48:07.000Z</time>
      </trkpt>
      <trkpt lat="43.52428" lon="5.52013">
        <ele>245</ele>
        <time>2018-02-20T13:48:08.000Z</time>
      </trkpt>
      <trkpt lat="43.52429" lon="5.52011">
        <ele>245</ele>
        <time>2018-02-20T13:48:09.000Z</time>
      </trkpt>
      <trkpt lat="43.52429" lon="5.5201">
        <ele>245</ele>
        <time>2018-02-20T13:48:10.000Z</time>
      </trkpt>
      <trkpt lat="43.52429" lon="5.52008">
        <ele>245</ele>
        <time>2018-02-20T13:48:11.000Z</time>
      </trkpt>
      <trkpt lat="43.52429" lon="5.52007">
        <ele>245</ele>
        <time>2018-02-20T13:48:12.000Z</time>
      </trkpt>
      <trkpt lat="43.52429" lon="5.52006">
        <ele>245</ele>
        <time>2018-02-20T13:48:13.000Z</time>
      </trkpt>
      <trkpt lat="43.5243" lon="5.52004">
        <ele>245</ele>
        <time>2018-02-20T13:48:14.000Z</time>
      </trkpt>
      <trkpt lat="43.5243" lon="5.52002">
        <ele>245</ele>
        <time>2018-02-20T13:48:15.000Z</time>
      </trkpt>
      <trkpt lat="43.5243" lon="5.52001">
        <ele>245</ele>
        <time>2018-02-20T13:48:16.000Z</time>
      </trkpt>
      <trkpt lat="43.5243" lon="5.52">
        <ele>245</ele>
        <time>2018-02-20T13:48:17.000Z</time>
      </trkpt>
      <trkpt lat="43.5243" lon="5.51998">
        <ele>245</ele>
        <time>2018-02-20T13:48:18.000Z</time>
      </trkpt>
      <trkpt lat="43.5243" lon="5.51996">
        <ele>245</ele>
        <time>2018-02-20T13:48:19.000Z</time>
      </trkpt>
      <trkpt lat="43.5243" lon="5.51995">
        <ele>245</ele>
        <time>2018-02-20T13:48:20.000Z</time>
      </trkpt>
      <trkpt lat="43.5243" lon="5.51993">
        <ele>245</ele>
        <time>2018-02-20T13:48:21.000Z</time>
      </trkpt>
      <trkpt lat="43.5243" lon="5.51992">
        <ele>245</ele>
        <time>2018-02-20T13:48:22.000Z</time>
      </trkpt>
      <trkpt lat="43.5243" lon="5.5199">
        <ele>245</ele>
        <time>2018-02-20T13:48:23.000Z</time>
      </trkpt>
      <trkpt lat="43.5243" lon="5.51988">
        <ele>245</ele>
        <time>2018-02-20T13:48:24.000Z</time>
      </trkpt>
      <trkpt lat="43.5243" lon="5.51986">
        <ele>245</ele>
        <time>2018-02-20T13:48:25.000Z</time>
      </trkpt>
      <trkpt lat="43.52431" lon="5.51985">
        <ele>245</ele>
        <time>2018-02-20T13:48:26.000Z</time>
      </trkpt>
      <trkpt lat="43.52431" lon="5.51983">
        <ele>245</ele>
        <time>2018-02-20T13:48:27.000Z</time>
      </trkpt>
      <trkpt lat="43.52432" lon="5.51982">
        <ele>245</ele>
        <time>2018-02-20T13:48:28.000Z</time>
      </trkpt>
      <trkpt lat="43.52432" lon="5.5198">
        <ele>245</ele>
        <time>2018-02-20T13:48:29.000Z</time>
      </trkpt>
      <trkpt lat="43.52432" lon="5.51978">
        <ele>245</ele>
        <time>2018-02-20T13:48:30.000Z</time>
      </trkpt>
      <trkpt lat="43.52433" lon="5.51977">
        <ele>245</ele>
        <time>2018-02-20T13:48:31.000Z</time>
      </trkpt>
      <trkpt lat="43.52433" lon="5.51975">
        <ele>246</ele>
        <time>2018-02-20T13:48:32.000Z</time>
      </trkpt>
      <trkpt lat="43.52434" lon="5.51974">
        <ele>246</ele>
        <time>2018-02-20T13:48:33.000Z</time>
      </trkpt>
      <trkpt lat="43.52435" lon="5.51972">
        <ele>246</ele>
        <time>2018-02-20T13:48:34.000Z</time>
      </trkpt>
      <trkpt lat="43.52435" lon="5.51971">
        <ele>246</ele>
        <time>2018-02-20T13:48:35.000Z</time>
      </trkpt>
      <trkpt lat="43.52436" lon="5.51969">
        <ele>246</ele>
        <time>2018-02-20T13:48:36.000Z</time>
      </trkpt>
      <trkpt lat="43.52437" lon="5.51968">
        <ele>246</ele>
        <time>2018-02-20T13:48:37.000Z</time>
      </trkpt>
      <trkpt lat="43.52438" lon="5.51967">
        <ele>246</ele>
        <time>2018-02-20T13:48:38.000Z</time>
      </trkpt>
      <trkpt lat="43.52439" lon="5.51966">
        <ele>246</ele>
        <time>2018-02-20T13:48:39.000Z</time>
      </trkpt>
      <trkpt lat="43.5244" lon="5.51965">
        <ele>246</ele>
        <time>2018-02-20T13:48:40.000Z</time>
      </trkpt>
      <trkpt lat="43.52441" lon="5.51964">
        <ele>246</ele>
        <time>2018-02-20T13:48:41.000Z</time>
      </trkpt>
      <trkpt lat="43.52442" lon="5.51962">
        <ele>245</ele>
        <time>2018-02-20T13:48:42.000Z</time>
      </trkpt>
      <trkpt lat="43.52443" lon="5.51961">
        <ele>245</ele>
        <time>2018-02-20T13:48:43.000Z</time>
      </trkpt>
      <trkpt lat="43.52443" lon="5.5196">
        <ele>245</ele>
        <time>2018-02-20T13:48:44.000Z</time>
      </trkpt>
      <trkpt lat="43.52444" lon="5.51959">
        <ele>245</ele>
        <time>2018-02-20T13:48:45.000Z</time>
      </trkpt>
      <trkpt lat="43.52445" lon="5.51957">
        <ele>245</ele>
        <time>2018-02-20T13:48:46.000Z</time>
      </trkpt>
      <trkpt lat="43.52446" lon="5.51956">
        <ele>245</ele>
        <time>2018-02-20T13:48:47.000Z</time>
      </trkpt>
      <trkpt lat="43.52447" lon="5.51955">
        <ele>245</ele>
        <time>2018-02-20T13:48:48.000Z</time>
      </trkpt>
      <trkpt lat="43.52448" lon="5.51954">
        <ele>244</ele>
        <time>2018-02-20T13:48:49.000Z</time>
      </trkpt>
      <trkpt lat="43.52448" lon="5.51953">
        <ele>244</ele>
        <time>2018-02-20T13:48:50.000Z</time>
      </trkpt>
      <trkpt lat="43.52449" lon="5.51952">
        <ele>244</ele>
        <time>2018-02-20T13:48:51.000Z</time>
      </trkpt>
      <trkpt lat="43.5245" lon="5.51951">
        <ele>244</ele>
        <time>2018-02-20T13:48:52.000Z</time>
      </trkpt>
      <trkpt lat="43.52451" lon="5.51949">
        <ele>245</ele>
        <time>2018-02-20T13:48:53.000Z</time>
      </trkpt>
      <trkpt lat="43.52451" lon="5.51948">
        <ele>245</ele>
        <time>2018-02-20T13:48:54.000Z</time>
      </trkpt>
      <trkpt lat="43.52452" lon="5.51947">
        <ele>245</ele>
        <time>2018-02-20T13:48:55.000Z</time>
      </trkpt>
      <trkpt lat="43.52452" lon="5.51946">
        <ele>245</ele>
        <time>2018-02-20T13:48:56.000Z</time>
      </trkpt>
      <trkpt lat="43.52452" lon="5.51944">
        <ele>245</ele>
        <time>2018-02-20T13:48:57.000Z</time>
      </trkpt>
      <trkpt lat="43.52453" lon="5.51943">
        <ele>245</ele>
        <time>2018-02-20T13:48:58.000Z</time>
      </trkpt>
      <trkpt lat="43.52453" lon="5.51942">
        <ele>245</ele>
        <time>2018-02-20T13:48:59.000Z</time>
      </trkpt>
      <trkpt lat="43.52453" lon="5.5194">
        <ele>245</ele>
        <time>2018-02-20T13:49:00.000Z</time>
      </trkpt>
      <trkpt lat="43.52454" lon="5.51938">
        <ele>245</ele>
        <time>2018-02-20T13:49:01.000Z</time>
      </trkpt>
      <trkpt lat="43.52454" lon="5.51937">
        <ele>245</ele>
        <time>2018-02-20T13:49:02.000Z</time>
      </trkpt>
      <trkpt lat="43.52454" lon="5.51935">
        <ele>245</ele>
        <time>2018-02-20T13:49:03.000Z</time>
      </trkpt>
      <trkpt lat="43.52454" lon="5.51933">
        <ele>245</ele>
        <time>2018-02-20T13:49:04.000Z</time>
      </trkpt>
      <trkpt lat="43.52455" lon="5.51932">
        <ele>245</ele>
        <time>2018-02-20T13:49:05.000Z</time>
      </trkpt>
      <trkpt lat="43.52455" lon="5.5193">
        <ele>245</ele>
        <time>2018-02-20T13:49:06.000Z</time>
      </trkpt>
      <trkpt lat="43.52455" lon="5.51928">
        <ele>245</ele>
        <time>2018-02-20T13:49:07.000Z</time>
      </trkpt>
      <trkpt lat="43.52455" lon="5.51927">
        <ele>245</ele>
        <time>2018-02-20T13:49:08.000Z</time>
      </trkpt>
      <trkpt lat="43.52455" lon="5.51925">
        <ele>245</ele>
        <time>2018-02-20T13:49:09.000Z</time>
      </trkpt>
      <trkpt lat="43.52455" lon="5.51923">
        <ele>245</ele>
        <time>2018-02-20T13:49:10.000Z</time>
      </trkpt>
      <trkpt lat="43.52455" lon="5.51921">
        <ele>246</ele>
        <time>2018-02-20T13:49:11.000Z</time>
      </trkpt>
      <trkpt lat="43.52454" lon="5.51919">
        <ele>246</ele>
        <time>2018-02-20T13:49:12.000Z</time>
      </trkpt>
      <trkpt lat="43.52454" lon="5.51918">
        <ele>246</ele>
        <time>2018-02-20T13:49:13.000Z</time>
      </trkpt>
      <trkpt lat="43.52454" lon="5.51916">
        <ele>246</ele>
        <time>2018-02-20T13:49:14.000Z</time>
      </trkpt>
      <trkpt lat="43.52454" lon="5.51914">
        <ele>246</ele>
        <time>2018-02-20T13:49:15.000Z</time>
      </trkpt>
      <trkpt lat="43.52455" lon="5.51912">
        <ele>246</ele>
        <time>2018-02-20T13:49:16.000Z</time>
      </trkpt>
      <trkpt lat="43.52455" lon="5.51911">
        <ele>246</ele>
        <time>2018-02-20T13:49:17.000Z</time>
      </trkpt>
      <trkpt lat="43.52455" lon="5.51909">
        <ele>246</ele>
        <time>2018-02-20T13:49:18.000Z</time>
      </trkpt>
      <trkpt lat="43.52456" lon="5.51908">
        <ele>246</ele>
        <time>2018-02-20T13:49:19.000Z</time>
      </trkpt>
      <trkpt lat="43.52456" lon="5.51907">
        <ele>246</ele>
        <time>2018-02-20T13:49:20.000Z</time>
      </trkpt>
      <trkpt lat="43.52457" lon="5.51905">
        <ele>246</ele>
        <time>2018-02-20T13:49:21.000Z</time>
      </trkpt>
      <trkpt lat="43.52457" lon="5.51904">
        <ele>246</ele>
        <time>2018-02-20T13:49:22.000Z</time>
      </trkpt>
      <trkpt lat="43.52458" lon="5.51902">
        <ele>246</ele>
        <time>2018-02-20T13:49:23.000Z</time>
      </trkpt>
      <trkpt lat="43.52458" lon="5.519">
        <ele>246</ele>
        <time>2018-02-20T13:49:24.000Z</time>
      </trkpt>
      <trkpt lat="43.52459" lon="5.51899">
        <ele>245</ele>
        <time>2018-02-20T13:49:25.000Z</time>
      </trkpt>
      <trkpt lat="43.5246" lon="5.51898">
        <ele>245</ele>
        <time>2018-02-20T13:49:26.000Z</time>
      </trkpt>
      <trkpt lat="43.5246" lon="5.51896">
        <ele>245</ele>
        <time>2018-02-20T13:49:27.000Z</time>
      </trkpt>
      <trkpt lat="43.52461" lon="5.51895">
        <ele>245</ele>
        <time>2018-02-20T13:49:28.000Z</time>
      </trkpt>
      <trkpt lat="43.52461" lon="5.51894">
        <ele>245</ele>
        <time>2018-02-20T13:49:29.000Z</time>
      </trkpt>
      <trkpt lat="43.52462" lon="5.51892">
        <ele>245</ele>
        <time>2018-02-20T13:49:30.000Z</time>
      </trkpt>
      <trkpt lat="43.52462" lon="5.51891">
        <ele>245</ele>
        <time>2018-02-20T13:49:31.000Z</time>
      </trkpt>
      <trkpt lat="43.52463" lon="5.51889">
        <ele>245</ele>
        <time>2018-02-20T13:49:32.000Z</time>
      </trkpt>
      <trkpt lat="43.52463" lon="5.51888">
        <ele>245</ele>
        <time>2018-02-20T13:49:33.000Z</time>
      </trkpt>
      <trkpt lat="43.52464" lon="5.51886">
        <ele>245</ele>
        <time>2018-02-20T13:49:34.000Z</time>
      </trkpt>
      <trkpt lat="43.52464" lon="5.51884">
        <ele>245</ele>
        <time>2018-02-20T13:49:35.000Z</time>
      </trkpt>
      <trkpt lat="43.52464" lon="5.51883">
        <ele>245</ele>
        <time>2018-02-20T13:49:36.000Z</time>
      </trkpt>
      <trkpt lat="43.52464" lon="5.51881">
        <ele>245</ele>
        <time>2018-02-20T13:49:37.000Z</time>
      </trkpt>
      <trkpt lat="43.52464" lon="5.5188">
        <ele>245</ele>
        <time>2018-02-20T13:49:38.000Z</time>
      </trkpt>
      <trkpt lat="43.52464" lon="5.51878">
        <ele>245</ele>
        <time>2018-02-20T13:49:39.000Z</time>
      </trkpt>
      <trkpt lat="43.52463" lon="5.51877">
        <ele>245</ele>
        <time>2018-02-20T13:49:40.000Z</time>
      </trkpt>
      <trkpt lat="43.52464" lon="5.51875">
        <ele>245</ele>
        <time>2018-02-20T13:49:41.000Z</time>
      </trkpt>
      <trkpt lat="43.52464" lon="5.51874">
        <ele>245</ele>
        <time>2018-02-20T13:49:42.000Z</time>
      </trkpt>
      <trkpt lat="43.52464" lon="5.51872">
        <ele>245</ele>
        <time>2018-02-20T13:49:43.000Z</time>
      </trkpt>
      <trkpt lat="43.52464" lon="5.5187">
        <ele>245</ele>
        <time>2018-02-20T13:49:44.000Z</time>
      </trkpt>
      <trkpt lat="43.52465" lon="5.51868">
        <ele>245</ele>
        <time>2018-02-20T13:49:45.000Z</time>
      </trkpt>
      <trkpt lat="43.52465" lon="5.51867">
        <ele>245</ele>
        <time>2018-02-20T13:49:46.000Z</time>
      </trkpt>
      <trkpt lat="43.52466" lon="5.51865">
        <ele>245</ele>
        <time>2018-02-20T13:49:47.000Z</time>
      </trkpt>
      <trkpt lat="43.52467" lon="5.51864">
        <ele>245</ele>
        <time>2018-02-20T13:49:48.000Z</time>
      </trkpt>
      <trkpt lat="43.52467" lon="5.51862">
        <ele>245</ele>
        <time>2018-02-20T13:49:49.000Z</time>
      </trkpt>
      <trkpt lat="43.52468" lon="5.51861">
        <ele>245</ele>
        <time>2018-02-20T13:49:50.000Z</time>
      </trkpt>
      <trkpt lat="43.52468" lon="5.51859">
        <ele>245</ele>
        <time>2018-02-20T13:49:51.000Z</time>
      </trkpt>
      <trkpt lat="43.52468" lon="5.51857">
        <ele>245</ele>
        <time>2018-02-20T13:49:52.000Z</time>
      </trkpt>
      <trkpt lat="43.52469" lon="5.51856">
        <ele>244</ele>
        <time>2018-02-20T13:49:53.000Z</time>
      </trkpt>
      <trkpt lat="43.52469" lon="5.51854">
        <ele>244</ele>
        <time>2018-02-20T13:49:54.000Z</time>
      </trkpt>
      <trkpt lat="43.5247" lon="5.51853">
        <ele>244</ele>
        <time>2018-02-20T13:49:55.000Z</time>
      </trkpt>
      <trkpt lat="43.5247" lon="5.51851">
        <ele>244</ele>
        <time>2018-02-20T13:49:56.000Z</time>
      </trkpt>
      <trkpt lat="43.52471" lon="5.5185">
        <ele>244</ele>
        <time>2018-02-20T13:49:57.000Z</time>
      </trkpt>
      <trkpt lat="43.52471" lon="5.51849">
        <ele>244</ele>
        <time>2018-02-20T13:49:58.000Z</time>
      </trkpt>
      <trkpt lat="43.52472" lon="5.51847">
        <ele>244</ele>
        <time>2018-02-20T13:49:59.000Z</time>
      </trkpt>
      <trkpt lat="43.52472" lon="5.51846">
        <ele>244</ele>
        <time>2018-02-20T13:50:00.000Z</time>
      </trkpt>
      <trkpt lat="43.52473" lon="5.51845">
        <ele>244</ele>
        <time>2018-02-20T13:50:01.000Z</time>
      </trkpt>
      <trkpt lat="43.52473" lon="5.51844">
        <ele>244</ele>
        <time>2018-02-20T13:50:02.000Z</time>
      </trkpt>
      <trkpt lat="43.52474" lon="5.51843">
        <ele>244</ele>
        <time>2018-02-20T13:50:03.000Z</time>
      </trkpt>
      <trkpt lat="43.52474" lon="5.51841">
        <ele>244</ele>
        <time>2018-02-20T13:50:04.000Z</time>
      </trkpt>
      <trkpt lat="43.52475" lon="5.5184">
        <ele>244</ele>
        <time>2018-02-20T13:50:05.000Z</time>
      </trkpt>
      <trkpt lat="43.52475" lon="5.51838">
        <ele>244</ele>
        <time>2018-02-20T13:50:06.000Z</time>
      </trkpt>
      <trkpt lat="43.52475" lon="5.51837">
        <ele>244</ele>
        <time>2018-02-20T13:50:07.000Z</time>
      </trkpt>
      <trkpt lat="43.52475" lon="5.51835">
        <ele>244</ele>
        <time>2018-02-20T13:50:08.000Z</time>
      </trkpt>
      <trkpt lat="43.52476" lon="5.51834">
        <ele>244</ele>
        <time>2018-02-20T13:50:09.000Z</time>
      </trkpt>
      <trkpt lat="43.52476" lon="5.51832">
        <ele>244</ele>
        <time>2018-02-20T13:50:10.000Z</time>
      </trkpt>
      <trkpt lat="43.52476" lon="5.51831">
        <ele>244</ele>
        <time>2018-02-20T13:50:11.000Z</time>
      </trkpt>
      <trkpt lat="43.52477" lon="5.51829">
        <ele>244</ele>
        <time>2018-02-20T13:50:12.000Z</time>
      </trkpt>
      <trkpt lat="43.52477" lon="5.51828">
        <ele>245</ele>
        <time>2018-02-20T13:50:13.000Z</time>
      </trkpt>
      <trkpt lat="43.52477" lon="5.51826">
        <ele>245</ele>
        <time>2018-02-20T13:50:14.000Z</time>
      </trkpt>
      <trkpt lat="43.52477" lon="5.51825">
        <ele>245</ele>
        <time>2018-02-20T13:50:15.000Z</time>
      </trkpt>
      <trkpt lat="43.52477" lon="5.51823">
        <ele>245</ele>
        <time>2018-02-20T13:50:16.000Z</time>
      </trkpt>
      <trkpt lat="43.52477" lon="5.51822">
        <ele>245</ele>
        <time>2018-02-20T13:50:17.000Z</time>
      </trkpt>
      <trkpt lat="43.52477" lon="5.51821">
        <ele>245</ele>
        <time>2018-02-20T13:50:18.000Z</time>
      </trkpt>
      <trkpt lat="43.52477" lon="5.51819">
        <ele>245</ele>
        <time>2018-02-20T13:50:19.000Z</time>
      </trkpt>
      <trkpt lat="43.52478" lon="5.51818">
        <ele>245</ele>
        <time>2018-02-20T13:50:20.000Z</time>
      </trkpt>
      <trkpt lat="43.52478" lon="5.51817">
        <ele>245</ele>
        <time>2018-02-20T13:50:21.000Z</time>
      </trkpt>
      <trkpt lat="43.52478" lon="5.51815">
        <ele>245</ele>
        <time>2018-02-20T13:50:22.000Z</time>
      </trkpt>
      <trkpt lat="43.52478" lon="5.51813">
        <ele>245</ele>
        <time>2018-02-20T13:50:23.000Z</time>
      </trkpt>
      <trkpt lat="43.52479" lon="5.51812">
        <ele>245</ele>
        <time>2018-02-20T13:50:24.000Z</time>
      </trkpt>
      <trkpt lat="43.52479" lon="5.5181">
        <ele>246</ele>
        <time>2018-02-20T13:50:25.000Z</time>
      </trkpt>
      <trkpt lat="43.52479" lon="5.51809">
        <ele>246</ele>
        <time>2018-02-20T13:50:26.000Z</time>
      </trkpt>
      <trkpt lat="43.5248" lon="5.51807">
        <ele>246</ele>
        <time>2018-02-20T13:50:27.000Z</time>
      </trkpt>
      <trkpt lat="43.5248" lon="5.51806">
        <ele>246</ele>
        <time>2018-02-20T13:50:28.000Z</time>
      </trkpt>
      <trkpt lat="43.52481" lon="5.51805">
        <ele>246</ele>
        <time>2018-02-20T13:50:29.000Z</time>
      </trkpt>
      <trkpt lat="43.52481" lon="5.51803">
        <ele>246</ele>
        <time>2018-02-20T13:50:30.000Z</time>
      </trkpt>
      <trkpt lat="43.52482" lon="5.51802">
        <ele>246</ele>
        <time>2018-02-20T13:50:31.000Z</time>
      </trkpt>
      <trkpt lat="43.52482" lon="5.518">
        <ele>246</ele>
        <time>2018-02-20T13:50:32.000Z</time>
      </trkpt>
      <trkpt lat="43.52482" lon="5.51799">
        <ele>246</ele>
        <time>2018-02-20T13:50:33.000Z</time>
      </trkpt>
      <trkpt lat="43.52482" lon="5.51798">
        <ele>247</ele>
        <time>2018-02-20T13:50:34.000Z</time>
      </trkpt>
      <trkpt lat="43.52482" lon="5.51796">
        <ele>247</ele>
        <time>2018-02-20T13:50:35.000Z</time>
      </trkpt>
      <trkpt lat="43.52481" lon="5.51794">
        <ele>247</ele>
        <time>2018-02-20T13:50:36.000Z</time>
      </trkpt>
      <trkpt lat="43.52481" lon="5.51793">
        <ele>247</ele>
        <time>2018-02-20T13:50:37.000Z</time>
      </trkpt>
      <trkpt lat="43.52481" lon="5.51791">
        <ele>247</ele>
        <time>2018-02-20T13:50:38.000Z</time>
      </trkpt>
      <trkpt lat="43.52481" lon="5.5179">
        <ele>247</ele>
        <time>2018-02-20T13:50:39.000Z</time>
      </trkpt>
      <trkpt lat="43.5248" lon="5.51788">
        <ele>247</ele>
        <time>2018-02-20T13:50:40.000Z</time>
      </trkpt>
      <trkpt lat="43.5248" lon="5.51787">
        <ele>247</ele>
        <time>2018-02-20T13:50:41.000Z</time>
      </trkpt>
      <trkpt lat="43.52479" lon="5.51785">
        <ele>247</ele>
        <time>2018-02-20T13:50:42.000Z</time>
      </trkpt>
      <trkpt lat="43.52479" lon="5.51784">
        <ele>247</ele>
        <time>2018-02-20T13:50:43.000Z</time>
      </trkpt>
      <trkpt lat="43.52478" lon="5.51782">
        <ele>247</ele>
        <time>2018-02-20T13:50:44.000Z</time>
      </trkpt>
      <trkpt lat="43.52478" lon="5.51781">
        <ele>247</ele>
        <time>2018-02-20T13:50:45.000Z</time>
      </trkpt>
      <trkpt lat="43.52478" lon="5.51779">
        <ele>247</ele>
        <time>2018-02-20T13:50:46.000Z</time>
      </trkpt>
      <trkpt lat="43.52477" lon="5.51777">
        <ele>247</ele>
        <time>2018-02-20T13:50:47.000Z</time>
      </trkpt>
      <trkpt lat="43.52477" lon="5.51776">
        <ele>247</ele>
        <time>2018-02-20T13:50:48.000Z</time>
      </trkpt>
      <trkpt lat="43.52476" lon="5.51774">
        <ele>247</ele>
        <time>2018-02-20T13:50:49.000Z</time>
      </trkpt>
      <trkpt lat="43.52476" lon="5.51773">
        <ele>247</ele>
        <time>2018-02-20T13:50:50.000Z</time>
      </trkpt>
      <trkpt lat="43.52476" lon="5.51771">
        <ele>247</ele>
        <time>2018-02-20T13:50:51.000Z</time>
      </trkpt>
      <trkpt lat="43.52475" lon="5.5177">
        <ele>247</ele>
        <time>2018-02-20T13:50:52.000Z</time>
      </trkpt>
      <trkpt lat="43.52475" lon="5.51768">
        <ele>247</ele>
        <time>2018-02-20T13:50:53.000Z</time>
      </trkpt>
      <trkpt lat="43.52475" lon="5.51766">
        <ele>247</ele>
        <time>2018-02-20T13:50:54.000Z</time>
      </trkpt>
      <trkpt lat="43.52475" lon="5.51765">
        <ele>247</ele>
        <time>2018-02-20T13:50:55.000Z</time>
      </trkpt>
      <trkpt lat="43.52475" lon="5.51763">
        <ele>247</ele>
        <time>2018-02-20T13:50:56.000Z</time>
      </trkpt>
      <trkpt lat="43.52474" lon="5.51761">
        <ele>247</ele>
        <time>2018-02-20T13:50:57.000Z</time>
      </trkpt>
      <trkpt lat="43.52474" lon="5.5176">
        <ele>247</ele>
        <time>2018-02-20T13:50:58.000Z</time>
      </trkpt>
      <trkpt lat="43.52474" lon="5.51758">
        <ele>247</ele>
        <time>2018-02-20T13:50:59.000Z</time>
      </trkpt>
      <trkpt lat="43.52474" lon="5.51756">
        <ele>247</ele>
        <time>2018-02-20T13:51:00.000Z</time>
      </trkpt>
      <trkpt lat="43.52474" lon="5.51754">
        <ele>247</ele>
        <time>2018-02-20T13:51:01.000Z</time>
      </trkpt>
      <trkpt lat="43.52474" lon="5.51753">
        <ele>247</ele>
        <time>2018-02-20T13:51:02.000Z</time>
      </trkpt>
      <trkpt lat="43.52474" lon="5.51751">
        <ele>247</ele>
        <time>2018-02-20T13:51:03.000Z</time>
      </trkpt>
      <trkpt lat="43.52474" lon="5.5175">
        <ele>246</ele>
        <time>2018-02-20T13:51:04.000Z</time>
      </trkpt>
      <trkpt lat="43.52473" lon="5.51748">
        <ele>246</ele>
        <time>2018-02-20T13:51:05.000Z</time>
      </trkpt>
      <trkpt lat="43.52473" lon="5.51746">
        <ele>246</ele>
        <time>2018-02-20T13:51:06.000Z</time>
      </trkpt>
      <trkpt lat="43.52473" lon="5.51745">
        <ele>246</ele>
        <time>2018-02-20T13:51:07.000Z</time>
      </trkpt>
      <trkpt lat="43.52473" lon="5.51743">
        <ele>246</ele>
        <time>2018-02-20T13:51:08.000Z</time>
      </trkpt>
      <trkpt lat="43.52473" lon="5.51741">
        <ele>246</ele>
        <time>2018-02-20T13:51:09.000Z</time>
      </trkpt>
      <trkpt lat="43.52473" lon="5.5174">
        <ele>246</ele>
        <time>2018-02-20T13:51:10.000Z</time>
      </trkpt>
      <trkpt lat="43.52473" lon="5.51738">
        <ele>246</ele>
        <time>2018-02-20T13:51:11.000Z</time>
      </trkpt>
      <trkpt lat="43.52473" lon="5.51737">
        <ele>246</ele>
        <time>2018-02-20T13:51:12.000Z</time>
      </trkpt>
      <trkpt lat="43.52473" lon="5.51735">
        <ele>246</ele>
        <time>2018-02-20T13:51:13.000Z</time>
      </trkpt>
      <trkpt lat="43.52473" lon="5.51734">
        <ele>246</ele>
        <time>2018-02-20T13:51:14.000Z</time>
      </trkpt>
      <trkpt lat="43.52473" lon="5.51732">
        <ele>246</ele>
        <time>2018-02-20T13:51:15.000Z</time>
      </trkpt>
      <trkpt lat="43.52473" lon="5.51731">
        <ele>246</ele>
        <time>2018-02-20T13:51:16.000Z</time>
      </trkpt>
      <trkpt lat="43.52473" lon="5.5173">
        <ele>246</ele>
        <time>2018-02-20T13:51:17.000Z</time>
      </trkpt>
      <trkpt lat="43.52473" lon="5.51729">
        <ele>246</ele>
        <time>2018-02-20T13:51:18.000Z</time>
      </trkpt>
      <trkpt lat="43.52472" lon="5.51728">
        <ele>246</ele>
        <time>2018-02-20T13:51:19.000Z</time>
      </trkpt>
      <trkpt lat="43.52472" lon="5.51726">
        <ele>246</ele>
        <time>2018-02-20T13:51:20.000Z</time>
      </trkpt>
      <trkpt lat="43.52472" lon="5.51725">
        <ele>246</ele>
        <time>2018-02-20T13:51:21.000Z</time>
      </trkpt>
      <trkpt lat="43.52472" lon="5.51723">
        <ele>246</ele>
        <time>2018-02-20T13:51:22.000Z</time>
      </trkpt>
      <trkpt lat="43.52472" lon="5.51722">
        <ele>245</ele>
        <time>2018-02-20T13:51:23.000Z</time>
      </trkpt>
      <trkpt lat="43.52472" lon="5.5172">
        <ele>245</ele>
        <time>2018-02-20T13:51:24.000Z</time>
      </trkpt>
      <trkpt lat="43.52472" lon="5.51718">
        <ele>245</ele>
        <time>2018-02-20T13:51:25.000Z</time>
      </trkpt>
      <trkpt lat="43.52472" lon="5.51717">
        <ele>245</ele>
        <time>2018-02-20T13:51:26.000Z</time>
      </trkpt>
      <trkpt lat="43.52472" lon="5.51716">
        <ele>245</ele>
        <time>2018-02-20T13:51:27.000Z</time>
      </trkpt>
      <trkpt lat="43.52473" lon="5.51715">
        <ele>245</ele>
        <time>2018-02-20T13:51:28.000Z</time>
      </trkpt>
      <trkpt lat="43.52472" lon="5.51714">
        <ele>245</ele>
        <time>2018-02-20T13:51:29.000Z</time>
      </trkpt>
      <trkpt lat="43.52472" lon="5.51712">
        <ele>245</ele>
        <time>2018-02-20T13:51:30.000Z</time>
      </trkpt>
      <trkpt lat="43.52472" lon="5.5171">
        <ele>245</ele>
        <time>2018-02-20T13:51:31.000Z</time>
      </trkpt>
      <trkpt lat="43.52472" lon="5.51709">
        <ele>245</ele>
        <time>2018-02-20T13:51:32.000Z</time>
      </trkpt>
      <trkpt lat="43.52472" lon="5.51708">
        <ele>245</ele>
        <time>2018-02-20T13:51:33.000Z</time>
      </trkpt>
      <trkpt lat="43.52472" lon="5.51707">
        <ele>245</ele>
        <time>2018-02-20T13:51:34.000Z</time>
      </trkpt>
      <trkpt lat="43.52472" lon="5.51706">
        <ele>245</ele>
        <time>2018-02-20T13:51:35.000Z</time>
      </trkpt>
      <trkpt lat="43.52472" lon="5.51705">
        <ele>245</ele>
        <time>2018-02-20T13:51:36.000Z</time>
      </trkpt>
      <trkpt lat="43.52472" lon="5.51704">
        <ele>245</ele>
        <time>2018-02-20T13:51:37.000Z</time>
      </trkpt>
      <trkpt lat="43.52472" lon="5.51702">
        <ele>245</ele>
        <time>2018-02-20T13:51:38.000Z</time>
      </trkpt>
      <trkpt lat="43.52472" lon="5.51701">
        <ele>245</ele>
        <time>2018-02-20T13:51:39.000Z</time>
      </trkpt>
      <trkpt lat="43.52472" lon="5.51699">
        <ele>245</ele>
        <time>2018-02-20T13:51:40.000Z</time>
      </trkpt>
      <trkpt lat="43.52472" lon="5.51698">
        <ele>245</ele>
        <time>2018-02-20T13:51:41.000Z</time>
      </trkpt>
      <trkpt lat="43.52473" lon="5.51696">
        <ele>245</ele>
        <time>2018-02-20T13:51:42.000Z</time>
      </trkpt>
      <trkpt lat="43.52473" lon="5.51695">
        <ele>245</ele>
        <time>2018-02-20T13:51:43.000Z</time>
      </trkpt>
      <trkpt lat="43.52473" lon="5.51694">
        <ele>245</ele>
        <time>2018-02-20T13:51:44.000Z</time>
      </trkpt>
      <trkpt lat="43.52473" lon="5.51693">
        <ele>245</ele>
        <time>2018-02-20T13:51:45.000Z</time>
      </trkpt>
      <trkpt lat="43.52473" lon="5.51691">
        <ele>245</ele>
        <time>2018-02-20T13:51:46.000Z</time>
      </trkpt>
      <trkpt lat="43.52473" lon="5.51689">
        <ele>245</ele>
        <time>2018-02-20T13:51:47.000Z</time>
      </trkpt>
      <trkpt lat="43.52474" lon="5.51688">
        <ele>245</ele>
        <time>2018-02-20T13:51:48.000Z</time>
      </trkpt>
      <trkpt lat="43.52474" lon="5.51687">
        <ele>245</ele>
        <time>2018-02-20T13:51:49.000Z</time>
      </trkpt>
      <trkpt lat="43.52474" lon="5.51686">
        <ele>245</ele>
        <time>2018-02-20T13:51:50.000Z</time>
      </trkpt>
      <trkpt lat="43.52474" lon="5.51684">
        <ele>245</ele>
        <time>2018-02-20T13:51:51.000Z</time>
      </trkpt>
      <trkpt lat="43.52473" lon="5.51683">
        <ele>245</ele>
        <time>2018-02-20T13:51:52.000Z</time>
      </trkpt>
      <trkpt lat="43.52473" lon="5.51682">
        <ele>245</ele>
        <time>2018-02-20T13:51:53.000Z</time>
      </trkpt>
      <trkpt lat="43.52473" lon="5.5168">
        <ele>245</ele>
        <time>2018-02-20T13:51:54.000Z</time>
      </trkpt>
      <trkpt lat="43.52473" lon="5.51679">
        <ele>245</ele>
        <time>2018-02-20T13:51:55.000Z</time>
      </trkpt>
      <trkpt lat="43.52473" lon="5.51678">
        <ele>245</ele>
        <time>2018-02-20T13:51:56.000Z</time>
      </trkpt>
      <trkpt lat="43.52473" lon="5.51676">
        <ele>245</ele>
        <time>2018-02-20T13:51:57.000Z</time>
      </trkpt>
      <trkpt lat="43.52473" lon="5.51674">
        <ele>245</ele>
        <time>2018-02-20T13:51:58.000Z</time>
      </trkpt>
      <trkpt lat="43.52473" lon="5.51673">
        <ele>245</ele>
        <time>2018-02-20T13:51:59.000Z</time>
      </trkpt>
      <trkpt lat="43.52473" lon="5.51671">
        <ele>245</ele>
        <time>2018-02-20T13:52:00.000Z</time>
      </trkpt>
      <trkpt lat="43.52473" lon="5.5167">
        <ele>245</ele>
        <time>2018-02-20T13:52:01.000Z</time>
      </trkpt>
      <trkpt lat="43.52473" lon="5.51668">
        <ele>245</ele>
        <time>2018-02-20T13:52:02.000Z</time>
      </trkpt>
      <trkpt lat="43.52473" lon="5.51667">
        <ele>245</ele>
        <time>2018-02-20T13:52:03.000Z</time>
      </trkpt>
      <trkpt lat="43.52474" lon="5.51665">
        <ele>245</ele>
        <time>2018-02-20T13:52:04.000Z</time>
      </trkpt>
      <trkpt lat="43.52474" lon="5.51664">
        <ele>246</ele>
        <time>2018-02-20T13:52:05.000Z</time>
      </trkpt>
      <trkpt lat="43.52474" lon="5.51662">
        <ele>246</ele>
        <time>2018-02-20T13:52:06.000Z</time>
      </trkpt>
      <trkpt lat="43.52474" lon="5.51661">
        <ele>246</ele>
        <time>2018-02-20T13:52:07.000Z</time>
      </trkpt>
      <trkpt lat="43.52474" lon="5.51659">
        <ele>246</ele>
        <time>2018-02-20T13:52:08.000Z</time>
      </trkpt>
      <trkpt lat="43.52474" lon="5.51658">
        <ele>246</ele>
        <time>2018-02-20T13:52:09.000Z</time>
      </trkpt>
      <trkpt lat="43.52474" lon="5.51656">
        <ele>246</ele>
        <time>2018-02-20T13:52:10.000Z</time>
      </trkpt>
      <trkpt lat="43.52474" lon="5.51655">
        <ele>246</ele>
        <time>2018-02-20T13:52:11.000Z</time>
      </trkpt>
      <trkpt lat="43.52474" lon="5.51653">
        <ele>246</ele>
        <time>2018-02-20T13:52:12.000Z</time>
      </trkpt>
      <trkpt lat="43.52474" lon="5.51651">
        <ele>246</ele>
        <time>2018-02-20T13:52:13.000Z</time>
      </trkpt>
      <trkpt lat="43.52474" lon="5.5165">
        <ele>246</ele>
        <time>2018-02-20T13:52:14.000Z</time>
      </trkpt>
      <trkpt lat="43.52474" lon="5.51648">
        <ele>247</ele>
        <time>2018-02-20T13:52:15.000Z</time>
      </trkpt>
      <trkpt lat="43.52474" lon="5.51647">
        <ele>247</ele>
        <time>2018-02-20T13:52:16.000Z</time>
      </trkpt>
      <trkpt lat="43.52474" lon="5.51645">
        <ele>247</ele>
        <time>2018-02-20T13:52:17.000Z</time>
      </trkpt>
      <trkpt lat="43.52474" lon="5.51644">
        <ele>247</ele>
        <time>2018-02-20T13:52:18.000Z</time>
      </trkpt>
      <trkpt lat="43.52474" lon="5.51643">
        <ele>247</ele>
        <time>2018-02-20T13:52:19.000Z</time>
      </trkpt>
      <trkpt lat="43.52475" lon="5.51642">
        <ele>247</ele>
        <time>2018-02-20T13:52:20.000Z</time>
      </trkpt>
      <trkpt lat="43.52475" lon="5.5164">
        <ele>247</ele>
        <time>2018-02-20T13:52:21.000Z</time>
      </trkpt>
      <trkpt lat="43.52475" lon="5.51639">
        <ele>247</ele>
        <time>2018-02-20T13:52:22.000Z</time>
      </trkpt>
      <trkpt lat="43.52475" lon="5.51638">
        <ele>248</ele>
        <time>2018-02-20T13:52:23.000Z</time>
      </trkpt>
      <trkpt lat="43.52475" lon="5.51636">
        <ele>248</ele>
        <time>2018-02-20T13:52:24.000Z</time>
      </trkpt>
      <trkpt lat="43.52475" lon="5.51635">
        <ele>248</ele>
        <time>2018-02-20T13:52:25.000Z</time>
      </trkpt>
      <trkpt lat="43.52475" lon="5.51634">
        <ele>248</ele>
        <time>2018-02-20T13:52:26.000Z</time>
      </trkpt>
      <trkpt lat="43.52476" lon="5.51632">
        <ele>248</ele>
        <time>2018-02-20T13:52:27.000Z</time>
      </trkpt>
      <trkpt lat="43.52476" lon="5.51631">
        <ele>248</ele>
        <time>2018-02-20T13:52:28.000Z</time>
      </trkpt>
      <trkpt lat="43.52476" lon="5.5163">
        <ele>248</ele>
        <time>2018-02-20T13:52:29.000Z</time>
      </trkpt>
      <trkpt lat="43.52476" lon="5.51628">
        <ele>248</ele>
        <time>2018-02-20T13:52:30.000Z</time>
      </trkpt>
      <trkpt lat="43.52477" lon="5.51626">
        <ele>248</ele>
        <time>2018-02-20T13:52:31.000Z</time>
      </trkpt>
      <trkpt lat="43.52477" lon="5.51625">
        <ele>248</ele>
        <time>2018-02-20T13:52:32.000Z</time>
      </trkpt>
      <trkpt lat="43.52477" lon="5.51623">
        <ele>248</ele>
        <time>2018-02-20T13:52:33.000Z</time>
      </trkpt>
      <trkpt lat="43.52477" lon="5.51622">
        <ele>248</ele>
        <time>2018-02-20T13:52:34.000Z</time>
      </trkpt>
      <trkpt lat="43.52477" lon="5.51621">
        <ele>248</ele>
        <time>2018-02-20T13:52:35.000Z</time>
      </trkpt>
      <trkpt lat="43.52477" lon="5.51619">
        <ele>248</ele>
        <time>2018-02-20T13:52:36.000Z</time>
      </trkpt>
      <trkpt lat="43.52477" lon="5.51618">
        <ele>248</ele>
        <time>2018-02-20T13:52:37.000Z</time>
      </trkpt>
      <trkpt lat="43.52477" lon="5.51617">
        <ele>247</ele>
        <time>2018-02-20T13:52:38.000Z</time>
      </trkpt>
      <trkpt lat="43.52476" lon="5.51615">
        <ele>247</ele>
        <time>2018-02-20T13:52:39.000Z</time>
      </trkpt>
      <trkpt lat="43.52476" lon="5.51613">
        <ele>247</ele>
        <time>2018-02-20T13:52:40.000Z</time>
      </trkpt>
      <trkpt lat="43.52476" lon="5.51612">
        <ele>247</ele>
        <time>2018-02-20T13:52:41.000Z</time>
      </trkpt>
      <trkpt lat="43.52476" lon="5.5161">
        <ele>247</ele>
        <time>2018-02-20T13:52:42.000Z</time>
      </trkpt>
      <trkpt lat="43.52476" lon="5.51609">
        <ele>247</ele>
        <time>2018-02-20T13:52:43.000Z</time>
      </trkpt>
      <trkpt lat="43.52476" lon="5.51607">
        <ele>247</ele>
        <time>2018-02-20T13:52:44.000Z</time>
      </trkpt>
      <trkpt lat="43.52476" lon="5.51606">
        <ele>247</ele>
        <time>2018-02-20T13:52:45.000Z</time>
      </trkpt>
      <trkpt lat="43.52476" lon="5.51605">
        <ele>247</ele>
        <time>2018-02-20T13:52:46.000Z</time>
      </trkpt>
      <trkpt lat="43.52476" lon="5.51603">
        <ele>247</ele>
        <time>2018-02-20T13:52:47.000Z</time>
      </trkpt>
      <trkpt lat="43.52476" lon="5.51602">
        <ele>247</ele>
        <time>2018-02-20T13:52:48.000Z</time>
      </trkpt>
      <trkpt lat="43.52477" lon="5.51601">
        <ele>247</ele>
        <time>2018-02-20T13:52:49.000Z</time>
      </trkpt>
      <trkpt lat="43.52477" lon="5.51599">
        <ele>247</ele>
        <time>2018-02-20T13:52:50.000Z</time>
      </trkpt>
      <trkpt lat="43.52477" lon="5.51597">
        <ele>246</ele>
        <time>2018-02-20T13:52:51.000Z</time>
      </trkpt>
      <trkpt lat="43.52477" lon="5.51596">
        <ele>246</ele>
        <time>2018-02-20T13:52:52.000Z</time>
      </trkpt>
      <trkpt lat="43.52477" lon="5.51594">
        <ele>246</ele>
        <time>2018-02-20T13:52:53.000Z</time>
      </trkpt>
      <trkpt lat="43.52477" lon="5.51593">
        <ele>246</ele>
        <time>2018-02-20T13:52:54.000Z</time>
      </trkpt>
      <trkpt lat="43.52477" lon="5.51591">
        <ele>246</ele>
        <time>2018-02-20T13:52:55.000Z</time>
      </trkpt>
      <trkpt lat="43.52477" lon="5.5159">
        <ele>245</ele>
        <time>2018-02-20T13:52:56.000Z</time>
      </trkpt>
      <trkpt lat="43.52477" lon="5.51588">
        <ele>245</ele>
        <time>2018-02-20T13:52:57.000Z</time>
      </trkpt>
      <trkpt lat="43.52478" lon="5.51587">
        <ele>245</ele>
        <time>2018-02-20T13:52:58.000Z</time>
      </trkpt>
      <trkpt lat="43.52478" lon="5.51585">
        <ele>245</ele>
        <time>2018-02-20T13:52:59.000Z</time>
      </trkpt>
      <trkpt lat="43.52478" lon="5.51584">
        <ele>244</ele>
        <time>2018-02-20T13:53:00.000Z</time>
      </trkpt>
      <trkpt lat="43.52478" lon="5.51582">
        <ele>244</ele>
        <time>2018-02-20T13:53:01.000Z</time>
      </trkpt>
      <trkpt lat="43.52477" lon="5.51581">
        <ele>244</ele>
        <time>2018-02-20T13:53:02.000Z</time>
      </trkpt>
      <trkpt lat="43.52477" lon="5.5158">
        <ele>244</ele>
        <time>2018-02-20T13:53:03.000Z</time>
      </trkpt>
      <trkpt lat="43.52477" lon="5.51578">
        <ele>244</ele>
        <time>2018-02-20T13:53:04.000Z</time>
      </trkpt>
      <trkpt lat="43.52477" lon="5.51577">
        <ele>244</ele>
        <time>2018-02-20T13:53:05.000Z</time>
      </trkpt>
      <trkpt lat="43.52477" lon="5.51575">
        <ele>243</ele>
        <time>2018-02-20T13:53:06.000Z</time>
      </trkpt>
      <trkpt lat="43.52477" lon="5.51574">
        <ele>243</ele>
        <time>2018-02-20T13:53:07.000Z</time>
      </trkpt>
      <trkpt lat="43.52477" lon="5.51573">
        <ele>243</ele>
        <time>2018-02-20T13:53:08.000Z</time>
      </trkpt>
      <trkpt lat="43.52478" lon="5.51571">
        <ele>243</ele>
        <time>2018-02-20T13:53:09.000Z</time>
      </trkpt>
      <trkpt lat="43.52478" lon="5.5157">
        <ele>243</ele>
        <time>2018-02-20T13:53:10.000Z</time>
      </trkpt>
      <trkpt lat="43.52478" lon="5.51569">
        <ele>243</ele>
        <time>2018-02-20T13:53:11.000Z</time>
      </trkpt>
      <trkpt lat="43.52478" lon="5.51568">
        <ele>243</ele>
        <time>2018-02-20T13:53:12.000Z</time>
      </trkpt>
      <trkpt lat="43.52477" lon="5.51566">
        <ele>243</ele>
        <time>2018-02-20T13:53:13.000Z</time>
      </trkpt>
      <trkpt lat="43.52477" lon="5.51565">
        <ele>243</ele>
        <time>2018-02-20T13:53:14.000Z</time>
      </trkpt>
      <trkpt lat="43.52477" lon="5.51563">
        <ele>243</ele>
        <time>2018-02-20T13:53:15.000Z</time>
      </trkpt>
      <trkpt lat="43.52477" lon="5.51562">
        <ele>243</ele>
        <time>2018-02-20T13:53:16.000Z</time>
      </trkpt>
      <trkpt lat="43.52478" lon="5.5156">
        <ele>243</ele>
        <time>2018-02-20T13:53:17.000Z</time>
      </trkpt>
      <trkpt lat="43.52478" lon="5.51559">
        <ele>243</ele>
        <time>2018-02-20T13:53:18.000Z</time>
      </trkpt>
      <trkpt lat="43.52478" lon="5.51557">
        <ele>243</ele>
        <time>2018-02-20T13:53:19.000Z</time>
      </trkpt>
      <trkpt lat="43.52478" lon="5.51556">
        <ele>243</ele>
        <time>2018-02-20T13:53:20.000Z</time>
      </trkpt>
      <trkpt lat="43.52478" lon="5.51555">
        <ele>243</ele>
        <time>2018-02-20T13:53:21.000Z</time>
      </trkpt>
      <trkpt lat="43.52478" lon="5.51554">
        <ele>243</ele>
        <time>2018-02-20T13:53:22.000Z</time>
      </trkpt>
      <trkpt lat="43.52478" lon="5.51552">
        <ele>243</ele>
        <time>2018-02-20T13:53:23.000Z</time>
      </trkpt>
      <trkpt lat="43.52478" lon="5.51551">
        <ele>243</ele>
        <time>2018-02-20T13:53:24.000Z</time>
      </trkpt>
      <trkpt lat="43.52478" lon="5.5155">
        <ele>243</ele>
        <time>2018-02-20T13:53:25.000Z</time>
      </trkpt>
      <trkpt lat="43.52478" lon="5.51548">
        <ele>243</ele>
        <time>2018-02-20T13:53:26.000Z</time>
      </trkpt>
      <trkpt lat="43.52478" lon="5.51547">
        <ele>243</ele>
        <time>2018-02-20T13:53:27.000Z</time>
      </trkpt>
      <trkpt lat="43.52478" lon="5.51545">
        <ele>243</ele>
        <time>2018-02-20T13:53:28.000Z</time>
      </trkpt>
      <trkpt lat="43.52478" lon="5.51544">
        <ele>243</ele>
        <time>2018-02-20T13:53:29.000Z</time>
      </trkpt>
      <trkpt lat="43.52477" lon="5.51543">
        <ele>243</ele>
        <time>2018-02-20T13:53:30.000Z</time>
      </trkpt>
      <trkpt lat="43.52477" lon="5.51541">
        <ele>243</ele>
        <time>2018-02-20T13:53:31.000Z</time>
      </trkpt>
      <trkpt lat="43.52477" lon="5.5154">
        <ele>242</ele>
        <time>2018-02-20T13:53:32.000Z</time>
      </trkpt>
      <trkpt lat="43.52477" lon="5.51539">
        <ele>242</ele>
        <time>2018-02-20T13:53:33.000Z</time>
      </trkpt>
      <trkpt lat="43.52477" lon="5.51537">
        <ele>242</ele>
        <time>2018-02-20T13:53:34.000Z</time>
      </trkpt>
      <trkpt lat="43.52477" lon="5.51536">
        <ele>242</ele>
        <time>2018-02-20T13:53:35.000Z</time>
      </trkpt>
      <trkpt lat="43.52476" lon="5.51534">
        <ele>241</ele>
        <time>2018-02-20T13:53:36.000Z</time>
      </trkpt>
      <trkpt lat="43.52476" lon="5.51533">
        <ele>241</ele>
        <time>2018-02-20T13:53:37.000Z</time>
      </trkpt>
      <trkpt lat="43.52476" lon="5.51532">
        <ele>241</ele>
        <time>2018-02-20T13:53:38.000Z</time>
      </trkpt>
      <trkpt lat="43.52476" lon="5.51531">
        <ele>241</ele>
        <time>2018-02-20T13:53:39.000Z</time>
      </trkpt>
      <trkpt lat="43.52476" lon="5.51529">
        <ele>240</ele>
        <time>2018-02-20T13:53:40.000Z</time>
      </trkpt>
      <trkpt lat="43.52476" lon="5.51528">
        <ele>240</ele>
        <time>2018-02-20T13:53:41.000Z</time>
      </trkpt>
      <trkpt lat="43.52475" lon="5.51526">
        <ele>240</ele>
        <time>2018-02-20T13:53:42.000Z</time>
      </trkpt>
      <trkpt lat="43.52475" lon="5.51525">
        <ele>239</ele>
        <time>2018-02-20T13:53:43.000Z</time>
      </trkpt>
      <trkpt lat="43.52475" lon="5.51523">
        <ele>239</ele>
        <time>2018-02-20T13:53:44.000Z</time>
      </trkpt>
      <trkpt lat="43.52475" lon="5.51522">
        <ele>239</ele>
        <time>2018-02-20T13:53:45.000Z</time>
      </trkpt>
      <trkpt lat="43.52474" lon="5.51521">
        <ele>238</ele>
        <time>2018-02-20T13:53:46.000Z</time>
      </trkpt>
      <trkpt lat="43.52473" lon="5.5152">
        <ele>238</ele>
        <time>2018-02-20T13:53:47.000Z</time>
      </trkpt>
      <trkpt lat="43.52473" lon="5.5152">
        <ele>238</ele>
        <time>2018-02-20T13:53:48.000Z</time>
      </trkpt>
      <trkpt lat="43.52472" lon="5.5152">
        <ele>237</ele>
        <time>2018-02-20T13:53:49.000Z</time>
      </trkpt>
      <trkpt lat="43.52472" lon="5.51519">
        <ele>237</ele>
        <time>2018-02-20T13:53:50.000Z</time>
      </trkpt>
      <trkpt lat="43.52471" lon="5.51519">
        <ele>236</ele>
        <time>2018-02-20T13:53:51.000Z</time>
      </trkpt>
      <trkpt lat="43.5247" lon="5.51518">
        <ele>236</ele>
        <time>2018-02-20T13:53:52.000Z</time>
      </trkpt>
      <trkpt lat="43.52469" lon="5.51518">
        <ele>236</ele>
        <time>2018-02-20T13:53:53.000Z</time>
      </trkpt>
      <trkpt lat="43.52468" lon="5.51518">
        <ele>235</ele>
        <time>2018-02-20T13:53:54.000Z</time>
      </trkpt>
      <trkpt lat="43.52468" lon="5.51519">
        <ele>235</ele>
        <time>2018-02-20T13:53:55.000Z</time>
      </trkpt>
      <trkpt lat="43.52467" lon="5.51519">
        <ele>235</ele>
        <time>2018-02-20T13:53:56.000Z</time>
      </trkpt>
      <trkpt lat="43.52466" lon="5.5152">
        <ele>235</ele>
        <time>2018-02-20T13:53:57.000Z</time>
      </trkpt>
      <trkpt lat="43.52466" lon="5.5152">
        <ele>235</ele>
        <time>2018-02-20T13:53:58.000Z</time>
      </trkpt>
      <trkpt lat="43.52465" lon="5.51521">
        <ele>235</ele>
        <time>2018-02-20T13:53:59.000Z</time>
      </trkpt>
      <trkpt lat="43.52464" lon="5.51521">
        <ele>235</ele>
        <time>2018-02-20T13:54:00.000Z</time>
      </trkpt>
      <trkpt lat="43.52464" lon="5.51521">
        <ele>234</ele>
        <time>2018-02-20T13:54:01.000Z</time>
      </trkpt>
      <trkpt lat="43.52463" lon="5.51522">
        <ele>234</ele>
        <time>2018-02-20T13:54:02.000Z</time>
      </trkpt>
      <trkpt lat="43.52462" lon="5.51523">
        <ele>234</ele>
        <time>2018-02-20T13:54:03.000Z</time>
      </trkpt>
      <trkpt lat="43.52461" lon="5.51524">
        <ele>234</ele>
        <time>2018-02-20T13:54:04.000Z</time>
      </trkpt>
      <trkpt lat="43.5246" lon="5.51525">
        <ele>234</ele>
        <time>2018-02-20T13:54:05.000Z</time>
      </trkpt>
      <trkpt lat="43.5246" lon="5.51527">
        <ele>234</ele>
        <time>2018-02-20T13:54:06.000Z</time>
      </trkpt>
      <trkpt lat="43.52459" lon="5.51528">
        <ele>234</ele>
        <time>2018-02-20T13:54:07.000Z</time>
      </trkpt>
      <trkpt lat="43.52458" lon="5.51528">
        <ele>234</ele>
        <time>2018-02-20T13:54:08.000Z</time>
      </trkpt>
      <trkpt lat="43.52458" lon="5.51528">
        <ele>234</ele>
        <time>2018-02-20T13:54:09.000Z</time>
      </trkpt>
      <trkpt lat="43.52457" lon="5.51529">
        <ele>234</ele>
        <time>2018-02-20T13:54:10.000Z</time>
      </trkpt>
      <trkpt lat="43.52457" lon="5.51529">
        <ele>234</ele>
        <time>2018-02-20T13:54:11.000Z</time>
      </trkpt>
      <trkpt lat="43.52456" lon="5.5153">
        <ele>234</ele>
        <time>2018-02-20T13:54:12.000Z</time>
      </trkpt>
      <trkpt lat="43.52455" lon="5.5153">
        <ele>234</ele>
        <time>2018-02-20T13:54:13.000Z</time>
      </trkpt>
      <trkpt lat="43.52454" lon="5.5153">
        <ele>234</ele>
        <time>2018-02-20T13:54:14.000Z</time>
      </trkpt>
      <trkpt lat="43.52453" lon="5.5153">
        <ele>234</ele>
        <time>2018-02-20T13:54:15.000Z</time>
      </trkpt>
      <trkpt lat="43.52452" lon="5.5153">
        <ele>234</ele>
        <time>2018-02-20T13:54:16.000Z</time>
      </trkpt>
      <trkpt lat="43.52451" lon="5.5153">
        <ele>234</ele>
        <time>2018-02-20T13:54:17.000Z</time>
      </trkpt>
      <trkpt lat="43.5245" lon="5.5153">
        <ele>234</ele>
        <time>2018-02-20T13:54:18.000Z</time>
      </trkpt>
      <trkpt lat="43.52448" lon="5.5153">
        <ele>234</ele>
        <time>2018-02-20T13:54:19.000Z</time>
      </trkpt>
      <trkpt lat="43.52447" lon="5.5153">
        <ele>234</ele>
        <time>2018-02-20T13:54:20.000Z</time>
      </trkpt>
      <trkpt lat="43.52446" lon="5.5153">
        <ele>234</ele>
        <time>2018-02-20T13:54:21.000Z</time>
      </trkpt>
      <trkpt lat="43.52444" lon="5.5153">
        <ele>234</ele>
        <time>2018-02-20T13:54:22.000Z</time>
      </trkpt>
      <trkpt lat="43.52443" lon="5.5153">
        <ele>234</ele>
        <time>2018-02-20T13:54:23.000Z</time>
      </trkpt>
      <trkpt lat="43.52442" lon="5.5153">
        <ele>234</ele>
        <time>2018-02-20T13:54:24.000Z</time>
      </trkpt>
      <trkpt lat="43.52441" lon="5.51531">
        <ele>234</ele>
        <time>2018-02-20T13:54:25.000Z</time>
      </trkpt>
      <trkpt lat="43.5244" lon="5.51532">
        <ele>234</ele>
        <time>2018-02-20T13:54:26.000Z</time>
      </trkpt>
      <trkpt lat="43.52438" lon="5.51532">
        <ele>234</ele>
        <time>2018-02-20T13:54:27.000Z</time>
      </trkpt>
      <trkpt lat="43.52437" lon="5.51533">
        <ele>234</ele>
        <time>2018-02-20T13:54:28.000Z</time>
      </trkpt>
      <trkpt lat="43.52436" lon="5.51533">
        <ele>234</ele>
        <time>2018-02-20T13:54:29.000Z</time>
      </trkpt>
      <trkpt lat="43.52435" lon="5.51534">
        <ele>234</ele>
        <time>2018-02-20T13:54:30.000Z</time>
      </trkpt>
      <trkpt lat="43.52433" lon="5.51535">
        <ele>234</ele>
        <time>2018-02-20T13:54:31.000Z</time>
      </trkpt>
      <trkpt lat="43.52432" lon="5.51535">
        <ele>234</ele>
        <time>2018-02-20T13:54:32.000Z</time>
      </trkpt>
      <trkpt lat="43.52431" lon="5.51536">
        <ele>234</ele>
        <time>2018-02-20T13:54:33.000Z</time>
      </trkpt>
      <trkpt lat="43.5243" lon="5.51536">
        <ele>234</ele>
        <time>2018-02-20T13:54:34.000Z</time>
      </trkpt>
      <trkpt lat="43.52429" lon="5.51536">
        <ele>234</ele>
        <time>2018-02-20T13:54:35.000Z</time>
      </trkpt>
      <trkpt lat="43.52428" lon="5.51536">
        <ele>235</ele>
        <time>2018-02-20T13:54:36.000Z</time>
      </trkpt>
      <trkpt lat="43.52426" lon="5.51536">
        <ele>235</ele>
        <time>2018-02-20T13:54:37.000Z</time>
      </trkpt>
      <trkpt lat="43.52426" lon="5.51535">
        <ele>235</ele>
        <time>2018-02-20T13:54:38.000Z</time>
      </trkpt>
      <trkpt lat="43.52425" lon="5.51535">
        <ele>235</ele>
        <time>2018-02-20T13:54:39.000Z</time>
      </trkpt>
      <trkpt lat="43.52424" lon="5.51534">
        <ele>234</ele>
        <time>2018-02-20T13:54:40.000Z</time>
      </trkpt>
      <trkpt lat="43.52423" lon="5.51534">
        <ele>234</ele>
        <time>2018-02-20T13:54:41.000Z</time>
      </trkpt>
      <trkpt lat="43.52422" lon="5.51532">
        <ele>234</ele>
        <time>2018-02-20T13:54:42.000Z</time>
      </trkpt>
      <trkpt lat="43.52422" lon="5.51531">
        <ele>234</ele>
        <time>2018-02-20T13:54:43.000Z</time>
      </trkpt>
      <trkpt lat="43.52421" lon="5.5153">
        <ele>233</ele>
        <time>2018-02-20T13:54:44.000Z</time>
      </trkpt>
      <trkpt lat="43.5242" lon="5.51529">
        <ele>233</ele>
        <time>2018-02-20T13:54:45.000Z</time>
      </trkpt>
      <trkpt lat="43.5242" lon="5.51528">
        <ele>233</ele>
        <time>2018-02-20T13:54:46.000Z</time>
      </trkpt>
      <trkpt lat="43.52419" lon="5.51527">
        <ele>233</ele>
        <time>2018-02-20T13:54:47.000Z</time>
      </trkpt>
      <trkpt lat="43.52418" lon="5.51525">
        <ele>232</ele>
        <time>2018-02-20T13:54:48.000Z</time>
      </trkpt>
      <trkpt lat="43.52418" lon="5.51524">
        <ele>232</ele>
        <time>2018-02-20T13:54:49.000Z</time>
      </trkpt>
      <trkpt lat="43.52417" lon="5.51523">
        <ele>231</ele>
        <time>2018-02-20T13:54:50.000Z</time>
      </trkpt>
      <trkpt lat="43.52416" lon="5.51522">
        <ele>231</ele>
        <time>2018-02-20T13:54:51.000Z</time>
      </trkpt>
      <trkpt lat="43.52415" lon="5.51521">
        <ele>231</ele>
        <time>2018-02-20T13:54:52.000Z</time>
      </trkpt>
      <trkpt lat="43.52415" lon="5.5152">
        <ele>230</ele>
        <time>2018-02-20T13:54:53.000Z</time>
      </trkpt>
      <trkpt lat="43.52414" lon="5.51519">
        <ele>230</ele>
        <time>2018-02-20T13:54:54.000Z</time>
      </trkpt>
      <trkpt lat="43.52413" lon="5.51518">
        <ele>229</ele>
        <time>2018-02-20T13:54:55.000Z</time>
      </trkpt>
      <trkpt lat="43.52413" lon="5.51518">
        <ele>229</ele>
        <time>2018-02-20T13:54:56.000Z</time>
      </trkpt>
      <trkpt lat="43.52412" lon="5.51517">
        <ele>229</ele>
        <time>2018-02-20T13:54:57.000Z</time>
      </trkpt>
      <trkpt lat="43.52412" lon="5.51516">
        <ele>228</ele>
        <time>2018-02-20T13:54:58.000Z</time>
      </trkpt>
      <trkpt lat="43.52411" lon="5.51515">
        <ele>228</ele>
        <time>2018-02-20T13:54:59.000Z</time>
      </trkpt>
      <trkpt lat="43.52411" lon="5.51514">
        <ele>228</ele>
        <time>2018-02-20T13:55:00.000Z</time>
      </trkpt>
      <trkpt lat="43.5241" lon="5.51514">
        <ele>228</ele>
        <time>2018-02-20T13:55:01.000Z</time>
      </trkpt>
      <trkpt lat="43.52409" lon="5.51513">
        <ele>227</ele>
        <time>2018-02-20T13:55:02.000Z</time>
      </trkpt>
      <trkpt lat="43.52409" lon="5.51513">
        <ele>227</ele>
        <time>2018-02-20T13:55:03.000Z</time>
      </trkpt>
      <trkpt lat="43.52408" lon="5.51513">
        <ele>227</ele>
        <time>2018-02-20T13:55:04.000Z</time>
      </trkpt>
      <trkpt lat="43.52407" lon="5.51512">
        <ele>226</ele>
        <time>2018-02-20T13:55:05.000Z</time>
      </trkpt>
      <trkpt lat="43.52406" lon="5.51511">
        <ele>226</ele>
        <time>2018-02-20T13:55:06.000Z</time>
      </trkpt>
      <trkpt lat="43.52405" lon="5.51511">
        <ele>226</ele>
        <time>2018-02-20T13:55:07.000Z</time>
      </trkpt>
      <trkpt lat="43.52404" lon="5.5151">
        <ele>225</ele>
        <time>2018-02-20T13:55:08.000Z</time>
      </trkpt>
      <trkpt lat="43.52404" lon="5.51509">
        <ele>225</ele>
        <time>2018-02-20T13:55:09.000Z</time>
      </trkpt>
      <trkpt lat="43.52402" lon="5.51509">
        <ele>225</ele>
        <time>2018-02-20T13:55:10.000Z</time>
      </trkpt>
      <trkpt lat="43.52401" lon="5.51508">
        <ele>224</ele>
        <time>2018-02-20T13:55:11.000Z</time>
      </trkpt>
      <trkpt lat="43.52401" lon="5.51508">
        <ele>224</ele>
        <time>2018-02-20T13:55:12.000Z</time>
      </trkpt>
      <trkpt lat="43.524" lon="5.51507">
        <ele>224</ele>
        <time>2018-02-20T13:55:13.000Z</time>
      </trkpt>
      <trkpt lat="43.52399" lon="5.51506">
        <ele>223</ele>
        <time>2018-02-20T13:55:14.000Z</time>
      </trkpt>
      <trkpt lat="43.52398" lon="5.51506">
        <ele>223</ele>
        <time>2018-02-20T13:55:15.000Z</time>
      </trkpt>
      <trkpt lat="43.52397" lon="5.51505">
        <ele>223</ele>
        <time>2018-02-20T13:55:16.000Z</time>
      </trkpt>
      <trkpt lat="43.52396" lon="5.51504">
        <ele>222</ele>
        <time>2018-02-20T13:55:17.000Z</time>
      </trkpt>
      <trkpt lat="43.52395" lon="5.51503">
        <ele>222</ele>
        <time>2018-02-20T13:55:18.000Z</time>
      </trkpt>
      <trkpt lat="43.52395" lon="5.51503">
        <ele>222</ele>
        <time>2018-02-20T13:55:19.000Z</time>
      </trkpt>
      <trkpt lat="43.52394" lon="5.51502">
        <ele>222</ele>
        <time>2018-02-20T13:55:20.000Z</time>
      </trkpt>
      <trkpt lat="43.52393" lon="5.51502">
        <ele>221</ele>
        <time>2018-02-20T13:55:21.000Z</time>
      </trkpt>
      <trkpt lat="43.52392" lon="5.51501">
        <ele>221</ele>
        <time>2018-02-20T13:55:22.000Z</time>
      </trkpt>
      <trkpt lat="43.52391" lon="5.515">
        <ele>221</ele>
        <time>2018-02-20T13:55:23.000Z</time>
      </trkpt>
      <trkpt lat="43.5239" lon="5.51499">
        <ele>221</ele>
        <time>2018-02-20T13:55:24.000Z</time>
      </trkpt>
      <trkpt lat="43.52389" lon="5.51498">
        <ele>221</ele>
        <time>2018-02-20T13:55:25.000Z</time>
      </trkpt>
      <trkpt lat="43.52388" lon="5.51497">
        <ele>220</ele>
        <time>2018-02-20T13:55:26.000Z</time>
      </trkpt>
      <trkpt lat="43.52388" lon="5.51496">
        <ele>220</ele>
        <time>2018-02-20T13:55:27.000Z</time>
      </trkpt>
      <trkpt lat="43.52387" lon="5.51495">
        <ele>220</ele>
        <time>2018-02-20T13:55:28.000Z</time>
      </trkpt>
      <trkpt lat="43.52386" lon="5.51495">
        <ele>220</ele>
        <time>2018-02-20T13:55:29.000Z</time>
      </trkpt>
      <trkpt lat="43.52385" lon="5.51494">
        <ele>220</ele>
        <time>2018-02-20T13:55:30.000Z</time>
      </trkpt>
      <trkpt lat="43.52384" lon="5.51493">
        <ele>220</ele>
        <time>2018-02-20T13:55:31.000Z</time>
      </trkpt>
      <trkpt lat="43.52383" lon="5.51492">
        <ele>220</ele>
        <time>2018-02-20T13:55:32.000Z</time>
      </trkpt>
      <trkpt lat="43.52382" lon="5.51492">
        <ele>220</ele>
        <time>2018-02-20T13:55:33.000Z</time>
      </trkpt>
      <trkpt lat="43.52382" lon="5.51491">
        <ele>219</ele>
        <time>2018-02-20T13:55:34.000Z</time>
      </trkpt>
      <trkpt lat="43.52381" lon="5.5149">
        <ele>219</ele>
        <time>2018-02-20T13:55:35.000Z</time>
      </trkpt>
      <trkpt lat="43.5238" lon="5.51489">
        <ele>219</ele>
        <time>2018-02-20T13:55:36.000Z</time>
      </trkpt>
      <trkpt lat="43.52379" lon="5.51488">
        <ele>219</ele>
        <time>2018-02-20T13:55:37.000Z</time>
      </trkpt>
      <trkpt lat="43.52379" lon="5.51487">
        <ele>219</ele>
        <time>2018-02-20T13:55:38.000Z</time>
      </trkpt>
      <trkpt lat="43.52378" lon="5.51486">
        <ele>219</ele>
        <time>2018-02-20T13:55:39.000Z</time>
      </trkpt>
      <trkpt lat="43.52377" lon="5.51485">
        <ele>219</ele>
        <time>2018-02-20T13:55:40.000Z</time>
      </trkpt>
      <trkpt lat="43.52376" lon="5.51484">
        <ele>219</ele>
        <time>2018-02-20T13:55:41.000Z</time>
      </trkpt>
      <trkpt lat="43.52375" lon="5.51483">
        <ele>219</ele>
        <time>2018-02-20T13:55:42.000Z</time>
      </trkpt>
      <trkpt lat="43.52375" lon="5.51483">
        <ele>219</ele>
        <time>2018-02-20T13:55:43.000Z</time>
      </trkpt>
      <trkpt lat="43.52373" lon="5.51482">
        <ele>220</ele>
        <time>2018-02-20T13:55:44.000Z</time>
      </trkpt>
      <trkpt lat="43.52372" lon="5.51481">
        <ele>220</ele>
        <time>2018-02-20T13:55:45.000Z</time>
      </trkpt>
      <trkpt lat="43.52371" lon="5.5148">
        <ele>220</ele>
        <time>2018-02-20T13:55:46.000Z</time>
      </trkpt>
      <trkpt lat="43.52371" lon="5.51479">
        <ele>220</ele>
        <time>2018-02-20T13:55:47.000Z</time>
      </trkpt>
      <trkpt lat="43.5237" lon="5.51478">
        <ele>220</ele>
        <time>2018-02-20T13:55:48.000Z</time>
      </trkpt>
      <trkpt lat="43.52369" lon="5.51477">
        <ele>220</ele>
        <time>2018-02-20T13:55:49.000Z</time>
      </trkpt>
      <trkpt lat="43.52368" lon="5.51476">
        <ele>220</ele>
        <time>2018-02-20T13:55:50.000Z</time>
      </trkpt>
      <trkpt lat="43.52368" lon="5.51475">
        <ele>220</ele>
        <time>2018-02-20T13:55:51.000Z</time>
      </trkpt>
      <trkpt lat="43.52367" lon="5.51474">
        <ele>220</ele>
        <time>2018-02-20T13:55:52.000Z</time>
      </trkpt>
      <trkpt lat="43.52366" lon="5.51473">
        <ele>220</ele>
        <time>2018-02-20T13:55:53.000Z</time>
      </trkpt>
      <trkpt lat="43.52366" lon="5.51472">
        <ele>220</ele>
        <time>2018-02-20T13:55:54.000Z</time>
      </trkpt>
      <trkpt lat="43.52365" lon="5.51471">
        <ele>220</ele>
        <time>2018-02-20T13:55:55.000Z</time>
      </trkpt>
      <trkpt lat="43.52364" lon="5.5147">
        <ele>220</ele>
        <time>2018-02-20T13:55:56.000Z</time>
      </trkpt>
      <trkpt lat="43.52364" lon="5.5147">
        <ele>221</ele>
        <time>2018-02-20T13:55:57.000Z</time>
      </trkpt>
      <trkpt lat="43.52363" lon="5.51469">
        <ele>221</ele>
        <time>2018-02-20T13:55:58.000Z</time>
      </trkpt>
      <trkpt lat="43.52362" lon="5.51469">
        <ele>221</ele>
        <time>2018-02-20T13:55:59.000Z</time>
      </trkpt>
      <trkpt lat="43.52361" lon="5.51469">
        <ele>221</ele>
        <time>2018-02-20T13:56:00.000Z</time>
      </trkpt>
      <trkpt lat="43.52361" lon="5.51469">
        <ele>221</ele>
        <time>2018-02-20T13:56:01.000Z</time>
      </trkpt>
      <trkpt lat="43.5236" lon="5.51469">
        <ele>221</ele>
        <time>2018-02-20T13:56:02.000Z</time>
      </trkpt>
      <trkpt lat="43.52359" lon="5.51469">
        <ele>221</ele>
        <time>2018-02-20T13:56:03.000Z</time>
      </trkpt>
      <trkpt lat="43.52358" lon="5.51469">
        <ele>221</ele>
        <time>2018-02-20T13:56:04.000Z</time>
      </trkpt>
      <trkpt lat="43.52357" lon="5.51469">
        <ele>221</ele>
        <time>2018-02-20T13:56:05.000Z</time>
      </trkpt>
      <trkpt lat="43.52356" lon="5.51469">
        <ele>221</ele>
        <time>2018-02-20T13:56:06.000Z</time>
      </trkpt>
      <trkpt lat="43.52356" lon="5.51469">
        <ele>221</ele>
        <time>2018-02-20T13:56:07.000Z</time>
      </trkpt>
      <trkpt lat="43.52355" lon="5.51469">
        <ele>221</ele>
        <time>2018-02-20T13:56:08.000Z</time>
      </trkpt>
      <trkpt lat="43.52354" lon="5.51468">
        <ele>221</ele>
        <time>2018-02-20T13:56:09.000Z</time>
      </trkpt>
      <trkpt lat="43.52353" lon="5.51468">
        <ele>221</ele>
        <time>2018-02-20T13:56:10.000Z</time>
      </trkpt>
      <trkpt lat="43.52352" lon="5.51468">
        <ele>221</ele>
        <time>2018-02-20T13:56:11.000Z</time>
      </trkpt>
      <trkpt lat="43.52352" lon="5.51467">
        <ele>222</ele>
        <time>2018-02-20T13:56:12.000Z</time>
      </trkpt>
      <trkpt lat="43.52351" lon="5.51467">
        <ele>222</ele>
        <time>2018-02-20T13:56:13.000Z</time>
      </trkpt>
      <trkpt lat="43.5235" lon="5.51467">
        <ele>222</ele>
        <time>2018-02-20T13:56:14.000Z</time>
      </trkpt>
      <trkpt lat="43.52349" lon="5.51467">
        <ele>222</ele>
        <time>2018-02-20T13:56:15.000Z</time>
      </trkpt>
      <trkpt lat="43.52348" lon="5.51467">
        <ele>222</ele>
        <time>2018-02-20T13:56:16.000Z</time>
      </trkpt>
      <trkpt lat="43.52347" lon="5.51466">
        <ele>222</ele>
        <time>2018-02-20T13:56:17.000Z</time>
      </trkpt>
      <trkpt lat="43.52346" lon="5.51466">
        <ele>222</ele>
        <time>2018-02-20T13:56:18.000Z</time>
      </trkpt>
      <trkpt lat="43.52346" lon="5.51466">
        <ele>222</ele>
        <time>2018-02-20T13:56:19.000Z</time>
      </trkpt>
      <trkpt lat="43.52345" lon="5.51466">
        <ele>222</ele>
        <time>2018-02-20T13:56:20.000Z</time>
      </trkpt>
      <trkpt lat="43.52344" lon="5.51466">
        <ele>222</ele>
        <time>2018-02-20T13:56:21.000Z</time>
      </trkpt>
      <trkpt lat="43.52343" lon="5.51466">
        <ele>223</ele>
        <time>2018-02-20T13:56:22.000Z</time>
      </trkpt>
      <trkpt lat="43.52342" lon="5.51466">
        <ele>223</ele>
        <time>2018-02-20T13:56:23.000Z</time>
      </trkpt>
      <trkpt lat="43.52341" lon="5.51466">
        <ele>223</ele>
        <time>2018-02-20T13:56:24.000Z</time>
      </trkpt>
      <trkpt lat="43.5234" lon="5.51466">
        <ele>223</ele>
        <time>2018-02-20T13:56:25.000Z</time>
      </trkpt>
      <trkpt lat="43.52339" lon="5.51466">
        <ele>223</ele>
        <time>2018-02-20T13:56:26.000Z</time>
      </trkpt>
      <trkpt lat="43.52338" lon="5.51466">
        <ele>223</ele>
        <time>2018-02-20T13:56:27.000Z</time>
      </trkpt>
      <trkpt lat="43.52336" lon="5.51467">
        <ele>223</ele>
        <time>2018-02-20T13:56:28.000Z</time>
      </trkpt>
      <trkpt lat="43.52335" lon="5.51466">
        <ele>223</ele>
        <time>2018-02-20T13:56:29.000Z</time>
      </trkpt>
      <trkpt lat="43.52334" lon="5.51466">
        <ele>222</ele>
        <time>2018-02-20T13:56:30.000Z</time>
      </trkpt>
      <trkpt lat="43.52333" lon="5.51466">
        <ele>222</ele>
        <time>2018-02-20T13:56:31.000Z</time>
      </trkpt>
      <trkpt lat="43.52332" lon="5.51465">
        <ele>222</ele>
        <time>2018-02-20T13:56:32.000Z</time>
      </trkpt>
      <trkpt lat="43.5233" lon="5.51465">
        <ele>222</ele>
        <time>2018-02-20T13:56:33.000Z</time>
      </trkpt>
      <trkpt lat="43.52329" lon="5.51465">
        <ele>222</ele>
        <time>2018-02-20T13:56:34.000Z</time>
      </trkpt>
      <trkpt lat="43.52327" lon="5.51464">
        <ele>221</ele>
        <time>2018-02-20T13:56:35.000Z</time>
      </trkpt>
      <trkpt lat="43.52326" lon="5.51464">
        <ele>221</ele>
        <time>2018-02-20T13:56:36.000Z</time>
      </trkpt>
      <trkpt lat="43.52325" lon="5.51464">
        <ele>221</ele>
        <time>2018-02-20T13:56:37.000Z</time>
      </trkpt>
      <trkpt lat="43.52324" lon="5.51463">
        <ele>221</ele>
        <time>2018-02-20T13:56:38.000Z</time>
      </trkpt>
      <trkpt lat="43.52322" lon="5.51463">
        <ele>220</ele>
        <time>2018-02-20T13:56:39.000Z</time>
      </trkpt>
      <trkpt lat="43.52321" lon="5.51463">
        <ele>220</ele>
        <time>2018-02-20T13:56:40.000Z</time>
      </trkpt>
      <trkpt lat="43.5232" lon="5.51462">
        <ele>220</ele>
        <time>2018-02-20T13:56:41.000Z</time>
      </trkpt>
      <trkpt lat="43.52319" lon="5.51462">
        <ele>220</ele>
        <time>2018-02-20T13:56:42.000Z</time>
      </trkpt>
      <trkpt lat="43.52318" lon="5.51462">
        <ele>219</ele>
        <time>2018-02-20T13:56:43.000Z</time>
      </trkpt>
      <trkpt lat="43.52317" lon="5.51461">
        <ele>219</ele>
        <time>2018-02-20T13:56:44.000Z</time>
      </trkpt>
      <trkpt lat="43.52316" lon="5.51461">
        <ele>219</ele>
        <time>2018-02-20T13:56:45.000Z</time>
      </trkpt>
      <trkpt lat="43.52314" lon="5.51461">
        <ele>219</ele>
        <time>2018-02-20T13:56:46.000Z</time>
      </trkpt>
      <trkpt lat="43.52313" lon="5.51461">
        <ele>218</ele>
        <time>2018-02-20T13:56:47.000Z</time>
      </trkpt>
      <trkpt lat="43.52312" lon="5.5146">
        <ele>218</ele>
        <time>2018-02-20T13:56:48.000Z</time>
      </trkpt>
      <trkpt lat="43.52311" lon="5.5146">
        <ele>218</ele>
        <time>2018-02-20T13:56:49.000Z</time>
      </trkpt>
      <trkpt lat="43.5231" lon="5.5146">
        <ele>218</ele>
        <time>2018-02-20T13:56:50.000Z</time>
      </trkpt>
      <trkpt lat="43.52309" lon="5.5146">
        <ele>218</ele>
        <time>2018-02-20T13:56:51.000Z</time>
      </trkpt>
      <trkpt lat="43.52307" lon="5.51459">
        <ele>217</ele>
        <time>2018-02-20T13:56:52.000Z</time>
      </trkpt>
      <trkpt lat="43.52306" lon="5.51459">
        <ele>217</ele>
        <time>2018-02-20T13:56:53.000Z</time>
      </trkpt>
      <trkpt lat="43.52305" lon="5.51459">
        <ele>217</ele>
        <time>2018-02-20T13:56:54.000Z</time>
      </trkpt>
      <trkpt lat="43.52303" lon="5.51459">
        <ele>217</ele>
        <time>2018-02-20T13:56:55.000Z</time>
      </trkpt>
      <trkpt lat="43.52302" lon="5.51458">
        <ele>216</ele>
        <time>2018-02-20T13:56:56.000Z</time>
      </trkpt>
      <trkpt lat="43.52301" lon="5.51458">
        <ele>216</ele>
        <time>2018-02-20T13:56:57.000Z</time>
      </trkpt>
      <trkpt lat="43.523" lon="5.51458">
        <ele>216</ele>
        <time>2018-02-20T13:56:58.000Z</time>
      </trkpt>
      <trkpt lat="43.52299" lon="5.51458">
        <ele>216</ele>
        <time>2018-02-20T13:56:59.000Z</time>
      </trkpt>
      <trkpt lat="43.52298" lon="5.51458">
        <ele>216</ele>
        <time>2018-02-20T13:57:00.000Z</time>
      </trkpt>
      <trkpt lat="43.52297" lon="5.51457">
        <ele>216</ele>
        <time>2018-02-20T13:57:01.000Z</time>
      </trkpt>
      <trkpt lat="43.52296" lon="5.51457">
        <ele>216</ele>
        <time>2018-02-20T13:57:02.000Z</time>
      </trkpt>
      <trkpt lat="43.52295" lon="5.51458">
        <ele>216</ele>
        <time>2018-02-20T13:57:03.000Z</time>
      </trkpt>
      <trkpt lat="43.52294" lon="5.51458">
        <ele>216</ele>
        <time>2018-02-20T13:57:04.000Z</time>
      </trkpt>
      <trkpt lat="43.52292" lon="5.51458">
        <ele>216</ele>
        <time>2018-02-20T13:57:05.000Z</time>
      </trkpt>
      <trkpt lat="43.52291" lon="5.51458">
        <ele>216</ele>
        <time>2018-02-20T13:57:06.000Z</time>
      </trkpt>
      <trkpt lat="43.52291" lon="5.51457">
        <ele>216</ele>
        <time>2018-02-20T13:57:07.000Z</time>
      </trkpt>
      <trkpt lat="43.52289" lon="5.51457">
        <ele>215</ele>
        <time>2018-02-20T13:57:08.000Z</time>
      </trkpt>
      <trkpt lat="43.52288" lon="5.51457">
        <ele>215</ele>
        <time>2018-02-20T13:57:09.000Z</time>
      </trkpt>
      <trkpt lat="43.52287" lon="5.51456">
        <ele>215</ele>
        <time>2018-02-20T13:57:10.000Z</time>
      </trkpt>
      <trkpt lat="43.52286" lon="5.51456">
        <ele>215</ele>
        <time>2018-02-20T13:57:11.000Z</time>
      </trkpt>
      <trkpt lat="43.52285" lon="5.51456">
        <ele>215</ele>
        <time>2018-02-20T13:57:12.000Z</time>
      </trkpt>
      <trkpt lat="43.52284" lon="5.51456">
        <ele>214</ele>
        <time>2018-02-20T13:57:13.000Z</time>
      </trkpt>
      <trkpt lat="43.52283" lon="5.51456">
        <ele>214</ele>
        <time>2018-02-20T13:57:14.000Z</time>
      </trkpt>
      <trkpt lat="43.52281" lon="5.51455">
        <ele>214</ele>
        <time>2018-02-20T13:57:15.000Z</time>
      </trkpt>
      <trkpt lat="43.5228" lon="5.51455">
        <ele>214</ele>
        <time>2018-02-20T13:57:16.000Z</time>
      </trkpt>
      <trkpt lat="43.52279" lon="5.51455">
        <ele>213</ele>
        <time>2018-02-20T13:57:17.000Z</time>
      </trkpt>
      <trkpt lat="43.52278" lon="5.51454">
        <ele>213</ele>
        <time>2018-02-20T13:57:18.000Z</time>
      </trkpt>
      <trkpt lat="43.52276" lon="5.51454">
        <ele>213</ele>
        <time>2018-02-20T13:57:19.000Z</time>
      </trkpt>
      <trkpt lat="43.52275" lon="5.51454">
        <ele>212</ele>
        <time>2018-02-20T13:57:20.000Z</time>
      </trkpt>
      <trkpt lat="43.52274" lon="5.51453">
        <ele>212</ele>
        <time>2018-02-20T13:57:21.000Z</time>
      </trkpt>
      <trkpt lat="43.52273" lon="5.51453">
        <ele>212</ele>
        <time>2018-02-20T13:57:22.000Z</time>
      </trkpt>
      <trkpt lat="43.52272" lon="5.51452">
        <ele>212</ele>
        <time>2018-02-20T13:57:23.000Z</time>
      </trkpt>
      <trkpt lat="43.52272" lon="5.51452">
        <ele>212</ele>
        <time>2018-02-20T13:57:24.000Z</time>
      </trkpt>
      <trkpt lat="43.52271" lon="5.51451">
        <ele>211</ele>
        <time>2018-02-20T13:57:25.000Z</time>
      </trkpt>
      <trkpt lat="43.52271" lon="5.51451">
        <ele>211</ele>
        <time>2018-02-20T13:57:26.000Z</time>
      </trkpt>
      <trkpt lat="43.5227" lon="5.5145">
        <ele>211</ele>
        <time>2018-02-20T13:57:27.000Z</time>
      </trkpt>
      <trkpt lat="43.5227" lon="5.51449">
        <ele>211</ele>
        <time>2018-02-20T13:57:28.000Z</time>
      </trkpt>
      <trkpt lat="43.52269" lon="5.51448">
        <ele>211</ele>
        <time>2018-02-20T13:57:29.000Z</time>
      </trkpt>
      <trkpt lat="43.52268" lon="5.51448">
        <ele>210</ele>
        <time>2018-02-20T13:57:30.000Z</time>
      </trkpt>
      <trkpt lat="43.52267" lon="5.51448">
        <ele>210</ele>
        <time>2018-02-20T13:57:31.000Z</time>
      </trkpt>
      <trkpt lat="43.52266" lon="5.51447">
        <ele>210</ele>
        <time>2018-02-20T13:57:32.000Z</time>
      </trkpt>
      <trkpt lat="43.52265" lon="5.51447">
        <ele>210</ele>
        <time>2018-02-20T13:57:33.000Z</time>
      </trkpt>
      <trkpt lat="43.52264" lon="5.51447">
        <ele>210</ele>
        <time>2018-02-20T13:57:34.000Z</time>
      </trkpt>
      <trkpt lat="43.52262" lon="5.51446">
        <ele>210</ele>
        <time>2018-02-20T13:57:35.000Z</time>
      </trkpt>
      <trkpt lat="43.52261" lon="5.51446">
        <ele>210</ele>
        <time>2018-02-20T13:57:36.000Z</time>
      </trkpt>
      <trkpt lat="43.5226" lon="5.51445">
        <ele>210</ele>
        <time>2018-02-20T13:57:37.000Z</time>
      </trkpt>
      <trkpt lat="43.52259" lon="5.51445">
        <ele>210</ele>
        <time>2018-02-20T13:57:38.000Z</time>
      </trkpt>
      <trkpt lat="43.52258" lon="5.51444">
        <ele>210</ele>
        <time>2018-02-20T13:57:39.000Z</time>
      </trkpt>
      <trkpt lat="43.52258" lon="5.51444">
        <ele>209</ele>
        <time>2018-02-20T13:57:40.000Z</time>
      </trkpt>
      <trkpt lat="43.52258" lon="5.51444">
        <ele>209</ele>
        <time>2018-02-20T13:57:41.000Z</time>
      </trkpt>
      <trkpt lat="43.52258" lon="5.51443">
        <ele>209</ele>
        <time>2018-02-20T13:57:42.000Z</time>
      </trkpt>
      <trkpt lat="43.52258" lon="5.51443">
        <ele>209</ele>
        <time>2018-02-20T13:57:43.000Z</time>
      </trkpt>
      <trkpt lat="43.52258" lon="5.51443">
        <ele>209</ele>
        <time>2018-02-20T13:57:44.000Z</time>
      </trkpt>
      <trkpt lat="43.52258" lon="5.51443">
        <ele>209</ele>
        <time>2018-02-20T13:57:45.000Z</time>
      </trkpt>
      <trkpt lat="43.52257" lon="5.51443">
        <ele>209</ele>
        <time>2018-02-20T13:57:46.000Z</time>
      </trkpt>
      <trkpt lat="43.52257" lon="5.51443">
        <ele>209</ele>
        <time>2018-02-20T13:57:47.000Z</time>
      </trkpt>
      <trkpt lat="43.52257" lon="5.51443">
        <ele>209</ele>
        <time>2018-02-20T13:57:48.000Z</time>
      </trkpt>
      <trkpt lat="43.52257" lon="5.51443">
        <ele>209</ele>
        <time>2018-02-20T13:57:49.000Z</time>
      </trkpt>
      <trkpt lat="43.52257" lon="5.51443">
        <ele>209</ele>
        <time>2018-02-20T13:57:50.000Z</time>
      </trkpt>
      <trkpt lat="43.52256" lon="5.51443">
        <ele>209</ele>
        <time>2018-02-20T13:57:51.000Z</time>
      </trkpt>
      <trkpt lat="43.52256" lon="5.51443">
        <ele>209</ele>
        <time>2018-02-20T13:57:52.000Z</time>
      </trkpt>
      <trkpt lat="43.52255" lon="5.51442">
        <ele>209</ele>
        <time>2018-02-20T13:57:53.000Z</time>
      </trkpt>
      <trkpt lat="43.52254" lon="5.51442">
        <ele>209</ele>
        <time>2018-02-20T13:57:54.000Z</time>
      </trkpt>
      <trkpt lat="43.52253" lon="5.51442">
        <ele>209</ele>
        <time>2018-02-20T13:57:55.000Z</time>
      </trkpt>
      <trkpt lat="43.52252" lon="5.51442">
        <ele>209</ele>
        <time>2018-02-20T13:57:56.000Z</time>
      </trkpt>
      <trkpt lat="43.52252" lon="5.51441">
        <ele>209</ele>
        <time>2018-02-20T13:57:57.000Z</time>
      </trkpt>
      <trkpt lat="43.52252" lon="5.51441">
        <ele>209</ele>
        <time>2018-02-20T13:57:58.000Z</time>
      </trkpt>
      <trkpt lat="43.52252" lon="5.51441">
        <ele>209</ele>
        <time>2018-02-20T13:57:59.000Z</time>
      </trkpt>
      <trkpt lat="43.52252" lon="5.51441">
        <ele>209</ele>
        <time>2018-02-20T13:58:00.000Z</time>
      </trkpt>
      <trkpt lat="43.52252" lon="5.51441">
        <ele>209</ele>
        <time>2018-02-20T13:58:01.000Z</time>
      </trkpt>
      <trkpt lat="43.52252" lon="5.51441">
        <ele>209</ele>
        <time>2018-02-20T13:58:02.000Z</time>
      </trkpt>
      <trkpt lat="43.52252" lon="5.51441">
        <ele>209</ele>
        <time>2018-02-20T13:58:03.000Z</time>
      </trkpt>
      <trkpt lat="43.52252" lon="5.51441">
        <ele>209</ele>
        <time>2018-02-20T13:58:04.000Z</time>
      </trkpt>
      <trkpt lat="43.52252" lon="5.51441">
        <ele>209</ele>
        <time>2018-02-20T13:58:05.000Z</time>
      </trkpt>
      <trkpt lat="43.52252" lon="5.51441">
        <ele>209</ele>
        <time>2018-02-20T13:58:06.000Z</time>
      </trkpt>
      <trkpt lat="43.52252" lon="5.51441">
        <ele>209</ele>
        <time>2018-02-20T13:58:07.000Z</time>
      </trkpt>
      <trkpt lat="43.52252" lon="5.51441">
        <ele>209</ele>
        <time>2018-02-20T13:58:08.000Z</time>
      </trkpt>
      <trkpt lat="43.52252" lon="5.51441">
        <ele>209</ele>
        <time>2018-02-20T13:58:09.000Z</time>
      </trkpt>
      <trkpt lat="43.52252" lon="5.51441">
        <ele>209</ele>
        <time>2018-02-20T13:58:10.000Z</time>
      </trkpt>
      <trkpt lat="43.52252" lon="5.51441">
        <ele>209</ele>
        <time>2018-02-20T13:58:11.000Z</time>
      </trkpt>
      <trkpt lat="43.52252" lon="5.51441">
        <ele>209</ele>
        <time>2018-02-20T13:58:12.000Z</time>
      </trkpt>
      <trkpt lat="43.52252" lon="5.51441">
        <ele>209</ele>
        <time>2018-02-20T13:58:13.000Z</time>
      </trkpt>
      <trkpt lat="43.52251" lon="5.51441">
        <ele>209</ele>
        <time>2018-02-20T13:58:14.000Z</time>
      </trkpt>
      <trkpt lat="43.52251" lon="5.51441">
        <ele>209</ele>
        <time>2018-02-20T13:58:15.000Z</time>
      </trkpt>
      <trkpt lat="43.52251" lon="5.51441">
        <ele>209</ele>
        <time>2018-02-20T13:58:16.000Z</time>
      </trkpt>
      <trkpt lat="43.5225" lon="5.51442">
        <ele>210</ele>
        <time>2018-02-20T13:58:17.000Z</time>
      </trkpt>
      <trkpt lat="43.52249" lon="5.51442">
        <ele>210</ele>
        <time>2018-02-20T13:58:18.000Z</time>
      </trkpt>
      <trkpt lat="43.52249" lon="5.51443">
        <ele>210</ele>
        <time>2018-02-20T13:58:19.000Z</time>
      </trkpt>
      <trkpt lat="43.52248" lon="5.51443">
        <ele>210</ele>
        <time>2018-02-20T13:58:20.000Z</time>
      </trkpt>
      <trkpt lat="43.52247" lon="5.51443">
        <ele>210</ele>
        <time>2018-02-20T13:58:21.000Z</time>
      </trkpt>
      <trkpt lat="43.52247" lon="5.51443">
        <ele>210</ele>
        <time>2018-02-20T13:58:22.000Z</time>
      </trkpt>
      <trkpt lat="43.52246" lon="5.51442">
        <ele>210</ele>
        <time>2018-02-20T13:58:23.000Z</time>
      </trkpt>
      <trkpt lat="43.52245" lon="5.51442">
        <ele>210</ele>
        <time>2018-02-20T13:58:24.000Z</time>
      </trkpt>
      <trkpt lat="43.52245" lon="5.51442">
        <ele>210</ele>
        <time>2018-02-20T13:58:25.000Z</time>
      </trkpt>
      <trkpt lat="43.52245" lon="5.51442">
        <ele>210</ele>
        <time>2018-02-20T13:58:26.000Z</time>
      </trkpt>
      <trkpt lat="43.52246" lon="5.51443">
        <ele>210</ele>
        <time>2018-02-20T13:58:27.000Z</time>
      </trkpt>
      <trkpt lat="43.52246" lon="5.51443">
        <ele>209</ele>
        <time>2018-02-20T13:58:28.000Z</time>
      </trkpt>
      <trkpt lat="43.52246" lon="5.51443">
        <ele>209</ele>
        <time>2018-02-20T13:58:29.000Z</time>
      </trkpt>
      <trkpt lat="43.52246" lon="5.51444">
        <ele>209</ele>
        <time>2018-02-20T13:58:30.000Z</time>
      </trkpt>
      <trkpt lat="43.52245" lon="5.51444">
        <ele>209</ele>
        <time>2018-02-20T13:58:31.000Z</time>
      </trkpt>
      <trkpt lat="43.52245" lon="5.51444">
        <ele>209</ele>
        <time>2018-02-20T13:58:32.000Z</time>
      </trkpt>
      <trkpt lat="43.52245" lon="5.51445">
        <ele>209</ele>
        <time>2018-02-20T13:58:33.000Z</time>
      </trkpt>
      <trkpt lat="43.52245" lon="5.51445">
        <ele>209</ele>
        <time>2018-02-20T13:58:34.000Z</time>
      </trkpt>
      <trkpt lat="43.52244" lon="5.51445">
        <ele>209</ele>
        <time>2018-02-20T13:58:35.000Z</time>
      </trkpt>
      <trkpt lat="43.52244" lon="5.51445">
        <ele>209</ele>
        <time>2018-02-20T13:58:36.000Z</time>
      </trkpt>
      <trkpt lat="43.52244" lon="5.51446">
        <ele>208</ele>
        <time>2018-02-20T13:58:37.000Z</time>
      </trkpt>
      <trkpt lat="43.52244" lon="5.51447">
        <ele>208</ele>
        <time>2018-02-20T13:58:38.000Z</time>
      </trkpt>
      <trkpt lat="43.52243" lon="5.51448">
        <ele>208</ele>
        <time>2018-02-20T13:58:39.000Z</time>
      </trkpt>
      <trkpt lat="43.52243" lon="5.51449">
        <ele>207</ele>
        <time>2018-02-20T13:58:40.000Z</time>
      </trkpt>
      <trkpt lat="43.52242" lon="5.51449">
        <ele>207</ele>
        <time>2018-02-20T13:58:41.000Z</time>
      </trkpt>
      <trkpt lat="43.52241" lon="5.51449">
        <ele>207</ele>
        <time>2018-02-20T13:58:42.000Z</time>
      </trkpt>
      <trkpt lat="43.5224" lon="5.5145">
        <ele>207</ele>
        <time>2018-02-20T13:58:43.000Z</time>
      </trkpt>
      <trkpt lat="43.52239" lon="5.51449">
        <ele>207</ele>
        <time>2018-02-20T13:58:44.000Z</time>
      </trkpt>
      <trkpt lat="43.52239" lon="5.51449">
        <ele>206</ele>
        <time>2018-02-20T13:58:45.000Z</time>
      </trkpt>
      <trkpt lat="43.52238" lon="5.51449">
        <ele>206</ele>
        <time>2018-02-20T13:58:46.000Z</time>
      </trkpt>
      <trkpt lat="43.52237" lon="5.51449">
        <ele>206</ele>
        <time>2018-02-20T13:58:47.000Z</time>
      </trkpt>
      <trkpt lat="43.52237" lon="5.51449">
        <ele>206</ele>
        <time>2018-02-20T13:58:48.000Z</time>
      </trkpt>
      <trkpt lat="43.52236" lon="5.51449">
        <ele>205</ele>
        <time>2018-02-20T13:58:49.000Z</time>
      </trkpt>
      <trkpt lat="43.52236" lon="5.51449">
        <ele>205</ele>
        <time>2018-02-20T13:58:50.000Z</time>
      </trkpt>
      <trkpt lat="43.52236" lon="5.51449">
        <ele>205</ele>
        <time>2018-02-20T13:58:51.000Z</time>
      </trkpt>
      <trkpt lat="43.52236" lon="5.51449">
        <ele>205</ele>
        <time>2018-02-20T13:58:52.000Z</time>
      </trkpt>
      <trkpt lat="43.52236" lon="5.51449">
        <ele>204</ele>
        <time>2018-02-20T13:58:53.000Z</time>
      </trkpt>
      <trkpt lat="43.52235" lon="5.51449">
        <ele>204</ele>
        <time>2018-02-20T13:58:54.000Z</time>
      </trkpt>
      <trkpt lat="43.52235" lon="5.51449">
        <ele>204</ele>
        <time>2018-02-20T13:58:55.000Z</time>
      </trkpt>
      <trkpt lat="43.52235" lon="5.51449">
        <ele>204</ele>
        <time>2018-02-20T13:58:56.000Z</time>
      </trkpt>
      <trkpt lat="43.52235" lon="5.51449">
        <ele>204</ele>
        <time>2018-02-20T13:58:57.000Z</time>
      </trkpt>
      <trkpt lat="43.52235" lon="5.51449">
        <ele>204</ele>
        <time>2018-02-20T13:58:58.000Z</time>
      </trkpt>
      <trkpt lat="43.52235" lon="5.51449">
        <ele>204</ele>
        <time>2018-02-20T13:58:59.000Z</time>
      </trkpt>
      <trkpt lat="43.52235" lon="5.51449">
        <ele>204</ele>
        <time>2018-02-20T13:59:00.000Z</time>
      </trkpt>
      <trkpt lat="43.52235" lon="5.51449">
        <ele>204</ele>
        <time>2018-02-20T13:59:01.000Z</time>
      </trkpt>
      <trkpt lat="43.52235" lon="5.51449">
        <ele>204</ele>
        <time>2018-02-20T13:59:02.000Z</time>
      </trkpt>
      <trkpt lat="43.52235" lon="5.51449">
        <ele>203</ele>
        <time>2018-02-20T13:59:03.000Z</time>
      </trkpt>
      <trkpt lat="43.52235" lon="5.51449">
        <ele>203</ele>
        <time>2018-02-20T13:59:04.000Z</time>
      </trkpt>
      <trkpt lat="43.52235" lon="5.51449">
        <ele>203</ele>
        <time>2018-02-20T13:59:05.000Z</time>
      </trkpt>
      <trkpt lat="43.52235" lon="5.51449">
        <ele>203</ele>
        <time>2018-02-20T13:59:06.000Z</time>
      </trkpt>
      <trkpt lat="43.52235" lon="5.51449">
        <ele>203</ele>
        <time>2018-02-20T13:59:07.000Z</time>
      </trkpt>
      <trkpt lat="43.52235" lon="5.51448">
        <ele>203</ele>
        <time>2018-02-20T13:59:08.000Z</time>
      </trkpt>
      <trkpt lat="43.52235" lon="5.51447">
        <ele>203</ele>
        <time>2018-02-20T13:59:09.000Z</time>
      </trkpt>
      <trkpt lat="43.52234" lon="5.51446">
        <ele>203</ele>
        <time>2018-02-20T13:59:10.000Z</time>
      </trkpt>
      <trkpt lat="43.52235" lon="5.51444">
        <ele>203</ele>
        <time>2018-02-20T13:59:11.000Z</time>
      </trkpt>
      <trkpt lat="43.52235" lon="5.51443">
        <ele>203</ele>
        <time>2018-02-20T13:59:12.000Z</time>
      </trkpt>
      <trkpt lat="43.52236" lon="5.51442">
        <ele>203</ele>
        <time>2018-02-20T13:59:13.000Z</time>
      </trkpt>
      <trkpt lat="43.52237" lon="5.51441">
        <ele>203</ele>
        <time>2018-02-20T13:59:14.000Z</time>
      </trkpt>
      <trkpt lat="43.52238" lon="5.5144">
        <ele>203</ele>
        <time>2018-02-20T13:59:15.000Z</time>
      </trkpt>
      <trkpt lat="43.52239" lon="5.5144">
        <ele>203</ele>
        <time>2018-02-20T13:59:16.000Z</time>
      </trkpt>
      <trkpt lat="43.5224" lon="5.5144">
        <ele>203</ele>
        <time>2018-02-20T13:59:17.000Z</time>
      </trkpt>
      <trkpt lat="43.52241" lon="5.5144">
        <ele>202</ele>
        <time>2018-02-20T13:59:18.000Z</time>
      </trkpt>
      <trkpt lat="43.52241" lon="5.5144">
        <ele>202</ele>
        <time>2018-02-20T13:59:19.000Z</time>
      </trkpt>
      <trkpt lat="43.52242" lon="5.5144">
        <ele>202</ele>
        <time>2018-02-20T13:59:20.000Z</time>
      </trkpt>
      <trkpt lat="43.52242" lon="5.5144">
        <ele>202</ele>
        <time>2018-02-20T13:59:21.000Z</time>
      </trkpt>
      <trkpt lat="43.52243" lon="5.51441">
        <ele>203</ele>
        <time>2018-02-20T13:59:22.000Z</time>
      </trkpt>
      <trkpt lat="43.52243" lon="5.51441">
        <ele>203</ele>
        <time>2018-02-20T13:59:23.000Z</time>
      </trkpt>
      <trkpt lat="43.52243" lon="5.51441">
        <ele>203</ele>
        <time>2018-02-20T13:59:24.000Z</time>
      </trkpt>
      <trkpt lat="43.52243" lon="5.51441">
        <ele>203</ele>
        <time>2018-02-20T13:59:25.000Z</time>
      </trkpt>
      <trkpt lat="43.52243" lon="5.51441">
        <ele>203</ele>
        <time>2018-02-20T13:59:26.000Z</time>
      </trkpt>
      <trkpt lat="43.52244" lon="5.5144">
        <ele>203</ele>
        <time>2018-02-20T13:59:27.000Z</time>
      </trkpt>
      <trkpt lat="43.52244" lon="5.5144">
        <ele>203</ele>
        <time>2018-02-20T13:59:28.000Z</time>
      </trkpt>
      <trkpt lat="43.52244" lon="5.51441">
        <ele>203</ele>
        <time>2018-02-20T13:59:29.000Z</time>
      </trkpt>
      <trkpt lat="43.52244" lon="5.5144">
        <ele>203</ele>
        <time>2018-02-20T13:59:30.000Z</time>
      </trkpt>
      <trkpt lat="43.52244" lon="5.5144">
        <ele>203</ele>
        <time>2018-02-20T13:59:31.000Z</time>
      </trkpt>
      <trkpt lat="43.52245" lon="5.5144">
        <ele>203</ele>
        <time>2018-02-20T13:59:32.000Z</time>
      </trkpt>
      <trkpt lat="43.52245" lon="5.5144">
        <ele>204</ele>
        <time>2018-02-20T13:59:33.000Z</time>
      </trkpt>
      <trkpt lat="43.52245" lon="5.5144">
        <ele>204</ele>
        <time>2018-02-20T13:59:34.000Z</time>
      </trkpt>
      <trkpt lat="43.52245" lon="5.51439">
        <ele>204</ele>
        <time>2018-02-20T13:59:35.000Z</time>
      </trkpt>
      <trkpt lat="43.52245" lon="5.51439">
        <ele>204</ele>
        <time>2018-02-20T13:59:36.000Z</time>
      </trkpt>
      <trkpt lat="43.52245" lon="5.51439">
        <ele>204</ele>
        <time>2018-02-20T13:59:37.000Z</time>
      </trkpt>
      <trkpt lat="43.52246" lon="5.51439">
        <ele>204</ele>
        <time>2018-02-20T13:59:38.000Z</time>
      </trkpt>
      <trkpt lat="43.52246" lon="5.51439">
        <ele>204</ele>
        <time>2018-02-20T13:59:39.000Z</time>
      </trkpt>
      <trkpt lat="43.52246" lon="5.51438">
        <ele>204</ele>
        <time>2018-02-20T13:59:40.000Z</time>
      </trkpt>
      <trkpt lat="43.52246" lon="5.51438">
        <ele>204</ele>
        <time>2018-02-20T13:59:41.000Z</time>
      </trkpt>
      <trkpt lat="43.52246" lon="5.51438">
        <ele>204</ele>
        <time>2018-02-20T13:59:42.000Z</time>
      </trkpt>
      <trkpt lat="43.52246" lon="5.51438">
        <ele>204</ele>
        <time>2018-02-20T13:59:43.000Z</time>
      </trkpt>
      <trkpt lat="43.52246" lon="5.51437">
        <ele>204</ele>
        <time>2018-02-20T13:59:44.000Z</time>
      </trkpt>
      <trkpt lat="43.52245" lon="5.51436">
        <ele>204</ele>
        <time>2018-02-20T13:59:45.000Z</time>
      </trkpt>
      <trkpt lat="43.52245" lon="5.51435">
        <ele>204</ele>
        <time>2018-02-20T13:59:46.000Z</time>
      </trkpt>
      <trkpt lat="43.52245" lon="5.51434">
        <ele>204</ele>
        <time>2018-02-20T13:59:47.000Z</time>
      </trkpt>
      <trkpt lat="43.52245" lon="5.51434">
        <ele>204</ele>
        <time>2018-02-20T13:59:48.000Z</time>
      </trkpt>
      <trkpt lat="43.52244" lon="5.51433">
        <ele>204</ele>
        <time>2018-02-20T13:59:49.000Z</time>
      </trkpt>
      <trkpt lat="43.52244" lon="5.51432">
        <ele>204</ele>
        <time>2018-02-20T13:59:50.000Z</time>
      </trkpt>
      <trkpt lat="43.52243" lon="5.51432">
        <ele>204</ele>
        <time>2018-02-20T13:59:51.000Z</time>
      </trkpt>
      <trkpt lat="43.52243" lon="5.51432">
        <ele>204</ele>
        <time>2018-02-20T13:59:52.000Z</time>
      </trkpt>
      <trkpt lat="43.52242" lon="5.51431">
        <ele>204</ele>
        <time>2018-02-20T13:59:53.000Z</time>
      </trkpt>
      <trkpt lat="43.52241" lon="5.51431">
        <ele>204</ele>
        <time>2018-02-20T13:59:54.000Z</time>
      </trkpt>
      <trkpt lat="43.52241" lon="5.51431">
        <ele>204</ele>
        <time>2018-02-20T13:59:55.000Z</time>
      </trkpt>
      <trkpt lat="43.5224" lon="5.51431">
        <ele>204</ele>
        <time>2018-02-20T13:59:56.000Z</time>
      </trkpt>
      <trkpt lat="43.5224" lon="5.51431">
        <ele>205</ele>
        <time>2018-02-20T13:59:57.000Z</time>
      </trkpt>
      <trkpt lat="43.5224" lon="5.51431">
        <ele>205</ele>
        <time>2018-02-20T13:59:58.000Z</time>
      </trkpt>
      <trkpt lat="43.5224" lon="5.51431">
        <ele>205</ele>
        <time>2018-02-20T13:59:59.000Z</time>
      </trkpt>
      <trkpt lat="43.5224" lon="5.51431">
        <ele>205</ele>
        <time>2018-02-20T14:00:00.000Z</time>
      </trkpt>
      <trkpt lat="43.5224" lon="5.51431">
        <ele>205</ele>
        <time>2018-02-20T14:00:01.000Z</time>
      </trkpt>
      <trkpt lat="43.52239" lon="5.51431">
        <ele>205</ele>
        <time>2018-02-20T14:00:02.000Z</time>
      </trkpt>
      <trkpt lat="43.52239" lon="5.51431">
        <ele>205</ele>
        <time>2018-02-20T14:00:03.000Z</time>
      </trkpt>
      <trkpt lat="43.52238" lon="5.51431">
        <ele>205</ele>
        <time>2018-02-20T14:00:04.000Z</time>
      </trkpt>
      <trkpt lat="43.52238" lon="5.51431">
        <ele>205</ele>
        <time>2018-02-20T14:00:05.000Z</time>
      </trkpt>
      <trkpt lat="43.52236" lon="5.51432">
        <ele>205</ele>
        <time>2018-02-20T14:00:06.000Z</time>
      </trkpt>
      <trkpt lat="43.52236" lon="5.51432">
        <ele>205</ele>
        <time>2018-02-20T14:00:07.000Z</time>
      </trkpt>
      <trkpt lat="43.52234" lon="5.51432">
        <ele>206</ele>
        <time>2018-02-20T14:00:08.000Z</time>
      </trkpt>
      <trkpt lat="43.52233" lon="5.51433">
        <ele>206</ele>
        <time>2018-02-20T14:00:09.000Z</time>
      </trkpt>
      <trkpt lat="43.52232" lon="5.51433">
        <ele>206</ele>
        <time>2018-02-20T14:00:10.000Z</time>
      </trkpt>
      <trkpt lat="43.52231" lon="5.51433">
        <ele>206</ele>
        <time>2018-02-20T14:00:11.000Z</time>
      </trkpt>
      <trkpt lat="43.5223" lon="5.51433">
        <ele>206</ele>
        <time>2018-02-20T14:00:12.000Z</time>
      </trkpt>
      <trkpt lat="43.52229" lon="5.51433">
        <ele>206</ele>
        <time>2018-02-20T14:00:13.000Z</time>
      </trkpt>
      <trkpt lat="43.52228" lon="5.51434">
        <ele>206</ele>
        <time>2018-02-20T14:00:14.000Z</time>
      </trkpt>
      <trkpt lat="43.52227" lon="5.51434">
        <ele>207</ele>
        <time>2018-02-20T14:00:15.000Z</time>
      </trkpt>
      <trkpt lat="43.52226" lon="5.51434">
        <ele>207</ele>
        <time>2018-02-20T14:00:16.000Z</time>
      </trkpt>
      <trkpt lat="43.52225" lon="5.51434">
        <ele>207</ele>
        <time>2018-02-20T14:00:17.000Z</time>
      </trkpt>
      <trkpt lat="43.52224" lon="5.51433">
        <ele>207</ele>
        <time>2018-02-20T14:00:18.000Z</time>
      </trkpt>
      <trkpt lat="43.52224" lon="5.51433">
        <ele>207</ele>
        <time>2018-02-20T14:00:19.000Z</time>
      </trkpt>
      <trkpt lat="43.52223" lon="5.51433">
        <ele>207</ele>
        <time>2018-02-20T14:00:20.000Z</time>
      </trkpt>
      <trkpt lat="43.52223" lon="5.51433">
        <ele>208</ele>
        <time>2018-02-20T14:00:21.000Z</time>
      </trkpt>
      <trkpt lat="43.52223" lon="5.51433">
        <ele>208</ele>
        <time>2018-02-20T14:00:22.000Z</time>
      </trkpt>
      <trkpt lat="43.52223" lon="5.51433">
        <ele>208</ele>
        <time>2018-02-20T14:00:23.000Z</time>
      </trkpt>
      <trkpt lat="43.52222" lon="5.51433">
        <ele>208</ele>
        <time>2018-02-20T14:00:24.000Z</time>
      </trkpt>
      <trkpt lat="43.52222" lon="5.51433">
        <ele>208</ele>
        <time>2018-02-20T14:00:25.000Z</time>
      </trkpt>
      <trkpt lat="43.52222" lon="5.51433">
        <ele>208</ele>
        <time>2018-02-20T14:00:26.000Z</time>
      </trkpt>
      <trkpt lat="43.52222" lon="5.51433">
        <ele>208</ele>
        <time>2018-02-20T14:00:27.000Z</time>
      </trkpt>
      <trkpt lat="43.52222" lon="5.51434">
        <ele>208</ele>
        <time>2018-02-20T14:00:28.000Z</time>
      </trkpt>
      <trkpt lat="43.52221" lon="5.51434">
        <ele>208</ele>
        <time>2018-02-20T14:00:29.000Z</time>
      </trkpt>
      <trkpt lat="43.52221" lon="5.51434">
        <ele>208</ele>
        <time>2018-02-20T14:00:30.000Z</time>
      </trkpt>
      <trkpt lat="43.5222" lon="5.51433">
        <ele>208</ele>
        <time>2018-02-20T14:00:31.000Z</time>
      </trkpt>
      <trkpt lat="43.5222" lon="5.51432">
        <ele>208</ele>
        <time>2018-02-20T14:00:32.000Z</time>
      </trkpt>
      <trkpt lat="43.52219" lon="5.51431">
        <ele>208</ele>
        <time>2018-02-20T14:00:33.000Z</time>
      </trkpt>
      <trkpt lat="43.52219" lon="5.51429">
        <ele>208</ele>
        <time>2018-02-20T14:00:34.000Z</time>
      </trkpt>
      <trkpt lat="43.52219" lon="5.51428">
        <ele>208</ele>
        <time>2018-02-20T14:00:35.000Z</time>
      </trkpt>
      <trkpt lat="43.52219" lon="5.51428">
        <ele>208</ele>
        <time>2018-02-20T14:00:36.000Z</time>
      </trkpt>
      <trkpt lat="43.52218" lon="5.51426">
        <ele>208</ele>
        <time>2018-02-20T14:00:37.000Z</time>
      </trkpt>
      <trkpt lat="43.52218" lon="5.51425">
        <ele>208</ele>
        <time>2018-02-20T14:00:38.000Z</time>
      </trkpt>
      <trkpt lat="43.52218" lon="5.51424">
        <ele>208</ele>
        <time>2018-02-20T14:00:39.000Z</time>
      </trkpt>
      <trkpt lat="43.52218" lon="5.51422">
        <ele>208</ele>
        <time>2018-02-20T14:00:40.000Z</time>
      </trkpt>
      <trkpt lat="43.52217" lon="5.5142">
        <ele>208</ele>
        <time>2018-02-20T14:00:41.000Z</time>
      </trkpt>
      <trkpt lat="43.52217" lon="5.51418">
        <ele>208</ele>
        <time>2018-02-20T14:00:42.000Z</time>
      </trkpt>
      <trkpt lat="43.52217" lon="5.51416">
        <ele>208</ele>
        <time>2018-02-20T14:00:43.000Z</time>
      </trkpt>
      <trkpt lat="43.52216" lon="5.51414">
        <ele>208</ele>
        <time>2018-02-20T14:00:44.000Z</time>
      </trkpt>
      <trkpt lat="43.52216" lon="5.51413">
        <ele>208</ele>
        <time>2018-02-20T14:00:45.000Z</time>
      </trkpt>
      <trkpt lat="43.52216" lon="5.51411">
        <ele>208</ele>
        <time>2018-02-20T14:00:46.000Z</time>
      </trkpt>
      <trkpt lat="43.52215" lon="5.51409">
        <ele>208</ele>
        <time>2018-02-20T14:00:47.000Z</time>
      </trkpt>
      <trkpt lat="43.52215" lon="5.51407">
        <ele>208</ele>
        <time>2018-02-20T14:00:48.000Z</time>
      </trkpt>
      <trkpt lat="43.52215" lon="5.51406">
        <ele>207</ele>
        <time>2018-02-20T14:00:49.000Z</time>
      </trkpt>
      <trkpt lat="43.52215" lon="5.51404">
        <ele>207</ele>
        <time>2018-02-20T14:00:50.000Z</time>
      </trkpt>
      <trkpt lat="43.52215" lon="5.51402">
        <ele>207</ele>
        <time>2018-02-20T14:00:51.000Z</time>
      </trkpt>
      <trkpt lat="43.52214" lon="5.514">
        <ele>207</ele>
        <time>2018-02-20T14:00:52.000Z</time>
      </trkpt>
      <trkpt lat="43.52214" lon="5.51399">
        <ele>207</ele>
        <time>2018-02-20T14:00:53.000Z</time>
      </trkpt>
      <trkpt lat="43.52214" lon="5.51397">
        <ele>207</ele>
        <time>2018-02-20T14:00:54.000Z</time>
      </trkpt>
      <trkpt lat="43.52213" lon="5.51395">
        <ele>207</ele>
        <time>2018-02-20T14:00:55.000Z</time>
      </trkpt>
      <trkpt lat="43.52213" lon="5.51393">
        <ele>207</ele>
        <time>2018-02-20T14:00:56.000Z</time>
      </trkpt>
      <trkpt lat="43.52213" lon="5.51391">
        <ele>207</ele>
        <time>2018-02-20T14:00:57.000Z</time>
      </trkpt>
      <trkpt lat="43.52213" lon="5.51389">
        <ele>207</ele>
        <time>2018-02-20T14:00:58.000Z</time>
      </trkpt>
      <trkpt lat="43.52213" lon="5.51387">
        <ele>207</ele>
        <time>2018-02-20T14:00:59.000Z</time>
      </trkpt>
      <trkpt lat="43.52213" lon="5.51385">
        <ele>207</ele>
        <time>2018-02-20T14:01:00.000Z</time>
      </trkpt>
      <trkpt lat="43.52213" lon="5.51383">
        <ele>207</ele>
        <time>2018-02-20T14:01:01.000Z</time>
      </trkpt>
      <trkpt lat="43.52213" lon="5.51382">
        <ele>207</ele>
        <time>2018-02-20T14:01:02.000Z</time>
      </trkpt>
      <trkpt lat="43.52213" lon="5.5138">
        <ele>207</ele>
        <time>2018-02-20T14:01:03.000Z</time>
      </trkpt>
      <trkpt lat="43.52213" lon="5.51378">
        <ele>206</ele>
        <time>2018-02-20T14:01:04.000Z</time>
      </trkpt>
      <trkpt lat="43.52212" lon="5.51377">
        <ele>206</ele>
        <time>2018-02-20T14:01:05.000Z</time>
      </trkpt>
      <trkpt lat="43.52212" lon="5.51375">
        <ele>206</ele>
        <time>2018-02-20T14:01:06.000Z</time>
      </trkpt>
      <trkpt lat="43.52212" lon="5.51373">
        <ele>206</ele>
        <time>2018-02-20T14:01:07.000Z</time>
      </trkpt>
      <trkpt lat="43.52212" lon="5.51371">
        <ele>206</ele>
        <time>2018-02-20T14:01:08.000Z</time>
      </trkpt>
      <trkpt lat="43.52212" lon="5.51369">
        <ele>206</ele>
        <time>2018-02-20T14:01:09.000Z</time>
      </trkpt>
      <trkpt lat="43.52212" lon="5.51367">
        <ele>206</ele>
        <time>2018-02-20T14:01:10.000Z</time>
      </trkpt>
      <trkpt lat="43.52212" lon="5.51365">
        <ele>206</ele>
        <time>2018-02-20T14:01:11.000Z</time>
      </trkpt>
      <trkpt lat="43.52211" lon="5.51363">
        <ele>206</ele>
        <time>2018-02-20T14:01:12.000Z</time>
      </trkpt>
      <trkpt lat="43.52211" lon="5.51361">
        <ele>205</ele>
        <time>2018-02-20T14:01:13.000Z</time>
      </trkpt>
      <trkpt lat="43.52211" lon="5.5136">
        <ele>205</ele>
        <time>2018-02-20T14:01:14.000Z</time>
      </trkpt>
      <trkpt lat="43.52211" lon="5.51359">
        <ele>205</ele>
        <time>2018-02-20T14:01:15.000Z</time>
      </trkpt>
      <trkpt lat="43.5221" lon="5.51358">
        <ele>205</ele>
        <time>2018-02-20T14:01:16.000Z</time>
      </trkpt>
      <trkpt lat="43.5221" lon="5.51356">
        <ele>205</ele>
        <time>2018-02-20T14:01:17.000Z</time>
      </trkpt>
      <trkpt lat="43.52209" lon="5.51354">
        <ele>204</ele>
        <time>2018-02-20T14:01:18.000Z</time>
      </trkpt>
      <trkpt lat="43.52209" lon="5.51353">
        <ele>204</ele>
        <time>2018-02-20T14:01:19.000Z</time>
      </trkpt>
      <trkpt lat="43.52209" lon="5.51351">
        <ele>204</ele>
        <time>2018-02-20T14:01:20.000Z</time>
      </trkpt>
      <trkpt lat="43.52208" lon="5.5135">
        <ele>204</ele>
        <time>2018-02-20T14:01:21.000Z</time>
      </trkpt>
      <trkpt lat="43.52208" lon="5.51349">
        <ele>203</ele>
        <time>2018-02-20T14:01:22.000Z</time>
      </trkpt>
      <trkpt lat="43.52208" lon="5.51348">
        <ele>203</ele>
        <time>2018-02-20T14:01:23.000Z</time>
      </trkpt>
      <trkpt lat="43.52207" lon="5.51346">
        <ele>203</ele>
        <time>2018-02-20T14:01:24.000Z</time>
      </trkpt>
      <trkpt lat="43.52207" lon="5.51344">
        <ele>203</ele>
        <time>2018-02-20T14:01:25.000Z</time>
      </trkpt>
      <trkpt lat="43.52207" lon="5.51343">
        <ele>202</ele>
        <time>2018-02-20T14:01:26.000Z</time>
      </trkpt>
      <trkpt lat="43.52207" lon="5.51341">
        <ele>202</ele>
        <time>2018-02-20T14:01:27.000Z</time>
      </trkpt>
      <trkpt lat="43.52206" lon="5.51339">
        <ele>202</ele>
        <time>2018-02-20T14:01:28.000Z</time>
      </trkpt>
      <trkpt lat="43.52206" lon="5.51338">
        <ele>202</ele>
        <time>2018-02-20T14:01:29.000Z</time>
      </trkpt>
      <trkpt lat="43.52205" lon="5.51336">
        <ele>202</ele>
        <time>2018-02-20T14:01:30.000Z</time>
      </trkpt>
      <trkpt lat="43.52204" lon="5.51335">
        <ele>201</ele>
        <time>2018-02-20T14:01:31.000Z</time>
      </trkpt>
      <trkpt lat="43.52204" lon="5.51333">
        <ele>201</ele>
        <time>2018-02-20T14:01:32.000Z</time>
      </trkpt>
      <trkpt lat="43.52204" lon="5.51332">
        <ele>201</ele>
        <time>2018-02-20T14:01:33.000Z</time>
      </trkpt>
      <trkpt lat="43.52203" lon="5.51331">
        <ele>201</ele>
        <time>2018-02-20T14:01:34.000Z</time>
      </trkpt>
      <trkpt lat="43.52203" lon="5.51329">
        <ele>201</ele>
        <time>2018-02-20T14:01:35.000Z</time>
      </trkpt>
      <trkpt lat="43.52202" lon="5.51328">
        <ele>200</ele>
        <time>2018-02-20T14:01:36.000Z</time>
      </trkpt>
      <trkpt lat="43.52201" lon="5.51326">
        <ele>200</ele>
        <time>2018-02-20T14:01:37.000Z</time>
      </trkpt>
      <trkpt lat="43.52201" lon="5.51325">
        <ele>200</ele>
        <time>2018-02-20T14:01:38.000Z</time>
      </trkpt>
      <trkpt lat="43.52201" lon="5.51324">
        <ele>200</ele>
        <time>2018-02-20T14:01:39.000Z</time>
      </trkpt>
      <trkpt lat="43.52201" lon="5.51324">
        <ele>200</ele>
        <time>2018-02-20T14:01:40.000Z</time>
      </trkpt>
      <trkpt lat="43.52201" lon="5.51323">
        <ele>200</ele>
        <time>2018-02-20T14:01:41.000Z</time>
      </trkpt>
      <trkpt lat="43.52201" lon="5.51323">
        <ele>199</ele>
        <time>2018-02-20T14:01:42.000Z</time>
      </trkpt>
      <trkpt lat="43.52201" lon="5.51323">
        <ele>199</ele>
        <time>2018-02-20T14:01:43.000Z</time>
      </trkpt>
      <trkpt lat="43.52201" lon="5.51323">
        <ele>199</ele>
        <time>2018-02-20T14:01:44.000Z</time>
      </trkpt>
      <trkpt lat="43.52201" lon="5.51322">
        <ele>199</ele>
        <time>2018-02-20T14:01:45.000Z</time>
      </trkpt>
      <trkpt lat="43.52201" lon="5.51322">
        <ele>199</ele>
        <time>2018-02-20T14:01:46.000Z</time>
      </trkpt>
      <trkpt lat="43.522" lon="5.5132">
        <ele>198</ele>
        <time>2018-02-20T14:01:47.000Z</time>
      </trkpt>
      <trkpt lat="43.522" lon="5.51319">
        <ele>198</ele>
        <time>2018-02-20T14:01:48.000Z</time>
      </trkpt>
      <trkpt lat="43.52199" lon="5.51318">
        <ele>198</ele>
        <time>2018-02-20T14:01:49.000Z</time>
      </trkpt>
      <trkpt lat="43.52199" lon="5.51317">
        <ele>198</ele>
        <time>2018-02-20T14:01:50.000Z</time>
      </trkpt>
      <trkpt lat="43.52198" lon="5.51316">
        <ele>198</ele>
        <time>2018-02-20T14:01:51.000Z</time>
      </trkpt>
      <trkpt lat="43.52198" lon="5.51314">
        <ele>198</ele>
        <time>2018-02-20T14:01:52.000Z</time>
      </trkpt>
      <trkpt lat="43.52197" lon="5.51313">
        <ele>198</ele>
        <time>2018-02-20T14:01:53.000Z</time>
      </trkpt>
      <trkpt lat="43.52196" lon="5.51312">
        <ele>198</ele>
        <time>2018-02-20T14:01:54.000Z</time>
      </trkpt>
      <trkpt lat="43.52196" lon="5.51312">
        <ele>198</ele>
        <time>2018-02-20T14:01:55.000Z</time>
      </trkpt>
      <trkpt lat="43.52195" lon="5.51311">
        <ele>198</ele>
        <time>2018-02-20T14:01:56.000Z</time>
      </trkpt>
      <trkpt lat="43.52194" lon="5.5131">
        <ele>198</ele>
        <time>2018-02-20T14:01:57.000Z</time>
      </trkpt>
      <trkpt lat="43.52193" lon="5.51309">
        <ele>198</ele>
        <time>2018-02-20T14:01:58.000Z</time>
      </trkpt>
      <trkpt lat="43.52192" lon="5.51309">
        <ele>198</ele>
        <time>2018-02-20T14:01:59.000Z</time>
      </trkpt>
      <trkpt lat="43.52192" lon="5.51308">
        <ele>198</ele>
        <time>2018-02-20T14:02:00.000Z</time>
      </trkpt>
      <trkpt lat="43.52191" lon="5.51307">
        <ele>198</ele>
        <time>2018-02-20T14:02:01.000Z</time>
      </trkpt>
      <trkpt lat="43.5219" lon="5.51305">
        <ele>198</ele>
        <time>2018-02-20T14:02:02.000Z</time>
      </trkpt>
      <trkpt lat="43.52189" lon="5.51305">
        <ele>197</ele>
        <time>2018-02-20T14:02:03.000Z</time>
      </trkpt>
      <trkpt lat="43.52188" lon="5.51304">
        <ele>197</ele>
        <time>2018-02-20T14:02:04.000Z</time>
      </trkpt>
      <trkpt lat="43.52187" lon="5.51303">
        <ele>197</ele>
        <time>2018-02-20T14:02:05.000Z</time>
      </trkpt>
      <trkpt lat="43.52187" lon="5.51302">
        <ele>197</ele>
        <time>2018-02-20T14:02:06.000Z</time>
      </trkpt>
      <trkpt lat="43.52186" lon="5.51301">
        <ele>197</ele>
        <time>2018-02-20T14:02:07.000Z</time>
      </trkpt>
      <trkpt lat="43.52186" lon="5.513">
        <ele>197</ele>
        <time>2018-02-20T14:02:08.000Z</time>
      </trkpt>
      <trkpt lat="43.52186" lon="5.51299">
        <ele>197</ele>
        <time>2018-02-20T14:02:09.000Z</time>
      </trkpt>
      <trkpt lat="43.52186" lon="5.51298">
        <ele>197</ele>
        <time>2018-02-20T14:02:10.000Z</time>
      </trkpt>
      <trkpt lat="43.52186" lon="5.51298">
        <ele>197</ele>
        <time>2018-02-20T14:02:11.000Z</time>
      </trkpt>
      <trkpt lat="43.52186" lon="5.51297">
        <ele>196</ele>
        <time>2018-02-20T14:02:12.000Z</time>
      </trkpt>
      <trkpt lat="43.52186" lon="5.51296">
        <ele>196</ele>
        <time>2018-02-20T14:02:13.000Z</time>
      </trkpt>
      <trkpt lat="43.52186" lon="5.51294">
        <ele>196</ele>
        <time>2018-02-20T14:02:14.000Z</time>
      </trkpt>
      <trkpt lat="43.52186" lon="5.51293">
        <ele>196</ele>
        <time>2018-02-20T14:02:15.000Z</time>
      </trkpt>
      <trkpt lat="43.52186" lon="5.51291">
        <ele>196</ele>
        <time>2018-02-20T14:02:16.000Z</time>
      </trkpt>
      <trkpt lat="43.52186" lon="5.51289">
        <ele>196</ele>
        <time>2018-02-20T14:02:17.000Z</time>
      </trkpt>
      <trkpt lat="43.52186" lon="5.51288">
        <ele>196</ele>
        <time>2018-02-20T14:02:18.000Z</time>
      </trkpt>
      <trkpt lat="43.52186" lon="5.51286">
        <ele>196</ele>
        <time>2018-02-20T14:02:19.000Z</time>
      </trkpt>
      <trkpt lat="43.52185" lon="5.51284">
        <ele>196</ele>
        <time>2018-02-20T14:02:20.000Z</time>
      </trkpt>
      <trkpt lat="43.52185" lon="5.51283">
        <ele>196</ele>
        <time>2018-02-20T14:02:21.000Z</time>
      </trkpt>
      <trkpt lat="43.52185" lon="5.51281">
        <ele>196</ele>
        <time>2018-02-20T14:02:22.000Z</time>
      </trkpt>
      <trkpt lat="43.52185" lon="5.51279">
        <ele>196</ele>
        <time>2018-02-20T14:02:23.000Z</time>
      </trkpt>
      <trkpt lat="43.52185" lon="5.51277">
        <ele>196</ele>
        <time>2018-02-20T14:02:24.000Z</time>
      </trkpt>
      <trkpt lat="43.52185" lon="5.51275">
        <ele>196</ele>
        <time>2018-02-20T14:02:25.000Z</time>
      </trkpt>
      <trkpt lat="43.52184" lon="5.51273">
        <ele>196</ele>
        <time>2018-02-20T14:02:26.000Z</time>
      </trkpt>
      <trkpt lat="43.52184" lon="5.51272">
        <ele>196</ele>
        <time>2018-02-20T14:02:27.000Z</time>
      </trkpt>
      <trkpt lat="43.52184" lon="5.5127">
        <ele>196</ele>
        <time>2018-02-20T14:02:28.000Z</time>
      </trkpt>
      <trkpt lat="43.52183" lon="5.51269">
        <ele>196</ele>
        <time>2018-02-20T14:02:29.000Z</time>
      </trkpt>
      <trkpt lat="43.52182" lon="5.51268">
        <ele>196</ele>
        <time>2018-02-20T14:02:30.000Z</time>
      </trkpt>
      <trkpt lat="43.52182" lon="5.51266">
        <ele>196</ele>
        <time>2018-02-20T14:02:31.000Z</time>
      </trkpt>
      <trkpt lat="43.52181" lon="5.51265">
        <ele>196</ele>
        <time>2018-02-20T14:02:32.000Z</time>
      </trkpt>
      <trkpt lat="43.52181" lon="5.51262">
        <ele>196</ele>
        <time>2018-02-20T14:02:33.000Z</time>
      </trkpt>
      <trkpt lat="43.5218" lon="5.51261">
        <ele>196</ele>
        <time>2018-02-20T14:02:34.000Z</time>
      </trkpt>
      <trkpt lat="43.5218" lon="5.51259">
        <ele>196</ele>
        <time>2018-02-20T14:02:35.000Z</time>
      </trkpt>
      <trkpt lat="43.5218" lon="5.51257">
        <ele>196</ele>
        <time>2018-02-20T14:02:36.000Z</time>
      </trkpt>
      <trkpt lat="43.5218" lon="5.51255">
        <ele>196</ele>
        <time>2018-02-20T14:02:37.000Z</time>
      </trkpt>
      <trkpt lat="43.52179" lon="5.51253">
        <ele>196</ele>
        <time>2018-02-20T14:02:38.000Z</time>
      </trkpt>
      <trkpt lat="43.52178" lon="5.51251">
        <ele>196</ele>
        <time>2018-02-20T14:02:39.000Z</time>
      </trkpt>
      <trkpt lat="43.52178" lon="5.51249">
        <ele>196</ele>
        <time>2018-02-20T14:02:40.000Z</time>
      </trkpt>
      <trkpt lat="43.52177" lon="5.51248">
        <ele>196</ele>
        <time>2018-02-20T14:02:41.000Z</time>
      </trkpt>
      <trkpt lat="43.52177" lon="5.51246">
        <ele>196</ele>
        <time>2018-02-20T14:02:42.000Z</time>
      </trkpt>
      <trkpt lat="43.52176" lon="5.51245">
        <ele>196</ele>
        <time>2018-02-20T14:02:43.000Z</time>
      </trkpt>
      <trkpt lat="43.52176" lon="5.51243">
        <ele>196</ele>
        <time>2018-02-20T14:02:44.000Z</time>
      </trkpt>
      <trkpt lat="43.52176" lon="5.51241">
        <ele>196</ele>
        <time>2018-02-20T14:02:45.000Z</time>
      </trkpt>
      <trkpt lat="43.52176" lon="5.51239">
        <ele>196</ele>
        <time>2018-02-20T14:02:46.000Z</time>
      </trkpt>
      <trkpt lat="43.52175" lon="5.51237">
        <ele>196</ele>
        <time>2018-02-20T14:02:47.000Z</time>
      </trkpt>
      <trkpt lat="43.52175" lon="5.51235">
        <ele>196</ele>
        <time>2018-02-20T14:02:48.000Z</time>
      </trkpt>
      <trkpt lat="43.52175" lon="5.51233">
        <ele>196</ele>
        <time>2018-02-20T14:02:49.000Z</time>
      </trkpt>
      <trkpt lat="43.52175" lon="5.51232">
        <ele>196</ele>
        <time>2018-02-20T14:02:50.000Z</time>
      </trkpt>
      <trkpt lat="43.52175" lon="5.5123">
        <ele>196</ele>
        <time>2018-02-20T14:02:51.000Z</time>
      </trkpt>
      <trkpt lat="43.52175" lon="5.51228">
        <ele>196</ele>
        <time>2018-02-20T14:02:52.000Z</time>
      </trkpt>
      <trkpt lat="43.52175" lon="5.51227">
        <ele>196</ele>
        <time>2018-02-20T14:02:53.000Z</time>
      </trkpt>
      <trkpt lat="43.52175" lon="5.51225">
        <ele>196</ele>
        <time>2018-02-20T14:02:54.000Z</time>
      </trkpt>
      <trkpt lat="43.52175" lon="5.51223">
        <ele>195</ele>
        <time>2018-02-20T14:02:55.000Z</time>
      </trkpt>
      <trkpt lat="43.52175" lon="5.51221">
        <ele>195</ele>
        <time>2018-02-20T14:02:56.000Z</time>
      </trkpt>
      <trkpt lat="43.52175" lon="5.5122">
        <ele>195</ele>
        <time>2018-02-20T14:02:57.000Z</time>
      </trkpt>
      <trkpt lat="43.52175" lon="5.51218">
        <ele>194</ele>
        <time>2018-02-20T14:02:58.000Z</time>
      </trkpt>
      <trkpt lat="43.52175" lon="5.51216">
        <ele>194</ele>
        <time>2018-02-20T14:02:59.000Z</time>
      </trkpt>
      <trkpt lat="43.52175" lon="5.51214">
        <ele>194</ele>
        <time>2018-02-20T14:03:00.000Z</time>
      </trkpt>
      <trkpt lat="43.52175" lon="5.51212">
        <ele>193</ele>
        <time>2018-02-20T14:03:01.000Z</time>
      </trkpt>
      <trkpt lat="43.52175" lon="5.51211">
        <ele>193</ele>
        <time>2018-02-20T14:03:02.000Z</time>
      </trkpt>
      <trkpt lat="43.52176" lon="5.51209">
        <ele>192</ele>
        <time>2018-02-20T14:03:03.000Z</time>
      </trkpt>
      <trkpt lat="43.52176" lon="5.51208">
        <ele>192</ele>
        <time>2018-02-20T14:03:04.000Z</time>
      </trkpt>
      <trkpt lat="43.52176" lon="5.51206">
        <ele>192</ele>
        <time>2018-02-20T14:03:05.000Z</time>
      </trkpt>
      <trkpt lat="43.52176" lon="5.51205">
        <ele>192</ele>
        <time>2018-02-20T14:03:06.000Z</time>
      </trkpt>
      <trkpt lat="43.52176" lon="5.51203">
        <ele>191</ele>
        <time>2018-02-20T14:03:07.000Z</time>
      </trkpt>
      <trkpt lat="43.52176" lon="5.51202">
        <ele>191</ele>
        <time>2018-02-20T14:03:08.000Z</time>
      </trkpt>
      <trkpt lat="43.52176" lon="5.512">
        <ele>191</ele>
        <time>2018-02-20T14:03:09.000Z</time>
      </trkpt>
      <trkpt lat="43.52177" lon="5.51199">
        <ele>190</ele>
        <time>2018-02-20T14:03:10.000Z</time>
      </trkpt>
      <trkpt lat="43.52177" lon="5.51197">
        <ele>190</ele>
        <time>2018-02-20T14:03:11.000Z</time>
      </trkpt>
      <trkpt lat="43.52177" lon="5.51195">
        <ele>190</ele>
        <time>2018-02-20T14:03:12.000Z</time>
      </trkpt>
      <trkpt lat="43.52177" lon="5.51194">
        <ele>190</ele>
        <time>2018-02-20T14:03:13.000Z</time>
      </trkpt>
      <trkpt lat="43.52177" lon="5.51192">
        <ele>189</ele>
        <time>2018-02-20T14:03:14.000Z</time>
      </trkpt>
      <trkpt lat="43.52178" lon="5.51191">
        <ele>189</ele>
        <time>2018-02-20T14:03:15.000Z</time>
      </trkpt>
      <trkpt lat="43.52178" lon="5.51189">
        <ele>189</ele>
        <time>2018-02-20T14:03:16.000Z</time>
      </trkpt>
      <trkpt lat="43.52178" lon="5.51188">
        <ele>189</ele>
        <time>2018-02-20T14:03:17.000Z</time>
      </trkpt>
      <trkpt lat="43.52179" lon="5.51186">
        <ele>189</ele>
        <time>2018-02-20T14:03:18.000Z</time>
      </trkpt>
      <trkpt lat="43.52179" lon="5.51185">
        <ele>188</ele>
        <time>2018-02-20T14:03:19.000Z</time>
      </trkpt>
      <trkpt lat="43.52179" lon="5.51183">
        <ele>188</ele>
        <time>2018-02-20T14:03:20.000Z</time>
      </trkpt>
      <trkpt lat="43.5218" lon="5.51182">
        <ele>188</ele>
        <time>2018-02-20T14:03:21.000Z</time>
      </trkpt>
      <trkpt lat="43.5218" lon="5.5118">
        <ele>188</ele>
        <time>2018-02-20T14:03:22.000Z</time>
      </trkpt>
      <trkpt lat="43.5218" lon="5.51179">
        <ele>187</ele>
        <time>2018-02-20T14:03:23.000Z</time>
      </trkpt>
      <trkpt lat="43.52181" lon="5.51177">
        <ele>187</ele>
        <time>2018-02-20T14:03:24.000Z</time>
      </trkpt>
      <trkpt lat="43.52181" lon="5.51176">
        <ele>187</ele>
        <time>2018-02-20T14:03:25.000Z</time>
      </trkpt>
      <trkpt lat="43.52181" lon="5.51175">
        <ele>187</ele>
        <time>2018-02-20T14:03:26.000Z</time>
      </trkpt>
      <trkpt lat="43.52182" lon="5.51173">
        <ele>186</ele>
        <time>2018-02-20T14:03:27.000Z</time>
      </trkpt>
      <trkpt lat="43.52182" lon="5.51172">
        <ele>186</ele>
        <time>2018-02-20T14:03:28.000Z</time>
      </trkpt>
      <trkpt lat="43.52183" lon="5.51171">
        <ele>186</ele>
        <time>2018-02-20T14:03:29.000Z</time>
      </trkpt>
      <trkpt lat="43.52184" lon="5.51169">
        <ele>186</ele>
        <time>2018-02-20T14:03:30.000Z</time>
      </trkpt>
      <trkpt lat="43.52184" lon="5.51168">
        <ele>186</ele>
        <time>2018-02-20T14:03:31.000Z</time>
      </trkpt>
      <trkpt lat="43.52185" lon="5.51167">
        <ele>186</ele>
        <time>2018-02-20T14:03:32.000Z</time>
      </trkpt>
      <trkpt lat="43.52185" lon="5.51166">
        <ele>185</ele>
        <time>2018-02-20T14:03:33.000Z</time>
      </trkpt>
      <trkpt lat="43.52186" lon="5.51164">
        <ele>185</ele>
        <time>2018-02-20T14:03:34.000Z</time>
      </trkpt>
      <trkpt lat="43.52186" lon="5.51163">
        <ele>185</ele>
        <time>2018-02-20T14:03:35.000Z</time>
      </trkpt>
      <trkpt lat="43.52186" lon="5.51162">
        <ele>185</ele>
        <time>2018-02-20T14:03:36.000Z</time>
      </trkpt>
      <trkpt lat="43.52187" lon="5.51161">
        <ele>185</ele>
        <time>2018-02-20T14:03:37.000Z</time>
      </trkpt>
      <trkpt lat="43.52188" lon="5.51159">
        <ele>185</ele>
        <time>2018-02-20T14:03:38.000Z</time>
      </trkpt>
      <trkpt lat="43.52188" lon="5.51158">
        <ele>184</ele>
        <time>2018-02-20T14:03:39.000Z</time>
      </trkpt>
      <trkpt lat="43.52189" lon="5.51156">
        <ele>184</ele>
        <time>2018-02-20T14:03:40.000Z</time>
      </trkpt>
      <trkpt lat="43.52189" lon="5.51155">
        <ele>184</ele>
        <time>2018-02-20T14:03:41.000Z</time>
      </trkpt>
      <trkpt lat="43.5219" lon="5.51154">
        <ele>184</ele>
        <time>2018-02-20T14:03:42.000Z</time>
      </trkpt>
      <trkpt lat="43.5219" lon="5.51153">
        <ele>184</ele>
        <time>2018-02-20T14:03:43.000Z</time>
      </trkpt>
      <trkpt lat="43.52191" lon="5.51151">
        <ele>184</ele>
        <time>2018-02-20T14:03:44.000Z</time>
      </trkpt>
      <trkpt lat="43.52191" lon="5.5115">
        <ele>184</ele>
        <time>2018-02-20T14:03:45.000Z</time>
      </trkpt>
      <trkpt lat="43.52191" lon="5.51149">
        <ele>185</ele>
        <time>2018-02-20T14:03:46.000Z</time>
      </trkpt>
      <trkpt lat="43.52192" lon="5.51147">
        <ele>185</ele>
        <time>2018-02-20T14:03:47.000Z</time>
      </trkpt>
      <trkpt lat="43.52192" lon="5.51146">
        <ele>185</ele>
        <time>2018-02-20T14:03:48.000Z</time>
      </trkpt>
      <trkpt lat="43.52193" lon="5.51145">
        <ele>185</ele>
        <time>2018-02-20T14:03:49.000Z</time>
      </trkpt>
      <trkpt lat="43.52194" lon="5.51144">
        <ele>185</ele>
        <time>2018-02-20T14:03:50.000Z</time>
      </trkpt>
      <trkpt lat="43.52195" lon="5.51143">
        <ele>184</ele>
        <time>2018-02-20T14:03:51.000Z</time>
      </trkpt>
      <trkpt lat="43.52195" lon="5.51141">
        <ele>184</ele>
        <time>2018-02-20T14:03:52.000Z</time>
      </trkpt>
      <trkpt lat="43.52196" lon="5.5114">
        <ele>184</ele>
        <time>2018-02-20T14:03:53.000Z</time>
      </trkpt>
      <trkpt lat="43.52197" lon="5.51139">
        <ele>184</ele>
        <time>2018-02-20T14:03:54.000Z</time>
      </trkpt>
      <trkpt lat="43.52197" lon="5.51137">
        <ele>184</ele>
        <time>2018-02-20T14:03:55.000Z</time>
      </trkpt>
      <trkpt lat="43.52197" lon="5.51136">
        <ele>184</ele>
        <time>2018-02-20T14:03:56.000Z</time>
      </trkpt>
      <trkpt lat="43.52196" lon="5.51135">
        <ele>184</ele>
        <time>2018-02-20T14:03:57.000Z</time>
      </trkpt>
      <trkpt lat="43.52196" lon="5.51134">
        <ele>184</ele>
        <time>2018-02-20T14:03:58.000Z</time>
      </trkpt>
      <trkpt lat="43.52196" lon="5.51132">
        <ele>184</ele>
        <time>2018-02-20T14:03:59.000Z</time>
      </trkpt>
      <trkpt lat="43.52197" lon="5.51131">
        <ele>184</ele>
        <time>2018-02-20T14:04:00.000Z</time>
      </trkpt>
      <trkpt lat="43.52197" lon="5.5113">
        <ele>184</ele>
        <time>2018-02-20T14:04:01.000Z</time>
      </trkpt>
      <trkpt lat="43.52197" lon="5.51128">
        <ele>184</ele>
        <time>2018-02-20T14:04:02.000Z</time>
      </trkpt>
      <trkpt lat="43.52197" lon="5.51127">
        <ele>184</ele>
        <time>2018-02-20T14:04:03.000Z</time>
      </trkpt>
      <trkpt lat="43.52198" lon="5.51125">
        <ele>184</ele>
        <time>2018-02-20T14:04:04.000Z</time>
      </trkpt>
      <trkpt lat="43.52198" lon="5.51124">
        <ele>184</ele>
        <time>2018-02-20T14:04:05.000Z</time>
      </trkpt>
      <trkpt lat="43.52199" lon="5.51122">
        <ele>184</ele>
        <time>2018-02-20T14:04:06.000Z</time>
      </trkpt>
      <trkpt lat="43.52199" lon="5.51121">
        <ele>184</ele>
        <time>2018-02-20T14:04:07.000Z</time>
      </trkpt>
      <trkpt lat="43.522" lon="5.5112">
        <ele>184</ele>
        <time>2018-02-20T14:04:08.000Z</time>
      </trkpt>
      <trkpt lat="43.522" lon="5.51119">
        <ele>184</ele>
        <time>2018-02-20T14:04:09.000Z</time>
      </trkpt>
      <trkpt lat="43.52201" lon="5.51118">
        <ele>184</ele>
        <time>2018-02-20T14:04:10.000Z</time>
      </trkpt>
      <trkpt lat="43.52201" lon="5.51117">
        <ele>184</ele>
        <time>2018-02-20T14:04:11.000Z</time>
      </trkpt>
      <trkpt lat="43.52201" lon="5.51116">
        <ele>184</ele>
        <time>2018-02-20T14:04:12.000Z</time>
      </trkpt>
      <trkpt lat="43.52201" lon="5.51115">
        <ele>184</ele>
        <time>2018-02-20T14:04:13.000Z</time>
      </trkpt>
      <trkpt lat="43.52202" lon="5.51113">
        <ele>184</ele>
        <time>2018-02-20T14:04:14.000Z</time>
      </trkpt>
      <trkpt lat="43.52202" lon="5.51112">
        <ele>184</ele>
        <time>2018-02-20T14:04:15.000Z</time>
      </trkpt>
      <trkpt lat="43.52203" lon="5.51111">
        <ele>184</ele>
        <time>2018-02-20T14:04:16.000Z</time>
      </trkpt>
      <trkpt lat="43.52203" lon="5.5111">
        <ele>184</ele>
        <time>2018-02-20T14:04:17.000Z</time>
      </trkpt>
      <trkpt lat="43.52204" lon="5.51109">
        <ele>184</ele>
        <time>2018-02-20T14:04:18.000Z</time>
      </trkpt>
      <trkpt lat="43.52204" lon="5.51108">
        <ele>184</ele>
        <time>2018-02-20T14:04:19.000Z</time>
      </trkpt>
      <trkpt lat="43.52204" lon="5.51106">
        <ele>184</ele>
        <time>2018-02-20T14:04:20.000Z</time>
      </trkpt>
      <trkpt lat="43.52205" lon="5.51105">
        <ele>184</ele>
        <time>2018-02-20T14:04:21.000Z</time>
      </trkpt>
      <trkpt lat="43.52205" lon="5.51104">
        <ele>185</ele>
        <time>2018-02-20T14:04:22.000Z</time>
      </trkpt>
      <trkpt lat="43.52206" lon="5.51103">
        <ele>185</ele>
        <time>2018-02-20T14:04:23.000Z</time>
      </trkpt>
      <trkpt lat="43.52205" lon="5.51102">
        <ele>185</ele>
        <time>2018-02-20T14:04:24.000Z</time>
      </trkpt>
      <trkpt lat="43.52205" lon="5.511">
        <ele>185</ele>
        <time>2018-02-20T14:04:25.000Z</time>
      </trkpt>
      <trkpt lat="43.52205" lon="5.51099">
        <ele>185</ele>
        <time>2018-02-20T14:04:26.000Z</time>
      </trkpt>
      <trkpt lat="43.52205" lon="5.51098">
        <ele>185</ele>
        <time>2018-02-20T14:04:27.000Z</time>
      </trkpt>
      <trkpt lat="43.52204" lon="5.51097">
        <ele>185</ele>
        <time>2018-02-20T14:04:28.000Z</time>
      </trkpt>
      <trkpt lat="43.52204" lon="5.51095">
        <ele>186</ele>
        <time>2018-02-20T14:04:29.000Z</time>
      </trkpt>
      <trkpt lat="43.52203" lon="5.51095">
        <ele>186</ele>
        <time>2018-02-20T14:04:30.000Z</time>
      </trkpt>
      <trkpt lat="43.52202" lon="5.51094">
        <ele>186</ele>
        <time>2018-02-20T14:04:31.000Z</time>
      </trkpt>
      <trkpt lat="43.52202" lon="5.51094">
        <ele>186</ele>
        <time>2018-02-20T14:04:32.000Z</time>
      </trkpt>
      <trkpt lat="43.52202" lon="5.51095">
        <ele>186</ele>
        <time>2018-02-20T14:04:33.000Z</time>
      </trkpt>
      <trkpt lat="43.52202" lon="5.51096">
        <ele>186</ele>
        <time>2018-02-20T14:04:34.000Z</time>
      </trkpt>
      <trkpt lat="43.52201" lon="5.51097">
        <ele>186</ele>
        <time>2018-02-20T14:04:35.000Z</time>
      </trkpt>
      <trkpt lat="43.522" lon="5.51097">
        <ele>187</ele>
        <time>2018-02-20T14:04:36.000Z</time>
      </trkpt>
      <trkpt lat="43.522" lon="5.51097">
        <ele>187</ele>
        <time>2018-02-20T14:04:37.000Z</time>
      </trkpt>
      <trkpt lat="43.522" lon="5.51097">
        <ele>187</ele>
        <time>2018-02-20T14:04:38.000Z</time>
      </trkpt>
      <trkpt lat="43.522" lon="5.51097">
        <ele>187</ele>
        <time>2018-02-20T14:04:39.000Z</time>
      </trkpt>
      <trkpt lat="43.522" lon="5.51097">
        <ele>187</ele>
        <time>2018-02-20T14:04:40.000Z</time>
      </trkpt>
      <trkpt lat="43.522" lon="5.51096">
        <ele>187</ele>
        <time>2018-02-20T14:04:41.000Z</time>
      </trkpt>
      <trkpt lat="43.522" lon="5.51096">
        <ele>187</ele>
        <time>2018-02-20T14:04:42.000Z</time>
      </trkpt>
      <trkpt lat="43.52199" lon="5.51096">
        <ele>187</ele>
        <time>2018-02-20T14:04:43.000Z</time>
      </trkpt>
      <trkpt lat="43.52199" lon="5.51096">
        <ele>187</ele>
        <time>2018-02-20T14:04:44.000Z</time>
      </trkpt>
      <trkpt lat="43.52199" lon="5.51096">
        <ele>187</ele>
        <time>2018-02-20T14:04:45.000Z</time>
      </trkpt>
      <trkpt lat="43.52199" lon="5.51096">
        <ele>187</ele>
        <time>2018-02-20T14:04:46.000Z</time>
      </trkpt>
      <trkpt lat="43.52199" lon="5.51096">
        <ele>187</ele>
        <time>2018-02-20T14:04:47.000Z</time>
      </trkpt>
      <trkpt lat="43.52199" lon="5.51096">
        <ele>187</ele>
        <time>2018-02-20T14:04:48.000Z</time>
      </trkpt>
      <trkpt lat="43.52199" lon="5.51096">
        <ele>187</ele>
        <time>2018-02-20T14:04:49.000Z</time>
      </trkpt>
      <trkpt lat="43.52199" lon="5.51096">
        <ele>188</ele>
        <time>2018-02-20T14:04:50.000Z</time>
      </trkpt>
      <trkpt lat="43.52199" lon="5.51095">
        <ele>188</ele>
        <time>2018-02-20T14:04:51.000Z</time>
      </trkpt>
      <trkpt lat="43.52199" lon="5.51094">
        <ele>188</ele>
        <time>2018-02-20T14:04:52.000Z</time>
      </trkpt>
      <trkpt lat="43.52199" lon="5.51093">
        <ele>188</ele>
        <time>2018-02-20T14:04:53.000Z</time>
      </trkpt>
      <trkpt lat="43.52198" lon="5.51092">
        <ele>188</ele>
        <time>2018-02-20T14:04:54.000Z</time>
      </trkpt>
      <trkpt lat="43.52198" lon="5.5109">
        <ele>188</ele>
        <time>2018-02-20T14:04:55.000Z</time>
      </trkpt>
      <trkpt lat="43.52198" lon="5.51088">
        <ele>188</ele>
        <time>2018-02-20T14:04:56.000Z</time>
      </trkpt>
      <trkpt lat="43.52197" lon="5.51087">
        <ele>188</ele>
        <time>2018-02-20T14:04:57.000Z</time>
      </trkpt>
      <trkpt lat="43.52197" lon="5.51085">
        <ele>188</ele>
        <time>2018-02-20T14:04:58.000Z</time>
      </trkpt>
      <trkpt lat="43.52198" lon="5.51084">
        <ele>188</ele>
        <time>2018-02-20T14:04:59.000Z</time>
      </trkpt>
      <trkpt lat="43.52198" lon="5.51082">
        <ele>188</ele>
        <time>2018-02-20T14:05:00.000Z</time>
      </trkpt>
      <trkpt lat="43.52198" lon="5.5108">
        <ele>188</ele>
        <time>2018-02-20T14:05:01.000Z</time>
      </trkpt>
      <trkpt lat="43.52198" lon="5.51079">
        <ele>188</ele>
        <time>2018-02-20T14:05:02.000Z</time>
      </trkpt>
      <trkpt lat="43.52197" lon="5.51077">
        <ele>187</ele>
        <time>2018-02-20T14:05:03.000Z</time>
      </trkpt>
      <trkpt lat="43.52197" lon="5.51076">
        <ele>187</ele>
        <time>2018-02-20T14:05:04.000Z</time>
      </trkpt>
      <trkpt lat="43.52197" lon="5.51074">
        <ele>187</ele>
        <time>2018-02-20T14:05:05.000Z</time>
      </trkpt>
      <trkpt lat="43.52198" lon="5.51073">
        <ele>187</ele>
        <time>2018-02-20T14:05:06.000Z</time>
      </trkpt>
      <trkpt lat="43.52198" lon="5.5107">
        <ele>187</ele>
        <time>2018-02-20T14:05:07.000Z</time>
      </trkpt>
      <trkpt lat="43.52198" lon="5.51069">
        <ele>187</ele>
        <time>2018-02-20T14:05:08.000Z</time>
      </trkpt>
      <trkpt lat="43.52198" lon="5.51067">
        <ele>187</ele>
        <time>2018-02-20T14:05:09.000Z</time>
      </trkpt>
      <trkpt lat="43.52197" lon="5.51065">
        <ele>187</ele>
        <time>2018-02-20T14:05:10.000Z</time>
      </trkpt>
      <trkpt lat="43.52197" lon="5.51063">
        <ele>187</ele>
        <time>2018-02-20T14:05:11.000Z</time>
      </trkpt>
      <trkpt lat="43.52197" lon="5.51062">
        <ele>186</ele>
        <time>2018-02-20T14:05:12.000Z</time>
      </trkpt>
      <trkpt lat="43.52196" lon="5.51061">
        <ele>186</ele>
        <time>2018-02-20T14:05:13.000Z</time>
      </trkpt>
      <trkpt lat="43.52196" lon="5.51059">
        <ele>186</ele>
        <time>2018-02-20T14:05:14.000Z</time>
      </trkpt>
      <trkpt lat="43.52196" lon="5.51058">
        <ele>186</ele>
        <time>2018-02-20T14:05:15.000Z</time>
      </trkpt>
      <trkpt lat="43.52195" lon="5.51057">
        <ele>186</ele>
        <time>2018-02-20T14:05:16.000Z</time>
      </trkpt>
      <trkpt lat="43.52195" lon="5.51056">
        <ele>185</ele>
        <time>2018-02-20T14:05:17.000Z</time>
      </trkpt>
      <trkpt lat="43.52195" lon="5.51055">
        <ele>185</ele>
        <time>2018-02-20T14:05:18.000Z</time>
      </trkpt>
      <trkpt lat="43.52195" lon="5.51055">
        <ele>185</ele>
        <time>2018-02-20T14:05:19.000Z</time>
      </trkpt>
      <trkpt lat="43.52195" lon="5.51054">
        <ele>185</ele>
        <time>2018-02-20T14:05:20.000Z</time>
      </trkpt>
      <trkpt lat="43.52195" lon="5.51054">
        <ele>185</ele>
        <time>2018-02-20T14:05:21.000Z</time>
      </trkpt>
      <trkpt lat="43.52195" lon="5.51054">
        <ele>185</ele>
        <time>2018-02-20T14:05:22.000Z</time>
      </trkpt>
      <trkpt lat="43.52195" lon="5.51054">
        <ele>185</ele>
        <time>2018-02-20T14:05:23.000Z</time>
      </trkpt>
      <trkpt lat="43.52195" lon="5.51054">
        <ele>185</ele>
        <time>2018-02-20T14:05:24.000Z</time>
      </trkpt>
      <trkpt lat="43.52195" lon="5.51054">
        <ele>185</ele>
        <time>2018-02-20T14:05:25.000Z</time>
      </trkpt>
      <trkpt lat="43.52195" lon="5.51054">
        <ele>185</ele>
        <time>2018-02-20T14:05:26.000Z</time>
      </trkpt>
      <trkpt lat="43.52195" lon="5.51054">
        <ele>185</ele>
        <time>2018-02-20T14:05:27.000Z</time>
      </trkpt>
      <trkpt lat="43.52195" lon="5.51054">
        <ele>185</ele>
        <time>2018-02-20T14:05:28.000Z</time>
      </trkpt>
      <trkpt lat="43.52195" lon="5.51054">
        <ele>185</ele>
        <time>2018-02-20T14:05:29.000Z</time>
      </trkpt>
      <trkpt lat="43.52195" lon="5.51054">
        <ele>185</ele>
        <time>2018-02-20T14:05:30.000Z</time>
      </trkpt>
    </trkseg>
  </trk>
</gpx>